<?xml version="1.0" encoding="UTF-8" standalone="no" ?><gpx xmlns="http://www.topografix.com/GPX/1/1" xmlns:gpxx="http://www.garmin.com/xmlschemas/GpxExtensions/v3" xmlns:wptx1="http://www.garmin.com/xmlschemas/WaypointExtension/v1" xmlns:gpxtpx="http://www.garmin.com/xmlschemas/TrackPointExtension/v1" creator="GuideVTT.com" version="1.1" xmlns:xsi="http://www.w3.org/2001/XMLSchema-instance" xsi:schemaLocation="http://www.topografix.com/GPX/1/1 http://www.topografix.com/GPX/1/1/gpx.xsd http://www.garmin.com/xmlschemas/GpxExtensions/v3 http://www8.garmin.com/xmlschemas/GpxExtensionsv3.xsd http://www.garmin.com/xmlschemas/WaypointExtension/v1 http://www8.garmin.com/xmlschemas/WaypointExtensionv1.xsd http://www.garmin.com/xmlschemas/TrackPointExtension/v1 http://www.garmin.com/xmlschemas/TrackPointExtensionv1.xsd">
<metadata><link href="http://www.garmin.com"><text>Garmin International</text></link><time>2013-06-22T15:13:50Z</time></metadata>
<trk><name>07.09.2013_07_20_12.gpx</name><extensions><gpxx:TrackExtension><gpxx:DisplayColor>Cyan</gpxx:DisplayColor></gpxx:TrackExtension></extensions><trkseg>
<trkpt lat="46.616162611171603" lon="7.054981095716357"><ele></ele><time>2013-9-9T9:15:29Z</time></trkpt>
<trkpt lat="46.616029506549239" lon="7.055048737674952"><ele></ele><time>2013-9-9T9:15:32Z</time></trkpt>
<trkpt lat="46.61595867946744" lon="7.055047815665603"><ele></ele><time>2013-9-9T9:15:35Z</time></trkpt>
<trkpt lat="46.615843512117863" lon="7.055054856464267"><ele></ele><time>2013-9-9T9:15:38Z</time></trkpt>
<trkpt lat="46.615831190720201" lon="7.055065669119358"><ele></ele><time>2013-9-9T9:15:41Z</time></trkpt>
<trkpt lat="46.615820629522204" lon="7.055078325793147"><ele></ele><time>2013-9-9T9:15:44Z</time></trkpt>
<trkpt lat="46.615809062495828" lon="7.055098274722695"><ele></ele><time>2013-9-9T9:15:47Z</time></trkpt>
<trkpt lat="46.615796573460102" lon="7.055121157318354"><ele></ele><time>2013-9-9T9:15:50Z</time></trkpt>
<trkpt lat="46.615780396386981" lon="7.055163234472275"><ele></ele><time>2013-9-9T9:15:53Z</time></trkpt>
<trkpt lat="46.615656092762947" lon="7.055429443717003"><ele></ele><time>2013-9-9T9:15:56Z</time></trkpt>
<trkpt lat="46.615646034479141" lon="7.055462300777435"><ele></ele><time>2013-9-9T9:15:59Z</time></trkpt>
<trkpt lat="46.615603286772966" lon="7.055684756487608"><ele></ele><time>2013-9-9T9:16:2Z</time></trkpt>
<trkpt lat="46.615599766373634" lon="7.05596580170095"><ele></ele><time>2013-9-9T9:16:5Z</time></trkpt>
<trkpt lat="46.615577721968293" lon="7.056007962673903"><ele></ele><time>2013-9-9T9:16:8Z</time></trkpt>
<trkpt lat="46.615544445812702" lon="7.056038221344352"><ele></ele><time>2013-9-9T9:16:11Z</time></trkpt>
<trkpt lat="46.615506811067462" lon="7.056063618510962"><ele></ele><time>2013-9-9T9:16:14Z</time></trkpt>
<trkpt lat="46.615465069189668" lon="7.056088428944349"><ele></ele><time>2013-9-9T9:16:17Z</time></trkpt>
<trkpt lat="46.615202128887177" lon="7.056184653192759"><ele></ele><time>2013-9-9T9:16:20Z</time></trkpt>
<trkpt lat="46.61506156437099" lon="7.056144755333662"><ele></ele><time>2013-9-9T9:16:23Z</time></trkpt>
<trkpt lat="46.614895351231098" lon="7.056071581318975"><ele></ele><time>2013-9-9T9:16:26Z</time></trkpt>
<trkpt lat="46.61444004625082" lon="7.055607475340366"><ele></ele><time>2013-9-9T9:16:29Z</time></trkpt>
<trkpt lat="46.613937383517623" lon="7.055291058495641"><ele></ele><time>2013-9-9T9:16:32Z</time></trkpt>
<trkpt lat="46.613884577527642" lon="7.055250741541386"><ele></ele><time>2013-9-9T9:16:35Z</time></trkpt>
<trkpt lat="46.613570842891932" lon="7.054930385202169"><ele></ele><time>2013-9-9T9:16:38Z</time></trkpt>
<trkpt lat="46.613211091607809" lon="7.054608939215541"><ele></ele><time>2013-9-9T9:16:41Z</time></trkpt>
<trkpt lat="46.612958377227187" lon="7.054401487112045"><ele></ele><time>2013-9-9T9:16:44Z</time></trkpt>
<trkpt lat="46.612467532977462" lon="7.054267544299364"><ele></ele><time>2013-9-9T9:16:47Z</time></trkpt>
<trkpt lat="46.612184559926391" lon="7.054258827120066"><ele></ele><time>2013-9-9T9:16:50Z</time></trkpt>
<trkpt lat="46.612134100869298" lon="7.054245080798864"><ele></ele><time>2013-9-9T9:16:53Z</time></trkpt>
<trkpt lat="46.61208531819284" lon="7.054226640611887"><ele></ele><time>2013-9-9T9:16:56Z</time></trkpt>
<trkpt lat="46.612039301544428" lon="7.054204931482673"><ele></ele><time>2013-9-9T9:16:59Z</time></trkpt>
<trkpt lat="46.611997224390507" lon="7.054178612306714"><ele></ele><time>2013-9-9T9:17:2Z</time></trkpt>
<trkpt lat="46.611919524148107" lon="7.0541378762573"><ele></ele><time>2013-9-9T9:17:5Z</time></trkpt>
<trkpt lat="46.611865628510714" lon="7.054055901244283"><ele></ele><time>2013-9-9T9:17:8Z</time></trkpt>
<trkpt lat="46.611840482801199" lon="7.054017009213567"><ele></ele><time>2013-9-9T9:17:11Z</time></trkpt>
<trkpt lat="46.611818019300699" lon="7.053975267335773"><ele></ele><time>2013-9-9T9:17:14Z</time></trkpt>
<trkpt lat="46.611798238009214" lon="7.053932603448629"><ele></ele><time>2013-9-9T9:17:17Z</time></trkpt>
<trkpt lat="46.611777786165476" lon="7.05388817936182"><ele></ele><time>2013-9-9T9:17:20Z</time></trkpt>
<trkpt lat="46.611653733998537" lon="7.053624484688044"><ele></ele><time>2013-9-9T9:17:23Z</time></trkpt>
<trkpt lat="46.61159330047667" lon="7.053495487198234"><ele></ele><time>2013-9-9T9:17:26Z</time></trkpt>
<trkpt lat="46.611575782299042" lon="7.053452739492059"><ele></ele><time>2013-9-9T9:17:29Z</time></trkpt>
<trkpt lat="46.611558431759477" lon="7.053407058119774"><ele></ele><time>2013-9-9T9:17:32Z</time></trkpt>
<trkpt lat="46.611539991572499" lon="7.053359784185886"><ele></ele><time>2013-9-9T9:17:35Z</time></trkpt>
<trkpt lat="46.611521299928427" lon="7.053313935175538"><ele></ele><time>2013-9-9T9:17:38Z</time></trkpt>
<trkpt lat="46.611466482281685" lon="7.053181501105428"><ele></ele><time>2013-9-9T9:17:41Z</time></trkpt>
<trkpt lat="46.611325750127435" lon="7.05287866294384"><ele></ele><time>2013-9-9T9:17:44Z</time></trkpt>
<trkpt lat="46.611205134540796" lon="7.052620835602284"><ele></ele><time>2013-9-9T9:17:47Z</time></trkpt>
<trkpt lat="46.611180491745472" lon="7.052566856145859"><ele></ele><time>2013-9-9T9:17:50Z</time></trkpt>
<trkpt lat="46.611157692968845" lon="7.052515307441354"><ele></ele><time>2013-9-9T9:17:53Z</time></trkpt>
<trkpt lat="46.61113497801125" lon="7.052465099841356"><ele></ele><time>2013-9-9T9:17:56Z</time></trkpt>
<trkpt lat="46.611113771796227" lon="7.052408521994948"><ele></ele><time>2013-9-9T9:17:59Z</time></trkpt>
<trkpt lat="46.611064067110419" lon="7.052291594445705"><ele></ele><time>2013-9-9T9:18:2Z</time></trkpt>
<trkpt lat="46.611040681600571" lon="7.052228646352887"><ele></ele><time>2013-9-9T9:18:5Z</time></trkpt>
<trkpt lat="46.610919982194901" lon="7.051964029669762"><ele></ele><time>2013-9-9T9:18:8Z</time></trkpt>
<trkpt lat="46.610710686072707" lon="7.051516016945243"><ele></ele><time>2013-9-9T9:18:11Z</time></trkpt>
<trkpt lat="46.610458390787244" lon="7.050955602899194"><ele></ele><time>2013-9-9T9:18:14Z</time></trkpt>
<trkpt lat="46.61026175133884" lon="7.050508260726929"><ele></ele><time>2013-9-9T9:18:17Z</time></trkpt>
<trkpt lat="46.61023736000061" lon="7.050453945994377"><ele></ele><time>2013-9-9T9:18:20Z</time></trkpt>
<trkpt lat="46.610212717205286" lon="7.050399295985699"><ele></ele><time>2013-9-9T9:18:23Z</time></trkpt>
<trkpt lat="46.610185643658042" lon="7.050340957939625"><ele></ele><time>2013-9-9T9:18:26Z</time></trkpt>
<trkpt lat="46.610160414129496" lon="7.05028597265482"><ele></ele><time>2013-9-9T9:18:29Z</time></trkpt>
<trkpt lat="46.609995625913143" lon="7.049918342381716"><ele></ele><time>2013-9-9T9:18:32Z</time></trkpt>
<trkpt lat="46.609863191843033" lon="7.049652049317956"><ele></ele><time>2013-9-9T9:18:35Z</time></trkpt>
<trkpt lat="46.609837710857391" lon="7.049602847546339"><ele></ele><time>2013-9-9T9:18:38Z</time></trkpt>
<trkpt lat="46.609811224043369" lon="7.049551801756024"><ele></ele><time>2013-9-9T9:18:41Z</time></trkpt>
<trkpt lat="46.60978632979095" lon="7.049498157575727"><ele></ele><time>2013-9-9T9:18:44Z</time></trkpt>
<trkpt lat="46.609767219051719" lon="7.049450213089585"><ele></ele><time>2013-9-9T9:18:47Z</time></trkpt>
<trkpt lat="46.609684657305479" lon="7.049273354932666"><ele></ele><time>2013-9-9T9:18:50Z</time></trkpt>
<trkpt lat="46.609515510499477" lon="7.048936150968075"><ele></ele><time>2013-9-9T9:18:53Z</time></trkpt>
<trkpt lat="46.609489023685455" lon="7.048894325271249"><ele></ele><time>2013-9-9T9:18:56Z</time></trkpt>
<trkpt lat="46.609457172453403" lon="7.048858618363738"><ele></ele><time>2013-9-9T9:18:59Z</time></trkpt>
<trkpt lat="46.6094193700701" lon="7.048828694969416"><ele></ele><time>2013-9-9T9:19:2Z</time></trkpt>
<trkpt lat="46.60938517190516" lon="7.048818385228515"><ele></ele><time>2013-9-9T9:19:5Z</time></trkpt>
<trkpt lat="46.609351141378284" lon="7.048819558694959"><ele></ele><time>2013-9-9T9:19:8Z</time></trkpt>
<trkpt lat="46.609311243519187" lon="7.048834729939699"><ele></ele><time>2013-9-9T9:19:11Z</time></trkpt>
<trkpt lat="46.609218707308173" lon="7.048898516222835"><ele></ele><time>2013-9-9T9:19:14Z</time></trkpt>
<trkpt lat="46.609097253531218" lon="7.049096077680588"><ele></ele><time>2013-9-9T9:19:17Z</time></trkpt>
<trkpt lat="46.609051404520869" lon="7.049184255301952"><ele></ele><time>2013-9-9T9:19:20Z</time></trkpt>
<trkpt lat="46.608999017626047" lon="7.049267487600446"><ele></ele><time>2013-9-9T9:19:23Z</time></trkpt>
<trkpt lat="46.608943864703178" lon="7.049345774576068"><ele></ele><time>2013-9-9T9:19:26Z</time></trkpt>
<trkpt lat="46.608885359019041" lon="7.049416434019804"><ele></ele><time>2013-9-9T9:19:29Z</time></trkpt>
<trkpt lat="46.608826098963618" lon="7.049486422911286"><ele></ele><time>2013-9-9T9:19:32Z</time></trkpt>
<trkpt lat="46.608764659613371" lon="7.049555154517293"><ele></ele><time>2013-9-9T9:19:35Z</time></trkpt>
<trkpt lat="46.608701376244426" lon="7.049629250541329"><ele></ele><time>2013-9-9T9:19:38Z</time></trkpt>
<trkpt lat="46.608632309362292" lon="7.049705190584064"><ele></ele><time>2013-9-9T9:19:41Z</time></trkpt>
<trkpt lat="46.608562907204032" lon="7.049771156162024"><ele></ele><time>2013-9-9T9:19:44Z</time></trkpt>
<trkpt lat="46.608493337407708" lon="7.049838546663523"><ele></ele><time>2013-9-9T9:19:47Z</time></trkpt>
<trkpt lat="46.608423851430416" lon="7.049910379573703"><ele></ele><time>2013-9-9T9:19:50Z</time></trkpt>
<trkpt lat="46.608355371281505" lon="7.049981039017439"><ele></ele><time>2013-9-9T9:19:53Z</time></trkpt>
<trkpt lat="46.608286639675498" lon="7.050050022080541"><ele></ele><time>2013-9-9T9:19:56Z</time></trkpt>
<trkpt lat="46.608214555308223" lon="7.050112299621105"><ele></ele><time>2013-9-9T9:19:59Z</time></trkpt>
<trkpt lat="46.608138028532267" lon="7.050162507221103"><ele></ele><time>2013-9-9T9:20:2Z</time></trkpt>
<trkpt lat="46.608053706586361" lon="7.050200058147311"><ele></ele><time>2013-9-9T9:20:5Z</time></trkpt>
<trkpt lat="46.607586331665516" lon="7.050346489995718"><ele></ele><time>2013-9-9T9:20:8Z</time></trkpt>
<trkpt lat="46.607236135751009" lon="7.050447575747967"><ele></ele><time>2013-9-9T9:20:11Z</time></trkpt>
<trkpt lat="46.606751410290599" lon="7.050707750022411"><ele></ele><time>2013-9-9T9:20:14Z</time></trkpt>
<trkpt lat="46.606311863288283" lon="7.050918806344271"><ele></ele><time>2013-9-9T9:20:17Z</time></trkpt>
<trkpt lat="46.606125114485621" lon="7.051054676994681"><ele></ele><time>2013-9-9T9:20:20Z</time></trkpt>
<trkpt lat="46.606061412021518" lon="7.051107231527567"><ele></ele><time>2013-9-9T9:20:23Z</time></trkpt>
<trkpt lat="46.60599066875875" lon="7.05115819349885"><ele></ele><time>2013-9-9T9:20:26Z</time></trkpt>
<trkpt lat="46.60591833293438" lon="7.05120362341404"><ele></ele><time>2013-9-9T9:20:29Z</time></trkpt>
<trkpt lat="46.605844907462597" lon="7.051247963681817"><ele></ele><time>2013-9-9T9:20:32Z</time></trkpt>
<trkpt lat="46.605769135057926" lon="7.051289454102516"><ele></ele><time>2013-9-9T9:20:35Z</time></trkpt>
<trkpt lat="46.605691434815526" lon="7.051326585933566"><ele></ele><time>2013-9-9T9:20:38Z</time></trkpt>
<trkpt lat="46.605613734573126" lon="7.051363885402679"><ele></ele><time>2013-9-9T9:20:41Z</time></trkpt>
<trkpt lat="46.60553527995944" lon="7.051399676129222"><ele></ele><time>2013-9-9T9:20:44Z</time></trkpt>
<trkpt lat="46.605452047660947" lon="7.051435466855764"><ele></ele><time>2013-9-9T9:20:47Z</time></trkpt>
<trkpt lat="46.605373760685325" lon="7.051469497382641"><ele></ele><time>2013-9-9T9:20:50Z</time></trkpt>
<trkpt lat="46.605293462052941" lon="7.051501348614693"><ele></ele><time>2013-9-9T9:20:53Z</time></trkpt>
<trkpt lat="46.605213498696685" lon="7.051532780751586"><ele></ele><time>2013-9-9T9:20:56Z</time></trkpt>
<trkpt lat="46.605134792625904" lon="7.051563207060099"><ele></ele><time>2013-9-9T9:20:59Z</time></trkpt>
<trkpt lat="46.60497042350471" lon="7.05161701887846"><ele></ele><time>2013-9-9T9:21:2Z</time></trkpt>
<trkpt lat="46.604882748797536" lon="7.051640907302499"><ele></ele><time>2013-9-9T9:21:5Z</time></trkpt>
<trkpt lat="46.604796666651964" lon="7.051659682765603"><ele></ele><time>2013-9-9T9:21:8Z</time></trkpt>
<trkpt lat="46.604706812649965" lon="7.051672339439392"><ele></ele><time>2013-9-9T9:21:11Z</time></trkpt>
<trkpt lat="46.604615785181522" lon="7.051682565361261"><ele></ele><time>2013-9-9T9:21:14Z</time></trkpt>
<trkpt lat="46.604523751884699" lon="7.051693042740226"><ele></ele><time>2013-9-9T9:21:17Z</time></trkpt>
<trkpt lat="46.604429120197892" lon="7.051705615594983"><ele></ele><time>2013-9-9T9:21:20Z</time></trkpt>
<trkpt lat="46.60433666780591" lon="7.051722295582295"><ele></ele><time>2013-9-9T9:21:23Z</time></trkpt>
<trkpt lat="46.604245388880372" lon="7.051750877872109"><ele></ele><time>2013-9-9T9:21:26Z</time></trkpt>
<trkpt lat="46.604154109954834" lon="7.051788344979286"><ele></ele><time>2013-9-9T9:21:29Z</time></trkpt>
<trkpt lat="46.604070039466023" lon="7.051826901733875"><ele></ele><time>2013-9-9T9:21:32Z</time></trkpt>
<trkpt lat="46.603987142443657" lon="7.051864871755242"><ele></ele><time>2013-9-9T9:21:35Z</time></trkpt>
<trkpt lat="46.603903407230973" lon="7.051901081576943"><ele></ele><time>2013-9-9T9:21:38Z</time></trkpt>
<trkpt lat="46.603819504380226" lon="7.051930921152234"><ele></ele><time>2013-9-9T9:21:41Z</time></trkpt>
<trkpt lat="46.603735517710447" lon="7.051960425451398"><ele></ele><time>2013-9-9T9:21:44Z</time></trkpt>
<trkpt lat="46.603653207421303" lon="7.051990600302815"><ele></ele><time>2013-9-9T9:21:47Z</time></trkpt>
<trkpt lat="46.603410048410296" lon="7.052109790965915"><ele></ele><time>2013-9-9T9:21:50Z</time></trkpt>
<trkpt lat="46.603338969871402" lon="7.052173409610987"><ele></ele><time>2013-9-9T9:21:53Z</time></trkpt>
<trkpt lat="46.603273926302791" lon="7.05224541015923"><ele></ele><time>2013-9-9T9:21:56Z</time></trkpt>
<trkpt lat="46.603212654590607" lon="7.052320512011647"><ele></ele><time>2013-9-9T9:21:59Z</time></trkpt>
<trkpt lat="46.603153897449374" lon="7.052397709339857"><ele></ele><time>2013-9-9T9:22:2Z</time></trkpt>
<trkpt lat="46.603097235783935" lon="7.052477672696114"><ele></ele><time>2013-9-9T9:22:5Z</time></trkpt>
<trkpt lat="46.603038143366575" lon="7.05256249755621"><ele></ele><time>2013-9-9T9:22:8Z</time></trkpt>
<trkpt lat="46.602773023769259" lon="7.052991818636656"><ele></ele><time>2013-9-9T9:22:11Z</time></trkpt>
<trkpt lat="46.602714853361249" lon="7.053072620183229"><ele></ele><time>2013-9-9T9:22:14Z</time></trkpt>
<trkpt lat="46.602654838934541" lon="7.053150739520788"><ele></ele><time>2013-9-9T9:22:17Z</time></trkpt>
<trkpt lat="46.602590549737215" lon="7.053231876343489"><ele></ele><time>2013-9-9T9:22:20Z</time></trkpt>
<trkpt lat="46.602527685463428" lon="7.053307145833969"><ele></ele><time>2013-9-9T9:22:23Z</time></trkpt>
<trkpt lat="46.602250160649419" lon="7.053580982610583"><ele></ele><time>2013-9-9T9:22:26Z</time></trkpt>
<trkpt lat="46.602177573367953" lon="7.053644182160497"><ele></ele><time>2013-9-9T9:22:29Z</time></trkpt>
<trkpt lat="46.602104147896171" lon="7.053705872967839"><ele></ele><time>2013-9-9T9:22:32Z</time></trkpt>
<trkpt lat="46.602028459310532" lon="7.053771000355482"><ele></ele><time>2013-9-9T9:22:35Z</time></trkpt>
<trkpt lat="46.60195704549551" lon="7.053834786638618"><ele></ele><time>2013-9-9T9:22:38Z</time></trkpt>
<trkpt lat="46.601668624207377" lon="7.05407677218318"><ele></ele><time>2013-9-9T9:22:41Z</time></trkpt>
<trkpt lat="46.601591594517231" lon="7.054115245118737"><ele></ele><time>2013-9-9T9:22:44Z</time></trkpt>
<trkpt lat="46.601508446037769" lon="7.054145000874996"><ele></ele><time>2013-9-9T9:22:47Z</time></trkpt>
<trkpt lat="46.60142881795764" lon="7.054169727489352"><ele></ele><time>2013-9-9T9:22:50Z</time></trkpt>
<trkpt lat="46.601349022239447" lon="7.054195795208216"><ele></ele><time>2013-9-9T9:22:53Z</time></trkpt>
<trkpt lat="46.601108545437455" lon="7.054281877353787"><ele></ele><time>2013-9-9T9:22:56Z</time></trkpt>
<trkpt lat="46.600786345079541" lon="7.054425962269306"><ele></ele><time>2013-9-9T9:22:59Z</time></trkpt>
<trkpt lat="46.600710991770029" lon="7.054474409669638"><ele></ele><time>2013-9-9T9:23:2Z</time></trkpt>
<trkpt lat="46.600638655945659" lon="7.054530149325728"><ele></ele><time>2013-9-9T9:23:5Z</time></trkpt>
<trkpt lat="46.600566487759352" lon="7.054590079933405"><ele></ele><time>2013-9-9T9:23:8Z</time></trkpt>
<trkpt lat="46.600495660677552" lon="7.054652608931065"><ele></ele><time>2013-9-9T9:23:11Z</time></trkpt>
<trkpt lat="46.600215705111623" lon="7.054881351068616"><ele></ele><time>2013-9-9T9:23:14Z</time></trkpt>
<trkpt lat="46.600073631852865" lon="7.054956452921033"><ele></ele><time>2013-9-9T9:23:17Z</time></trkpt>
<trkpt lat="46.599921500310302" lon="7.055000709369779"><ele></ele><time>2013-9-9T9:23:20Z</time></trkpt>
<trkpt lat="46.599756544455886" lon="7.055004397407174"><ele></ele><time>2013-9-9T9:23:23Z</time></trkpt>
<trkpt lat="46.599677754566073" lon="7.0549978595227"><ele></ele><time>2013-9-9T9:23:26Z</time></trkpt>
<trkpt lat="46.599597204476595" lon="7.054990567266941"><ele></ele><time>2013-9-9T9:23:29Z</time></trkpt>
<trkpt lat="46.599518666043878" lon="7.054983610287309"><ele></ele><time>2013-9-9T9:23:32Z</time></trkpt>
<trkpt lat="46.599441384896636" lon="7.05497489310801"><ele></ele><time>2013-9-9T9:23:35Z</time></trkpt>
<trkpt lat="46.599131925031543" lon="7.054935330525041"><ele></ele><time>2013-9-9T9:23:38Z</time></trkpt>
<trkpt lat="46.598677122965455" lon="7.054916303604841"><ele></ele><time>2013-9-9T9:23:41Z</time></trkpt>
<trkpt lat="46.598595650866628" lon="7.054909514263272"><ele></ele><time>2013-9-9T9:23:44Z</time></trkpt>
<trkpt lat="46.598518369719386" lon="7.054901635274291"><ele></ele><time>2013-9-9T9:23:47Z</time></trkpt>
<trkpt lat="46.598440166562796" lon="7.054894175380468"><ele></ele><time>2013-9-9T9:23:50Z</time></trkpt>
<trkpt lat="46.598363975062966" lon="7.05488495528698"><ele></ele><time>2013-9-9T9:23:53Z</time></trkpt>
<trkpt lat="46.59797765314579" lon="7.054790239781141"><ele></ele><time>2013-9-9T9:23:56Z</time></trkpt>
<trkpt lat="46.597833149135113" lon="7.054743384942412"><ele></ele><time>2013-9-9T9:23:59Z</time></trkpt>
<trkpt lat="46.597759472206235" lon="7.054734751582146"><ele></ele><time>2013-9-9T9:24:2Z</time></trkpt>
<trkpt lat="46.597688477486372" lon="7.054744558408856"><ele></ele><time>2013-9-9T9:24:5Z</time></trkpt>
<trkpt lat="46.597617315128446" lon="7.054750928655267"><ele></ele><time>2013-9-9T9:24:8Z</time></trkpt>
<trkpt lat="46.59754958935082" lon="7.054731985554099"><ele></ele><time>2013-9-9T9:24:11Z</time></trkpt>
<trkpt lat="46.597424279898405" lon="7.054651770740748"><ele></ele><time>2013-9-9T9:24:14Z</time></trkpt>
<trkpt lat="46.597212804481387" lon="7.054523192346096"><ele></ele><time>2013-9-9T9:24:17Z</time></trkpt>
<trkpt lat="46.597164608538151" lon="7.054496621713042"><ele></ele><time>2013-9-9T9:24:20Z</time></trkpt>
<trkpt lat="46.597116244956851" lon="7.054467955604196"><ele></ele><time>2013-9-9T9:24:23Z</time></trkpt>
<trkpt lat="46.597072826698422" lon="7.054439373314381"><ele></ele><time>2013-9-9T9:24:26Z</time></trkpt>
<trkpt lat="46.597030749544501" lon="7.054413724690676"><ele></ele><time>2013-9-9T9:24:29Z</time></trkpt>
<trkpt lat="46.596987750381231" lon="7.054394027218223"><ele></ele><time>2013-9-9T9:24:32Z</time></trkpt>
<trkpt lat="46.5969427395612" lon="7.054388914257288"><ele></ele><time>2013-9-9T9:24:35Z</time></trkpt>
<trkpt lat="46.596895633265376" lon="7.054405426606536"><ele></ele><time>2013-9-9T9:24:38Z</time></trkpt>
<trkpt lat="46.596856489777565" lon="7.05443736165762"><ele></ele><time>2013-9-9T9:24:41Z</time></trkpt>
<trkpt lat="46.59681617282331" lon="7.054476505145431"><ele></ele><time>2013-9-9T9:24:44Z</time></trkpt>
<trkpt lat="46.59677417948842" lon="7.054521013051271"><ele></ele><time>2013-9-9T9:24:47Z</time></trkpt>
<trkpt lat="46.596730258315802" lon="7.054565185680986"><ele></ele><time>2013-9-9T9:24:50Z</time></trkpt>
<trkpt lat="46.596379727125168" lon="7.054963745176792"><ele></ele><time>2013-9-9T9:24:53Z</time></trkpt>
<trkpt lat="46.596220219507813" lon="7.05523825250566"><ele></ele><time>2013-9-9T9:24:56Z</time></trkpt>
<trkpt lat="46.596183003857732" lon="7.055315030738711"><ele></ele><time>2013-9-9T9:24:59Z</time></trkpt>
<trkpt lat="46.59614235162735" lon="7.055401867255569"><ele></ele><time>2013-9-9T9:25:2Z</time></trkpt>
<trkpt lat="46.596105806529522" lon="7.055486440658569"><ele></ele><time>2013-9-9T9:25:5Z</time></trkpt>
<trkpt lat="46.59606565721333" lon="7.055574702098966"><ele></ele><time>2013-9-9T9:25:8Z</time></trkpt>
<trkpt lat="46.596024334430695" lon="7.055662209168077"><ele></ele><time>2013-9-9T9:25:11Z</time></trkpt>
<trkpt lat="46.595983095467091" lon="7.0557508058846"><ele></ele><time>2013-9-9T9:25:14Z</time></trkpt>
<trkpt lat="46.595941102132201" lon="7.055840492248535"><ele></ele><time>2013-9-9T9:25:17Z</time></trkpt>
<trkpt lat="46.595899192616343" lon="7.055930681526661"><ele></ele><time>2013-9-9T9:25:20Z</time></trkpt>
<trkpt lat="46.595859043300152" lon="7.056016260758042"><ele></ele><time>2013-9-9T9:25:23Z</time></trkpt>
<trkpt lat="46.595721580088139" lon="7.056277105584741"><ele></ele><time>2013-9-9T9:25:26Z</time></trkpt>
<trkpt lat="46.595638934522867" lon="7.056471901014447"><ele></ele><time>2013-9-9T9:25:29Z</time></trkpt>
<trkpt lat="46.595514798536897" lon="7.05677105113864"><ele></ele><time>2013-9-9T9:25:32Z</time></trkpt>
<trkpt lat="46.595472302287817" lon="7.056839531287551"><ele></ele><time>2013-9-9T9:25:35Z</time></trkpt>
<trkpt lat="46.595424944534898" lon="7.056905329227448"><ele></ele><time>2013-9-9T9:25:38Z</time></trkpt>
<trkpt lat="46.595377419143915" lon="7.056969786062837"><ele></ele><time>2013-9-9T9:25:41Z</time></trkpt>
<trkpt lat="46.595323020592332" lon="7.057036757469177"><ele></ele><time>2013-9-9T9:25:44Z</time></trkpt>
<trkpt lat="46.595271304249763" lon="7.057095011696219"><ele></ele><time>2013-9-9T9:25:47Z</time></trkpt>
<trkpt lat="46.594947427511215" lon="7.05738527700305"><ele></ele><time>2013-9-9T9:25:50Z</time></trkpt>
<trkpt lat="46.594667639583349" lon="7.057600943371654"><ele></ele><time>2013-9-9T9:25:53Z</time></trkpt>
<trkpt lat="46.594636710360646" lon="7.057633716613054"><ele></ele><time>2013-9-9T9:25:56Z</time></trkpt>
<trkpt lat="46.594619862735271" lon="7.057678978890181"><ele></ele><time>2013-9-9T9:25:59Z</time></trkpt>
<trkpt lat="46.594611313194036" lon="7.05773463472724"><ele></ele><time>2013-9-9T9:26:2Z</time></trkpt>
<trkpt lat="46.594619024544954" lon="7.057794062420726"><ele></ele><time>2013-9-9T9:26:5Z</time></trkpt>
<trkpt lat="46.594639979302883" lon="7.057856004685164"><ele></ele><time>2013-9-9T9:26:8Z</time></trkpt>
<trkpt lat="46.59467258490622" lon="7.057916605845094"><ele></ele><time>2013-9-9T9:26:11Z</time></trkpt>
<trkpt lat="46.59470921382308" lon="7.057983744889498"><ele></ele><time>2013-9-9T9:26:14Z</time></trkpt>
<trkpt lat="46.594858830794692" lon="7.058281218633056"><ele></ele><time>2013-9-9T9:26:17Z</time></trkpt>
<trkpt lat="46.594897387549281" lon="7.058358667418361"><ele></ele><time>2013-9-9T9:26:20Z</time></trkpt>
<trkpt lat="46.594935357570648" lon="7.058440307155252"><ele></ele><time>2013-9-9T9:26:23Z</time></trkpt>
<trkpt lat="46.594971735030413" lon="7.058525048196316"><ele></ele><time>2013-9-9T9:26:26Z</time></trkpt>
<trkpt lat="46.59500727429986" lon="7.058613393455744"><ele></ele><time>2013-9-9T9:26:29Z</time></trkpt>
<trkpt lat="46.595036778599024" lon="7.05870509147644"><ele></ele><time>2013-9-9T9:26:32Z</time></trkpt>
<trkpt lat="46.59505907446146" lon="7.058797040954232"><ele></ele><time>2013-9-9T9:26:35Z</time></trkpt>
<trkpt lat="46.595072066411376" lon="7.058892594650388"><ele></ele><time>2013-9-9T9:26:38Z</time></trkpt>
<trkpt lat="46.595070892944932" lon="7.059181770309806"><ele></ele><time>2013-9-9T9:26:41Z</time></trkpt>
<trkpt lat="46.595063852146268" lon="7.059273719787598"><ele></ele><time>2013-9-9T9:26:44Z</time></trkpt>
<trkpt lat="46.595048597082496" lon="7.059363573789597"><ele></ele><time>2013-9-9T9:26:47Z</time></trkpt>
<trkpt lat="46.595029067248106" lon="7.059447644278407"><ele></ele><time>2013-9-9T9:26:50Z</time></trkpt>
<trkpt lat="46.595007022842765" lon="7.059534480795264"><ele></ele><time>2013-9-9T9:26:53Z</time></trkpt>
<trkpt lat="46.59498187713325" lon="7.05961880274117"><ele></ele><time>2013-9-9T9:26:56Z</time></trkpt>
<trkpt lat="46.594916414469481" lon="7.059773784130812"><ele></ele><time>2013-9-9T9:26:59Z</time></trkpt>
<trkpt lat="46.594821363687515" lon="7.059918036684394"><ele></ele><time>2013-9-9T9:27:2Z</time></trkpt>
<trkpt lat="46.594698987901211" lon="7.060066144913435"><ele></ele><time>2013-9-9T9:27:5Z</time></trkpt>
<trkpt lat="46.594632854685187" lon="7.060135044157505"><ele></ele><time>2013-9-9T9:27:8Z</time></trkpt>
<trkpt lat="46.59456504508853" lon="7.060205452144146"><ele></ele><time>2013-9-9T9:27:11Z</time></trkpt>
<trkpt lat="46.594496313482523" lon="7.060279129073024"><ele></ele><time>2013-9-9T9:27:14Z</time></trkpt>
<trkpt lat="46.594429593533278" lon="7.060348531231284"><ele></ele><time>2013-9-9T9:27:17Z</time></trkpt>
<trkpt lat="46.594362789765" lon="7.060420531779528"><ele></ele><time>2013-9-9T9:27:20Z</time></trkpt>
<trkpt lat="46.594295734539628" lon="7.060491945594549"><ele></ele><time>2013-9-9T9:27:23Z</time></trkpt>
<trkpt lat="46.594229433685541" lon="7.060561850667"><ele></ele><time>2013-9-9T9:27:26Z</time></trkpt>
<trkpt lat="46.594162462279201" lon="7.060629660263658"><ele></ele><time>2013-9-9T9:27:29Z</time></trkpt>
<trkpt lat="46.593967163935304" lon="7.060835184529424"><ele></ele><time>2013-9-9T9:27:32Z</time></trkpt>
<trkpt lat="46.593532478436828" lon="7.06129970960319"><ele></ele><time>2013-9-9T9:27:35Z</time></trkpt>
<trkpt lat="46.593348495662212" lon="7.06149316392839"><ele></ele><time>2013-9-9T9:27:38Z</time></trkpt>
<trkpt lat="46.592844408005476" lon="7.061989540234208"><ele></ele><time>2013-9-9T9:27:41Z</time></trkpt>
<trkpt lat="46.592715159058571" lon="7.062109066173434"><ele></ele><time>2013-9-9T9:27:44Z</time></trkpt>
<trkpt lat="46.592649612575769" lon="7.062168661504984"><ele></ele><time>2013-9-9T9:27:47Z</time></trkpt>
<trkpt lat="46.5925875864923" lon="7.06222859211266"><ele></ele><time>2013-9-9T9:27:50Z</time></trkpt>
<trkpt lat="46.592526398599148" lon="7.062289109453559"><ele></ele><time>2013-9-9T9:27:53Z</time></trkpt>
<trkpt lat="46.592466719448566" lon="7.062350884079933"><ele></ele><time>2013-9-9T9:27:56Z</time></trkpt>
<trkpt lat="46.592349540442228" lon="7.062479378655553"><ele></ele><time>2013-9-9T9:27:59Z</time></trkpt>
<trkpt lat="46.59188786521554" lon="7.06301623955369"><ele></ele><time>2013-9-9T9:28:2Z</time></trkpt>
<trkpt lat="46.591829610988498" lon="7.063084468245506"><ele></ele><time>2013-9-9T9:28:5Z</time></trkpt>
<trkpt lat="46.591548062860966" lon="7.063404154032469"><ele></ele><time>2013-9-9T9:28:8Z</time></trkpt>
<trkpt lat="46.591488467529416" lon="7.063469029963017"><ele></ele><time>2013-9-9T9:28:11Z</time></trkpt>
<trkpt lat="46.59142660908401" lon="7.063532397150993"><ele></ele><time>2013-9-9T9:28:14Z</time></trkpt>
<trkpt lat="46.591361397877336" lon="7.063597440719605"><ele></ele><time>2013-9-9T9:28:17Z</time></trkpt>
<trkpt lat="46.590856555849314" lon="7.064050231128931"><ele></ele><time>2013-9-9T9:28:20Z</time></trkpt>
<trkpt lat="46.590793188661337" lon="7.064105132594705"><ele></ele><time>2013-9-9T9:28:23Z</time></trkpt>
<trkpt lat="46.590286921709776" lon="7.064545685425401"><ele></ele><time>2013-9-9T9:28:26Z</time></trkpt>
<trkpt lat="46.590153481811285" lon="7.064660852774978"><ele></ele><time>2013-9-9T9:28:29Z</time></trkpt>
<trkpt lat="46.590087935328484" lon="7.064720029011369"><ele></ele><time>2013-9-9T9:28:32Z</time></trkpt>
<trkpt lat="46.590015599504113" lon="7.064784402027726"><ele></ele><time>2013-9-9T9:28:35Z</time></trkpt>
<trkpt lat="46.589947286993265" lon="7.064844081178308"><ele></ele><time>2013-9-9T9:28:38Z</time></trkpt>
<trkpt lat="46.589877884835005" lon="7.064906442537904"><ele></ele><time>2013-9-9T9:28:41Z</time></trkpt>
<trkpt lat="46.589602371677756" lon="7.065172400325537"><ele></ele><time>2013-9-9T9:28:44Z</time></trkpt>
<trkpt lat="46.589536238461733" lon="7.065247837454081"><ele></ele><time>2013-9-9T9:28:47Z</time></trkpt>
<trkpt lat="46.589471278712153" lon="7.065328555181623"><ele></ele><time>2013-9-9T9:28:50Z</time></trkpt>
<trkpt lat="46.589406738057733" lon="7.065416062250733"><ele></ele><time>2013-9-9T9:28:53Z</time></trkpt>
<trkpt lat="46.589348567649722" lon="7.065502563491464"><ele></ele><time>2013-9-9T9:28:56Z</time></trkpt>
<trkpt lat="46.589237339794636" lon="7.065678248181939"><ele></ele><time>2013-9-9T9:28:59Z</time></trkpt>
<trkpt lat="46.588852694258094" lon="7.066275542601943"><ele></ele><time>2013-9-9T9:29:2Z</time></trkpt>
<trkpt lat="46.588800810277462" lon="7.066354751586914"><ele></ele><time>2013-9-9T9:29:5Z</time></trkpt>
<trkpt lat="46.588411219418049" lon="7.066971492022276"><ele></ele><time>2013-9-9T9:29:8Z</time></trkpt>
<trkpt lat="46.588363274931908" lon="7.067044917494059"><ele></ele><time>2013-9-9T9:29:11Z</time></trkpt>
<trkpt lat="46.588008468970656" lon="7.067606169730425"><ele></ele><time>2013-9-9T9:29:14Z</time></trkpt>
<trkpt lat="46.587729686871171" lon="7.068050913512707"><ele></ele><time>2013-9-9T9:29:17Z</time></trkpt>
<trkpt lat="46.587693057954311" lon="7.068107826635242"><ele></ele><time>2013-9-9T9:29:20Z</time></trkpt>
<trkpt lat="46.587658105418086" lon="7.068165326490998"><ele></ele><time>2013-9-9T9:29:23Z</time></trkpt>
<trkpt lat="46.587620135396719" lon="7.068227101117373"><ele></ele><time>2013-9-9T9:29:26Z</time></trkpt>
<trkpt lat="46.587581913918257" lon="7.068281918764114"><ele></ele><time>2013-9-9T9:29:29Z</time></trkpt>
<trkpt lat="46.587398517876863" lon="7.068565227091312"><ele></ele><time>2013-9-9T9:29:32Z</time></trkpt>
<trkpt lat="46.587361469864845" lon="7.068622810766101"><ele></ele><time>2013-9-9T9:29:35Z</time></trkpt>
<trkpt lat="46.587325846776366" lon="7.068676287308335"><ele></ele><time>2013-9-9T9:29:38Z</time></trkpt>
<trkpt lat="46.587289636954665" lon="7.068731188774109"><ele></ele><time>2013-9-9T9:29:41Z</time></trkpt>
<trkpt lat="46.587251918390393" lon="7.068787850439549"><ele></ele><time>2013-9-9T9:29:44Z</time></trkpt>
<trkpt lat="46.587142869830132" lon="7.068961439654231"><ele></ele><time>2013-9-9T9:29:47Z</time></trkpt>
<trkpt lat="46.586934747174382" lon="7.069287411868572"><ele></ele><time>2013-9-9T9:29:50Z</time></trkpt>
<trkpt lat="46.586899878457189" lon="7.06934398971498"><ele></ele><time>2013-9-9T9:29:53Z</time></trkpt>
<trkpt lat="46.586867775768042" lon="7.069399477913976"><ele></ele><time>2013-9-9T9:29:56Z</time></trkpt>
<trkpt lat="46.58683399669826" lon="7.069454714655876"><ele></ele><time>2013-9-9T9:29:59Z</time></trkpt>
<trkpt lat="46.586801558732986" lon="7.069509280845523"><ele></ele><time>2013-9-9T9:30:2Z</time></trkpt>
<trkpt lat="46.586555717512965" lon="7.06990054808557"><ele></ele><time>2013-9-9T9:30:5Z</time></trkpt>
<trkpt lat="46.586407609283924" lon="7.070129793137312"><ele></ele><time>2013-9-9T9:30:8Z</time></trkpt>
<trkpt lat="46.586373662576079" lon="7.070183521136642"><ele></ele><time>2013-9-9T9:30:11Z</time></trkpt>
<trkpt lat="46.586339548230171" lon="7.070231130346656"><ele></ele><time>2013-9-9T9:30:14Z</time></trkpt>
<trkpt lat="46.586303506046534" lon="7.070280835032463"><ele></ele><time>2013-9-9T9:30:17Z</time></trkpt>
<trkpt lat="46.586269726976752" lon="7.070326181128621"><ele></ele><time>2013-9-9T9:30:20Z</time></trkpt>
<trkpt lat="46.586200576275587" lon="7.070415867492557"><ele></ele><time>2013-9-9T9:30:23Z</time></trkpt>
<trkpt lat="46.586167048662901" lon="7.070459704846144"><ele></ele><time>2013-9-9T9:30:26Z</time></trkpt>
<trkpt lat="46.586134526878595" lon="7.070499854162335"><ele></ele><time>2013-9-9T9:30:29Z</time></trkpt>
<trkpt lat="46.586103346198797" lon="7.070540338754654"><ele></ele><time>2013-9-9T9:30:32Z</time></trkpt>
<trkpt lat="46.586069818586111" lon="7.070586355403066"><ele></ele><time>2013-9-9T9:30:35Z</time></trkpt>
<trkpt lat="46.586038889363408" lon="7.070623906329274"><ele></ele><time>2013-9-9T9:30:38Z</time></trkpt>
<trkpt lat="46.586008546873927" lon="7.070663049817085"><ele></ele><time>2013-9-9T9:30:41Z</time></trkpt>
<trkpt lat="46.585977952927351" lon="7.070699594914913"><ele></ele><time>2013-9-9T9:30:44Z</time></trkpt>
<trkpt lat="46.585947191342711" lon="7.070735385641456"><ele></ele><time>2013-9-9T9:30:47Z</time></trkpt>
<trkpt lat="46.585914082825184" lon="7.070771679282188"><ele></ele><time>2013-9-9T9:30:50Z</time></trkpt>
<trkpt lat="46.585768489167094" lon="7.070949375629425"><ele></ele><time>2013-9-9T9:30:53Z</time></trkpt>
<trkpt lat="46.585739906877279" lon="7.070982484146953"><ele></ele><time>2013-9-9T9:30:56Z</time></trkpt>
<trkpt lat="46.585711156949401" lon="7.071017269045115"><ele></ele><time>2013-9-9T9:30:59Z</time></trkpt>
<trkpt lat="46.585682407021523" lon="7.071052892133594"><ele></ele><time>2013-9-9T9:31:2Z</time></trkpt>
<trkpt lat="46.585493730381131" lon="7.071254393085837"><ele></ele><time>2013-9-9T9:31:5Z</time></trkpt>
<trkpt lat="46.585341682657599" lon="7.071294374763966"><ele></ele><time>2013-9-9T9:31:8Z</time></trkpt>
<trkpt lat="46.585302958264947" lon="7.071292446926236"><ele></ele><time>2013-9-9T9:31:11Z</time></trkpt>
<trkpt lat="46.585267838090658" lon="7.071288172155619"><ele></ele><time>2013-9-9T9:31:14Z</time></trkpt>
<trkpt lat="46.585231795907021" lon="7.071279119700193"><ele></ele><time>2013-9-9T9:31:17Z</time></trkpt>
<trkpt lat="46.585195669904351" lon="7.071264619007707"><ele></ele><time>2013-9-9T9:31:20Z</time></trkpt>
<trkpt lat="46.585083855316043" lon="7.07121642306447"><ele></ele><time>2013-9-9T9:31:23Z</time></trkpt>
<trkpt lat="46.584792416542768" lon="7.071054065600038"><ele></ele><time>2013-9-9T9:31:26Z</time></trkpt>
<trkpt lat="46.584547581151128" lon="7.070930935442448"><ele></ele><time>2013-9-9T9:31:29Z</time></trkpt>
<trkpt lat="46.584506593644619" lon="7.070923391729593"><ele></ele><time>2013-9-9T9:31:32Z</time></trkpt>
<trkpt lat="46.584464097395539" lon="7.070919284597039"><ele></ele><time>2013-9-9T9:31:35Z</time></trkpt>
<trkpt lat="46.58442503772676" lon="7.070921631529927"><ele></ele><time>2013-9-9T9:31:38Z</time></trkpt>
<trkpt lat="46.584386061877012" lon="7.070926828309894"><ele></ele><time>2013-9-9T9:31:41Z</time></trkpt>
<trkpt lat="46.584344990551472" lon="7.070933617651463"><ele></ele><time>2013-9-9T9:31:44Z</time></trkpt>
<trkpt lat="46.584256226196885" lon="7.070945939049125"><ele></ele><time>2013-9-9T9:31:47Z</time></trkpt>
<trkpt lat="46.583990352228284" lon="7.071000672876835"><ele></ele><time>2013-9-9T9:31:50Z</time></trkpt>
<trkpt lat="46.583879543468356" lon="7.071012994274497"><ele></ele><time>2013-9-9T9:31:53Z</time></trkpt>
<trkpt lat="46.583845177665353" lon="7.071017688140273"><ele></ele><time>2013-9-9T9:31:56Z</time></trkpt>
<trkpt lat="46.583814080804586" lon="7.07102439366281"><ele></ele><time>2013-9-9T9:31:59Z</time></trkpt>
<trkpt lat="46.583778038620949" lon="7.071030177175999"><ele></ele><time>2013-9-9T9:32:2Z</time></trkpt>
<trkpt lat="46.583603862673044" lon="7.071060016751289"><ele></ele><time>2013-9-9T9:32:5Z</time></trkpt>
<trkpt lat="46.583375120535493" lon="7.071094550192356"><ele></ele><time>2013-9-9T9:32:8Z</time></trkpt>
<trkpt lat="46.583342012017965" lon="7.07110058516264"><ele></ele><time>2013-9-9T9:32:11Z</time></trkpt>
<trkpt lat="46.583304209634662" lon="7.071102596819401"><ele></ele><time>2013-9-9T9:32:14Z</time></trkpt>
<trkpt lat="46.583261545747519" lon="7.071111062541604"><ele></ele><time>2013-9-9T9:32:17Z</time></trkpt>
<trkpt lat="46.583216702565551" lon="7.071118354797363"><ele></ele><time>2013-9-9T9:32:20Z</time></trkpt>
<trkpt lat="46.583073791116476" lon="7.071152804419398"><ele></ele><time>2013-9-9T9:32:23Z</time></trkpt>
<trkpt lat="46.583022410050035" lon="7.071179458871484"><ele></ele><time>2013-9-9T9:32:26Z</time></trkpt>
<trkpt lat="46.582699539139867" lon="7.071381798014045"><ele></ele><time>2013-9-9T9:32:29Z</time></trkpt>
<trkpt lat="46.582215400412679" lon="7.071692096069455"><ele></ele><time>2013-9-9T9:32:32Z</time></trkpt>
<trkpt lat="46.581941395998001" lon="7.07190147601068"><ele></ele><time>2013-9-9T9:32:35Z</time></trkpt>
<trkpt lat="46.581800244748592" lon="7.07200356759131"><ele></ele><time>2013-9-9T9:32:38Z</time></trkpt>
<trkpt lat="46.581651633605361" lon="7.072091242298484"><ele></ele><time>2013-9-9T9:32:41Z</time></trkpt>
<trkpt lat="46.581606874242425" lon="7.072127368301153"><ele></ele><time>2013-9-9T9:32:44Z</time></trkpt>
<trkpt lat="46.581396488472819" lon="7.072281511500478"><ele></ele><time>2013-9-9T9:32:47Z</time></trkpt>
<trkpt lat="46.581180905923247" lon="7.072270447388291"><ele></ele><time>2013-9-9T9:32:50Z</time></trkpt>
<trkpt lat="46.581098679453135" lon="7.072291821241379"><ele></ele><time>2013-9-9T9:32:53Z</time></trkpt>
<trkpt lat="46.58103397116065" lon="7.072348231449723"><ele></ele><time>2013-9-9T9:32:56Z</time></trkpt>
<trkpt lat="46.581010669469833" lon="7.072385614737868"><ele></ele><time>2013-9-9T9:32:59Z</time></trkpt>
<trkpt lat="46.580989463254809" lon="7.072422159835696"><ele></ele><time>2013-9-9T9:33:2Z</time></trkpt>
<trkpt lat="46.580961970612407" lon="7.072456441819668"><ele></ele><time>2013-9-9T9:33:5Z</time></trkpt>
<trkpt lat="46.580935148522258" lon="7.072494579479098"><ele></ele><time>2013-9-9T9:33:8Z</time></trkpt>
<trkpt lat="46.580906817689538" lon="7.07253129221499"><ele></ele><time>2013-9-9T9:33:11Z</time></trkpt>
<trkpt lat="46.580864740535617" lon="7.072572614997625"><ele></ele><time>2013-9-9T9:33:14Z</time></trkpt>
<trkpt lat="46.580759966745973" lon="7.072699936106801"><ele></ele><time>2013-9-9T9:33:17Z</time></trkpt>
<trkpt lat="46.580545725300908" lon="7.073023729026318"><ele></ele><time>2013-9-9T9:33:20Z</time></trkpt>
<trkpt lat="46.580467941239476" lon="7.073132023215294"><ele></ele><time>2013-9-9T9:33:23Z</time></trkpt>
<trkpt lat="46.580385798588395" lon="7.073243670165539"><ele></ele><time>2013-9-9T9:33:26Z</time></trkpt>
<trkpt lat="46.580346319824457" lon="7.07329647615552"><ele></ele><time>2013-9-9T9:33:29Z</time></trkpt>
<trkpt lat="46.580301895737648" lon="7.073349617421627"><ele></ele><time>2013-9-9T9:33:32Z</time></trkpt>
<trkpt lat="46.580259818583727" lon="7.073400663211942"><ele></ele><time>2013-9-9T9:33:35Z</time></trkpt>
<trkpt lat="46.580221429467201" lon="7.073454139754176"><ele></ele><time>2013-9-9T9:33:38Z</time></trkpt>
<trkpt lat="46.580189326778054" lon="7.073514740914106"><ele></ele><time>2013-9-9T9:33:41Z</time></trkpt>
<trkpt lat="46.58010802231729" lon="7.073723366484046"><ele></ele><time>2013-9-9T9:33:44Z</time></trkpt>
<trkpt lat="46.580085391178727" lon="7.073800899088383"><ele></ele><time>2013-9-9T9:33:47Z</time></trkpt>
<trkpt lat="46.580018252134323" lon="7.074121171608567"><ele></ele><time>2013-9-9T9:33:50Z</time></trkpt>
<trkpt lat="46.580004673451185" lon="7.074202559888363"><ele></ele><time>2013-9-9T9:33:53Z</time></trkpt>
<trkpt lat="46.579985311254859" lon="7.074283109977841"><ele></ele><time>2013-9-9T9:33:56Z</time></trkpt>
<trkpt lat="46.579964440315962" lon="7.074364582076669"><ele></ele><time>2013-9-9T9:33:59Z</time></trkpt>
<trkpt lat="46.579937031492591" lon="7.074444042518735"><ele></ele><time>2013-9-9T9:34:2Z</time></trkpt>
<trkpt lat="46.579828821122646" lon="7.074634898453951"><ele></ele><time>2013-9-9T9:34:5Z</time></trkpt>
<trkpt lat="46.57978406175971" lon="7.074688877910376"><ele></ele><time>2013-9-9T9:34:8Z</time></trkpt>
<trkpt lat="46.579737374559045" lon="7.074752831831574"><ele></ele><time>2013-9-9T9:34:11Z</time></trkpt>
<trkpt lat="46.579687586054206" lon="7.074818965047598"><ele></ele><time>2013-9-9T9:34:14Z</time></trkpt>
<trkpt lat="46.579634360969067" lon="7.074887445196509"><ele></ele><time>2013-9-9T9:34:17Z</time></trkpt>
<trkpt lat="46.57958515919745" lon="7.074957266449928"><ele></ele><time>2013-9-9T9:34:20Z</time></trkpt>
<trkpt lat="46.579301180317998" lon="7.075356664136052"><ele></ele><time>2013-9-9T9:34:23Z</time></trkpt>
<trkpt lat="46.579253235831857" lon="7.075426233932376"><ele></ele><time>2013-9-9T9:34:26Z</time></trkpt>
<trkpt lat="46.579211661592126" lon="7.075496222823858"><ele></ele><time>2013-9-9T9:34:29Z</time></trkpt>
<trkpt lat="46.579172601923347" lon="7.075572498142719"><ele></ele><time>2013-9-9T9:34:32Z</time></trkpt>
<trkpt lat="46.579131782054901" lon="7.075649024918675"><ele></ele><time>2013-9-9T9:34:35Z</time></trkpt>
<trkpt lat="46.579018207266927" lon="7.075885981321335"><ele></ele><time>2013-9-9T9:34:38Z</time></trkpt>
<trkpt lat="46.578876636922359" lon="7.076322343200445"><ele></ele><time>2013-9-9T9:34:41Z</time></trkpt>
<trkpt lat="46.578850820660591" lon="7.0764075871557"><ele></ele><time>2013-9-9T9:34:44Z</time></trkpt>
<trkpt lat="46.57882240600884" lon="7.07649459131062"><ele></ele><time>2013-9-9T9:34:47Z</time></trkpt>
<trkpt lat="46.578794158995152" lon="7.076580841094255"><ele></ele><time>2013-9-9T9:34:50Z</time></trkpt>
<trkpt lat="46.578765409067273" lon="7.076675472781062"><ele></ele><time>2013-9-9T9:34:53Z</time></trkpt>
<trkpt lat="46.578606404364109" lon="7.077229181304574"><ele></ele><time>2013-9-9T9:34:56Z</time></trkpt>
<trkpt lat="46.578579498454928" lon="7.077319957315922"><ele></ele><time>2013-9-9T9:34:59Z</time></trkpt>
<trkpt lat="46.578551083803177" lon="7.077415846288204"><ele></ele><time>2013-9-9T9:35:2Z</time></trkpt>
<trkpt lat="46.57852535136044" lon="7.077504610642791"><ele></ele><time>2013-9-9T9:35:5Z</time></trkpt>
<trkpt lat="46.578500038012862" lon="7.07758910022676"><ele></ele><time>2013-9-9T9:35:8Z</time></trkpt>
<trkpt lat="46.578368274495006" lon="7.078000148758292"><ele></ele><time>2013-9-9T9:35:11Z</time></trkpt>
<trkpt lat="46.578266602009535" lon="7.078303741291165"><ele></ele><time>2013-9-9T9:35:14Z</time></trkpt>
<trkpt lat="46.578234080225229" lon="7.078463584184647"><ele></ele><time>2013-9-9T9:35:17Z</time></trkpt>
<trkpt lat="46.578198792412877" lon="7.078614206984639"><ele></ele><time>2013-9-9T9:35:20Z</time></trkpt>
<trkpt lat="46.578120673075318" lon="7.078709760680795"><ele></ele><time>2013-9-9T9:35:23Z</time></trkpt>
<trkpt lat="46.578064598143101" lon="7.078744629397988"><ele></ele><time>2013-9-9T9:35:26Z</time></trkpt>
<trkpt lat="46.577997710555792" lon="7.078763488680124"><ele></ele><time>2013-9-9T9:35:29Z</time></trkpt>
<trkpt lat="46.577932499349117" lon="7.078768601641059"><ele></ele><time>2013-9-9T9:35:32Z</time></trkpt>
<trkpt lat="46.57786862924695" lon="7.078758794814348"><ele></ele><time>2013-9-9T9:35:35Z</time></trkpt>
<trkpt lat="46.577705182135105" lon="7.078693751245737"><ele></ele><time>2013-9-9T9:35:38Z</time></trkpt>
<trkpt lat="46.57766486518085" lon="7.078686291351914"><ele></ele><time>2013-9-9T9:35:41Z</time></trkpt>
<trkpt lat="46.577563527971506" lon="7.078748568892479"><ele></ele><time>2013-9-9T9:35:44Z</time></trkpt>
<trkpt lat="46.577497478574514" lon="7.078886618837714"><ele></ele><time>2013-9-9T9:35:47Z</time></trkpt>
<trkpt lat="46.577478619292378" lon="7.078931042924523"><ele></ele><time>2013-9-9T9:35:50Z</time></trkpt>
<trkpt lat="46.57746059820056" lon="7.078972198069096"><ele></ele><time>2013-9-9T9:35:53Z</time></trkpt>
<trkpt lat="46.577440733090043" lon="7.079010419547558"><ele></ele><time>2013-9-9T9:35:56Z</time></trkpt>
<trkpt lat="46.577418940141797" lon="7.079045623540878"><ele></ele><time>2013-9-9T9:35:59Z</time></trkpt>
<trkpt lat="46.577362865209579" lon="7.079124664887786"><ele></ele><time>2013-9-9T9:36:2Z</time></trkpt>
<trkpt lat="46.577296396717429" lon="7.079152911901474"><ele></ele><time>2013-9-9T9:36:5Z</time></trkpt>
<trkpt lat="46.577275274321437" lon="7.07915123552084"><ele></ele><time>2013-9-9T9:36:8Z</time></trkpt>
<trkpt lat="46.577255493029952" lon="7.079153833910823"><ele></ele><time>2013-9-9T9:36:11Z</time></trkpt>
<trkpt lat="46.577239315956831" lon="7.079149642959237"><ele></ele><time>2013-9-9T9:36:14Z</time></trkpt>
<trkpt lat="46.577215176075697" lon="7.079142099246383"><ele></ele><time>2013-9-9T9:36:17Z</time></trkpt>
<trkpt lat="46.577186426147819" lon="7.079122820869088"><ele></ele><time>2013-9-9T9:36:20Z</time></trkpt>
<trkpt lat="46.577139403671026" lon="7.079063476994634"><ele></ele><time>2013-9-9T9:36:23Z</time></trkpt>
<trkpt lat="46.577126076444983" lon="7.079046377912164"><ele></ele><time>2013-9-9T9:36:26Z</time></trkpt>
<trkpt lat="46.57710880972445" lon="7.079027686268091"><ele></ele><time>2013-9-9T9:36:29Z</time></trkpt>
<trkpt lat="46.577094979584217" lon="7.079005893319845"><ele></ele><time>2013-9-9T9:36:32Z</time></trkpt>
<trkpt lat="46.577081065624952" lon="7.078987620770931"><ele></ele><time>2013-9-9T9:36:35Z</time></trkpt>
<trkpt lat="46.577038737013936" lon="7.078929618000984"><ele></ele><time>2013-9-9T9:36:38Z</time></trkpt>
<trkpt lat="46.577027505263686" lon="7.078912602737546"><ele></ele><time>2013-9-9T9:36:41Z</time></trkpt>
<trkpt lat="46.577017949894071" lon="7.078897599130869"><ele></ele><time>2013-9-9T9:36:44Z</time></trkpt>
<trkpt lat="46.577008394524455" lon="7.078885529190302"><ele></ele><time>2013-9-9T9:36:47Z</time></trkpt>
<trkpt lat="46.576996743679047" lon="7.078873375430703"><ele></ele><time>2013-9-9T9:36:50Z</time></trkpt>
<trkpt lat="46.576961874961853" lon="7.078822748735547"><ele></ele><time>2013-9-9T9:36:53Z</time></trkpt>
<trkpt lat="46.576959528028965" lon="7.078818138688803"><ele></ele><time>2013-9-9T9:36:56Z</time></trkpt>
<trkpt lat="46.576945781707764" lon="7.078801039606333"><ele></ele><time>2013-9-9T9:36:59Z</time></trkpt>
<trkpt lat="46.576930861920118" lon="7.078778576105833"><ele></ele><time>2013-9-9T9:37:2Z</time></trkpt>
<trkpt lat="46.576918121427298" lon="7.078755274415016"><ele></ele><time>2013-9-9T9:37:5Z</time></trkpt>
<trkpt lat="46.576858023181558" lon="7.07867874763906"><ele></ele><time>2013-9-9T9:37:8Z</time></trkpt>
<trkpt lat="46.576841762289405" lon="7.078656116500497"><ele></ele><time>2013-9-9T9:37:11Z</time></trkpt>
<trkpt lat="46.576825669035316" lon="7.078630300238729"><ele></ele><time>2013-9-9T9:37:14Z</time></trkpt>
<trkpt lat="46.576810162514448" lon="7.078613871708512"><ele></ele><time>2013-9-9T9:37:17Z</time></trkpt>
<trkpt lat="46.576794069260359" lon="7.078598281368613"><ele></ele><time>2013-9-9T9:37:20Z</time></trkpt>
<trkpt lat="46.57674671150744" lon="7.078549582511187"><ele></ele><time>2013-9-9T9:37:23Z</time></trkpt>
<trkpt lat="46.576735060662031" lon="7.078540194779635"><ele></ele><time>2013-9-9T9:37:26Z</time></trkpt>
<trkpt lat="46.576725505292416" lon="7.078533992171288"><ele></ele><time>2013-9-9T9:37:29Z</time></trkpt>
<trkpt lat="46.57671058550477" lon="7.078520078212023"><ele></ele><time>2013-9-9T9:37:32Z</time></trkpt>
<trkpt lat="46.576696168631315" lon="7.078507086262107"><ele></ele><time>2013-9-9T9:37:35Z</time></trkpt>
<trkpt lat="46.57668124884367" lon="7.078495435416699"><ele></ele><time>2013-9-9T9:37:38Z</time></trkpt>
<trkpt lat="46.576644033193588" lon="7.078476659953594"><ele></ele><time>2013-9-9T9:37:41Z</time></trkpt>
<trkpt lat="46.57663925550878" lon="7.078468697145581"><ele></ele><time>2013-9-9T9:37:44Z</time></trkpt>
<trkpt lat="46.576631041243672" lon="7.078454112634063"><ele></ele><time>2013-9-9T9:37:47Z</time></trkpt>
<trkpt lat="46.576628526672721" lon="7.078439360484481"><ele></ele><time>2013-9-9T9:37:50Z</time></trkpt>
<trkpt lat="46.576622324064374" lon="7.078425697982311"><ele></ele><time>2013-9-9T9:37:53Z</time></trkpt>
<trkpt lat="46.576633220538497" lon="7.07838068716228"><ele></ele><time>2013-9-9T9:37:56Z</time></trkpt>
<trkpt lat="46.576632298529148" lon="7.078370377421379"><ele></ele><time>2013-9-9T9:37:59Z</time></trkpt>
<trkpt lat="46.576622491702437" lon="7.078361073508859"><ele></ele><time>2013-9-9T9:38:2Z</time></trkpt>
<trkpt lat="46.576611511409283" lon="7.078347494825721"><ele></ele><time>2013-9-9T9:38:5Z</time></trkpt>
<trkpt lat="46.576593741774559" lon="7.078330731019378"><ele></ele><time>2013-9-9T9:38:8Z</time></trkpt>
<trkpt lat="46.576537080109119" lon="7.078268537297845"><ele></ele><time>2013-9-9T9:38:11Z</time></trkpt>
<trkpt lat="46.576514448970556" lon="7.078232746571302"><ele></ele><time>2013-9-9T9:38:14Z</time></trkpt>
<trkpt lat="46.576500535011292" lon="7.078216150403023"><ele></ele><time>2013-9-9T9:38:17Z</time></trkpt>
<trkpt lat="46.576491398736835" lon="7.078199721872807"><ele></ele><time>2013-9-9T9:38:20Z</time></trkpt>
<trkpt lat="46.576485866680741" lon="7.078186143189669"><ele></ele><time>2013-9-9T9:38:23Z</time></trkpt>
<trkpt lat="46.576480586081743" lon="7.078173235058785"><ele></ele><time>2013-9-9T9:38:26Z</time></trkpt>
<trkpt lat="46.576450746506453" lon="7.078115986660123"><ele></ele><time>2013-9-9T9:38:29Z</time></trkpt>
<trkpt lat="46.576444040983915" lon="7.078107437118888"><ele></ele><time>2013-9-9T9:38:32Z</time></trkpt>
<trkpt lat="46.576164336875081" lon="7.077245777472854"><ele></ele><time>2013-9-9T9:38:35Z</time></trkpt>
<trkpt lat="46.576152434572577" lon="7.07721333950758"><ele></ele><time>2013-9-9T9:38:38Z</time></trkpt>
<trkpt lat="46.576143717393279" lon="7.077185343950987"><ele></ele><time>2013-9-9T9:38:41Z</time></trkpt>
<trkpt lat="46.576138604432344" lon="7.077151229605079"><ele></ele><time>2013-9-9T9:38:44Z</time></trkpt>
<trkpt lat="46.576125863939524" lon="7.07702424377203"><ele></ele><time>2013-9-9T9:38:47Z</time></trkpt>
<trkpt lat="46.576121840626001" lon="7.077000355347991"><ele></ele><time>2013-9-9T9:38:50Z</time></trkpt>
<trkpt lat="46.576121002435684" lon="7.076975712552667"><ele></ele><time>2013-9-9T9:38:53Z</time></trkpt>
<trkpt lat="46.576121421530843" lon="7.076943358406425"><ele></ele><time>2013-9-9T9:38:56Z</time></trkpt>
<trkpt lat="46.57612033188343" lon="7.076912680640817"><ele></ele><time>2013-9-9T9:38:59Z</time></trkpt>
<trkpt lat="46.576116560027003" lon="7.076893988996744"><ele></ele><time>2013-9-9T9:39:2Z</time></trkpt>
<trkpt lat="46.576105915009975" lon="7.076843697577715"><ele></ele><time>2013-9-9T9:39:5Z</time></trkpt>
<trkpt lat="46.576055623590946" lon="7.076743030920625"><ele></ele><time>2013-9-9T9:39:8Z</time></trkpt>
<trkpt lat="46.57603676430881" lon="7.07669198513031"><ele></ele><time>2013-9-9T9:39:11Z</time></trkpt>
<trkpt lat="46.576020419597626" lon="7.076644459739327"><ele></ele><time>2013-9-9T9:39:14Z</time></trkpt>
<trkpt lat="46.576005415990949" lon="7.076589055359364"><ele></ele><time>2013-9-9T9:39:17Z</time></trkpt>
<trkpt lat="46.57599133439362" lon="7.076545218005776"><ele></ele><time>2013-9-9T9:39:20Z</time></trkpt>
<trkpt lat="46.575945736840367" lon="7.076295772567391"><ele></ele><time>2013-9-9T9:39:23Z</time></trkpt>
<trkpt lat="46.575906425714493" lon="7.076161913573742"><ele></ele><time>2013-9-9T9:39:26Z</time></trkpt>
<trkpt lat="46.575896115973592" lon="7.076125536113977"><ele></ele><time>2013-9-9T9:39:29Z</time></trkpt>
<trkpt lat="46.57588429749012" lon="7.076093768700957"><ele></ele><time>2013-9-9T9:39:32Z</time></trkpt>
<trkpt lat="46.575871640816331" lon="7.076071053743362"><ele></ele><time>2013-9-9T9:39:35Z</time></trkpt>
<trkpt lat="46.575857307761908" lon="7.076039705425501"><ele></ele><time>2013-9-9T9:39:38Z</time></trkpt>
<trkpt lat="46.575827803462744" lon="7.075988324359059"><ele></ele><time>2013-9-9T9:39:41Z</time></trkpt>
<trkpt lat="46.575768291950226" lon="7.075891932472587"><ele></ele><time>2013-9-9T9:39:44Z</time></trkpt>
<trkpt lat="46.575753875076771" lon="7.075871815904975"><ele></ele><time>2013-9-9T9:39:47Z</time></trkpt>
<trkpt lat="46.57574356533587" lon="7.075841557234526"><ele></ele><time>2013-9-9T9:39:50Z</time></trkpt>
<trkpt lat="46.575740296393633" lon="7.075822865590453"><ele></ele><time>2013-9-9T9:39:53Z</time></trkpt>
<trkpt lat="46.575736775994301" lon="7.075797552242875"><ele></ele><time>2013-9-9T9:39:56Z</time></trkpt>
<trkpt lat="46.575731160119176" lon="7.075719432905316"><ele></ele><time>2013-9-9T9:39:59Z</time></trkpt>
<trkpt lat="46.575743313878775" lon="7.075564870610833"><ele></ele><time>2013-9-9T9:40:2Z</time></trkpt>
<trkpt lat="46.575743481516838" lon="7.075537880882621"><ele></ele><time>2013-9-9T9:40:5Z</time></trkpt>
<trkpt lat="46.575745912268758" lon="7.075511645525694"><ele></ele><time>2013-9-9T9:40:8Z</time></trkpt>
<trkpt lat="46.575750270858407" lon="7.07548457197845"><ele></ele><time>2013-9-9T9:40:11Z</time></trkpt>
<trkpt lat="46.575754545629025" lon="7.075463281944394"><ele></ele><time>2013-9-9T9:40:14Z</time></trkpt>
<trkpt lat="46.575753623619676" lon="7.075439393520355"><ele></ele><time>2013-9-9T9:40:17Z</time></trkpt>
<trkpt lat="46.575755383819342" lon="7.075415840372443"><ele></ele><time>2013-9-9T9:40:20Z</time></trkpt>
<trkpt lat="46.575777344405651" lon="7.075257925316691"><ele></ele><time>2013-9-9T9:40:23Z</time></trkpt>
<trkpt lat="46.575718335807323" lon="7.074996409937739"><ele></ele><time>2013-9-9T9:40:26Z</time></trkpt>
<trkpt lat="46.575590847060084" lon="7.074751239269972"><ele></ele><time>2013-9-9T9:40:29Z</time></trkpt>
<trkpt lat="46.575394123792648" lon="7.074548648670316"><ele></ele><time>2013-9-9T9:40:32Z</time></trkpt>
<trkpt lat="46.575349280610681" lon="7.074472540989518"><ele></ele><time>2013-9-9T9:40:35Z</time></trkpt>
<trkpt lat="46.575338467955589" lon="7.074410514906049"><ele></ele><time>2013-9-9T9:40:38Z</time></trkpt>
<trkpt lat="46.575334193184972" lon="7.074389141052961"><ele></ele><time>2013-9-9T9:40:41Z</time></trkpt>
<trkpt lat="46.575326984748244" lon="7.074370952323079"><ele></ele><time>2013-9-9T9:40:44Z</time></trkpt>
<trkpt lat="46.575320195406675" lon="7.07435485906899"><ele></ele><time>2013-9-9T9:40:47Z</time></trkpt>
<trkpt lat="46.575312316417694" lon="7.074339184910059"><ele></ele><time>2013-9-9T9:40:50Z</time></trkpt>
<trkpt lat="46.575301419943571" lon="7.074326109141111"><ele></ele><time>2013-9-9T9:40:53Z</time></trkpt>
<trkpt lat="46.575282728299499" lon="7.074298365041614"><ele></ele><time>2013-9-9T9:40:56Z</time></trkpt>
<trkpt lat="46.575199831277132" lon="7.07414380274713"><ele></ele><time>2013-9-9T9:40:59Z</time></trkpt>
<trkpt lat="46.575186252593994" lon="7.074104156345129"><ele></ele><time>2013-9-9T9:41:2Z</time></trkpt>
<trkpt lat="46.575176194310188" lon="7.074055541306734"><ele></ele><time>2013-9-9T9:41:5Z</time></trkpt>
<trkpt lat="46.575163956731558" lon="7.074008854106069"><ele></ele><time>2013-9-9T9:41:8Z</time></trkpt>
<trkpt lat="46.575161777436733" lon="7.073974153026938"><ele></ele><time>2013-9-9T9:41:11Z</time></trkpt>
<trkpt lat="46.575157418847084" lon="7.073890920728445"><ele></ele><time>2013-9-9T9:41:14Z</time></trkpt>
<trkpt lat="46.575135625898838" lon="7.073808861896396"><ele></ele><time>2013-9-9T9:41:17Z</time></trkpt>
<trkpt lat="46.575126657262444" lon="7.073785979300737"><ele></ele><time>2013-9-9T9:41:20Z</time></trkpt>
<trkpt lat="46.575115257874131" lon="7.073759408667684"><ele></ele><time>2013-9-9T9:41:23Z</time></trkpt>
<trkpt lat="46.575091453269124" lon="7.073720432817936"><ele></ele><time>2013-9-9T9:41:26Z</time></trkpt>
<trkpt lat="46.575071420520544" lon="7.073693191632628"><ele></ele><time>2013-9-9T9:41:29Z</time></trkpt>
<trkpt lat="46.575010232627392" lon="7.073569474741817"><ele></ele><time>2013-9-9T9:41:32Z</time></trkpt>
<trkpt lat="46.575000341981649" lon="7.073397058993578"><ele></ele><time>2013-9-9T9:41:35Z</time></trkpt>
<trkpt lat="46.575029762461782" lon="7.073270576074719"><ele></ele><time>2013-9-9T9:41:38Z</time></trkpt>
<trkpt lat="46.57504191622138" lon="7.073229337111116"><ele></ele><time>2013-9-9T9:41:41Z</time></trkpt>
<trkpt lat="46.575054321438074" lon="7.073184996843338"><ele></ele><time>2013-9-9T9:41:44Z</time></trkpt>
<trkpt lat="46.575075360015035" lon="7.073146523907781"><ele></ele><time>2013-9-9T9:41:47Z</time></trkpt>
<trkpt lat="46.575089944526553" lon="7.073112493380904"><ele></ele><time>2013-9-9T9:41:50Z</time></trkpt>
<trkpt lat="46.575132859870791" lon="7.073043510317802"><ele></ele><time>2013-9-9T9:41:53Z</time></trkpt>
<trkpt lat="46.5751445107162" lon="7.073022136464715"><ele></ele><time>2013-9-9T9:41:56Z</time></trkpt>
<trkpt lat="46.575154820457101" lon="7.072995649650693"><ele></ele><time>2013-9-9T9:41:59Z</time></trkpt>
<trkpt lat="46.575159346684813" lon="7.072968408465385"><ele></ele><time>2013-9-9T9:42:2Z</time></trkpt>
<trkpt lat="46.575163789093494" lon="7.072947956621647"><ele></ele><time>2013-9-9T9:42:5Z</time></trkpt>
<trkpt lat="46.575174266472459" lon="7.072830526158214"><ele></ele><time>2013-9-9T9:42:8Z</time></trkpt>
<trkpt lat="46.575177116319537" lon="7.072803201153874"><ele></ele><time>2013-9-9T9:42:11Z</time></trkpt>
<trkpt lat="46.575176697224379" lon="7.072777384892106"><ele></ele><time>2013-9-9T9:42:14Z</time></trkpt>
<trkpt lat="46.575176529586315" lon="7.072761375457048"><ele></ele><time>2013-9-9T9:42:17Z</time></trkpt>
<trkpt lat="46.575175942853093" lon="7.072757100686431"><ele></ele><time>2013-9-9T9:42:20Z</time></trkpt>
<trkpt lat="46.575169656425714" lon="7.072704797610641"><ele></ele><time>2013-9-9T9:42:23Z</time></trkpt>
<trkpt lat="46.57516504637897" lon="7.072690632194281"><ele></ele><time>2013-9-9T9:42:26Z</time></trkpt>
<trkpt lat="46.575160268694162" lon="7.072679484263063"><ele></ele><time>2013-9-9T9:42:29Z</time></trkpt>
<trkpt lat="46.575156664475799" lon="7.07267252728343"><ele></ele><time>2013-9-9T9:42:32Z</time></trkpt>
<trkpt lat="46.57516454346478" lon="7.072583008557558"><ele></ele><time>2013-9-9T9:42:35Z</time></trkpt>
<trkpt lat="46.575164627283812" lon="7.07255719229579"><ele></ele><time>2013-9-9T9:42:38Z</time></trkpt>
<trkpt lat="46.575115928426385" lon="7.07241210155189"><ele></ele><time>2013-9-9T9:42:41Z</time></trkpt>
<trkpt lat="46.575103607028723" lon="7.072336412966251"><ele></ele><time>2013-9-9T9:42:44Z</time></trkpt>
<trkpt lat="46.575093967840075" lon="7.07227136939764"><ele></ele><time>2013-9-9T9:42:47Z</time></trkpt>
<trkpt lat="46.575094051659107" lon="7.072217222303152"><ele></ele><time>2013-9-9T9:42:50Z</time></trkpt>
<trkpt lat="46.575077036395669" lon="7.072018319740892"><ele></ele><time>2013-9-9T9:42:53Z</time></trkpt>
<trkpt lat="46.575079802423716" lon="7.071987809613347"><ele></ele><time>2013-9-9T9:42:56Z</time></trkpt>
<trkpt lat="46.575075779110193" lon="7.071961825713515"><ele></ele><time>2013-9-9T9:42:59Z</time></trkpt>
<trkpt lat="46.575070582330227" lon="7.071931399405003"><ele></ele><time>2013-9-9T9:43:2Z</time></trkpt>
<trkpt lat="46.575070582330227" lon="7.071909103542566"><ele></ele><time>2013-9-9T9:43:5Z</time></trkpt>
<trkpt lat="46.575059266760945" lon="7.071850933134556"><ele></ele><time>2013-9-9T9:43:8Z</time></trkpt>
<trkpt lat="46.575050381943583" lon="7.071798210963607"><ele></ele><time>2013-9-9T9:43:11Z</time></trkpt>
<trkpt lat="46.574836643412709" lon="7.070511169731617"><ele></ele><time>2013-9-9T9:43:14Z</time></trkpt>
<trkpt lat="46.574831530451775" lon="7.070474876090884"><ele></ele><time>2013-9-9T9:43:17Z</time></trkpt>
<trkpt lat="46.574822897091508" lon="7.070435313507915"><ele></ele><time>2013-9-9T9:43:20Z</time></trkpt>
<trkpt lat="46.574817197397351" lon="7.070386530831456"><ele></ele><time>2013-9-9T9:43:23Z</time></trkpt>
<trkpt lat="46.574814012274146" lon="7.070331880822778"><ele></ele><time>2013-9-9T9:43:26Z</time></trkpt>
<trkpt lat="46.574814431369305" lon="7.070185281336308"><ele></ele><time>2013-9-9T9:43:29Z</time></trkpt>
<trkpt lat="46.574819711968303" lon="7.070158878341317"><ele></ele><time>2013-9-9T9:43:32Z</time></trkpt>
<trkpt lat="46.574822058901191" lon="7.070129876956344"><ele></ele><time>2013-9-9T9:43:35Z</time></trkpt>
<trkpt lat="46.574824405834079" lon="7.070102300494909"><ele></ele><time>2013-9-9T9:43:38Z</time></trkpt>
<trkpt lat="46.574825579300523" lon="7.070077992975712"><ele></ele><time>2013-9-9T9:43:41Z</time></trkpt>
<trkpt lat="46.574826668947935" lon="7.070005238056183"><ele></ele><time>2013-9-9T9:43:44Z</time></trkpt>
<trkpt lat="46.574826249852777" lon="7.069989647716284"><ele></ele><time>2013-9-9T9:43:47Z</time></trkpt>
<trkpt lat="46.574826249852777" lon="7.069963663816452"><ele></ele><time>2013-9-9T9:43:50Z</time></trkpt>
<trkpt lat="46.57482348382473" lon="7.069943379610777"><ele></ele><time>2013-9-9T9:43:53Z</time></trkpt>
<trkpt lat="46.574817448854446" lon="7.069915803149343"><ele></ele><time>2013-9-9T9:43:56Z</time></trkpt>
<trkpt lat="46.57477805390954" lon="7.069803988561034"><ele></ele><time>2013-9-9T9:43:59Z</time></trkpt>
<trkpt lat="46.574732875451446" lon="7.069669710472226"><ele></ele><time>2013-9-9T9:44:2Z</time></trkpt>
<trkpt lat="46.574732372537255" lon="7.069646995514631"><ele></ele><time>2013-9-9T9:44:5Z</time></trkpt>
<trkpt lat="46.574717871844769" lon="7.069597626104951"><ele></ele><time>2013-9-9T9:44:8Z</time></trkpt>
<trkpt lat="46.574702616780996" lon="7.069557225331664"><ele></ele><time>2013-9-9T9:44:11Z</time></trkpt>
<trkpt lat="46.574688283726573" lon="7.069532750174403"><ele></ele><time>2013-9-9T9:44:14Z</time></trkpt>
<trkpt lat="46.574633130803704" lon="7.069426635280252"><ele></ele><time>2013-9-9T9:44:17Z</time></trkpt>
<trkpt lat="46.574620641767979" lon="7.069417582824826"><ele></ele><time>2013-9-9T9:44:20Z</time></trkpt>
<trkpt lat="46.574608823284507" lon="7.069407440721989"><ele></ele><time>2013-9-9T9:44:23Z</time></trkpt>
<trkpt lat="46.574591053649783" lon="7.069395370781422"><ele></ele><time>2013-9-9T9:44:26Z</time></trkpt>
<trkpt lat="46.574581917375326" lon="7.069385061040521"><ele></ele><time>2013-9-9T9:44:29Z</time></trkpt>
<trkpt lat="46.574580492451787" lon="7.069366285577416"><ele></ele><time>2013-9-9T9:44:32Z</time></trkpt>
<trkpt lat="46.574576301500201" lon="7.069351365789771"><ele></ele><time>2013-9-9T9:44:35Z</time></trkpt>
<trkpt lat="46.574573200196028" lon="7.069333093240857"><ele></ele><time>2013-9-9T9:44:38Z</time></trkpt>
<trkpt lat="46.574563141912222" lon="7.069315323606134"><ele></ele><time>2013-9-9T9:44:41Z</time></trkpt>
<trkpt lat="46.574555598199368" lon="7.069304762408137"><ele></ele><time>2013-9-9T9:44:44Z</time></trkpt>
<trkpt lat="46.574549730867147" lon="7.069295458495617"><ele></ele><time>2013-9-9T9:44:47Z</time></trkpt>
<trkpt lat="46.574545539915562" lon="7.069286154583097"><ele></ele><time>2013-9-9T9:44:50Z</time></trkpt>
<trkpt lat="46.57453766092658" lon="7.069276263937354"><ele></ele><time>2013-9-9T9:44:53Z</time></trkpt>
<trkpt lat="46.574495164677501" lon="7.069210298359394"><ele></ele><time>2013-9-9T9:44:56Z</time></trkpt>
<trkpt lat="46.574478652328253" lon="7.069199904799461"><ele></ele><time>2013-9-9T9:44:59Z</time></trkpt>
<trkpt lat="46.574466163292527" lon="7.069193031638861"><ele></ele><time>2013-9-9T9:45:2Z</time></trkpt>
<trkpt lat="46.574450489133596" lon="7.069189343601465"><ele></ele><time>2013-9-9T9:45:5Z</time></trkpt>
<trkpt lat="46.574433809146285" lon="7.069185739383102"><ele></ele><time>2013-9-9T9:45:8Z</time></trkpt>
<trkpt lat="46.574422074481845" lon="7.069181296974421"><ele></ele><time>2013-9-9T9:45:11Z</time></trkpt>
<trkpt lat="46.574392151087523" lon="7.069181296974421"><ele></ele><time>2013-9-9T9:45:14Z</time></trkpt>
<trkpt lat="46.574375974014401" lon="7.069175597280264"><ele></ele><time>2013-9-9T9:45:17Z</time></trkpt>
<trkpt lat="46.574313947930932" lon="7.069223625585437"><ele></ele><time>2013-9-9T9:45:20Z</time></trkpt>
<trkpt lat="46.574281761422753" lon="7.06923452205956"><ele></ele><time>2013-9-9T9:45:23Z</time></trkpt>
<trkpt lat="46.574250161647797" lon="7.069249441847205"><ele></ele><time>2013-9-9T9:45:26Z</time></trkpt>
<trkpt lat="46.574234319850802" lon="7.069250363856554"><ele></ele><time>2013-9-9T9:45:29Z</time></trkpt>
<trkpt lat="46.574231050908566" lon="7.069259583950043"><ele></ele><time>2013-9-9T9:45:32Z</time></trkpt>
<trkpt lat="46.574218813329935" lon="7.069267211481929"><ele></ele><time>2013-9-9T9:45:35Z</time></trkpt>
<trkpt lat="46.574181178584695" lon="7.069278275594115"><ele></ele><time>2013-9-9T9:45:38Z</time></trkpt>
<trkpt lat="46.574162235483527" lon="7.069290261715651"><ele></ele><time>2013-9-9T9:45:41Z</time></trkpt>
<trkpt lat="46.574147818610072" lon="7.069301912561059"><ele></ele><time>2013-9-9T9:45:44Z</time></trkpt>
<trkpt lat="46.574128037318587" lon="7.069314904510975"><ele></ele><time>2013-9-9T9:45:47Z</time></trkpt>
<trkpt lat="46.574108172208071" lon="7.069326555356383"><ele></ele><time>2013-9-9T9:45:50Z</time></trkpt>
<trkpt lat="46.574092581868172" lon="7.069339631125331"><ele></ele><time>2013-9-9T9:45:53Z</time></trkpt>
<trkpt lat="46.574080511927605" lon="7.069343822076917"><ele></ele><time>2013-9-9T9:45:56Z</time></trkpt>
<trkpt lat="46.57404170371592" lon="7.069373661652207"><ele></ele><time>2013-9-9T9:45:59Z</time></trkpt>
<trkpt lat="46.574030723422766" lon="7.069382965564728"><ele></ele><time>2013-9-9T9:46:2Z</time></trkpt>
<trkpt lat="46.574028208851814" lon="7.069383300840855"><ele></ele><time>2013-9-9T9:46:5Z</time></trkpt>
<trkpt lat="46.57402066513896" lon="7.069392018020153"><ele></ele><time>2013-9-9T9:46:8Z</time></trkpt>
<trkpt lat="46.57401479780674" lon="7.069399477913976"><ele></ele><time>2013-9-9T9:46:11Z</time></trkpt>
<trkpt lat="46.57401236705482" lon="7.069405512884259"><ele></ele><time>2013-9-9T9:46:14Z</time></trkpt>
<trkpt lat="46.574004907160997" lon="7.069460079073906"><ele></ele><time>2013-9-9T9:46:17Z</time></trkpt>
<trkpt lat="46.573999878019094" lon="7.069516740739346"><ele></ele><time>2013-9-9T9:46:20Z</time></trkpt>
<trkpt lat="46.573996860533953" lon="7.069681193679571"><ele></ele><time>2013-9-9T9:46:23Z</time></trkpt>
<trkpt lat="46.57401479780674" lon="7.069845898076892"><ele></ele><time>2013-9-9T9:46:26Z</time></trkpt>
<trkpt lat="46.574009265750647" lon="7.06990490667522"><ele></ele><time>2013-9-9T9:46:29Z</time></trkpt>
<trkpt lat="46.573982611298561" lon="7.069992581382394"><ele></ele><time>2013-9-9T9:46:32Z</time></trkpt>
<trkpt lat="46.573980851098895" lon="7.069997107610107"><ele></ele><time>2013-9-9T9:46:35Z</time></trkpt>
<trkpt lat="46.573959309607744" lon="7.070056535303593"><ele></ele><time>2013-9-9T9:46:38Z</time></trkpt>
<trkpt lat="46.573927793651819" lon="7.070142952725291"><ele></ele><time>2013-9-9T9:46:41Z</time></trkpt>
<trkpt lat="46.573886638507247" lon="7.070255018770695"><ele></ele><time>2013-9-9T9:46:44Z</time></trkpt>
<trkpt lat="46.573868114501238" lon="7.070280918851495"><ele></ele><time>2013-9-9T9:46:47Z</time></trkpt>
<trkpt lat="46.573849422857165" lon="7.070304555818439"><ele></ele><time>2013-9-9T9:46:50Z</time></trkpt>
<trkpt lat="46.573838694021106" lon="7.070326851680875"><ele></ele><time>2013-9-9T9:46:53Z</time></trkpt>
<trkpt lat="46.573836850002408" lon="7.070345794782043"><ele></ele><time>2013-9-9T9:46:56Z</time></trkpt>
<trkpt lat="46.573827629908919" lon="7.070363564416766"><ele></ele><time>2013-9-9T9:46:59Z</time></trkpt>
<trkpt lat="46.573815643787384" lon="7.070386279374361"><ele></ele><time>2013-9-9T9:47:2Z</time></trkpt>
<trkpt lat="46.573806004598737" lon="7.070403965190053"><ele></ele><time>2013-9-9T9:47:5Z</time></trkpt>
<trkpt lat="46.573476511985064" lon="7.070831609889865"><ele></ele><time>2013-9-9T9:47:8Z</time></trkpt>
<trkpt lat="46.57341917976737" lon="7.070847535505891"><ele></ele><time>2013-9-9T9:47:11Z</time></trkpt>
<trkpt lat="46.573409792035818" lon="7.07084602676332"><ele></ele><time>2013-9-9T9:47:14Z</time></trkpt>
<trkpt lat="46.573399482294917" lon="7.070840578526259"><ele></ele><time>2013-9-9T9:47:17Z</time></trkpt>
<trkpt lat="46.573394034057856" lon="7.070843763649464"><ele></ele><time>2013-9-9T9:47:20Z</time></trkpt>
<trkpt lat="46.573380706831813" lon="7.070831190794706"><ele></ele><time>2013-9-9T9:47:23Z</time></trkpt>
<trkpt lat="46.573364026844501" lon="7.070823898538947"><ele></ele><time>2013-9-9T9:47:26Z</time></trkpt>
<trkpt lat="46.573274927213788" lon="7.070833034813404"><ele></ele><time>2013-9-9T9:47:29Z</time></trkpt>
<trkpt lat="46.57326671294868" lon="7.070833956822753"><ele></ele><time>2013-9-9T9:47:32Z</time></trkpt>
<trkpt lat="46.573251374065876" lon="7.070834962651134"><ele></ele><time>2013-9-9T9:47:35Z</time></trkpt>
<trkpt lat="46.573227318003774" lon="7.070839488878846"><ele></ele><time>2013-9-9T9:47:38Z</time></trkpt>
<trkpt lat="46.573208542540669" lon="7.070836974307895"><ele></ele><time>2013-9-9T9:47:41Z</time></trkpt>
<trkpt lat="46.573143331333995" lon="7.070841165259481"><ele></ele><time>2013-9-9T9:47:44Z</time></trkpt>
<trkpt lat="46.57310402020812" lon="7.070826748386025"><ele></ele><time>2013-9-9T9:47:47Z</time></trkpt>
<trkpt lat="46.573081975802779" lon="7.070819875225425"><ele></ele><time>2013-9-9T9:47:50Z</time></trkpt>
<trkpt lat="46.5730722527951" lon="7.070815600454807"><ele></ele><time>2013-9-9T9:47:53Z</time></trkpt>
<trkpt lat="46.57307174988091" lon="7.070811577141285"><ele></ele><time>2013-9-9T9:47:56Z</time></trkpt>
<trkpt lat="46.573067726567388" lon="7.070807302370668"><ele></ele><time>2013-9-9T9:47:59Z</time></trkpt>
<trkpt lat="46.572919953614473" lon="7.070746868848801"><ele></ele><time>2013-9-9T9:48:2Z</time></trkpt>
<trkpt lat="46.572904027998447" lon="7.070729434490204"><ele></ele><time>2013-9-9T9:48:5Z</time></trkpt>
<trkpt lat="46.572863208130002" lon="7.070712000131607"><ele></ele><time>2013-9-9T9:48:8Z</time></trkpt>
<trkpt lat="46.572841415181756" lon="7.070709904655814"><ele></ele><time>2013-9-9T9:48:11Z</time></trkpt>
<trkpt lat="46.57284501940012" lon="7.070710407570005"><ele></ele><time>2013-9-9T9:48:14Z</time></trkpt>
<trkpt lat="46.572843678295612" lon="7.070706048980355"><ele></ele><time>2013-9-9T9:48:17Z</time></trkpt>
<trkpt lat="46.57239449210465" lon="7.069479441270232"><ele></ele><time>2013-9-9T9:48:20Z</time></trkpt>
<trkpt lat="46.572412932291627" lon="7.069433508440852"><ele></ele><time>2013-9-9T9:48:23Z</time></trkpt>
<trkpt lat="46.572421230375767" lon="7.069411128759384"><ele></ele><time>2013-9-9T9:48:26Z</time></trkpt>
<trkpt lat="46.572430450469255" lon="7.069387156516314"><ele></ele><time>2013-9-9T9:48:29Z</time></trkpt>
<trkpt lat="46.5724384970963" lon="7.069364357739687"><ele></ele><time>2013-9-9T9:48:32Z</time></trkpt>
<trkpt lat="46.572449058294296" lon="7.069338960573077"><ele></ele><time>2013-9-9T9:48:35Z</time></trkpt>
<trkpt lat="46.57245903275907" lon="7.069311300292611"><ele></ele><time>2013-9-9T9:48:38Z</time></trkpt>
<trkpt lat="46.572469510138035" lon="7.069288250058889"><ele></ele><time>2013-9-9T9:48:41Z</time></trkpt>
<trkpt lat="46.572550982236862" lon="7.069118935614824"><ele></ele><time>2013-9-9T9:48:44Z</time></trkpt>
<trkpt lat="46.572566153481603" lon="7.069097310304642"><ele></ele><time>2013-9-9T9:48:47Z</time></trkpt>
<trkpt lat="46.572583587840199" lon="7.069067135453224"><ele></ele><time>2013-9-9T9:48:50Z</time></trkpt>
<trkpt lat="46.572599597275257" lon="7.069038553163409"><ele></ele><time>2013-9-9T9:48:53Z</time></trkpt>
<trkpt lat="46.572614852339029" lon="7.069017766043544"><ele></ele><time>2013-9-9T9:48:56Z</time></trkpt>
<trkpt lat="46.572625497356057" lon="7.068996308371425"><ele></ele><time>2013-9-9T9:48:59Z</time></trkpt>
<trkpt lat="46.572635639458895" lon="7.068981640040875"><ele></ele><time>2013-9-9T9:49:2Z</time></trkpt>
<trkpt lat="46.572644021362066" lon="7.06895699724555"><ele></ele><time>2013-9-9T9:49:5Z</time></trkpt>
<trkpt lat="46.572645027190447" lon="7.068870160728693"><ele></ele><time>2013-9-9T9:49:8Z</time></trkpt>
<trkpt lat="46.572617953643203" lon="7.068828586488962"><ele></ele><time>2013-9-9T9:49:11Z</time></trkpt>
<trkpt lat="46.572598423808813" lon="7.068812409415841"><ele></ele><time>2013-9-9T9:49:14Z</time></trkpt>
<trkpt lat="46.572579564526677" lon="7.06880503334105"><ele></ele><time>2013-9-9T9:49:17Z</time></trkpt>
<trkpt lat="46.572560789063573" lon="7.068802518770099"><ele></ele><time>2013-9-9T9:49:20Z</time></trkpt>
<trkpt lat="46.572544109076262" lon="7.06880453042686"><ele></ele><time>2013-9-9T9:49:23Z</time></trkpt>
<trkpt lat="46.572492392733693" lon="7.068825904279947"><ele></ele><time>2013-9-9T9:49:26Z</time></trkpt>
<trkpt lat="46.572344955056906" lon="7.068850547075272"><ele></ele><time>2013-9-9T9:49:29Z</time></trkpt>
<trkpt lat="46.572304805740714" lon="7.068851552903652"><ele></ele><time>2013-9-9T9:49:32Z</time></trkpt>
<trkpt lat="46.572287539020181" lon="7.068846607580781"><ele></ele><time>2013-9-9T9:49:35Z</time></trkpt>
<trkpt lat="46.57226943410933" lon="7.068839985877276"><ele></ele><time>2013-9-9T9:49:38Z</time></trkpt>
<trkpt lat="46.572250323370099" lon="7.068834370002151"><ele></ele><time>2013-9-9T9:49:41Z</time></trkpt>
<trkpt lat="46.572230290621519" lon="7.068827245384455"><ele></ele><time>2013-9-9T9:49:44Z</time></trkpt>
<trkpt lat="46.572194835171103" lon="7.068810733035207"><ele></ele><time>2013-9-9T9:49:47Z</time></trkpt>
<trkpt lat="46.572147142142057" lon="7.068765889853239"><ele></ele><time>2013-9-9T9:49:50Z</time></trkpt>
<trkpt lat="46.572133731096983" lon="7.068751892074943"><ele></ele><time>2013-9-9T9:49:53Z</time></trkpt>
<trkpt lat="46.572122583165765" lon="7.068733619526029"><ele></ele><time>2013-9-9T9:49:56Z</time></trkpt>
<trkpt lat="46.572110094130039" lon="7.068717358633876"><ele></ele><time>2013-9-9T9:49:59Z</time></trkpt>
<trkpt lat="46.572099532932043" lon="7.068702019751072"><ele></ele><time>2013-9-9T9:50:2Z</time></trkpt>
<trkpt lat="46.572039853781462" lon="7.068578386679292"><ele></ele><time>2013-9-9T9:50:5Z</time></trkpt>
<trkpt lat="46.572026778012514" lon="7.068556593731046"><ele></ele><time>2013-9-9T9:50:8Z</time></trkpt>
<trkpt lat="46.572016384452581" lon="7.068534968420863"><ele></ele><time>2013-9-9T9:50:11Z</time></trkpt>
<trkpt lat="46.57201093621552" lon="7.068514935672283"><ele></ele><time>2013-9-9T9:50:14Z</time></trkpt>
<trkpt lat="46.572003811597824" lon="7.06849280744791"><ele></ele><time>2013-9-9T9:50:17Z</time></trkpt>
<trkpt lat="46.571972128003836" lon="7.068402199074626"><ele></ele><time>2013-9-9T9:50:20Z</time></trkpt>
<trkpt lat="46.571964919567108" lon="7.06838040612638"><ele></ele><time>2013-9-9T9:50:23Z</time></trkpt>
<trkpt lat="46.571955364197493" lon="7.068357691168785"><ele></ele><time>2013-9-9T9:50:26Z</time></trkpt>
<trkpt lat="46.571943713352084" lon="7.068335982039571"><ele></ele><time>2013-9-9T9:50:29Z</time></trkpt>
<trkpt lat="46.571935499086976" lon="7.068315614014864"><ele></ele><time>2013-9-9T9:50:32Z</time></trkpt>
<trkpt lat="46.571914879605174" lon="7.068225592374802"><ele></ele><time>2013-9-9T9:50:35Z</time></trkpt>
<trkpt lat="46.571909096091986" lon="7.068202625960112"><ele></ele><time>2013-9-9T9:50:38Z</time></trkpt>
<trkpt lat="46.571902390569448" lon="7.068179324269295"><ele></ele><time>2013-9-9T9:50:41Z</time></trkpt>
<trkpt lat="46.571894092485309" lon="7.068156776949763"><ele></ele><time>2013-9-9T9:50:44Z</time></trkpt>
<trkpt lat="46.571886045858264" lon="7.068134061992168"><ele></ele><time>2013-9-9T9:50:47Z</time></trkpt>
<trkpt lat="46.571867605671287" lon="7.068089470267296"><ele></ele><time>2013-9-9T9:50:50Z</time></trkpt>
<trkpt lat="46.571841621771455" lon="7.068019397556782"><ele></ele><time>2013-9-9T9:50:53Z</time></trkpt>
<trkpt lat="46.571835167706013" lon="7.068003723397851"><ele></ele><time>2013-9-9T9:50:56Z</time></trkpt>
<trkpt lat="46.571826618164778" lon="7.067986121401191"><ele></ele><time>2013-9-9T9:50:59Z</time></trkpt>
<trkpt lat="46.57181597314775" lon="7.067970698699355"><ele></ele><time>2013-9-9T9:51:2Z</time></trkpt>
<trkpt lat="46.571805914863944" lon="7.067955527454615"><ele></ele><time>2013-9-9T9:51:5Z</time></trkpt>
<trkpt lat="46.571795688942075" lon="7.067938344553113"><ele></ele><time>2013-9-9T9:51:8Z</time></trkpt>
<trkpt lat="46.571756126359105" lon="7.067864499986172"><ele></ele><time>2013-9-9T9:51:11Z</time></trkpt>
<trkpt lat="46.571744307875633" lon="7.067847568541765"><ele></ele><time>2013-9-9T9:51:14Z</time></trkpt>
<trkpt lat="46.571732154116035" lon="7.067829295992851"><ele></ele><time>2013-9-9T9:51:17Z</time></trkpt>
<trkpt lat="46.571722682565451" lon="7.067808676511049"><ele></ele><time>2013-9-9T9:51:20Z</time></trkpt>
<trkpt lat="46.571715055033565" lon="7.067788057029247"><ele></ele><time>2013-9-9T9:51:23Z</time></trkpt>
<trkpt lat="46.571653448045254" lon="7.067677415907383"><ele></ele><time>2013-9-9T9:51:26Z</time></trkpt>
<trkpt lat="46.571644144132733" lon="7.067659981548786"><ele></ele><time>2013-9-9T9:51:29Z</time></trkpt>
<trkpt lat="46.571636935696006" lon="7.06764112226665"><ele></ele><time>2013-9-9T9:51:32Z</time></trkpt>
<trkpt lat="46.571628553792834" lon="7.067622430622578"><ele></ele><time>2013-9-9T9:51:35Z</time></trkpt>
<trkpt lat="46.571619333699346" lon="7.067603738978505"><ele></ele><time>2013-9-9T9:51:38Z</time></trkpt>
<trkpt lat="46.571588236838579" lon="7.067531570792198"><ele></ele><time>2013-9-9T9:51:41Z</time></trkpt>
<trkpt lat="46.57157264649868" lon="7.067489661276341"><ele></ele><time>2013-9-9T9:51:44Z</time></trkpt>
<trkpt lat="46.571566108614206" lon="7.067469796165824"><ele></ele><time>2013-9-9T9:51:47Z</time></trkpt>
<trkpt lat="46.571558397263288" lon="7.067451188340783"><ele></ele><time>2013-9-9T9:51:50Z</time></trkpt>
<trkpt lat="46.571550685912371" lon="7.06743199378252"><ele></ele><time>2013-9-9T9:51:53Z</time></trkpt>
<trkpt lat="46.571542723104358" lon="7.067413469776511"><ele></ele><time>2013-9-9T9:51:56Z</time></trkpt>
<trkpt lat="46.571527635678649" lon="7.067378098145127"><ele></ele><time>2013-9-9T9:51:59Z</time></trkpt>
<trkpt lat="46.571500143036246" lon="7.067290423437953"><ele></ele><time>2013-9-9T9:52:2Z</time></trkpt>
<trkpt lat="46.571494527161121" lon="7.067268043756485"><ele></ele><time>2013-9-9T9:52:5Z</time></trkpt>
<trkpt lat="46.571489833295345" lon="7.067244155332446"><ele></ele><time>2013-9-9T9:52:8Z</time></trkpt>
<trkpt lat="46.571482792496681" lon="7.067222613841295"><ele></ele><time>2013-9-9T9:52:11Z</time></trkpt>
<trkpt lat="46.571474494412541" lon="7.067203419283032"><ele></ele><time>2013-9-9T9:52:14Z</time></trkpt>
<trkpt lat="46.571427220478654" lon="7.067104429006577"><ele></ele><time>2013-9-9T9:52:17Z</time></trkpt>
<trkpt lat="46.571416994556785" lon="7.067084815353155"><ele></ele><time>2013-9-9T9:52:20Z</time></trkpt>
<trkpt lat="46.571409786120057" lon="7.06706402823329"><ele></ele><time>2013-9-9T9:52:23Z</time></trkpt>
<trkpt lat="46.571402996778488" lon="7.067043408751488"><ele></ele><time>2013-9-9T9:52:26Z</time></trkpt>
<trkpt lat="46.571397799998522" lon="7.067021615803242"><ele></ele><time>2013-9-9T9:52:29Z</time></trkpt>
<trkpt lat="46.571340467780828" lon="7.066914746537805"><ele></ele><time>2013-9-9T9:52:32Z</time></trkpt>
<trkpt lat="46.571332085877657" lon="7.066900664940476"><ele></ele><time>2013-9-9T9:52:35Z</time></trkpt>
<trkpt lat="46.571320602670312" lon="7.066882979124785"><ele></ele><time>2013-9-9T9:52:38Z</time></trkpt>
<trkpt lat="46.571309538558125" lon="7.066865293309093"><ele></ele><time>2013-9-9T9:52:41Z</time></trkpt>
<trkpt lat="46.571264527738094" lon="7.066776193678379"><ele></ele><time>2013-9-9T9:52:44Z</time></trkpt>
<trkpt lat="46.571252793073654" lon="7.066758591681719"><ele></ele><time>2013-9-9T9:52:47Z</time></trkpt>
<trkpt lat="46.571242064237595" lon="7.066740402951837"><ele></ele><time>2013-9-9T9:52:50Z</time></trkpt>
<trkpt lat="46.571233849972486" lon="7.066722549498081"><ele></ele><time>2013-9-9T9:52:53Z</time></trkpt>
<trkpt lat="46.571226054802537" lon="7.066707713529468"><ele></ele><time>2013-9-9T9:52:56Z</time></trkpt>
<trkpt lat="46.571215074509382" lon="7.066691033542156"><ele></ele><time>2013-9-9T9:52:59Z</time></trkpt>
<trkpt lat="46.571197304874659" lon="7.066652895882726"><ele></ele><time>2013-9-9T9:53:2Z</time></trkpt>
<trkpt lat="46.571143576875329" lon="7.066571842879057"><ele></ele><time>2013-9-9T9:53:5Z</time></trkpt>
<trkpt lat="46.571132177487016" lon="7.066554073244333"><ele></ele><time>2013-9-9T9:53:8Z</time></trkpt>
<trkpt lat="46.571121448650956" lon="7.066538818180561"><ele></ele><time>2013-9-9T9:53:11Z</time></trkpt>
<trkpt lat="46.571109965443611" lon="7.066520964726806"><ele></ele><time>2013-9-9T9:53:14Z</time></trkpt>
<trkpt lat="46.571098063141108" lon="7.066504620015621"><ele></ele><time>2013-9-9T9:53:17Z</time></trkpt>
<trkpt lat="46.571082221344113" lon="7.066467152908444"><ele></ele><time>2013-9-9T9:53:20Z</time></trkpt>
<trkpt lat="46.571054309606552" lon="7.066412502899766"><ele></ele><time>2013-9-9T9:53:23Z</time></trkpt>
<trkpt lat="46.571041401475668" lon="7.066398672759533"><ele></ele><time>2013-9-9T9:53:26Z</time></trkpt>
<trkpt lat="46.57103025354445" lon="7.066381322219968"><ele></ele><time>2013-9-9T9:53:29Z</time></trkpt>
<trkpt lat="46.57101851888001" lon="7.066363384947181"><ele></ele><time>2013-9-9T9:53:32Z</time></trkpt>
<trkpt lat="46.571005862206221" lon="7.066346034407616"><ele></ele><time>2013-9-9T9:53:35Z</time></trkpt>
<trkpt lat="46.570993876084685" lon="7.066328432410955"><ele></ele><time>2013-9-9T9:53:38Z</time></trkpt>
<trkpt lat="46.570969400927424" lon="7.066303202882409"><ele></ele><time>2013-9-9T9:53:41Z</time></trkpt>
<trkpt lat="46.570921875536442" lon="7.066232459619641"><ele></ele><time>2013-9-9T9:53:44Z</time></trkpt>
<trkpt lat="46.570916846394539" lon="7.066214103251696"><ele></ele><time>2013-9-9T9:53:47Z</time></trkpt>
<trkpt lat="46.570909973233938" lon="7.066197087988257"><ele></ele><time>2013-9-9T9:53:50Z</time></trkpt>
<trkpt lat="46.570900585502386" lon="7.066181246191263"><ele></ele><time>2013-9-9T9:53:53Z</time></trkpt>
<trkpt lat="46.570891030132771" lon="7.066162722185254"><ele></ele><time>2013-9-9T9:53:56Z</time></trkpt>
<trkpt lat="46.570841493085027" lon="7.06608921289444"><ele></ele><time>2013-9-9T9:53:59Z</time></trkpt>
<trkpt lat="46.570820370689034" lon="7.066052919253707"><ele></ele><time>2013-9-9T9:54:2Z</time></trkpt>
<trkpt lat="46.570808300748467" lon="7.066036825999618"><ele></ele><time>2013-9-9T9:54:5Z</time></trkpt>
<trkpt lat="46.5707962308079" lon="7.066019726917148"><ele></ele><time>2013-9-9T9:54:8Z</time></trkpt>
<trkpt lat="46.570786759257317" lon="7.066002124920487"><ele></ele><time>2013-9-9T9:54:11Z</time></trkpt>
<trkpt lat="46.570775108411908" lon="7.065981756895781"><ele></ele><time>2013-9-9T9:54:14Z</time></trkpt>
<trkpt lat="46.570691708475351" lon="7.065868433564901"><ele></ele><time>2013-9-9T9:54:17Z</time></trkpt>
<trkpt lat="46.570680560544133" lon="7.065851502120495"><ele></ele><time>2013-9-9T9:54:20Z</time></trkpt>
<trkpt lat="46.570668909698725" lon="7.065835325047374"><ele></ele><time>2013-9-9T9:54:23Z</time></trkpt>
<trkpt lat="46.570658683776855" lon="7.065818142145872"><ele></ele><time>2013-9-9T9:54:26Z</time></trkpt>
<trkpt lat="46.570649212226272" lon="7.065800707787275"><ele></ele><time>2013-9-9T9:54:29Z</time></trkpt>
<trkpt lat="46.57061736099422" lon="7.065740022808313"><ele></ele><time>2013-9-9T9:54:32Z</time></trkpt>
<trkpt lat="46.570578804239631" lon="7.06566316075623"><ele></ele><time>2013-9-9T9:54:35Z</time></trkpt>
<trkpt lat="46.570570003241301" lon="7.065646229311824"><ele></ele><time>2013-9-9T9:54:38Z</time></trkpt>
<trkpt lat="46.570563046261668" lon="7.065629800781608"><ele></ele><time>2013-9-9T9:54:41Z</time></trkpt>
<trkpt lat="46.570556508377194" lon="7.065611109137535"><ele></ele><time>2013-9-9T9:54:44Z</time></trkpt>
<trkpt lat="46.570492219179869" lon="7.065483788028359"><ele></ele><time>2013-9-9T9:54:47Z</time></trkpt>
<trkpt lat="46.570482077077031" lon="7.065465766936541"><ele></ele><time>2013-9-9T9:54:50Z</time></trkpt>
<trkpt lat="46.570472521707416" lon="7.065446320921183"><ele></ele><time>2013-9-9T9:54:53Z</time></trkpt>
<trkpt lat="46.570462044328451" lon="7.06542712636292"><ele></ele><time>2013-9-9T9:54:56Z</time></trkpt>
<trkpt lat="46.57045123167336" lon="7.065409943461418"><ele></ele><time>2013-9-9T9:54:59Z</time></trkpt>
<trkpt lat="46.57039700075984" lon="7.065313551574945"><ele></ele><time>2013-9-9T9:55:2Z</time></trkpt>
<trkpt lat="46.570383422076702" lon="7.065296955406666"><ele></ele><time>2013-9-9T9:55:5Z</time></trkpt>
<trkpt lat="46.570369340479374" lon="7.065285304561257"><ele></ele><time>2013-9-9T9:55:8Z</time></trkpt>
<trkpt lat="46.570356516167521" lon="7.065273066982627"><ele></ele><time>2013-9-9T9:55:11Z</time></trkpt>
<trkpt lat="46.570345535874367" lon="7.065258733928204"><ele></ele><time>2013-9-9T9:55:14Z</time></trkpt>
<trkpt lat="46.570332376286387" lon="7.065242892131209"><ele></ele><time>2013-9-9T9:55:17Z</time></trkpt>
<trkpt lat="46.570306140929461" lon="7.065224703401327"><ele></ele><time>2013-9-9T9:55:20Z</time></trkpt>
<trkpt lat="46.570241767913103" lon="7.065192935988307"><ele></ele><time>2013-9-9T9:55:23Z</time></trkpt>
<trkpt lat="46.570225087925792" lon="7.065189834684134"><ele></ele><time>2013-9-9T9:55:26Z</time></trkpt>
<trkpt lat="46.570208743214607" lon="7.065186481922865"><ele></ele><time>2013-9-9T9:55:29Z</time></trkpt>
<trkpt lat="46.570194913074374" lon="7.065182793885469"><ele></ele><time>2013-9-9T9:55:32Z</time></trkpt>
<trkpt lat="46.570181082934141" lon="7.065179105848074"><ele></ele><time>2013-9-9T9:55:35Z</time></trkpt>
<trkpt lat="46.570107070729136" lon="7.065158737823367"><ele></ele><time>2013-9-9T9:55:38Z</time></trkpt>
<trkpt lat="46.570094665512443" lon="7.065150355920196"><ele></ele><time>2013-9-9T9:55:41Z</time></trkpt>
<trkpt lat="46.570086786523461" lon="7.065144991502166"><ele></ele><time>2013-9-9T9:55:44Z</time></trkpt>
<trkpt lat="46.570085361599922" lon="7.065139543265104"><ele></ele><time>2013-9-9T9:55:47Z</time></trkpt>
<trkpt lat="46.569955525919795" lon="7.065109619870782"><ele></ele><time>2013-9-9T9:55:50Z</time></trkpt>
<trkpt lat="46.569919483736157" lon="7.065083552151918"><ele></ele><time>2013-9-9T9:55:53Z</time></trkpt>
<trkpt lat="46.569816553965211" lon="7.065002247691155"><ele></ele><time>2013-9-9T9:55:56Z</time></trkpt>
<trkpt lat="46.569802556186914" lon="7.064983220770955"><ele></ele><time>2013-9-9T9:55:59Z</time></trkpt>
<trkpt lat="46.569787552580237" lon="7.064964026212692"><ele></ele><time>2013-9-9T9:56:2Z</time></trkpt>
<trkpt lat="46.569771124050021" lon="7.064947262406349"><ele></ele><time>2013-9-9T9:56:5Z</time></trkpt>
<trkpt lat="46.569756707176566" lon="7.064932091161609"><ele></ele><time>2013-9-9T9:56:8Z</time></trkpt>
<trkpt lat="46.569743631407619" lon="7.06491407006979"><ele></ele><time>2013-9-9T9:56:11Z</time></trkpt>
<trkpt lat="46.569731896743178" lon="7.064895462244749"><ele></ele><time>2013-9-9T9:56:14Z</time></trkpt>
<trkpt lat="46.569669367745519" lon="7.06477576866746"><ele></ele><time>2013-9-9T9:56:17Z</time></trkpt>
<trkpt lat="46.569658890366554" lon="7.064758334308863"><ele></ele><time>2013-9-9T9:56:20Z</time></trkpt>
<trkpt lat="46.569652101024985" lon="7.064739223569632"><ele></ele><time>2013-9-9T9:56:23Z</time></trkpt>
<trkpt lat="46.569641120731831" lon="7.064723800867796"><ele></ele><time>2013-9-9T9:56:26Z</time></trkpt>
<trkpt lat="46.569627374410629" lon="7.064708210527897"><ele></ele><time>2013-9-9T9:56:29Z</time></trkpt>
<trkpt lat="46.569610442966223" lon="7.064698236063123"><ele></ele><time>2013-9-9T9:56:32Z</time></trkpt>
<trkpt lat="46.56956777907908" lon="7.064654733985663"><ele></ele><time>2013-9-9T9:56:35Z</time></trkpt>
<trkpt lat="46.569524025544524" lon="7.064598826691508"><ele></ele><time>2013-9-9T9:56:38Z</time></trkpt>
<trkpt lat="46.569496365264058" lon="7.064559767022729"><ele></ele><time>2013-9-9T9:56:41Z</time></trkpt>
<trkpt lat="46.569485384970903" lon="7.064540404826403"><ele></ele><time>2013-9-9T9:56:44Z</time></trkpt>
<trkpt lat="46.569471638649702" lon="7.06452364102006"><ele></ele><time>2013-9-9T9:56:47Z</time></trkpt>
<trkpt lat="46.569458059966564" lon="7.064507799223065"><ele></ele><time>2013-9-9T9:56:50Z</time></trkpt>
<trkpt lat="46.569446660578251" lon="7.064488437026739"><ele></ele><time>2013-9-9T9:56:53Z</time></trkpt>
<trkpt lat="46.569438446313143" lon="7.064467314630747"><ele></ele><time>2013-9-9T9:56:56Z</time></trkpt>
<trkpt lat="46.569455042481422" lon="7.064327923581004"><ele></ele><time>2013-9-9T9:56:59Z</time></trkpt>
<trkpt lat="46.569542465731502" lon="7.064316608011723"><ele></ele><time>2013-9-9T9:57:2Z</time></trkpt>
<trkpt lat="46.569591499865055" lon="7.064364217221737"><ele></ele><time>2013-9-9T9:57:5Z</time></trkpt>
<trkpt lat="46.569606922566891" lon="7.064383998513222"><ele></ele><time>2013-9-9T9:57:8Z</time></trkpt>
<trkpt lat="46.569623434916139" lon="7.064405707642436"><ele></ele><time>2013-9-9T9:57:11Z</time></trkpt>
<trkpt lat="46.569640366360545" lon="7.064426997676492"><ele></ele><time>2013-9-9T9:57:14Z</time></trkpt>
<trkpt lat="46.569796772673726" lon="7.064502686262131"><ele></ele><time>2013-9-9T9:57:17Z</time></trkpt>
<trkpt lat="46.569858966395259" lon="7.064417693763971"><ele></ele><time>2013-9-9T9:57:20Z</time></trkpt>
<trkpt lat="46.569862570613623" lon="7.064389362931252"><ele></ele><time>2013-9-9T9:57:23Z</time></trkpt>
<trkpt lat="46.569862151518464" lon="7.064361115917563"><ele></ele><time>2013-9-9T9:57:26Z</time></trkpt>
<trkpt lat="46.569857206195593" lon="7.064335132017732"><ele></ele><time>2013-9-9T9:57:29Z</time></trkpt>
<trkpt lat="46.569854775443673" lon="7.064308393746615"><ele></ele><time>2013-9-9T9:57:32Z</time></trkpt>
<trkpt lat="46.569849997758865" lon="7.064227592200041"><ele></ele><time>2013-9-9T9:57:35Z</time></trkpt>
<trkpt lat="46.569853685796261" lon="7.064159950241447"><ele></ele><time>2013-9-9T9:57:38Z</time></trkpt>
<trkpt lat="46.569855026900768" lon="7.064138827845454"><ele></ele><time>2013-9-9T9:57:41Z</time></trkpt>
<trkpt lat="46.569856032729149" lon="7.064115945249796"><ele></ele><time>2013-9-9T9:57:44Z</time></trkpt>
<trkpt lat="46.569857373833656" lon="7.064093314111233"><ele></ele><time>2013-9-9T9:57:47Z</time></trkpt>
<trkpt lat="46.569859301671386" lon="7.064071772620082"><ele></ele><time>2013-9-9T9:57:50Z</time></trkpt>
<trkpt lat="46.569889141246676" lon="7.063989881426096"><ele></ele><time>2013-9-9T9:57:53Z</time></trkpt>
<trkpt lat="46.569899870082736" lon="7.063974961638451"><ele></ele><time>2013-9-9T9:57:56Z</time></trkpt>
<trkpt lat="46.56991328112781" lon="7.063961131498218"><ele></ele><time>2013-9-9T9:57:59Z</time></trkpt>
<trkpt lat="46.569926189258695" lon="7.063949648290873"><ele></ele><time>2013-9-9T9:58:2Z</time></trkpt>
<trkpt lat="46.569939684122801" lon="7.063937494531274"><ele></ele><time>2013-9-9T9:58:5Z</time></trkpt>
<trkpt lat="46.569979330524802" lon="7.06388552673161"><ele></ele><time>2013-9-9T9:58:8Z</time></trkpt>
<trkpt lat="46.570005817338824" lon="7.063867002725601"><ele></ele><time>2013-9-9T9:58:11Z</time></trkpt>
<trkpt lat="46.570020988583565" lon="7.063854346051812"><ele></ele><time>2013-9-9T9:58:14Z</time></trkpt>
<trkpt lat="46.570034483447671" lon="7.063842359930277"><ele></ele><time>2013-9-9T9:58:17Z</time></trkpt>
<trkpt lat="46.570048732683063" lon="7.063830876722932"><ele></ele><time>2013-9-9T9:58:20Z</time></trkpt>
<trkpt lat="46.570063149556518" lon="7.063826099038124"><ele></ele><time>2013-9-9T9:58:23Z</time></trkpt>
<trkpt lat="46.570121236145496" lon="7.06379902549088"><ele></ele><time>2013-9-9T9:58:26Z</time></trkpt>
<trkpt lat="46.570132551714778" lon="7.063794499263167"><ele></ele><time>2013-9-9T9:58:29Z</time></trkpt>
<trkpt lat="46.570146717131138" lon="7.063791733235121"><ele></ele><time>2013-9-9T9:58:32Z</time></trkpt>
<trkpt lat="46.570161804556847" lon="7.063786871731281"><ele></ele><time>2013-9-9T9:58:35Z</time></trkpt>
<trkpt lat="46.570177562534809" lon="7.063778573647142"><ele></ele><time>2013-9-9T9:58:38Z</time></trkpt>
<trkpt lat="46.570219052955508" lon="7.06377019174397"><ele></ele><time>2013-9-9T9:58:41Z</time></trkpt>
<trkpt lat="46.570233553647995" lon="7.063765246421099"><ele></ele><time>2013-9-9T9:58:44Z</time></trkpt>
<trkpt lat="46.570260124281049" lon="7.063765078783035"><ele></ele><time>2013-9-9T9:58:47Z</time></trkpt>
<trkpt lat="46.570274122059345" lon="7.063764240592718"><ele></ele><time>2013-9-9T9:58:50Z</time></trkpt>
<trkpt lat="46.570287700742483" lon="7.063762648031116"><ele></ele><time>2013-9-9T9:58:53Z</time></trkpt>
<trkpt lat="46.570301111787558" lon="7.063761055469513"><ele></ele><time>2013-9-9T9:58:56Z</time></trkpt>
<trkpt lat="46.570315696299076" lon="7.063755355775356"><ele></ele><time>2013-9-9T9:58:59Z</time></trkpt>
<trkpt lat="46.570392474532127" lon="7.063777148723602"><ele></ele><time>2013-9-9T9:59:2Z</time></trkpt>
<trkpt lat="46.570406975224614" lon="7.06377848982811"><ele></ele><time>2013-9-9T9:59:5Z</time></trkpt>
<trkpt lat="46.570421727374196" lon="7.063783183693886"><ele></ele><time>2013-9-9T9:59:8Z</time></trkpt>
<trkpt lat="46.570438323542476" lon="7.063783938065171"><ele></ele><time>2013-9-9T9:59:11Z</time></trkpt>
<trkpt lat="46.570452321320772" lon="7.063786620274186"><ele></ele><time>2013-9-9T9:59:14Z</time></trkpt>
<trkpt lat="46.570498086512089" lon="7.063801540061832"><ele></ele><time>2013-9-9T9:59:17Z</time></trkpt>
<trkpt lat="46.570540582761168" lon="7.063826350495219"><ele></ele><time>2013-9-9T9:59:20Z</time></trkpt>
<trkpt lat="46.570554245263338" lon="7.063833642750979"><ele></ele><time>2013-9-9T9:59:23Z</time></trkpt>
<trkpt lat="46.570565309375525" lon="7.063845293596387"><ele></ele><time>2013-9-9T9:59:26Z</time></trkpt>
<trkpt lat="46.570575200021267" lon="7.063855770975351"><ele></ele><time>2013-9-9T9:59:29Z</time></trkpt>
<trkpt lat="46.570587437599897" lon="7.063862979412079"><ele></ele><time>2013-9-9T9:59:32Z</time></trkpt>
<trkpt lat="46.570600848644972" lon="7.063870523124933"><ele></ele><time>2013-9-9T9:59:35Z</time></trkpt>
<trkpt lat="46.570679722353816" lon="7.063927687704563"><ele></ele><time>2013-9-9T9:59:38Z</time></trkpt>
<trkpt lat="46.570692546665668" lon="7.063937662169337"><ele></ele><time>2013-9-9T9:59:41Z</time></trkpt>
<trkpt lat="46.570702940225601" lon="7.063952581956983"><ele></ele><time>2013-9-9T9:59:44Z</time></trkpt>
<trkpt lat="46.570713249966502" lon="7.063967334106565"><ele></ele><time>2013-9-9T9:59:47Z</time></trkpt>
<trkpt lat="46.570724146440625" lon="7.063980074599385"><ele></ele><time>2013-9-9T9:59:50Z</time></trkpt>
<trkpt lat="46.570794051513076" lon="7.064050063490868"><ele></ele><time>2013-9-9T9:59:53Z</time></trkpt>
<trkpt lat="46.570822801440954" lon="7.064080154523253"><ele></ele><time>2013-9-9T9:59:56Z</time></trkpt>
<trkpt lat="46.570837302133441" lon="7.064089206978679"><ele></ele><time>2013-9-9T9:59:59Z</time></trkpt>
<trkpt lat="46.570853060111403" lon="7.064098594710231"><ele></ele><time>2013-9-9T10:0:2Z</time></trkpt>
<trkpt lat="46.570868566632271" lon="7.064106641337276"><ele></ele><time>2013-9-9T10:0:5Z</time></trkpt>
<trkpt lat="46.570886000990868" lon="7.064108736813068"><ele></ele><time>2013-9-9T10:0:8Z</time></trkpt>
<trkpt lat="46.570899747312069" lon="7.06410488113761"><ele></ele><time>2013-9-9T10:0:11Z</time></trkpt>
<trkpt lat="46.570911565795541" lon="7.064097924157977"><ele></ele><time>2013-9-9T10:0:14Z</time></trkpt>
<trkpt lat="46.57095892354846" lon="7.064007483422756"><ele></ele><time>2013-9-9T10:0:17Z</time></trkpt>
<trkpt lat="46.570962024852633" lon="7.063988959416747"><ele></ele><time>2013-9-9T10:0:20Z</time></trkpt>
<trkpt lat="46.570964120328426" lon="7.063937159255147"><ele></ele><time>2013-9-9T10:0:23Z</time></trkpt>
<trkpt lat="46.570955319330096" lon="7.063921485096216"><ele></ele><time>2013-9-9T10:0:26Z</time></trkpt>
<trkpt lat="46.570947272703052" lon="7.063906816765666"><ele></ele><time>2013-9-9T10:0:29Z</time></trkpt>
<trkpt lat="46.570939477533102" lon="7.063893908634782"><ele></ele><time>2013-9-9T10:0:32Z</time></trkpt>
<trkpt lat="46.570930844172835" lon="7.063882760703564"><ele></ele><time>2013-9-9T10:0:35Z</time></trkpt>
<trkpt lat="46.570894131436944" lon="7.063843617215753"><ele></ele><time>2013-9-9T10:0:38Z</time></trkpt>
<trkpt lat="46.570867141708732" lon="7.063806904479861"><ele></ele><time>2013-9-9T10:0:41Z</time></trkpt>
<trkpt lat="46.570854904130101" lon="7.063789134845138"><ele></ele><time>2013-9-9T10:0:44Z</time></trkpt>
<trkpt lat="46.57083579339087" lon="7.063752757385373"><ele></ele><time>2013-9-9T10:0:47Z</time></trkpt>
<trkpt lat="46.570820789784193" lon="7.063735909759998"><ele></ele><time>2013-9-9T10:0:50Z</time></trkpt>
<trkpt lat="46.570811821147799" lon="7.06371939741075"><ele></ele><time>2013-9-9T10:0:53Z</time></trkpt>
<trkpt lat="46.570802433416247" lon="7.063699783757329"><ele></ele><time>2013-9-9T10:0:56Z</time></trkpt>
<trkpt lat="46.570790614932775" lon="7.06368125975132"><ele></ele><time>2013-9-9T10:0:59Z</time></trkpt>
<trkpt lat="46.5707185305655" lon="7.06358059309423"><ele></ele><time>2013-9-9T10:1:2Z</time></trkpt>
<trkpt lat="46.570706041529775" lon="7.063564080744982"><ele></ele><time>2013-9-9T10:1:5Z</time></trkpt>
<trkpt lat="46.570698246359825" lon="7.063548741862178"><ele></ele><time>2013-9-9T10:1:8Z</time></trkpt>
<trkpt lat="46.570692211389542" lon="7.063531642779708"><ele></ele><time>2013-9-9T10:1:11Z</time></trkpt>
<trkpt lat="46.570685002952814" lon="7.063516220077872"><ele></ele><time>2013-9-9T10:1:14Z</time></trkpt>
<trkpt lat="46.570636555552483" lon="7.063413541764021"><ele></ele><time>2013-9-9T10:1:17Z</time></trkpt>
<trkpt lat="46.570626497268677" lon="7.063401052728295"><ele></ele><time>2013-9-9T10:1:20Z</time></trkpt>
<trkpt lat="46.570617947727442" lon="7.063386468216777"><ele></ele><time>2013-9-9T10:1:23Z</time></trkpt>
<trkpt lat="46.570611074566841" lon="7.063371380791068"><ele></ele><time>2013-9-9T10:1:26Z</time></trkpt>
<trkpt lat="46.570577882230282" lon="7.063317149877548"><ele></ele><time>2013-9-9T10:1:29Z</time></trkpt>
<trkpt lat="46.570551479235291" lon="7.063266187906265"><ele></ele><time>2013-9-9T10:1:32Z</time></trkpt>
<trkpt lat="46.570539996027946" lon="7.063250849023461"><ele></ele><time>2013-9-9T10:1:35Z</time></trkpt>
<trkpt lat="46.570528261363506" lon="7.063235007226467"><ele></ele><time>2013-9-9T10:1:38Z</time></trkpt>
<trkpt lat="46.570517616346478" lon="7.06322000361979"><ele></ele><time>2013-9-9T10:1:41Z</time></trkpt>
<trkpt lat="46.570508312433958" lon="7.063203323632479"><ele></ele><time>2013-9-9T10:1:44Z</time></trkpt>
<trkpt lat="46.570444526150823" lon="7.063108943402767"><ele></ele><time>2013-9-9T10:1:47Z</time></trkpt>
<trkpt lat="46.570432372391224" lon="7.063091089949012"><ele></ele><time>2013-9-9T10:1:50Z</time></trkpt>
<trkpt lat="46.570419715717435" lon="7.063076002523303"><ele></ele><time>2013-9-9T10:1:53Z</time></trkpt>
<trkpt lat="46.570408483967185" lon="7.063059322535992"><ele></ele><time>2013-9-9T10:1:56Z</time></trkpt>
<trkpt lat="46.570398844778538" lon="7.063045827671886"><ele></ele><time>2013-9-9T10:1:59Z</time></trkpt>
<trkpt lat="46.570334639400244" lon="7.062965696677566"><ele></ele><time>2013-9-9T10:2:2Z</time></trkpt>
<trkpt lat="46.570322150364518" lon="7.06295077688992"><ele></ele><time>2013-9-9T10:2:5Z</time></trkpt>
<trkpt lat="46.570311421528459" lon="7.06293610855937"><ele></ele><time>2013-9-9T10:2:8Z</time></trkpt>
<trkpt lat="46.570298429578543" lon="7.062925882637501"><ele></ele><time>2013-9-9T10:2:11Z</time></trkpt>
<trkpt lat="46.570286275818944" lon="7.062912136316299"><ele></ele><time>2013-9-9T10:2:14Z</time></trkpt>
<trkpt lat="46.570263728499413" lon="7.062881458550692"><ele></ele><time>2013-9-9T10:2:17Z</time></trkpt>
<trkpt lat="46.570214778184891" lon="7.062838710844517"><ele></ele><time>2013-9-9T10:2:20Z</time></trkpt>
<trkpt lat="46.570202959701419" lon="7.062828568741679"><ele></ele><time>2013-9-9T10:2:23Z</time></trkpt>
<trkpt lat="46.570191057398915" lon="7.062819097191095"><ele></ele><time>2013-9-9T10:2:26Z</time></trkpt>
<trkpt lat="46.570180328562856" lon="7.062810631468892"><ele></ele><time>2013-9-9T10:2:29Z</time></trkpt>
<trkpt lat="46.57016783952713" lon="7.062803087756038"><ele></ele><time>2013-9-9T10:2:32Z</time></trkpt>
<trkpt lat="46.570089301094413" lon="7.06275824457407"><ele></ele><time>2013-9-9T10:2:35Z</time></trkpt>
<trkpt lat="46.570058958604932" lon="7.062741899862886"><ele></ele><time>2013-9-9T10:2:38Z</time></trkpt>
<trkpt lat="46.570046553388238" lon="7.062733434140682"><ele></ele><time>2013-9-9T10:2:41Z</time></trkpt>
<trkpt lat="46.570034399628639" lon="7.062726141884923"><ele></ele><time>2013-9-9T10:2:44Z</time></trkpt>
<trkpt lat="46.570019898936152" lon="7.062719855457544"><ele></ele><time>2013-9-9T10:2:47Z</time></trkpt>
<trkpt lat="46.570004224777222" lon="7.062717257067561"><ele></ele><time>2013-9-9T10:2:50Z</time></trkpt>
<trkpt lat="46.569976145401597" lon="7.062707869336009"><ele></ele><time>2013-9-9T10:2:53Z</time></trkpt>
<trkpt lat="46.569897523149848" lon="7.062667133286595"><ele></ele><time>2013-9-9T10:2:56Z</time></trkpt>
<trkpt lat="46.569885620847344" lon="7.062662187963724"><ele></ele><time>2013-9-9T10:2:59Z</time></trkpt>
<trkpt lat="46.56987220980227" lon="7.06265707500279"><ele></ele><time>2013-9-9T10:3:2Z</time></trkpt>
<trkpt lat="46.569857625290751" lon="7.062651878222823"><ele></ele><time>2013-9-9T10:3:5Z</time></trkpt>
<trkpt lat="46.569842118769884" lon="7.062646681442857"><ele></ele><time>2013-9-9T10:3:8Z</time></trkpt>
<trkpt lat="46.569765089079738" lon="7.062622122466564"><ele></ele><time>2013-9-9T10:3:11Z</time></trkpt>
<trkpt lat="46.569750336930156" lon="7.062619356438518"><ele></ele><time>2013-9-9T10:3:14Z</time></trkpt>
<trkpt lat="46.569736255332828" lon="7.062618685886264"><ele></ele><time>2013-9-9T10:3:17Z</time></trkpt>
<trkpt lat="46.569723263382912" lon="7.062617847695947"><ele></ele><time>2013-9-9T10:3:20Z</time></trkpt>
<trkpt lat="46.569709181785583" lon="7.06261407583952"><ele></ele><time>2013-9-9T10:3:23Z</time></trkpt>
<trkpt lat="46.569695435464382" lon="7.062610052525997"><ele></ele><time>2013-9-9T10:3:26Z</time></trkpt>
<trkpt lat="46.569681186228991" lon="7.062607035040855"><ele></ele><time>2013-9-9T10:3:29Z</time></trkpt>
<trkpt lat="46.56961371190846" lon="7.062609633430839"><ele></ele><time>2013-9-9T10:3:32Z</time></trkpt>
<trkpt lat="46.569597283378243" lon="7.062608124688268"><ele></ele><time>2013-9-9T10:3:35Z</time></trkpt>
<trkpt lat="46.569582112133503" lon="7.06260628066957"><ele></ele><time>2013-9-9T10:3:38Z</time></trkpt>
<trkpt lat="46.569568449631333" lon="7.062609801068902"><ele></ele><time>2013-9-9T10:3:41Z</time></trkpt>
<trkpt lat="46.569556631147861" lon="7.062606699764729"><ele></ele><time>2013-9-9T10:3:44Z</time></trkpt>
<trkpt lat="46.569463256746531" lon="7.062587421387434"><ele></ele><time>2013-9-9T10:3:47Z</time></trkpt>
<trkpt lat="46.569450432434678" lon="7.062581637874246"><ele></ele><time>2013-9-9T10:3:50Z</time></trkpt>
<trkpt lat="46.569436937570572" lon="7.062572920694947"><ele></ele><time>2013-9-9T10:3:53Z</time></trkpt>
<trkpt lat="46.569422353059053" lon="7.062564957886934"><ele></ele><time>2013-9-9T10:3:56Z</time></trkpt>
<trkpt lat="46.569407768547535" lon="7.062557749450207"><ele></ele><time>2013-9-9T10:3:59Z</time></trkpt>
<trkpt lat="46.569392932578921" lon="7.062550876289606"><ele></ele><time>2013-9-9T10:4:2Z</time></trkpt>
<trkpt lat="46.569314561784267" lon="7.062511816620827"><ele></ele><time>2013-9-9T10:4:5Z</time></trkpt>
<trkpt lat="46.569257229566574" lon="7.062475774437189"><ele></ele><time>2013-9-9T10:4:8Z</time></trkpt>
<trkpt lat="46.569242225959897" lon="7.062470326200128"><ele></ele><time>2013-9-9T10:4:11Z</time></trkpt>
<trkpt lat="46.569226803258061" lon="7.062465297058225"><ele></ele><time>2013-9-9T10:4:14Z</time></trkpt>
<trkpt lat="46.569215403869748" lon="7.062455574050546"><ele></ele><time>2013-9-9T10:4:17Z</time></trkpt>
<trkpt lat="46.569199729710817" lon="7.062449119985104"><ele></ele><time>2013-9-9T10:4:20Z</time></trkpt>
<trkpt lat="46.569135524332523" lon="7.06241425126791"><ele></ele><time>2013-9-9T10:4:23Z</time></trkpt>
<trkpt lat="46.569102583453059" lon="7.06237762235105"><ele></ele><time>2013-9-9T10:4:26Z</time></trkpt>
<trkpt lat="46.569092525169253" lon="7.062329342588782"><ele></ele><time>2013-9-9T10:4:29Z</time></trkpt>
<trkpt lat="46.569091016426682" lon="7.062313919886947"><ele></ele><time>2013-9-9T10:4:32Z</time></trkpt>
<trkpt lat="46.569095207378268" lon="7.06229455769062"><ele></ele><time>2013-9-9T10:4:35Z</time></trkpt>
<trkpt lat="46.569102164357901" lon="7.062274441123009"><ele></ele><time>2013-9-9T10:4:38Z</time></trkpt>
<trkpt lat="46.569111216813326" lon="7.062258347868919"><ele></ele><time>2013-9-9T10:4:41Z</time></trkpt>
<trkpt lat="46.569123454391956" lon="7.062247032299638"><ele></ele><time>2013-9-9T10:4:44Z</time></trkpt>
<trkpt lat="46.569138625636697" lon="7.062240913510323"><ele></ele><time>2013-9-9T10:4:47Z</time></trkpt>
<trkpt lat="46.569222947582603" lon="7.06228818744421"><ele></ele><time>2013-9-9T10:4:50Z</time></trkpt>
<trkpt lat="46.569303749129176" lon="7.062363959848881"><ele></ele><time>2013-9-9T10:4:53Z</time></trkpt>
<trkpt lat="46.569317663088441" lon="7.062374437227845"><ele></ele><time>2013-9-9T10:4:56Z</time></trkpt>
<trkpt lat="46.569330738857388" lon="7.062383070588112"><ele></ele><time>2013-9-9T10:4:59Z</time></trkpt>
<trkpt lat="46.569346580654383" lon="7.06238784827292"><ele></ele><time>2013-9-9T10:5:2Z</time></trkpt>
<trkpt lat="46.569363260641694" lon="7.062389608472586"><ele></ele><time>2013-9-9T10:5:5Z</time></trkpt>
<trkpt lat="46.569429142400622" lon="7.062385501340032"><ele></ele><time>2013-9-9T10:5:8Z</time></trkpt>
<trkpt lat="46.569489156827331" lon="7.062388015910983"><ele></ele><time>2013-9-9T10:5:11Z</time></trkpt>
<trkpt lat="46.56949988566339" lon="7.062390865758061"><ele></ele><time>2013-9-9T10:5:14Z</time></trkpt>
<trkpt lat="46.569514973089099" lon="7.062390362843871"><ele></ele><time>2013-9-9T10:5:17Z</time></trkpt>
<trkpt lat="46.569532491266727" lon="7.062388937920332"><ele></ele><time>2013-9-9T10:5:20Z</time></trkpt>
<trkpt lat="46.569550009444356" lon="7.062388518825173"><ele></ele><time>2013-9-9T10:5:23Z</time></trkpt>
<trkpt lat="46.569647742435336" lon="7.062372677028179"><ele></ele><time>2013-9-9T10:5:26Z</time></trkpt>
<trkpt lat="46.569663165137172" lon="7.062370330095291"><ele></ele><time>2013-9-9T10:5:29Z</time></trkpt>
<trkpt lat="46.569679006934166" lon="7.062369575724006"><ele></ele><time>2013-9-9T10:5:32Z</time></trkpt>
<trkpt lat="46.569692753255367" lon="7.062366558238864"><ele></ele><time>2013-9-9T10:5:35Z</time></trkpt>
<trkpt lat="46.569705661386251" lon="7.062363959848881"><ele></ele><time>2013-9-9T10:5:38Z</time></trkpt>
<trkpt lat="46.569721838459373" lon="7.062360104173422"><ele></ele><time>2013-9-9T10:5:41Z</time></trkpt>
<trkpt lat="46.569779086858034" lon="7.062347112223506"><ele></ele><time>2013-9-9T10:5:44Z</time></trkpt>
<trkpt lat="46.569804567843676" lon="7.06234292127192"><ele></ele><time>2013-9-9T10:5:47Z</time></trkpt>
<trkpt lat="46.569818649441004" lon="7.062340741977096"><ele></ele><time>2013-9-9T10:5:50Z</time></trkpt>
<trkpt lat="46.569834155961871" lon="7.062336718663573"><ele></ele><time>2013-9-9T10:5:53Z</time></trkpt>
<trkpt lat="46.569851003587246" lon="7.06233068369329"><ele></ele><time>2013-9-9T10:5:56Z</time></trkpt>
<trkpt lat="46.569868186488748" lon="7.062324732542038"><ele></ele><time>2013-9-9T10:5:59Z</time></trkpt>
<trkpt lat="46.569896601140499" lon="7.062316183000803"><ele></ele><time>2013-9-9T10:6:2Z</time></trkpt>
<trkpt lat="46.569964829832315" lon="7.062282236292958"><ele></ele><time>2013-9-9T10:6:5Z</time></trkpt>
<trkpt lat="46.569983353838325" lon="7.062271675094962"><ele></ele><time>2013-9-9T10:6:8Z</time></trkpt>
<trkpt lat="46.570000117644668" lon="7.062260527163744"><ele></ele><time>2013-9-9T10:6:11Z</time></trkpt>
<trkpt lat="46.570019228383899" lon="7.062248457223177"><ele></ele><time>2013-9-9T10:6:14Z</time></trkpt>
<trkpt lat="46.570038506761193" lon="7.062234794721007"><ele></ele><time>2013-9-9T10:6:17Z</time></trkpt>
<trkpt lat="46.570112016052008" lon="7.062156675383449"><ele></ele><time>2013-9-9T10:6:20Z</time></trkpt>
<trkpt lat="46.570121236145496" lon="7.062140665948391"><ele></ele><time>2013-9-9T10:6:23Z</time></trkpt>
<trkpt lat="46.570132300257683" lon="7.062120717018843"><ele></ele><time>2013-9-9T10:6:26Z</time></trkpt>
<trkpt lat="46.570142526179552" lon="7.062106635421515"><ele></ele><time>2013-9-9T10:6:29Z</time></trkpt>
<trkpt lat="46.570150069892406" lon="7.062089955434203"><ele></ele><time>2013-9-9T10:6:32Z</time></trkpt>
<trkpt lat="46.570183346047997" lon="7.061982499435544"><ele></ele><time>2013-9-9T10:6:35Z</time></trkpt>
<trkpt lat="46.570186195895076" lon="7.061958108097315"><ele></ele><time>2013-9-9T10:6:38Z</time></trkpt>
<trkpt lat="46.570190135389566" lon="7.061937740072608"><ele></ele><time>2013-9-9T10:6:41Z</time></trkpt>
<trkpt lat="46.570189716294408" lon="7.061916701495647"><ele></ele><time>2013-9-9T10:6:44Z</time></trkpt>
<trkpt lat="46.570187453180552" lon="7.061892142519355"><ele></ele><time>2013-9-9T10:6:47Z</time></trkpt>
<trkpt lat="46.570187788456678" lon="7.061838498339057"><ele></ele><time>2013-9-9T10:6:50Z</time></trkpt>
<trkpt lat="46.570180496200919" lon="7.061742022633553"><ele></ele><time>2013-9-9T10:6:53Z</time></trkpt>
<trkpt lat="46.570178484544158" lon="7.061719810590148"><ele></ele><time>2013-9-9T10:6:56Z</time></trkpt>
<trkpt lat="46.570174293592572" lon="7.061695251613855"><ele></ele><time>2013-9-9T10:6:59Z</time></trkpt>
<trkpt lat="46.570167671889067" lon="7.061671782284975"><ele></ele><time>2013-9-9T10:7:2Z</time></trkpt>
<trkpt lat="46.570162642747164" lon="7.061650156974793"><ele></ele><time>2013-9-9T10:7:5Z</time></trkpt>
<trkpt lat="46.570130037143826" lon="7.061519315466285"><ele></ele><time>2013-9-9T10:7:8Z</time></trkpt>
<trkpt lat="46.570120817050338" lon="7.061498528346419"><ele></ele><time>2013-9-9T10:7:11Z</time></trkpt>
<trkpt lat="46.570114111527801" lon="7.061476232483983"><ele></ele><time>2013-9-9T10:7:14Z</time></trkpt>
<trkpt lat="46.570108411833644" lon="7.061456702649593"><ele></ele><time>2013-9-9T10:7:17Z</time></trkpt>
<trkpt lat="46.570099359378219" lon="7.061441363766789"><ele></ele><time>2013-9-9T10:7:20Z</time></trkpt>
<trkpt lat="46.570084020495415" lon="7.061403980478644"><ele></ele><time>2013-9-9T10:7:23Z</time></trkpt>
<trkpt lat="46.570072788745165" lon="7.061346648260951"><ele></ele><time>2013-9-9T10:7:26Z</time></trkpt>
<trkpt lat="46.570076728239655" lon="7.061283364892006"><ele></ele><time>2013-9-9T10:7:29Z</time></trkpt>
<trkpt lat="46.570074968039989" lon="7.061260649934411"><ele></ele><time>2013-9-9T10:7:32Z</time></trkpt>
<trkpt lat="46.570072704926133" lon="7.061241287738085"><ele></ele><time>2013-9-9T10:7:35Z</time></trkpt>
<trkpt lat="46.57007060945034" lon="7.061221338808537"><ele></ele><time>2013-9-9T10:7:38Z</time></trkpt>
<trkpt lat="46.570066753774881" lon="7.061202311888337"><ele></ele><time>2013-9-9T10:7:41Z</time></trkpt>
<trkpt lat="46.570065412670374" lon="7.061114804819226"><ele></ele><time>2013-9-9T10:7:44Z</time></trkpt>
<trkpt lat="46.57006180845201" lon="7.061060070991516"><ele></ele><time>2013-9-9T10:7:47Z</time></trkpt>
<trkpt lat="46.570059964433312" lon="7.061040624976158"><ele></ele><time>2013-9-9T10:7:50Z</time></trkpt>
<trkpt lat="46.570055773481727" lon="7.061019921675324"><ele></ele><time>2013-9-9T10:7:53Z</time></trkpt>
<trkpt lat="46.570053845643997" lon="7.060997961089015"><ele></ele><time>2013-9-9T10:7:56Z</time></trkpt>
<trkpt lat="46.570055689662695" lon="7.060976587235928"><ele></ele><time>2013-9-9T10:7:59Z</time></trkpt>
<trkpt lat="46.570053761824965" lon="7.060877932235599"><ele></ele><time>2013-9-9T10:8:2Z</time></trkpt>
<trkpt lat="46.570055605843663" lon="7.06085798330605"><ele></ele><time>2013-9-9T10:8:5Z</time></trkpt>
<trkpt lat="46.570057617500424" lon="7.060835268348455"><ele></ele><time>2013-9-9T10:8:8Z</time></trkpt>
<trkpt lat="46.570061556994915" lon="7.06081104464829"><ele></ele><time>2013-9-9T10:8:11Z</time></trkpt>
<trkpt lat="46.5700623113662" lon="7.060787240043283"><ele></ele><time>2013-9-9T10:8:14Z</time></trkpt>
<trkpt lat="46.570063317194581" lon="7.060766201466322"><ele></ele><time>2013-9-9T10:8:17Z</time></trkpt>
<trkpt lat="46.57009944319725" lon="7.060637790709734"><ele></ele><time>2013-9-9T10:8:20Z</time></trkpt>
<trkpt lat="46.570118805393577" lon="7.060598144307733"><ele></ele><time>2013-9-9T10:8:23Z</time></trkpt>
<trkpt lat="46.570129031315446" lon="7.060585152357817"><ele></ele><time>2013-9-9T10:8:26Z</time></trkpt>
<trkpt lat="46.570140095427632" lon="7.060570986941457"><ele></ele><time>2013-9-9T10:8:29Z</time></trkpt>
<trkpt lat="46.570153338834643" lon="7.060557743534446"><ele></ele><time>2013-9-9T10:8:32Z</time></trkpt>
<trkpt lat="46.570163229480386" lon="7.060545086860657"><ele></ele><time>2013-9-9T10:8:35Z</time></trkpt>
<trkpt lat="46.57017664052546" lon="7.060531508177519"><ele></ele><time>2013-9-9T10:8:38Z</time></trkpt>
<trkpt lat="46.57019030302763" lon="7.060525724664331"><ele></ele><time>2013-9-9T10:8:41Z</time></trkpt>
<trkpt lat="46.570237828418612" lon="7.060480630025268"><ele></ele><time>2013-9-9T10:8:44Z</time></trkpt>
<trkpt lat="46.570253251120448" lon="7.060463950037956"><ele></ele><time>2013-9-9T10:8:47Z</time></trkpt>
<trkpt lat="46.570268673822284" lon="7.060450119897723"><ele></ele><time>2013-9-9T10:8:50Z</time></trkpt>
<trkpt lat="46.570281162858009" lon="7.060435619205236"><ele></ele><time>2013-9-9T10:8:53Z</time></trkpt>
<trkpt lat="46.570293651893735" lon="7.060420783236623"><ele></ele><time>2013-9-9T10:8:56Z</time></trkpt>
<trkpt lat="46.570356264710426" lon="7.060347525402904"><ele></ele><time>2013-9-9T10:8:59Z</time></trkpt>
<trkpt lat="46.57038476318121" lon="7.060313075780869"><ele></ele><time>2013-9-9T10:9:2Z</time></trkpt>
<trkpt lat="46.570399599149823" lon="7.060295641422272"><ele></ele><time>2013-9-9T10:9:5Z</time></trkpt>
<trkpt lat="46.570410495623946" lon="7.060279045253992"><ele></ele><time>2013-9-9T10:9:8Z</time></trkpt>
<trkpt lat="46.570420973002911" lon="7.060260102152824"><ele></ele><time>2013-9-9T10:9:11Z</time></trkpt>
<trkpt lat="46.570432372391224" lon="7.060236129909754"><ele></ele><time>2013-9-9T10:9:14Z</time></trkpt>
<trkpt lat="46.570441760122776" lon="7.060214504599571"><ele></ele><time>2013-9-9T10:9:17Z</time></trkpt>
<trkpt lat="46.570484759286046" lon="7.060101851820946"><ele></ele><time>2013-9-9T10:9:20Z</time></trkpt>
<trkpt lat="46.570488614961505" lon="7.060079807415605"><ele></ele><time>2013-9-9T10:9:23Z</time></trkpt>
<trkpt lat="46.570493811741471" lon="7.060058433562517"><ele></ele><time>2013-9-9T10:9:26Z</time></trkpt>
<trkpt lat="46.570497918874025" lon="7.060033790767193"><ele></ele><time>2013-9-9T10:9:29Z</time></trkpt>
<trkpt lat="46.570502026006579" lon="7.059928514063358"><ele></ele><time>2013-9-9T10:9:32Z</time></trkpt>
<trkpt lat="46.570501187816262" lon="7.059901608154178"><ele></ele><time>2013-9-9T10:9:35Z</time></trkpt>
<trkpt lat="46.570500014349818" lon="7.059875959530473"><ele></ele><time>2013-9-9T10:9:38Z</time></trkpt>
<trkpt lat="46.570494649931788" lon="7.059850227087736"><ele></ele><time>2013-9-9T10:9:41Z</time></trkpt>
<trkpt lat="46.570489788427949" lon="7.05982550047338"><ele></ele><time>2013-9-9T10:9:44Z</time></trkpt>
<trkpt lat="46.570463050156832" lon="7.059739837422967"><ele></ele><time>2013-9-9T10:9:47Z</time></trkpt>
<trkpt lat="46.570440754294395" lon="7.059676051139832"><ele></ele><time>2013-9-9T10:9:50Z</time></trkpt>
<trkpt lat="46.570432623848319" lon="7.059656772762537"><ele></ele><time>2013-9-9T10:9:53Z</time></trkpt>
<trkpt lat="46.570422146469355" lon="7.059639841318131"><ele></ele><time>2013-9-9T10:9:56Z</time></trkpt>
<trkpt lat="46.570412591099739" lon="7.059621149674058"><ele></ele><time>2013-9-9T10:9:59Z</time></trkpt>
<trkpt lat="46.570404041558504" lon="7.059599524363875"><ele></ele><time>2013-9-9T10:10:2Z</time></trkpt>
<trkpt lat="46.570393983274698" lon="7.059580413624644"><ele></ele><time>2013-9-9T10:10:5Z</time></trkpt>
<trkpt lat="46.57033933326602" lon="7.059480166062713"><ele></ele><time>2013-9-9T10:10:8Z</time></trkpt>
<trkpt lat="46.570327095687389" lon="7.059458205476403"><ele></ele><time>2013-9-9T10:10:11Z</time></trkpt>
<trkpt lat="46.570317288860679" lon="7.059436412528157"><ele></ele><time>2013-9-9T10:10:14Z</time></trkpt>
<trkpt lat="46.570308739319444" lon="7.059410680085421"><ele></ele><time>2013-9-9T10:10:17Z</time></trkpt>
<trkpt lat="46.57030563801527" lon="7.059384109452367"><ele></ele><time>2013-9-9T10:10:20Z</time></trkpt>
<trkpt lat="46.570290550589561" lon="7.05930707976222"><ele></ele><time>2013-9-9T10:10:23Z</time></trkpt>
<trkpt lat="46.570305386558175" lon="7.059192834421992"><ele></ele><time>2013-9-9T10:10:26Z</time></trkpt>
<trkpt lat="46.570312343537807" lon="7.059164838865399"><ele></ele><time>2013-9-9T10:10:29Z</time></trkpt>
<trkpt lat="46.570319049060345" lon="7.059136424213648"><ele></ele><time>2013-9-9T10:10:32Z</time></trkpt>
<trkpt lat="46.570328352972865" lon="7.059116056188941"><ele></ele><time>2013-9-9T10:10:35Z</time></trkpt>
<trkpt lat="46.570342937484384" lon="7.059100717306137"><ele></ele><time>2013-9-9T10:10:38Z</time></trkpt>
<trkpt lat="46.570409992709756" lon="7.059041205793619"><ele></ele><time>2013-9-9T10:10:41Z</time></trkpt>
<trkpt lat="46.570462379604578" lon="7.058976162225008"><ele></ele><time>2013-9-9T10:10:44Z</time></trkpt>
<trkpt lat="46.570472102612257" lon="7.058952357620001"><ele></ele><time>2013-9-9T10:10:47Z</time></trkpt>
<trkpt lat="46.570478975772858" lon="7.058926457539201"><ele></ele><time>2013-9-9T10:10:50Z</time></trkpt>
<trkpt lat="46.5704854298383" lon="7.058901898562908"><ele></ele><time>2013-9-9T10:10:53Z</time></trkpt>
<trkpt lat="46.570485597476363" lon="7.058874657377601"><ele></ele><time>2013-9-9T10:10:56Z</time></trkpt>
<trkpt lat="46.570474365726113" lon="7.058807266876102"><ele></ele><time>2013-9-9T10:10:59Z</time></trkpt>
<trkpt lat="46.57047076150775" lon="7.058803914114833"><ele></ele><time>2013-9-9T10:11:2Z</time></trkpt>
<trkpt lat="46.570422733202577" lon="7.058825790882111"><ele></ele><time>2013-9-9T10:11:5Z</time></trkpt>
<trkpt lat="46.570395743474364" lon="7.058821935206652"><ele></ele><time>2013-9-9T10:11:8Z</time></trkpt>
<trkpt lat="46.570350648835301" lon="7.058816654607654"><ele></ele><time>2013-9-9T10:11:11Z</time></trkpt>
<trkpt lat="46.57032759860158" lon="7.058835094794631"><ele></ele><time>2013-9-9T10:11:14Z</time></trkpt>
<trkpt lat="46.570306979119778" lon="7.058860827237368"><ele></ele><time>2013-9-9T10:11:17Z</time></trkpt>
<trkpt lat="46.570293651893735" lon="7.058876501396298"><ele></ele><time>2013-9-9T10:11:20Z</time></trkpt>
<trkpt lat="46.57028267160058" lon="7.058896366506815"><ele></ele><time>2013-9-9T10:11:23Z</time></trkpt>
<trkpt lat="46.570274708792567" lon="7.058909442275763"><ele></ele><time>2013-9-9T10:11:26Z</time></trkpt>
<trkpt lat="46.570254508405924" lon="7.058939784765244"><ele></ele><time>2013-9-9T10:11:29Z</time></trkpt>
<trkpt lat="46.570204133167863" lon="7.059007259085774"><ele></ele><time>2013-9-9T10:11:32Z</time></trkpt>
<trkpt lat="46.570195248350501" lon="7.059026872739196"><ele></ele><time>2013-9-9T10:11:35Z</time></trkpt>
<trkpt lat="46.570182256400585" lon="7.059042798355222"><ele></ele><time>2013-9-9T10:11:38Z</time></trkpt>
<trkpt lat="46.5701624751091" lon="7.059065513312817"><ele></ele><time>2013-9-9T10:11:41Z</time></trkpt>
<trkpt lat="46.570146046578884" lon="7.059084372594953"><ele></ele><time>2013-9-9T10:11:44Z</time></trkpt>
<trkpt lat="46.570091480389237" lon="7.059158803895116"><ele></ele><time>2013-9-9T10:11:47Z</time></trkpt>
<trkpt lat="46.570046385750175" lon="7.059221584349871"><ele></ele><time>2013-9-9T10:11:50Z</time></trkpt>
<trkpt lat="46.570032136514783" lon="7.059243293479085"><ele></ele><time>2013-9-9T10:11:53Z</time></trkpt>
<trkpt lat="46.570016127079725" lon="7.059261314570904"><ele></ele><time>2013-9-9T10:11:56Z</time></trkpt>
<trkpt lat="46.570006487891078" lon="7.059279335662723"><ele></ele><time>2013-9-9T10:11:59Z</time></trkpt>
<trkpt lat="46.569998441264033" lon="7.059297189116478"><ele></ele><time>2013-9-9T10:12:2Z</time></trkpt>
<trkpt lat="46.569987377151847" lon="7.05931487493217"><ele></ele><time>2013-9-9T10:12:5Z</time></trkpt>
<trkpt lat="46.569949323311448" lon="7.059410680085421"><ele></ele><time>2013-9-9T10:12:8Z</time></trkpt>
<trkpt lat="46.569938343018293" lon="7.059433311223984"><ele></ele><time>2013-9-9T10:12:11Z</time></trkpt>
<trkpt lat="46.569928284734488" lon="7.059453930705786"><ele></ele><time>2013-9-9T10:12:14Z</time></trkpt>
<trkpt lat="46.569916298612952" lon="7.05947320908308"><ele></ele><time>2013-9-9T10:12:17Z</time></trkpt>
<trkpt lat="46.569904228672385" lon="7.059492906555533"><ele></ele><time>2013-9-9T10:12:20Z</time></trkpt>
<trkpt lat="46.569829881191254" lon="7.059583095833659"><ele></ele><time>2013-9-9T10:12:23Z</time></trkpt>
<trkpt lat="46.569815631955862" lon="7.059591980651021"><ele></ele><time>2013-9-9T10:12:26Z</time></trkpt>
<trkpt lat="46.569800712168217" lon="7.059595752507448"><ele></ele><time>2013-9-9T10:12:29Z</time></trkpt>
<trkpt lat="46.569785624742508" lon="7.059599105268717"><ele></ele><time>2013-9-9T10:12:32Z</time></trkpt>
<trkpt lat="46.569770537316799" lon="7.059608241543174"><ele></ele><time>2013-9-9T10:12:35Z</time></trkpt>
<trkpt lat="46.569681856781244" lon="7.059637494385243"><ele></ele><time>2013-9-9T10:12:38Z</time></trkpt>
<trkpt lat="46.569667104631662" lon="7.059642942622304"><ele></ele><time>2013-9-9T10:12:41Z</time></trkpt>
<trkpt lat="46.569651598110795" lon="7.059647049754858"><ele></ele><time>2013-9-9T10:12:44Z</time></trkpt>
<trkpt lat="46.569636762142181" lon="7.05964763648808"><ele></ele><time>2013-9-9T10:12:47Z</time></trkpt>
<trkpt lat="46.569586051627994" lon="7.059655515477061"><ele></ele><time>2013-9-9T10:12:50Z</time></trkpt>
<trkpt lat="46.569556966423988" lon="7.059656102210283"><ele></ele><time>2013-9-9T10:12:53Z</time></trkpt>
<trkpt lat="46.569542549550533" lon="7.059651659801602"><ele></ele><time>2013-9-9T10:12:56Z</time></trkpt>
<trkpt lat="46.569526959210634" lon="7.059654258191586"><ele></ele><time>2013-9-9T10:12:59Z</time></trkpt>
<trkpt lat="46.569511704146862" lon="7.059657024219632"><ele></ele><time>2013-9-9T10:13:2Z</time></trkpt>
<trkpt lat="46.569496700540185" lon="7.059660293161869"><ele></ele><time>2013-9-9T10:13:5Z</time></trkpt>
<trkpt lat="46.569462670013309" lon="7.05966766923666"><ele></ele><time>2013-9-9T10:13:8Z</time></trkpt>
<trkpt lat="46.56940994784236" lon="7.059674207121134"><ele></ele><time>2013-9-9T10:13:11Z</time></trkpt>
<trkpt lat="46.569377677515149" lon="7.059679320082068"><ele></ele><time>2013-9-9T10:13:14Z</time></trkpt>
<trkpt lat="46.56936158426106" lon="7.059682924300432"><ele></ele><time>2013-9-9T10:13:17Z</time></trkpt>
<trkpt lat="46.569344820454717" lon="7.059685941785574"><ele></ele><time>2013-9-9T10:13:20Z</time></trkpt>
<trkpt lat="46.569328559562564" lon="7.059690719470382"><ele></ele><time>2013-9-9T10:13:23Z</time></trkpt>
<trkpt lat="46.569312969222665" lon="7.059694323688746"><ele></ele><time>2013-9-9T10:13:26Z</time></trkpt>
<trkpt lat="46.569242142140865" lon="7.05971259623766"><ele></ele><time>2013-9-9T10:13:29Z</time></trkpt>
<trkpt lat="46.569229401648045" lon="7.059712428599596"><ele></ele><time>2013-9-9T10:13:32Z</time></trkpt>
<trkpt lat="46.569214398041368" lon="7.05971410498023"><ele></ele><time>2013-9-9T10:13:35Z</time></trkpt>
<trkpt lat="46.569195538759232" lon="7.059717290103436"><ele></ele><time>2013-9-9T10:13:38Z</time></trkpt>
<trkpt lat="46.569180283695459" lon="7.059718044474721"><ele></ele><time>2013-9-9T10:13:41Z</time></trkpt>
<trkpt lat="46.569105098024011" lon="7.059723576530814"><ele></ele><time>2013-9-9T10:13:44Z</time></trkpt>
<trkpt lat="46.569075677543879" lon="7.059712344780564"><ele></ele><time>2013-9-9T10:13:47Z</time></trkpt>
<trkpt lat="46.569060506299138" lon="7.059709243476391"><ele></ele><time>2013-9-9T10:13:50Z</time></trkpt>
<trkpt lat="46.569045335054398" lon="7.059704633429647"><ele></ele><time>2013-9-9T10:13:53Z</time></trkpt>
<trkpt lat="46.569031924009323" lon="7.059696922078729"><ele></ele><time>2013-9-9T10:13:56Z</time></trkpt>
<trkpt lat="46.569018429145217" lon="7.059689797461033"><ele></ele><time>2013-9-9T10:13:59Z</time></trkpt>
<trkpt lat="46.568989846855402" lon="7.059680996462703"><ele></ele><time>2013-9-9T10:14:2Z</time></trkpt>
<trkpt lat="46.568934107199311" lon="7.059657946228981"><ele></ele><time>2013-9-9T10:14:5Z</time></trkpt>
<trkpt lat="46.568918768316507" lon="7.059651324525476"><ele></ele><time>2013-9-9T10:14:8Z</time></trkpt>
<trkpt lat="46.568902675062418" lon="7.059642355889082"><ele></ele><time>2013-9-9T10:14:11Z</time></trkpt>
<trkpt lat="46.568888425827026" lon="7.059639086946845"><ele></ele><time>2013-9-9T10:14:14Z</time></trkpt>
<trkpt lat="46.56887493096292" lon="7.059636237099767"><ele></ele><time>2013-9-9T10:14:17Z</time></trkpt>
<trkpt lat="46.568779041990638" lon="7.059598686173558"><ele></ele><time>2013-9-9T10:14:20Z</time></trkpt>
<trkpt lat="46.568764541298151" lon="7.059595501050353"><ele></ele><time>2013-9-9T10:14:23Z</time></trkpt>
<trkpt lat="46.568748280405998" lon="7.05959097482264"><ele></ele><time>2013-9-9T10:14:26Z</time></trkpt>
<trkpt lat="46.568736042827368" lon="7.059584856033325"><ele></ele><time>2013-9-9T10:14:29Z</time></trkpt>
<trkpt lat="46.568722799420357" lon="7.059580832719803"><ele></ele><time>2013-9-9T10:14:32Z</time></trkpt>
<trkpt lat="46.568646859377623" lon="7.059539677575231"><ele></ele><time>2013-9-9T10:14:35Z</time></trkpt>
<trkpt lat="46.568619953468442" lon="7.059523332864046"><ele></ele><time>2013-9-9T10:14:38Z</time></trkpt>
<trkpt lat="46.568606374785304" lon="7.059514699503779"><ele></ele><time>2013-9-9T10:14:41Z</time></trkpt>
<trkpt lat="46.568593634292483" lon="7.05950346775353"><ele></ele><time>2013-9-9T10:14:44Z</time></trkpt>
<trkpt lat="46.568581815809011" lon="7.059488799422979"><ele></ele><time>2013-9-9T10:14:47Z</time></trkpt>
<trkpt lat="46.568555077537894" lon="7.059470862150192"><ele></ele><time>2013-9-9T10:14:50Z</time></trkpt>
<trkpt lat="46.568515514954925" lon="7.059415122494102"><ele></ele><time>2013-9-9T10:14:53Z</time></trkpt>
<trkpt lat="46.568502690643072" lon="7.059400789439678"><ele></ele><time>2013-9-9T10:14:56Z</time></trkpt>
<trkpt lat="46.56849279999733" lon="7.059390898793936"><ele></ele><time>2013-9-9T10:14:59Z</time></trkpt>
<trkpt lat="46.56848156824708" lon="7.059378745034337"><ele></ele><time>2013-9-9T10:15:2Z</time></trkpt>
<trkpt lat="46.568470001220703" lon="7.059364495798945"><ele></ele><time>2013-9-9T10:15:5Z</time></trkpt>
<trkpt lat="46.568395234644413" lon="7.059295596554875"><ele></ele><time>2013-9-9T10:15:8Z</time></trkpt>
<trkpt lat="46.568382494151592" lon="7.059281514957547"><ele></ele><time>2013-9-9T10:15:11Z</time></trkpt>
<trkpt lat="46.568370005115867" lon="7.059272965416312"><ele></ele><time>2013-9-9T10:15:14Z</time></trkpt>
<trkpt lat="46.568357180804014" lon="7.05926550552249"><ele></ele><time>2013-9-9T10:15:17Z</time></trkpt>
<trkpt lat="46.568345278501511" lon="7.059255028143525"><ele></ele><time>2013-9-9T10:15:20Z</time></trkpt>
<trkpt lat="46.568332873284817" lon="7.059247232973576"><ele></ele><time>2013-9-9T10:15:23Z</time></trkpt>
<trkpt lat="46.568278726190329" lon="7.059212028980255"><ele></ele><time>2013-9-9T10:15:26Z</time></trkpt>
<trkpt lat="46.568267326802015" lon="7.059205155819655"><ele></ele><time>2013-9-9T10:15:29Z</time></trkpt>
<trkpt lat="46.568252490833402" lon="7.059198366478086"><ele></ele><time>2013-9-9T10:15:32Z</time></trkpt>
<trkpt lat="46.568239415064454" lon="7.059191912412643"><ele></ele><time>2013-9-9T10:15:35Z</time></trkpt>
<trkpt lat="46.568226171657443" lon="7.05918344669044"><ele></ele><time>2013-9-9T10:15:38Z</time></trkpt>
<trkpt lat="46.568211000412703" lon="7.059174310415983"><ele></ele><time>2013-9-9T10:15:41Z</time></trkpt>
<trkpt lat="46.56816640868783" lon="7.059165760874748"><ele></ele><time>2013-9-9T10:15:44Z</time></trkpt>
<trkpt lat="46.568088289350271" lon="7.059136172756553"><ele></ele><time>2013-9-9T10:15:47Z</time></trkpt>
<trkpt lat="46.568072447553277" lon="7.059133155271411"><ele></ele><time>2013-9-9T10:15:50Z</time></trkpt>
<trkpt lat="46.568057611584663" lon="7.059129299595952"><ele></ele><time>2013-9-9T10:15:53Z</time></trkpt>
<trkpt lat="46.568043697625399" lon="7.059128880500794"><ele></ele><time>2013-9-9T10:15:56Z</time></trkpt>
<trkpt lat="46.568027185276151" lon="7.05913114361465"><ele></ele><time>2013-9-9T10:15:59Z</time></trkpt>
<trkpt lat="46.567953508347273" lon="7.0591233484447"><ele></ele><time>2013-9-9T10:16:2Z</time></trkpt>
<trkpt lat="46.567938840016723" lon="7.059119241312146"><ele></ele><time>2013-9-9T10:16:5Z</time></trkpt>
<trkpt lat="46.567920399829745" lon="7.059117062017322"><ele></ele><time>2013-9-9T10:16:8Z</time></trkpt>
<trkpt lat="46.567903133109212" lon="7.059114379808307"><ele></ele><time>2013-9-9T10:16:11Z</time></trkpt>
<trkpt lat="46.567885279655457" lon="7.05911354161799"><ele></ele><time>2013-9-9T10:16:14Z</time></trkpt>
<trkpt lat="46.567777320742607" lon="7.059095185250044"><ele></ele><time>2013-9-9T10:16:17Z</time></trkpt>
<trkpt lat="46.567760137841105" lon="7.059092586860061"><ele></ele><time>2013-9-9T10:16:20Z</time></trkpt>
<trkpt lat="46.567745050415397" lon="7.05908621661365"><ele></ele><time>2013-9-9T10:16:23Z</time></trkpt>
<trkpt lat="46.567730465903878" lon="7.059075739234686"><ele></ele><time>2013-9-9T10:16:26Z</time></trkpt>
<trkpt lat="46.567716216668487" lon="7.05906760878861"><ele></ele><time>2013-9-9T10:16:29Z</time></trkpt>
<trkpt lat="46.567701967433095" lon="7.059060065075755"><ele></ele><time>2013-9-9T10:16:32Z</time></trkpt>
<trkpt lat="46.567679420113564" lon="7.059043133631349"><ele></ele><time>2013-9-9T10:16:35Z</time></trkpt>
<trkpt lat="46.567616639658809" lon="7.058993428945541"><ele></ele><time>2013-9-9T10:16:38Z</time></trkpt>
<trkpt lat="46.567603480070829" lon="7.05897968262434"><ele></ele><time>2013-9-9T10:16:41Z</time></trkpt>
<trkpt lat="46.567584620788693" lon="7.058968367055059"><ele></ele><time>2013-9-9T10:16:44Z</time></trkpt>
<trkpt lat="46.567566515877843" lon="7.058959733694792"><ele></ele><time>2013-9-9T10:16:47Z</time></trkpt>
<trkpt lat="46.567553943023086" lon="7.058945065364242"><ele></ele><time>2013-9-9T10:16:50Z</time></trkpt>
<trkpt lat="46.567508261650801" lon="7.058899886906147"><ele></ele><time>2013-9-9T10:16:53Z</time></trkpt>
<trkpt lat="46.567495604977012" lon="7.058886392042041"><ele></ele><time>2013-9-9T10:16:56Z</time></trkpt>
<trkpt lat="46.567482529208064" lon="7.058873483911157"><ele></ele><time>2013-9-9T10:16:59Z</time></trkpt>
<trkpt lat="46.567470794543624" lon="7.058863509446383"><ele></ele><time>2013-9-9T10:17:2Z</time></trkpt>
<trkpt lat="46.567456880584359" lon="7.058852948248386"><ele></ele><time>2013-9-9T10:17:5Z</time></trkpt>
<trkpt lat="46.567442631348968" lon="7.058840207755566"><ele></ele><time>2013-9-9T10:17:8Z</time></trkpt>
<trkpt lat="46.567426454275846" lon="7.058824701234698"><ele></ele><time>2013-9-9T10:17:11Z</time></trkpt>
<trkpt lat="46.567396866157651" lon="7.05876175314188"><ele></ele><time>2013-9-9T10:17:14Z</time></trkpt>
<trkpt lat="46.567390244454145" lon="7.058749934658408"><ele></ele><time>2013-9-9T10:17:17Z</time></trkpt>
<trkpt lat="46.567380437627435" lon="7.058731578290463"><ele></ele><time>2013-9-9T10:17:20Z</time></trkpt>
<trkpt lat="46.567369624972343" lon="7.058713473379612"><ele></ele><time>2013-9-9T10:17:23Z</time></trkpt>
<trkpt lat="46.567356884479523" lon="7.058698469772935"><ele></ele><time>2013-9-9T10:17:26Z</time></trkpt>
<trkpt lat="46.567293768748641" lon="7.058619176968932"><ele></ele><time>2013-9-9T10:17:29Z</time></trkpt>
<trkpt lat="46.567286560311913" lon="7.058608699589968"><ele></ele><time>2013-9-9T10:17:32Z</time></trkpt>
<trkpt lat="46.567277843132615" lon="7.058600569143891"><ele></ele><time>2013-9-9T10:17:35Z</time></trkpt>
<trkpt lat="46.567265102639794" lon="7.058589924126864"><ele></ele><time>2013-9-9T10:17:38Z</time></trkpt>
<trkpt lat="46.567248171195388" lon="7.05858388915658"><ele></ele><time>2013-9-9T10:17:41Z</time></trkpt>
<trkpt lat="46.567218918353319" lon="7.058567628264427"><ele></ele><time>2013-9-9T10:17:44Z</time></trkpt>
<trkpt lat="46.567151611670852" lon="7.05857165157795"><ele></ele><time>2013-9-9T10:17:47Z</time></trkpt>
<trkpt lat="46.567138284444809" lon="7.058568634092808"><ele></ele><time>2013-9-9T10:17:50Z</time></trkpt>
<trkpt lat="46.567116994410753" lon="7.058567544445396"><ele></ele><time>2013-9-9T10:17:53Z</time></trkpt>
<trkpt lat="46.567090088501573" lon="7.058572322130203"><ele></ele><time>2013-9-9T10:17:56Z</time></trkpt>
<trkpt lat="46.567070307210088" lon="7.058583470061421"><ele></ele><time>2013-9-9T10:17:59Z</time></trkpt>
<trkpt lat="46.567047005519271" lon="7.058590929955244"><ele></ele><time>2013-9-9T10:18:2Z</time></trkpt>
<trkpt lat="46.566984057426453" lon="7.058594198897481"><ele></ele><time>2013-9-9T10:18:5Z</time></trkpt>
<trkpt lat="46.566963773220778" lon="7.058573747053742"><ele></ele><time>2013-9-9T10:18:8Z</time></trkpt>
<trkpt lat="46.566954636946321" lon="7.05855798907578"><ele></ele><time>2013-9-9T10:18:11Z</time></trkpt>
<trkpt lat="46.56694826669991" lon="7.058547176420689"><ele></ele><time>2013-9-9T10:18:14Z</time></trkpt>
<trkpt lat="46.566941142082214" lon="7.058536279946566"><ele></ele><time>2013-9-9T10:18:17Z</time></trkpt>
<trkpt lat="46.566885653883219" lon="7.058434942737222"><ele></ele><time>2013-9-9T10:18:20Z</time></trkpt>
<trkpt lat="46.566867884248495" lon="7.05842899158597"><ele></ele><time>2013-9-9T10:18:23Z</time></trkpt>
<trkpt lat="46.566856317222118" lon="7.058415915817022"><ele></ele><time>2013-9-9T10:18:26Z</time></trkpt>
<trkpt lat="46.566848019137979" lon="7.05839823000133"><ele></ele><time>2013-9-9T10:18:29Z</time></trkpt>
<trkpt lat="46.566839553415775" lon="7.058378867805004"><ele></ele><time>2013-9-9T10:18:32Z</time></trkpt>
<trkpt lat="46.56683293171227" lon="7.058326564729214"><ele></ele><time>2013-9-9T10:18:35Z</time></trkpt>
<trkpt lat="46.566784735769033" lon="7.058220617473126"><ele></ele><time>2013-9-9T10:18:38Z</time></trkpt>
<trkpt lat="46.566774006932974" lon="7.058207709342241"><ele></ele><time>2013-9-9T10:18:41Z</time></trkpt>
<trkpt lat="46.566763613373041" lon="7.058196142315865"><ele></ele><time>2013-9-9T10:18:44Z</time></trkpt>
<trkpt lat="46.566751040518284" lon="7.058191951364279"><ele></ele><time>2013-9-9T10:18:47Z</time></trkpt>
<trkpt lat="46.566748945042491" lon="7.058188766241074"><ele></ele><time>2013-9-9T10:18:50Z</time></trkpt>
<trkpt lat="46.566736623644829" lon="7.058178959414363"><ele></ele><time>2013-9-9T10:18:53Z</time></trkpt>
<trkpt lat="46.566700246185064" lon="7.05816269852221"><ele></ele><time>2013-9-9T10:18:56Z</time></trkpt>
<trkpt lat="46.566684655845165" lon="7.058159094303846"><ele></ele><time>2013-9-9T10:18:59Z</time></trkpt>
<trkpt lat="46.566680883988738" lon="7.058159597218037"><ele></ele><time>2013-9-9T10:19:2Z</time></trkpt>
<trkpt lat="46.566672082990408" lon="7.058159932494164"><ele></ele><time>2013-9-9T10:19:5Z</time></trkpt>
<trkpt lat="46.566664706915617" lon="7.058159010484815"><ele></ele><time>2013-9-9T10:19:8Z</time></trkpt>
<trkpt lat="46.566599914804101" lon="7.058037305250764"><ele></ele><time>2013-9-9T10:19:11Z</time></trkpt>
<trkpt lat="46.566585078835487" lon="7.05801366828382"><ele></ele><time>2013-9-9T10:19:14Z</time></trkpt>
<trkpt lat="46.56657543964684" lon="7.058001263067126"><ele></ele><time>2013-9-9T10:19:17Z</time></trkpt>
<trkpt lat="46.566571248695254" lon="7.057972513139248"><ele></ele><time>2013-9-9T10:19:20Z</time></trkpt>
<trkpt lat="46.566559262573719" lon="7.057935297489166"><ele></ele><time>2013-9-9T10:19:23Z</time></trkpt>
<trkpt lat="46.566516431048512" lon="7.057898752391338"><ele></ele><time>2013-9-9T10:19:26Z</time></trkpt>
<trkpt lat="46.566500924527645" lon="7.057902608066797"><ele></ele><time>2013-9-9T10:19:29Z</time></trkpt>
<trkpt lat="46.566463122144341" lon="7.057935632765293"><ele></ele><time>2013-9-9T10:19:32Z</time></trkpt>
<trkpt lat="46.566452225670218" lon="7.057943176478148"><ele></ele><time>2013-9-9T10:19:35Z</time></trkpt>
<trkpt lat="46.566439820453525" lon="7.057953486219049"><ele></ele><time>2013-9-9T10:19:38Z</time></trkpt>
<trkpt lat="46.566425571218133" lon="7.057961951941252"><ele></ele><time>2013-9-9T10:19:41Z</time></trkpt>
<trkpt lat="46.566412160173059" lon="7.057974440976977"><ele></ele><time>2013-9-9T10:19:44Z</time></trkpt>
<trkpt lat="46.56634577549994" lon="7.058045687153935"><ele></ele><time>2013-9-9T10:19:47Z</time></trkpt>
<trkpt lat="46.566318031400442" lon="7.058076532557607"><ele></ele><time>2013-9-9T10:19:50Z</time></trkpt>
<trkpt lat="46.566301183775067" lon="7.058097487315536"><ele></ele><time>2013-9-9T10:19:53Z</time></trkpt>
<trkpt lat="46.566285425797105" lon="7.058120118454099"><ele></ele><time>2013-9-9T10:19:56Z</time></trkpt>
<trkpt lat="46.566273858770728" lon="7.058141743764281"><ele></ele><time>2013-9-9T10:19:59Z</time></trkpt>
<trkpt lat="46.566262291744351" lon="7.058151382952929"><ele></ele><time>2013-9-9T10:20:2Z</time></trkpt>
<trkpt lat="46.566250054165721" lon="7.058164710178971"><ele></ele><time>2013-9-9T10:20:5Z</time></trkpt>
<trkpt lat="46.566075962036848" lon="7.058325977995992"><ele></ele><time>2013-9-9T10:20:8Z</time></trkpt>
<trkpt lat="46.566050229594111" lon="7.058343077078462"><ele></ele><time>2013-9-9T10:20:11Z</time></trkpt>
<trkpt lat="46.56602525152266" lon="7.058364870026708"><ele></ele><time>2013-9-9T10:20:14Z</time></trkpt>
<trkpt lat="46.56600228510797" lon="7.058379789814353"><ele></ele><time>2013-9-9T10:20:17Z</time></trkpt>
<trkpt lat="46.565979737788439" lon="7.058390602469444"><ele></ele><time>2013-9-9T10:20:20Z</time></trkpt>
<trkpt lat="46.56590798869729" lon="7.058397643268108"><ele></ele><time>2013-9-9T10:20:23Z</time></trkpt>
<trkpt lat="46.565897511318326" lon="7.058389596641064"><ele></ele><time>2013-9-9T10:20:26Z</time></trkpt>
<trkpt lat="46.565885525196791" lon="7.058377945795655"><ele></ele><time>2013-9-9T10:20:29Z</time></trkpt>
<trkpt lat="46.565876556560397" lon="7.058370318263769"><ele></ele><time>2013-9-9T10:20:32Z</time></trkpt>
<trkpt lat="46.565865408629179" lon="7.058357913047075"><ele></ele><time>2013-9-9T10:20:35Z</time></trkpt>
<trkpt lat="46.565857110545039" lon="7.05834835767746"><ele></ele><time>2013-9-9T10:20:38Z</time></trkpt>
<trkpt lat="46.565848225727677" lon="7.058342909440398"><ele></ele><time>2013-9-9T10:20:41Z</time></trkpt>
<trkpt lat="46.565801538527012" lon="7.058281218633056"><ele></ele><time>2013-9-9T10:20:44Z</time></trkpt>
<trkpt lat="46.565795000642538" lon="7.058268142864108"><ele></ele><time>2013-9-9T10:20:47Z</time></trkpt>
<trkpt lat="46.565785193815827" lon="7.05825942568481"><ele></ele><time>2013-9-9T10:20:50Z</time></trkpt>
<trkpt lat="46.565777314826846" lon="7.058255067095161"><ele></ele><time>2013-9-9T10:20:53Z</time></trkpt>
<trkpt lat="46.565770860761404" lon="7.058243416249752"><ele></ele><time>2013-9-9T10:20:56Z</time></trkpt>
<trkpt lat="46.565751582384109" lon="7.058196058496833"><ele></ele><time>2013-9-9T10:20:59Z</time></trkpt>
<trkpt lat="46.565731214359403" lon="7.05817736685276"><ele></ele><time>2013-9-9T10:21:2Z</time></trkpt>
<trkpt lat="46.565727610141039" lon="7.058159094303846"><ele></ele><time>2013-9-9T10:21:5Z</time></trkpt>
<trkpt lat="46.565721658989787" lon="7.058143671602011"><ele></ele><time>2013-9-9T10:21:8Z</time></trkpt>
<trkpt lat="46.565719563513994" lon="7.058120872825384"><ele></ele><time>2013-9-9T10:21:11Z</time></trkpt>
<trkpt lat="46.565713444724679" lon="7.05810159444809"><ele></ele><time>2013-9-9T10:21:14Z</time></trkpt>
<trkpt lat="46.56569198705256" lon="7.057991456240416"><ele></ele><time>2013-9-9T10:21:17Z</time></trkpt>
<trkpt lat="46.565686287358403" lon="7.057970836758614"><ele></ele><time>2013-9-9T10:21:20Z</time></trkpt>
<trkpt lat="46.565675307065248" lon="7.05795893445611"><ele></ele><time>2013-9-9T10:21:23Z</time></trkpt>
<trkpt lat="46.565661644563079" lon="7.057944098487496"><ele></ele><time>2013-9-9T10:21:26Z</time></trkpt>
<trkpt lat="46.565650664269924" lon="7.057935381308198"><ele></ele><time>2013-9-9T10:21:29Z</time></trkpt>
<trkpt lat="46.565638929605484" lon="7.057900680229068"><ele></ele><time>2013-9-9T10:21:32Z</time></trkpt>
<trkpt lat="46.565632559359074" lon="7.057879390195012"><ele></ele><time>2013-9-9T10:21:35Z</time></trkpt>
<trkpt lat="46.565602384507656" lon="7.057854663580656"><ele></ele><time>2013-9-9T10:21:38Z</time></trkpt>
<trkpt lat="46.565588722005486" lon="7.057824740186334"><ele></ele><time>2013-9-9T10:21:41Z</time></trkpt>
<trkpt lat="46.565576316788793" lon="7.057811161503196"><ele></ele><time>2013-9-9T10:21:44Z</time></trkpt>
<trkpt lat="46.565568605437875" lon="7.057811748236418"><ele></ele><time>2013-9-9T10:21:47Z</time></trkpt>
<trkpt lat="46.565554272383451" lon="7.057794230058789"><ele></ele><time>2013-9-9T10:21:50Z</time></trkpt>
<trkpt lat="46.565541615709662" lon="7.057781321927905"><ele></ele><time>2013-9-9T10:21:53Z</time></trkpt>
<trkpt lat="46.565533149987459" lon="7.057768329977989"><ele></ele><time>2013-9-9T10:21:56Z</time></trkpt>
<trkpt lat="46.565527366474271" lon="7.057767994701862"><ele></ele><time>2013-9-9T10:21:59Z</time></trkpt>
<trkpt lat="46.565424939617515" lon="7.057781908661127"><ele></ele><time>2013-9-9T10:22:2Z</time></trkpt>
<trkpt lat="46.565417563542724" lon="7.057767324149609"><ele></ele><time>2013-9-9T10:22:5Z</time></trkpt>
<trkpt lat="46.565402140840888" lon="7.057760199531913"><ele></ele><time>2013-9-9T10:22:8Z</time></trkpt>
<trkpt lat="46.565380431711674" lon="7.057757182046771"><ele></ele><time>2013-9-9T10:22:11Z</time></trkpt>
<trkpt lat="46.56536023132503" lon="7.057752655819058"><ele></ele><time>2013-9-9T10:22:14Z</time></trkpt>
<trkpt lat="46.565274484455585" lon="7.057691467925906"><ele></ele><time>2013-9-9T10:22:17Z</time></trkpt>
<trkpt lat="46.565236933529377" lon="7.057687696069479"><ele></ele><time>2013-9-9T10:22:20Z</time></trkpt>
<trkpt lat="46.565197790041566" lon="7.057681493461132"><ele></ele><time>2013-9-9T10:22:23Z</time></trkpt>
<trkpt lat="46.565181193873286" lon="7.057678559795022"><ele></ele><time>2013-9-9T10:22:26Z</time></trkpt>
<trkpt lat="46.565167866647243" lon="7.0576779730618"><ele></ele><time>2013-9-9T10:22:29Z</time></trkpt>
<trkpt lat="46.565152946859598" lon="7.057675290852785"><ele></ele><time>2013-9-9T10:22:32Z</time></trkpt>
<trkpt lat="46.565134841948748" lon="7.057679649442434"><ele></ele><time>2013-9-9T10:22:35Z</time></trkpt>
<trkpt lat="46.565118748694658" lon="7.057680739089847"><ele></ele><time>2013-9-9T10:22:38Z</time></trkpt>
<trkpt lat="46.565033169463277" lon="7.057694988325238"><ele></ele><time>2013-9-9T10:22:41Z</time></trkpt>
<trkpt lat="46.565014896914363" lon="7.057698844000697"><ele></ele><time>2013-9-9T10:22:44Z</time></trkpt>
<trkpt lat="46.564999558031559" lon="7.057698341086507"><ele></ele><time>2013-9-9T10:22:47Z</time></trkpt>
<trkpt lat="46.564986146986485" lon="7.057694485411048"><ele></ele><time>2013-9-9T10:22:50Z</time></trkpt>
<trkpt lat="46.564970389008522" lon="7.057687863707542"><ele></ele><time>2013-9-9T10:22:53Z</time></trkpt>
<trkpt lat="46.564899729564786" lon="7.057627430185676"><ele></ele><time>2013-9-9T10:22:56Z</time></trkpt>
<trkpt lat="46.564860502257943" lon="7.057612426578999"><ele></ele><time>2013-9-9T10:22:59Z</time></trkpt>
<trkpt lat="46.56486083753407" lon="7.057607648894191"><ele></ele><time>2013-9-9T10:23:2Z</time></trkpt>
<trkpt lat="46.564839798957109" lon="7.057592812925577"><ele></ele><time>2013-9-9T10:23:5Z</time></trkpt>
<trkpt lat="46.564826555550098" lon="7.057595159858465"><ele></ele><time>2013-9-9T10:23:8Z</time></trkpt>
<trkpt lat="46.564814737066627" lon="7.057601949200034"><ele></ele><time>2013-9-9T10:23:11Z</time></trkpt>
<trkpt lat="46.564779365435243" lon="7.057568170130253"><ele></ele><time>2013-9-9T10:23:14Z</time></trkpt>
<trkpt lat="46.564740054309368" lon="7.057568253949285"><ele></ele><time>2013-9-9T10:23:17Z</time></trkpt>
<trkpt lat="46.564723793417215" lon="7.057566326111555"><ele></ele><time>2013-9-9T10:23:20Z</time></trkpt>
<trkpt lat="46.564708119258285" lon="7.057557525113225"><ele></ele><time>2013-9-9T10:23:23Z</time></trkpt>
<trkpt lat="46.564690852537751" lon="7.057535145431757"><ele></ele><time>2013-9-9T10:23:26Z</time></trkpt>
<trkpt lat="46.564671406522393" lon="7.057521566748619"><ele></ele><time>2013-9-9T10:23:29Z</time></trkpt>
<trkpt lat="46.56465413980186" lon="7.057497594505549"><ele></ele><time>2013-9-9T10:23:32Z</time></trkpt>
<trkpt lat="46.564584905281663" lon="7.057489296421409"><ele></ele><time>2013-9-9T10:23:35Z</time></trkpt>
<trkpt lat="46.564549617469311" lon="7.057503964751959"><ele></ele><time>2013-9-9T10:23:38Z</time></trkpt>
<trkpt lat="46.564521202817559" lon="7.05750647932291"><ele></ele><time>2013-9-9T10:23:41Z</time></trkpt>
<trkpt lat="46.564506366848946" lon="7.057504802942276"><ele></ele><time>2013-9-9T10:23:44Z</time></trkpt>
<trkpt lat="46.564494883641601" lon="7.057497426867485"><ele></ele><time>2013-9-9T10:23:47Z</time></trkpt>
<trkpt lat="46.564481388777494" lon="7.057487703859806"><ele></ele><time>2013-9-9T10:23:50Z</time></trkpt>
<trkpt lat="46.564466468989849" lon="7.057483596727252"><ele></ele><time>2013-9-9T10:23:53Z</time></trkpt>
<trkpt lat="46.564380135387182" lon="7.057469096034765"><ele></ele><time>2013-9-9T10:23:56Z</time></trkpt>
<trkpt lat="46.56433847732842" lon="7.057461217045784"><ele></ele><time>2013-9-9T10:23:59Z</time></trkpt>
<trkpt lat="46.564324228093028" lon="7.057446883991361"><ele></ele><time>2013-9-9T10:24:2Z</time></trkpt>
<trkpt lat="46.564304111525416" lon="7.057440765202045"><ele></ele><time>2013-9-9T10:24:5Z</time></trkpt>
<trkpt lat="46.564285503700376" lon="7.0574483089149"><ele></ele><time>2013-9-9T10:24:8Z</time></trkpt>
<trkpt lat="46.564272763207555" lon="7.057448225095868"><ele></ele><time>2013-9-9T10:24:11Z</time></trkpt>
<trkpt lat="46.564190536737442" lon="7.057443782687187"><ele></ele><time>2013-9-9T10:24:14Z</time></trkpt>
<trkpt lat="46.564124738797545" lon="7.057425426319242"><ele></ele><time>2013-9-9T10:24:17Z</time></trkpt>
<trkpt lat="46.564029268920422" lon="7.057406818494201"><ele></ele><time>2013-9-9T10:24:20Z</time></trkpt>
<trkpt lat="46.563932960852981" lon="7.05742291174829"><ele></ele><time>2013-9-9T10:24:23Z</time></trkpt>
<trkpt lat="46.56385526061058" lon="7.057392904534936"><ele></ele><time>2013-9-9T10:24:26Z</time></trkpt>
<trkpt lat="46.563837490975857" lon="7.057378152385354"><ele></ele><time>2013-9-9T10:24:29Z</time></trkpt>
<trkpt lat="46.563818966969848" lon="7.057366752997041"><ele></ele><time>2013-9-9T10:24:32Z</time></trkpt>
<trkpt lat="46.563803376629949" lon="7.057353928685188"><ele></ele><time>2013-9-9T10:24:35Z</time></trkpt>
<trkpt lat="46.563782254233956" lon="7.057341691106558"><ele></ele><time>2013-9-9T10:24:38Z</time></trkpt>
<trkpt lat="46.5636763907969" lon="7.057253262028098"><ele></ele><time>2013-9-9T10:24:41Z</time></trkpt>
<trkpt lat="46.563653508201241" lon="7.057217136025429"><ele></ele><time>2013-9-9T10:24:44Z</time></trkpt>
<trkpt lat="46.563623752444983" lon="7.057165000587702"><ele></ele><time>2013-9-9T10:24:47Z</time></trkpt>
<trkpt lat="46.563613275066018" lon="7.057128204032779"><ele></ele><time>2013-9-9T10:24:50Z</time></trkpt>
<trkpt lat="46.563603719696403" lon="7.057048492133617"><ele></ele><time>2013-9-9T10:24:53Z</time></trkpt>
<trkpt lat="46.563606821000576" lon="7.057026866823435"><ele></ele><time>2013-9-9T10:24:56Z</time></trkpt>
<trkpt lat="46.563614783808589" lon="7.056996608152986"><ele></ele><time>2013-9-9T10:24:59Z</time></trkpt>
<trkpt lat="46.563626686111093" lon="7.056984957307577"><ele></ele><time>2013-9-9T10:25:2Z</time></trkpt>
<trkpt lat="46.563632134348154" lon="7.056976659223437"><ele></ele><time>2013-9-9T10:25:5Z</time></trkpt>
<trkpt lat="46.563631212338805" lon="7.056971546262503"><ele></ele><time>2013-9-9T10:25:8Z</time></trkpt>
<trkpt lat="46.563665075227618" lon="7.056994428858161"><ele></ele><time>2013-9-9T10:25:11Z</time></trkpt>
<trkpt lat="46.563722658902407" lon="7.057043379172683"><ele></ele><time>2013-9-9T10:25:14Z</time></trkpt>
<trkpt lat="46.563776889815927" lon="7.057079672813416"><ele></ele><time>2013-9-9T10:25:17Z</time></trkpt>
<trkpt lat="46.563821900635958" lon="7.05707548186183"><ele></ele><time>2013-9-9T10:25:20Z</time></trkpt>
<trkpt lat="46.563841765746474" lon="7.057080091908574"><ele></ele><time>2013-9-9T10:25:23Z</time></trkpt>
<trkpt lat="46.563854506239295" lon="7.057078834623098"><ele></ele><time>2013-9-9T10:25:26Z</time></trkpt>
<trkpt lat="46.56386942602694" lon="7.057074643671513"><ele></ele><time>2013-9-9T10:25:29Z</time></trkpt>
<trkpt lat="46.563874622806907" lon="7.057072715833783"><ele></ele><time>2013-9-9T10:25:32Z</time></trkpt>
<trkpt lat="46.563899349421263" lon="7.057069027796388"><ele></ele><time>2013-9-9T10:25:35Z</time></trkpt>
<trkpt lat="46.564017366617918" lon="7.057110266759992"><ele></ele><time>2013-9-9T10:25:38Z</time></trkpt>
<trkpt lat="46.564032705500722" lon="7.057097526267171"><ele></ele><time>2013-9-9T10:25:41Z</time></trkpt>
<trkpt lat="46.564057432115078" lon="7.057085623964667"><ele></ele><time>2013-9-9T10:25:44Z</time></trkpt>
<trkpt lat="46.56407855451107" lon="7.057081013917923"><ele></ele><time>2013-9-9T10:25:47Z</time></trkpt>
<trkpt lat="46.564093641936779" lon="7.05707548186183"><ele></ele><time>2013-9-9T10:25:50Z</time></trkpt>
<trkpt lat="46.564116273075342" lon="7.057082103565335"><ele></ele><time>2013-9-9T10:25:53Z</time></trkpt>
<trkpt lat="46.56413328833878" lon="7.057091575115919"><ele></ele><time>2013-9-9T10:25:56Z</time></trkpt>
<trkpt lat="46.56418995000422" lon="7.057179333642125"><ele></ele><time>2013-9-9T10:25:59Z</time></trkpt>
<trkpt lat="46.564241079613566" lon="7.057216297835112"><ele></ele><time>2013-9-9T10:26:2Z</time></trkpt>
<trkpt lat="46.564254574477673" lon="7.057236162945628"><ele></ele><time>2013-9-9T10:26:5Z</time></trkpt>
<trkpt lat="46.564272763207555" lon="7.057245802134275"><ele></ele><time>2013-9-9T10:26:8Z</time></trkpt>
<trkpt lat="46.564291622489691" lon="7.057255441322923"><ele></ele><time>2013-9-9T10:26:11Z</time></trkpt>
<trkpt lat="46.564410980790854" lon="7.057259548455477"><ele></ele><time>2013-9-9T10:26:14Z</time></trkpt>
<trkpt lat="46.564483484253287" lon="7.057208167389035"><ele></ele><time>2013-9-9T10:26:17Z</time></trkpt>
<trkpt lat="46.564505193382502" lon="7.057194253429771"><ele></ele><time>2013-9-9T10:26:20Z</time></trkpt>
<trkpt lat="46.564525561407208" lon="7.057185871526599"><ele></ele><time>2013-9-9T10:26:23Z</time></trkpt>
<trkpt lat="46.564546013250947" lon="7.057173382490873"><ele></ele><time>2013-9-9T10:26:26Z</time></trkpt>
<trkpt lat="46.564570907503366" lon="7.057164162397385"><ele></ele><time>2013-9-9T10:26:29Z</time></trkpt>
<trkpt lat="46.56465120613575" lon="7.057110099121928"><ele></ele><time>2013-9-9T10:26:32Z</time></trkpt>
<trkpt lat="46.564665958285332" lon="7.057103477418423"><ele></ele><time>2013-9-9T10:26:35Z</time></trkpt>
<trkpt lat="46.564684482291341" lon="7.057093922048807"><ele></ele><time>2013-9-9T10:26:38Z</time></trkpt>
<trkpt lat="46.564702084288001" lon="7.057078583166003"><ele></ele><time>2013-9-9T10:26:41Z</time></trkpt>
<trkpt lat="46.564719183370471" lon="7.057068776339293"><ele></ele><time>2013-9-9T10:26:44Z</time></trkpt>
<trkpt lat="46.56476117670536" lon="7.057040110230446"><ele></ele><time>2013-9-9T10:26:47Z</time></trkpt>
<trkpt lat="46.564810378476977" lon="7.057005828246474"><ele></ele><time>2013-9-9T10:26:50Z</time></trkpt>
<trkpt lat="46.56482420861721" lon="7.0569958537817"><ele></ele><time>2013-9-9T10:26:53Z</time></trkpt>
<trkpt lat="46.56483736820519" lon="7.056979844346643"><ele></ele><time>2013-9-9T10:26:56Z</time></trkpt>
<trkpt lat="46.56485304236412" lon="7.056956375017762"><ele></ele><time>2013-9-9T10:26:59Z</time></trkpt>
<trkpt lat="46.564866956323385" lon="7.056940952315927"><ele></ele><time>2013-9-9T10:27:2Z</time></trkpt>
<trkpt lat="46.564949098974466" lon="7.056832825765014"><ele></ele><time>2013-9-9T10:27:5Z</time></trkpt>
<trkpt lat="46.564962845295668" lon="7.056815726682544"><ele></ele><time>2013-9-9T10:27:8Z</time></trkpt>
<trkpt lat="46.564978435635567" lon="7.056802567094564"><ele></ele><time>2013-9-9T10:27:11Z</time></trkpt>
<trkpt lat="46.564992181956768" lon="7.056784462183714"><ele></ele><time>2013-9-9T10:27:14Z</time></trkpt>
<trkpt lat="46.565005173906684" lon="7.056766441091895"><ele></ele><time>2013-9-9T10:27:17Z</time></trkpt>
<trkpt lat="46.56507826410234" lon="7.056696116924286"><ele></ele><time>2013-9-9T10:27:20Z</time></trkpt>
<trkpt lat="46.56509293243289" lon="7.056683544069529"><ele></ele><time>2013-9-9T10:27:23Z</time></trkpt>
<trkpt lat="46.565106511116028" lon="7.056673066690564"><ele></ele><time>2013-9-9T10:27:26Z</time></trkpt>
<trkpt lat="46.565119754523039" lon="7.056659320369363"><ele></ele><time>2013-9-9T10:27:29Z</time></trkpt>
<trkpt lat="46.565130315721035" lon="7.056646076962352"><ele></ele><time>2013-9-9T10:27:32Z</time></trkpt>
<trkpt lat="46.565195443108678" lon="7.056590504944325"><ele></ele><time>2013-9-9T10:27:35Z</time></trkpt>
<trkpt lat="46.565221846103668" lon="7.056569298729301"><ele></ele><time>2013-9-9T10:27:38Z</time></trkpt>
<trkpt lat="46.565236430615187" lon="7.056557983160019"><ele></ele><time>2013-9-9T10:27:41Z</time></trkpt>
<trkpt lat="46.565249841660261" lon="7.056545997038484"><ele></ele><time>2013-9-9T10:27:44Z</time></trkpt>
<trkpt lat="46.565263085067272" lon="7.05653459765017"><ele></ele><time>2013-9-9T10:27:47Z</time></trkpt>
<trkpt lat="46.565277418121696" lon="7.0565174985677"><ele></ele><time>2013-9-9T10:27:50Z</time></trkpt>
<trkpt lat="46.565315052866936" lon="7.056466536596417"><ele></ele><time>2013-9-9T10:27:53Z</time></trkpt>
<trkpt lat="46.565346485003829" lon="7.05642563290894"><ele></ele><time>2013-9-9T10:27:56Z</time></trkpt>
<trkpt lat="46.56535679474473" lon="7.056409372016788"><ele></ele><time>2013-9-9T10:27:59Z</time></trkpt>
<trkpt lat="46.565367942675948" lon="7.056397134438157"><ele></ele><time>2013-9-9T10:28:2Z</time></trkpt>
<trkpt lat="46.565380180254579" lon="7.056383388116956"><ele></ele><time>2013-9-9T10:28:5Z</time></trkpt>
<trkpt lat="46.565387640148401" lon="7.056371821090579"><ele></ele><time>2013-9-9T10:28:8Z</time></trkpt>
<trkpt lat="46.565401637926698" lon="7.056357320398092"><ele></ele><time>2013-9-9T10:28:11Z</time></trkpt>
<trkpt lat="46.565444972366095" lon="7.056305268779397"><ele></ele><time>2013-9-9T10:28:14Z</time></trkpt>
<trkpt lat="46.565457545220852" lon="7.056290516629815"><ele></ele><time>2013-9-9T10:28:17Z</time></trkpt>
<trkpt lat="46.565470369532704" lon="7.056277776136994"><ele></ele><time>2013-9-9T10:28:20Z</time></trkpt>
<trkpt lat="46.565482942387462" lon="7.056265706196427"><ele></ele><time>2013-9-9T10:28:23Z</time></trkpt>
<trkpt lat="46.565496604889631" lon="7.056255647912622"><ele></ele><time>2013-9-9T10:28:26Z</time></trkpt>
<trkpt lat="46.565591907128692" lon="7.056181216612458"><ele></ele><time>2013-9-9T10:28:29Z</time></trkpt>
<trkpt lat="46.565605150535703" lon="7.056172415614128"><ele></ele><time>2013-9-9T10:28:32Z</time></trkpt>
<trkpt lat="46.565615041181445" lon="7.056159423664212"><ele></ele><time>2013-9-9T10:28:35Z</time></trkpt>
<trkpt lat="46.565630296245217" lon="7.056143330410123"><ele></ele><time>2013-9-9T10:28:38Z</time></trkpt>
<trkpt lat="46.565642785280943" lon="7.056135702878237"><ele></ele><time>2013-9-9T10:28:41Z</time></trkpt>
<trkpt lat="46.565685700625181" lon="7.056098990142345"><ele></ele><time>2013-9-9T10:28:44Z</time></trkpt>
<trkpt lat="46.565720988437533" lon="7.05606353469193"><ele></ele><time>2013-9-9T10:28:47Z</time></trkpt>
<trkpt lat="46.565729035064578" lon="7.056050123646855"><ele></ele><time>2013-9-9T10:28:50Z</time></trkpt>
<trkpt lat="46.565741943195462" lon="7.056035120040178"><ele></ele><time>2013-9-9T10:28:53Z</time></trkpt>
<trkpt lat="46.565754851326346" lon="7.056025313213468"><ele></ele><time>2013-9-9T10:28:56Z</time></trkpt>
<trkpt lat="46.565764239057899" lon="7.056006118655205"><ele></ele><time>2013-9-9T10:28:59Z</time></trkpt>
<trkpt lat="46.565781589597464" lon="7.056000670418143"><ele></ele><time>2013-9-9T10:29:2Z</time></trkpt>
<trkpt lat="46.565820900723338" lon="7.055941075086594"><ele></ele><time>2013-9-9T10:29:5Z</time></trkpt>
<trkpt lat="46.56585325486958" lon="7.055908553302288"><ele></ele><time>2013-9-9T10:29:8Z</time></trkpt>
<trkpt lat="46.565869096666574" lon="7.055901261046529"><ele></ele><time>2013-9-9T10:29:11Z</time></trkpt>
<trkpt lat="46.565881418064237" lon="7.055890532210469"><ele></ele><time>2013-9-9T10:29:14Z</time></trkpt>
<trkpt lat="46.565881250426173" lon="7.055869158357382"><ele></ele><time>2013-9-9T10:29:17Z</time></trkpt>
<trkpt lat="46.565886028110981" lon="7.055856166407466"><ele></ele><time>2013-9-9T10:29:20Z</time></trkpt>
<trkpt lat="46.565893488004804" lon="7.055800091475248"><ele></ele><time>2013-9-9T10:29:23Z</time></trkpt>
<trkpt lat="46.565859289839864" lon="7.055765725672245"><ele></ele><time>2013-9-9T10:29:26Z</time></trkpt>
<trkpt lat="46.565766921266913" lon="7.055732533335686"><ele></ele><time>2013-9-9T10:29:29Z</time></trkpt>
<trkpt lat="46.565737249329686" lon="7.055741921067238"><ele></ele><time>2013-9-9T10:29:32Z</time></trkpt>
<trkpt lat="46.565634571015835" lon="7.055753236636519"><ele></ele><time>2013-9-9T10:29:35Z</time></trkpt>
<trkpt lat="46.56562065705657" lon="7.05575910396874"><ele></ele><time>2013-9-9T10:29:38Z</time></trkpt>
<trkpt lat="46.565605234354734" lon="7.055765641853213"><ele></ele><time>2013-9-9T10:29:41Z</time></trkpt>
<trkpt lat="46.565590901300311" lon="7.055765725672245"><ele></ele><time>2013-9-9T10:29:44Z</time></trkpt>
<trkpt lat="46.56557472422719" lon="7.055767821148038"><ele></ele><time>2013-9-9T10:29:47Z</time></trkpt>
<trkpt lat="46.565501801669598" lon="7.055769078433514"><ele></ele><time>2013-9-9T10:29:50Z</time></trkpt>
<trkpt lat="46.56546919606626" lon="7.055770754814148"><ele></ele><time>2013-9-9T10:29:53Z</time></trkpt>
<trkpt lat="46.565450755879283" lon="7.055768491700292"><ele></ele><time>2013-9-9T10:29:56Z</time></trkpt>
<trkpt lat="46.56543499790132" lon="7.055766228586435"><ele></ele><time>2013-9-9T10:29:59Z</time></trkpt>
<trkpt lat="46.565420832484961" lon="7.055766312405467"><ele></ele><time>2013-9-9T10:30:2Z</time></trkpt>
<trkpt lat="46.565406750887632" lon="7.055769078433514"><ele></ele><time>2013-9-9T10:30:5Z</time></trkpt>
<trkpt lat="46.565372971817851" lon="7.055771257728338"><ele></ele><time>2013-9-9T10:30:8Z</time></trkpt>
<trkpt lat="46.565318657085299" lon="7.055771090090275"><ele></ele><time>2013-9-9T10:30:11Z</time></trkpt>
<trkpt lat="46.565306922420859" lon="7.055765055119991"><ele></ele><time>2013-9-9T10:30:14Z</time></trkpt>
<trkpt lat="46.565293595194817" lon="7.055760361254215"><ele></ele><time>2013-9-9T10:30:17Z</time></trkpt>
<trkpt lat="46.565279932692647" lon="7.055761367082596"><ele></ele><time>2013-9-9T10:30:20Z</time></trkpt>
<trkpt lat="46.565266940742731" lon="7.055757762864232"><ele></ele><time>2013-9-9T10:30:23Z</time></trkpt>
<trkpt lat="46.565251769497991" lon="7.055758852511644"><ele></ele><time>2013-9-9T10:30:26Z</time></trkpt>
<trkpt lat="46.565172476693988" lon="7.055732114240527"><ele></ele><time>2013-9-9T10:30:29Z</time></trkpt>
<trkpt lat="46.565157808363438" lon="7.055720631033182"><ele></ele><time>2013-9-9T10:30:32Z</time></trkpt>
<trkpt lat="46.565146157518029" lon="7.055703615769744"><ele></ele><time>2013-9-9T10:30:35Z</time></trkpt>
<trkpt lat="46.565134255215526" lon="7.055685594677925"><ele></ele><time>2013-9-9T10:30:38Z</time></trkpt>
<trkpt lat="46.565127717331052" lon="7.055666651576757"><ele></ele><time>2013-9-9T10:30:41Z</time></trkpt>
<trkpt lat="46.565120760351419" lon="7.055544862523675"><ele></ele><time>2013-9-9T10:30:44Z</time></trkpt>
<trkpt lat="46.565126543864608" lon="7.055517705157399"><ele></ele><time>2013-9-9T10:30:47Z</time></trkpt>
<trkpt lat="46.565132411196828" lon="7.055494822561741"><ele></ele><time>2013-9-9T10:30:50Z</time></trkpt>
<trkpt lat="46.565141044557095" lon="7.055473029613495"><ele></ele><time>2013-9-9T10:30:53Z</time></trkpt>
<trkpt lat="46.565151857212186" lon="7.055450482293963"><ele></ele><time>2013-9-9T10:30:56Z</time></trkpt>
<trkpt lat="46.56516526825726" lon="7.055431958287954"><ele></ele><time>2013-9-9T10:30:59Z</time></trkpt>
<trkpt lat="46.565178511664271" lon="7.055417122319341"><ele></ele><time>2013-9-9T10:31:2Z</time></trkpt>
<trkpt lat="46.565292757004499" lon="7.055363226681948"><ele></ele><time>2013-9-9T10:31:5Z</time></trkpt>
<trkpt lat="46.565446062013507" lon="7.05526608042419"><ele></ele><time>2013-9-9T10:31:8Z</time></trkpt>
<trkpt lat="46.565459975972772" lon="7.055250825360417"><ele></ele><time>2013-9-9T10:31:11Z</time></trkpt>
<trkpt lat="46.565476823598146" lon="7.055236576125026"><ele></ele><time>2013-9-9T10:31:14Z</time></trkpt>
<trkpt lat="46.565491240471601" lon="7.05522459000349"><ele></ele><time>2013-9-9T10:31:17Z</time></trkpt>
<trkpt lat="46.56554002314806" lon="7.055145800113678"><ele></ele><time>2013-9-9T10:31:20Z</time></trkpt>
<trkpt lat="46.565553350374103" lon="7.055108165368438"><ele></ele><time>2013-9-9T10:31:23Z</time></trkpt>
<trkpt lat="46.565556451678276" lon="7.055085534229875"><ele></ele><time>2013-9-9T10:31:26Z</time></trkpt>
<trkpt lat="46.565558966249228" lon="7.055063657462597"><ele></ele><time>2013-9-9T10:31:29Z</time></trkpt>
<trkpt lat="46.565562151372433" lon="7.055042535066605"><ele></ele><time>2013-9-9T10:31:32Z</time></trkpt>
<trkpt lat="46.565562738105655" lon="7.055020490661264"><ele></ele><time>2013-9-9T10:31:35Z</time></trkpt>
<trkpt lat="46.565565336495638" lon="7.054993165656924"><ele></ele><time>2013-9-9T10:31:38Z</time></trkpt>
<trkpt lat="46.565557457506657" lon="7.054874897003174"><ele></ele><time>2013-9-9T10:31:41Z</time></trkpt>
<trkpt lat="46.565558044239879" lon="7.054849918931723"><ele></ele><time>2013-9-9T10:31:44Z</time></trkpt>
<trkpt lat="46.565557038411498" lon="7.05482779070735"><ele></ele><time>2013-9-9T10:31:47Z</time></trkpt>
<trkpt lat="46.565558044239879" lon="7.054802058264613"><ele></ele><time>2013-9-9T10:31:50Z</time></trkpt>
<trkpt lat="46.565557960420847" lon="7.054779008030891"><ele></ele><time>2013-9-9T10:31:53Z</time></trkpt>
<trkpt lat="46.565568018704653" lon="7.054642718285322"><ele></ele><time>2013-9-9T10:31:56Z</time></trkpt>
<trkpt lat="46.565567431971431" lon="7.054620757699013"><ele></ele><time>2013-9-9T10:31:59Z</time></trkpt>
<trkpt lat="46.56556835398078" lon="7.054597036913037"><ele></ele><time>2013-9-9T10:32:2Z</time></trkpt>
<trkpt lat="46.565570868551731" lon="7.054574908688664"><ele></ele><time>2013-9-9T10:32:5Z</time></trkpt>
<trkpt lat="46.565573718398809" lon="7.054550852626562"><ele></ele><time>2013-9-9T10:32:8Z</time></trkpt>
<trkpt lat="46.565576987341046" lon="7.054528724402189"><ele></ele><time>2013-9-9T10:32:11Z</time></trkpt>
<trkpt lat="46.565596433356404" lon="7.054426381364465"><ele></ele><time>2013-9-9T10:32:14Z</time></trkpt>
<trkpt lat="46.565600959584117" lon="7.05440316349268"><ele></ele><time>2013-9-9T10:32:17Z</time></trkpt>
<trkpt lat="46.565606156364083" lon="7.054380532354116"><ele></ele><time>2013-9-9T10:32:20Z</time></trkpt>
<trkpt lat="46.56561185605824" lon="7.054358152672648"><ele></ele><time>2013-9-9T10:32:23Z</time></trkpt>
<trkpt lat="46.565619148313999" lon="7.054335940629244"><ele></ele><time>2013-9-9T10:32:26Z</time></trkpt>
<trkpt lat="46.565625686198473" lon="7.054314147680998"><ele></ele><time>2013-9-9T10:32:29Z</time></trkpt>
<trkpt lat="46.565655944868922" lon="7.054207697510719"><ele></ele><time>2013-9-9T10:32:32Z</time></trkpt>
<trkpt lat="46.565662818029523" lon="7.054190933704376"><ele></ele><time>2013-9-9T10:32:35Z</time></trkpt>
<trkpt lat="46.565667511895299" lon="7.054172661155462"><ele></ele><time>2013-9-9T10:32:38Z</time></trkpt>
<trkpt lat="46.565670948475599" lon="7.054154137149453"><ele></ele><time>2013-9-9T10:32:41Z</time></trkpt>
<trkpt lat="46.56570129096508" lon="7.054041819646955"><ele></ele><time>2013-9-9T10:32:44Z</time></trkpt>
<trkpt lat="46.565706739202142" lon="7.054024217650294"><ele></ele><time>2013-9-9T10:32:47Z</time></trkpt>
<trkpt lat="46.565712271258235" lon="7.054004687815905"><ele></ele><time>2013-9-9T10:32:50Z</time></trkpt>
<trkpt lat="46.56571738421917" lon="7.053982559591532"><ele></ele><time>2013-9-9T10:32:53Z</time></trkpt>
<trkpt lat="46.565723838284612" lon="7.053962778300047"><ele></ele><time>2013-9-9T10:32:56Z</time></trkpt>
<trkpt lat="46.565759964287281" lon="7.053833110257983"><ele></ele><time>2013-9-9T10:32:59Z</time></trkpt>
<trkpt lat="46.565763652324677" lon="7.053809808567166"><ele></ele><time>2013-9-9T10:33:2Z</time></trkpt>
<trkpt lat="46.565767424181104" lon="7.053789189085364"><ele></ele><time>2013-9-9T10:33:5Z</time></trkpt>
<trkpt lat="46.565771279856563" lon="7.053767396137118"><ele></ele><time>2013-9-9T10:33:8Z</time></trkpt>
<trkpt lat="46.565773710608482" lon="7.05374451354146"><ele></ele><time>2013-9-9T10:33:11Z</time></trkpt>
<trkpt lat="46.565782260149717" lon="7.053651474416256"><ele></ele><time>2013-9-9T10:33:14Z</time></trkpt>
<trkpt lat="46.56578385271132" lon="7.053627334535122"><ele></ele><time>2013-9-9T10:33:17Z</time></trkpt>
<trkpt lat="46.565785612910986" lon="7.053603697568178"><ele></ele><time>2013-9-9T10:33:20Z</time></trkpt>
<trkpt lat="46.565785361453891" lon="7.053581234067679"><ele></ele><time>2013-9-9T10:33:23Z</time></trkpt>
<trkpt lat="46.565782008692622" lon="7.053559860214591"><ele></ele><time>2013-9-9T10:33:26Z</time></trkpt>
<trkpt lat="46.565779410302639" lon="7.053537731990218"><ele></ele><time>2013-9-9T10:33:29Z</time></trkpt>
<trkpt lat="46.565773962065578" lon="7.053498420864344"><ele></ele><time>2013-9-9T10:33:32Z</time></trkpt>
<trkpt lat="46.565768681466579" lon="7.053404627367854"><ele></ele><time>2013-9-9T10:33:35Z</time></trkpt>
<trkpt lat="46.56576625071466" lon="7.053380906581879"><ele></ele><time>2013-9-9T10:33:38Z</time></trkpt>
<trkpt lat="46.565763652324677" lon="7.053358359262347"><ele></ele><time>2013-9-9T10:33:41Z</time></trkpt>
<trkpt lat="46.565760467201471" lon="7.053339667618275"><ele></ele><time>2013-9-9T10:33:44Z</time></trkpt>
<trkpt lat="46.565758204087615" lon="7.053318712860346"><ele></ele><time>2013-9-9T10:33:47Z</time></trkpt>
<trkpt lat="46.565716797485948" lon="7.053195666521788"><ele></ele><time>2013-9-9T10:33:50Z</time></trkpt>
<trkpt lat="46.565709672868252" lon="7.0531742926687"><ele></ele><time>2013-9-9T10:33:53Z</time></trkpt>
<trkpt lat="46.565703302621841" lon="7.05315375700593"><ele></ele><time>2013-9-9T10:33:56Z</time></trkpt>
<trkpt lat="46.565698776394129" lon="7.053132383152843"><ele></ele><time>2013-9-9T10:33:59Z</time></trkpt>
<trkpt lat="46.565695004537702" lon="7.053111763671041"><ele></ele><time>2013-9-9T10:34:2Z</time></trkpt>
<trkpt lat="46.56569148413837" lon="7.053088881075382"><ele></ele><time>2013-9-9T10:34:5Z</time></trkpt>
<trkpt lat="46.565682096406817" lon="7.053048731759191"><ele></ele><time>2013-9-9T10:34:8Z</time></trkpt>
<trkpt lat="46.565682347863913" lon="7.052988801151514"><ele></ele><time>2013-9-9T10:34:11Z</time></trkpt>
<trkpt lat="46.565682934597135" lon="7.052967008203268"><ele></ele><time>2013-9-9T10:34:14Z</time></trkpt>
<trkpt lat="46.565684024244547" lon="7.052943538874388"><ele></ele><time>2013-9-9T10:34:17Z</time></trkpt>
<trkpt lat="46.565684778615832" lon="7.052920069545507"><ele></ele><time>2013-9-9T10:34:20Z</time></trkpt>
<trkpt lat="46.565685030072927" lon="7.052896348759532"><ele></ele><time>2013-9-9T10:34:23Z</time></trkpt>
<trkpt lat="46.565684610977769" lon="7.052874974906445"><ele></ele><time>2013-9-9T10:34:26Z</time></trkpt>
<trkpt lat="46.565670780837536" lon="7.052766680717468"><ele></ele><time>2013-9-9T10:34:29Z</time></trkpt>
<trkpt lat="46.565668685361743" lon="7.052746061235666"><ele></ele><time>2013-9-9T10:34:32Z</time></trkpt>
<trkpt lat="46.565668350085616" lon="7.052720580250025"><ele></ele><time>2013-9-9T10:34:35Z</time></trkpt>
<trkpt lat="46.565664745867252" lon="7.052696608006954"><ele></ele><time>2013-9-9T10:34:38Z</time></trkpt>
<trkpt lat="46.565658794716001" lon="7.052673725411296"><ele></ele><time>2013-9-9T10:34:41Z</time></trkpt>
<trkpt lat="46.565657202154398" lon="7.052653525024653"><ele></ele><time>2013-9-9T10:34:44Z</time></trkpt>
<trkpt lat="46.565670194104314" lon="7.052587727084756"><ele></ele><time>2013-9-9T10:34:47Z</time></trkpt>
<trkpt lat="46.565719060599804" lon="7.052493430674076"><ele></ele><time>2013-9-9T10:34:50Z</time></trkpt>
<trkpt lat="46.565747139975429" lon="7.05237046815455"><ele></ele><time>2013-9-9T10:34:53Z</time></trkpt>
<trkpt lat="46.56575258821249" lon="7.052347753196955"><ele></ele><time>2013-9-9T10:34:56Z</time></trkpt>
<trkpt lat="46.565780332311988" lon="7.052200147882104"><ele></ele><time>2013-9-9T10:34:59Z</time></trkpt>
<trkpt lat="46.565801035612822" lon="7.052009124308825"><ele></ele><time>2013-9-9T10:35:2Z</time></trkpt>
<trkpt lat="46.565800532698631" lon="7.051983559504151"><ele></ele><time>2013-9-9T10:35:5Z</time></trkpt>
<trkpt lat="46.565801287069917" lon="7.051958832889795"><ele></ele><time>2013-9-9T10:35:8Z</time></trkpt>
<trkpt lat="46.565801873803139" lon="7.051933351904154"><ele></ele><time>2013-9-9T10:35:11Z</time></trkpt>
<trkpt lat="46.565803131088614" lon="7.05190921202302"><ele></ele><time>2013-9-9T10:35:14Z</time></trkpt>
<trkpt lat="46.565803717821836" lon="7.051844587549567"><ele></ele><time>2013-9-9T10:35:17Z</time></trkpt>
<trkpt lat="46.565804136916995" lon="7.051821872591972"><ele></ele><time>2013-9-9T10:35:20Z</time></trkpt>
<trkpt lat="46.565804220736027" lon="7.051802007481456"><ele></ele><time>2013-9-9T10:35:23Z</time></trkpt>
<trkpt lat="46.565802711993456" lon="7.051783232018352"><ele></ele><time>2013-9-9T10:35:26Z</time></trkpt>
<trkpt lat="46.565802209079266" lon="7.051763199269772"><ele></ele><time>2013-9-9T10:35:29Z</time></trkpt>
<trkpt lat="46.56580095179379" lon="7.051705196499825"><ele></ele><time>2013-9-9T10:35:32Z</time></trkpt>
<trkpt lat="46.565804053097963" lon="7.05168885178864"><ele></ele><time>2013-9-9T10:35:35Z</time></trkpt>
<trkpt lat="46.565806567668915" lon="7.051669238135219"><ele></ele><time>2013-9-9T10:35:38Z</time></trkpt>
<trkpt lat="46.565808998420835" lon="7.051651468500495"><ele></ele><time>2013-9-9T10:35:41Z</time></trkpt>
<trkpt lat="46.565810171887279" lon="7.051631435751915"><ele></ele><time>2013-9-9T10:35:44Z</time></trkpt>
<trkpt lat="46.565815201029181" lon="7.05157058313489"><ele></ele><time>2013-9-9T10:35:47Z</time></trkpt>
<trkpt lat="46.565816793590784" lon="7.051548706367612"><ele></ele><time>2013-9-9T10:35:50Z</time></trkpt>
<trkpt lat="46.565818889066577" lon="7.051527081057429"><ele></ele><time>2013-9-9T10:35:53Z</time></trkpt>
<trkpt lat="46.565819140523672" lon="7.051507970318198"><ele></ele><time>2013-9-9T10:35:56Z</time></trkpt>
<trkpt lat="46.565821403637528" lon="7.051470587030053"><ele></ele><time>2013-9-9T10:35:59Z</time></trkpt>
<trkpt lat="46.565824002027512" lon="7.051451727747917"><ele></ele><time>2013-9-9T10:36:2Z</time></trkpt>
<trkpt lat="46.565827103331685" lon="7.051430940628052"><ele></ele><time>2013-9-9T10:36:5Z</time></trkpt>
<trkpt lat="46.565830707550049" lon="7.051409985870123"><ele></ele><time>2013-9-9T10:36:8Z</time></trkpt>
<trkpt lat="46.565833725035191" lon="7.051389031112194"><ele></ele><time>2013-9-9T10:36:11Z</time></trkpt>
<trkpt lat="46.565837413072586" lon="7.051370171830058"><ele></ele><time>2013-9-9T10:36:14Z</time></trkpt>
<trkpt lat="46.565840765833855" lon="7.05134971998632"><ele></ele><time>2013-9-9T10:36:17Z</time></trkpt>
<trkpt lat="46.565847136080265" lon="7.051329016685486"><ele></ele><time>2013-9-9T10:36:20Z</time></trkpt>
<trkpt lat="46.565854009240866" lon="7.051310744136572"><ele></ele><time>2013-9-9T10:36:23Z</time></trkpt>
<trkpt lat="46.565858954563737" lon="7.051292387768626"><ele></ele><time>2013-9-9T10:36:26Z</time></trkpt>
<trkpt lat="46.565862726420164" lon="7.051275121048093"><ele></ele><time>2013-9-9T10:36:29Z</time></trkpt>
<trkpt lat="46.565868677571416" lon="7.051255591213703"><ele></ele><time>2013-9-9T10:36:32Z</time></trkpt>
<trkpt lat="46.565874125808477" lon="7.051228350028396"><ele></ele><time>2013-9-9T10:36:35Z</time></trkpt>
<trkpt lat="46.565878987312317" lon="7.051197839900851"><ele></ele><time>2013-9-9T10:36:38Z</time></trkpt>
<trkpt lat="46.565881166607141" lon="7.051171101629734"><ele></ele><time>2013-9-9T10:36:41Z</time></trkpt>
<trkpt lat="46.565880663692951" lon="7.051150733605027"><ele></ele><time>2013-9-9T10:36:44Z</time></trkpt>
<trkpt lat="46.565879909321666" lon="7.051134388893843"><ele></ele><time>2013-9-9T10:36:47Z</time></trkpt>
<trkpt lat="46.565876724198461" lon="7.051116703078151"><ele></ele><time>2013-9-9T10:36:50Z</time></trkpt>
<trkpt lat="46.565876472741365" lon="7.051097927615047"><ele></ele><time>2013-9-9T10:36:53Z</time></trkpt>
<trkpt lat="46.565880160778761" lon="7.051073452457786"><ele></ele><time>2013-9-9T10:36:56Z</time></trkpt>
<trkpt lat="46.565882759168744" lon="7.051048055291176"><ele></ele><time>2013-9-9T10:36:59Z</time></trkpt>
<trkpt lat="46.565883262082934" lon="7.051027351990342"><ele></ele><time>2013-9-9T10:37:2Z</time></trkpt>
<trkpt lat="46.565885357558727" lon="7.051006983965635"><ele></ele><time>2013-9-9T10:37:5Z</time></trkpt>
<trkpt lat="46.565888961777091" lon="7.050984939560294"><ele></ele><time>2013-9-9T10:37:8Z</time></trkpt>
<trkpt lat="46.565892146900296" lon="7.050962140783668"><ele></ele><time>2013-9-9T10:37:11Z</time></trkpt>
<trkpt lat="46.565896002575755" lon="7.050938671454787"><ele></ele><time>2013-9-9T10:37:14Z</time></trkpt>
<trkpt lat="46.565895918756723" lon="7.050917465239763"><ele></ele><time>2013-9-9T10:37:17Z</time></trkpt>
<trkpt lat="46.565892985090613" lon="7.050899360328913"><ele></ele><time>2013-9-9T10:37:20Z</time></trkpt>
<trkpt lat="46.565888123586774" lon="7.050881674513221"><ele></ele><time>2013-9-9T10:37:23Z</time></trkpt>
<trkpt lat="46.565881753340364" lon="7.050860384479165"><ele></ele><time>2013-9-9T10:37:26Z</time></trkpt>
<trkpt lat="46.565875047817826" lon="7.05084890127182"><ele></ele><time>2013-9-9T10:37:29Z</time></trkpt>
<trkpt lat="46.565871108323336" lon="7.050839681178331"><ele></ele><time>2013-9-9T10:37:32Z</time></trkpt>
<trkpt lat="46.565870940685272" lon="7.050827527418733"><ele></ele><time>2013-9-9T10:37:35Z</time></trkpt>
<trkpt lat="46.56587228178978" lon="7.050804393365979"><ele></ele><time>2013-9-9T10:37:38Z</time></trkpt>
<trkpt lat="46.565872868523002" lon="7.050748318433762"><ele></ele><time>2013-9-9T10:37:41Z</time></trkpt>
<trkpt lat="46.565872617065907" lon="7.050716551020742"><ele></ele><time>2013-9-9T10:37:44Z</time></trkpt>
<trkpt lat="46.565872449427843" lon="7.050681095570326"><ele></ele><time>2013-9-9T10:37:47Z</time></trkpt>
<trkpt lat="46.565871946513653" lon="7.05064513720572"><ele></ele><time>2013-9-9T10:37:50Z</time></trkpt>
<trkpt lat="46.565871359780431" lon="7.050612950697541"><ele></ele><time>2013-9-9T10:37:53Z</time></trkpt>
<trkpt lat="46.565870437771082" lon="7.050582943484187"><ele></ele><time>2013-9-9T10:37:56Z</time></trkpt>
<trkpt lat="46.565869180485606" lon="7.050551511347294"><ele></ele><time>2013-9-9T10:37:59Z</time></trkpt>
<trkpt lat="46.565866665914655" lon="7.050516810268164"><ele></ele><time>2013-9-9T10:38:2Z</time></trkpt>
<trkpt lat="46.565865157172084" lon="7.050476325675845"><ele></ele><time>2013-9-9T10:38:5Z</time></trkpt>
<trkpt lat="46.565863816067576" lon="7.050435170531273"><ele></ele><time>2013-9-9T10:38:8Z</time></trkpt>
<trkpt lat="46.565864570438862" lon="7.050396949052811"><ele></ele><time>2013-9-9T10:38:11Z</time></trkpt>
<trkpt lat="46.565864821895957" lon="7.050355961546302"><ele></ele><time>2013-9-9T10:38:14Z</time></trkpt>
<trkpt lat="46.56586398370564" lon="7.050317572429776"><ele></ele><time>2013-9-9T10:38:17Z</time></trkpt>
<trkpt lat="46.565863732248545" lon="7.050286140292883"><ele></ele><time>2013-9-9T10:38:20Z</time></trkpt>
<trkpt lat="46.565861888229847" lon="7.050255546346307"><ele></ele><time>2013-9-9T10:38:23Z</time></trkpt>
<trkpt lat="46.56586054712534" lon="7.050226712599397"><ele></ele><time>2013-9-9T10:38:26Z</time></trkpt>
<trkpt lat="46.565860295668244" lon="7.050200141966343"><ele></ele><time>2013-9-9T10:38:29Z</time></trkpt>
<trkpt lat="46.565858954563737" lon="7.050174828618765"><ele></ele><time>2013-9-9T10:38:32Z</time></trkpt>
<trkpt lat="46.565858367830515" lon="7.050150185823441"><ele></ele><time>2013-9-9T10:38:35Z</time></trkpt>
<trkpt lat="46.565857529640198" lon="7.050123447552323"><ele></ele><time>2013-9-9T10:38:38Z</time></trkpt>
<trkpt lat="46.565858367830515" lon="7.050094697624445"><ele></ele><time>2013-9-9T10:38:41Z</time></trkpt>
<trkpt lat="46.565858535468578" lon="7.050068294629455"><ele></ele><time>2013-9-9T10:38:44Z</time></trkpt>
<trkpt lat="46.565859038382769" lon="7.050040047615767"><ele></ele><time>2013-9-9T10:38:47Z</time></trkpt>
<trkpt lat="46.565860044211149" lon="7.050008364021778"><ele></ele><time>2013-9-9T10:38:50Z</time></trkpt>
<trkpt lat="46.565860211849213" lon="7.049979949370027"><ele></ele><time>2013-9-9T10:38:53Z</time></trkpt>
<trkpt lat="46.565859960392118" lon="7.049953881651163"><ele></ele><time>2013-9-9T10:38:56Z</time></trkpt>
<trkpt lat="46.565862223505974" lon="7.049928652122617"><ele></ele><time>2013-9-9T10:38:59Z</time></trkpt>
<trkpt lat="46.56586348079145" lon="7.049898644909263"><ele></ele><time>2013-9-9T10:39:2Z</time></trkpt>
<trkpt lat="46.565864318981767" lon="7.049869224429131"><ele></ele><time>2013-9-9T10:39:5Z</time></trkpt>
<trkpt lat="46.565863229334354" lon="7.049840306863189"><ele></ele><time>2013-9-9T10:39:8Z</time></trkpt>
<trkpt lat="46.565863061696291" lon="7.049812395125628"><ele></ele><time>2013-9-9T10:39:11Z</time></trkpt>
<trkpt lat="46.565862810239196" lon="7.049782974645495"><ele></ele><time>2013-9-9T10:39:14Z</time></trkpt>
<trkpt lat="46.565860714763403" lon="7.049755062907934"><ele></ele><time>2013-9-9T10:39:17Z</time></trkpt>
<trkpt lat="46.56586054712534" lon="7.049730001017451"><ele></ele><time>2013-9-9T10:39:20Z</time></trkpt>
<trkpt lat="46.565857613459229" lon="7.049706866964698"><ele></ele><time>2013-9-9T10:39:23Z</time></trkpt>
<trkpt lat="46.565851997584105" lon="7.049684403464198"><ele></ele><time>2013-9-9T10:39:26Z</time></trkpt>
<trkpt lat="46.565847052261233" lon="7.049665628001094"><ele></ele><time>2013-9-9T10:39:29Z</time></trkpt>
<trkpt lat="46.56584344804287" lon="7.049657749012113"><ele></ele><time>2013-9-9T10:39:32Z</time></trkpt>
<trkpt lat="46.565841436386108" lon="7.04965565353632"><ele></ele><time>2013-9-9T10:39:35Z</time></trkpt>
<trkpt lat="46.565815787762403" lon="7.049558842554689"><ele></ele><time>2013-9-9T10:39:38Z</time></trkpt>
<trkpt lat="46.565790977329016" lon="7.049515005201101"><ele></ele><time>2013-9-9T10:39:41Z</time></trkpt>
<trkpt lat="46.565715791657567" lon="7.049428001046181"><ele></ele><time>2013-9-9T10:39:44Z</time></trkpt>
<trkpt lat="46.565660890191793" lon="7.049346277490258"><ele></ele><time>2013-9-9T10:39:47Z</time></trkpt>
<trkpt lat="46.565648820251226" lon="7.049326747655869"><ele></ele><time>2013-9-9T10:39:50Z</time></trkpt>
<trkpt lat="46.565632894635201" lon="7.049305960536003"><ele></ele><time>2013-9-9T10:39:53Z</time></trkpt>
<trkpt lat="46.565613364800811" lon="7.049285173416138"><ele></ele><time>2013-9-9T10:39:56Z</time></trkpt>
<trkpt lat="46.56559475697577" lon="7.049269331619144"><ele></ele><time>2013-9-9T10:39:59Z</time></trkpt>
<trkpt lat="46.56555762514472" lon="7.049247287213802"><ele></ele><time>2013-9-9T10:40:2Z</time></trkpt>
<trkpt lat="46.565449917688966" lon="7.049159780144692"><ele></ele><time>2013-9-9T10:40:5Z</time></trkpt>
<trkpt lat="46.565334079787135" lon="7.049094066023827"><ele></ele><time>2013-9-9T10:40:8Z</time></trkpt>
<trkpt lat="46.565309353172779" lon="7.049091132357717"><ele></ele><time>2013-9-9T10:40:11Z</time></trkpt>
<trkpt lat="46.56528546474874" lon="7.049085348844528"><ele></ele><time>2013-9-9T10:40:14Z</time></trkpt>
<trkpt lat="46.565259313210845" lon="7.049079313874245"><ele></ele><time>2013-9-9T10:40:17Z</time></trkpt>
<trkpt lat="46.565231988206506" lon="7.0490747038275"><ele></ele><time>2013-9-9T10:40:20Z</time></trkpt>
<trkpt lat="46.565120089799166" lon="7.049052743241191"><ele></ele><time>2013-9-9T10:40:23Z</time></trkpt>
<trkpt lat="46.564945997670293" lon="7.048986190930009"><ele></ele><time>2013-9-9T10:40:26Z</time></trkpt>
<trkpt lat="46.564771989360452" lon="7.048883009701967"><ele></ele><time>2013-9-9T10:40:29Z</time></trkpt>
<trkpt lat="46.564599154517055" lon="7.048793574795127"><ele></ele><time>2013-9-9T10:40:32Z</time></trkpt>
<trkpt lat="46.564563196152449" lon="7.048786114901304"><ele></ele><time>2013-9-9T10:40:35Z</time></trkpt>
<trkpt lat="46.56453050673008" lon="7.048780499026179"><ele></ele><time>2013-9-9T10:40:38Z</time></trkpt>
<trkpt lat="46.564498655498028" lon="7.048773374408484"><ele></ele><time>2013-9-9T10:40:41Z</time></trkpt>
<trkpt lat="46.564474012702703" lon="7.048766920343041"><ele></ele><time>2013-9-9T10:40:44Z</time></trkpt>
<trkpt lat="46.564450711011887" lon="7.048763483762741"><ele></ele><time>2013-9-9T10:40:47Z</time></trkpt>
<trkpt lat="46.564177963882685" lon="7.0487155392766"><ele></ele><time>2013-9-9T10:40:50Z</time></trkpt>
<trkpt lat="46.564142089337111" lon="7.04870916903019"><ele></ele><time>2013-9-9T10:40:53Z</time></trkpt>
<trkpt lat="46.564120128750801" lon="7.048702212050557"><ele></ele><time>2013-9-9T10:40:56Z</time></trkpt>
<trkpt lat="46.564101856201887" lon="7.048695422708988"><ele></ele><time>2013-9-9T10:40:59Z</time></trkpt>
<trkpt lat="46.564079895615578" lon="7.048689220100641"><ele></ele><time>2013-9-9T10:41:2Z</time></trkpt>
<trkpt lat="46.564048798754811" lon="7.048681257292628"><ele></ele><time>2013-9-9T10:41:5Z</time></trkpt>
<trkpt lat="46.563969841226935" lon="7.048620069399476"><ele></ele><time>2013-9-9T10:41:8Z</time></trkpt>
<trkpt lat="46.563949640840292" lon="7.048565754666925"><ele></ele><time>2013-9-9T10:41:11Z</time></trkpt>
<trkpt lat="46.563885267823935" lon="7.048408929258585"><ele></ele><time>2013-9-9T10:41:14Z</time></trkpt>
<trkpt lat="46.563877891749144" lon="7.048377748578787"><ele></ele><time>2013-9-9T10:41:17Z</time></trkpt>
<trkpt lat="46.563889626413584" lon="7.04827138222754"><ele></ele><time>2013-9-9T10:41:20Z</time></trkpt>
<trkpt lat="46.563928602263331" lon="7.048118663951755"><ele></ele><time>2013-9-9T10:41:23Z</time></trkpt>
<trkpt lat="46.563930949196219" lon="7.048092931509018"><ele></ele><time>2013-9-9T10:41:26Z</time></trkpt>
<trkpt lat="46.563933044672012" lon="7.048060912638903"><ele></ele><time>2013-9-9T10:41:29Z</time></trkpt>
<trkpt lat="46.563933044672012" lon="7.048024283722043"><ele></ele><time>2013-9-9T10:41:32Z</time></trkpt>
<trkpt lat="46.563931033015251" lon="7.047978434711695"><ele></ele><time>2013-9-9T10:41:35Z</time></trkpt>
<trkpt lat="46.563927680253983" lon="7.047931496053934"><ele></ele><time>2013-9-9T10:41:38Z</time></trkpt>
<trkpt lat="46.563892140984535" lon="7.047632094472647"><ele></ele><time>2013-9-9T10:41:41Z</time></trkpt>
<trkpt lat="46.563892979174852" lon="7.047427073121071"><ele></ele><time>2013-9-9T10:41:44Z</time></trkpt>
<trkpt lat="46.563898427411914" lon="7.047392707318068"><ele></ele><time>2013-9-9T10:41:47Z</time></trkpt>
<trkpt lat="46.563903456553817" lon="7.047356078401208"><ele></ele><time>2013-9-9T10:41:50Z</time></trkpt>
<trkpt lat="46.563907312229276" lon="7.047323221340776"><ele></ele><time>2013-9-9T10:41:53Z</time></trkpt>
<trkpt lat="46.5639094915241" lon="7.047292040660977"><ele></ele><time>2013-9-9T10:41:56Z</time></trkpt>
<trkpt lat="46.563925920054317" lon="7.047146279364824"><ele></ele><time>2013-9-9T10:41:59Z</time></trkpt>
<trkpt lat="46.563933296129107" lon="7.047046115621924"><ele></ele><time>2013-9-9T10:42:2Z</time></trkpt>
<trkpt lat="46.563934804871678" lon="7.047017617151141"><ele></ele><time>2013-9-9T10:42:5Z</time></trkpt>
<trkpt lat="46.563932877033949" lon="7.047001859173179"><ele></ele><time>2013-9-9T10:42:8Z</time></trkpt>
<trkpt lat="46.563931200653315" lon="7.046999344602227"><ele></ele><time>2013-9-9T10:42:11Z</time></trkpt>
<trkpt lat="46.563939414918423" lon="7.046969588845968"><ele></ele><time>2013-9-9T10:42:14Z</time></trkpt>
<trkpt lat="46.563946790993214" lon="7.046901695430279"><ele></ele><time>2013-9-9T10:42:17Z</time></trkpt>
<trkpt lat="46.563947377726436" lon="7.046861713752151"><ele></ele><time>2013-9-9T10:42:20Z</time></trkpt>
<trkpt lat="46.563945533707738" lon="7.046814439818263"><ele></ele><time>2013-9-9T10:42:23Z</time></trkpt>
<trkpt lat="46.563947964459658" lon="7.04679817892611"><ele></ele><time>2013-9-9T10:42:26Z</time></trkpt>
<trkpt lat="46.563950395211577" lon="7.046745624393225"><ele></ele><time>2013-9-9T10:42:29Z</time></trkpt>
<trkpt lat="46.563970008864999" lon="7.046529371291399"><ele></ele><time>2013-9-9T10:42:32Z</time></trkpt>
<trkpt lat="46.563967829570174" lon="7.046515541151166"><ele></ele><time>2013-9-9T10:42:35Z</time></trkpt>
<trkpt lat="46.56396715901792" lon="7.046485785394907"><ele></ele><time>2013-9-9T10:42:38Z</time></trkpt>
<trkpt lat="46.563945030793548" lon="7.046383358538151"><ele></ele><time>2013-9-9T10:42:41Z</time></trkpt>
<trkpt lat="46.563923740759492" lon="7.046362739056349"><ele></ele><time>2013-9-9T10:42:44Z</time></trkpt>
<trkpt lat="46.563897086307406" lon="7.046352596953511"><ele></ele><time>2013-9-9T10:42:47Z</time></trkpt>
<trkpt lat="46.563875880092382" lon="7.046349328011274"><ele></ele><time>2013-9-9T10:42:50Z</time></trkpt>
<trkpt lat="46.563823744654655" lon="7.046320578083396"><ele></ele><time>2013-9-9T10:42:53Z</time></trkpt>
<trkpt lat="46.563808908686042" lon="7.046306496486068"><ele></ele><time>2013-9-9T10:42:56Z</time></trkpt>
<trkpt lat="46.563689131289721" lon="7.046245224773884"><ele></ele><time>2013-9-9T10:42:59Z</time></trkpt>
<trkpt lat="46.563514703884721" lon="7.046135924756527"><ele></ele><time>2013-9-9T10:43:2Z</time></trkpt>
<trkpt lat="46.563394591212273" lon="7.046069875359535"><ele></ele><time>2013-9-9T10:43:5Z</time></trkpt>
<trkpt lat="46.563298869878054" lon="7.046027965843678"><ele></ele><time>2013-9-9T10:43:8Z</time></trkpt>
<trkpt lat="46.563246147707105" lon="7.046003490686417"><ele></ele><time>2013-9-9T10:43:11Z</time></trkpt>
<trkpt lat="46.563189569860697" lon="7.045980608090758"><ele></ele><time>2013-9-9T10:43:14Z</time></trkpt>
<trkpt lat="46.563129303976893" lon="7.045959904789925"><ele></ele><time>2013-9-9T10:43:17Z</time></trkpt>
<trkpt lat="46.563070798292756" lon="7.045937608927488"><ele></ele><time>2013-9-9T10:43:20Z</time></trkpt>
<trkpt lat="46.563022769987583" lon="7.045919084921479"><ele></ele><time>2013-9-9T10:43:23Z</time></trkpt>
<trkpt lat="46.562994606792927" lon="7.045896369963884"><ele></ele><time>2013-9-9T10:43:26Z</time></trkpt>
<trkpt lat="46.562982201576233" lon="7.045877762138844"><ele></ele><time>2013-9-9T10:43:29Z</time></trkpt>
<trkpt lat="46.562970634549856" lon="7.04585655592382"><ele></ele><time>2013-9-9T10:43:32Z</time></trkpt>
<trkpt lat="46.56297080218792" lon="7.045857645571232"><ele></ele><time>2013-9-9T10:43:35Z</time></trkpt>
<trkpt lat="46.562964515760541" lon="7.045834427699447"><ele></ele><time>2013-9-9T10:43:38Z</time></trkpt>
<trkpt lat="46.562940292060375" lon="7.045798636972904"><ele></ele><time>2013-9-9T10:43:41Z</time></trkpt>
<trkpt lat="46.562826968729496" lon="7.045630244538188"><ele></ele><time>2013-9-9T10:43:44Z</time></trkpt>
<trkpt lat="46.562659665942192" lon="7.045465372502804"><ele></ele><time>2013-9-9T10:43:47Z</time></trkpt>
<trkpt lat="46.562601830810308" lon="7.045380296185613"><ele></ele><time>2013-9-9T10:43:50Z</time></trkpt>
<trkpt lat="46.562569979578257" lon="7.045337213203311"><ele></ele><time>2013-9-9T10:43:53Z</time></trkpt>
<trkpt lat="46.562538463622332" lon="7.045292537659407"><ele></ele><time>2013-9-9T10:43:56Z</time></trkpt>
<trkpt lat="46.562509881332517" lon="7.045247862115502"><ele></ele><time>2013-9-9T10:43:59Z</time></trkpt>
<trkpt lat="46.562450537458062" lon="7.04509967006743"><ele></ele><time>2013-9-9T10:44:2Z</time></trkpt>
<trkpt lat="46.562442909926176" lon="7.045034123584628"><ele></ele><time>2013-9-9T10:44:5Z</time></trkpt>
<trkpt lat="46.562444251030684" lon="7.044954746961594"><ele></ele><time>2013-9-9T10:44:8Z</time></trkpt>
<trkpt lat="46.562452549114823" lon="7.044873274862766"><ele></ele><time>2013-9-9T10:44:11Z</time></trkpt>
<trkpt lat="46.562465541064739" lon="7.044791802763939"><ele></ele><time>2013-9-9T10:44:14Z</time></trkpt>
<trkpt lat="46.562478868290782" lon="7.044714018702507"><ele></ele><time>2013-9-9T10:44:17Z</time></trkpt>
<trkpt lat="46.562493704259396" lon="7.044637827202678"><ele></ele><time>2013-9-9T10:44:20Z</time></trkpt>
<trkpt lat="46.562509797513485" lon="7.04456465318799"><ele></ele><time>2013-9-9T10:44:23Z</time></trkpt>
<trkpt lat="46.56252765096724" lon="7.044493239372969"><ele></ele><time>2013-9-9T10:44:26Z</time></trkpt>
<trkpt lat="46.56255648471415" lon="7.044365499168634"><ele></ele><time>2013-9-9T10:44:29Z</time></trkpt>
<trkpt lat="46.56256134621799" lon="7.044305903837085"><ele></ele><time>2013-9-9T10:44:32Z</time></trkpt>
<trkpt lat="46.562509881332517" lon="7.044153604656458"><ele></ele><time>2013-9-9T10:44:35Z</time></trkpt>
<trkpt lat="46.562449196353555" lon="7.044102223590016"><ele></ele><time>2013-9-9T10:44:38Z</time></trkpt>
<trkpt lat="46.562361354008317" lon="7.044045142829418"><ele></ele><time>2013-9-9T10:44:41Z</time></trkpt>
<trkpt lat="46.562153901904821" lon="7.043937267735601"><ele></ele><time>2013-9-9T10:44:44Z</time></trkpt>
<trkpt lat="46.562112998217344" lon="7.043926203623414"><ele></ele><time>2013-9-9T10:44:47Z</time></trkpt>
<trkpt lat="46.562064131721854" lon="7.043923772871494"><ele></ele><time>2013-9-9T10:44:50Z</time></trkpt>
<trkpt lat="46.562016354873776" lon="7.043925868347287"><ele></ele><time>2013-9-9T10:44:53Z</time></trkpt>
<trkpt lat="46.561965392902493" lon="7.043935004621744"><ele></ele><time>2013-9-9T10:44:56Z</time></trkpt>
<trkpt lat="46.561914430931211" lon="7.043948583304882"><ele></ele><time>2013-9-9T10:44:59Z</time></trkpt>
<trkpt lat="46.561864390969276" lon="7.043965263292193"><ele></ele><time>2013-9-9T10:45:2Z</time></trkpt>
<trkpt lat="46.561813680455089" lon="7.043984541669488"><ele></ele><time>2013-9-9T10:45:5Z</time></trkpt>
<trkpt lat="46.561678647994995" lon="7.04403156414628"><ele></ele><time>2013-9-9T10:45:8Z</time></trkpt>
<trkpt lat="46.561527103185654" lon="7.044060649350286"><ele></ele><time>2013-9-9T10:45:11Z</time></trkpt>
<trkpt lat="46.561307162046432" lon="7.044079592451453"><ele></ele><time>2013-9-9T10:45:14Z</time></trkpt>
<trkpt lat="46.561167435720563" lon="7.044119322672486"><ele></ele><time>2013-9-9T10:45:17Z</time></trkpt>
<trkpt lat="46.561105493456125" lon="7.044078502804041"><ele></ele><time>2013-9-9T10:45:20Z</time></trkpt>
<trkpt lat="46.561093255877495" lon="7.044056290760636"><ele></ele><time>2013-9-9T10:45:23Z</time></trkpt>
<trkpt lat="46.561085041612387" lon="7.043926706537604"><ele></ele><time>2013-9-9T10:45:26Z</time></trkpt>
<trkpt lat="46.56109107658267" lon="7.043873481452465"><ele></ele><time>2013-9-9T10:45:29Z</time></trkpt>
<trkpt lat="46.561113204807043" lon="7.04369192942977"><ele></ele><time>2013-9-9T10:45:32Z</time></trkpt>
<trkpt lat="46.561106499284506" lon="7.043619342148304"><ele></ele><time>2013-9-9T10:45:35Z</time></trkpt>
<trkpt lat="46.561092920601368" lon="7.043540216982365"><ele></ele><time>2013-9-9T10:45:38Z</time></trkpt>
<trkpt lat="46.56107640825212" lon="7.043465953320265"><ele></ele><time>2013-9-9T10:45:41Z</time></trkpt>
<trkpt lat="46.561052016913891" lon="7.043306026607752"><ele></ele><time>2013-9-9T10:45:44Z</time></trkpt>
<trkpt lat="46.561045311391354" lon="7.043218854814768"><ele></ele><time>2013-9-9T10:45:47Z</time></trkpt>
<trkpt lat="46.561040282249451" lon="7.043131431564689"><ele></ele><time>2013-9-9T10:45:50Z</time></trkpt>
<trkpt lat="46.561037097126245" lon="7.043036799877882"><ele></ele><time>2013-9-9T10:45:53Z</time></trkpt>
<trkpt lat="46.561036091297865" lon="7.042936384677887"><ele></ele><time>2013-9-9T10:45:56Z</time></trkpt>
<trkpt lat="46.56103634275496" lon="7.042824737727642"><ele></ele><time>2013-9-9T10:45:59Z</time></trkpt>
<trkpt lat="46.561043970286846" lon="7.042703032493591"><ele></ele><time>2013-9-9T10:46:2Z</time></trkpt>
<trkpt lat="46.561060147359967" lon="7.042584847658873"><ele></ele><time>2013-9-9T10:46:5Z</time></trkpt>
<trkpt lat="46.561077665537596" lon="7.042471272870898"><ele></ele><time>2013-9-9T10:46:8Z</time></trkpt>
<trkpt lat="46.561093926429749" lon="7.042353507131338"><ele></ele><time>2013-9-9T10:46:11Z</time></trkpt>
<trkpt lat="46.561105074360967" lon="7.042233059182763"><ele></ele><time>2013-9-9T10:46:14Z</time></trkpt>
<trkpt lat="46.561110522598028" lon="7.042112108319998"><ele></ele><time>2013-9-9T10:46:17Z</time></trkpt>
<trkpt lat="46.561098201200366" lon="7.041992330923677"><ele></ele><time>2013-9-9T10:46:20Z</time></trkpt>
<trkpt lat="46.561082443222404" lon="7.041875151917338"><ele></ele><time>2013-9-9T10:46:23Z</time></trkpt>
<trkpt lat="46.561058722436428" lon="7.041762918233872"><ele></ele><time>2013-9-9T10:46:26Z</time></trkpt>
<trkpt lat="46.561031229794025" lon="7.041658060625196"><ele></ele><time>2013-9-9T10:46:29Z</time></trkpt>
<trkpt lat="46.561000719666481" lon="7.041565524414182"><ele></ele><time>2013-9-9T10:46:32Z</time></trkpt>
<trkpt lat="46.56097088009119" lon="7.041485896334052"><ele></ele><time>2013-9-9T10:46:35Z</time></trkpt>
<trkpt lat="46.560935508459806" lon="7.041418254375458"><ele></ele><time>2013-9-9T10:46:38Z</time></trkpt>
<trkpt lat="46.560898125171661" lon="7.041351366788149"><ele></ele><time>2013-9-9T10:46:41Z</time></trkpt>
<trkpt lat="46.560852527618408" lon="7.041285401210189"><ele></ele><time>2013-9-9T10:46:44Z</time></trkpt>
<trkpt lat="46.560803577303886" lon="7.041218429803848"><ele></ele><time>2013-9-9T10:46:47Z</time></trkpt>
<trkpt lat="46.560751190409064" lon="7.041145926341415"><ele></ele><time>2013-9-9T10:46:50Z</time></trkpt>
<trkpt lat="46.560696540400386" lon="7.041071495041251"><ele></ele><time>2013-9-9T10:46:53Z</time></trkpt>
<trkpt lat="46.560640130192041" lon="7.041001506149769"><ele></ele><time>2013-9-9T10:46:56Z</time></trkpt>
<trkpt lat="46.560581708326936" lon="7.04095121473074"><ele></ele><time>2013-9-9T10:46:59Z</time></trkpt>
<trkpt lat="46.560531919822097" lon="7.040913160890341"><ele></ele><time>2013-9-9T10:47:2Z</time></trkpt>
<trkpt lat="46.560486909002066" lon="7.040884243324399"><ele></ele><time>2013-9-9T10:47:5Z</time></trkpt>
<trkpt lat="46.560446843504906" lon="7.040857756510377"><ele></ele><time>2013-9-9T10:47:8Z</time></trkpt>
<trkpt lat="46.560404682531953" lon="7.040834371000528"><ele></ele><time>2013-9-9T10:47:11Z</time></trkpt>
<trkpt lat="46.560362353920937" lon="7.040814338251948"><ele></ele><time>2013-9-9T10:47:14Z</time></trkpt>
<trkpt lat="46.560312733054161" lon="7.040814338251948"><ele></ele><time>2013-9-9T10:47:17Z</time></trkpt>
<trkpt lat="46.560262190178037" lon="7.040817020460963"><ele></ele><time>2013-9-9T10:47:20Z</time></trkpt>
<trkpt lat="46.560210976749659" lon="7.040829928591847"><ele></ele><time>2013-9-9T10:47:23Z</time></trkpt>
<trkpt lat="46.560156242921948" lon="7.04085398465395"><ele></ele><time>2013-9-9T10:47:26Z</time></trkpt>
<trkpt lat="46.560100587084889" lon="7.040872592478991"><ele></ele><time>2013-9-9T10:47:29Z</time></trkpt>
<trkpt lat="46.560048451647162" lon="7.040878543630242"><ele></ele><time>2013-9-9T10:47:32Z</time></trkpt>
<trkpt lat="46.559941917657852" lon="7.040845099836588"><ele></ele><time>2013-9-9T10:47:35Z</time></trkpt>
<trkpt lat="46.559780985116959" lon="7.040729178115726"><ele></ele><time>2013-9-9T10:47:38Z</time></trkpt>
<trkpt lat="46.559722814708948" lon="7.040686011314392"><ele></ele><time>2013-9-9T10:47:41Z</time></trkpt>
<trkpt lat="46.559595409780741" lon="7.040605377405882"><ele></ele><time>2013-9-9T10:47:44Z</time></trkpt>
<trkpt lat="46.559527600184083" lon="7.040572520345449"><ele></ele><time>2013-9-9T10:47:47Z</time></trkpt>
<trkpt lat="46.559458952397108" lon="7.040537903085351"><ele></ele><time>2013-9-9T10:47:50Z</time></trkpt>
<trkpt lat="46.559392148628831" lon="7.040501777082682"><ele></ele><time>2013-9-9T10:47:53Z</time></trkpt>
<trkpt lat="46.55932710506022" lon="7.040466153994203"><ele></ele><time>2013-9-9T10:47:56Z</time></trkpt>
<trkpt lat="46.559121580794454" lon="7.040346125140786"><ele></ele><time>2013-9-9T10:47:59Z</time></trkpt>
<trkpt lat="46.559047317132354" lon="7.040297091007233"><ele></ele><time>2013-9-9T10:48:2Z</time></trkpt>
<trkpt lat="46.558976238593459" lon="7.040248308330774"><ele></ele><time>2013-9-9T10:48:5Z</time></trkpt>
<trkpt lat="46.558904070407152" lon="7.040199525654316"><ele></ele><time>2013-9-9T10:48:8Z</time></trkpt>
<trkpt lat="46.558832069858909" lon="7.040143283084035"><ele></ele><time>2013-9-9T10:48:11Z</time></trkpt>
<trkpt lat="46.558629982173443" lon="7.039947481825948"><ele></ele><time>2013-9-9T10:48:14Z</time></trkpt>
<trkpt lat="46.558584300801158" lon="7.039872044697404"><ele></ele><time>2013-9-9T10:48:17Z</time></trkpt>
<trkpt lat="46.558539709076285" lon="7.03971354290843"><ele></ele><time>2013-9-9T10:48:20Z</time></trkpt>
<trkpt lat="46.558613637462258" lon="7.039643051102758"><ele></ele><time>2013-9-9T10:48:23Z</time></trkpt>
<trkpt lat="46.558708688244224" lon="7.039640704169869"><ele></ele><time>2013-9-9T10:48:26Z</time></trkpt>
<trkpt lat="46.558834332972765" lon="7.039636177942157"><ele></ele><time>2013-9-9T10:48:29Z</time></trkpt>
<trkpt lat="46.559245968237519" lon="7.039566272869706"><ele></ele><time>2013-9-9T10:48:32Z</time></trkpt>
<trkpt lat="46.559680569916964" lon="7.039500055834651"><ele></ele><time>2013-9-9T10:48:35Z</time></trkpt>
<trkpt lat="46.559764472767711" lon="7.039459655061364"><ele></ele><time>2013-9-9T10:48:38Z</time></trkpt>
<trkpt lat="46.560012996196747" lon="7.039310792461038"><ele></ele><time>2013-9-9T10:48:41Z</time></trkpt>
<trkpt lat="46.560407029464841" lon="7.03907928429544"><ele></ele><time>2013-9-9T10:48:44Z</time></trkpt>
<trkpt lat="46.560919750481844" lon="7.03870746307075"><ele></ele><time>2013-9-9T10:48:47Z</time></trkpt>
<trkpt lat="46.561129884794354" lon="7.038415102288127"><ele></ele><time>2013-9-9T10:48:50Z</time></trkpt>
<trkpt lat="46.56117313541472" lon="7.038328684866428"><ele></ele><time>2013-9-9T10:48:53Z</time></trkpt>
<trkpt lat="46.561214961111546" lon="7.038243440911174"><ele></ele><time>2013-9-9T10:48:56Z</time></trkpt>
<trkpt lat="46.561284698545933" lon="7.038089968264103"><ele></ele><time>2013-9-9T10:48:59Z</time></trkpt>
<trkpt lat="46.561321159824729" lon="7.038016961887479"><ele></ele><time>2013-9-9T10:49:2Z</time></trkpt>
<trkpt lat="46.56135493889451" lon="7.037949655205011"><ele></ele><time>2013-9-9T10:49:5Z</time></trkpt>
<trkpt lat="46.561384694650769" lon="7.037879331037402"><ele></ele><time>2013-9-9T10:49:8Z</time></trkpt>
<trkpt lat="46.561414953321218" lon="7.037820825353265"><ele></ele><time>2013-9-9T10:49:11Z</time></trkpt>
<trkpt lat="46.561467843130231" lon="7.037709932774305"><ele></ele><time>2013-9-9T10:49:14Z</time></trkpt>
<trkpt lat="46.561491061002016" lon="7.037655534222722"><ele></ele><time>2013-9-9T10:49:17Z</time></trkpt>
<trkpt lat="46.56151712872088" lon="7.037602728232741"><ele></ele><time>2013-9-9T10:49:20Z</time></trkpt>
<trkpt lat="46.561543196439743" lon="7.037551430985332"><ele></ele><time>2013-9-9T10:49:23Z</time></trkpt>
<trkpt lat="46.561570437625051" lon="7.037498457357287"><ele></ele><time>2013-9-9T10:49:26Z</time></trkpt>
<trkpt lat="46.561653418466449" lon="7.037366861477494"><ele></ele><time>2013-9-9T10:49:29Z</time></trkpt>
<trkpt lat="46.561682587489486" lon="7.037338530644774"><ele></ele><time>2013-9-9T10:49:32Z</time></trkpt>
<trkpt lat="46.561710750684142" lon="7.037311289459467"><ele></ele><time>2013-9-9T10:49:35Z</time></trkpt>
<trkpt lat="46.561743691563606" lon="7.037288155406714"><ele></ele><time>2013-9-9T10:49:38Z</time></trkpt>
<trkpt lat="46.561777386814356" lon="7.037269212305546"><ele></ele><time>2013-9-9T10:49:41Z</time></trkpt>
<trkpt lat="46.56189045868814" lon="7.037254879251123"><ele></ele><time>2013-9-9T10:49:44Z</time></trkpt>
<trkpt lat="46.562209809198976" lon="7.03722252510488"><ele></ele><time>2013-9-9T10:49:47Z</time></trkpt>
<trkpt lat="46.562636280432343" lon="7.03718975186348"><ele></ele><time>2013-9-9T10:49:50Z</time></trkpt>
<trkpt lat="46.563126537948847" lon="7.037159074097872"><ele></ele><time>2013-9-9T10:49:53Z</time></trkpt>
<trkpt lat="46.563674043864012" lon="7.037162762135267"><ele></ele><time>2013-9-9T10:49:56Z</time></trkpt>
<trkpt lat="46.563838580623269" lon="7.037239372730255"><ele></ele><time>2013-9-9T10:49:59Z</time></trkpt>
<trkpt lat="46.563935307785869" lon="7.037306427955627"><ele></ele><time>2013-9-9T10:50:2Z</time></trkpt>
<trkpt lat="46.564183244481683" lon="7.037534164264798"><ele></ele><time>2013-9-9T10:50:5Z</time></trkpt>
<trkpt lat="46.564305033534765" lon="7.037654193118215"><ele></ele><time>2013-9-9T10:50:8Z</time></trkpt>
<trkpt lat="46.564367730170488" lon="7.037715632468462"><ele></ele><time>2013-9-9T10:50:11Z</time></trkpt>
<trkpt lat="46.564435875043273" lon="7.037774305790663"><ele></ele><time>2013-9-9T10:50:14Z</time></trkpt>
<trkpt lat="46.564507205039263" lon="7.037830129265785"><ele></ele><time>2013-9-9T10:50:17Z</time></trkpt>
<trkpt lat="46.564580965787172" lon="7.037886288017035"><ele></ele><time>2013-9-9T10:50:20Z</time></trkpt>
<trkpt lat="46.564655564725399" lon="7.03794127330184"><ele></ele><time>2013-9-9T10:50:23Z</time></trkpt>
<trkpt lat="46.564732426777482" lon="7.037996090948582"><ele></ele><time>2013-9-9T10:50:26Z</time></trkpt>
<trkpt lat="46.564808785915375" lon="7.038053590804339"><ele></ele><time>2013-9-9T10:50:29Z</time></trkpt>
<trkpt lat="46.564889587461948" lon="7.038112934678793"><ele></ele><time>2013-9-9T10:50:32Z</time></trkpt>
<trkpt lat="46.564966281875968" lon="7.038174457848072"><ele></ele><time>2013-9-9T10:50:35Z</time></trkpt>
<trkpt lat="46.565042808651924" lon="7.038230784237385"><ele></ele><time>2013-9-9T10:50:38Z</time></trkpt>
<trkpt lat="46.565122185274959" lon="7.03827110119164"><ele></ele><time>2013-9-9T10:50:41Z</time></trkpt>
<trkpt lat="46.565202567726374" lon="7.038296330720186"><ele></ele><time>2013-9-9T10:50:44Z</time></trkpt>
<trkpt lat="46.565285129472613" lon="7.03830923885107"><ele></ele><time>2013-9-9T10:50:47Z</time></trkpt>
<trkpt lat="46.565372133627534" lon="7.038318542763591"><ele></ele><time>2013-9-9T10:50:50Z</time></trkpt>
<trkpt lat="46.565454863011837" lon="7.038329942151904"><ele></ele><time>2013-9-9T10:50:53Z</time></trkpt>
<trkpt lat="46.565533569082618" lon="7.038340168073773"><ele></ele><time>2013-9-9T10:50:56Z</time></trkpt>
<trkpt lat="46.565609509125352" lon="7.038352657109499"><ele></ele><time>2013-9-9T10:50:59Z</time></trkpt>
<trkpt lat="46.565683940425515" lon="7.038363721221685"><ele></ele><time>2013-9-9T10:51:2Z</time></trkpt>
<trkpt lat="46.565753426402807" lon="7.038378473371267"><ele></ele><time>2013-9-9T10:51:5Z</time></trkpt>
<trkpt lat="46.566013935953379" lon="7.038434045389295"><ele></ele><time>2013-9-9T10:51:8Z</time></trkpt>
<trkpt lat="46.566069759428501" lon="7.038444522768259"><ele></ele><time>2013-9-9T10:51:11Z</time></trkpt>
<trkpt lat="46.566123571246862" lon="7.038458939641714"><ele></ele><time>2013-9-9T10:51:14Z</time></trkpt>
<trkpt lat="46.566175371408463" lon="7.038473775610328"><ele></ele><time>2013-9-9T10:51:17Z</time></trkpt>
<trkpt lat="46.566227255389094" lon="7.038488863036037"><ele></ele><time>2013-9-9T10:51:20Z</time></trkpt>
<trkpt lat="46.566276540979743" lon="7.03849975951016"><ele></ele><time>2013-9-9T10:51:23Z</time></trkpt>
<trkpt lat="46.566329346969724" lon="7.038509650155902"><ele></ele><time>2013-9-9T10:51:26Z</time></trkpt>
<trkpt lat="46.566378632560372" lon="7.038520714268088"><ele></ele><time>2013-9-9T10:51:29Z</time></trkpt>
<trkpt lat="46.566467732191086" lon="7.038551056757569"><ele></ele><time>2013-9-9T10:51:32Z</time></trkpt>
<trkpt lat="46.566508049145341" lon="7.038560779765248"><ele></ele><time>2013-9-9T10:51:35Z</time></trkpt>
<trkpt lat="46.566546941176057" lon="7.038575783371925"><ele></ele><time>2013-9-9T10:51:38Z</time></trkpt>
<trkpt lat="46.566584659740329" lon="7.038587937131524"><ele></ele><time>2013-9-9T10:51:41Z</time></trkpt>
<trkpt lat="46.566620785742998" lon="7.038600677624345"><ele></ele><time>2013-9-9T10:51:44Z</time></trkpt>
<trkpt lat="46.56670443713665" lon="7.038626661524177"><ele></ele><time>2013-9-9T10:51:47Z</time></trkpt>
<trkpt lat="46.566784400492907" lon="7.038645520806313"><ele></ele><time>2013-9-9T10:51:50Z</time></trkpt>
<trkpt lat="46.566823879256845" lon="7.03865323215723"><ele></ele><time>2013-9-9T10:51:53Z</time></trkpt>
<trkpt lat="46.566859418526292" lon="7.038660943508148"><ele></ele><time>2013-9-9T10:51:56Z</time></trkpt>
<trkpt lat="46.566895376890898" lon="7.038668151944876"><ele></ele><time>2013-9-9T10:51:59Z</time></trkpt>
<trkpt lat="46.566930580884218" lon="7.038676366209984"><ele></ele><time>2013-9-9T10:52:2Z</time></trkpt>
<trkpt lat="46.566998977214098" lon="7.03869472257793"><ele></ele><time>2013-9-9T10:52:5Z</time></trkpt>
<trkpt lat="46.567154629155993" lon="7.038726657629013"><ele></ele><time>2013-9-9T10:52:8Z</time></trkpt>
<trkpt lat="46.567181451246142" lon="7.038737051188946"><ele></ele><time>2013-9-9T10:52:11Z</time></trkpt>
<trkpt lat="46.567212212830782" lon="7.038750378414989"><ele></ele><time>2013-9-9T10:52:14Z</time></trkpt>
<trkpt lat="46.56723995693028" lon="7.038760520517826"><ele></ele><time>2013-9-9T10:52:17Z</time></trkpt>
<trkpt lat="46.567316735163331" lon="7.038799580186606"><ele></ele><time>2013-9-9T10:52:20Z</time></trkpt>
<trkpt lat="46.567333834245801" lon="7.038813745602965"><ele></ele><time>2013-9-9T10:52:23Z</time></trkpt>
<trkpt lat="46.56734992749989" lon="7.038823300972581"><ele></ele><time>2013-9-9T10:52:26Z</time></trkpt>
<trkpt lat="46.567365853115916" lon="7.038836376741529"><ele></ele><time>2013-9-9T10:52:29Z</time></trkpt>
<trkpt lat="46.567378342151642" lon="7.038854146376252"><ele></ele><time>2013-9-9T10:52:32Z</time></trkpt>
<trkpt lat="46.567440452054143" lon="7.038902007043362"><ele></ele><time>2013-9-9T10:52:35Z</time></trkpt>
<trkpt lat="46.567458054050803" lon="7.038914412260056"><ele></ele><time>2013-9-9T10:52:38Z</time></trkpt>
<trkpt lat="46.567477080971003" lon="7.03892195597291"><ele></ele><time>2013-9-9T10:52:41Z</time></trkpt>
<trkpt lat="46.567487642168999" lon="7.03893561847508"><ele></ele><time>2013-9-9T10:52:44Z</time></trkpt>
<trkpt lat="46.567511949688196" lon="7.038945760577917"><ele></ele><time>2013-9-9T10:52:47Z</time></trkpt>
<trkpt lat="46.567523349076509" lon="7.038964116945863"><ele></ele><time>2013-9-9T10:52:50Z</time></trkpt>
<trkpt lat="46.5675790887326" lon="7.038985071703792"><ele></ele><time>2013-9-9T10:52:53Z</time></trkpt>
<trkpt lat="46.567688137292862" lon="7.039009463042021"><ele></ele><time>2013-9-9T10:52:56Z</time></trkpt>
<trkpt lat="46.567726191133261" lon="7.03900745138526"><ele></ele><time>2013-9-9T10:52:59Z</time></trkpt>
<trkpt lat="46.567768771201372" lon="7.039013067260385"><ele></ele><time>2013-9-9T10:53:2Z</time></trkpt>
<trkpt lat="46.567814452573657" lon="7.039015162736177"><ele></ele><time>2013-9-9T10:53:5Z</time></trkpt>
<trkpt lat="46.567956609651446" lon="7.03905095346272"><ele></ele><time>2013-9-9T10:53:8Z</time></trkpt>
<trkpt lat="46.567981587722898" lon="7.039058329537511"><ele></ele><time>2013-9-9T10:53:11Z</time></trkpt>
<trkpt lat="46.568006314337254" lon="7.039064113050699"><ele></ele><time>2013-9-9T10:53:14Z</time></trkpt>
<trkpt lat="46.568030286580324" lon="7.039069142192602"><ele></ele><time>2013-9-9T10:53:17Z</time></trkpt>
<trkpt lat="46.568056186661124" lon="7.039075260981917"><ele></ele><time>2013-9-9T10:53:20Z</time></trkpt>
<trkpt lat="46.568081416189671" lon="7.039081966504455"><ele></ele><time>2013-9-9T10:53:23Z</time></trkpt>
<trkpt lat="46.568169761449099" lon="7.039098227396607"><ele></ele><time>2013-9-9T10:53:26Z</time></trkpt>
<trkpt lat="46.568291718140244" lon="7.039133179932833"><ele></ele><time>2013-9-9T10:53:29Z</time></trkpt>
<trkpt lat="46.568315103650093" lon="7.039140891283751"><ele></ele><time>2013-9-9T10:53:32Z</time></trkpt>
<trkpt lat="46.568338572978973" lon="7.039148854091764"><ele></ele><time>2013-9-9T10:53:35Z</time></trkpt>
<trkpt lat="46.56835894100368" lon="7.039160253480077"><ele></ele><time>2013-9-9T10:53:38Z</time></trkpt>
<trkpt lat="46.568383919075131" lon="7.03916821628809"><ele></ele><time>2013-9-9T10:53:41Z</time></trkpt>
<trkpt lat="46.568498332053423" lon="7.039227392524481"><ele></ele><time>2013-9-9T10:53:44Z</time></trkpt>
<trkpt lat="46.568559184670448" lon="7.039268966764212"><ele></ele><time>2013-9-9T10:53:47Z</time></trkpt>
<trkpt lat="46.568581899628043" lon="7.039285227656364"><ele></ele><time>2013-9-9T10:53:50Z</time></trkpt>
<trkpt lat="46.568606877699494" lon="7.039298722520471"><ele></ele><time>2013-9-9T10:53:53Z</time></trkpt>
<trkpt lat="46.568629760295153" lon="7.039308026432991"><ele></ele><time>2013-9-9T10:53:56Z</time></trkpt>
<trkpt lat="46.568650882691145" lon="7.039322862401605"><ele></ele><time>2013-9-9T10:53:59Z</time></trkpt>
<trkpt lat="46.568673849105835" lon="7.039339961484075"><ele></ele><time>2013-9-9T10:54:2Z</time></trkpt>
<trkpt lat="46.56880552880466" lon="7.039431324228644"><ele></ele><time>2013-9-9T10:54:5Z</time></trkpt>
<trkpt lat="46.56882799230516" lon="7.039447836577892"><ele></ele><time>2013-9-9T10:54:8Z</time></trkpt>
<trkpt lat="46.568851042538881" lon="7.039461834356189"><ele></ele><time>2013-9-9T10:54:11Z</time></trkpt>
<trkpt lat="46.568871410563588" lon="7.039475915953517"><ele></ele><time>2013-9-9T10:54:14Z</time></trkpt>
<trkpt lat="46.568889850750566" lon="7.039494272321463"><ele></ele><time>2013-9-9T10:54:17Z</time></trkpt>
<trkpt lat="46.568969646468759" lon="7.039565434679389"><ele></ele><time>2013-9-9T10:54:20Z</time></trkpt>
<trkpt lat="46.569010131061077" lon="7.039599632844329"><ele></ele><time>2013-9-9T10:54:23Z</time></trkpt>
<trkpt lat="46.569030163809657" lon="7.039614720270038"><ele></ele><time>2013-9-9T10:54:26Z</time></trkpt>
<trkpt lat="46.569048268720508" lon="7.039632741361857"><ele></ele><time>2013-9-9T10:54:29Z</time></trkpt>
<trkpt lat="46.569066541269422" lon="7.039651433005929"><ele></ele><time>2013-9-9T10:54:32Z</time></trkpt>
<trkpt lat="46.569085400551558" lon="7.039670292288065"><ele></ele><time>2013-9-9T10:54:35Z</time></trkpt>
<trkpt lat="46.569121023640037" lon="7.039713375270367"><ele></ele><time>2013-9-9T10:54:38Z</time></trkpt>
<trkpt lat="46.569189168512821" lon="7.039795937016606"><ele></ele><time>2013-9-9T10:54:41Z</time></trkpt>
<trkpt lat="46.569210458546877" lon="7.039814461022615"><ele></ele><time>2013-9-9T10:54:44Z</time></trkpt>
<trkpt lat="46.569233760237694" lon="7.039827788248658"><ele></ele><time>2013-9-9T10:54:47Z</time></trkpt>
<trkpt lat="46.569259325042367" lon="7.039837762713432"><ele></ele><time>2013-9-9T10:54:50Z</time></trkpt>
<trkpt lat="46.569278938695788" lon="7.039848743006587"><ele></ele><time>2013-9-9T10:54:53Z</time></trkpt>
<trkpt lat="46.56937382183969" lon="7.03984203748405"><ele></ele><time>2013-9-9T10:54:56Z</time></trkpt>
<trkpt lat="46.569389160722494" lon="7.039820998907089"><ele></ele><time>2013-9-9T10:54:59Z</time></trkpt>
<trkpt lat="46.569403242319822" lon="7.039791829884052"><ele></ele><time>2013-9-9T10:55:2Z</time></trkpt>
<trkpt lat="46.569410031661391" lon="7.039765510708094"><ele></ele><time>2013-9-9T10:55:5Z</time></trkpt>
<trkpt lat="46.569421179592609" lon="7.039702646434307"><ele></ele><time>2013-9-9T10:55:8Z</time></trkpt>
<trkpt lat="46.569422855973244" lon="7.039667526260018"><ele></ele><time>2013-9-9T10:55:11Z</time></trkpt>
<trkpt lat="46.569411372765899" lon="7.039499469101429"><ele></ele><time>2013-9-9T10:55:14Z</time></trkpt>
<trkpt lat="46.56940701417625" lon="7.039467701688409"><ele></ele><time>2013-9-9T10:55:17Z</time></trkpt>
<trkpt lat="46.569404499605298" lon="7.039435682818294"><ele></ele><time>2013-9-9T10:55:20Z</time></trkpt>
<trkpt lat="46.56940215267241" lon="7.039406513795257"><ele></ele><time>2013-9-9T10:55:23Z</time></trkpt>
<trkpt lat="46.569398296996951" lon="7.039376255124807"><ele></ele><time>2013-9-9T10:55:26Z</time></trkpt>
<trkpt lat="46.569365607574582" lon="7.039169473573566"><ele></ele><time>2013-9-9T10:55:29Z</time></trkpt>
<trkpt lat="46.569353118538857" lon="7.039112560451031"><ele></ele><time>2013-9-9T10:55:32Z</time></trkpt>
<trkpt lat="46.569345155730844" lon="7.039084816351533"><ele></ele><time>2013-9-9T10:55:35Z</time></trkpt>
<trkpt lat="46.569336941465735" lon="7.039055144414306"><ele></ele><time>2013-9-9T10:55:38Z</time></trkpt>
<trkpt lat="46.569333001971245" lon="7.039029244333506"><ele></ele><time>2013-9-9T10:55:41Z</time></trkpt>
<trkpt lat="46.569325374439359" lon="7.039001835510135"><ele></ele><time>2013-9-9T10:55:44Z</time></trkpt>
<trkpt lat="46.569317411631346" lon="7.038950202986598"><ele></ele><time>2013-9-9T10:55:47Z</time></trkpt>
<trkpt lat="46.569308526813984" lon="7.038771081715822"><ele></ele><time>2013-9-9T10:55:50Z</time></trkpt>
<trkpt lat="46.569306934252381" lon="7.038740906864405"><ele></ele><time>2013-9-9T10:55:53Z</time></trkpt>
<trkpt lat="46.569303078576922" lon="7.038711234927177"><ele></ele><time>2013-9-9T10:55:56Z</time></trkpt>
<trkpt lat="46.569299139082432" lon="7.038682568818331"><ele></ele><time>2013-9-9T10:55:59Z</time></trkpt>
<trkpt lat="46.569296708330512" lon="7.038655076175928"><ele></ele><time>2013-9-9T10:56:2Z</time></trkpt>
<trkpt lat="46.569296289235353" lon="7.038541166111827"><ele></ele><time>2013-9-9T10:56:5Z</time></trkpt>
<trkpt lat="46.569276256486773" lon="7.038423484191299"><ele></ele><time>2013-9-9T10:56:8Z</time></trkpt>
<trkpt lat="46.569277178496122" lon="7.038394985720515"><ele></ele><time>2013-9-9T10:56:11Z</time></trkpt>
<trkpt lat="46.569277429953218" lon="7.038372689858079"><ele></ele><time>2013-9-9T10:56:14Z</time></trkpt>
<trkpt lat="46.569276340305805" lon="7.038345281034708"><ele></ele><time>2013-9-9T10:56:17Z</time></trkpt>
<trkpt lat="46.569265276193619" lon="7.038171943277121"><ele></ele><time>2013-9-9T10:56:20Z</time></trkpt>
<trkpt lat="46.569263515993953" lon="7.038144366815686"><ele></ele><time>2013-9-9T10:56:23Z</time></trkpt>
<trkpt lat="46.569261755794287" lon="7.038118550553918"><ele></ele><time>2013-9-9T10:56:26Z</time></trkpt>
<trkpt lat="46.569257313385606" lon="7.038096925243735"><ele></ele><time>2013-9-9T10:56:29Z</time></trkpt>
<trkpt lat="46.569254212081432" lon="7.038069348782301"><ele></ele><time>2013-9-9T10:56:32Z</time></trkpt>
<trkpt lat="46.569251865148544" lon="7.037989553064108"><ele></ele><time>2013-9-9T10:56:35Z</time></trkpt>
<trkpt lat="46.569240968674421" lon="7.03790171071887"><ele></ele><time>2013-9-9T10:56:38Z</time></trkpt>
<trkpt lat="46.56923552043736" lon="7.037869775667787"><ele></ele><time>2013-9-9T10:56:41Z</time></trkpt>
<trkpt lat="46.56923015601933" lon="7.037839936092496"><ele></ele><time>2013-9-9T10:56:44Z</time></trkpt>
<trkpt lat="46.569228312000632" lon="7.03781227581203"><ele></ele><time>2013-9-9T10:56:47Z</time></trkpt>
<trkpt lat="46.569228814914823" lon="7.037788555026054"><ele></ele><time>2013-9-9T10:56:50Z</time></trkpt>
<trkpt lat="46.56923258677125" lon="7.03762267716229"><ele></ele><time>2013-9-9T10:56:53Z</time></trkpt>
<trkpt lat="46.569230407476425" lon="7.037620833143592"><ele></ele><time>2013-9-9T10:56:56Z</time></trkpt>
<trkpt lat="46.569231245666742" lon="7.037616055458784"><ele></ele><time>2013-9-9T10:56:59Z</time></trkpt>
<trkpt lat="46.569296037778258" lon="7.037427797913551"><ele></ele><time>2013-9-9T10:57:2Z</time></trkpt>
<trkpt lat="46.5693024918437" lon="7.037396198138595"><ele></ele><time>2013-9-9T10:57:5Z</time></trkpt>
<trkpt lat="46.56937382183969" lon="7.037122696638107"><ele></ele><time>2013-9-9T10:57:8Z</time></trkpt>
<trkpt lat="46.569406259804964" lon="7.036867300048471"><ele></ele><time>2013-9-9T10:57:11Z</time></trkpt>
<trkpt lat="46.569412127137184" lon="7.036834107711911"><ele></ele><time>2013-9-9T10:57:14Z</time></trkpt>
<trkpt lat="46.569417826831341" lon="7.036800580099225"><ele></ele><time>2013-9-9T10:57:17Z</time></trkpt>
<trkpt lat="46.569422772154212" lon="7.036764873191714"><ele></ele><time>2013-9-9T10:57:20Z</time></trkpt>
<trkpt lat="46.569426795467734" lon="7.036729250103235"><ele></ele><time>2013-9-9T10:57:23Z</time></trkpt>
<trkpt lat="46.569445068016648" lon="7.036584746092558"><ele></ele><time>2013-9-9T10:57:26Z</time></trkpt>
<trkpt lat="46.569452024996281" lon="7.036549290642142"><ele></ele><time>2013-9-9T10:57:29Z</time></trkpt>
<trkpt lat="46.569459149613976" lon="7.036515176296234"><ele></ele><time>2013-9-9T10:57:32Z</time></trkpt>
<trkpt lat="46.569466944783926" lon="7.036483911797404"><ele></ele><time>2013-9-9T10:57:35Z</time></trkpt>
<trkpt lat="46.569475494325161" lon="7.036454994231463"><ele></ele><time>2013-9-9T10:57:38Z</time></trkpt>
<trkpt lat="46.569491168484092" lon="7.036395817995071"><ele></ele><time>2013-9-9T10:57:41Z</time></trkpt>
<trkpt lat="46.569519750773907" lon="7.036074204370379"><ele></ele><time>2013-9-9T10:57:44Z</time></trkpt>
<trkpt lat="46.56952335499227" lon="7.036046460270882"><ele></ele><time>2013-9-9T10:57:47Z</time></trkpt>
<trkpt lat="46.569530898705125" lon="7.036019638180733"><ele></ele><time>2013-9-9T10:57:50Z</time></trkpt>
<trkpt lat="46.569534167647362" lon="7.03598820604384"><ele></ele><time>2013-9-9T10:57:53Z</time></trkpt>
<trkpt lat="46.56953894533217" lon="7.035954678431153"><ele></ele><time>2013-9-9T10:57:56Z</time></trkpt>
<trkpt lat="46.569593427702785" lon="7.035595513880253"><ele></ele><time>2013-9-9T10:57:59Z</time></trkpt>
<trkpt lat="46.569590913131833" lon="7.035571457818151"><ele></ele><time>2013-9-9T10:58:2Z</time></trkpt>
<trkpt lat="46.56959418207407" lon="7.035546898841858"><ele></ele><time>2013-9-9T10:58:5Z</time></trkpt>
<trkpt lat="46.569598959758878" lon="7.035526530817151"><ele></ele><time>2013-9-9T10:58:8Z</time></trkpt>
<trkpt lat="46.56960885040462" lon="7.035507587715983"><ele></ele><time>2013-9-9T10:58:11Z</time></trkpt>
<trkpt lat="46.569612957537174" lon="7.035331483930349"><ele></ele><time>2013-9-9T10:58:14Z</time></trkpt>
<trkpt lat="46.569619243964553" lon="7.035215897485614"><ele></ele><time>2013-9-9T10:58:17Z</time></trkpt>
<trkpt lat="46.569622093811631" lon="7.035190919414163"><ele></ele><time>2013-9-9T10:58:20Z</time></trkpt>
<trkpt lat="46.569624776020646" lon="7.035166108980775"><ele></ele><time>2013-9-9T10:58:23Z</time></trkpt>
<trkpt lat="46.569627290591598" lon="7.035143226385117"><ele></ele><time>2013-9-9T10:58:26Z</time></trkpt>
<trkpt lat="46.569631900638342" lon="7.035123445093632"><ele></ele><time>2013-9-9T10:58:29Z</time></trkpt>
<trkpt lat="46.569647155702114" lon="7.03506225720048"><ele></ele><time>2013-9-9T10:58:32Z</time></trkpt>
<trkpt lat="46.569651681929827" lon="7.034968882799149"><ele></ele><time>2013-9-9T10:58:35Z</time></trkpt>
<trkpt lat="46.569655789062381" lon="7.034945245832205"><ele></ele><time>2013-9-9T10:58:38Z</time></trkpt>
<trkpt lat="46.569658806547523" lon="7.034923117607832"><ele></ele><time>2013-9-9T10:58:41Z</time></trkpt>
<trkpt lat="46.569662243127823" lon="7.034896714612842"><ele></ele><time>2013-9-9T10:58:44Z</time></trkpt>
<trkpt lat="46.569666350260377" lon="7.03487316146493"><ele></ele><time>2013-9-9T10:58:47Z</time></trkpt>
<trkpt lat="46.569673642516136" lon="7.034831587225199"><ele></ele><time>2013-9-9T10:58:50Z</time></trkpt>
<trkpt lat="46.569692837074399" lon="7.034770315513015"><ele></ele><time>2013-9-9T10:58:53Z</time></trkpt>
<trkpt lat="46.569697614759207" lon="7.03474709764123"><ele></ele><time>2013-9-9T10:58:56Z</time></trkpt>
<trkpt lat="46.569703398272395" lon="7.034722371026874"><ele></ele><time>2013-9-9T10:58:59Z</time></trkpt>
<trkpt lat="46.569705326110125" lon="7.034702003002167"><ele></ele><time>2013-9-9T10:59:2Z</time></trkpt>
<trkpt lat="46.569699794054031" lon="7.034610891714692"><ele></ele><time>2013-9-9T10:59:5Z</time></trkpt>
<trkpt lat="46.569698201492429" lon="7.034586919471622"><ele></ele><time>2013-9-9T10:59:8Z</time></trkpt>
<trkpt lat="46.56969535164535" lon="7.034558085724711"><ele></ele><time>2013-9-9T10:59:11Z</time></trkpt>
<trkpt lat="46.569694681093097" lon="7.034530006349087"><ele></ele><time>2013-9-9T10:59:14Z</time></trkpt>
<trkpt lat="46.569690573960543" lon="7.034501507878304"><ele></ele><time>2013-9-9T10:59:17Z</time></trkpt>
<trkpt lat="46.569673055782914" lon="7.034377539530397"><ele></ele><time>2013-9-9T10:59:20Z</time></trkpt>
<trkpt lat="46.569667691364884" lon="7.034351974725723"><ele></ele><time>2013-9-9T10:59:23Z</time></trkpt>
<trkpt lat="46.569664673879743" lon="7.034330181777477"><ele></ele><time>2013-9-9T10:59:26Z</time></trkpt>
<trkpt lat="46.56966551207006" lon="7.034311154857278"><ele></ele><time>2013-9-9T10:59:29Z</time></trkpt>
<trkpt lat="46.569665260612965" lon="7.034289948642254"><ele></ele><time>2013-9-9T10:59:32Z</time></trkpt>
<trkpt lat="46.569651514291763" lon="7.034169752150774"><ele></ele><time>2013-9-9T10:59:35Z</time></trkpt>
<trkpt lat="46.569646736606956" lon="7.034148462116718"><ele></ele><time>2013-9-9T10:59:38Z</time></trkpt>
<trkpt lat="46.569641372188926" lon="7.034126166254282"><ele></ele><time>2013-9-9T10:59:41Z</time></trkpt>
<trkpt lat="46.56963961198926" lon="7.034104540944099"><ele></ele><time>2013-9-9T10:59:44Z</time></trkpt>
<trkpt lat="46.569626871496439" lon="7.034034132957459"><ele></ele><time>2013-9-9T10:59:47Z</time></trkpt>
<trkpt lat="46.569606922566891" lon="7.033942434936762"><ele></ele><time>2013-9-9T10:59:50Z</time></trkpt>
<trkpt lat="46.569604491814971" lon="7.033924413844943"><ele></ele><time>2013-9-9T10:59:53Z</time></trkpt>
<trkpt lat="46.569603318348527" lon="7.033906308934093"><ele></ele><time>2013-9-9T10:59:56Z</time></trkpt>
<trkpt lat="46.569599295035005" lon="7.03389004804194"><ele></ele><time>2013-9-9T10:59:59Z</time></trkpt>
<trkpt lat="46.569596948102117" lon="7.033872529864311"><ele></ele><time>2013-9-9T11:0:2Z</time></trkpt>
<trkpt lat="46.569557469338179" lon="7.033788207918406"><ele></ele><time>2013-9-9T11:0:5Z</time></trkpt>
<trkpt lat="46.569552859291434" lon="7.033767504617572"><ele></ele><time>2013-9-9T11:0:8Z</time></trkpt>
<trkpt lat="46.569546069949865" lon="7.033745460212231"><ele></ele><time>2013-9-9T11:0:11Z</time></trkpt>
<trkpt lat="46.569539867341518" lon="7.033722661435604"><ele></ele><time>2013-9-9T11:0:14Z</time></trkpt>
<trkpt lat="46.569533664733171" lon="7.033704305067658"><ele></ele><time>2013-9-9T11:0:17Z</time></trkpt>
<trkpt lat="46.56951405107975" lon="7.033594250679016"><ele></ele><time>2013-9-9T11:0:20Z</time></trkpt>
<trkpt lat="46.569512290880084" lon="7.033571368083358"><ele></ele><time>2013-9-9T11:0:23Z</time></trkpt>
<trkpt lat="46.569510111585259" lon="7.03354898840189"><ele></ele><time>2013-9-9T11:0:26Z</time></trkpt>
<trkpt lat="46.569506507366896" lon="7.033529207110405"><ele></ele><time>2013-9-9T11:0:29Z</time></trkpt>
<trkpt lat="46.569495527073741" lon="7.033373638987541"><ele></ele><time>2013-9-9T11:0:32Z</time></trkpt>
<trkpt lat="46.569493850693107" lon="7.033350337296724"><ele></ele><time>2013-9-9T11:0:35Z</time></trkpt>
<trkpt lat="46.569492006674409" lon="7.033326448872685"><ele></ele><time>2013-9-9T11:0:38Z</time></trkpt>
<trkpt lat="46.569488737732172" lon="7.033301386982203"><ele></ele><time>2013-9-9T11:0:41Z</time></trkpt>
<trkpt lat="46.569486139342189" lon="7.033277750015259"><ele></ele><time>2013-9-9T11:0:44Z</time></trkpt>
<trkpt lat="46.569489911198616" lon="7.033242797479034"><ele></ele><time>2013-9-9T11:0:47Z</time></trkpt>
<trkpt lat="46.569470129907131" lon="7.033156715333462"><ele></ele><time>2013-9-9T11:0:50Z</time></trkpt>
<trkpt lat="46.56946568749845" lon="7.033138778060675"><ele></ele><time>2013-9-9T11:0:53Z</time></trkpt>
<trkpt lat="46.569465519860387" lon="7.033123690634966"><ele></ele><time>2013-9-9T11:0:56Z</time></trkpt>
<trkpt lat="46.569463508203626" lon="7.033109441399574"><ele></ele><time>2013-9-9T11:0:59Z</time></trkpt>
<trkpt lat="46.569459568709135" lon="7.033095778897405"><ele></ele><time>2013-9-9T11:1:2Z</time></trkpt>
<trkpt lat="46.56945881433785" lon="7.033083038404584"><ele></ele><time>2013-9-9T11:1:5Z</time></trkpt>
<trkpt lat="46.569445068016648" lon="7.033037105575204"><ele></ele><time>2013-9-9T11:1:8Z</time></trkpt>
<trkpt lat="46.569439033046365" lon="7.033027466386557"><ele></ele><time>2013-9-9T11:1:11Z</time></trkpt>
<trkpt lat="46.56943392008543" lon="7.033017240464687"><ele></ele><time>2013-9-9T11:1:14Z</time></trkpt>
<trkpt lat="46.569428304210305" lon="7.033008523285389"><ele></ele><time>2013-9-9T11:1:17Z</time></trkpt>
<trkpt lat="46.569420089945197" lon="7.033000057563186"><ele></ele><time>2013-9-9T11:1:20Z</time></trkpt>
<trkpt lat="46.569397207349539" lon="7.032968122512102"><ele></ele><time>2013-9-9T11:1:23Z</time></trkpt>
<trkpt lat="46.569386394694448" lon="7.03295923769474"><ele></ele><time>2013-9-9T11:1:26Z</time></trkpt>
<trkpt lat="46.569373151287436" lon="7.032954208552837"><ele></ele><time>2013-9-9T11:1:29Z</time></trkpt>
<trkpt lat="46.569357812404633" lon="7.032946832478046"><ele></ele><time>2013-9-9T11:1:32Z</time></trkpt>
<trkpt lat="46.569344317540526" lon="7.032940126955509"><ele></ele><time>2013-9-9T11:1:35Z</time></trkpt>
<trkpt lat="46.569331996142864" lon="7.032933589071035"><ele></ele><time>2013-9-9T11:1:38Z</time></trkpt>
<trkpt lat="46.569289080798626" lon="7.032874496653676"><ele></ele><time>2013-9-9T11:1:41Z</time></trkpt>
<trkpt lat="46.56926142051816" lon="7.032835185527802"><ele></ele><time>2013-9-9T11:1:44Z</time></trkpt>
<trkpt lat="46.569251613691449" lon="7.03281506896019"><ele></ele><time>2013-9-9T11:1:47Z</time></trkpt>
<trkpt lat="46.56924432143569" lon="7.032790007069707"><ele></ele><time>2013-9-9T11:1:50Z</time></trkpt>
<trkpt lat="46.56923795118928" lon="7.032767124474049"><ele></ele><time>2013-9-9T11:1:53Z</time></trkpt>
<trkpt lat="46.569202831014991" lon="7.03266654163599"><ele></ele><time>2013-9-9T11:1:56Z</time></trkpt>
<trkpt lat="46.569185061380267" lon="7.032581213861704"><ele></ele><time>2013-9-9T11:1:59Z</time></trkpt>
<trkpt lat="46.569181876257062" lon="7.032559756189585"><ele></ele><time>2013-9-9T11:2:2Z</time></trkpt>
<trkpt lat="46.569179110229015" lon="7.03253804706037"><ele></ele><time>2013-9-9T11:2:5Z</time></trkpt>
<trkpt lat="46.56917592510581" lon="7.0325140748173"><ele></ele><time>2013-9-9T11:2:8Z</time></trkpt>
<trkpt lat="46.569173578172922" lon="7.032489264383912"><ele></ele><time>2013-9-9T11:2:11Z</time></trkpt>
<trkpt lat="46.569166453555226" lon="7.032381054013968"><ele></ele><time>2013-9-9T11:2:14Z</time></trkpt>
<trkpt lat="46.569148181006312" lon="7.032144768163562"><ele></ele><time>2013-9-9T11:2:17Z</time></trkpt>
<trkpt lat="46.569053465500474" lon="7.031957432627678"><ele></ele><time>2013-9-9T11:2:20Z</time></trkpt>
<trkpt lat="46.569022368639708" lon="7.031920216977596"><ele></ele><time>2013-9-9T11:2:23Z</time></trkpt>
<trkpt lat="46.569006694480777" lon="7.03190378844738"><ele></ele><time>2013-9-9T11:2:26Z</time></trkpt>
<trkpt lat="46.568991271778941" lon="7.031888281926513"><ele></ele><time>2013-9-9T11:2:29Z</time></trkpt>
<trkpt lat="46.568976519629359" lon="7.031873278319836"><ele></ele><time>2013-9-9T11:2:32Z</time></trkpt>
<trkpt lat="46.56896042637527" lon="7.031856765970588"><ele></ele><time>2013-9-9T11:2:35Z</time></trkpt>
<trkpt lat="46.568850539624691" lon="7.031741095706821"><ele></ele><time>2013-9-9T11:2:38Z</time></trkpt>
<trkpt lat="46.568833189085126" lon="7.031720727682114"><ele></ele><time>2013-9-9T11:2:41Z</time></trkpt>
<trkpt lat="46.568815922364593" lon="7.031699437648058"><ele></ele><time>2013-9-9T11:2:44Z</time></trkpt>
<trkpt lat="46.568799912929535" lon="7.031675884500146"><ele></ele><time>2013-9-9T11:2:47Z</time></trkpt>
<trkpt lat="46.568784071132541" lon="7.031651409342885"><ele></ele><time>2013-9-9T11:2:50Z</time></trkpt>
<trkpt lat="46.568769989535213" lon="7.031624587252736"><ele></ele><time>2013-9-9T11:2:53Z</time></trkpt>
<trkpt lat="46.568739814683795" lon="7.031484106555581"><ele></ele><time>2013-9-9T11:2:56Z</time></trkpt>
<trkpt lat="46.568768564611673" lon="7.031226279214025"><ele></ele><time>2013-9-9T11:2:59Z</time></trkpt>
<trkpt lat="46.568784322589636" lon="7.031099544838071"><ele></ele><time>2013-9-9T11:3:2Z</time></trkpt>
<trkpt lat="46.568786920979619" lon="7.031059814617038"><ele></ele><time>2013-9-9T11:3:5Z</time></trkpt>
<trkpt lat="46.568786920979619" lon="7.031019413843751"><ele></ele><time>2013-9-9T11:3:8Z</time></trkpt>
<trkpt lat="46.568783987313509" lon="7.030977588146925"><ele></ele><time>2013-9-9T11:3:11Z</time></trkpt>
<trkpt lat="46.568777784705162" lon="7.030938277021051"><ele></ele><time>2013-9-9T11:3:14Z</time></trkpt>
<trkpt lat="46.568668400868773" lon="7.030657147988677"><ele></ele><time>2013-9-9T11:3:17Z</time></trkpt>
<trkpt lat="46.568392049521208" lon="7.030171751976013"><ele></ele><time>2013-9-9T11:3:20Z</time></trkpt>
<trkpt lat="46.568343602120876" lon="7.030014339834452"><ele></ele><time>2013-9-9T11:3:23Z</time></trkpt>
<trkpt lat="46.5683389082551" lon="7.029893137514591"><ele></ele><time>2013-9-9T11:3:26Z</time></trkpt>
<trkpt lat="46.568337231874466" lon="7.02983295544982"><ele></ele><time>2013-9-9T11:3:29Z</time></trkpt>
<trkpt lat="46.568336058408022" lon="7.029774282127619"><ele></ele><time>2013-9-9T11:3:32Z</time></trkpt>
<trkpt lat="46.568337650969625" lon="7.029716363176704"><ele></ele><time>2013-9-9T11:3:35Z</time></trkpt>
<trkpt lat="46.568338656798005" lon="7.029660120606422"><ele></ele><time>2013-9-9T11:3:38Z</time></trkpt>
<trkpt lat="46.568355169147253" lon="7.029443113133311"><ele></ele><time>2013-9-9T11:3:41Z</time></trkpt>
<trkpt lat="46.568369334563613" lon="7.029342195019126"><ele></ele><time>2013-9-9T11:3:44Z</time></trkpt>
<trkpt lat="46.568380650132895" lon="7.029295088723302"><ele></ele><time>2013-9-9T11:3:47Z</time></trkpt>
<trkpt lat="46.568389032036066" lon="7.029242869466543"><ele></ele><time>2013-9-9T11:3:50Z</time></trkpt>
<trkpt lat="46.56839506700635" lon="7.029197691008449"><ele></ele><time>2013-9-9T11:3:53Z</time></trkpt>
<trkpt lat="46.568401185795665" lon="7.029157122597098"><ele></ele><time>2013-9-9T11:3:56Z</time></trkpt>
<trkpt lat="46.568431360647082" lon="7.029048493131995"><ele></ele><time>2013-9-9T11:3:59Z</time></trkpt>
<trkpt lat="46.568539822474122" lon="7.028862498700619"><ele></ele><time>2013-9-9T11:4:2Z</time></trkpt>
<trkpt lat="46.56873470172286" lon="7.02882737852633"><ele></ele><time>2013-9-9T11:4:5Z</time></trkpt>
<trkpt lat="46.569031001999974" lon="7.028715228661895"><ele></ele><time>2013-9-9T11:4:8Z</time></trkpt>
<trkpt lat="46.569398632273078" lon="7.028720509260893"><ele></ele><time>2013-9-9T11:4:11Z</time></trkpt>
<trkpt lat="46.569792414084077" lon="7.028768789023161"><ele></ele><time>2013-9-9T11:4:14Z</time></trkpt>
<trkpt lat="46.569916550070047" lon="7.028723526746035"><ele></ele><time>2013-9-9T11:4:17Z</time></trkpt>
<trkpt lat="46.569960135966539" lon="7.028702152892947"><ele></ele><time>2013-9-9T11:4:20Z</time></trkpt>
<trkpt lat="46.570003638044" lon="7.028680946677923"><ele></ele><time>2013-9-9T11:4:23Z</time></trkpt>
<trkpt lat="46.570047894492745" lon="7.028653034940362"><ele></ele><time>2013-9-9T11:4:26Z</time></trkpt>
<trkpt lat="46.570094833150506" lon="7.028612969443202"><ele></ele><time>2013-9-9T11:4:29Z</time></trkpt>
<trkpt lat="46.570138419046998" lon="7.028569802641869"><ele></ele><time>2013-9-9T11:4:32Z</time></trkpt>
<trkpt lat="46.570180328562856" lon="7.028533173725009"><ele></ele><time>2013-9-9T11:4:35Z</time></trkpt>
<trkpt lat="46.570224668830633" lon="7.028509117662907"><ele></ele><time>2013-9-9T11:4:38Z</time></trkpt>
<trkpt lat="46.570263896137476" lon="7.028498724102974"><ele></ele><time>2013-9-9T11:4:41Z</time></trkpt>
<trkpt lat="46.570297591388226" lon="7.0284921862185"><ele></ele><time>2013-9-9T11:4:44Z</time></trkpt>
<trkpt lat="46.570396246388555" lon="7.028520936146379"><ele></ele><time>2013-9-9T11:4:47Z</time></trkpt>
<trkpt lat="46.570424241945148" lon="7.028540382161737"><ele></ele><time>2013-9-9T11:4:50Z</time></trkpt>
<trkpt lat="46.570508144795895" lon="7.028604168444872"><ele></ele><time>2013-9-9T11:4:53Z</time></trkpt>
<trkpt lat="46.570534212514758" lon="7.028623949736357"><ele></ele><time>2013-9-9T11:4:56Z</time></trkpt>
<trkpt lat="46.57056363299489" lon="7.028642389923334"><ele></ele><time>2013-9-9T11:4:59Z</time></trkpt>
<trkpt lat="46.570596154779196" lon="7.028655549511313"><ele></ele><time>2013-9-9T11:5:2Z</time></trkpt>
<trkpt lat="46.570628425106406" lon="7.028667367994785"><ele></ele><time>2013-9-9T11:5:5Z</time></trkpt>
<trkpt lat="46.5706926304847" lon="7.028688490390778"><ele></ele><time>2013-9-9T11:5:8Z</time></trkpt>
<trkpt lat="46.570819448679686" lon="7.028723945841193"><ele></ele><time>2013-9-9T11:5:11Z</time></trkpt>
<trkpt lat="46.570847108960152" lon="7.028737189248204"><ele></ele><time>2013-9-9T11:5:14Z</time></trkpt>
<trkpt lat="46.57087535597384" lon="7.028746996074915"><ele></ele><time>2013-9-9T11:5:17Z</time></trkpt>
<trkpt lat="46.570906285196543" lon="7.028753031045198"><ele></ele><time>2013-9-9T11:5:20Z</time></trkpt>
<trkpt lat="46.570934783667326" lon="7.028755797073245"><ele></ele><time>2013-9-9T11:5:23Z</time></trkpt>
<trkpt lat="46.570956073701382" lon="7.028754958882928"><ele></ele><time>2013-9-9T11:5:26Z</time></trkpt>
<trkpt lat="46.571024637669325" lon="7.028737524524331"><ele></ele><time>2013-9-9T11:5:29Z</time></trkpt>
<trkpt lat="46.571023128926754" lon="7.028733333572745"><ele></ele><time>2013-9-9T11:5:32Z</time></trkpt>
<trkpt lat="46.5710224583745" lon="7.028729980811477"><ele></ele><time>2013-9-9T11:5:35Z</time></trkpt>
<trkpt lat="46.571021704003215" lon="7.028730232268572"><ele></ele><time>2013-9-9T11:5:38Z</time></trkpt>
<trkpt lat="46.571023548021913" lon="7.028730316087604"><ele></ele><time>2013-9-9T11:5:41Z</time></trkpt>
<trkpt lat="46.571018854156137" lon="7.028727801516652"><ele></ele><time>2013-9-9T11:5:44Z</time></trkpt>
<trkpt lat="46.57113729044795" lon="7.028683461248875"><ele></ele><time>2013-9-9T11:5:47Z</time></trkpt>
<trkpt lat="46.571159334853292" lon="7.028730399906635"><ele></ele><time>2013-9-9T11:5:50Z</time></trkpt>
<trkpt lat="46.571302330121398" lon="7.028962327167392"><ele></ele><time>2013-9-9T11:5:53Z</time></trkpt>
<trkpt lat="46.571356393396854" lon="7.029006499797106"><ele></ele><time>2013-9-9T11:5:56Z</time></trkpt>
<trkpt lat="46.571372905746102" lon="7.029017312452197"><ele></ele><time>2013-9-9T11:5:59Z</time></trkpt>
<trkpt lat="46.571388496086001" lon="7.029026281088591"><ele></ele><time>2013-9-9T11:6:2Z</time></trkpt>
<trkpt lat="46.571402074769139" lon="7.029040446504951"><ele></ele><time>2013-9-9T11:6:5Z</time></trkpt>
<trkpt lat="46.571418168023229" lon="7.029053270816803"><ele></ele><time>2013-9-9T11:6:8Z</time></trkpt>
<trkpt lat="46.571451527997851" lon="7.029080092906952"><ele></ele><time>2013-9-9T11:6:11Z</time></trkpt>
<trkpt lat="46.571556888520718" lon="7.029073052108288"><ele></ele><time>2013-9-9T11:6:14Z</time></trkpt>
<trkpt lat="46.571568371728063" lon="7.029073555022478"><ele></ele><time>2013-9-9T11:6:17Z</time></trkpt>
<trkpt lat="46.571574909612536" lon="7.029077326878905"><ele></ele><time>2013-9-9T11:6:20Z</time></trkpt>
<trkpt lat="46.571582369506359" lon="7.029080260545015"><ele></ele><time>2013-9-9T11:6:23Z</time></trkpt>
<trkpt lat="46.571602402254939" lon="7.02907657250762"><ele></ele><time>2013-9-9T11:6:26Z</time></trkpt>
<trkpt lat="46.571602150797844" lon="7.029063077643514"><ele></ele><time>2013-9-9T11:6:29Z</time></trkpt>
<trkpt lat="46.573164034634829" lon="7.024302072823048"><ele></ele><time>2013-9-9T11:6:32Z</time></trkpt>
<trkpt lat="46.573099493980408" lon="7.024328727275133"><ele></ele><time>2013-9-9T11:6:35Z</time></trkpt>
<trkpt lat="46.573015926405787" lon="7.024441044777632"><ele></ele><time>2013-9-9T11:6:38Z</time></trkpt>
<trkpt lat="46.572980806231499" lon="7.024503741413355"><ele></ele><time>2013-9-9T11:6:41Z</time></trkpt>
<trkpt lat="46.572967814281583" lon="7.024512458592653"><ele></ele><time>2013-9-9T11:6:44Z</time></trkpt>
<trkpt lat="46.572901010513306" lon="7.024548416957259"><ele></ele><time>2013-9-9T11:6:47Z</time></trkpt>
<trkpt lat="46.57288508489728" lon="7.024550177156925"><ele></ele><time>2013-9-9T11:6:50Z</time></trkpt>
<trkpt lat="46.572829931974411" lon="7.024545483291149"><ele></ele><time>2013-9-9T11:6:53Z</time></trkpt>
<trkpt lat="46.572814006358385" lon="7.024543639272451"><ele></ele><time>2013-9-9T11:6:56Z</time></trkpt>
<trkpt lat="46.572801517322659" lon="7.024539783596993"><ele></ele><time>2013-9-9T11:6:59Z</time></trkpt>
<trkpt lat="46.572785004973412" lon="7.024538107216358"><ele></ele><time>2013-9-9T11:7:2Z</time></trkpt>
<trkpt lat="46.572715602815151" lon="7.02448446303606"><ele></ele><time>2013-9-9T11:7:5Z</time></trkpt>
<trkpt lat="46.57257629558444" lon="7.024283716455102"><ele></ele><time>2013-9-9T11:7:8Z</time></trkpt>
<trkpt lat="46.572425421327353" lon="7.024088753387332"><ele></ele><time>2013-9-9T11:7:11Z</time></trkpt>
<trkpt lat="46.572390971705317" lon="7.024054219946265"><ele></ele><time>2013-9-9T11:7:14Z</time></trkpt>
<trkpt lat="46.572377057746053" lon="7.024034690111876"><ele></ele><time>2013-9-9T11:7:17Z</time></trkpt>
<trkpt lat="46.572364149615169" lon="7.024009125307202"><ele></ele><time>2013-9-9T11:7:20Z</time></trkpt>
<trkpt lat="46.572354761883616" lon="7.023981800302863"><ele></ele><time>2013-9-9T11:7:23Z</time></trkpt>
<trkpt lat="46.572343111038208" lon="7.023961935192347"><ele></ele><time>2013-9-9T11:7:26Z</time></trkpt>
<trkpt lat="46.572327939793468" lon="7.023944081738591"><ele></ele><time>2013-9-9T11:7:29Z</time></trkpt>
<trkpt lat="46.572280498221517" lon="7.0238814689219"><ele></ele><time>2013-9-9T11:7:32Z</time></trkpt>
<trkpt lat="46.572262309491634" lon="7.023866968229413"><ele></ele><time>2013-9-9T11:7:35Z</time></trkpt>
<trkpt lat="46.572241187095642" lon="7.023859927430749"><ele></ele><time>2013-9-9T11:7:38Z</time></trkpt>
<trkpt lat="46.572225093841553" lon="7.023861352354288"><ele></ele><time>2013-9-9T11:7:41Z</time></trkpt>
<trkpt lat="46.572209084406495" lon="7.023864286020398"><ele></ele><time>2013-9-9T11:7:44Z</time></trkpt>
<trkpt lat="46.572078913450241" lon="7.023831512778997"><ele></ele><time>2013-9-9T11:7:47Z</time></trkpt>
<trkpt lat="46.571997525170445" lon="7.02379647642374"><ele></ele><time>2013-9-9T11:7:50Z</time></trkpt>
<trkpt lat="46.571980593726039" lon="7.023785496130586"><ele></ele><time>2013-9-9T11:7:53Z</time></trkpt>
<trkpt lat="46.571958130225539" lon="7.02377594076097"><ele></ele><time>2013-9-9T11:7:56Z</time></trkpt>
<trkpt lat="46.571936924010515" lon="7.023765044286847"><ele></ele><time>2013-9-9T11:7:59Z</time></trkpt>
<trkpt lat="46.571857882663608" lon="7.023736629635096"><ele></ele><time>2013-9-9T11:8:2Z</time></trkpt>
<trkpt lat="46.571838604286313" lon="7.023730259388685"><ele></ele><time>2013-9-9T11:8:5Z</time></trkpt>
<trkpt lat="46.571821589022875" lon="7.023726487532258"><ele></ele><time>2013-9-9T11:8:8Z</time></trkpt>
<trkpt lat="46.571802897378802" lon="7.023717183619738"><ele></ele><time>2013-9-9T11:8:11Z</time></trkpt>
<trkpt lat="46.571784960106015" lon="7.023713663220406"><ele></ele><time>2013-9-9T11:8:14Z</time></trkpt>
<trkpt lat="46.571745732799172" lon="7.023703688755631"><ele></ele><time>2013-9-9T11:8:17Z</time></trkpt>
<trkpt lat="46.571727963164449" lon="7.023693881928921"><ele></ele><time>2013-9-9T11:8:20Z</time></trkpt>
<trkpt lat="46.571709103882313" lon="7.02367820776999"><ele></ele><time>2013-9-9T11:8:23Z</time></trkpt>
<trkpt lat="46.571689993143082" lon="7.02366890385747"><ele></ele><time>2013-9-9T11:8:26Z</time></trkpt>
<trkpt lat="46.571667110547423" lon="7.023656833916903"><ele></ele><time>2013-9-9T11:8:29Z</time></trkpt>
<trkpt lat="46.571539873257279" lon="7.023605955764651"><ele></ele><time>2013-9-9T11:8:32Z</time></trkpt>
<trkpt lat="46.571372738108039" lon="7.023531775921583"><ele></ele><time>2013-9-9T11:8:35Z</time></trkpt>
<trkpt lat="46.571205351501703" lon="7.023533368483186"><ele></ele><time>2013-9-9T11:8:38Z</time></trkpt>
<trkpt lat="46.571003934368491" lon="7.02351107262075"><ele></ele><time>2013-9-9T11:8:41Z</time></trkpt>
<trkpt lat="46.570975938811898" lon="7.023507971316576"><ele></ele><time>2013-9-9T11:8:44Z</time></trkpt>
<trkpt lat="46.570951463654637" lon="7.02349841594696"><ele></ele><time>2013-9-9T11:8:47Z</time></trkpt>
<trkpt lat="46.570923635736108" lon="7.023489782586694"><ele></ele><time>2013-9-9T11:8:50Z</time></trkpt>
<trkpt lat="46.570898909121752" lon="7.023483915254474"><ele></ele><time>2013-9-9T11:8:53Z</time></trkpt>
<trkpt lat="46.570824896916747" lon="7.023470923304558"><ele></ele><time>2013-9-9T11:8:56Z</time></trkpt>
<trkpt lat="46.570695480331779" lon="7.02352968044579"><ele></ele><time>2013-9-9T11:8:59Z</time></trkpt>
<trkpt lat="46.570534715428948" lon="7.023550132289529"><ele></ele><time>2013-9-9T11:9:2Z</time></trkpt>
<trkpt lat="46.570392893627286" lon="7.023520292714238"><ele></ele><time>2013-9-9T11:9:5Z</time></trkpt>
<trkpt lat="46.570385936647654" lon="7.023506043478847"><ele></ele><time>2013-9-9T11:9:8Z</time></trkpt>
<trkpt lat="46.570358360186219" lon="7.023492800071836"><ele></ele><time>2013-9-9T11:9:11Z</time></trkpt>
<trkpt lat="46.570344110950828" lon="7.023490536957979"><ele></ele><time>2013-9-9T11:9:14Z</time></trkpt>
<trkpt lat="46.570329442620277" lon="7.023486765101552"><ele></ele><time>2013-9-9T11:9:17Z</time></trkpt>
<trkpt lat="46.570310583338141" lon="7.023492129519582"><ele></ele><time>2013-9-9T11:9:20Z</time></trkpt>
<trkpt lat="46.57029096968472" lon="7.023497577756643"><ele></ele><time>2013-9-9T11:9:23Z</time></trkpt>
<trkpt lat="46.570234643295407" lon="7.023523896932602"><ele></ele><time>2013-9-9T11:9:26Z</time></trkpt>
<trkpt lat="46.570114782080054" lon="7.023588018491864"><ele></ele><time>2013-9-9T11:9:29Z</time></trkpt>
<trkpt lat="46.570027358829975" lon="7.023643339052796"><ele></ele><time>2013-9-9T11:9:32Z</time></trkpt>
<trkpt lat="46.569958711043" lon="7.0236845780164"><ele></ele><time>2013-9-9T11:9:35Z</time></trkpt>
<trkpt lat="46.569938259199262" lon="7.023693295195699"><ele></ele><time>2013-9-9T11:9:38Z</time></trkpt>
<trkpt lat="46.569916633889079" lon="7.023701341822743"><ele></ele><time>2013-9-9T11:9:41Z</time></trkpt>
<trkpt lat="46.569896265864372" lon="7.023708801716566"><ele></ele><time>2013-9-9T11:9:44Z</time></trkpt>
<trkpt lat="46.569876316934824" lon="7.023717602714896"><ele></ele><time>2013-9-9T11:9:47Z</time></trkpt>
<trkpt lat="46.569791156798601" lon="7.023729840293527"><ele></ele><time>2013-9-9T11:9:50Z</time></trkpt>
<trkpt lat="46.569744637235999" lon="7.023723218590021"><ele></ele><time>2013-9-9T11:9:53Z</time></trkpt>
<trkpt lat="46.569725275039673" lon="7.023717351257801"><ele></ele><time>2013-9-9T11:9:56Z</time></trkpt>
<trkpt lat="46.569707673043013" lon="7.023713244125247"><ele></ele><time>2013-9-9T11:9:59Z</time></trkpt>
<trkpt lat="46.569692334160209" lon="7.023714166134596"><ele></ele><time>2013-9-9T11:10:2Z</time></trkpt>
<trkpt lat="46.569676073268056" lon="7.023715255782008"><ele></ele><time>2013-9-9T11:10:5Z</time></trkpt>
<trkpt lat="46.569610442966223" lon="7.023738641291857"><ele></ele><time>2013-9-9T11:10:8Z</time></trkpt>
<trkpt lat="46.569591164588928" lon="7.023745598271489"><ele></ele><time>2013-9-9T11:10:11Z</time></trkpt>
<trkpt lat="46.569572389125824" lon="7.023754231631756"><ele></ele><time>2013-9-9T11:10:14Z</time></trkpt>
<trkpt lat="46.569554870948195" lon="7.023757332935929"><ele></ele><time>2013-9-9T11:10:17Z</time></trkpt>
<trkpt lat="46.569542130455375" lon="7.023754734545946"><ele></ele><time>2013-9-9T11:10:20Z</time></trkpt>
<trkpt lat="46.569485049694777" lon="7.023763451725245"><ele></ele><time>2013-9-9T11:10:23Z</time></trkpt>
<trkpt lat="46.56945395283401" lon="7.023763451725245"><ele></ele><time>2013-9-9T11:10:26Z</time></trkpt>
<trkpt lat="46.569443810731173" lon="7.023764457553625"><ele></ele><time>2013-9-9T11:10:29Z</time></trkpt>
<trkpt lat="46.569430818781257" lon="7.023765714839101"><ele></ele><time>2013-9-9T11:10:32Z</time></trkpt>
<trkpt lat="46.56941682100296" lon="7.023760266602039"><ele></ele><time>2013-9-9T11:10:35Z</time></trkpt>
<trkpt lat="46.569402320310473" lon="7.023763619363308"><ele></ele><time>2013-9-9T11:10:38Z</time></trkpt>
<trkpt lat="46.569358566775918" lon="7.023769402876496"><ele></ele><time>2013-9-9T11:10:41Z</time></trkpt>
<trkpt lat="46.569346077740192" lon="7.023775102570653"><ele></ele><time>2013-9-9T11:10:44Z</time></trkpt>
<trkpt lat="46.569331828504801" lon="7.023780466988683"><ele></ele><time>2013-9-9T11:10:47Z</time></trkpt>
<trkpt lat="46.569317830726504" lon="7.023788010701537"><ele></ele><time>2013-9-9T11:10:50Z</time></trkpt>
<trkpt lat="46.56930542550981" lon="7.023797985166311"><ele></ele><time>2013-9-9T11:10:53Z</time></trkpt>
<trkpt lat="46.569233424961567" lon="7.023807372897863"><ele></ele><time>2013-9-9T11:10:56Z</time></trkpt>
<trkpt lat="46.569219846278429" lon="7.023815670982003"><ele></ele><time>2013-9-9T11:10:59Z</time></trkpt>
<trkpt lat="46.569206183776259" lon="7.023823969066143"><ele></ele><time>2013-9-9T11:11:2Z</time></trkpt>
<trkpt lat="46.56919595785439" lon="7.023835284635425"><ele></ele><time>2013-9-9T11:11:5Z</time></trkpt>
<trkpt lat="46.569182798266411" lon="7.023843750357628"><ele></ele><time>2013-9-9T11:11:8Z</time></trkpt>
<trkpt lat="46.569166118279099" lon="7.023854982107878"><ele></ele><time>2013-9-9T11:11:11Z</time></trkpt>
<trkpt lat="46.56831837259233" lon="7.024111719802022"><ele></ele><time>2013-9-9T11:11:14Z</time></trkpt>
<trkpt lat="46.568257017061114" lon="7.024140385910869"><ele></ele><time>2013-9-9T11:11:17Z</time></trkpt>
<trkpt lat="46.568179400637746" lon="7.024151450023055"><ele></ele><time>2013-9-9T11:11:20Z</time></trkpt>
<trkpt lat="46.568166743963957" lon="7.024159329012036"><ele></ele><time>2013-9-9T11:11:23Z</time></trkpt>
<trkpt lat="46.568157020956278" lon="7.024162765592337"><ele></ele><time>2013-9-9T11:11:26Z</time></trkpt>
<trkpt lat="46.568148722872138" lon="7.024171818047762"><ele></ele><time>2013-9-9T11:11:29Z</time></trkpt>
<trkpt lat="46.568141933530569" lon="7.024174332618713"><ele></ele><time>2013-9-9T11:11:32Z</time></trkpt>
<trkpt lat="46.568110082298517" lon="7.024144409224391"><ele></ele><time>2013-9-9T11:11:35Z</time></trkpt>
<trkpt lat="46.567972199991345" lon="7.023966796696186"><ele></ele><time>2013-9-9T11:11:38Z</time></trkpt>
<trkpt lat="46.567867342382669" lon="7.023766469210386"><ele></ele><time>2013-9-9T11:11:41Z</time></trkpt>
<trkpt lat="46.567737339064479" lon="7.023687260225415"><ele></ele><time>2013-9-9T11:11:44Z</time></trkpt>
<trkpt lat="46.567523935809731" lon="7.02362640760839"><ele></ele><time>2013-9-9T11:11:47Z</time></trkpt>
<trkpt lat="46.567241298034787" lon="7.023504618555307"><ele></ele><time>2013-9-9T11:11:50Z</time></trkpt>
<trkpt lat="46.567197879776359" lon="7.023480059579015"><ele></ele><time>2013-9-9T11:11:53Z</time></trkpt>
<trkpt lat="46.567154042422771" lon="7.023459440097213"><ele></ele><time>2013-9-9T11:11:56Z</time></trkpt>
<trkpt lat="46.567112552002072" lon="7.023440999910235"><ele></ele><time>2013-9-9T11:11:59Z</time></trkpt>
<trkpt lat="46.567073911428452" lon="7.023424571380019"><ele></ele><time>2013-9-9T11:12:2Z</time></trkpt>
<trkpt lat="46.567037282511592" lon="7.02341141179204"><ele></ele><time>2013-9-9T11:12:5Z</time></trkpt>
<trkpt lat="46.567005263641477" lon="7.023394899442792"><ele></ele><time>2013-9-9T11:12:8Z</time></trkpt>
<trkpt lat="46.566914319992065" lon="7.023343602195382"><ele></ele><time>2013-9-9T11:12:11Z</time></trkpt>
<trkpt lat="46.566885821521282" lon="7.023332957178354"><ele></ele><time>2013-9-9T11:12:14Z</time></trkpt>
<trkpt lat="46.566857909783721" lon="7.023323653265834"><ele></ele><time>2013-9-9T11:12:17Z</time></trkpt>
<trkpt lat="46.566831087693572" lon="7.023318456485868"><ele></ele><time>2013-9-9T11:12:20Z</time></trkpt>
<trkpt lat="46.566801331937313" lon="7.02331661246717"><ele></ele><time>2013-9-9T11:12:23Z</time></trkpt>
<trkpt lat="46.56677040271461" lon="7.023320887237787"><ele></ele><time>2013-9-9T11:12:26Z</time></trkpt>
<trkpt lat="46.566617265343666" lon="7.023327676579356"><ele></ele><time>2013-9-9T11:12:29Z</time></trkpt>
<trkpt lat="46.566493296995759" lon="7.023160960525274"><ele></ele><time>2013-9-9T11:12:32Z</time></trkpt>
<trkpt lat="46.56632037833333" lon="7.02299801632762"><ele></ele><time>2013-9-9T11:12:35Z</time></trkpt>
<trkpt lat="46.566126504912972" lon="7.022885447368026"><ele></ele><time>2013-9-9T11:12:38Z</time></trkpt>
<trkpt lat="46.565960459411144" lon="7.022878155112267"><ele></ele><time>2013-9-9T11:12:41Z</time></trkpt>
<trkpt lat="46.565937325358391" lon="7.022887375205755"><ele></ele><time>2013-9-9T11:12:44Z</time></trkpt>
<trkpt lat="46.565916873514652" lon="7.02289491891861"><ele></ele><time>2013-9-9T11:12:47Z</time></trkpt>
<trkpt lat="46.56590161845088" lon="7.022896176204085"><ele></ele><time>2013-9-9T11:12:50Z</time></trkpt>
<trkpt lat="46.565885441377759" lon="7.022900534793735"><ele></ele><time>2013-9-9T11:12:53Z</time></trkpt>
<trkpt lat="46.565845124423504" lon="7.022896511480212"><ele></ele><time>2013-9-9T11:12:56Z</time></trkpt>
<trkpt lat="46.565833222121" lon="7.022890644147992"><ele></ele><time>2013-9-9T11:12:59Z</time></trkpt>
<trkpt lat="46.565819894894958" lon="7.022886369377375"><ele></ele><time>2013-9-9T11:13:2Z</time></trkpt>
<trkpt lat="46.565805226564407" lon="7.022880837321281"><ele></ele><time>2013-9-9T11:13:5Z</time></trkpt>
<trkpt lat="46.565791731700301" lon="7.02287488617003"><ele></ele><time>2013-9-9T11:13:8Z</time></trkpt>
<trkpt lat="46.565781505778432" lon="7.022871784865856"><ele></ele><time>2013-9-9T11:13:11Z</time></trkpt>
<trkpt lat="46.565668433904648" lon="7.022783607244492"><ele></ele><time>2013-9-9T11:13:14Z</time></trkpt>
<trkpt lat="46.565553937107325" lon="7.022621082141995"><ele></ele><time>2013-9-9T11:13:17Z</time></trkpt>
<trkpt lat="46.565479673445225" lon="7.022569868713617"><ele></ele><time>2013-9-9T11:13:20Z</time></trkpt>
<trkpt lat="46.565460730344057" lon="7.022557128220797"><ele></ele><time>2013-9-9T11:13:23Z</time></trkpt>
<trkpt lat="46.565440446138382" lon="7.022545309737325"><ele></ele><time>2013-9-9T11:13:26Z</time></trkpt>
<trkpt lat="46.565420413389802" lon="7.022533658891916"><ele></ele><time>2013-9-9T11:13:29Z</time></trkpt>
<trkpt lat="46.565397949889302" lon="7.022520499303937"><ele></ele><time>2013-9-9T11:13:32Z</time></trkpt>
<trkpt lat="46.565216230228543" lon="7.022394184023142"><ele></ele><time>2013-9-9T11:13:35Z</time></trkpt>
<trkpt lat="46.565114641562104" lon="7.02235596254468"><ele></ele><time>2013-9-9T11:13:38Z</time></trkpt>
<trkpt lat="46.565095447003841" lon="7.022351687774062"><ele></ele><time>2013-9-9T11:13:41Z</time></trkpt>
<trkpt lat="46.565078683197498" lon="7.022346490994096"><ele></ele><time>2013-9-9T11:13:44Z</time></trkpt>
<trkpt lat="46.56506116501987" lon="7.022342132404447"><ele></ele><time>2013-9-9T11:13:47Z</time></trkpt>
<trkpt lat="46.565043311566114" lon="7.022337187081575"><ele></ele><time>2013-9-9T11:13:50Z</time></trkpt>
<trkpt lat="46.564941219985485" lon="7.022317238152027"><ele></ele><time>2013-9-9T11:13:53Z</time></trkpt>
<trkpt lat="46.56492680311203" lon="7.022310281172395"><ele></ele><time>2013-9-9T11:13:56Z</time></trkpt>
<trkpt lat="46.564912218600512" lon="7.022303659468889"><ele></ele><time>2013-9-9T11:13:59Z</time></trkpt>
<trkpt lat="46.564897550269961" lon="7.022297540679574"><ele></ele><time>2013-9-9T11:14:2Z</time></trkpt>
<trkpt lat="46.564882546663284" lon="7.022292595356703"><ele></ele><time>2013-9-9T11:14:5Z</time></trkpt>
<trkpt lat="46.564868381246924" lon="7.022289913147688"><ele></ele><time>2013-9-9T11:14:8Z</time></trkpt>
<trkpt lat="46.564773833379149" lon="7.022262588143349"><ele></ele><time>2013-9-9T11:14:11Z</time></trkpt>
<trkpt lat="46.564761679619551" lon="7.02225680463016"><ele></ele><time>2013-9-9T11:14:14Z</time></trkpt>
<trkpt lat="46.56474893912673" lon="7.022251104936004"><ele></ele><time>2013-9-9T11:14:17Z</time></trkpt>
<trkpt lat="46.564735863357782" lon="7.022244902327657"><ele></ele><time>2013-9-9T11:14:20Z</time></trkpt>
<trkpt lat="46.564724128693342" lon="7.022239286452532"><ele></ele><time>2013-9-9T11:14:23Z</time></trkpt>
<trkpt lat="46.564594209194183" lon="7.022164687514305"><ele></ele><time>2013-9-9T11:14:26Z</time></trkpt>
<trkpt lat="46.564496140927076" lon="7.022114144638181"><ele></ele><time>2013-9-9T11:14:29Z</time></trkpt>
<trkpt lat="46.564481304958463" lon="7.022110791876912"><ele></ele><time>2013-9-9T11:14:32Z</time></trkpt>
<trkpt lat="46.564466217532754" lon="7.022108025848866"><ele></ele><time>2013-9-9T11:14:35Z</time></trkpt>
<trkpt lat="46.56445138156414" lon="7.02210484072566"><ele></ele><time>2013-9-9T11:14:38Z</time></trkpt>
<trkpt lat="46.564436880871654" lon="7.02210383489728"><ele></ele><time>2013-9-9T11:14:41Z</time></trkpt>
<trkpt lat="46.564422966912389" lon="7.022101320326328"><ele></ele><time>2013-9-9T11:14:44Z</time></trkpt>
<trkpt lat="46.564257256686687" lon="7.022074162960053"><ele></ele><time>2013-9-9T11:14:47Z</time></trkpt>
<trkpt lat="46.564228422939777" lon="7.022067122161388"><ele></ele><time>2013-9-9T11:14:50Z</time></trkpt>
<trkpt lat="46.564214089885354" lon="7.022064104676247"><ele></ele><time>2013-9-9T11:14:53Z</time></trkpt>
<trkpt lat="46.564200846478343" lon="7.022059997543693"><ele></ele><time>2013-9-9T11:14:56Z</time></trkpt>
<trkpt lat="46.56418995000422" lon="7.022056225687265"><ele></ele><time>2013-9-9T11:14:59Z</time></trkpt>
<trkpt lat="46.564179388806224" lon="7.02205203473568"><ele></ele><time>2013-9-9T11:15:2Z</time></trkpt>
<trkpt lat="46.56410881318152" lon="7.022042395547032"><ele></ele><time>2013-9-9T11:15:5Z</time></trkpt>
<trkpt lat="46.564080566167831" lon="7.022039880976081"><ele></ele><time>2013-9-9T11:15:8Z</time></trkpt>
<trkpt lat="46.564059779047966" lon="7.022037785500288"><ele></ele><time>2013-9-9T11:15:11Z</time></trkpt>
<trkpt lat="46.564042847603559" lon="7.022037198767066"><ele></ele><time>2013-9-9T11:15:14Z</time></trkpt>
<trkpt lat="46.564027005806565" lon="7.022035857662559"><ele></ele><time>2013-9-9T11:15:17Z</time></trkpt>
<trkpt lat="46.564011666923761" lon="7.02203594148159"><ele></ele><time>2013-9-9T11:15:20Z</time></trkpt>
<trkpt lat="46.563938492909074" lon="7.022049436345696"><ele></ele><time>2013-9-9T11:15:23Z</time></trkpt>
<trkpt lat="46.563909156247973" lon="7.022046586498618"><ele></ele><time>2013-9-9T11:15:26Z</time></trkpt>
<trkpt lat="46.56389239244163" lon="7.02204030007124"><ele></ele><time>2013-9-9T11:15:29Z</time></trkpt>
<trkpt lat="46.563877640292048" lon="7.022029319778085"><ele></ele><time>2013-9-9T11:15:32Z</time></trkpt>
<trkpt lat="46.563867330551147" lon="7.022015238180757"><ele></ele><time>2013-9-9T11:15:35Z</time></trkpt>
<trkpt lat="46.563846040517092" lon="7.021975424140692"><ele></ele><time>2013-9-9T11:15:38Z</time></trkpt>
<trkpt lat="46.563774878159165" lon="7.021923121064901"><ele></ele><time>2013-9-9T11:15:41Z</time></trkpt>
<trkpt lat="46.563755432143807" lon="7.021919097751379"><ele></ele><time>2013-9-9T11:15:44Z</time></trkpt>
<trkpt lat="46.563745457679033" lon="7.02191716991365"><ele></ele><time>2013-9-9T11:15:47Z</time></trkpt>
<trkpt lat="46.563736153766513" lon="7.021915828809142"><ele></ele><time>2013-9-9T11:15:50Z</time></trkpt>
<trkpt lat="46.563726514577866" lon="7.021913062781096"><ele></ele><time>2013-9-9T11:15:53Z</time></trkpt>
<trkpt lat="46.563717378303409" lon="7.021909290924668"><ele></ele><time>2013-9-9T11:15:56Z</time></trkpt>
<trkpt lat="46.563690304756165" lon="7.021894287317991"><ele></ele><time>2013-9-9T11:15:59Z</time></trkpt>
<trkpt lat="46.563685946166515" lon="7.02188984490931"><ele></ele><time>2013-9-9T11:16:2Z</time></trkpt>
<trkpt lat="46.56368175521493" lon="7.021884312853217"><ele></ele><time>2013-9-9T11:16:5Z</time></trkpt>
<trkpt lat="46.563677312806249" lon="7.021878026425839"><ele></ele><time>2013-9-9T11:16:8Z</time></trkpt>
<trkpt lat="46.563672535121441" lon="7.021872829645872"><ele></ele><time>2013-9-9T11:16:11Z</time></trkpt>
<trkpt lat="46.563631966710091" lon="7.021860592067242"><ele></ele><time>2013-9-9T11:16:14Z</time></trkpt>
<trkpt lat="46.563245141878724" lon="7.021868890151382"><ele></ele><time>2013-9-9T11:16:17Z</time></trkpt>
<trkpt lat="46.563219744712114" lon="7.021876266226172"><ele></ele><time>2013-9-9T11:16:20Z</time></trkpt>
<trkpt lat="46.563109941780567" lon="7.021876098588109"><ele></ele><time>2013-9-9T11:16:23Z</time></trkpt>
<trkpt lat="46.562966695055366" lon="7.021877272054553"><ele></ele><time>2013-9-9T11:16:26Z</time></trkpt>
<trkpt lat="46.562940208241343" lon="7.021879116073251"><ele></ele><time>2013-9-9T11:16:29Z</time></trkpt>
<trkpt lat="46.562916235998273" lon="7.021879702806473"><ele></ele><time>2013-9-9T11:16:32Z</time></trkpt>
<trkpt lat="46.562896957620978" lon="7.021879535168409"><ele></ele><time>2013-9-9T11:16:35Z</time></trkpt>
<trkpt lat="46.562877343967557" lon="7.021878194063902"><ele></ele><time>2013-9-9T11:16:38Z</time></trkpt>
<trkpt lat="46.562751950696111" lon="7.021885151043534"><ele></ele><time>2013-9-9T11:16:41Z</time></trkpt>
<trkpt lat="46.562648937106133" lon="7.021947093307972"><ele></ele><time>2013-9-9T11:16:44Z</time></trkpt>
<trkpt lat="46.562535110861063" lon="7.022163262590766"><ele></ele><time>2013-9-9T11:16:47Z</time></trkpt>
<trkpt lat="46.562529075890779" lon="7.022180445492268"><ele></ele><time>2013-9-9T11:16:50Z</time></trkpt>
<trkpt lat="46.562522118911147" lon="7.02219377271831"><ele></ele><time>2013-9-9T11:16:53Z</time></trkpt>
<trkpt lat="46.562508959323168" lon="7.022205339744687"><ele></ele><time>2013-9-9T11:16:56Z</time></trkpt>
<trkpt lat="46.562372334301472" lon="7.022225875407457"><ele></ele><time>2013-9-9T11:16:59Z</time></trkpt>
<trkpt lat="46.562343668192625" lon="7.022238532081246"><ele></ele><time>2013-9-9T11:17:2Z</time></trkpt>
<trkpt lat="46.562330257147551" lon="7.02224506996572"><ele></ele><time>2013-9-9T11:17:5Z</time></trkpt>
<trkpt lat="46.562317097559571" lon="7.022254541516304"><ele></ele><time>2013-9-9T11:17:8Z</time></trkpt>
<trkpt lat="46.562306033447385" lon="7.022262001410127"><ele></ele><time>2013-9-9T11:17:11Z</time></trkpt>
<trkpt lat="46.562293125316501" lon="7.022266443818808"><ele></ele><time>2013-9-9T11:17:14Z</time></trkpt>
<trkpt lat="46.562263621017337" lon="7.022275328636169"><ele></ele><time>2013-9-9T11:17:17Z</time></trkpt>
<trkpt lat="46.562159014865756" lon="7.022356633096933"><ele></ele><time>2013-9-9T11:17:20Z</time></trkpt>
<trkpt lat="46.562095060944557" lon="7.02240583486855"><ele></ele><time>2013-9-9T11:17:23Z</time></trkpt>
<trkpt lat="46.562080727890134" lon="7.022414803504944"><ele></ele><time>2013-9-9T11:17:26Z</time></trkpt>
<trkpt lat="46.562064550817013" lon="7.022420587018132"><ele></ele><time>2013-9-9T11:17:29Z</time></trkpt>
<trkpt lat="46.562049714848399" lon="7.022427627816796"><ele></ele><time>2013-9-9T11:17:32Z</time></trkpt>
<trkpt lat="46.56203311868012" lon="7.022434333339334"><ele></ele><time>2013-9-9T11:17:35Z</time></trkpt>
<trkpt lat="46.561999591067433" lon="7.022440871223807"><ele></ele><time>2013-9-9T11:17:38Z</time></trkpt>
<trkpt lat="46.561984419822693" lon="7.022445816546679"><ele></ele><time>2013-9-9T11:17:41Z</time></trkpt>
<trkpt lat="46.561971511691809" lon="7.022454617545009"><ele></ele><time>2013-9-9T11:17:44Z</time></trkpt>
<trkpt lat="46.561956759542227" lon="7.022464759647846"><ele></ele><time>2013-9-9T11:17:47Z</time></trkpt>
<trkpt lat="46.561937564983964" lon="7.022472470998764"><ele></ele><time>2013-9-9T11:17:50Z</time></trkpt>
<trkpt lat="46.56191979534924" lon="7.022479427978396"><ele></ele><time>2013-9-9T11:17:53Z</time></trkpt>
<trkpt lat="46.561854081228375" lon="7.022509770467877"><ele></ele><time>2013-9-9T11:17:56Z</time></trkpt>
<trkpt lat="46.561725167557597" lon="7.02255779877305"><ele></ele><time>2013-9-9T11:17:59Z</time></trkpt>
<trkpt lat="46.561705972999334" lon="7.022562073543668"><ele></ele><time>2013-9-9T11:18:2Z</time></trkpt>
<trkpt lat="46.561687532812357" lon="7.022562995553017"><ele></ele><time>2013-9-9T11:18:5Z</time></trkpt>
<trkpt lat="46.561669176444411" lon="7.022560648620129"><ele></ele><time>2013-9-9T11:18:8Z</time></trkpt>
<trkpt lat="46.561652831733227" lon="7.022555032745004"><ele></ele><time>2013-9-9T11:18:11Z</time></trkpt>
<trkpt lat="46.561507657170296" lon="7.02244883403182"><ele></ele><time>2013-9-9T11:18:14Z</time></trkpt>
<trkpt lat="46.561344461515546" lon="7.022294942289591"><ele></ele><time>2013-9-9T11:18:17Z</time></trkpt>
<trkpt lat="46.5611223410815" lon="7.022073911502957"><ele></ele><time>2013-9-9T11:18:20Z</time></trkpt>
<trkpt lat="46.560961827635765" lon="7.021845672279596"><ele></ele><time>2013-9-9T11:18:23Z</time></trkpt>
<trkpt lat="46.560944058001041" lon="7.021811893209815"><ele></ele><time>2013-9-9T11:18:26Z</time></trkpt>
<trkpt lat="46.560925953090191" lon="7.021778952330351"><ele></ele><time>2013-9-9T11:18:29Z</time></trkpt>
<trkpt lat="46.560909524559975" lon="7.021747520193458"><ele></ele><time>2013-9-9T11:18:32Z</time></trkpt>
<trkpt lat="46.560892593115568" lon="7.021724553778768"><ele></ele><time>2013-9-9T11:18:35Z</time></trkpt>
<trkpt lat="46.560875661671162" lon="7.021696977317333"><ele></ele><time>2013-9-9T11:18:38Z</time></trkpt>
<trkpt lat="46.560858143493533" lon="7.021670239046216"><ele></ele><time>2013-9-9T11:18:41Z</time></trkpt>
<trkpt lat="46.560839954763651" lon="7.021645763888955"><ele></ele><time>2013-9-9T11:18:44Z</time></trkpt>
<trkpt lat="46.560823107138276" lon="7.021630592644215"><ele></ele><time>2013-9-9T11:18:47Z</time></trkpt>
<trkpt lat="46.560804918408394" lon="7.021612571552396"><ele></ele><time>2013-9-9T11:18:50Z</time></trkpt>
<trkpt lat="46.560782957822084" lon="7.02159421518445"><ele></ele><time>2013-9-9T11:18:53Z</time></trkpt>
<trkpt lat="46.560615738853812" lon="7.021530931815505"><ele></ele><time>2013-9-9T11:18:56Z</time></trkpt>
<trkpt lat="46.560372160747647" lon="7.021403862163425"><ele></ele><time>2013-9-9T11:18:59Z</time></trkpt>
<trkpt lat="46.560089439153671" lon="7.021260363981128"><ele></ele><time>2013-9-9T11:19:2Z</time></trkpt>
<trkpt lat="46.560022467747331" lon="7.02123261988163"><ele></ele><time>2013-9-9T11:19:5Z</time></trkpt>
<trkpt lat="46.55998969450593" lon="7.021219544112682"><ele></ele><time>2013-9-9T11:19:8Z</time></trkpt>
<trkpt lat="46.559957088902593" lon="7.02120965346694"><ele></ele><time>2013-9-9T11:19:11Z</time></trkpt>
<trkpt lat="46.559924148023129" lon="7.021200517192483"><ele></ele><time>2013-9-9T11:19:14Z</time></trkpt>
<trkpt lat="46.559892380610108" lon="7.021193979308009"><ele></ele><time>2013-9-9T11:19:17Z</time></trkpt>
<trkpt lat="46.559766987338662" lon="7.021156931295991"><ele></ele><time>2013-9-9T11:19:20Z</time></trkpt>
<trkpt lat="46.559487199410796" lon="7.021000189706683"><ele></ele><time>2013-9-9T11:19:23Z</time></trkpt>
<trkpt lat="46.559458784759045" lon="7.020984767004848"><ele></ele><time>2013-9-9T11:19:26Z</time></trkpt>
<trkpt lat="46.559429867193103" lon="7.020973367616534"><ele></ele><time>2013-9-9T11:19:29Z</time></trkpt>
<trkpt lat="46.559399357065558" lon="7.02096289023757"><ele></ele><time>2013-9-9T11:19:32Z</time></trkpt>
<trkpt lat="46.559367757290602" lon="7.020954508334398"><ele></ele><time>2013-9-9T11:19:35Z</time></trkpt>
<trkpt lat="46.559219397604465" lon="7.020925590768457"><ele></ele><time>2013-9-9T11:19:38Z</time></trkpt>
<trkpt lat="46.558924857527018" lon="7.020849147811532"><ele></ele><time>2013-9-9T11:19:41Z</time></trkpt>
<trkpt lat="46.558871883898973" lon="7.020827438682318"><ele></ele><time>2013-9-9T11:19:44Z</time></trkpt>
<trkpt lat="46.558845564723015" lon="7.020815704017878"><ele></ele><time>2013-9-9T11:19:47Z</time></trkpt>
<trkpt lat="46.558820670470595" lon="7.020802963525057"><ele></ele><time>2013-9-9T11:19:50Z</time></trkpt>
<trkpt lat="46.558795943856239" lon="7.02079139649868"><ele></ele><time>2013-9-9T11:19:53Z</time></trkpt>
<trkpt lat="46.558772977441549" lon="7.02077915892005"><ele></ele><time>2013-9-9T11:19:56Z</time></trkpt>
<trkpt lat="46.558684380725026" lon="7.020748481154442"><ele></ele><time>2013-9-9T11:19:59Z</time></trkpt>
<trkpt lat="46.558662503957748" lon="7.020742697641254"><ele></ele><time>2013-9-9T11:20:2Z</time></trkpt>
<trkpt lat="46.558642135933042" lon="7.020735321566463"><ele></ele><time>2013-9-9T11:20:5Z</time></trkpt>
<trkpt lat="46.558623779565096" lon="7.020727694034576"><ele></ele><time>2013-9-9T11:20:8Z</time></trkpt>
<trkpt lat="46.558603662997484" lon="7.020720653235912"><ele></ele><time>2013-9-9T11:20:11Z</time></trkpt>
<trkpt lat="46.558582205325365" lon="7.020713277161121"><ele></ele><time>2013-9-9T11:20:14Z</time></trkpt>
<trkpt lat="46.558464355766773" lon="7.020692154765129"><ele></ele><time>2013-9-9T11:20:17Z</time></trkpt>
<trkpt lat="46.558452788740396" lon="7.020689053460956"><ele></ele><time>2013-9-9T11:20:20Z</time></trkpt>
<trkpt lat="46.558443401008844" lon="7.020686287432909"><ele></ele><time>2013-9-9T11:20:23Z</time></trkpt>
<trkpt lat="46.558428565040231" lon="7.02068243175745"><ele></ele><time>2013-9-9T11:20:26Z</time></trkpt>
<trkpt lat="46.558409286662936" lon="7.020681258291006"><ele></ele><time>2013-9-9T11:20:29Z</time></trkpt>
<trkpt lat="46.558385984972119" lon="7.020680168643594"><ele></ele><time>2013-9-9T11:20:32Z</time></trkpt>
<trkpt lat="46.558332340791821" lon="7.020680839195848"><ele></ele><time>2013-9-9T11:20:35Z</time></trkpt>
<trkpt lat="46.558317001909018" lon="7.020679917186499"><ele></ele><time>2013-9-9T11:20:38Z</time></trkpt>
<trkpt lat="46.558302333578467" lon="7.020678408443928"><ele></ele><time>2013-9-9T11:20:41Z</time></trkpt>
<trkpt lat="46.558286072686315" lon="7.020675977692008"><ele></ele><time>2013-9-9T11:20:44Z</time></trkpt>
<trkpt lat="46.558270398527384" lon="7.020675307139754"><ele></ele><time>2013-9-9T11:20:47Z</time></trkpt>
<trkpt lat="46.558257238939404" lon="7.020675139501691"><ele></ele><time>2013-9-9T11:20:50Z</time></trkpt>
<trkpt lat="46.558228321373463" lon="7.020671954378486"><ele></ele><time>2013-9-9T11:20:53Z</time></trkpt>
<trkpt lat="46.558216921985149" lon="7.020666422322393"><ele></ele><time>2013-9-9T11:20:56Z</time></trkpt>
<trkpt lat="46.558202002197504" lon="7.020663488656282"><ele></ele><time>2013-9-9T11:20:59Z</time></trkpt>
<trkpt lat="46.558202002197504" lon="7.020663488656282"><ele></ele><time>2013-9-9T11:21:2Z</time></trkpt>
<trkpt lat="46.55819152481854" lon="7.020660638809204"><ele></ele><time>2013-9-9T11:21:5Z</time></trkpt>
<trkpt lat="46.558182556182146" lon="7.020656950771809"><ele></ele><time>2013-9-9T11:21:8Z</time></trkpt>
<trkpt lat="46.558136623352766" lon="7.020626189187169"><ele></ele><time>2013-9-9T11:21:11Z</time></trkpt>
<trkpt lat="46.557693304494023" lon="7.020610263571143"><ele></ele><time>2013-9-9T11:21:14Z</time></trkpt>
<trkpt lat="46.557677043601871" lon="7.020605737343431"><ele></ele><time>2013-9-9T11:21:17Z</time></trkpt>
<trkpt lat="46.557660028338432" lon="7.020600456744432"><ele></ele><time>2013-9-9T11:21:20Z</time></trkpt>
<trkpt lat="46.557642510160804" lon="7.020594254136086"><ele></ele><time>2013-9-9T11:21:23Z</time></trkpt>
<trkpt lat="46.557625327259302" lon="7.020588638260961"><ele></ele><time>2013-9-9T11:21:26Z</time></trkpt>
<trkpt lat="46.557508315891027" lon="7.020577993243933"><ele></ele><time>2013-9-9T11:21:29Z</time></trkpt>
<trkpt lat="46.557494569569826" lon="7.020576987415552"><ele></ele><time>2013-9-9T11:21:32Z</time></trkpt>
<trkpt lat="46.557481158524752" lon="7.020576484501362"><ele></ele><time>2013-9-9T11:21:35Z</time></trkpt>
<trkpt lat="46.55746741220355" lon="7.020575981587172"><ele></ele><time>2013-9-9T11:21:38Z</time></trkpt>
<trkpt lat="46.557455761358142" lon="7.02057690359652"><ele></ele><time>2013-9-9T11:21:41Z</time></trkpt>
<trkpt lat="46.557372780516744" lon="7.02057396993041"><ele></ele><time>2013-9-9T11:21:44Z</time></trkpt>
<trkpt lat="46.557315029203892" lon="7.020546142011881"><ele></ele><time>2013-9-9T11:21:47Z</time></trkpt>
<trkpt lat="46.556597286835313" lon="7.020095698535442"><ele></ele><time>2013-9-9T11:21:50Z</time></trkpt>
<trkpt lat="46.556459236890078" lon="7.020089160650969"><ele></ele><time>2013-9-9T11:21:53Z</time></trkpt>
<trkpt lat="46.556283216923475" lon="7.020056387409568"><ele></ele><time>2013-9-9T11:21:56Z</time></trkpt>
<trkpt lat="46.556261591613293" lon="7.020054208114743"><ele></ele><time>2013-9-9T11:21:59Z</time></trkpt>
<trkpt lat="46.556239211931825" lon="7.020051190629602"><ele></ele><time>2013-9-9T11:22:2Z</time></trkpt>
<trkpt lat="46.556216161698103" lon="7.020048592239618"><ele></ele><time>2013-9-9T11:22:5Z</time></trkpt>
<trkpt lat="46.55619453638792" lon="7.020047502592206"><ele></ele><time>2013-9-9T11:22:8Z</time></trkpt>
<trkpt lat="46.55613292939961" lon="7.020048424601555"><ele></ele><time>2013-9-9T11:22:11Z</time></trkpt>
<trkpt lat="46.55611633323133" lon="7.020043395459652"><ele></ele><time>2013-9-9T11:22:14Z</time></trkpt>
<trkpt lat="46.556093282997608" lon="7.020040210336447"><ele></ele><time>2013-9-9T11:22:17Z</time></trkpt>
<trkpt lat="46.556079536676407" lon="7.020041719079018"><ele></ele><time>2013-9-9T11:22:20Z</time></trkpt>
<trkpt lat="46.556060425937176" lon="7.020039791241288"><ele></ele><time>2013-9-9T11:22:23Z</time></trkpt>
<trkpt lat="46.556045087054372" lon="7.020036857575178"><ele></ele><time>2013-9-9T11:22:26Z</time></trkpt>
<trkpt lat="46.556029161438346" lon="7.020037863403559"><ele></ele><time>2013-9-9T11:22:29Z</time></trkpt>
<trkpt lat="46.55601373873651" lon="7.020035181194544"><ele></ele><time>2013-9-9T11:22:32Z</time></trkpt>
<trkpt lat="46.555998148396611" lon="7.020028727129102"><ele></ele><time>2013-9-9T11:22:35Z</time></trkpt>
<trkpt lat="46.555982641875744" lon="7.020021602511406"><ele></ele><time>2013-9-9T11:22:38Z</time></trkpt>
<trkpt lat="46.555917598307133" lon="7.019979106262326"><ele></ele><time>2013-9-9T11:22:41Z</time></trkpt>
<trkpt lat="46.555901085957885" lon="7.019964521750808"><ele></ele><time>2013-9-9T11:22:44Z</time></trkpt>
<trkpt lat="46.55588666908443" lon="7.01994901522994"><ele></ele><time>2013-9-9T11:22:47Z</time></trkpt>
<trkpt lat="46.555874682962894" lon="7.0199338439852"><ele></ele><time>2013-9-9T11:22:50Z</time></trkpt>
<trkpt lat="46.555858589708805" lon="7.019914481788874"><ele></ele><time>2013-9-9T11:22:53Z</time></trkpt>
<trkpt lat="46.555843083187938" lon="7.019898304715753"><ele></ele><time>2013-9-9T11:22:56Z</time></trkpt>
<trkpt lat="46.555786840617657" lon="7.019833261147142"><ele></ele><time>2013-9-9T11:22:59Z</time></trkpt>
<trkpt lat="46.555773764848709" lon="7.019817670807242"><ele></ele><time>2013-9-9T11:23:2Z</time></trkpt>
<trkpt lat="46.555761862546206" lon="7.019801577553153"><ele></ele><time>2013-9-9T11:23:5Z</time></trkpt>
<trkpt lat="46.555748954415321" lon="7.01978238299489"><ele></ele><time>2013-9-9T11:23:8Z</time></trkpt>
<trkpt lat="46.555737135931849" lon="7.019756231456995"><ele></ele><time>2013-9-9T11:23:11Z</time></trkpt>
<trkpt lat="46.555697238072753" lon="7.019643494859338"><ele></ele><time>2013-9-9T11:23:14Z</time></trkpt>
<trkpt lat="46.555690616369247" lon="7.019624300301075"><ele></ele><time>2013-9-9T11:23:17Z</time></trkpt>
<trkpt lat="46.555686676874757" lon="7.019606363028288"><ele></ele><time>2013-9-9T11:23:20Z</time></trkpt>
<trkpt lat="46.555681312456727" lon="7.019585743546486"><ele></ele><time>2013-9-9T11:23:23Z</time></trkpt>
<trkpt lat="46.555674858391285" lon="7.019564956426621"><ele></ele><time>2013-9-9T11:23:26Z</time></trkpt>
<trkpt lat="46.555627752095461" lon="7.01944668777287"><ele></ele><time>2013-9-9T11:23:29Z</time></trkpt>
<trkpt lat="46.555605540052056" lon="7.019386421889067"><ele></ele><time>2013-9-9T11:23:32Z</time></trkpt>
<trkpt lat="46.555597493425012" lon="7.019365802407265"><ele></ele><time>2013-9-9T11:23:35Z</time></trkpt>
<trkpt lat="46.555590955540538" lon="7.019343338906765"><ele></ele><time>2013-9-9T11:23:38Z</time></trkpt>
<trkpt lat="46.555582908913493" lon="7.019316516816616"><ele></ele><time>2013-9-9T11:23:41Z</time></trkpt>
<trkpt lat="46.55557494610548" lon="7.01929128728807"><ele></ele><time>2013-9-9T11:23:44Z</time></trkpt>
<trkpt lat="46.555550554767251" lon="7.019221968948841"><ele></ele><time>2013-9-9T11:23:47Z</time></trkpt>
<trkpt lat="46.555540664121509" lon="7.019203025847673"><ele></ele><time>2013-9-9T11:23:50Z</time></trkpt>
<trkpt lat="46.555532030761242" lon="7.019187267869711"><ele></ele><time>2013-9-9T11:23:53Z</time></trkpt>
<trkpt lat="46.555527001619339" lon="7.019171342253685"><ele></ele><time>2013-9-9T11:23:56Z</time></trkpt>
<trkpt lat="46.5555255766958" lon="7.019152063876391"><ele></ele><time>2013-9-9T11:23:59Z</time></trkpt>
<trkpt lat="46.555488528683782" lon="7.019052822142839"><ele></ele><time>2013-9-9T11:24:2Z</time></trkpt>
<trkpt lat="46.555478218942881" lon="7.019029771909118"><ele></ele><time>2013-9-9T11:24:5Z</time></trkpt>
<trkpt lat="46.555467322468758" lon="7.019011918455362"><ele></ele><time>2013-9-9T11:24:8Z</time></trkpt>
<trkpt lat="46.555457850918174" lon="7.018994148820639"><ele></ele><time>2013-9-9T11:24:11Z</time></trkpt>
<trkpt lat="46.555441757664084" lon="7.01897906139493"><ele></ele><time>2013-9-9T11:24:14Z</time></trkpt>
<trkpt lat="46.555368416011333" lon="7.018870431929827"><ele></ele><time>2013-9-9T11:24:17Z</time></trkpt>
<trkpt lat="46.55533698387444" lon="7.018792815506458"><ele></ele><time>2013-9-9T11:24:20Z</time></trkpt>
<trkpt lat="46.555335307493806" lon="7.01877236366272"><ele></ele><time>2013-9-9T11:24:23Z</time></trkpt>
<trkpt lat="46.555331451818347" lon="7.018752414733172"><ele></ele><time>2013-9-9T11:24:26Z</time></trkpt>
<trkpt lat="46.555325416848063" lon="7.018731879070401"><ele></ele><time>2013-9-9T11:24:29Z</time></trkpt>
<trkpt lat="46.555320722982287" lon="7.018712852150202"><ele></ele><time>2013-9-9T11:24:32Z</time></trkpt>
<trkpt lat="46.555309155955911" lon="7.018696004524827"><ele></ele><time>2013-9-9T11:24:35Z</time></trkpt>
<trkpt lat="46.555195497348905" lon="7.018513362854719"><ele></ele><time>2013-9-9T11:24:38Z</time></trkpt>
<trkpt lat="46.555172530934215" lon="7.018482517451048"><ele></ele><time>2013-9-9T11:24:41Z</time></trkpt>
<trkpt lat="46.555160544812679" lon="7.018463741987944"><ele></ele><time>2013-9-9T11:24:44Z</time></trkpt>
<trkpt lat="46.555154761299491" lon="7.018444882705808"><ele></ele><time>2013-9-9T11:24:47Z</time></trkpt>
<trkpt lat="46.555148474872112" lon="7.018424849957228"><ele></ele><time>2013-9-9T11:24:50Z</time></trkpt>
<trkpt lat="46.555143613368273" lon="7.018403895199299"><ele></ele><time>2013-9-9T11:24:53Z</time></trkpt>
<trkpt lat="46.555129028856754" lon="7.018344886600971"><ele></ele><time>2013-9-9T11:24:56Z</time></trkpt>
<trkpt lat="46.555136991664767" lon="7.018321501091123"><ele></ele><time>2013-9-9T11:24:59Z</time></trkpt>
<trkpt lat="46.555085359141231" lon="7.018174566328526"><ele></ele><time>2013-9-9T11:25:2Z</time></trkpt>
<trkpt lat="46.555084101855755" lon="7.018157383427024"><ele></ele><time>2013-9-9T11:25:5Z</time></trkpt>
<trkpt lat="46.555083096027374" lon="7.018140703439713"><ele></ele><time>2013-9-9T11:25:8Z</time></trkpt>
<trkpt lat="46.555075384676456" lon="7.018128046765924"><ele></ele><time>2013-9-9T11:25:11Z</time></trkpt>
<trkpt lat="46.555065074935555" lon="7.018079934641719"><ele></ele><time>2013-9-9T11:25:14Z</time></trkpt>
<trkpt lat="46.555059542879462" lon="7.018032157793641"><ele></ele><time>2013-9-9T11:25:17Z</time></trkpt>
<trkpt lat="46.555058117955923" lon="7.018012125045061"><ele></ele><time>2013-9-9T11:25:20Z</time></trkpt>
<trkpt lat="46.555051244795322" lon="7.017994690686464"><ele></ele><time>2013-9-9T11:25:23Z</time></trkpt>
<trkpt lat="46.555044958367944" lon="7.017981447279453"><ele></ele><time>2013-9-9T11:25:26Z</time></trkpt>
<trkpt lat="46.555038504302502" lon="7.017966108396649"><ele></ele><time>2013-9-9T11:25:29Z</time></trkpt>
<trkpt lat="46.555031798779964" lon="7.01794708147645"><ele></ele><time>2013-9-9T11:25:32Z</time></trkpt>
<trkpt lat="46.55502718873322" lon="7.01792411506176"><ele></ele><time>2013-9-9T11:25:35Z</time></trkpt>
<trkpt lat="46.55502081848681" lon="7.017849013209343"><ele></ele><time>2013-9-9T11:25:38Z</time></trkpt>
<trkpt lat="46.555021489039063" lon="7.017831327393651"><ele></ele><time>2013-9-9T11:25:41Z</time></trkpt>
<trkpt lat="46.555019142106175" lon="7.017808947712183"><ele></ele><time>2013-9-9T11:25:44Z</time></trkpt>
<trkpt lat="46.55501889064908" lon="7.017785981297493"><ele></ele><time>2013-9-9T11:25:47Z</time></trkpt>
<trkpt lat="46.555015789344907" lon="7.017760835587978"><ele></ele><time>2013-9-9T11:25:50Z</time></trkpt>
<trkpt lat="46.555007491260767" lon="7.017692187801004"><ele></ele><time>2013-9-9T11:25:53Z</time></trkpt>
<trkpt lat="46.554991649463773" lon="7.017586408182979"><ele></ele><time>2013-9-9T11:25:56Z</time></trkpt>
<trkpt lat="46.554979747161269" lon="7.017538715153933"><ele></ele><time>2013-9-9T11:25:59Z</time></trkpt>
<trkpt lat="46.55494311824441" lon="7.017342997714877"><ele></ele><time>2013-9-9T11:26:2Z</time></trkpt>
<trkpt lat="46.554939011111856" lon="7.017292119562626"><ele></ele><time>2013-9-9T11:26:5Z</time></trkpt>
<trkpt lat="46.554935071617365" lon="7.017270242795348"><ele></ele><time>2013-9-9T11:26:8Z</time></trkpt>
<trkpt lat="46.554928869009018" lon="7.017244258895516"><ele></ele><time>2013-9-9T11:26:11Z</time></trkpt>
<trkpt lat="46.554921576753259" lon="7.017221208661795"><ele></ele><time>2013-9-9T11:26:14Z</time></trkpt>
<trkpt lat="46.554915122687817" lon="7.017192961648107"><ele></ele><time>2013-9-9T11:26:17Z</time></trkpt>
<trkpt lat="46.554900538176298" lon="7.017135210335255"><ele></ele><time>2013-9-9T11:26:20Z</time></trkpt>
<trkpt lat="46.554895928129554" lon="7.017093049362302"><ele></ele><time>2013-9-9T11:26:23Z</time></trkpt>
<trkpt lat="46.554892994463444" lon="7.017070334404707"><ele></ele><time>2013-9-9T11:26:26Z</time></trkpt>
<trkpt lat="46.554891653358936" lon="7.017046445980668"><ele></ele><time>2013-9-9T11:26:29Z</time></trkpt>
<trkpt lat="46.554888971149921" lon="7.017019623890519"><ele></ele><time>2013-9-9T11:26:32Z</time></trkpt>
<trkpt lat="46.554884528741241" lon="7.016992466524243"><ele></ele><time>2013-9-9T11:26:35Z</time></trkpt>
<trkpt lat="46.554872961714864" lon="7.016889788210392"><ele></ele><time>2013-9-9T11:26:38Z</time></trkpt>
<trkpt lat="46.554870363324881" lon="7.016868917271495"><ele></ele><time>2013-9-9T11:26:41Z</time></trkpt>
<trkpt lat="46.554864915087819" lon="7.01684863306582"><ele></ele><time>2013-9-9T11:26:44Z</time></trkpt>
<trkpt lat="46.554866256192327" lon="7.01682667247951"><ele></ele><time>2013-9-9T11:26:47Z</time></trkpt>
<trkpt lat="46.554864579811692" lon="7.016813680529594"><ele></ele><time>2013-9-9T11:26:50Z</time></trkpt>
<trkpt lat="46.554864998906851" lon="7.01681200414896"><ele></ele><time>2013-9-9T11:26:53Z</time></trkpt>
<trkpt lat="46.554804649204016" lon="7.016286291182041"><ele></ele><time>2013-9-9T11:26:56Z</time></trkpt>
<trkpt lat="46.554762152954936" lon="7.016109265387058"><ele></ele><time>2013-9-9T11:26:59Z</time></trkpt>
<trkpt lat="46.554698031395674" lon="7.015925534069538"><ele></ele><time>2013-9-9T11:27:2Z</time></trkpt>
<trkpt lat="46.554688978940248" lon="7.015901561826468"><ele></ele><time>2013-9-9T11:27:5Z</time></trkpt>
<trkpt lat="46.554677411913872" lon="7.015875577926636"><ele></ele><time>2013-9-9T11:27:8Z</time></trkpt>
<trkpt lat="46.554671628400683" lon="7.015851186588407"><ele></ele><time>2013-9-9T11:27:11Z</time></trkpt>
<trkpt lat="46.554664922878146" lon="7.015824280679226"><ele></ele><time>2013-9-9T11:27:14Z</time></trkpt>
<trkpt lat="46.554635753855109" lon="7.015742054209113"><ele></ele><time>2013-9-9T11:27:17Z</time></trkpt>
<trkpt lat="46.554580181837082" lon="7.015579529106617"><ele></ele><time>2013-9-9T11:27:20Z</time></trkpt>
<trkpt lat="46.554574565961957" lon="7.015548013150692"><ele></ele><time>2013-9-9T11:27:23Z</time></trkpt>
<trkpt lat="46.554566603153944" lon="7.015520688146353"><ele></ele><time>2013-9-9T11:27:26Z</time></trkpt>
<trkpt lat="46.554561322554946" lon="7.015489339828491"><ele></ele><time>2013-9-9T11:27:29Z</time></trkpt>
<trkpt lat="46.554558640345931" lon="7.015463104471564"><ele></ele><time>2013-9-9T11:27:32Z</time></trkpt>
<trkpt lat="46.554557047784328" lon="7.015430079773068"><ele></ele><time>2013-9-9T11:27:35Z</time></trkpt>
<trkpt lat="46.554558724164963" lon="7.015414573252201"><ele></ele><time>2013-9-9T11:27:38Z</time></trkpt>
<trkpt lat="46.554559394717216" lon="7.015327820554376"><ele></ele><time>2013-9-9T11:27:41Z</time></trkpt>
<trkpt lat="46.554559813812375" lon="7.015309715643525"><ele></ele><time>2013-9-9T11:27:44Z</time></trkpt>
<trkpt lat="46.554565513506532" lon="7.015272499993444"><ele></ele><time>2013-9-9T11:27:47Z</time></trkpt>
<trkpt lat="46.554569872096181" lon="7.015249282121658"><ele></ele><time>2013-9-9T11:27:50Z</time></trkpt>
<trkpt lat="46.554573476314545" lon="7.015223549678922"><ele></ele><time>2013-9-9T11:27:53Z</time></trkpt>
<trkpt lat="46.55456786043942" lon="7.015202846378088"><ele></ele><time>2013-9-9T11:27:56Z</time></trkpt>
<trkpt lat="46.554564004763961" lon="7.01518096961081"><ele></ele><time>2013-9-9T11:27:59Z</time></trkpt>
<trkpt lat="46.554560484364629" lon="7.015085918828845"><ele></ele><time>2013-9-9T11:28:2Z</time></trkpt>
<trkpt lat="46.554568195715547" lon="7.015057420358062"><ele></ele><time>2013-9-9T11:28:5Z</time></trkpt>
<trkpt lat="46.5545688662678" lon="7.015028670430183"><ele></ele><time>2013-9-9T11:28:8Z</time></trkpt>
<trkpt lat="46.55457179993391" lon="7.015002770349383"><ele></ele><time>2013-9-9T11:28:11Z</time></trkpt>
<trkpt lat="46.554572219029069" lon="7.014973433688283"><ele></ele><time>2013-9-9T11:28:14Z</time></trkpt>
<trkpt lat="46.554572805762291" lon="7.014918448403478"><ele></ele><time>2013-9-9T11:28:17Z</time></trkpt>
<trkpt lat="46.554583786055446" lon="7.014815015718341"><ele></ele><time>2013-9-9T11:28:20Z</time></trkpt>
<trkpt lat="46.554582444950938" lon="7.014790959656239"><ele></ele><time>2013-9-9T11:28:23Z</time></trkpt>
<trkpt lat="46.554582361131907" lon="7.014763886108995"><ele></ele><time>2013-9-9T11:28:26Z</time></trkpt>
<trkpt lat="46.554582780227065" lon="7.014733962714672"><ele></ele><time>2013-9-9T11:28:29Z</time></trkpt>
<trkpt lat="46.554577834904194" lon="7.014582837000489"><ele></ele><time>2013-9-9T11:28:32Z</time></trkpt>
<trkpt lat="46.554583618417382" lon="7.014551991596818"><ele></ele><time>2013-9-9T11:28:35Z</time></trkpt>
<trkpt lat="46.554580181837082" lon="7.014502035453916"><ele></ele><time>2013-9-9T11:28:38Z</time></trkpt>
<trkpt lat="46.554588312283158" lon="7.014482170343399"><ele></ele><time>2013-9-9T11:28:41Z</time></trkpt>
<trkpt lat="46.554636592045426" lon="7.014355687424541"><ele></ele><time>2013-9-9T11:28:44Z</time></trkpt>
<trkpt lat="46.55470909550786" lon="7.014172039926052"><ele></ele><time>2013-9-9T11:28:47Z</time></trkpt>
<trkpt lat="46.554672634229064" lon="7.014007167890668"><ele></ele><time>2013-9-9T11:28:50Z</time></trkpt>
<trkpt lat="46.554675735533237" lon="7.013770211488009"><ele></ele><time>2013-9-9T11:28:53Z</time></trkpt>
<trkpt lat="46.554782688617706" lon="7.013455554842949"><ele></ele><time>2013-9-9T11:28:56Z</time></trkpt>
<trkpt lat="46.55479559674859" lon="7.013408364728093"><ele></ele><time>2013-9-9T11:28:59Z</time></trkpt>
<trkpt lat="46.554812779650092" lon="7.013370478525758"><ele></ele><time>2013-9-9T11:29:2Z</time></trkpt>
<trkpt lat="46.554829124361277" lon="7.013327982276678"><ele></ele><time>2013-9-9T11:29:5Z</time></trkpt>
<trkpt lat="46.554845217615366" lon="7.01328556984663"><ele></ele><time>2013-9-9T11:29:8Z</time></trkpt>
<trkpt lat="46.554850833490491" lon="7.013253048062325"><ele></ele><time>2013-9-9T11:29:11Z</time></trkpt>
<trkpt lat="46.554930545389652" lon="7.013150621205568"><ele></ele><time>2013-9-9T11:29:14Z</time></trkpt>
<trkpt lat="46.555098686367273" lon="7.013025563210249"><ele></ele><time>2013-9-9T11:29:17Z</time></trkpt>
<trkpt lat="46.55525291338563" lon="7.013037381693721"><ele></ele><time>2013-9-9T11:29:20Z</time></trkpt>
<trkpt lat="46.555410828441381" lon="7.012952724471688"><ele></ele><time>2013-9-9T11:29:23Z</time></trkpt>
<trkpt lat="46.555451564490795" lon="7.012905450537801"><ele></ele><time>2013-9-9T11:29:26Z</time></trkpt>
<trkpt lat="46.555467406287789" lon="7.012773854658008"><ele></ele><time>2013-9-9T11:29:29Z</time></trkpt>
<trkpt lat="46.555451145395637" lon="7.012711493298411"><ele></ele><time>2013-9-9T11:29:32Z</time></trkpt>
<trkpt lat="46.555446870625019" lon="7.012666901573539"><ele></ele><time>2013-9-9T11:29:35Z</time></trkpt>
<trkpt lat="46.555437566712499" lon="7.012624489143491"><ele></ele><time>2013-9-9T11:29:38Z</time></trkpt>
<trkpt lat="46.555431196466088" lon="7.01258635148406"><ele></ele><time>2013-9-9T11:29:41Z</time></trkpt>
<trkpt lat="46.555380905047059" lon="7.012322908267379"><ele></ele><time>2013-9-9T11:29:44Z</time></trkpt>
<trkpt lat="46.555284596979618" lon="7.01205468736589"><ele></ele><time>2013-9-9T11:29:47Z</time></trkpt>
<trkpt lat="46.555227600038052" lon="7.011801050975919"><ele></ele><time>2013-9-9T11:29:50Z</time></trkpt>
<trkpt lat="46.555211674422026" lon="7.011601142585278"><ele></ele><time>2013-9-9T11:29:53Z</time></trkpt>
<trkpt lat="46.555122910067439" lon="7.011399222537875"><ele></ele><time>2013-9-9T11:29:56Z</time></trkpt>
<trkpt lat="46.555073792114854" lon="7.011284977197647"><ele></ele><time>2013-9-9T11:29:59Z</time></trkpt>
<trkpt lat="46.555021153762937" lon="7.01112924143672"><ele></ele><time>2013-9-9T11:30:2Z</time></trkpt>
<trkpt lat="46.554995086044073" lon="7.011050283908844"><ele></ele><time>2013-9-9T11:30:5Z</time></trkpt>
<trkpt lat="46.554972203448415" lon="7.010976271703839"><ele></ele><time>2013-9-9T11:30:8Z</time></trkpt>
<trkpt lat="46.554943956434727" lon="7.010892704129219"><ele></ele><time>2013-9-9T11:30:11Z</time></trkpt>
<trkpt lat="46.554915625602007" lon="7.010825900360942"><ele></ele><time>2013-9-9T11:30:14Z</time></trkpt>
<trkpt lat="46.554868016391993" lon="7.010712325572968"><ele></ele><time>2013-9-9T11:30:17Z</time></trkpt>
<trkpt lat="46.554726278409362" lon="7.010295325890183"><ele></ele><time>2013-9-9T11:30:20Z</time></trkpt>
<trkpt lat="46.554697025567293" lon="7.010179487988353"><ele></ele><time>2013-9-9T11:30:23Z</time></trkpt>
<trkpt lat="46.554681854322553" lon="7.010137410834432"><ele></ele><time>2013-9-9T11:30:26Z</time></trkpt>
<trkpt lat="46.554666515439749" lon="7.010098686441779"><ele></ele><time>2013-9-9T11:30:29Z</time></trkpt>
<trkpt lat="46.554652266204357" lon="7.010064488276839"><ele></ele><time>2013-9-9T11:30:32Z</time></trkpt>
<trkpt lat="46.554639358073473" lon="7.010037582367659"><ele></ele><time>2013-9-9T11:30:35Z</time></trkpt>
<trkpt lat="46.554597029462457" lon="7.009978741407394"><ele></ele><time>2013-9-9T11:30:38Z</time></trkpt>
<trkpt lat="46.554493429139256" lon="7.009797440841794"><ele></ele><time>2013-9-9T11:30:41Z</time></trkpt>
<trkpt lat="46.554419752210379" lon="7.009648829698563"><ele></ele><time>2013-9-9T11:30:44Z</time></trkpt>
<trkpt lat="46.554416734725237" lon="7.009626785293222"><ele></ele><time>2013-9-9T11:30:47Z</time></trkpt>
<trkpt lat="46.554404078051448" lon="7.009574482217431"><ele></ele><time>2013-9-9T11:30:50Z</time></trkpt>
<trkpt lat="46.554400641471148" lon="7.009534081444144"><ele></ele><time>2013-9-9T11:30:53Z</time></trkpt>
<trkpt lat="46.554398881271482" lon="7.009442802518606"><ele></ele><time>2013-9-9T11:30:56Z</time></trkpt>
<trkpt lat="46.554397875443101" lon="7.009282289072871"><ele></ele><time>2013-9-9T11:30:59Z</time></trkpt>
<trkpt lat="46.554434671998024" lon="7.009127978235483"><ele></ele><time>2013-9-9T11:31:2Z</time></trkpt>
<trkpt lat="46.554434252902865" lon="7.009009877219796"><ele></ele><time>2013-9-9T11:31:5Z</time></trkpt>
<trkpt lat="46.554440623149276" lon="7.00892454944551"><ele></ele><time>2013-9-9T11:31:8Z</time></trkpt>
<trkpt lat="46.554449507966638" lon="7.008797815069556"><ele></ele><time>2013-9-9T11:31:11Z</time></trkpt>
<trkpt lat="46.554459985345602" lon="7.008768394589424"><ele></ele><time>2013-9-9T11:31:14Z</time></trkpt>
<trkpt lat="46.554491920396686" lon="7.008705027401447"><ele></ele><time>2013-9-9T11:31:17Z</time></trkpt>
<trkpt lat="46.554521843791008" lon="7.008657502010465"><ele></ele><time>2013-9-9T11:31:20Z</time></trkpt>
<trkpt lat="46.554551180452108" lon="7.008586255833507"><ele></ele><time>2013-9-9T11:31:23Z</time></trkpt>
<trkpt lat="46.554567022249103" lon="7.008552560582757"><ele></ele><time>2013-9-9T11:31:26Z</time></trkpt>
<trkpt lat="46.554581858217716" lon="7.00852045789361"><ele></ele><time>2013-9-9T11:31:29Z</time></trkpt>
<trkpt lat="46.55460256151855" lon="7.008491372689605"><ele></ele><time>2013-9-9T11:31:32Z</time></trkpt>
<trkpt lat="46.554617900401354" lon="7.008461281657219"><ele></ele><time>2013-9-9T11:31:35Z</time></trkpt>
<trkpt lat="46.554630724713206" lon="7.008434291929007"><ele></ele><time>2013-9-9T11:31:38Z</time></trkpt>
<trkpt lat="46.554643213748932" lon="7.008343851193786"><ele></ele><time>2013-9-9T11:31:41Z</time></trkpt>
<trkpt lat="46.554640950635076" lon="7.0083171967417"><ele></ele><time>2013-9-9T11:31:44Z</time></trkpt>
<trkpt lat="46.554647404700518" lon="7.00828299857676"><ele></ele><time>2013-9-9T11:31:47Z</time></trkpt>
<trkpt lat="46.55464799143374" lon="7.008268916979432"><ele></ele><time>2013-9-9T11:31:50Z</time></trkpt>
<trkpt lat="46.554648661985993" lon="7.00826003216207"><ele></ele><time>2013-9-9T11:31:53Z</time></trkpt>
<trkpt lat="46.554654194042087" lon="7.008166490122676"><ele></ele><time>2013-9-9T11:31:56Z</time></trkpt>
<trkpt lat="46.554649835452437" lon="7.008034056052566"><ele></ele><time>2013-9-9T11:31:59Z</time></trkpt>
<trkpt lat="46.554638519883156" lon="7.007992146536708"><ele></ele><time>2013-9-9T11:32:2Z</time></trkpt>
<trkpt lat="46.554631059989333" lon="7.007971946150065"><ele></ele><time>2013-9-9T11:32:5Z</time></trkpt>
<trkpt lat="46.554626114666462" lon="7.007952332496643"><ele></ele><time>2013-9-9T11:32:8Z</time></trkpt>
<trkpt lat="46.554621504619718" lon="7.007929366081953"><ele></ele><time>2013-9-9T11:32:11Z</time></trkpt>
<trkpt lat="46.55461622402072" lon="7.0079062320292"><ele></ele><time>2013-9-9T11:32:14Z</time></trkpt>
<trkpt lat="46.554610943421721" lon="7.007883433252573"><ele></ele><time>2013-9-9T11:32:17Z</time></trkpt>
<trkpt lat="46.554583283141255" lon="7.007737252861261"><ele></ele><time>2013-9-9T11:32:20Z</time></trkpt>
<trkpt lat="46.554553862661123" lon="7.007577158510685"><ele></ele><time>2013-9-9T11:32:23Z</time></trkpt>
<trkpt lat="46.554527124390006" lon="7.007419243454933"><ele></ele><time>2013-9-9T11:32:26Z</time></trkpt>
<trkpt lat="46.554518574848771" lon="7.007391750812531"><ele></ele><time>2013-9-9T11:32:29Z</time></trkpt>
<trkpt lat="46.554510528221726" lon="7.007368365302682"><ele></ele><time>2013-9-9T11:32:32Z</time></trkpt>
<trkpt lat="46.554499128833413" lon="7.00734774582088"><ele></ele><time>2013-9-9T11:32:35Z</time></trkpt>
<trkpt lat="46.554485550150275" lon="7.007327461615205"><ele></ele><time>2013-9-9T11:32:38Z</time></trkpt>
<trkpt lat="46.55446476303041" lon="7.007276751101017"><ele></ele><time>2013-9-9T11:32:41Z</time></trkpt>
<trkpt lat="46.554450513795018" lon="7.007158985361457"><ele></ele><time>2013-9-9T11:32:44Z</time></trkpt>
<trkpt lat="46.554470798000693" lon="7.007042812183499"><ele></ele><time>2013-9-9T11:32:47Z</time></trkpt>
<trkpt lat="46.55447599478066" lon="7.007016241550446"><ele></ele><time>2013-9-9T11:32:50Z</time></trkpt>
<trkpt lat="46.554479012265801" lon="7.006991934031248"><ele></ele><time>2013-9-9T11:32:53Z</time></trkpt>
<trkpt lat="46.554467529058456" lon="7.00688598677516"><ele></ele><time>2013-9-9T11:32:56Z</time></trkpt>
<trkpt lat="46.554430900141597" lon="7.006720695644617"><ele></ele><time>2013-9-9T11:32:59Z</time></trkpt>
<trkpt lat="46.554424446076155" lon="7.006685910746455"><ele></ele><time>2013-9-9T11:33:2Z</time></trkpt>
<trkpt lat="46.554416064172983" lon="7.006648946553469"><ele></ele><time>2013-9-9T11:33:5Z</time></trkpt>
<trkpt lat="46.554408185184002" lon="7.006610808894038"><ele></ele><time>2013-9-9T11:33:8Z</time></trkpt>
<trkpt lat="46.554402317851782" lon="7.006573425605893"><ele></ele><time>2013-9-9T11:33:11Z</time></trkpt>
<trkpt lat="46.554389828816056" lon="7.006492037326098"><ele></ele><time>2013-9-9T11:33:14Z</time></trkpt>
<trkpt lat="46.55434506945312" lon="7.0063382294029"><ele></ele><time>2013-9-9T11:33:17Z</time></trkpt>
<trkpt lat="46.554344650357962" lon="7.006302354857326"><ele></ele><time>2013-9-9T11:33:20Z</time></trkpt>
<trkpt lat="46.554326629266143" lon="7.006257008761168"><ele></ele><time>2013-9-9T11:33:23Z</time></trkpt>
<trkpt lat="46.554264770820737" lon="7.006056010723114"><ele></ele><time>2013-9-9T11:33:26Z</time></trkpt>
<trkpt lat="46.554238284006715" lon="7.005972694605589"><ele></ele><time>2013-9-9T11:33:29Z</time></trkpt>
<trkpt lat="46.554208528250456" lon="7.005896419286728"><ele></ele><time>2013-9-9T11:33:32Z</time></trkpt>
<trkpt lat="46.554134599864483" lon="7.005761805921793"><ele></ele><time>2013-9-9T11:33:35Z</time></trkpt>
<trkpt lat="46.554130241274834" lon="7.005718555301428"><ele></ele><time>2013-9-9T11:33:38Z</time></trkpt>
<trkpt lat="46.554124793037772" lon="7.005673544481397"><ele></ele><time>2013-9-9T11:33:41Z</time></trkpt>
<trkpt lat="46.554119428619742" lon="7.005627946928144"><ele></ele><time>2013-9-9T11:33:44Z</time></trkpt>
<trkpt lat="46.554111801087856" lon="7.005588049069047"><ele></ele><time>2013-9-9T11:33:47Z</time></trkpt>
<trkpt lat="46.554099982604384" lon="7.005549659952521"><ele></ele><time>2013-9-9T11:33:50Z</time></trkpt>
<trkpt lat="46.554025551304221" lon="7.005280517041683"><ele></ele><time>2013-9-9T11:33:53Z</time></trkpt>
<trkpt lat="46.553971823304892" lon="7.005110532045364"><ele></ele><time>2013-9-9T11:33:56Z</time></trkpt>
<trkpt lat="46.553881550207734" lon="7.005009613931179"><ele></ele><time>2013-9-9T11:33:59Z</time></trkpt>
<trkpt lat="46.553859086707234" lon="7.004996370524168"><ele></ele><time>2013-9-9T11:34:2Z</time></trkpt>
<trkpt lat="46.553748361766338" lon="7.004904085770249"><ele></ele><time>2013-9-9T11:34:5Z</time></trkpt>
<trkpt lat="46.55364878475666" lon="7.004729071632028"><ele></ele><time>2013-9-9T11:34:8Z</time></trkpt>
<trkpt lat="46.553607964888215" lon="7.004624716937542"><ele></ele><time>2013-9-9T11:34:11Z</time></trkpt>
<trkpt lat="46.55359597876668" lon="7.004588674753904"><ele></ele><time>2013-9-9T11:34:14Z</time></trkpt>
<trkpt lat="46.553580388426781" lon="7.004549531266093"><ele></ele><time>2013-9-9T11:34:17Z</time></trkpt>
<trkpt lat="46.553566642105579" lon="7.004515081644058"><ele></ele><time>2013-9-9T11:34:20Z</time></trkpt>
<trkpt lat="46.5535534825176" lon="7.004485493525863"><ele></ele><time>2013-9-9T11:34:23Z</time></trkpt>
<trkpt lat="46.553493300452828" lon="7.004373846575618"><ele></ele><time>2013-9-9T11:34:26Z</time></trkpt>
<trkpt lat="46.553477039560676" lon="7.004355238750577"><ele></ele><time>2013-9-9T11:34:29Z</time></trkpt>
<trkpt lat="46.553457342088223" lon="7.004334703087807"><ele></ele><time>2013-9-9T11:34:32Z</time></trkpt>
<trkpt lat="46.553436387330294" lon="7.004317604005337"><ele></ele><time>2013-9-9T11:34:35Z</time></trkpt>
<trkpt lat="46.553416857495904" lon="7.00430503115058"><ele></ele><time>2013-9-9T11:34:38Z</time></trkpt>
<trkpt lat="46.553372517228127" lon="7.004249626770616"><ele></ele><time>2013-9-9T11:34:41Z</time></trkpt>
<trkpt lat="46.553317280486226" lon="7.004095567390323"><ele></ele><time>2013-9-9T11:34:44Z</time></trkpt>
<trkpt lat="46.55325248837471" lon="7.003952153027058"><ele></ele><time>2013-9-9T11:34:47Z</time></trkpt>
<trkpt lat="46.553120221942663" lon="7.003731708973646"><ele></ele><time>2013-9-9T11:34:50Z</time></trkpt>
<trkpt lat="46.552935736253858" lon="7.003465667366982"><ele></ele><time>2013-9-9T11:34:53Z</time></trkpt>
<trkpt lat="46.552884019911289" lon="7.003353852778673"><ele></ele><time>2013-9-9T11:34:56Z</time></trkpt>
<trkpt lat="46.552869686856866" lon="7.003317978233099"><ele></ele><time>2013-9-9T11:34:59Z</time></trkpt>
<trkpt lat="46.552859796211123" lon="7.003277326002717"><ele></ele><time>2013-9-9T11:35:2Z</time></trkpt>
<trkpt lat="46.552851498126984" lon="7.003238350152969"><ele></ele><time>2013-9-9T11:35:5Z</time></trkpt>
<trkpt lat="46.552844708785415" lon="7.003203062340617"><ele></ele><time>2013-9-9T11:35:8Z</time></trkpt>
<trkpt lat="46.552829872816801" lon="7.003140868619084"><ele></ele><time>2013-9-9T11:35:11Z</time></trkpt>
<trkpt lat="46.552819730713964" lon="7.003116477280855"><ele></ele><time>2013-9-9T11:35:14Z</time></trkpt>
<trkpt lat="46.552804978564382" lon="7.003096276894212"><ele></ele><time>2013-9-9T11:35:17Z</time></trkpt>
<trkpt lat="46.552788047119975" lon="7.00307666324079"><ele></ele><time>2013-9-9T11:35:20Z</time></trkpt>
<trkpt lat="46.552749490365386" lon="7.003033747896552"><ele></ele><time>2013-9-9T11:35:23Z</time></trkpt>
<trkpt lat="46.552729876711965" lon="7.003008769825101"><ele></ele><time>2013-9-9T11:35:26Z</time></trkpt>
<trkpt lat="46.552713783457875" lon="7.002977840602398"><ele></ele><time>2013-9-9T11:35:29Z</time></trkpt>
<trkpt lat="46.552699618041515" lon="7.002943390980363"><ele></ele><time>2013-9-9T11:35:32Z</time></trkpt>
<trkpt lat="46.552686961367726" lon="7.002910282462835"><ele></ele><time>2013-9-9T11:35:35Z</time></trkpt>
<trkpt lat="46.552677322179079" lon="7.002880359068513"><ele></ele><time>2013-9-9T11:35:38Z</time></trkpt>
<trkpt lat="46.552663156762719" lon="7.002846579998732"><ele></ele><time>2013-9-9T11:35:41Z</time></trkpt>
<trkpt lat="46.552645806223154" lon="7.002814142033458"><ele></ele><time>2013-9-9T11:35:44Z</time></trkpt>
<trkpt lat="46.552626779302955" lon="7.002789415419102"><ele></ele><time>2013-9-9T11:35:47Z</time></trkpt>
<trkpt lat="46.552605740725994" lon="7.002770975232124"><ele></ele><time>2013-9-9T11:35:50Z</time></trkpt>
<trkpt lat="46.552585372701287" lon="7.002757899463177"><ele></ele><time>2013-9-9T11:35:53Z</time></trkpt>
<trkpt lat="46.552541367709637" lon="7.002738537266851"><ele></ele><time>2013-9-9T11:35:56Z</time></trkpt>
<trkpt lat="46.552517311647534" lon="7.002726215869188"><ele></ele><time>2013-9-9T11:35:59Z</time></trkpt>
<trkpt lat="46.55248923227191" lon="7.002711296081543"><ele></ele><time>2013-9-9T11:36:2Z</time></trkpt>
<trkpt lat="46.552453693002462" lon="7.002695621922612"><ele></ele><time>2013-9-9T11:36:5Z</time></trkpt>
<trkpt lat="46.552413627505302" lon="7.002679612487555"><ele></ele><time>2013-9-9T11:36:8Z</time></trkpt>
<trkpt lat="46.552373729646206" lon="7.002668045461178"><ele></ele><time>2013-9-9T11:36:11Z</time></trkpt>
<trkpt lat="46.552340285852551" lon="7.002658825367689"><ele></ele><time>2013-9-9T11:36:14Z</time></trkpt>
<trkpt lat="46.552312206476927" lon="7.002645749598742"><ele></ele><time>2013-9-9T11:36:17Z</time></trkpt>
<trkpt lat="46.552286725491285" lon="7.002625549212098"><ele></ele><time>2013-9-9T11:36:20Z</time></trkpt>
<trkpt lat="46.552265854552388" lon="7.002597134560347"><ele></ele><time>2013-9-9T11:36:23Z</time></trkpt>
<trkpt lat="46.552250683307648" lon="7.00255773961544"><ele></ele><time>2013-9-9T11:36:26Z</time></trkpt>
<trkpt lat="46.552252527326345" lon="7.002509040758014"><ele></ele><time>2013-9-9T11:36:29Z</time></trkpt>
<trkpt lat="46.552269458770752" lon="7.002457911148667"><ele></ele><time>2013-9-9T11:36:32Z</time></trkpt>
<trkpt lat="46.55229426920414" lon="7.00241013430059"><ele></ele><time>2013-9-9T11:36:35Z</time></trkpt>
<trkpt lat="46.552325952798128" lon="7.002358166500926"><ele></ele><time>2013-9-9T11:36:38Z</time></trkpt>
<trkpt lat="46.552359731867909" lon="7.002302259206772"><ele></ele><time>2013-9-9T11:36:41Z</time></trkpt>
<trkpt lat="46.552393427118659" lon="7.002248363569379"><ele></ele><time>2013-9-9T11:36:44Z</time></trkpt>
<trkpt lat="46.552423685789108" lon="7.00219614431262"><ele></ele><time>2013-9-9T11:36:47Z</time></trkpt>
<trkpt lat="46.552441203966737" lon="7.002140404656529"><ele></ele><time>2013-9-9T11:36:50Z</time></trkpt>
<trkpt lat="46.552437515929341" lon="7.002079216763377"><ele></ele><time>2013-9-9T11:36:53Z</time></trkpt>
<trkpt lat="46.552414884790778" lon="7.002009898424149"><ele></ele><time>2013-9-9T11:36:56Z</time></trkpt>
<trkpt lat="46.552380183711648" lon="7.001946363598108"><ele></ele><time>2013-9-9T11:36:59Z</time></trkpt>
<trkpt lat="46.552333496510983" lon="7.001893725246191"><ele></ele><time>2013-9-9T11:37:2Z</time></trkpt>
<trkpt lat="46.552281277254224" lon="7.00185508467257"><ele></ele><time>2013-9-9T11:37:5Z</time></trkpt>
<trkpt lat="46.552227297797799" lon="7.001828262582421"><ele></ele><time>2013-9-9T11:37:8Z</time></trkpt>
<trkpt lat="46.552169965580106" lon="7.00182231143117"><ele></ele><time>2013-9-9T11:37:11Z</time></trkpt>
<trkpt lat="46.552115315571427" lon="7.00183991342783"><ele></ele><time>2013-9-9T11:37:14Z</time></trkpt>
<trkpt lat="46.552068963646889" lon="7.001868914812803"><ele></ele><time>2013-9-9T11:37:17Z</time></trkpt>
<trkpt lat="46.552028311416507" lon="7.001901268959045"><ele></ele><time>2013-9-9T11:37:20Z</time></trkpt>
<trkpt lat="46.551989922299981" lon="7.001944268122315"><ele></ele><time>2013-9-9T11:37:23Z</time></trkpt>
<trkpt lat="46.551949018612504" lon="7.001996990293264"><ele></ele><time>2013-9-9T11:37:26Z</time></trkpt>
<trkpt lat="46.551905684173107" lon="7.002054490149021"><ele></ele><time>2013-9-9T11:37:29Z</time></trkpt>
<trkpt lat="46.551853129640222" lon="7.002101261168718"><ele></ele><time>2013-9-9T11:37:32Z</time></trkpt>
<trkpt lat="46.551794372498989" lon="7.002135291695595"><ele></ele><time>2013-9-9T11:37:35Z</time></trkpt>
<trkpt lat="46.551729748025537" lon="7.002154570072889"><ele></ele><time>2013-9-9T11:37:38Z</time></trkpt>
<trkpt lat="46.551656322553754" lon="7.002164544537664"><ele></ele><time>2013-9-9T11:37:41Z</time></trkpt>
<trkpt lat="46.551580550149083" lon="7.002163203433156"><ele></ele><time>2013-9-9T11:37:44Z</time></trkpt>
<trkpt lat="46.551501341164112" lon="7.002147529274225"><ele></ele><time>2013-9-9T11:37:47Z</time></trkpt>
<trkpt lat="46.551425317302346" lon="7.002129843458533"><ele></ele><time>2013-9-9T11:37:50Z</time></trkpt>
<trkpt lat="46.551347365602851" lon="7.002110732719302"><ele></ele><time>2013-9-9T11:37:53Z</time></trkpt>
<trkpt lat="46.551185762509704" lon="7.00207494199276"><ele></ele><time>2013-9-9T11:37:56Z</time></trkpt>
<trkpt lat="46.551102362573147" lon="7.002051472663879"><ele></ele><time>2013-9-9T11:37:59Z</time></trkpt>
<trkpt lat="46.551020471379161" lon="7.002036217600107"><ele></ele><time>2013-9-9T11:38:2Z</time></trkpt>
<trkpt lat="46.550955176353455" lon="7.002023812383413"><ele></ele><time>2013-9-9T11:38:5Z</time></trkpt>
<trkpt lat="46.550904801115394" lon="7.001997912302613"><ele></ele><time>2013-9-9T11:38:8Z</time></trkpt>
<trkpt lat="46.55086113139987" lon="7.001953739672899"><ele></ele><time>2013-9-9T11:38:11Z</time></trkpt>
<trkpt lat="46.550821820273995" lon="7.001906801015139"><ele></ele><time>2013-9-9T11:38:14Z</time></trkpt>
<trkpt lat="46.55077806673944" lon="7.001880817115307"><ele></ele><time>2013-9-9T11:38:17Z</time></trkpt>
<trkpt lat="46.550728948786855" lon="7.001871513202786"><ele></ele><time>2013-9-9T11:38:20Z</time></trkpt>
<trkpt lat="46.550681004300714" lon="7.001882996410132"><ele></ele><time>2013-9-9T11:38:23Z</time></trkpt>
<trkpt lat="46.550631634891033" lon="7.001922475174069"><ele></ele><time>2013-9-9T11:38:26Z</time></trkpt>
<trkpt lat="46.550581594929099" lon="7.001964384689927"><ele></ele><time>2013-9-9T11:38:29Z</time></trkpt>
<trkpt lat="46.550527196377516" lon="7.001995230093598"><ele></ele><time>2013-9-9T11:38:32Z</time></trkpt>
<trkpt lat="46.550468187779188" lon="7.001996738836169"><ele></ele><time>2013-9-9T11:38:35Z</time></trkpt>
<trkpt lat="46.550405323505402" lon="7.001978382468224"><ele></ele><time>2013-9-9T11:38:38Z</time></trkpt>
<trkpt lat="46.550340782850981" lon="7.001956505700946"><ele></ele><time>2013-9-9T11:38:41Z</time></trkpt>
<trkpt lat="46.550275320187211" lon="7.001927839592099"><ele></ele><time>2013-9-9T11:38:44Z</time></trkpt>
<trkpt lat="46.550208767876029" lon="7.001891545951366"><ele></ele><time>2013-9-9T11:38:47Z</time></trkpt>
<trkpt lat="46.550135258585215" lon="7.001851983368397"><ele></ele><time>2013-9-9T11:38:50Z</time></trkpt>
<trkpt lat="46.55005881562829" lon="7.001818036660552"><ele></ele><time>2013-9-9T11:38:53Z</time></trkpt>
<trkpt lat="46.549981534481049" lon="7.001783335581422"><ele></ele><time>2013-9-9T11:38:56Z</time></trkpt>
<trkpt lat="46.549908192828298" lon="7.001748383045197"><ele></ele><time>2013-9-9T11:38:59Z</time></trkpt>
<trkpt lat="46.549836862832308" lon="7.001712508499622"><ele></ele><time>2013-9-9T11:39:2Z</time></trkpt>
<trkpt lat="46.54976268298924" lon="7.001678645610809"><ele></ele><time>2013-9-9T11:39:5Z</time></trkpt>
<trkpt lat="46.549688167870045" lon="7.001651907339692"><ele></ele><time>2013-9-9T11:39:8Z</time></trkpt>
<trkpt lat="46.549611892551184" lon="7.001629024744034"><ele></ele><time>2013-9-9T11:39:11Z</time></trkpt>
<trkpt lat="46.54954039491713" lon="7.001604465767741"><ele></ele><time>2013-9-9T11:39:14Z</time></trkpt>
<trkpt lat="46.549472333863378" lon="7.001579739153385"><ele></ele><time>2013-9-9T11:39:17Z</time></trkpt>
<trkpt lat="46.54939966276288" lon="7.001553503796458"><ele></ele><time>2013-9-9T11:39:20Z</time></trkpt>
<trkpt lat="46.549320621415973" lon="7.001523245126009"><ele></ele><time>2013-9-9T11:39:23Z</time></trkpt>
<trkpt lat="46.549240490421653" lon="7.001492148265243"><ele></ele><time>2013-9-9T11:39:26Z</time></trkpt>
<trkpt lat="46.549161951988935" lon="7.001457698643208"><ele></ele><time>2013-9-9T11:39:29Z</time></trkpt>
<trkpt lat="46.549091041088104" lon="7.001422075554729"><ele></ele><time>2013-9-9T11:39:32Z</time></trkpt>
<trkpt lat="46.549027338624001" lon="7.001388212665916"><ele></ele><time>2013-9-9T11:39:35Z</time></trkpt>
<trkpt lat="46.548968413844705" lon="7.001354601234198"><ele></ele><time>2013-9-9T11:39:38Z</time></trkpt>
<trkpt lat="46.548909405246377" lon="7.001314200460911"><ele></ele><time>2013-9-9T11:39:41Z</time></trkpt>
<trkpt lat="46.548848049715161" lon="7.001264076679945"><ele></ele><time>2013-9-9T11:39:44Z</time></trkpt>
<trkpt lat="46.548786778002977" lon="7.001204062253237"><ele></ele><time>2013-9-9T11:39:47Z</time></trkpt>
<trkpt lat="46.548721734434366" lon="7.001139353960753"><ele></ele><time>2013-9-9T11:39:50Z</time></trkpt>
<trkpt lat="46.54865887016058" lon="7.001079171895981"><ele></ele><time>2013-9-9T11:39:53Z</time></trkpt>
<trkpt lat="46.548595419153571" lon="7.00102343223989"><ele></ele><time>2013-9-9T11:39:56Z</time></trkpt>
<trkpt lat="46.548534901812673" lon="7.000978589057922"><ele></ele><time>2013-9-9T11:39:59Z</time></trkpt>
<trkpt lat="46.54847614467144" lon="7.000941708683968"><ele></ele><time>2013-9-9T11:40:2Z</time></trkpt>
<trkpt lat="46.548416968435049" lon="7.00091203674674"><ele></ele><time>2013-9-9T11:40:5Z</time></trkpt>
<trkpt lat="46.548221502453089" lon="7.000800808891654"><ele></ele><time>2013-9-9T11:40:8Z</time></trkpt>
<trkpt lat="46.548055876046419" lon="7.000661585479975"><ele></ele><time>2013-9-9T11:40:11Z</time></trkpt>
<trkpt lat="46.547914808616042" lon="7.000468382611871"><ele></ele><time>2013-9-9T11:40:14Z</time></trkpt>
<trkpt lat="46.547815315425396" lon="7.000373499467969"><ele></ele><time>2013-9-9T11:40:17Z</time></trkpt>
<trkpt lat="46.547678019851446" lon="7.000256991013885"><ele></ele><time>2013-9-9T11:40:20Z</time></trkpt>
<trkpt lat="46.547592272982001" lon="7.000185493379831"><ele></ele><time>2013-9-9T11:40:23Z</time></trkpt>
<trkpt lat="46.547550447285175" lon="7.000146266072989"><ele></ele><time>2013-9-9T11:40:26Z</time></trkpt>
<trkpt lat="46.547511387616396" lon="7.000107541680336"><ele></ele><time>2013-9-9T11:40:29Z</time></trkpt>
<trkpt lat="46.54747199267149" lon="7.000066637992859"><ele></ele><time>2013-9-9T11:40:32Z</time></trkpt>
<trkpt lat="46.547432513907552" lon="7.00002565048635"><ele></ele><time>2013-9-9T11:40:35Z</time></trkpt>
<trkpt lat="46.547395130619407" lon="6.999985501170158"><ele></ele><time>2013-9-9T11:40:38Z</time></trkpt>
<trkpt lat="46.547318771481514" lon="6.999914590269327"><ele></ele><time>2013-9-9T11:40:41Z</time></trkpt>
<trkpt lat="46.547253392636776" lon="6.999864466488361"><ele></ele><time>2013-9-9T11:40:44Z</time></trkpt>
<trkpt lat="46.547224055975676" lon="6.999836470931768"><ele></ele><time>2013-9-9T11:40:47Z</time></trkpt>
<trkpt lat="46.547190779820085" lon="6.999811325222254"><ele></ele><time>2013-9-9T11:40:50Z</time></trkpt>
<trkpt lat="46.547158258035779" lon="6.999784419313073"><ele></ele><time>2013-9-9T11:40:53Z</time></trkpt>
<trkpt lat="46.547128669917583" lon="6.999755501747131"><ele></ele><time>2013-9-9T11:40:56Z</time></trkpt>
<trkpt lat="46.547095812857151" lon="6.999725243076682"><ele></ele><time>2013-9-9T11:40:59Z</time></trkpt>
<trkpt lat="46.546916775405407" lon="6.999552072957158"><ele></ele><time>2013-9-9T11:41:2Z</time></trkpt>
<trkpt lat="46.546889366582036" lon="6.999521898105741"><ele></ele><time>2013-9-9T11:41:5Z</time></trkpt>
<trkpt lat="46.546857180073857" lon="6.999504128471017"><ele></ele><time>2013-9-9T11:41:8Z</time></trkpt>
<trkpt lat="46.546820634976029" lon="6.999497087672353"><ele></ele><time>2013-9-9T11:41:11Z</time></trkpt>
<trkpt lat="46.546735055744648" lon="6.999490465968847"><ele></ele><time>2013-9-9T11:41:14Z</time></trkpt>
<trkpt lat="46.546691469848156" lon="6.99948376044631"><ele></ele><time>2013-9-9T11:41:17Z</time></trkpt>
<trkpt lat="46.546647297218442" lon="6.999469427391887"><ele></ele><time>2013-9-9T11:41:20Z</time></trkpt>
<trkpt lat="46.546606393530965" lon="6.999441515654326"><ele></ele><time>2013-9-9T11:41:23Z</time></trkpt>
<trkpt lat="46.5465700160712" lon="6.999405138194561"><ele></ele><time>2013-9-9T11:41:26Z</time></trkpt>
<trkpt lat="46.546525675803423" lon="6.999362390488386"><ele></ele><time>2013-9-9T11:41:29Z</time></trkpt>
<trkpt lat="46.546472785994411" lon="6.999320313334465"><ele></ele><time>2013-9-9T11:41:32Z</time></trkpt>
<trkpt lat="46.546410843729973" lon="6.999283935874701"><ele></ele><time>2013-9-9T11:41:35Z</time></trkpt>
<trkpt lat="46.546340100467205" lon="6.999259041622281"><ele></ele><time>2013-9-9T11:41:38Z</time></trkpt>
<trkpt lat="46.546270363032818" lon="6.99923699721694"><ele></ele><time>2013-9-9T11:41:41Z</time></trkpt>
<trkpt lat="46.546208756044507" lon="6.999218473210931"><ele></ele><time>2013-9-9T11:41:44Z</time></trkpt>
<trkpt lat="46.546158045530319" lon="6.999197518453002"><ele></ele><time>2013-9-9T11:41:47Z</time></trkpt>
<trkpt lat="46.546105407178402" lon="6.999170025810599"><ele></ele><time>2013-9-9T11:41:50Z</time></trkpt>
<trkpt lat="46.546052265912294" lon="6.999136917293072"><ele></ele><time>2013-9-9T11:41:53Z</time></trkpt>
<trkpt lat="46.545998370274901" lon="6.999092074111104"><ele></ele><time>2013-9-9T11:41:56Z</time></trkpt>
<trkpt lat="46.545940954238176" lon="6.999048572033644"><ele></ele><time>2013-9-9T11:41:59Z</time></trkpt>
<trkpt lat="46.545879682525992" lon="6.999017642810941"><ele></ele><time>2013-9-9T11:42:2Z</time></trkpt>
<trkpt lat="46.54582142829895" lon="6.998998112976551"><ele></ele><time>2013-9-9T11:42:5Z</time></trkpt>
<trkpt lat="46.545773819088936" lon="6.998984534293413"><ele></ele><time>2013-9-9T11:42:8Z</time></trkpt>
<trkpt lat="46.545734675601125" lon="6.998971374705434"><ele></ele><time>2013-9-9T11:42:11Z</time></trkpt>
<trkpt lat="46.545699723064899" lon="6.998954610899091"><ele></ele><time>2013-9-9T11:42:14Z</time></trkpt>
<trkpt lat="46.545673068612814" lon="6.998941702768207"><ele></ele><time>2013-9-9T11:42:17Z</time></trkpt>
<trkpt lat="46.545648593455553" lon="6.99893063865602"><ele></ele><time>2013-9-9T11:42:20Z</time></trkpt>
<trkpt lat="46.545518590137362" lon="6.998852016404271"><ele></ele><time>2013-9-9T11:42:23Z</time></trkpt>
<trkpt lat="46.545477351173759" lon="6.998812453821302"><ele></ele><time>2013-9-9T11:42:26Z</time></trkpt>
<trkpt lat="46.545438542962074" lon="6.998768113553524"><ele></ele><time>2013-9-9T11:42:29Z</time></trkpt>
<trkpt lat="46.545401746407151" lon="6.998718660324812"><ele></ele><time>2013-9-9T11:42:32Z</time></trkpt>
<trkpt lat="46.545365704223514" lon="6.998664261773229"><ele></ele><time>2013-9-9T11:42:35Z</time></trkpt>
<trkpt lat="46.545328488573432" lon="6.99860667809844"><ele></ele><time>2013-9-9T11:42:38Z</time></trkpt>
<trkpt lat="46.545290350914001" lon="6.998545322567225"><ele></ele><time>2013-9-9T11:42:41Z</time></trkpt>
<trkpt lat="46.545252297073603" lon="6.998479440808296"><ele></ele><time>2013-9-9T11:42:44Z</time></trkpt>
<trkpt lat="46.545213656499982" lon="6.998407859355211"><ele></ele><time>2013-9-9T11:42:47Z</time></trkpt>
<trkpt lat="46.545171914622188" lon="6.998323202133179"><ele></ele><time>2013-9-9T11:42:50Z</time></trkpt>
<trkpt lat="46.545130591839552" lon="6.998236533254385"><ele></ele><time>2013-9-9T11:42:53Z</time></trkpt>
<trkpt lat="46.545086167752743" lon="6.998146427795291"><ele></ele><time>2013-9-9T11:42:56Z</time></trkpt>
<trkpt lat="46.54504107311368" lon="6.998052885755897"><ele></ele><time>2013-9-9T11:42:59Z</time></trkpt>
<trkpt lat="46.544996313750744" lon="6.997956074774265"><ele></ele><time>2013-9-9T11:43:2Z</time></trkpt>
<trkpt lat="46.544951470568776" lon="6.997856916859746"><ele></ele><time>2013-9-9T11:43:5Z</time></trkpt>
<trkpt lat="46.54480311088264" lon="6.997598586603999"><ele></ele><time>2013-9-9T11:43:8Z</time></trkpt>
<trkpt lat="46.544664641842246" lon="6.997397337108851"><ele></ele><time>2013-9-9T11:43:11Z</time></trkpt>
<trkpt lat="46.544626588001847" lon="6.997332964092493"><ele></ele><time>2013-9-9T11:43:14Z</time></trkpt>
<trkpt lat="46.54459398239851" lon="6.997272614389658"><ele></ele><time>2013-9-9T11:43:17Z</time></trkpt>
<trkpt lat="46.544565232470632" lon="6.997217042371631"><ele></ele><time>2013-9-9T11:43:20Z</time></trkpt>
<trkpt lat="46.544535895809531" lon="6.997161889448762"><ele></ele><time>2013-9-9T11:43:23Z</time></trkpt>
<trkpt lat="46.544509073719382" lon="6.997112017124891"><ele></ele><time>2013-9-9T11:43:26Z</time></trkpt>
<trkpt lat="46.544482167810202" lon="6.997062815353274"><ele></ele><time>2013-9-9T11:43:29Z</time></trkpt>
<trkpt lat="46.544456100091338" lon="6.997015876695514"><ele></ele><time>2013-9-9T11:43:32Z</time></trkpt>
<trkpt lat="46.544431038200855" lon="6.996971284970641"><ele></ele><time>2013-9-9T11:43:35Z</time></trkpt>
<trkpt lat="46.544408071786165" lon="6.996931051835418"><ele></ele><time>2013-9-9T11:43:38Z</time></trkpt>
<trkpt lat="46.544386446475983" lon="6.996900457888842"><ele></ele><time>2013-9-9T11:43:41Z</time></trkpt>
<trkpt lat="46.544365994632244" lon="6.996873887255788"><ele></ele><time>2013-9-9T11:43:44Z</time></trkpt>
<trkpt lat="46.544297598302364" lon="6.996781351044774"><ele></ele><time>2013-9-9T11:43:47Z</time></trkpt>
<trkpt lat="46.544280666857958" lon="6.996757881715894"><ele></ele><time>2013-9-9T11:43:50Z</time></trkpt>
<trkpt lat="46.544265076518059" lon="6.996733993291855"><ele></ele><time>2013-9-9T11:43:53Z</time></trkpt>
<trkpt lat="46.544249402359128" lon="6.99670834466815"><ele></ele><time>2013-9-9T11:43:56Z</time></trkpt>
<trkpt lat="46.544233979657292" lon="6.996681271120906"><ele></ele><time>2013-9-9T11:43:59Z</time></trkpt>
<trkpt lat="46.544178910553455" lon="6.996575491502881"><ele></ele><time>2013-9-9T11:44:2Z</time></trkpt>
<trkpt lat="46.544166756793857" lon="6.996549423784018"><ele></ele><time>2013-9-9T11:44:5Z</time></trkpt>
<trkpt lat="46.54415326192975" lon="6.996520673856139"><ele></ele><time>2013-9-9T11:44:8Z</time></trkpt>
<trkpt lat="46.544139096513391" lon="6.996488487347961"><ele></ele><time>2013-9-9T11:44:11Z</time></trkpt>
<trkpt lat="46.544133899733424" lon="6.996426461264491"><ele></ele><time>2013-9-9T11:44:14Z</time></trkpt>
<trkpt lat="46.544144796207547" lon="6.996366279199719"><ele></ele><time>2013-9-9T11:44:17Z</time></trkpt>
<trkpt lat="46.544161392375827" lon="6.99633845128119"><ele></ele><time>2013-9-9T11:44:20Z</time></trkpt>
<trkpt lat="46.544181928038597" lon="6.996311126276851"><ele></ele><time>2013-9-9T11:44:23Z</time></trkpt>
<trkpt lat="46.544199613854289" lon="6.996283298358321"><ele></ele><time>2013-9-9T11:44:26Z</time></trkpt>
<trkpt lat="46.544216880574822" lon="6.99625781737268"><ele></ele><time>2013-9-9T11:44:29Z</time></trkpt>
<trkpt lat="46.544272117316723" lon="6.996185146272183"><ele></ele><time>2013-9-9T11:44:32Z</time></trkpt>
<trkpt lat="46.544291898608208" lon="6.996160252019763"><ele></ele><time>2013-9-9T11:44:35Z</time></trkpt>
<trkpt lat="46.544310757890344" lon="6.99613569304347"><ele></ele><time>2013-9-9T11:44:38Z</time></trkpt>
<trkpt lat="46.544328862801194" lon="6.996110463514924"><ele></ele><time>2013-9-9T11:44:41Z</time></trkpt>
<trkpt lat="46.544342441484332" lon="6.996079785749316"><ele></ele><time>2013-9-9T11:44:44Z</time></trkpt>
<trkpt lat="46.544351242482662" lon="6.995937041938305"><ele></ele><time>2013-9-9T11:44:47Z</time></trkpt>
<trkpt lat="46.544339926913381" lon="6.995913907885552"><ele></ele><time>2013-9-9T11:44:50Z</time></trkpt>
<trkpt lat="46.54432668350637" lon="6.995895970612764"><ele></ele><time>2013-9-9T11:44:53Z</time></trkpt>
<trkpt lat="46.54431008733809" lon="6.995878703892231"><ele></ele><time>2013-9-9T11:44:56Z</time></trkpt>
<trkpt lat="46.544255940243602" lon="6.995855486020446"><ele></ele><time>2013-9-9T11:44:59Z</time></trkpt>
<trkpt lat="46.544235656037927" lon="6.995853055268526"><ele></ele><time>2013-9-9T11:45:2Z</time></trkpt>
<trkpt lat="46.544042117893696" lon="6.995813492685556"><ele></ele><time>2013-9-9T11:45:5Z</time></trkpt>
<trkpt lat="46.543934745714068" lon="6.995762949809432"><ele></ele><time>2013-9-9T11:45:8Z</time></trkpt>
<trkpt lat="46.543825780972838" lon="6.995692206546664"><ele></ele><time>2013-9-9T11:45:11Z</time></trkpt>
<trkpt lat="46.543701058253646" lon="6.99564803391695"><ele></ele><time>2013-9-9T11:45:14Z</time></trkpt>
<trkpt lat="46.543675577268004" lon="6.995638562366366"><ele></ele><time>2013-9-9T11:45:17Z</time></trkpt>
<trkpt lat="46.543651856482029" lon="6.995627414435148"><ele></ele><time>2013-9-9T11:45:20Z</time></trkpt>
<trkpt lat="46.543626124039292" lon="6.995615009218454"><ele></ele><time>2013-9-9T11:45:23Z</time></trkpt>
<trkpt lat="46.543607013300061" lon="6.995601933449507"><ele></ele><time>2013-9-9T11:45:26Z</time></trkpt>
<trkpt lat="46.543537024408579" lon="6.995575446635485"><ele></ele><time>2013-9-9T11:45:29Z</time></trkpt>
<trkpt lat="46.543408697471023" lon="6.995518282055855"><ele></ele><time>2013-9-9T11:45:32Z</time></trkpt>
<trkpt lat="46.543386317789555" lon="6.995509816333652"><ele></ele><time>2013-9-9T11:45:35Z</time></trkpt>
<trkpt lat="46.543364860117435" lon="6.995497578755021"><ele></ele><time>2013-9-9T11:45:38Z</time></trkpt>
<trkpt lat="46.543343989178538" lon="6.995484167709947"><ele></ele><time>2013-9-9T11:45:41Z</time></trkpt>
<trkpt lat="46.543323453515768" lon="6.995473774150014"><ele></ele><time>2013-9-9T11:45:44Z</time></trkpt>
<trkpt lat="46.543160928413272" lon="6.995336227118969"><ele></ele><time>2013-9-9T11:45:47Z</time></trkpt>
<trkpt lat="46.543160593137145" lon="6.995310159400106"><ele></ele><time>2013-9-9T11:45:50Z</time></trkpt>
<trkpt lat="46.543155899271369" lon="6.995281912386417"><ele></ele><time>2013-9-9T11:45:53Z</time></trkpt>
<trkpt lat="46.543149445205927" lon="6.995258945971727"><ele></ele><time>2013-9-9T11:45:56Z</time></trkpt>
<trkpt lat="46.543142069131136" lon="6.995236817747355"><ele></ele><time>2013-9-9T11:45:59Z</time></trkpt>
<trkpt lat="46.543100159615278" lon="6.995166493579745"><ele></ele><time>2013-9-9T11:46:2Z</time></trkpt>
<trkpt lat="46.543084150180221" lon="6.99515693821013"><ele></ele><time>2013-9-9T11:46:5Z</time></trkpt>
<trkpt lat="46.543070487678051" lon="6.995147885754705"><ele></ele><time>2013-9-9T11:46:8Z</time></trkpt>
<trkpt lat="46.54305724427104" lon="6.995135396718979"><ele></ele><time>2013-9-9T11:46:11Z</time></trkpt>
<trkpt lat="46.54304307885468" lon="6.99512517079711"><ele></ele><time>2013-9-9T11:46:14Z</time></trkpt>
<trkpt lat="46.542969904839993" lon="6.995091140270233"><ele></ele><time>2013-9-9T11:46:17Z</time></trkpt>
<trkpt lat="46.542955823242664" lon="6.99508510529995"><ele></ele><time>2013-9-9T11:46:20Z</time></trkpt>
<trkpt lat="46.542940651997924" lon="6.99507731013"><ele></ele><time>2013-9-9T11:46:23Z</time></trkpt>
<trkpt lat="46.542925648391247" lon="6.995064904913306"><ele></ele><time>2013-9-9T11:46:26Z</time></trkpt>
<trkpt lat="46.542789107188582" lon="6.994976475834847"><ele></ele><time>2013-9-9T11:46:29Z</time></trkpt>
<trkpt lat="46.54277385212481" lon="6.994962310418487"><ele></ele><time>2013-9-9T11:46:32Z</time></trkpt>
<trkpt lat="46.54275968670845" lon="6.994947893545032"><ele></ele><time>2013-9-9T11:46:35Z</time></trkpt>
<trkpt lat="46.542746610939503" lon="6.9949287828058"><ele></ele><time>2013-9-9T11:46:38Z</time></trkpt>
<trkpt lat="46.542732864618301" lon="6.994906989857554"><ele></ele><time>2013-9-9T11:46:41Z</time></trkpt>
<trkpt lat="46.542704785242677" lon="6.994755528867245"><ele></ele><time>2013-9-9T11:46:44Z</time></trkpt>
<trkpt lat="46.542628258466721" lon="6.994451265782118"><ele></ele><time>2013-9-9T11:46:47Z</time></trkpt>
<trkpt lat="46.542614009231329" lon="6.994418911635876"><ele></ele><time>2013-9-9T11:46:50Z</time></trkpt>
<trkpt lat="46.542602358385921" lon="6.994387060403824"><ele></ele><time>2013-9-9T11:46:53Z</time></trkpt>
<trkpt lat="46.542588025331497" lon="6.994353197515011"><ele></ele><time>2013-9-9T11:46:56Z</time></trkpt>
<trkpt lat="46.542574698105454" lon="6.994318077340722"><ele></ele><time>2013-9-9T11:46:59Z</time></trkpt>
<trkpt lat="46.542492303997278" lon="6.994128227233887"><ele></ele><time>2013-9-9T11:47:2Z</time></trkpt>
<trkpt lat="46.542368503287435" lon="6.993993781507015"><ele></ele><time>2013-9-9T11:47:5Z</time></trkpt>
<trkpt lat="46.542237997055054" lon="6.993963019922376"><ele></ele><time>2013-9-9T11:47:8Z</time></trkpt>
<trkpt lat="46.542195668444037" lon="6.993960170075297"><ele></ele><time>2013-9-9T11:47:11Z</time></trkpt>
<trkpt lat="46.542189968749881" lon="6.993928402662277"><ele></ele><time>2013-9-9T11:47:14Z</time></trkpt>
<trkpt lat="46.542106233537197" lon="6.993758250027895"><ele></ele><time>2013-9-9T11:47:17Z</time></trkpt>
<trkpt lat="46.542000621557236" lon="6.993569154292345"><ele></ele><time>2013-9-9T11:47:20Z</time></trkpt>
<trkpt lat="46.541988300159574" lon="6.99354593642056"><ele></ele><time>2013-9-9T11:47:23Z</time></trkpt>
<trkpt lat="46.541976481676102" lon="6.993519281968474"><ele></ele><time>2013-9-9T11:47:26Z</time></trkpt>
<trkpt lat="46.541964244097471" lon="6.993494806811214"><ele></ele><time>2013-9-9T11:47:29Z</time></trkpt>
<trkpt lat="46.541951922699809" lon="6.993472594767809"><ele></ele><time>2013-9-9T11:47:32Z</time></trkpt>
<trkpt lat="46.54193926602602" lon="6.99344870634377"><ele></ele><time>2013-9-9T11:47:35Z</time></trkpt>
<trkpt lat="46.541904397308826" lon="6.993374526500702"><ele></ele><time>2013-9-9T11:47:38Z</time></trkpt>
<trkpt lat="46.541894339025021" lon="6.993355751037598"><ele></ele><time>2013-9-9T11:47:41Z</time></trkpt>
<trkpt lat="46.541885705664754" lon="6.993335885927081"><ele></ele><time>2013-9-9T11:47:44Z</time></trkpt>
<trkpt lat="46.54187623411417" lon="6.993312835693359"><ele></ele><time>2013-9-9T11:47:47Z</time></trkpt>
<trkpt lat="46.541864164173603" lon="6.993283163756132"><ele></ele><time>2013-9-9T11:47:50Z</time></trkpt>
<trkpt lat="46.54184496961534" lon="6.993219377472997"><ele></ele><time>2013-9-9T11:47:53Z</time></trkpt>
<trkpt lat="46.541839940473437" lon="6.993186352774501"><ele></ele><time>2013-9-9T11:47:56Z</time></trkpt>
<trkpt lat="46.5418366715312" lon="6.993152154609561"><ele></ele><time>2013-9-9T11:47:59Z</time></trkpt>
<trkpt lat="46.54183516278863" lon="6.993119549006224"><ele></ele><time>2013-9-9T11:48:2Z</time></trkpt>
<trkpt lat="46.541838515549898" lon="6.993087697774172"><ele></ele><time>2013-9-9T11:48:5Z</time></trkpt>
<trkpt lat="46.54188796877861" lon="6.992999352514744"><ele></ele><time>2013-9-9T11:48:8Z</time></trkpt>
<trkpt lat="46.54191579669714" lon="6.992958532646298"><ele></ele><time>2013-9-9T11:48:11Z</time></trkpt>
<trkpt lat="46.541927615180612" lon="6.99292927980423"><ele></ele><time>2013-9-9T11:48:14Z</time></trkpt>
<trkpt lat="46.541935158893466" lon="6.992901032790542"><ele></ele><time>2013-9-9T11:48:17Z</time></trkpt>
<trkpt lat="46.541939852759242" lon="6.992870606482029"><ele></ele><time>2013-9-9T11:48:20Z</time></trkpt>
<trkpt lat="46.541943959891796" lon="6.992835821583867"><ele></ele><time>2013-9-9T11:48:23Z</time></trkpt>
<trkpt lat="46.541942367330194" lon="6.992805982008576"><ele></ele><time>2013-9-9T11:48:26Z</time></trkpt>
<trkpt lat="46.541930548846722" lon="6.992747727781534"><ele></ele><time>2013-9-9T11:48:29Z</time></trkpt>
<trkpt lat="46.541923088952899" lon="6.992719480767846"><ele></ele><time>2013-9-9T11:48:32Z</time></trkpt>
<trkpt lat="46.541914120316505" lon="6.992691401392222"><ele></ele><time>2013-9-9T11:48:35Z</time></trkpt>
<trkpt lat="46.5419040620327" lon="6.992662819102407"><ele></ele><time>2013-9-9T11:48:38Z</time></trkpt>
<trkpt lat="46.541894758120179" lon="6.992633985355496"><ele></ele><time>2013-9-9T11:48:41Z</time></trkpt>
<trkpt lat="46.541876485571265" lon="6.992573970928788"><ele></ele><time>2013-9-9T11:48:44Z</time></trkpt>
<trkpt lat="46.541856033727527" lon="6.992516471073031"><ele></ele><time>2013-9-9T11:48:47Z</time></trkpt>
<trkpt lat="46.54184790328145" lon="6.992487302049995"><ele></ele><time>2013-9-9T11:48:50Z</time></trkpt>
<trkpt lat="46.541840191930532" lon="6.992457965388894"><ele></ele><time>2013-9-9T11:48:53Z</time></trkpt>
<trkpt lat="46.541831810027361" lon="6.992431478574872"><ele></ele><time>2013-9-9T11:48:56Z</time></trkpt>
<trkpt lat="46.541822757571936" lon="6.992404321208596"><ele></ele><time>2013-9-9T11:48:59Z</time></trkpt>
<trkpt lat="46.541795767843723" lon="6.992270965129137"><ele></ele><time>2013-9-9T11:49:2Z</time></trkpt>
<trkpt lat="46.541793001815677" lon="6.992242718115449"><ele></ele><time>2013-9-9T11:49:5Z</time></trkpt>
<trkpt lat="46.541791241616011" lon="6.992212543264031"><ele></ele><time>2013-9-9T11:49:8Z</time></trkpt>
<trkpt lat="46.54178973287344" lon="6.992177255451679"><ele></ele><time>2013-9-9T11:49:11Z</time></trkpt>
<trkpt lat="46.541790990158916" lon="6.992144817486405"><ele></ele><time>2013-9-9T11:49:14Z</time></trkpt>
<trkpt lat="46.541766598820686" lon="6.99200727045536"><ele></ele><time>2013-9-9T11:49:17Z</time></trkpt>
<trkpt lat="46.541751930490136" lon="6.991990506649017"><ele></ele><time>2013-9-9T11:49:20Z</time></trkpt>
<trkpt lat="46.541734579950571" lon="6.991975419223309"><ele></ele><time>2013-9-9T11:49:23Z</time></trkpt>
<trkpt lat="46.541718989610672" lon="6.991967875510454"><ele></ele><time>2013-9-9T11:49:26Z</time></trkpt>
<trkpt lat="46.541703063994646" lon="6.991965947672725"><ele></ele><time>2013-9-9T11:49:29Z</time></trkpt>
<trkpt lat="46.541625866666436" lon="6.991988327354193"><ele></ele><time>2013-9-9T11:49:32Z</time></trkpt>
<trkpt lat="46.541588483378291" lon="6.992015484720469"><ele></ele><time>2013-9-9T11:49:35Z</time></trkpt>
<trkpt lat="46.541568282991648" lon="6.992027806118131"><ele></ele><time>2013-9-9T11:49:38Z</time></trkpt>
<trkpt lat="46.541547244414687" lon="6.992035433650017"><ele></ele><time>2013-9-9T11:49:41Z</time></trkpt>
<trkpt lat="46.541525702923536" lon="6.992043312638998"><ele></ele><time>2013-9-9T11:49:44Z</time></trkpt>
<trkpt lat="46.541504245251417" lon="6.992052281275392"><ele></ele><time>2013-9-9T11:49:47Z</time></trkpt>
<trkpt lat="46.541425455361605" lon="6.992097878828645"><ele></ele><time>2013-9-9T11:49:50Z</time></trkpt>
<trkpt lat="46.541364938020706" lon="6.99212403036654"><ele></ele><time>2013-9-9T11:49:53Z</time></trkpt>
<trkpt lat="46.541345911100507" lon="6.992127886041999"><ele></ele><time>2013-9-9T11:49:56Z</time></trkpt>
<trkpt lat="46.54132504016161" lon="6.9921347592026"><ele></ele><time>2013-9-9T11:49:59Z</time></trkpt>
<trkpt lat="46.541306935250759" lon="6.992143811658025"><ele></ele><time>2013-9-9T11:50:2Z</time></trkpt>
<trkpt lat="46.541291428729892" lon="6.992149762809277"><ele></ele><time>2013-9-9T11:50:5Z</time></trkpt>
<trkpt lat="46.541219092905521" lon="6.992162335664034"><ele></ele><time>2013-9-9T11:50:8Z</time></trkpt>
<trkpt lat="46.541191348806024" lon="6.992179350927472"><ele></ele><time>2013-9-9T11:50:11Z</time></trkpt>
<trkpt lat="46.541175507009029" lon="6.992189576849341"><ele></ele><time>2013-9-9T11:50:14Z</time></trkpt>
<trkpt lat="46.541126053780317" lon="6.992196617648006"><ele></ele><time>2013-9-9T11:50:17Z</time></trkpt>
<trkpt lat="46.541112475097179" lon="6.992190247401595"><ele></ele><time>2013-9-9T11:50:20Z</time></trkpt>
<trkpt lat="46.541014909744263" lon="6.992100309580565"><ele></ele><time>2013-9-9T11:50:23Z</time></trkpt>
<trkpt lat="46.541010048240423" lon="6.992072397843003"><ele></ele><time>2013-9-9T11:50:26Z</time></trkpt>
<trkpt lat="46.541005270555615" lon="6.992045491933823"><ele></ele><time>2013-9-9T11:50:29Z</time></trkpt>
<trkpt lat="46.54100401327014" lon="6.992018669843674"><ele></ele><time>2013-9-9T11:50:32Z</time></trkpt>
<trkpt lat="46.54100744985044" lon="6.991992769762874"><ele></ele><time>2013-9-9T11:50:35Z</time></trkpt>
<trkpt lat="46.541038546711206" lon="6.991949770599604"><ele></ele><time>2013-9-9T11:50:38Z</time></trkpt>
<trkpt lat="46.54105631634593" lon="6.991924457252026"><ele></ele><time>2013-9-9T11:50:41Z</time></trkpt>
<trkpt lat="46.541095292195678" lon="6.991813816130161"><ele></ele><time>2013-9-9T11:50:44Z</time></trkpt>
<trkpt lat="46.541101410984993" lon="6.991786072030664"><ele></ele><time>2013-9-9T11:50:47Z</time></trkpt>
<trkpt lat="46.541106523945928" lon="6.991754891350865"><ele></ele><time>2013-9-9T11:50:50Z</time></trkpt>
<trkpt lat="46.541111972182989" lon="6.991724632680416"><ele></ele><time>2013-9-9T11:50:53Z</time></trkpt>
<trkpt lat="46.541114067658782" lon="6.991662103682756"><ele></ele><time>2013-9-9T11:50:56Z</time></trkpt>
<trkpt lat="46.541106607764959" lon="6.991529921069741"><ele></ele><time>2013-9-9T11:50:59Z</time></trkpt>
<trkpt lat="46.541103506460786" lon="6.991503350436688"><ele></ele><time>2013-9-9T11:51:2Z</time></trkpt>
<trkpt lat="46.541097890585661" lon="6.991483066231012"><ele></ele><time>2013-9-9T11:51:5Z</time></trkpt>
<trkpt lat="46.541089927777648" lon="6.991463620215654"><ele></ele><time>2013-9-9T11:51:8Z</time></trkpt>
<trkpt lat="46.541077354922891" lon="6.991444006562233"><ele></ele><time>2013-9-9T11:51:11Z</time></trkpt>
<trkpt lat="46.541066877543926" lon="6.991426069289446"><ele></ele><time>2013-9-9T11:51:14Z</time></trkpt>
<trkpt lat="46.54095564968884" lon="6.991271087899804"><ele></ele><time>2013-9-9T11:51:17Z</time></trkpt>
<trkpt lat="46.540881469845772" lon="6.991216186434031"><ele></ele><time>2013-9-9T11:51:20Z</time></trkpt>
<trkpt lat="46.540874177590013" lon="6.991217527538538"><ele></ele><time>2013-9-9T11:51:23Z</time></trkpt>
<trkpt lat="46.540863364934921" lon="6.991232866421342"><ele></ele><time>2013-9-9T11:51:26Z</time></trkpt>
<trkpt lat="46.540821539238095" lon="6.991218198090792"><ele></ele><time>2013-9-9T11:51:29Z</time></trkpt>
<trkpt lat="46.540742497891188" lon="6.99119565077126"><ele></ele><time>2013-9-9T11:51:32Z</time></trkpt>
<trkpt lat="46.540685249492526" lon="6.991184838116169"><ele></ele><time>2013-9-9T11:51:35Z</time></trkpt>
<trkpt lat="46.54062682762742" lon="6.99116975069046"><ele></ele><time>2013-9-9T11:51:38Z</time></trkpt>
<trkpt lat="46.540561700239778" lon="6.991152986884117"><ele></ele><time>2013-9-9T11:51:41Z</time></trkpt>
<trkpt lat="46.540490454062819" lon="6.991134043782949"><ele></ele><time>2013-9-9T11:51:44Z</time></trkpt>
<trkpt lat="46.540409736335278" lon="6.991110071539879"><ele></ele><time>2013-9-9T11:51:47Z</time></trkpt>
<trkpt lat="46.540323402732611" lon="6.991080064326525"><ele></ele><time>2013-9-9T11:51:50Z</time></trkpt>
<trkpt lat="46.540234135463834" lon="6.991042764857411"><ele></ele><time>2013-9-9T11:51:53Z</time></trkpt>
<trkpt lat="46.54014453291893" lon="6.990990042686462"><ele></ele><time>2013-9-9T11:51:56Z</time></trkpt>
<trkpt lat="46.540054259821773" lon="6.990929776802659"><ele></ele><time>2013-9-9T11:51:59Z</time></trkpt>
<trkpt lat="46.539966501295567" lon="6.990871857851744"><ele></ele><time>2013-9-9T11:52:2Z</time></trkpt>
<trkpt lat="46.539878072217107" lon="6.990815615281463"><ele></ele><time>2013-9-9T11:52:5Z</time></trkpt>
<trkpt lat="46.539786038920283" lon="6.990754678845406"><ele></ele><time>2013-9-9T11:52:8Z</time></trkpt>
<trkpt lat="46.53968813829124" lon="6.990689719095826"><ele></ele><time>2013-9-9T11:52:11Z</time></trkpt>
<trkpt lat="46.539594931527972" lon="6.990622412413359"><ele></ele><time>2013-9-9T11:52:14Z</time></trkpt>
<trkpt lat="46.539503820240498" lon="6.990546472370625"><ele></ele><time>2013-9-9T11:52:17Z</time></trkpt>
<trkpt lat="46.539415139704943" lon="6.99045485816896"><ele></ele><time>2013-9-9T11:52:20Z</time></trkpt>
<trkpt lat="46.53933291323483" lon="6.990354862064123"><ele></ele><time>2013-9-9T11:52:23Z</time></trkpt>
<trkpt lat="46.539255045354366" lon="6.990243885666132"><ele></ele><time>2013-9-9T11:52:26Z</time></trkpt>
<trkpt lat="46.539182206615806" lon="6.990125617012382"><ele></ele><time>2013-9-9T11:52:29Z</time></trkpt>
<trkpt lat="46.539118671789765" lon="6.990007935091853"><ele></ele><time>2013-9-9T11:52:32Z</time></trkpt>
<trkpt lat="46.53905731625855" lon="6.989882374182344"><ele></ele><time>2013-9-9T11:52:35Z</time></trkpt>
<trkpt lat="46.538998726755381" lon="6.989763686433435"><ele></ele><time>2013-9-9T11:52:38Z</time></trkpt>
<trkpt lat="46.538938712328672" lon="6.989650363102555"><ele></ele><time>2013-9-9T11:52:41Z</time></trkpt>
<trkpt lat="46.538874674588442" lon="6.989546595141292"><ele></ele><time>2013-9-9T11:52:44Z</time></trkpt>
<trkpt lat="46.538803428411484" lon="6.989458585157991"><ele></ele><time>2013-9-9T11:52:47Z</time></trkpt>
<trkpt lat="46.538727320730686" lon="6.9893803820014"><ele></ele><time>2013-9-9T11:52:50Z</time></trkpt>
<trkpt lat="46.538652470335364" lon="6.989309135824442"><ele></ele><time>2013-9-9T11:52:53Z</time></trkpt>
<trkpt lat="46.538512576371431" lon="6.989177288487554"><ele></ele><time>2013-9-9T11:52:56Z</time></trkpt>
<trkpt lat="46.538384249433875" lon="6.989041082561016"><ele></ele><time>2013-9-9T11:52:59Z</time></trkpt>
<trkpt lat="46.538324821740389" lon="6.988964723423123"><ele></ele><time>2013-9-9T11:53:2Z</time></trkpt>
<trkpt lat="46.538274697959423" lon="6.988904876634479"><ele></ele><time>2013-9-9T11:53:5Z</time></trkpt>
<trkpt lat="46.538227591663599" lon="6.988830780610442"><ele></ele><time>2013-9-9T11:53:8Z</time></trkpt>
<trkpt lat="46.538181742653251" lon="6.988749811425805"><ele></ele><time>2013-9-9T11:53:11Z</time></trkpt>
<trkpt lat="46.538129691034555" lon="6.988660376518965"><ele></ele><time>2013-9-9T11:53:14Z</time></trkpt>
<trkpt lat="46.538080489262938" lon="6.988568678498268"><ele></ele><time>2013-9-9T11:53:17Z</time></trkpt>
<trkpt lat="46.538031622767448" lon="6.988472118973732"><ele></ele><time>2013-9-9T11:53:20Z</time></trkpt>
<trkpt lat="46.537984432652593" lon="6.988371619954705"><ele></ele><time>2013-9-9T11:53:23Z</time></trkpt>
<trkpt lat="46.537939002737403" lon="6.988267097622156"><ele></ele><time>2013-9-9T11:53:26Z</time></trkpt>
<trkpt lat="46.537900529801846" lon="6.988154109567404"><ele></ele><time>2013-9-9T11:53:29Z</time></trkpt>
<trkpt lat="46.537865493446589" lon="6.988039696589112"><ele></ele><time>2013-9-9T11:53:32Z</time></trkpt>
<trkpt lat="46.537826098501682" lon="6.987921427935362"><ele></ele><time>2013-9-9T11:53:35Z</time></trkpt>
<trkpt lat="46.53779961168766" lon="6.987809278070927"><ele></ele><time>2013-9-9T11:53:38Z</time></trkpt>
<trkpt lat="46.537760635837913" lon="6.987716406583786"><ele></ele><time>2013-9-9T11:53:41Z</time></trkpt>
<trkpt lat="46.537709757685661" lon="6.987630575895309"><ele></ele><time>2013-9-9T11:53:44Z</time></trkpt>
<trkpt lat="46.537654437124729" lon="6.98754608631134"><ele></ele><time>2013-9-9T11:53:47Z</time></trkpt>
<trkpt lat="46.53759584762156" lon="6.987462434917688"><ele></ele><time>2013-9-9T11:53:50Z</time></trkpt>
<trkpt lat="46.537527618929744" lon="6.987383561208844"><ele></ele><time>2013-9-9T11:53:53Z</time></trkpt>
<trkpt lat="46.537461988627911" lon="6.987306280061603"><ele></ele><time>2013-9-9T11:53:56Z</time></trkpt>
<trkpt lat="46.537390490993857" lon="6.98722111992538"><ele></ele><time>2013-9-9T11:53:59Z</time></trkpt>
<trkpt lat="46.537322513759136" lon="6.987137468531728"><ele></ele><time>2013-9-9T11:54:2Z</time></trkpt>
<trkpt lat="46.537249842658639" lon="6.987038645893335"><ele></ele><time>2013-9-9T11:54:5Z</time></trkpt>
<trkpt lat="46.537178764119744" lon="6.986935716122389"><ele></ele><time>2013-9-9T11:54:8Z</time></trkpt>
<trkpt lat="46.537124365568161" lon="6.986836809664965"><ele></ele><time>2013-9-9T11:54:11Z</time></trkpt>
<trkpt lat="46.537075834348798" lon="6.986736226826906"><ele></ele><time>2013-9-9T11:54:14Z</time></trkpt>
<trkpt lat="46.537040043622255" lon="6.986636649817228"><ele></ele><time>2013-9-9T11:54:17Z</time></trkpt>
<trkpt lat="46.536997044458985" lon="6.986536318436265"><ele></ele><time>2013-9-9T11:54:20Z</time></trkpt>
<trkpt lat="46.536947004497051" lon="6.986462473869324"><ele></ele><time>2013-9-9T11:54:23Z</time></trkpt>
<trkpt lat="46.536895036697388" lon="6.986399525776506"><ele></ele><time>2013-9-9T11:54:26Z</time></trkpt>
<trkpt lat="46.536836195737123" lon="6.986351162195206"><ele></ele><time>2013-9-9T11:54:29Z</time></trkpt>
<trkpt lat="46.536774588748813" lon="6.986305564641953"><ele></ele><time>2013-9-9T11:54:32Z</time></trkpt>
<trkpt lat="46.536699486896396" lon="6.986294249072671"><ele></ele><time>2013-9-9T11:54:35Z</time></trkpt>
<trkpt lat="46.53662103228271" lon="6.986277820542455"><ele></ele><time>2013-9-9T11:54:38Z</time></trkpt>
<trkpt lat="46.536536123603582" lon="6.98626047000289"><ele></ele><time>2013-9-9T11:54:41Z</time></trkpt>
<trkpt lat="46.53644853271544" lon="6.986236916854978"><ele></ele><time>2013-9-9T11:54:44Z</time></trkpt>
<trkpt lat="46.536369575187564" lon="6.986200120300055"><ele></ele><time>2013-9-9T11:54:47Z</time></trkpt>
<trkpt lat="46.536301346495748" lon="6.986141866073012"><ele></ele><time>2013-9-9T11:54:50Z</time></trkpt>
<trkpt lat="46.536249378696084" lon="6.986058801412582"><ele></ele><time>2013-9-9T11:54:53Z</time></trkpt>
<trkpt lat="46.53620277531445" lon="6.985965175554156"><ele></ele><time>2013-9-9T11:54:56Z</time></trkpt>
<trkpt lat="46.536145946010947" lon="6.985879763960838"><ele></ele><time>2013-9-9T11:54:59Z</time></trkpt>
<trkpt lat="46.536087188869715" lon="6.985794939100742"><ele></ele><time>2013-9-9T11:55:2Z</time></trkpt>
<trkpt lat="46.536032874137163" lon="6.985730901360512"><ele></ele><time>2013-9-9T11:55:5Z</time></trkpt>
<trkpt lat="46.535981660708785" lon="6.98568974621594"><ele></ele><time>2013-9-9T11:55:8Z</time></trkpt>
<trkpt lat="46.53593354858458" lon="6.985671892762184"><ele></ele><time>2013-9-9T11:55:11Z</time></trkpt>
<trkpt lat="46.535885268822312" lon="6.985678765922785"><ele></ele><time>2013-9-9T11:55:14Z</time></trkpt>
<trkpt lat="46.535834223031998" lon="6.985706342384219"><ele></ele><time>2013-9-9T11:55:17Z</time></trkpt>
<trkpt lat="46.535797258839011" lon="6.985748670995235"><ele></ele><time>2013-9-9T11:55:20Z</time></trkpt>
<trkpt lat="46.535749984905124" lon="6.985789323225617"><ele></ele><time>2013-9-9T11:55:23Z</time></trkpt>
<trkpt lat="46.535687623545527" lon="6.985820000991225"><ele></ele><time>2013-9-9T11:55:26Z</time></trkpt>
<trkpt lat="46.535619562491775" lon="6.985843302682042"><ele></ele><time>2013-9-9T11:55:29Z</time></trkpt>
<trkpt lat="46.535546304658055" lon="6.985860653221607"><ele></ele><time>2013-9-9T11:55:32Z</time></trkpt>
<trkpt lat="46.535475477576256" lon="6.985875153914094"><ele></ele><time>2013-9-9T11:55:35Z</time></trkpt>
<trkpt lat="46.53540775179863" lon="6.985893929377198"><ele></ele><time>2013-9-9T11:55:38Z</time></trkpt>
<trkpt lat="46.535344971343875" lon="6.985902478918433"><ele></ele><time>2013-9-9T11:55:41Z</time></trkpt>
<trkpt lat="46.535288644954562" lon="6.985898204147816"><ele></ele><time>2013-9-9T11:55:44Z</time></trkpt>
<trkpt lat="46.535233492031693" lon="6.985889989882708"><ele></ele><time>2013-9-9T11:55:47Z</time></trkpt>
<trkpt lat="46.53518202714622" lon="6.985869118943811"><ele></ele><time>2013-9-9T11:55:50Z</time></trkpt>
<trkpt lat="46.535132993012667" lon="6.985826119780541"><ele></ele><time>2013-9-9T11:55:53Z</time></trkpt>
<trkpt lat="46.535102063789964" lon="6.985767195001245"><ele></ele><time>2013-9-9T11:55:56Z</time></trkpt>
<trkpt lat="46.535089993849397" lon="6.985688405111432"><ele></ele><time>2013-9-9T11:55:59Z</time></trkpt>
<trkpt lat="46.535093430429697" lon="6.985594946891069"><ele></ele><time>2013-9-9T11:56:2Z</time></trkpt>
<trkpt lat="46.535106590017676" lon="6.98549335822463"><ele></ele><time>2013-9-9T11:56:5Z</time></trkpt>
<trkpt lat="46.535121258348227" lon="6.985386488959193"><ele></ele><time>2013-9-9T11:56:8Z</time></trkpt>
<trkpt lat="46.535139949992299" lon="6.985269645228982"><ele></ele><time>2013-9-9T11:56:11Z</time></trkpt>
<trkpt lat="46.535142548382282" lon="6.985165122896433"><ele></ele><time>2013-9-9T11:56:14Z</time></trkpt>
<trkpt lat="46.53512385673821" lon="6.985076023265719"><ele></ele><time>2013-9-9T11:56:17Z</time></trkpt>
<trkpt lat="46.535085970535874" lon="6.984991617500782"><ele></ele><time>2013-9-9T11:56:20Z</time></trkpt>
<trkpt lat="46.535045653581619" lon="6.984910648316145"><ele></ele><time>2013-9-9T11:56:23Z</time></trkpt>
<trkpt lat="46.535002402961254" lon="6.984827248379588"><ele></ele><time>2013-9-9T11:56:26Z</time></trkpt>
<trkpt lat="46.534957475960255" lon="6.984734795987606"><ele></ele><time>2013-9-9T11:56:29Z</time></trkpt>
<trkpt lat="46.534913303330541" lon="6.984634296968579"><ele></ele><time>2013-9-9T11:56:32Z</time></trkpt>
<trkpt lat="46.534861503168941" lon="6.98452340438962"><ele></ele><time>2013-9-9T11:56:35Z</time></trkpt>
<trkpt lat="46.53481263667345" lon="6.984404549002647"><ele></ele><time>2013-9-9T11:56:38Z</time></trkpt>
<trkpt lat="46.534757567569613" lon="6.984273623675108"><ele></ele><time>2013-9-9T11:56:41Z</time></trkpt>
<trkpt lat="46.534712472930551" lon="6.984140183776617"><ele></ele><time>2013-9-9T11:56:44Z</time></trkpt>
<trkpt lat="46.534696966409683" lon="6.984030799940229"><ele></ele><time>2013-9-9T11:56:47Z</time></trkpt>
<trkpt lat="46.534692440181971" lon="6.983914040029049"><ele></ele><time>2013-9-9T11:56:50Z</time></trkpt>
<trkpt lat="46.534725548699498" lon="6.983779929578304"><ele></ele><time>2013-9-9T11:56:53Z</time></trkpt>
<trkpt lat="46.534756394103169" lon="6.983652357012034"><ele></ele><time>2013-9-9T11:56:56Z</time></trkpt>
<trkpt lat="46.534788412973285" lon="6.983521515503526"><ele></ele><time>2013-9-9T11:56:59Z</time></trkpt>
<trkpt lat="46.534816324710846" lon="6.983396792784333"><ele></ele><time>2013-9-9T11:57:2Z</time></trkpt>
<trkpt lat="46.534851444885135" lon="6.983277434483171"><ele></ele><time>2013-9-9T11:57:5Z</time></trkpt>
<trkpt lat="46.534906765446067" lon="6.983173917979002"><ele></ele><time>2013-9-9T11:57:8Z</time></trkpt>
<trkpt lat="46.534954626113176" lon="6.983064198866487"><ele></ele><time>2013-9-9T11:57:11Z</time></trkpt>
<trkpt lat="46.535028051584959" lon="6.982968896627426"><ele></ele><time>2013-9-9T11:57:14Z</time></trkpt>
<trkpt lat="46.535105668008327" lon="6.982878874987364"><ele></ele><time>2013-9-9T11:57:17Z</time></trkpt>
<trkpt lat="46.535190492868423" lon="6.982851717621088"><ele></ele><time>2013-9-9T11:57:20Z</time></trkpt>
<trkpt lat="46.53527682647109" lon="6.98283763602376"><ele></ele><time>2013-9-9T11:57:23Z</time></trkpt>
<trkpt lat="46.535357963293791" lon="6.982812490314245"><ele></ele><time>2013-9-9T11:57:26Z</time></trkpt>
<trkpt lat="46.535464748740196" lon="6.982804192230105"><ele></ele><time>2013-9-9T11:57:29Z</time></trkpt>
<trkpt lat="46.535643618553877" lon="6.98279513977468"><ele></ele><time>2013-9-9T11:57:32Z</time></trkpt>
<trkpt lat="46.535703465342522" lon="6.982799163088203"><ele></ele><time>2013-9-9T11:57:35Z</time></trkpt>
<trkpt lat="46.535766161978245" lon="6.982793295755982"><ele></ele><time>2013-9-9T11:57:38Z</time></trkpt>
<trkpt lat="46.535819219425321" lon="6.982761863619089"><ele></ele><time>2013-9-9T11:57:41Z</time></trkpt>
<trkpt lat="46.535874959081411" lon="6.982715427875519"><ele></ele><time>2013-9-9T11:57:44Z</time></trkpt>
<trkpt lat="46.535921562463045" lon="6.982661113142967"><ele></ele><time>2013-9-9T11:57:47Z</time></trkpt>
<trkpt lat="46.535965902730823" lon="6.982599087059498"><ele></ele><time>2013-9-9T11:57:50Z</time></trkpt>
<trkpt lat="46.536001525819302" lon="6.98253027163446"><ele></ele><time>2013-9-9T11:57:53Z</time></trkpt>
<trkpt lat="46.536031533032656" lon="6.982460031285882"><ele></ele><time>2013-9-9T11:57:56Z</time></trkpt>
<trkpt lat="46.536061456426978" lon="6.982389790937305"><ele></ele><time>2013-9-9T11:57:59Z</time></trkpt>
<trkpt lat="46.536090960726142" lon="6.982319885864854"><ele></ele><time>2013-9-9T11:58:2Z</time></trkpt>
<trkpt lat="46.536115352064371" lon="6.982251657173038"><ele></ele><time>2013-9-9T11:58:5Z</time></trkpt>
<trkpt lat="46.53613580390811" lon="6.982182841747999"><ele></ele><time>2013-9-9T11:58:8Z</time></trkpt>
<trkpt lat="46.536154076457024" lon="6.982120480388403"><ele></ele><time>2013-9-9T11:58:11Z</time></trkpt>
<trkpt lat="46.536168158054352" lon="6.982065578922629"><ele></ele><time>2013-9-9T11:58:14Z</time></trkpt>
<trkpt lat="46.536176791414618" lon="6.982006821781397"><ele></ele><time>2013-9-9T11:58:17Z</time></trkpt>
<trkpt lat="46.536179054528475" lon="6.981942281126976"><ele></ele><time>2013-9-9T11:58:20Z</time></trkpt>
<trkpt lat="46.536179222166538" lon="6.981886122375727"><ele></ele><time>2013-9-9T11:58:23Z</time></trkpt>
<trkpt lat="46.536179054528475" lon="6.981833986938"><ele></ele><time>2013-9-9T11:58:26Z</time></trkpt>
<trkpt lat="46.536039998754859" lon="6.981827365234494"><ele></ele><time>2013-9-9T11:58:29Z</time></trkpt>
<trkpt lat="46.535942265763879" lon="6.981789981946349"><ele></ele><time>2013-9-9T11:58:32Z</time></trkpt>
<trkpt lat="46.535856854170561" lon="6.981764584779739"><ele></ele><time>2013-9-9T11:58:35Z</time></trkpt>
<trkpt lat="46.535817626863718" lon="6.981733152642846"><ele></ele><time>2013-9-9T11:58:38Z</time></trkpt>
<trkpt lat="46.535779824480414" lon="6.98170742020011"><ele></ele><time>2013-9-9T11:58:41Z</time></trkpt>
<trkpt lat="46.535749901086092" lon="6.981676071882248"><ele></ele><time>2013-9-9T11:58:44Z</time></trkpt>
<trkpt lat="46.535723749548197" lon="6.981645813211799"><ele></ele><time>2013-9-9T11:58:47Z</time></trkpt>
<trkpt lat="46.535702375695109" lon="6.981612956151366"><ele></ele><time>2013-9-9T11:58:50Z</time></trkpt>
<trkpt lat="46.535687539726496" lon="6.981578003615141"><ele></ele><time>2013-9-9T11:58:53Z</time></trkpt>
<trkpt lat="46.535677313804626" lon="6.981538608670235"><ele></ele><time>2013-9-9T11:58:56Z</time></trkpt>
<trkpt lat="46.535644875839353" lon="6.981497034430504"><ele></ele><time>2013-9-9T11:58:59Z</time></trkpt>
<trkpt lat="46.535609588027" lon="6.981450263410807"><ele></ele><time>2013-9-9T11:59:2Z</time></trkpt>
<trkpt lat="46.535591566935182" lon="6.981397708877921"><ele></ele><time>2013-9-9T11:59:5Z</time></trkpt>
<trkpt lat="46.535565499216318" lon="6.981339119374752"><ele></ele><time>2013-9-9T11:59:8Z</time></trkpt>
<trkpt lat="46.535537000745535" lon="6.981283128261566"><ele></ele><time>2013-9-9T11:59:11Z</time></trkpt>
<trkpt lat="46.535522835329175" lon="6.981227556243539"><ele></ele><time>2013-9-9T11:59:14Z</time></trkpt>
<trkpt lat="46.535506574437022" lon="6.981164189055562"><ele></ele><time>2013-9-9T11:59:17Z</time></trkpt>
<trkpt lat="46.53549081645906" lon="6.981101911514998"><ele></ele><time>2013-9-9T11:59:20Z</time></trkpt>
<trkpt lat="46.535472879186273" lon="6.981037706136704"><ele></ele><time>2013-9-9T11:59:23Z</time></trkpt>
<trkpt lat="46.535449828952551" lon="6.980968471616507"><ele></ele><time>2013-9-9T11:59:26Z</time></trkpt>
<trkpt lat="46.535447482019663" lon="6.980888759717345"><ele></ele><time>2013-9-9T11:59:29Z</time></trkpt>
<trkpt lat="46.535437507554889" lon="6.980809383094311"><ele></ele><time>2013-9-9T11:59:32Z</time></trkpt>
<trkpt lat="46.535440692678094" lon="6.980721037834883"><ele></ele><time>2013-9-9T11:59:35Z</time></trkpt>
<trkpt lat="46.5354541875422" lon="6.980632692575455"><ele></ele><time>2013-9-9T11:59:38Z</time></trkpt>
<trkpt lat="46.535470867529511" lon="6.980539234355092"><ele></ele><time>2013-9-9T11:59:41Z</time></trkpt>
<trkpt lat="46.535486038774252" lon="6.980453236028552"><ele></ele><time>2013-9-9T11:59:44Z</time></trkpt>
<trkpt lat="46.535493163391948" lon="6.980358520522714"><ele></ele><time>2013-9-9T11:59:47Z</time></trkpt>
<trkpt lat="46.5354991145432" lon="6.980281071737409"><ele></ele><time>2013-9-9T11:59:50Z</time></trkpt>
<trkpt lat="46.535447062924504" lon="6.98022005148232"><ele></ele><time>2013-9-9T11:59:53Z</time></trkpt>
<trkpt lat="46.535390568897128" lon="6.980146877467632"><ele></ele><time>2013-9-9T11:59:56Z</time></trkpt>
<trkpt lat="46.535338768735528" lon="6.98009105399251"><ele></ele><time>2013-9-9T11:59:59Z</time></trkpt>
<trkpt lat="46.535274563357234" lon="6.980076469480991"><ele></ele><time>2013-9-9T12:0:2Z</time></trkpt>
<trkpt lat="46.53520742431283" lon="6.980083761736751"><ele></ele><time>2013-9-9T12:0:5Z</time></trkpt>
<trkpt lat="46.535129891708493" lon="6.980088707059622"><ele></ele><time>2013-9-9T12:0:8Z</time></trkpt>
<trkpt lat="46.53505546040833" lon="6.98008225299418"><ele></ele><time>2013-9-9T12:0:11Z</time></trkpt>
<trkpt lat="46.534983040764928" lon="6.980073535814881"><ele></ele><time>2013-9-9T12:0:14Z</time></trkpt>
<trkpt lat="46.534913219511509" lon="6.980070099234581"><ele></ele><time>2013-9-9T12:0:17Z</time></trkpt>
<trkpt lat="46.534847421571612" lon="6.980085605755448"><ele></ele><time>2013-9-9T12:0:20Z</time></trkpt>
<trkpt lat="46.534785144031048" lon="6.980088539421558"><ele></ele><time>2013-9-9T12:0:23Z</time></trkpt>
<trkpt lat="46.534741139039397" lon="6.980079151690006"><ele></ele><time>2013-9-9T12:0:26Z</time></trkpt>
<trkpt lat="46.534718507900834" lon="6.980057945474982"><ele></ele><time>2013-9-9T12:0:29Z</time></trkpt>
<trkpt lat="46.534718004986644" lon="6.980013940483332"><ele></ele><time>2013-9-9T12:0:32Z</time></trkpt>
<trkpt lat="46.534718424081802" lon="6.97996306233108"><ele></ele><time>2013-9-9T12:0:35Z</time></trkpt>
<trkpt lat="46.534718675538898" lon="6.979912016540766"><ele></ele><time>2013-9-9T12:0:38Z</time></trkpt>
<trkpt lat="46.534709958359599" lon="6.979860886931419"><ele></ele><time>2013-9-9T12:0:41Z</time></trkpt>
<trkpt lat="46.534708868712187" lon="6.979806572198868"><ele></ele><time>2013-9-9T12:0:44Z</time></trkpt>
<trkpt lat="46.534684728831053" lon="6.979774301871657"><ele></ele><time>2013-9-9T12:0:47Z</time></trkpt>
<trkpt lat="46.534642148762941" lon="6.979777822270989"><ele></ele><time>2013-9-9T12:0:50Z</time></trkpt>
<trkpt lat="46.534604430198669" lon="6.979769440367818"><ele></ele><time>2013-9-9T12:0:53Z</time></trkpt>
<trkpt lat="46.534562101587653" lon="6.979759046807885"><ele></ele><time>2013-9-9T12:0:56Z</time></trkpt>
<trkpt lat="46.534518096596003" lon="6.979738846421242"><ele></ele><time>2013-9-9T12:0:59Z</time></trkpt>
<trkpt lat="46.534464620053768" lon="6.979726189747453"><ele></ele><time>2013-9-9T12:1:2Z</time></trkpt>
<trkpt lat="46.534407204017043" lon="6.979699619114399"><ele></ele><time>2013-9-9T12:1:5Z</time></trkpt>
<trkpt lat="46.534340064972639" lon="6.979668857529759"><ele></ele><time>2013-9-9T12:1:8Z</time></trkpt>
<trkpt lat="46.534267058596015" lon="6.979642873629928"><ele></ele><time>2013-9-9T12:1:11Z</time></trkpt>
<trkpt lat="46.534190448001027" lon="6.979619236662984"><ele></ele><time>2013-9-9T12:1:14Z</time></trkpt>
<trkpt lat="46.534110233187675" lon="6.979601131752133"><ele></ele><time>2013-9-9T12:1:17Z</time></trkpt>
<trkpt lat="46.534030437469482" lon="6.979593252763152"><ele></ele><time>2013-9-9T12:1:20Z</time></trkpt>
<trkpt lat="46.533955922350287" lon="6.979585709050298"><ele></ele><time>2013-9-9T12:1:23Z</time></trkpt>
<trkpt lat="46.533878305926919" lon="6.979584032669663"><ele></ele><time>2013-9-9T12:1:26Z</time></trkpt>
<trkpt lat="46.53380261734128" lon="6.979579338803887"><ele></ele><time>2013-9-9T12:1:29Z</time></trkpt>
<trkpt lat="46.533725336194038" lon="6.979586631059647"><ele></ele><time>2013-9-9T12:1:32Z</time></trkpt>
<trkpt lat="46.533572617918253" lon="6.979559725150466"><ele></ele><time>2013-9-9T12:1:35Z</time></trkpt>
<trkpt lat="46.533493241295218" lon="6.979545811191201"><ele></ele><time>2013-9-9T12:1:38Z</time></trkpt>
<trkpt lat="46.533417385071516" lon="6.979513373225927"><ele></ele><time>2013-9-9T12:1:41Z</time></trkpt>
<trkpt lat="46.533354436978698" lon="6.979457633569837"><ele></ele><time>2013-9-9T12:1:44Z</time></trkpt>
<trkpt lat="46.533296601846814" lon="6.979376748204231"><ele></ele><time>2013-9-9T12:1:47Z</time></trkpt>
<trkpt lat="46.533254440873861" lon="6.979276752099395"><ele></ele><time>2013-9-9T12:1:50Z</time></trkpt>
<trkpt lat="46.533227702602744" lon="6.979169966652989"><ele></ele><time>2013-9-9T12:1:53Z</time></trkpt>
<trkpt lat="46.533214207738638" lon="6.979056894779205"><ele></ele><time>2013-9-9T12:1:56Z</time></trkpt>
<trkpt lat="46.533236755058169" lon="6.978927729651332"><ele></ele><time>2013-9-9T12:1:59Z</time></trkpt>
<trkpt lat="46.533257625997066" lon="6.978803258389235"><ele></ele><time>2013-9-9T12:2:2Z</time></trkpt>
<trkpt lat="46.533269193023443" lon="6.978690437972546"><ele></ele><time>2013-9-9T12:2:5Z</time></trkpt>
<trkpt lat="46.533272545784712" lon="6.97858365252614"><ele></ele><time>2013-9-9T12:2:8Z</time></trkpt>
<trkpt lat="46.533280843868852" lon="6.978315096348524"><ele></ele><time>2013-9-9T12:2:11Z</time></trkpt>
<trkpt lat="46.533334236592054" lon="6.978095741942525"><ele></ele><time>2013-9-9T12:2:14Z</time></trkpt>
<trkpt lat="46.533361980691552" lon="6.978121558204293"><ele></ele><time>2013-9-9T12:2:17Z</time></trkpt>
<trkpt lat="46.533383186906576" lon="6.978151565417647"><ele></ele><time>2013-9-9T12:2:20Z</time></trkpt>
<trkpt lat="46.533409589901567" lon="6.978180650621653"><ele></ele><time>2013-9-9T12:2:23Z</time></trkpt>
<trkpt lat="46.533422162756324" lon="6.978216106072068"><ele></ele><time>2013-9-9T12:2:26Z</time></trkpt>
<trkpt lat="46.533426437526941" lon="6.978248208761215"><ele></ele><time>2013-9-9T12:2:29Z</time></trkpt>
<trkpt lat="46.533322250470519" lon="6.978640481829643"><ele></ele><time>2013-9-9T12:2:32Z</time></trkpt>
<trkpt lat="46.533314539119601" lon="6.978632602840662"><ele></ele><time>2013-9-9T12:2:35Z</time></trkpt>
<trkpt lat="46.533281179144979" lon="6.97851131670177"><ele></ele><time>2013-9-9T12:2:38Z</time></trkpt>
<trkpt lat="46.533282771706581" lon="6.978499414399266"><ele></ele><time>2013-9-9T12:2:41Z</time></trkpt>
<trkpt lat="46.533206580206752" lon="6.978386342525482"><ele></ele><time>2013-9-9T12:2:44Z</time></trkpt>
<trkpt lat="46.533159054815769" lon="6.978368824347854"><ele></ele><time>2013-9-9T12:2:47Z</time></trkpt>
<trkpt lat="46.533104823902249" lon="6.978349043056369"><ele></ele><time>2013-9-9T12:2:50Z</time></trkpt>
<trkpt lat="46.533072302117944" lon="6.978342002257705"><ele></ele><time>2013-9-9T12:2:53Z</time></trkpt>
<trkpt lat="46.533039696514606" lon="6.978338062763214"><ele></ele><time>2013-9-9T12:2:56Z</time></trkpt>
<trkpt lat="46.533011784777045" lon="6.978326244279742"><ele></ele><time>2013-9-9T12:2:59Z</time></trkpt>
<trkpt lat="46.532990662381053" lon="6.978312246501446"><ele></ele><time>2013-9-9T12:3:2Z</time></trkpt>
<trkpt lat="46.532920338213444" lon="6.978286514058709"><ele></ele><time>2013-9-9T12:3:5Z</time></trkpt>
<trkpt lat="46.532896868884563" lon="6.978281820192933"><ele></ele><time>2013-9-9T12:3:8Z</time></trkpt>
<trkpt lat="46.532870633527637" lon="6.978276623412967"><ele></ele><time>2013-9-9T12:3:11Z</time></trkpt>
<trkpt lat="46.532846326008439" lon="6.978273019194603"><ele></ele><time>2013-9-9T12:3:14Z</time></trkpt>
<trkpt lat="46.532820342108607" lon="6.978264804929495"><ele></ele><time>2013-9-9T12:3:17Z</time></trkpt>
<trkpt lat="46.532790418714285" lon="6.978254579007626"><ele></ele><time>2013-9-9T12:3:20Z</time></trkpt>
<trkpt lat="46.532758232206106" lon="6.978242509067059"><ele></ele><time>2013-9-9T12:3:23Z</time></trkpt>
<trkpt lat="46.532726632431149" lon="6.978230271488428"><ele></ele><time>2013-9-9T12:3:26Z</time></trkpt>
<trkpt lat="46.532693691551685" lon="6.978220967575908"><ele></ele><time>2013-9-9T12:3:29Z</time></trkpt>
<trkpt lat="46.532660247758031" lon="6.978207807987928"><ele></ele><time>2013-9-9T12:3:32Z</time></trkpt>
<trkpt lat="46.532631330192089" lon="6.978188445791602"><ele></ele><time>2013-9-9T12:3:35Z</time></trkpt>
<trkpt lat="46.532601993530989" lon="6.978173526003957"><ele></ele><time>2013-9-9T12:3:38Z</time></trkpt>
<trkpt lat="46.532576093450189" lon="6.9781609531492"><ele></ele><time>2013-9-9T12:3:41Z</time></trkpt>
<trkpt lat="46.532511133700609" lon="6.978126000612974"><ele></ele><time>2013-9-9T12:3:44Z</time></trkpt>
<trkpt lat="46.532481210306287" lon="6.978100938722491"><ele></ele><time>2013-9-9T12:3:47Z</time></trkpt>
<trkpt lat="46.532490765675902" lon="6.978109488263726"><ele></ele><time>2013-9-9T12:3:50Z</time></trkpt>
<trkpt lat="46.53265924192965" lon="6.978163551539183"><ele></ele><time>2013-9-9T12:3:53Z</time></trkpt>
<trkpt lat="46.532692685723305" lon="6.978189870715141"><ele></ele><time>2013-9-9T12:3:56Z</time></trkpt>
<trkpt lat="46.532805087044835" lon="6.978244353085756"><ele></ele><time>2013-9-9T12:3:59Z</time></trkpt>
<trkpt lat="46.532856551930308" lon="6.978272683918476"><ele></ele><time>2013-9-9T12:4:2Z</time></trkpt>
<trkpt lat="46.532860156148672" lon="6.978276707231998"><ele></ele><time>2013-9-9T12:4:5Z</time></trkpt>
<trkpt lat="46.532867280766368" lon="6.978282993659377"><ele></ele><time>2013-9-9T12:4:8Z</time></trkpt>
<trkpt lat="46.532874908298254" lon="6.978287016972899"><ele></ele><time>2013-9-9T12:4:11Z</time></trkpt>
<trkpt lat="46.532941041514277" lon="6.978305373340845"><ele></ele><time>2013-9-9T12:4:14Z</time></trkpt>
<trkpt lat="46.532954201102257" lon="6.97830269113183"><ele></ele><time>2013-9-9T12:4:17Z</time></trkpt>
<trkpt lat="46.532966187223792" lon="6.978306630626321"><ele></ele><time>2013-9-9T12:4:20Z</time></trkpt>
<trkpt lat="46.53297733515501" lon="6.978309815749526"><ele></ele><time>2013-9-9T12:4:23Z</time></trkpt>
<trkpt lat="46.532988147810102" lon="6.978312749415636"><ele></ele><time>2013-9-9T12:4:26Z</time></trkpt>
<trkpt lat="46.533000553026795" lon="6.978314509615302"><ele></ele><time>2013-9-9T12:4:29Z</time></trkpt>
<trkpt lat="46.533098872750998" lon="6.978344768285751"><ele></ele><time>2013-9-9T12:4:32Z</time></trkpt>
<trkpt lat="46.533155953511596" lon="6.97836228646338"><ele></ele><time>2013-9-9T12:4:35Z</time></trkpt>
<trkpt lat="46.533165089786053" lon="6.978364298120141"><ele></ele><time>2013-9-9T12:4:38Z</time></trkpt>
<trkpt lat="46.533176070079207" lon="6.978365890681744"><ele></ele><time>2013-9-9T12:4:41Z</time></trkpt>
<trkpt lat="46.533187134191394" lon="6.978366309776902"><ele></ele><time>2013-9-9T12:4:44Z</time></trkpt>
<trkpt lat="46.533190067857504" lon="6.978374104946852"><ele></ele><time>2013-9-9T12:4:47Z</time></trkpt>
<trkpt lat="46.533193085342646" lon="6.978378212079406"><ele></ele><time>2013-9-9T12:4:50Z</time></trkpt>
<trkpt lat="46.533236000686884" lon="6.978400843217969"><ele></ele><time>2013-9-9T12:4:53Z</time></trkpt>
<trkpt lat="46.533250585198402" lon="6.978404950350523"><ele></ele><time>2013-9-9T12:4:56Z</time></trkpt>
<trkpt lat="46.533265337347984" lon="6.978410733863711"><ele></ele><time>2013-9-9T12:4:59Z</time></trkpt>
<trkpt lat="46.533277407288551" lon="6.978418529033661"><ele></ele><time>2013-9-9T12:5:2Z</time></trkpt>
<trkpt lat="46.533289225772023" lon="6.978426240384579"><ele></ele><time>2013-9-9T12:5:5Z</time></trkpt>
<trkpt lat="46.533307665959001" lon="6.978444010019302"><ele></ele><time>2013-9-9T12:5:8Z</time></trkpt>
<trkpt lat="46.533341277390718" lon="6.978511400520802"><ele></ele><time>2013-9-9T12:5:11Z</time></trkpt>
<trkpt lat="46.533327111974359" lon="6.978558674454689"><ele></ele><time>2013-9-9T12:5:14Z</time></trkpt>
<trkpt lat="46.533329207450151" lon="6.978643666952848"><ele></ele><time>2013-9-9T12:5:17Z</time></trkpt>
<trkpt lat="46.533330883830786" lon="6.978666968643665"><ele></ele><time>2013-9-9T12:5:20Z</time></trkpt>
<trkpt lat="46.533373212441802" lon="6.978811724111438"><ele></ele><time>2013-9-9T12:5:23Z</time></trkpt>
<trkpt lat="46.533404476940632" lon="6.978800073266029"><ele></ele><time>2013-9-9T12:5:26Z</time></trkpt>
<trkpt lat="46.53345862403512" lon="6.978777023032308"><ele></ele><time>2013-9-9T12:5:29Z</time></trkpt>
<trkpt lat="46.533525427803397" lon="6.978741148486733"><ele></ele><time>2013-9-9T12:5:32Z</time></trkpt>
<trkpt lat="46.533562978729606" lon="6.978712398558855"><ele></ele><time>2013-9-9T12:5:35Z</time></trkpt>
<trkpt lat="46.533606061711907" lon="6.978681804612279"><ele></ele><time>2013-9-9T12:5:38Z</time></trkpt>
<trkpt lat="46.533657610416412" lon="6.978651043027639"><ele></ele><time>2013-9-9T12:5:41Z</time></trkpt>
<trkpt lat="46.53371024876833" lon="6.978621119633317"><ele></ele><time>2013-9-9T12:5:44Z</time></trkpt>
<trkpt lat="46.533765736967325" lon="6.978587256744504"><ele></ele><time>2013-9-9T12:5:47Z</time></trkpt>
<trkpt lat="46.533825248479843" lon="6.978553058579564"><ele></ele><time>2013-9-9T12:5:50Z</time></trkpt>
<trkpt lat="46.533910827711225" lon="6.978500001132488"><ele></ele><time>2013-9-9T12:5:53Z</time></trkpt>
<trkpt lat="46.534002441912889" lon="6.978466641157866"><ele></ele><time>2013-9-9T12:5:56Z</time></trkpt>
<trkpt lat="46.534097073599696" lon="6.978447949513793"><ele></ele><time>2013-9-9T12:5:59Z</time></trkpt>
<trkpt lat="46.534190699458122" lon="6.978421714156866"><ele></ele><time>2013-9-9T12:6:2Z</time></trkpt>
<trkpt lat="46.534277368336916" lon="6.978393970057368"><ele></ele><time>2013-9-9T12:6:5Z</time></trkpt>
<trkpt lat="46.534367892891169" lon="6.978358179330826"><ele></ele><time>2013-9-9T12:6:8Z</time></trkpt>
<trkpt lat="46.534446850419044" lon="6.97831392288208"><ele></ele><time>2013-9-9T12:6:11Z</time></trkpt>
<trkpt lat="46.534522539004683" lon="6.978250723332167"><ele></ele><time>2013-9-9T12:6:14Z</time></trkpt>
<trkpt lat="46.534588253125548" lon="6.978187104687095"><ele></ele><time>2013-9-9T12:6:17Z</time></trkpt>
<trkpt lat="46.534632006660104" lon="6.978116612881422"><ele></ele><time>2013-9-9T12:6:20Z</time></trkpt>
<trkpt lat="46.534659080207348" lon="6.978035727515817"><ele></ele><time>2013-9-9T12:6:23Z</time></trkpt>
<trkpt lat="46.534674251452088" lon="6.977952076122165"><ele></ele><time>2013-9-9T12:6:26Z</time></trkpt>
<trkpt lat="46.53467626310885" lon="6.977858198806644"><ele></ele><time>2013-9-9T12:6:29Z</time></trkpt>
<trkpt lat="46.534661930054426" lon="6.977755520492792"><ele></ele><time>2013-9-9T12:6:32Z</time></trkpt>
<trkpt lat="46.534631755203009" lon="6.977638090029359"><ele></ele><time>2013-9-9T12:6:35Z</time></trkpt>
<trkpt lat="46.534579787403345" lon="6.977493250742555"><ele></ele><time>2013-9-9T12:6:38Z</time></trkpt>
<trkpt lat="46.534531340003014" lon="6.977352937683463"><ele></ele><time>2013-9-9T12:6:41Z</time></trkpt>
<trkpt lat="46.534481970593333" lon="6.977214552462101"><ele></ele><time>2013-9-9T12:6:44Z</time></trkpt>
<trkpt lat="46.534444838762283" lon="6.977083794772625"><ele></ele><time>2013-9-9T12:6:47Z</time></trkpt>
<trkpt lat="46.534409048035741" lon="6.976949516683817"><ele></ele><time>2013-9-9T12:6:50Z</time></trkpt>
<trkpt lat="46.534385327249765" lon="6.976813897490501"><ele></ele><time>2013-9-9T12:6:53Z</time></trkpt>
<trkpt lat="46.534374598413706" lon="6.976669812574983"><ele></ele><time>2013-9-9T12:6:56Z</time></trkpt>
<trkpt lat="46.534366635605693" lon="6.976523799821734"><ele></ele><time>2013-9-9T12:6:59Z</time></trkpt>
<trkpt lat="46.534368479624391" lon="6.976381726562977"><ele></ele><time>2013-9-9T12:7:2Z</time></trkpt>
<trkpt lat="46.53437677770853" lon="6.976233115419745"><ele></ele><time>2013-9-9T12:7:5Z</time></trkpt>
<trkpt lat="46.534391865134239" lon="6.976095484569669"><ele></ele><time>2013-9-9T12:7:8Z</time></trkpt>
<trkpt lat="46.534418100491166" lon="6.975967744365335"><ele></ele><time>2013-9-9T12:7:11Z</time></trkpt>
<trkpt lat="46.534453220665455" lon="6.975853582844138"><ele></ele><time>2013-9-9T12:7:14Z</time></trkpt>
<trkpt lat="46.534481551498175" lon="6.97573833167553"><ele></ele><time>2013-9-9T12:7:17Z</time></trkpt>
<trkpt lat="46.534517677500844" lon="6.975628444924951"><ele></ele><time>2013-9-9T12:7:20Z</time></trkpt>
<trkpt lat="46.534651117399335" lon="6.975264251232147"><ele></ele><time>2013-9-9T12:7:23Z</time></trkpt>
<trkpt lat="46.53475203551352" lon="6.974843731150031"><ele></ele><time>2013-9-9T12:7:26Z</time></trkpt>
<trkpt lat="46.53475496917963" lon="6.974798804149032"><ele></ele><time>2013-9-9T12:7:29Z</time></trkpt>
<trkpt lat="46.534758489578962" lon="6.974752452224493"><ele></ele><time>2013-9-9T12:7:32Z</time></trkpt>
<trkpt lat="46.534759914502501" lon="6.974697047844529"><ele></ele><time>2013-9-9T12:7:35Z</time></trkpt>
<trkpt lat="46.534754047170281" lon="6.974633261561394"><ele></ele><time>2013-9-9T12:7:38Z</time></trkpt>
<trkpt lat="46.534744491800666" lon="6.974567631259561"><ele></ele><time>2013-9-9T12:7:41Z</time></trkpt>
<trkpt lat="46.534733260050416" lon="6.974504180252552"><ele></ele><time>2013-9-9T12:7:44Z</time></trkpt>
<trkpt lat="46.53470660559833" lon="6.974441483616829"><ele></ele><time>2013-9-9T12:7:47Z</time></trkpt>
<trkpt lat="46.533705135807395" lon="6.974276024848223"><ele></ele><time>2013-9-9T12:7:50Z</time></trkpt>
<trkpt lat="46.533626681193709" lon="6.974221710115671"><ele></ele><time>2013-9-9T12:7:53Z</time></trkpt>
<trkpt lat="46.533546298742294" lon="6.974171586334705"><ele></ele><time>2013-9-9T12:7:56Z</time></trkpt>
<trkpt lat="46.533461306244135" lon="6.974123306572437"><ele></ele><time>2013-9-9T12:7:59Z</time></trkpt>
<trkpt lat="46.533370697870851" lon="6.974069578573108"><ele></ele><time>2013-9-9T12:8:2Z</time></trkpt>
<trkpt lat="46.533282268792391" lon="6.974016269668937"><ele></ele><time>2013-9-9T12:8:5Z</time></trkpt>
<trkpt lat="46.533181518316269" lon="6.973974946886301"><ele></ele><time>2013-9-9T12:8:8Z</time></trkpt>
<trkpt lat="46.533076409250498" lon="6.973929768428206"><ele></ele><time>2013-9-9T12:8:11Z</time></trkpt>
<trkpt lat="46.532976413145661" lon="6.973868245258927"><ele></ele><time>2013-9-9T12:8:14Z</time></trkpt>
<trkpt lat="46.532864514738321" lon="6.973807979375124"><ele></ele><time>2013-9-9T12:8:17Z</time></trkpt>
<trkpt lat="46.532750688493252" lon="6.973727764561772"><ele></ele><time>2013-9-9T12:8:20Z</time></trkpt>
<trkpt lat="46.532645747065544" lon="6.973648220300674"><ele></ele><time>2013-9-9T12:8:23Z</time></trkpt>
<trkpt lat="46.532546002417803" lon="6.973559288308024"><ele></ele><time>2013-9-9T12:8:26Z</time></trkpt>
<trkpt lat="46.532461931928992" lon="6.973453089594841"><ele></ele><time>2013-9-9T12:8:29Z</time></trkpt>
<trkpt lat="46.532391859218478" lon="6.973332054913044"><ele></ele><time>2013-9-9T12:8:32Z</time></trkpt>
<trkpt lat="46.532319355756044" lon="6.973200459033251"><ele></ele><time>2013-9-9T12:8:35Z</time></trkpt>
<trkpt lat="46.531977290287614" lon="6.972444830462337"><ele></ele><time>2013-9-9T12:8:38Z</time></trkpt>
<trkpt lat="46.531635979190469" lon="6.971781067550182"><ele></ele><time>2013-9-9T12:8:41Z</time></trkpt>
<trkpt lat="46.531316293403506" lon="6.971174217760563"><ele></ele><time>2013-9-9T12:8:44Z</time></trkpt>
<trkpt lat="46.531272120773792" lon="6.97107246145606"><ele></ele><time>2013-9-9T12:8:47Z</time></trkpt>
<trkpt lat="46.53122752904892" lon="6.970970118418336"><ele></ele><time>2013-9-9T12:8:50Z</time></trkpt>
<trkpt lat="46.531181512400508" lon="6.970866350457072"><ele></ele><time>2013-9-9T12:8:53Z</time></trkpt>
<trkpt lat="46.531132645905018" lon="6.970763420686126"><ele></ele><time>2013-9-9T12:8:56Z</time></trkpt>
<trkpt lat="46.531079923734069" lon="6.970654875040054"><ele></ele><time>2013-9-9T12:8:59Z</time></trkpt>
<trkpt lat="46.530973138287663" lon="6.970457816496491"><ele></ele><time>2013-9-9T12:9:2Z</time></trkpt>
<trkpt lat="46.530919745564461" lon="6.970365280285478"><ele></ele><time>2013-9-9T12:9:5Z</time></trkpt>
<trkpt lat="46.530864676460624" lon="6.970271905884147"><ele></ele><time>2013-9-9T12:9:8Z</time></trkpt>
<trkpt lat="46.530810529366136" lon="6.970168640837073"><ele></ele><time>2013-9-9T12:9:11Z</time></trkpt>
<trkpt lat="46.53048187494278" lon="6.96968668140471"><ele></ele><time>2013-9-9T12:9:14Z</time></trkpt>
<trkpt lat="46.53033628128469" lon="6.969542261213064"><ele></ele><time>2013-9-9T12:9:17Z</time></trkpt>
<trkpt lat="46.530262855812907" lon="6.969484845176339"><ele></ele><time>2013-9-9T12:9:20Z</time></trkpt>
<trkpt lat="46.530190017074347" lon="6.969440504908562"><ele></ele><time>2013-9-9T12:9:23Z</time></trkpt>
<trkpt lat="46.530099743977189" lon="6.96941452100873"><ele></ele><time>2013-9-9T12:9:26Z</time></trkpt>
<trkpt lat="46.529924562200904" lon="6.969408905133605"><ele></ele><time>2013-9-9T12:9:29Z</time></trkpt>
<trkpt lat="46.529924562200904" lon="6.969408905133605"><ele></ele><time>2013-9-9T12:9:32Z</time></trkpt>
<trkpt lat="46.529362136498094" lon="6.969384010881186"><ele></ele><time>2013-9-9T12:9:35Z</time></trkpt>
<trkpt lat="46.529290806502104" lon="6.969446875154972"><ele></ele><time>2013-9-9T12:9:38Z</time></trkpt>
<trkpt lat="46.529340092092752" lon="6.969540501013398"><ele></ele><time>2013-9-9T12:9:41Z</time></trkpt>
<trkpt lat="46.529364651069045" lon="6.969555420801044"><ele></ele><time>2013-9-9T12:9:44Z</time></trkpt>
<trkpt lat="46.52954469434917" lon="6.969716101884842"><ele></ele><time>2013-9-9T12:9:47Z</time></trkpt>
<trkpt lat="46.529582915827632" lon="6.969749378040433"><ele></ele><time>2013-9-9T12:9:50Z</time></trkpt>
<trkpt lat="46.529624657705426" lon="6.969785839319229"><ele></ele><time>2013-9-9T12:9:53Z</time></trkpt>
<trkpt lat="46.529668578878045" lon="6.969829257577658"><ele></ele><time>2013-9-9T12:9:56Z</time></trkpt>
<trkpt lat="46.529711494222283" lon="6.969885164871812"><ele></ele><time>2013-9-9T12:9:59Z</time></trkpt>
<trkpt lat="46.529785171151161" lon="6.970008462667465"><ele></ele><time>2013-9-9T12:10:2Z</time></trkpt>
<trkpt lat="46.529882149770856" lon="6.970270145684481"><ele></ele><time>2013-9-9T12:10:5Z</time></trkpt>
<trkpt lat="46.529886675998569" lon="6.970327394083142"><ele></ele><time>2013-9-9T12:10:8Z</time></trkpt>
<trkpt lat="46.52988282032311" lon="6.970432084053755"><ele></ele><time>2013-9-9T12:10:11Z</time></trkpt>
<trkpt lat="46.529868738725781" lon="6.970461420714855"><ele></ele><time>2013-9-9T12:10:14Z</time></trkpt>
<trkpt lat="46.529855411499739" lon="6.970499055460095"><ele></ele><time>2013-9-9T12:10:17Z</time></trkpt>
<trkpt lat="46.529834708198905" lon="6.970539623871446"><ele></ele><time>2013-9-9T12:10:20Z</time></trkpt>
<trkpt lat="46.529806796461344" lon="6.970581030473113"><ele></ele><time>2013-9-9T12:10:23Z</time></trkpt>
<trkpt lat="46.529772598296404" lon="6.970607098191977"><ele></ele><time>2013-9-9T12:10:26Z</time></trkpt>
<trkpt lat="46.529740747064352" lon="6.97063953615725"><ele></ele><time>2013-9-9T12:10:29Z</time></trkpt>
<trkpt lat="46.529707973822951" lon="6.970670968294144"><ele></ele><time>2013-9-9T12:10:32Z</time></trkpt>
<trkpt lat="46.529670590534806" lon="6.970698377117515"><ele></ele><time>2013-9-9T12:10:35Z</time></trkpt>
<trkpt lat="46.529632117599249" lon="6.970721343532205"><ele></ele><time>2013-9-9T12:10:38Z</time></trkpt>
<trkpt lat="46.529590710997581" lon="6.970739532262087"><ele></ele><time>2013-9-9T12:10:41Z</time></trkpt>
<trkpt lat="46.529550980776548" lon="6.970760487020016"><ele></ele><time>2013-9-9T12:10:44Z</time></trkpt>
<trkpt lat="46.529421648010612" lon="6.970799127593637"><ele></ele><time>2013-9-9T12:10:47Z</time></trkpt>
<trkpt lat="46.529376385733485" lon="6.970803486183286"><ele></ele><time>2013-9-9T12:10:50Z</time></trkpt>
<trkpt lat="46.529159797355533" lon="6.970737939700484"><ele></ele><time>2013-9-9T12:10:53Z</time></trkpt>
<trkpt lat="46.529107745736837" lon="6.970715476199985"><ele></ele><time>2013-9-9T12:10:56Z</time></trkpt>
<trkpt lat="46.528761740773916" lon="6.970577593892813"><ele></ele><time>2013-9-9T12:10:59Z</time></trkpt>
<trkpt lat="46.528663421049714" lon="6.970564518123865"><ele></ele><time>2013-9-9T12:11:2Z</time></trkpt>
<trkpt lat="46.528469547629356" lon="6.970638195052743"><ele></ele><time>2013-9-9T12:11:5Z</time></trkpt>
<trkpt lat="46.528421686962247" lon="6.970677087083459"><ele></ele><time>2013-9-9T12:11:8Z</time></trkpt>
<trkpt lat="46.528253797441721" lon="6.970816478133202"><ele></ele><time>2013-9-9T12:11:11Z</time></trkpt>
<trkpt lat="46.528130248188972" lon="6.970912199467421"><ele></ele><time>2013-9-9T12:11:14Z</time></trkpt>
<trkpt lat="46.528089176863432" lon="6.97094053030014"><ele></ele><time>2013-9-9T12:11:17Z</time></trkpt>
<trkpt lat="46.528049614280462" lon="6.970970956608653"><ele></ele><time>2013-9-9T12:11:20Z</time></trkpt>
<trkpt lat="46.528009213507175" lon="6.970998197793961"><ele></ele><time>2013-9-9T12:11:23Z</time></trkpt>
<trkpt lat="46.527969315648079" lon="6.971025438979268"><ele></ele><time>2013-9-9T12:11:26Z</time></trkpt>
<trkpt lat="46.527608390897512" lon="6.971274046227336"><ele></ele><time>2013-9-9T12:11:29Z</time></trkpt>
<trkpt lat="46.527252160012722" lon="6.971457609906793"><ele></ele><time>2013-9-9T12:11:32Z</time></trkpt>
<trkpt lat="46.527202539145947" lon="6.971461214125156"><ele></ele><time>2013-9-9T12:11:35Z</time></trkpt>
<trkpt lat="46.526958122849464" lon="6.97137538343668"><ele></ele><time>2013-9-9T12:11:38Z</time></trkpt>
<trkpt lat="46.526871202513576" lon="6.971268514171243"><ele></ele><time>2013-9-9T12:11:41Z</time></trkpt>
<trkpt lat="46.526704402640462" lon="6.971036922186613"><ele></ele><time>2013-9-9T12:11:44Z</time></trkpt>
<trkpt lat="46.526443473994732" lon="6.970543228089809"><ele></ele><time>2013-9-9T12:11:47Z</time></trkpt>
<trkpt lat="46.526317661628127" lon="6.970201916992664"><ele></ele><time>2013-9-9T12:11:50Z</time></trkpt>
<trkpt lat="46.526288660243154" lon="6.970118265599012"><ele></ele><time>2013-9-9T12:11:53Z</time></trkpt>
<trkpt lat="46.526267370209098" lon="6.97003017179668"><ele></ele><time>2013-9-9T12:11:56Z</time></trkpt>
<trkpt lat="46.526245661079884" lon="6.969940988346934"><ele></ele><time>2013-9-9T12:11:59Z</time></trkpt>
<trkpt lat="46.526220431551337" lon="6.969852391630411"><ele></ele><time>2013-9-9T12:12:2Z</time></trkpt>
<trkpt lat="46.525981044396758" lon="6.969133224338293"><ele></ele><time>2013-9-9T12:12:5Z</time></trkpt>
<trkpt lat="46.525944331660867" lon="6.969050914049149"><ele></ele><time>2013-9-9T12:12:8Z</time></trkpt>
<trkpt lat="46.525903595611453" lon="6.968968352302909"><ele></ele><time>2013-9-9T12:12:11Z</time></trkpt>
<trkpt lat="46.525864871218801" lon="6.968892831355333"><ele></ele><time>2013-9-9T12:12:14Z</time></trkpt>
<trkpt lat="46.525821620598435" lon="6.968818148598075"><ele></ele><time>2013-9-9T12:12:17Z</time></trkpt>
<trkpt lat="46.52568113990128" lon="6.968610864132643"><ele></ele><time>2013-9-9T12:12:20Z</time></trkpt>
<trkpt lat="46.525288447737694" lon="6.968152960762382"><ele></ele><time>2013-9-9T12:12:23Z</time></trkpt>
<trkpt lat="46.525241173803806" lon="6.968099568039179"><ele></ele><time>2013-9-9T12:12:26Z</time></trkpt>
<trkpt lat="46.525194067507982" lon="6.968046510592103"><ele></ele><time>2013-9-9T12:12:29Z</time></trkpt>
<trkpt lat="46.525150230154395" lon="6.967996638268232"><ele></ele><time>2013-9-9T12:12:32Z</time></trkpt>
<trkpt lat="46.525115864351392" lon="6.967949531972408"><ele></ele><time>2013-9-9T12:12:35Z</time></trkpt>
<trkpt lat="46.525016706436872" lon="6.967813912779093"><ele></ele><time>2013-9-9T12:12:38Z</time></trkpt>
<trkpt lat="46.524701463058591" lon="6.967381993308663"><ele></ele><time>2013-9-9T12:12:41Z</time></trkpt>
<trkpt lat="46.524499878287315" lon="6.967031294479966"><ele></ele><time>2013-9-9T12:12:44Z</time></trkpt>
<trkpt lat="46.524474145844579" lon="6.966980919241905"><ele></ele><time>2013-9-9T12:12:47Z</time></trkpt>
<trkpt lat="46.524448748677969" lon="6.966929957270622"><ele></ele><time>2013-9-9T12:12:50Z</time></trkpt>
<trkpt lat="46.524423938244581" lon="6.966876899823546"><ele></ele><time>2013-9-9T12:12:53Z</time></trkpt>
<trkpt lat="46.524400217458606" lon="6.966823758557439"><ele></ele><time>2013-9-9T12:12:56Z</time></trkpt>
<trkpt lat="46.524269795045257" lon="6.966548077762127"><ele></ele><time>2013-9-9T12:12:59Z</time></trkpt>
<trkpt lat="46.52423232793808" lon="6.966507928445935"><ele></ele><time>2013-9-9T12:13:2Z</time></trkpt>
<trkpt lat="46.523992102593184" lon="6.966368956491351"><ele></ele><time>2013-9-9T12:13:5Z</time></trkpt>
<trkpt lat="46.523909457027912" lon="6.966348337009549"><ele></ele><time>2013-9-9T12:13:8Z</time></trkpt>
<trkpt lat="46.523868637159467" lon="6.966338362544775"><ele></ele><time>2013-9-9T12:13:11Z</time></trkpt>
<trkpt lat="46.523829577490687" lon="6.966331237927079"><ele></ele><time>2013-9-9T12:13:14Z</time></trkpt>
<trkpt lat="46.523790517821908" lon="6.966325035318732"><ele></ele><time>2013-9-9T12:13:17Z</time></trkpt>
<trkpt lat="46.523748943582177" lon="6.966317994520068"><ele></ele><time>2013-9-9T12:13:20Z</time></trkpt>
<trkpt lat="46.523667136207223" lon="6.966307265684009"><ele></ele><time>2013-9-9T12:13:23Z</time></trkpt>
<trkpt lat="46.523445434868336" lon="6.966289076954126"><ele></ele><time>2013-9-9T12:13:26Z</time></trkpt>
<trkpt lat="46.523337559774518" lon="6.966319754719734"><ele></ele><time>2013-9-9T12:13:29Z</time></trkpt>
<trkpt lat="46.523163970559835" lon="6.966381361708045"><ele></ele><time>2013-9-9T12:13:32Z</time></trkpt>
<trkpt lat="46.523117953911424" lon="6.966400220990181"><ele></ele><time>2013-9-9T12:13:35Z</time></trkpt>
<trkpt lat="46.523071266710758" lon="6.96641874499619"><ele></ele><time>2013-9-9T12:13:38Z</time></trkpt>
<trkpt lat="46.523026842623949" lon="6.966438693925738"><ele></ele><time>2013-9-9T12:13:41Z</time></trkpt>
<trkpt lat="46.52298241853714" lon="6.966462330892682"><ele></ele><time>2013-9-9T12:13:44Z</time></trkpt>
<trkpt lat="46.522456957027316" lon="6.966880839318037"><ele></ele><time>2013-9-9T12:13:47Z</time></trkpt>
<trkpt lat="46.522333659231663" lon="6.96694253012538"><ele></ele><time>2013-9-9T12:13:50Z</time></trkpt>
<trkpt lat="46.521960077807307" lon="6.967186443507671"><ele></ele><time>2013-9-9T12:13:53Z</time></trkpt>
<trkpt lat="46.52182487770915" lon="6.967248637229204"><ele></ele><time>2013-9-9T12:13:56Z</time></trkpt>
<trkpt lat="46.5217618457973" lon="6.96725819259882"><ele></ele><time>2013-9-9T12:13:59Z</time></trkpt>
<trkpt lat="46.521701160818338" lon="6.967252157628536"><ele></ele><time>2013-9-9T12:14:2Z</time></trkpt>
<trkpt lat="46.5216357819736" lon="6.967229945585132"><ele></ele><time>2013-9-9T12:14:5Z</time></trkpt>
<trkpt lat="46.521568307653069" lon="6.96719516068697"><ele></ele><time>2013-9-9T12:14:8Z</time></trkpt>
<trkpt lat="46.521499743685126" lon="6.96715165860951"><ele></ele><time>2013-9-9T12:14:11Z</time></trkpt>
<trkpt lat="46.521427324041724" lon="6.967097260057926"><ele></ele><time>2013-9-9T12:14:14Z</time></trkpt>
<trkpt lat="46.521349204704165" lon="6.96703489869833"><ele></ele><time>2013-9-9T12:14:17Z</time></trkpt>
<trkpt lat="46.521270833909512" lon="6.96696256287396"><ele></ele><time>2013-9-9T12:14:20Z</time></trkpt>
<trkpt lat="46.52119061909616" lon="6.966888131573796"><ele></ele><time>2013-9-9T12:14:23Z</time></trkpt>
<trkpt lat="46.521116271615028" lon="6.966803390532732"><ele></ele><time>2013-9-9T12:14:26Z</time></trkpt>
<trkpt lat="46.521053407341242" lon="6.966722253710032"><ele></ele><time>2013-9-9T12:14:29Z</time></trkpt>
<trkpt lat="46.520991800352931" lon="6.966632064431906"><ele></ele><time>2013-9-9T12:14:32Z</time></trkpt>
<trkpt lat="46.520939497277141" lon="6.966544054448605"><ele></ele><time>2013-9-9T12:14:35Z</time></trkpt>
<trkpt lat="46.520884931087494" lon="6.966452859342098"><ele></ele><time>2013-9-9T12:14:38Z</time></trkpt>
<trkpt lat="46.520826006308198" lon="6.966358814388514"><ele></ele><time>2013-9-9T12:14:41Z</time></trkpt>
<trkpt lat="46.520561641082168" lon="6.966013144701719"><ele></ele><time>2013-9-9T12:14:44Z</time></trkpt>
<trkpt lat="46.520404983311892" lon="6.965883141383529"><ele></ele><time>2013-9-9T12:14:47Z</time></trkpt>
<trkpt lat="46.519793607294559" lon="6.965272687375546"><ele></ele><time>2013-9-9T12:14:50Z</time></trkpt>
<trkpt lat="46.519721942022443" lon="6.965194987133145"><ele></ele><time>2013-9-9T12:14:53Z</time></trkpt>
<trkpt lat="46.519657988101244" lon="6.965121729299426"><ele></ele><time>2013-9-9T12:14:56Z</time></trkpt>
<trkpt lat="46.519450368359685" lon="6.964792069047689"><ele></ele><time>2013-9-9T12:14:59Z</time></trkpt>
<trkpt lat="46.519140154123306" lon="6.96404255926609"><ele></ele><time>2013-9-9T12:15:2Z</time></trkpt>
<trkpt lat="46.519035464152694" lon="6.963897049427033"><ele></ele><time>2013-9-9T12:15:5Z</time></trkpt>
<trkpt lat="46.518940832465887" lon="6.963800322264433"><ele></ele><time>2013-9-9T12:15:8Z</time></trkpt>
<trkpt lat="46.51889062486589" lon="6.963762352243066"><ele></ele><time>2013-9-9T12:15:11Z</time></trkpt>
<trkpt lat="46.518838070333004" lon="6.963725220412016"><ele></ele><time>2013-9-9T12:15:14Z</time></trkpt>
<trkpt lat="46.518774032592773" lon="6.963693033903837"><ele></ele><time>2013-9-9T12:15:17Z</time></trkpt>
<trkpt lat="46.518707145005465" lon="6.963650621473789"><ele></ele><time>2013-9-9T12:15:20Z</time></trkpt>
<trkpt lat="46.518640005961061" lon="6.963602676987648"><ele></ele><time>2013-9-9T12:15:23Z</time></trkpt>
<trkpt lat="46.518258294090629" lon="6.96324116550386"><ele></ele><time>2013-9-9T12:15:26Z</time></trkpt>
<trkpt lat="46.518017314374447" lon="6.963016446679831"><ele></ele><time>2013-9-9T12:15:29Z</time></trkpt>
<trkpt lat="46.517909774556756" lon="6.962960790842772"><ele></ele><time>2013-9-9T12:15:32Z</time></trkpt>
<trkpt lat="46.518005412071943" lon="6.962952157482505"><ele></ele><time>2013-9-9T12:15:35Z</time></trkpt>
<trkpt lat="46.518187299370766" lon="6.9629748724401"><ele></ele><time>2013-9-9T12:15:38Z</time></trkpt>
<trkpt lat="46.518252259120345" lon="6.962891137227416"><ele></ele><time>2013-9-9T12:15:41Z</time></trkpt>
<trkpt lat="46.518254270777106" lon="6.962859118357301"><ele></ele><time>2013-9-9T12:15:44Z</time></trkpt>
<trkpt lat="46.518251672387123" lon="6.962836990132928"><ele></ele><time>2013-9-9T12:15:47Z</time></trkpt>
<trkpt lat="46.518251588568091" lon="6.96280337870121"><ele></ele><time>2013-9-9T12:15:50Z</time></trkpt>
<trkpt lat="46.518254773691297" lon="6.962763564661145"><ele></ele><time>2013-9-9T12:15:53Z</time></trkpt>
<trkpt lat="46.518258713185787" lon="6.962717967107892"><ele></ele><time>2013-9-9T12:15:56Z</time></trkpt>
<trkpt lat="46.518304646015167" lon="6.962562734261155"><ele></ele><time>2013-9-9T12:15:59Z</time></trkpt>
<trkpt lat="46.518322248011827" lon="6.962510766461492"><ele></ele><time>2013-9-9T12:16:2Z</time></trkpt>
<trkpt lat="46.518340185284615" lon="6.962458798661828"><ele></ele><time>2013-9-9T12:16:5Z</time></trkpt>
<trkpt lat="46.518358206376433" lon="6.962408507242799"><ele></ele><time>2013-9-9T12:16:8Z</time></trkpt>
<trkpt lat="46.51837807148695" lon="6.962357209995389"><ele></ele><time>2013-9-9T12:16:11Z</time></trkpt>
<trkpt lat="46.518427608534694" lon="6.962242713198066"><ele></ele><time>2013-9-9T12:16:14Z</time></trkpt>
<trkpt lat="46.518462896347046" lon="6.96218722499907"><ele></ele><time>2013-9-9T12:16:17Z</time></trkpt>
<trkpt lat="46.518499106168747" lon="6.962126456201077"><ele></ele><time>2013-9-9T12:16:20Z</time></trkpt>
<trkpt lat="46.518530119210482" lon="6.962068872526288"><ele></ele><time>2013-9-9T12:16:23Z</time></trkpt>
<trkpt lat="46.518565323203802" lon="6.962007600814104"><ele></ele><time>2013-9-9T12:16:26Z</time></trkpt>
<trkpt lat="46.518590552732348" lon="6.961930906400085"><ele></ele><time>2013-9-9T12:16:29Z</time></trkpt>
<trkpt lat="46.518608741462231" lon="6.961832754313946"><ele></ele><time>2013-9-9T12:16:32Z</time></trkpt>
<trkpt lat="46.518617542460561" lon="6.961729153990746"><ele></ele><time>2013-9-9T12:16:35Z</time></trkpt>
<trkpt lat="46.518622823059559" lon="6.961619267240167"><ele></ele><time>2013-9-9T12:16:38Z</time></trkpt>
<trkpt lat="46.518624750897288" lon="6.961505021899939"><ele></ele><time>2013-9-9T12:16:41Z</time></trkpt>
<trkpt lat="46.518625589087605" lon="6.961385998874903"><ele></ele><time>2013-9-9T12:16:44Z</time></trkpt>
<trkpt lat="46.518623828887939" lon="6.961260102689266"><ele></ele><time>2013-9-9T12:16:47Z</time></trkpt>
<trkpt lat="46.518622068688273" lon="6.961130434647203"><ele></ele><time>2013-9-9T12:16:50Z</time></trkpt>
<trkpt lat="46.5186189673841" lon="6.960989618673921"><ele></ele><time>2013-9-9T12:16:53Z</time></trkpt>
<trkpt lat="46.518615614622831" lon="6.960850059986115"><ele></ele><time>2013-9-9T12:16:56Z</time></trkpt>
<trkpt lat="46.518613854423165" lon="6.960706142708659"><ele></ele><time>2013-9-9T12:16:59Z</time></trkpt>
<trkpt lat="46.518616704270244" lon="6.96056105196476"><ele></ele><time>2013-9-9T12:17:2Z</time></trkpt>
<trkpt lat="46.518678227439523" lon="6.960103064775467"><ele></ele><time>2013-9-9T12:17:5Z</time></trkpt>
<trkpt lat="46.518703289330006" lon="6.959946826100349"><ele></ele><time>2013-9-9T12:17:8Z</time></trkpt>
<trkpt lat="46.518727680668235" lon="6.959785725921392"><ele></ele><time>2013-9-9T12:17:11Z</time></trkpt>
<trkpt lat="46.518754921853542" lon="6.959621356800199"><ele></ele><time>2013-9-9T12:17:14Z</time></trkpt>
<trkpt lat="46.518781995400786" lon="6.959455478936434"><ele></ele><time>2013-9-9T12:17:17Z</time></trkpt>
<trkpt lat="46.518802111968398" lon="6.959295719861984"><ele></ele><time>2013-9-9T12:17:20Z</time></trkpt>
<trkpt lat="46.518820384517312" lon="6.95914744399488"><ele></ele><time>2013-9-9T12:17:23Z</time></trkpt>
<trkpt lat="46.518843015655875" lon="6.958985840901732"><ele></ele><time>2013-9-9T12:17:26Z</time></trkpt>
<trkpt lat="46.518856259062886" lon="6.95882448926568"><ele></ele><time>2013-9-9T12:17:29Z</time></trkpt>
<trkpt lat="46.518865060061216" lon="6.958676129579544"><ele></ele><time>2013-9-9T12:17:32Z</time></trkpt>
<trkpt lat="46.518868831917644" lon="6.958533050492406"><ele></ele><time>2013-9-9T12:17:35Z</time></trkpt>
<trkpt lat="46.518869753926992" lon="6.958117391914129"><ele></ele><time>2013-9-9T12:17:38Z</time></trkpt>
<trkpt lat="46.518886014819145" lon="6.957975151017308"><ele></ele><time>2013-9-9T12:17:41Z</time></trkpt>
<trkpt lat="46.518965307623148" lon="6.957740457728505"><ele></ele><time>2013-9-9T12:17:44Z</time></trkpt>
<trkpt lat="46.519133616238832" lon="6.957455892115831"><ele></ele><time>2013-9-9T12:17:47Z</time></trkpt>
<trkpt lat="46.519178627058864" lon="6.957357069477439"><ele></ele><time>2013-9-9T12:17:50Z</time></trkpt>
<trkpt lat="46.519209137186408" lon="6.957243997603655"><ele></ele><time>2013-9-9T12:17:53Z</time></trkpt>
<trkpt lat="46.51923562400043" lon="6.957055069506168"><ele></ele><time>2013-9-9T12:17:56Z</time></trkpt>
<trkpt lat="46.519192457199097" lon="6.956658940762281"><ele></ele><time>2013-9-9T12:17:59Z</time></trkpt>
<trkpt lat="46.519168987870216" lon="6.95606617256999"><ele></ele><time>2013-9-9T12:18:2Z</time></trkpt>
<trkpt lat="46.519265631213784" lon="6.955730225890875"><ele></ele><time>2013-9-9T12:18:5Z</time></trkpt>
<trkpt lat="46.519490769132972" lon="6.955081466585398"><ele></ele><time>2013-9-9T12:18:8Z</time></trkpt>
<trkpt lat="46.519514741376042" lon="6.954996390268207"><ele></ele><time>2013-9-9T12:18:11Z</time></trkpt>
<trkpt lat="46.519542820751667" lon="6.954894131049514"><ele></ele><time>2013-9-9T12:18:14Z</time></trkpt>
<trkpt lat="46.519571570679545" lon="6.954786172136664"><ele></ele><time>2013-9-9T12:18:17Z</time></trkpt>
<trkpt lat="46.519600236788392" lon="6.954674357548356"><ele></ele><time>2013-9-9T12:18:20Z</time></trkpt>
<trkpt lat="46.51963041163981" lon="6.954563464969397"><ele></ele><time>2013-9-9T12:18:23Z</time></trkpt>
<trkpt lat="46.519672740250826" lon="6.954436982050538"><ele></ele><time>2013-9-9T12:18:26Z</time></trkpt>
<trkpt lat="46.519713057205081" lon="6.954314690083265"><ele></ele><time>2013-9-9T12:18:29Z</time></trkpt>
<trkpt lat="46.519754128530622" lon="6.954194158315659"><ele></ele><time>2013-9-9T12:18:32Z</time></trkpt>
<trkpt lat="46.519794529303908" lon="6.954077566042543"><ele></ele><time>2013-9-9T12:18:35Z</time></trkpt>
<trkpt lat="46.519842892885208" lon="6.953946640715003"><ele></ele><time>2013-9-9T12:18:38Z</time></trkpt>
<trkpt lat="46.519894357770681" lon="6.95382091216743"><ele></ele><time>2013-9-9T12:18:41Z</time></trkpt>
<trkpt lat="46.519948421046138" lon="6.953692333772779"><ele></ele><time>2013-9-9T12:18:44Z</time></trkpt>
<trkpt lat="46.520004160702229" lon="6.953563755378127"><ele></ele><time>2013-9-9T12:18:47Z</time></trkpt>
<trkpt lat="46.520065935328603" lon="6.953417574986816"><ele></ele><time>2013-9-9T12:18:50Z</time></trkpt>
<trkpt lat="46.52012100443244" lon="6.953283883631229"><ele></ele><time>2013-9-9T12:18:53Z</time></trkpt>
<trkpt lat="46.520176073536277" lon="6.953146252781153"><ele></ele><time>2013-9-9T12:18:56Z</time></trkpt>
<trkpt lat="46.520226867869496" lon="6.953016249462962"><ele></ele><time>2013-9-9T12:18:59Z</time></trkpt>
<trkpt lat="46.520278751850128" lon="6.952889347448945"><ele></ele><time>2013-9-9T12:19:2Z</time></trkpt>
<trkpt lat="46.520325690507889" lon="6.95277233608067"><ele></ele><time>2013-9-9T12:19:5Z</time></trkpt>
<trkpt lat="46.520375479012728" lon="6.952650966122747"><ele></ele><time>2013-9-9T12:19:8Z</time></trkpt>
<trkpt lat="46.520428704097867" lon="6.952519118785858"><ele></ele><time>2013-9-9T12:19:11Z</time></trkpt>
<trkpt lat="46.520479414612055" lon="6.952400179579854"><ele></ele><time>2013-9-9T12:19:14Z</time></trkpt>
<trkpt lat="46.520533477887511" lon="6.952284425497055"><ele></ele><time>2013-9-9T12:19:17Z</time></trkpt>
<trkpt lat="46.520590893924236" lon="6.952175544574857"><ele></ele><time>2013-9-9T12:19:20Z</time></trkpt>
<trkpt lat="46.52064579539001" lon="6.952075129374862"><ele></ele><time>2013-9-9T12:19:23Z</time></trkpt>
<trkpt lat="46.520707318559289" lon="6.951974127441645"><ele></ele><time>2013-9-9T12:19:26Z</time></trkpt>
<trkpt lat="46.520771104842424" lon="6.951881507411599"><ele></ele><time>2013-9-9T12:19:29Z</time></trkpt>
<trkpt lat="46.520844697952271" lon="6.951795006170869"><ele></ele><time>2013-9-9T12:19:32Z</time></trkpt>
<trkpt lat="46.521071931347251" lon="6.951552852988243"><ele></ele><time>2013-9-9T12:19:35Z</time></trkpt>
<trkpt lat="46.52118424884975" lon="6.95136945694685"><ele></ele><time>2013-9-9T12:19:38Z</time></trkpt>
<trkpt lat="46.521231019869447" lon="6.951276669278741"><ele></ele><time>2013-9-9T12:19:41Z</time></trkpt>
<trkpt lat="46.521279634907842" lon="6.951178768649697"><ele></ele><time>2013-9-9T12:19:44Z</time></trkpt>
<trkpt lat="46.521326238289475" lon="6.951076090335846"><ele></ele><time>2013-9-9T12:19:47Z</time></trkpt>
<trkpt lat="46.521378038451076" lon="6.950957486405969"><ele></ele><time>2013-9-9T12:19:50Z</time></trkpt>
<trkpt lat="46.521686408668756" lon="6.950199427083135"><ele></ele><time>2013-9-9T12:19:53Z</time></trkpt>
<trkpt lat="46.521803922951221" lon="6.949882674962282"><ele></ele><time>2013-9-9T12:19:56Z</time></trkpt>
<trkpt lat="46.521836025640368" lon="6.94977848790586"><ele></ele><time>2013-9-9T12:19:59Z</time></trkpt>
<trkpt lat="46.521864775568247" lon="6.949674803763628"><ele></ele><time>2013-9-9T12:20:2Z</time></trkpt>
<trkpt lat="46.521895369514823" lon="6.949568772688508"><ele></ele><time>2013-9-9T12:20:5Z</time></trkpt>
<trkpt lat="46.521923784166574" lon="6.949471207335591"><ele></ele><time>2013-9-9T12:20:8Z</time></trkpt>
<trkpt lat="46.521984050050378" lon="6.949239280074835"><ele></ele><time>2013-9-9T12:20:11Z</time></trkpt>
<trkpt lat="46.522014141082764" lon="6.949128722772002"><ele></ele><time>2013-9-9T12:20:14Z</time></trkpt>
<trkpt lat="46.522043310105801" lon="6.94902503862977"><ele></ele><time>2013-9-9T12:20:17Z</time></trkpt>
<trkpt lat="46.522070216014981" lon="6.948922611773014"><ele></ele><time>2013-9-9T12:20:20Z</time></trkpt>
<trkpt lat="46.522095277905464" lon="6.948816329240799"><ele></ele><time>2013-9-9T12:20:23Z</time></trkpt>
<trkpt lat="46.522202314808965" lon="6.948354905471206"><ele></ele><time>2013-9-9T12:20:26Z</time></trkpt>
<trkpt lat="46.52222067117691" lon="6.948264045640826"><ele></ele><time>2013-9-9T12:20:29Z</time></trkpt>
<trkpt lat="46.522238021716475" lon="6.948169330134988"><ele></ele><time>2013-9-9T12:20:32Z</time></trkpt>
<trkpt lat="46.522250762209296" lon="6.948086181655526"><ele></ele><time>2013-9-9T12:20:35Z</time></trkpt>
<trkpt lat="46.522261574864388" lon="6.948016360402107"><ele></ele><time>2013-9-9T12:20:38Z</time></trkpt>
<trkpt lat="46.522270208224654" lon="6.947942432016134"><ele></ele><time>2013-9-9T12:20:41Z</time></trkpt>
<trkpt lat="46.522274315357208" lon="6.947869174182415"><ele></ele><time>2013-9-9T12:20:44Z</time></trkpt>
<trkpt lat="46.52226509526372" lon="6.947695082053542"><ele></ele><time>2013-9-9T12:20:47Z</time></trkpt>
<trkpt lat="46.522246906533837" lon="6.947655100375414"><ele></ele><time>2013-9-9T12:20:50Z</time></trkpt>
<trkpt lat="46.522227879613638" lon="6.947629703208804"><ele></ele><time>2013-9-9T12:20:53Z</time></trkpt>
<trkpt lat="46.522206757217646" lon="6.947613526135683"><ele></ele><time>2013-9-9T12:20:56Z</time></trkpt>
<trkpt lat="46.522188652306795" lon="6.947598941624165"><ele></ele><time>2013-9-9T12:20:59Z</time></trkpt>
<trkpt lat="46.522165350615978" lon="6.947585949674249"><ele></ele><time>2013-9-9T12:21:2Z</time></trkpt>
<trkpt lat="46.52214833535254" lon="6.947576981037855"><ele></ele><time>2013-9-9T12:21:5Z</time></trkpt>
<trkpt lat="46.522129643708467" lon="6.947571868076921"><ele></ele><time>2013-9-9T12:21:8Z</time></trkpt>
<trkpt lat="46.522116232663393" lon="6.947575723752379"><ele></ele><time>2013-9-9T12:21:11Z</time></trkpt>
<trkpt lat="46.522065857425332" lon="6.94760799407959"><ele></ele><time>2013-9-9T12:21:14Z</time></trkpt>
<trkpt lat="46.522047417238355" lon="6.947636408731341"><ele></ele><time>2013-9-9T12:21:17Z</time></trkpt>
<trkpt lat="46.522038280963898" lon="6.947652501985431"><ele></ele><time>2013-9-9T12:21:20Z</time></trkpt>
<trkpt lat="46.522027300670743" lon="6.947668679058552"><ele></ele><time>2013-9-9T12:21:23Z</time></trkpt>
<trkpt lat="46.522015482187271" lon="6.947684856131673"><ele></ele><time>2013-9-9T12:21:26Z</time></trkpt>
<trkpt lat="46.522003998979926" lon="6.94770229049027"><ele></ele><time>2013-9-9T12:21:29Z</time></trkpt>
<trkpt lat="46.521949600428343" lon="6.947768507525325"><ele></ele><time>2013-9-9T12:21:32Z</time></trkpt>
<trkpt lat="46.521919341757894" lon="6.947806142270565"><ele></ele><time>2013-9-9T12:21:35Z</time></trkpt>
<trkpt lat="46.521905763074756" lon="6.947821900248528"><ele></ele><time>2013-9-9T12:21:38Z</time></trkpt>
<trkpt lat="46.521892352029681" lon="6.947836736217141"><ele></ele><time>2013-9-9T12:21:41Z</time></trkpt>
<trkpt lat="46.521877935156226" lon="6.947855511680245"><ele></ele><time>2013-9-9T12:21:44Z</time></trkpt>
<trkpt lat="46.521791685372591" lon="6.947966320440173"><ele></ele><time>2013-9-9T12:21:47Z</time></trkpt>
<trkpt lat="46.521775173023343" lon="6.947987359017134"><ele></ele><time>2013-9-9T12:21:50Z</time></trkpt>
<trkpt lat="46.521759415045381" lon="6.948004709556699"><ele></ele><time>2013-9-9T12:21:53Z</time></trkpt>
<trkpt lat="46.521744159981608" lon="6.948022898286581"><ele></ele><time>2013-9-9T12:21:56Z</time></trkpt>
<trkpt lat="46.521728737279773" lon="6.948039410635829"><ele></ele><time>2013-9-9T12:21:59Z</time></trkpt>
<trkpt lat="46.521714823320508" lon="6.948053240776062"><ele></ele><time>2013-9-9T12:22:2Z</time></trkpt>
<trkpt lat="46.521673249080777" lon="6.948106968775392"><ele></ele><time>2013-9-9T12:22:5Z</time></trkpt>
<trkpt lat="46.521665286272764" lon="6.948123145848513"><ele></ele><time>2013-9-9T12:22:8Z</time></trkpt>
<trkpt lat="46.521655982360244" lon="6.948139909654856"><ele></ele><time>2013-9-9T12:22:11Z</time></trkpt>
<trkpt lat="46.521643409505486" lon="6.948157511651516"><ele></ele><time>2013-9-9T12:22:14Z</time></trkpt>
<trkpt lat="46.521628741174936" lon="6.948174526914954"><ele></ele><time>2013-9-9T12:22:17Z</time></trkpt>
<trkpt lat="46.521615665405989" lon="6.948191206902266"><ele></ele><time>2013-9-9T12:22:20Z</time></trkpt>
<trkpt lat="46.521559339016676" lon="6.948269829154015"><ele></ele><time>2013-9-9T12:22:23Z</time></trkpt>
<trkpt lat="46.521547604352236" lon="6.948287514969707"><ele></ele><time>2013-9-9T12:22:26Z</time></trkpt>
<trkpt lat="46.521536624059081" lon="6.948304865509272"><ele></ele><time>2013-9-9T12:22:29Z</time></trkpt>
<trkpt lat="46.521526901051402" lon="6.948320036754012"><ele></ele><time>2013-9-9T12:22:32Z</time></trkpt>
<trkpt lat="46.521515501663089" lon="6.948335207998753"><ele></ele><time>2013-9-9T12:22:35Z</time></trkpt>
<trkpt lat="46.521455822512507" lon="6.948437299579382"><ele></ele><time>2013-9-9T12:22:38Z</time></trkpt>
<trkpt lat="46.521444674581289" lon="6.948458002880216"><ele></ele><time>2013-9-9T12:22:41Z</time></trkpt>
<trkpt lat="46.52143931016326" lon="6.948479125276208"><ele></ele><time>2013-9-9T12:22:44Z</time></trkpt>
<trkpt lat="46.521434867754579" lon="6.94849974475801"><ele></ele><time>2013-9-9T12:22:47Z</time></trkpt>
<trkpt lat="46.521429335698485" lon="6.948524387553334"><ele></ele><time>2013-9-9T12:22:50Z</time></trkpt>
<trkpt lat="46.521386168897152" lon="6.948641147464514"><ele></ele><time>2013-9-9T12:22:53Z</time></trkpt>
<trkpt lat="46.521372757852077" lon="6.948654809966683"><ele></ele><time>2013-9-9T12:22:56Z</time></trkpt>
<trkpt lat="46.521363956853747" lon="6.948669059202075"><ele></ele><time>2013-9-9T12:22:59Z</time></trkpt>
<trkpt lat="46.521352725103498" lon="6.94868347607553"><ele></ele><time>2013-9-9T12:23:2Z</time></trkpt>
<trkpt lat="46.521339397877455" lon="6.948697892948985"><ele></ele><time>2013-9-9T12:23:5Z</time></trkpt>
<trkpt lat="46.521286927163601" lon="6.948799565434456"><ele></ele><time>2013-9-9T12:23:8Z</time></trkpt>
<trkpt lat="46.521274941042066" lon="6.948816748335958"><ele></ele><time>2013-9-9T12:23:11Z</time></trkpt>
<trkpt lat="46.521262032911181" lon="6.948829991742969"><ele></ele><time>2013-9-9T12:23:14Z</time></trkpt>
<trkpt lat="46.521250298246741" lon="6.948843486607075"><ele></ele><time>2013-9-9T12:23:17Z</time></trkpt>
<trkpt lat="46.521240072324872" lon="6.94885547272861"><ele></ele><time>2013-9-9T12:23:20Z</time></trkpt>
<trkpt lat="46.521184584125876" lon="6.948930993676186"><ele></ele><time>2013-9-9T12:23:23Z</time></trkpt>
<trkpt lat="46.521175531670451" lon="6.948938705027103"><ele></ele><time>2013-9-9T12:23:26Z</time></trkpt>
<trkpt lat="46.52116572484374" lon="6.948946919292212"><ele></ele><time>2013-9-9T12:23:29Z</time></trkpt>
<trkpt lat="46.521155666559935" lon="6.948959492146969"><ele></ele><time>2013-9-9T12:23:32Z</time></trkpt>
<trkpt lat="46.521145356819034" lon="6.948970137163997"><ele></ele><time>2013-9-9T12:23:35Z</time></trkpt>
<trkpt lat="46.521134627982974" lon="6.948984386399388"><ele></ele><time>2013-9-9T12:23:38Z</time></trkpt>
<trkpt lat="46.521075451746583" lon="6.949070552363992"><ele></ele><time>2013-9-9T12:23:41Z</time></trkpt>
<trkpt lat="46.521066818386316" lon="6.949085555970669"><ele></ele><time>2013-9-9T12:23:44Z</time></trkpt>
<trkpt lat="46.521054916083813" lon="6.9491046667099"><ele></ele><time>2013-9-9T12:23:47Z</time></trkpt>
<trkpt lat="46.521043181419373" lon="6.949123274534941"><ele></ele><time>2013-9-9T12:23:50Z</time></trkpt>
<trkpt lat="46.521018957719207" lon="6.949155377224088"><ele></ele><time>2013-9-9T12:23:53Z</time></trkpt>
<trkpt lat="46.520966487005353" lon="6.949225030839443"><ele></ele><time>2013-9-9T12:23:56Z</time></trkpt>
<trkpt lat="46.520955925807357" lon="6.949235675856471"><ele></ele><time>2013-9-9T12:23:59Z</time></trkpt>
<trkpt lat="46.520945951342583" lon="6.949244812130928"><ele></ele><time>2013-9-9T12:24:2Z</time></trkpt>
<trkpt lat="46.520934803411365" lon="6.949255457147956"><ele></ele><time>2013-9-9T12:24:5Z</time></trkpt>
<trkpt lat="46.520922649651766" lon="6.949269622564316"><ele></ele><time>2013-9-9T12:24:8Z</time></trkpt>
<trkpt lat="46.520902197808027" lon="6.949299713596702"><ele></ele><time>2013-9-9T12:24:11Z</time></trkpt>
<trkpt lat="46.520847966894507" lon="6.949405744671822"><ele></ele><time>2013-9-9T12:24:14Z</time></trkpt>
<trkpt lat="46.520836316049099" lon="6.94941932335496"><ele></ele><time>2013-9-9T12:24:17Z</time></trkpt>
<trkpt lat="46.520828269422054" lon="6.949426280334592"><ele></ele><time>2013-9-9T12:24:20Z</time></trkpt>
<trkpt lat="46.520821060985327" lon="6.949437176808715"><ele></ele><time>2013-9-9T12:24:23Z</time></trkpt>
<trkpt lat="46.520815026015043" lon="6.949449582025409"><ele></ele><time>2013-9-9T12:24:26Z</time></trkpt>
<trkpt lat="46.52078309096396" lon="6.949503310024738"><ele></ele><time>2013-9-9T12:24:29Z</time></trkpt>
<trkpt lat="46.52077822946012" lon="6.949514793232083"><ele></ele><time>2013-9-9T12:24:32Z</time></trkpt>
<trkpt lat="46.520772948861122" lon="6.949521247297525"><ele></ele><time>2013-9-9T12:24:35Z</time></trkpt>
<trkpt lat="46.520768674090505" lon="6.949531305581331"><ele></ele><time>2013-9-9T12:24:38Z</time></trkpt>
<trkpt lat="46.520763812586665" lon="6.949542872607708"><ele></ele><time>2013-9-9T12:24:41Z</time></trkpt>
<trkpt lat="46.520742522552609" lon="6.949572963640094"><ele></ele><time>2013-9-9T12:24:44Z</time></trkpt>
<trkpt lat="46.520714107900858" lon="6.949632307514548"><ele></ele><time>2013-9-9T12:24:47Z</time></trkpt>
<trkpt lat="46.520707486197352" lon="6.949641527608037"><ele></ele><time>2013-9-9T12:24:50Z</time></trkpt>
<trkpt lat="46.52069516479969" lon="6.949652591720223"><ele></ele><time>2013-9-9T12:24:53Z</time></trkpt>
<trkpt lat="46.520683765411377" lon="6.949669355526567"><ele></ele><time>2013-9-9T12:24:56Z</time></trkpt>
<trkpt lat="46.520669432356954" lon="6.949681593105197"><ele></ele><time>2013-9-9T12:24:59Z</time></trkpt>
<trkpt lat="46.520636659115553" lon="6.949710426852107"><ele></ele><time>2013-9-9T12:25:2Z</time></trkpt>
<trkpt lat="46.520597264170647" lon="6.949762646108866"><ele></ele><time>2013-9-9T12:25:5Z</time></trkpt>
<trkpt lat="46.520589469000697" lon="6.949778236448765"><ele></ele><time>2013-9-9T12:25:8Z</time></trkpt>
<trkpt lat="46.520584691315889" lon="6.949794748798013"><ele></ele><time>2013-9-9T12:25:11Z</time></trkpt>
<trkpt lat="46.52057739906013" lon="6.949807489290834"><ele></ele><time>2013-9-9T12:25:14Z</time></trkpt>
<trkpt lat="46.52056809514761" lon="6.949815033003688"><ele></ele><time>2013-9-9T12:25:17Z</time></trkpt>
<trkpt lat="46.520555187016726" lon="6.949825007468462"><ele></ele><time>2013-9-9T12:25:20Z</time></trkpt>
<trkpt lat="46.520488718524575" lon="6.949898600578308"><ele></ele><time>2013-9-9T12:25:23Z</time></trkpt>
<trkpt lat="46.520467260852456" lon="6.949941348284483"><ele></ele><time>2013-9-9T12:25:26Z</time></trkpt>
<trkpt lat="46.520460052415729" lon="6.949956268072128"><ele></ele><time>2013-9-9T12:25:29Z</time></trkpt>
<trkpt lat="46.520450245589018" lon="6.949971271678805"><ele></ele><time>2013-9-9T12:25:32Z</time></trkpt>
<trkpt lat="46.520438091829419" lon="6.949984766542912"><ele></ele><time>2013-9-9T12:25:35Z</time></trkpt>
<trkpt lat="46.520423674955964" lon="6.949996165931225"><ele></ele><time>2013-9-9T12:25:38Z</time></trkpt>
<trkpt lat="46.520366007462144" lon="6.950049726292491"><ele></ele><time>2013-9-9T12:25:41Z</time></trkpt>
<trkpt lat="46.520347651094198" lon="6.950078392401338"><ele></ele><time>2013-9-9T12:25:44Z</time></trkpt>
<trkpt lat="46.520337341353297" lon="6.950094820931554"><ele></ele><time>2013-9-9T12:25:47Z</time></trkpt>
<trkpt lat="46.520323175936937" lon="6.95011124946177"><ele></ele><time>2013-9-9T12:25:50Z</time></trkpt>
<trkpt lat="46.520310435444117" lon="6.950126420706511"><ele></ele><time>2013-9-9T12:25:53Z</time></trkpt>
<trkpt lat="46.520252684131265" lon="6.95020210929215"><ele></ele><time>2013-9-9T12:25:56Z</time></trkpt>
<trkpt lat="46.520245559513569" lon="6.950212586671114"><ele></ele><time>2013-9-9T12:25:59Z</time></trkpt>
<trkpt lat="46.520237931981683" lon="6.950223902240396"><ele></ele><time>2013-9-9T12:26:2Z</time></trkpt>
<trkpt lat="46.520230807363987" lon="6.950236978009343"><ele></ele><time>2013-9-9T12:26:5Z</time></trkpt>
<trkpt lat="46.520221587270498" lon="6.950250891968608"><ele></ele><time>2013-9-9T12:26:8Z</time></trkpt>
<trkpt lat="46.520212283357978" lon="6.950261872261763"><ele></ele><time>2013-9-9T12:26:11Z</time></trkpt>
<trkpt lat="46.520170792937279" lon="6.950296070426703"><ele></ele><time>2013-9-9T12:26:14Z</time></trkpt>
<trkpt lat="46.520143216475844" lon="6.950321216136217"><ele></ele><time>2013-9-9T12:26:17Z</time></trkpt>
<trkpt lat="46.520133744925261" lon="6.950327251106501"><ele></ele><time>2013-9-9T12:26:20Z</time></trkpt>
<trkpt lat="46.520123099908233" lon="6.950333872810006"><ele></ele><time>2013-9-9T12:26:23Z</time></trkpt>
<trkpt lat="46.520111868157983" lon="6.950343595817685"><ele></ele><time>2013-9-9T12:26:26Z</time></trkpt>
<trkpt lat="46.520099882036448" lon="6.950355833396316"><ele></ele><time>2013-9-9T12:26:29Z</time></trkpt>
<trkpt lat="46.520073898136616" lon="6.95039271377027"><ele></ele><time>2013-9-9T12:26:32Z</time></trkpt>
<trkpt lat="46.520056379958987" lon="6.950419954955578"><ele></ele><time>2013-9-9T12:26:35Z</time></trkpt>
<trkpt lat="46.520044226199389" lon="6.950430097058415"><ele></ele><time>2013-9-9T12:26:38Z</time></trkpt>
<trkpt lat="46.520032240077853" lon="6.950442502275109"><ele></ele><time>2013-9-9T12:26:41Z</time></trkpt>
<trkpt lat="46.520016733556986" lon="6.950455410405994"><ele></ele><time>2013-9-9T12:26:44Z</time></trkpt>
<trkpt lat="46.519999466836452" lon="6.950466306880117"><ele></ele><time>2013-9-9T12:26:47Z</time></trkpt>
<trkpt lat="46.519949845969677" lon="6.95050117559731"><ele></ele><time>2013-9-9T12:26:50Z</time></trkpt>
<trkpt lat="46.519909193739295" lon="6.950528919696808"><ele></ele><time>2013-9-9T12:26:53Z</time></trkpt>
<trkpt lat="46.519899219274521" lon="6.950537301599979"><ele></ele><time>2013-9-9T12:26:56Z</time></trkpt>
<trkpt lat="46.519888071343303" lon="6.950548030436039"><ele></ele><time>2013-9-9T12:26:59Z</time></trkpt>
<trkpt lat="46.519876923412085" lon="6.950559597462416"><ele></ele><time>2013-9-9T12:27:2Z</time></trkpt>
<trkpt lat="46.519866110756993" lon="6.950568398460746"><ele></ele><time>2013-9-9T12:27:5Z</time></trkpt>
<trkpt lat="46.519823363050818" lon="6.950586922466755"><ele></ele><time>2013-9-9T12:27:8Z</time></trkpt>
<trkpt lat="46.519764438271523" lon="6.950625311583281"><ele></ele><time>2013-9-9T12:27:11Z</time></trkpt>
<trkpt lat="46.519750440493226" lon="6.950634615495801"><ele></ele><time>2013-9-9T12:27:14Z</time></trkpt>
<trkpt lat="46.519738035276532" lon="6.950645344331861"><ele></ele><time>2013-9-9T12:27:17Z</time></trkpt>
<trkpt lat="46.519724624231458" lon="6.950654732063413"><ele></ele><time>2013-9-9T12:27:20Z</time></trkpt>
<trkpt lat="46.519709201529622" lon="6.950663365423679"><ele></ele><time>2013-9-9T12:27:23Z</time></trkpt>
<trkpt lat="46.519692186266184" lon="6.950673758983612"><ele></ele><time>2013-9-9T12:27:26Z</time></trkpt>
<trkpt lat="46.519588083028793" lon="6.95071617141366"><ele></ele><time>2013-9-9T12:27:29Z</time></trkpt>
<trkpt lat="46.519573917612433" lon="6.95071566849947"><ele></ele><time>2013-9-9T12:27:32Z</time></trkpt>
<trkpt lat="46.519562099128962" lon="6.950718266889453"><ele></ele><time>2013-9-9T12:27:35Z</time></trkpt>
<trkpt lat="46.519549693912268" lon="6.950718434527516"><ele></ele><time>2013-9-9T12:27:38Z</time></trkpt>
<trkpt lat="46.519534438848495" lon="6.950714159756899"><ele></ele><time>2013-9-9T12:27:41Z</time></trkpt>
<trkpt lat="46.519485656172037" lon="6.950705023482442"><ele></ele><time>2013-9-9T12:27:44Z</time></trkpt>
<trkpt lat="46.519358502700925" lon="6.950665628537536"><ele></ele><time>2013-9-9T12:27:47Z</time></trkpt>
<trkpt lat="46.519343666732311" lon="6.950627909973264"><ele></ele><time>2013-9-9T12:27:50Z</time></trkpt>
<trkpt lat="46.519336206838489" lon="6.950612487271428"><ele></ele><time>2013-9-9T12:27:53Z</time></trkpt>
<trkpt lat="46.519331093877554" lon="6.950599830597639"><ele></ele><time>2013-9-9T12:27:56Z</time></trkpt>
<trkpt lat="46.519329082220793" lon="6.95058717392385"><ele></ele><time>2013-9-9T12:27:59Z</time></trkpt>
<trkpt lat="46.519327154383063" lon="6.950581138953567"><ele></ele><time>2013-9-9T12:28:2Z</time></trkpt>
<trkpt lat="46.519325394183397" lon="6.950577786192298"><ele></ele><time>2013-9-9T12:28:5Z</time></trkpt>
<trkpt lat="46.519320281222463" lon="6.950576612725854"><ele></ele><time>2013-9-9T12:28:8Z</time></trkpt>
<trkpt lat="46.519317934289575" lon="6.950641237199307"><ele></ele><time>2013-9-9T12:28:11Z</time></trkpt>
<trkpt lat="46.519267056137323" lon="6.95064090192318"><ele></ele><time>2013-9-9T12:28:14Z</time></trkpt>
<trkpt lat="46.51924978941679" lon="6.950634280219674"><ele></ele><time>2013-9-9T12:28:17Z</time></trkpt>
<trkpt lat="46.519118696451187" lon="6.950659174472094"><ele></ele><time>2013-9-9T12:28:20Z</time></trkpt>
<trkpt lat="46.519038062542677" lon="6.950671998783946"><ele></ele><time>2013-9-9T12:28:23Z</time></trkpt>
<trkpt lat="46.519021214917302" lon="6.950674680992961"><ele></ele><time>2013-9-9T12:28:26Z</time></trkpt>
<trkpt lat="46.519001265987754" lon="6.950679710134864"><ele></ele><time>2013-9-9T12:28:29Z</time></trkpt>
<trkpt lat="46.518980897963047" lon="6.950685996562243"><ele></ele><time>2013-9-9T12:28:32Z</time></trkpt>
<trkpt lat="46.518960613757372" lon="6.950694043189287"><ele></ele><time>2013-9-9T12:28:35Z</time></trkpt>
<trkpt lat="46.518942005932331" lon="6.950704352930188"><ele></ele><time>2013-9-9T12:28:38Z</time></trkpt>
<trkpt lat="46.518756095319986" lon="6.950824884697795"><ele></ele><time>2013-9-9T12:28:41Z</time></trkpt>
<trkpt lat="46.518707312643528" lon="6.950864195823669"><ele></ele><time>2013-9-9T12:28:44Z</time></trkpt>
<trkpt lat="46.518688704818487" lon="6.950880624353886"><ele></ele><time>2013-9-9T12:28:47Z</time></trkpt>
<trkpt lat="46.518674120306969" lon="6.950892694294453"><ele></ele><time>2013-9-9T12:28:50Z</time></trkpt>
<trkpt lat="46.51865710504353" lon="6.950907865539193"><ele></ele><time>2013-9-9T12:28:53Z</time></trkpt>
<trkpt lat="46.518640257418156" lon="6.950917253270745"><ele></ele><time>2013-9-9T12:28:56Z</time></trkpt>
<trkpt lat="46.518610334023833" lon="6.950930329039693"><ele></ele><time>2013-9-9T12:28:59Z</time></trkpt>
<trkpt lat="46.518530789762735" lon="6.950983302667737"><ele></ele><time>2013-9-9T12:29:2Z</time></trkpt>
<trkpt lat="46.518515283241868" lon="6.950998893007636"><ele></ele><time>2013-9-9T12:29:5Z</time></trkpt>
<trkpt lat="46.518499189987779" lon="6.951013645157218"><ele></ele><time>2013-9-9T12:29:8Z</time></trkpt>
<trkpt lat="46.518483096733689" lon="6.951029067859054"><ele></ele><time>2013-9-9T12:29:11Z</time></trkpt>
<trkpt lat="46.518432721495628" lon="6.951106181368232"><ele></ele><time>2013-9-9T12:29:14Z</time></trkpt>
<trkpt lat="46.518421741202474" lon="6.951121771708131"><ele></ele><time>2013-9-9T12:29:17Z</time></trkpt>
<trkpt lat="46.518409587442875" lon="6.951138200238347"><ele></ele><time>2013-9-9T12:29:20Z</time></trkpt>
<trkpt lat="46.518396679311991" lon="6.951153036206961"><ele></ele><time>2013-9-9T12:29:23Z</time></trkpt>
<trkpt lat="46.518382094800472" lon="6.951164603233337"><ele></ele><time>2013-9-9T12:29:26Z</time></trkpt>
<trkpt lat="46.518330965191126" lon="6.951221264898777"><ele></ele><time>2013-9-9T12:29:29Z</time></trkpt>
<trkpt lat="46.518323086202145" lon="6.951237441971898"><ele></ele><time>2013-9-9T12:29:32Z</time></trkpt>
<trkpt lat="46.518315961584449" lon="6.951255546882749"><ele></ele><time>2013-9-9T12:29:35Z</time></trkpt>
<trkpt lat="46.518306406214833" lon="6.951276753097773"><ele></ele><time>2013-9-9T12:29:38Z</time></trkpt>
<trkpt lat="46.518299533054233" lon="6.951290331780911"><ele></ele><time>2013-9-9T12:29:41Z</time></trkpt>
<trkpt lat="46.518259299919009" lon="6.951360739767551"><ele></ele><time>2013-9-9T12:29:44Z</time></trkpt>
<trkpt lat="46.518248654901981" lon="6.951379850506783"><ele></ele><time>2013-9-9T12:29:47Z</time></trkpt>
<trkpt lat="46.518236752599478" lon="6.951399045065045"><ele></ele><time>2013-9-9T12:29:50Z</time></trkpt>
<trkpt lat="46.518223509192467" lon="6.951418742537499"><ele></ele><time>2013-9-9T12:29:53Z</time></trkpt>
<trkpt lat="46.518172295764089" lon="6.951479595154524"><ele></ele><time>2013-9-9T12:29:56Z</time></trkpt>
<trkpt lat="46.518160728737712" lon="6.951492168009281"><ele></ele><time>2013-9-9T12:29:59Z</time></trkpt>
<trkpt lat="46.518150670453906" lon="6.951502813026309"><ele></ele><time>2013-9-9T12:30:2Z</time></trkpt>
<trkpt lat="46.518142623826861" lon="6.951512116938829"><ele></ele><time>2013-9-9T12:30:5Z</time></trkpt>
<trkpt lat="46.518132900819182" lon="6.951519660651684"><ele></ele><time>2013-9-9T12:30:8Z</time></trkpt>
<trkpt lat="46.518053775653243" lon="6.951559809967876"><ele></ele><time>2013-9-9T12:30:11Z</time></trkpt>
<trkpt lat="46.518043046817183" lon="6.951564587652683"><ele></ele><time>2013-9-9T12:30:14Z</time></trkpt>
<trkpt lat="46.518032988533378" lon="6.951568778604269"><ele></ele><time>2013-9-9T12:30:17Z</time></trkpt>
<trkpt lat="46.518020164221525" lon="6.951580680906773"><ele></ele><time>2013-9-9T12:30:20Z</time></trkpt>
<trkpt lat="46.518007004633546" lon="6.951588308438659"><ele></ele><time>2013-9-9T12:30:23Z</time></trkpt>
<trkpt lat="46.517933243885636" lon="6.951637594029307"><ele></ele><time>2013-9-9T12:30:26Z</time></trkpt>
<trkpt lat="46.517921425402164" lon="6.951647065579891"><ele></ele><time>2013-9-9T12:30:29Z</time></trkpt>
<trkpt lat="46.517906757071614" lon="6.951656034216285"><ele></ele><time>2013-9-9T12:30:32Z</time></trkpt>
<trkpt lat="46.517890999093652" lon="6.95166751742363"><ele></ele><time>2013-9-9T12:30:35Z</time></trkpt>
<trkpt lat="46.5178332477808" lon="6.951746307313442"><ele></ele><time>2013-9-9T12:30:38Z</time></trkpt>
<trkpt lat="46.51782444678247" lon="6.951759802177548"><ele></ele><time>2013-9-9T12:30:41Z</time></trkpt>
<trkpt lat="46.517814891412854" lon="6.951769944280386"><ele></ele><time>2013-9-9T12:30:44Z</time></trkpt>
<trkpt lat="46.517802989110351" lon="6.951779164373875"><ele></ele><time>2013-9-9T12:30:47Z</time></trkpt>
<trkpt lat="46.517788404598832" lon="6.9517916534096"><ele></ele><time>2013-9-9T12:30:50Z</time></trkpt>
<trkpt lat="46.517705088481307" lon="6.95188938640058"><ele></ele><time>2013-9-9T12:30:53Z</time></trkpt>
<trkpt lat="46.517694611102343" lon="6.951903635635972"><ele></ele><time>2013-9-9T12:30:56Z</time></trkpt>
<trkpt lat="46.517680948600173" lon="6.951929032802582"><ele></ele><time>2013-9-9T12:30:59Z</time></trkpt>
<trkpt lat="46.517673823982477" lon="6.951942276209593"><ele></ele><time>2013-9-9T12:31:2Z</time></trkpt>
<trkpt lat="46.517658485099673" lon="6.951963230967522"><ele></ele><time>2013-9-9T12:31:5Z</time></trkpt>
<trkpt lat="46.517614563927054" lon="6.952049313113093"><ele></ele><time>2013-9-9T12:31:8Z</time></trkpt>
<trkpt lat="46.5176070202142" lon="6.9520662445575"><ele></ele><time>2013-9-9T12:31:11Z</time></trkpt>
<trkpt lat="46.517598638311028" lon="6.95208091288805"><ele></ele><time>2013-9-9T12:31:14Z</time></trkpt>
<trkpt lat="46.517592100426555" lon="6.952092731371522"><ele></ele><time>2013-9-9T12:31:17Z</time></trkpt>
<trkpt lat="46.517585227265954" lon="6.952104717493057"><ele></ele><time>2013-9-9T12:31:20Z</time></trkpt>
<trkpt lat="46.517547173425555" lon="6.952192978933454"><ele></ele><time>2013-9-9T12:31:23Z</time></trkpt>
<trkpt lat="46.517541892826557" lon="6.952209658920765"><ele></ele><time>2013-9-9T12:31:26Z</time></trkpt>
<trkpt lat="46.517536444589496" lon="6.952226674184203"><ele></ele><time>2013-9-9T12:31:29Z</time></trkpt>
<trkpt lat="46.517532337456942" lon="6.952237989753485"><ele></ele><time>2013-9-9T12:31:32Z</time></trkpt>
<trkpt lat="46.517527811229229" lon="6.952248970046639"><ele></ele><time>2013-9-9T12:31:35Z</time></trkpt>
<trkpt lat="46.517482046037912" lon="6.952294232323766"><ele></ele><time>2013-9-9T12:31:38Z</time></trkpt>
<trkpt lat="46.517469976097345" lon="6.952310660853982"><ele></ele><time>2013-9-9T12:31:41Z</time></trkpt>
<trkpt lat="46.517445920035243" lon="6.952339326962829"><ele></ele><time>2013-9-9T12:31:44Z</time></trkpt>
<trkpt lat="46.517433095723391" lon="6.952353995293379"><ele></ele><time>2013-9-9T12:31:47Z</time></trkpt>
<trkpt lat="46.517421612516046" lon="6.952368412166834"><ele></ele><time>2013-9-9T12:31:50Z</time></trkpt>
<trkpt lat="46.517410380765796" lon="6.952380565926433"><ele></ele><time>2013-9-9T12:31:53Z</time></trkpt>
<trkpt lat="46.517400154843926" lon="6.952391881495714"><ele></ele><time>2013-9-9T12:31:56Z</time></trkpt>
<trkpt lat="46.517361178994179" lon="6.952425492927432"><ele></ele><time>2013-9-9T12:31:59Z</time></trkpt>
<trkpt lat="46.517339972779155" lon="6.952465642243624"><ele></ele><time>2013-9-9T12:32:2Z</time></trkpt>
<trkpt lat="46.517335278913379" lon="6.952483411878347"><ele></ele><time>2013-9-9T12:32:5Z</time></trkpt>
<trkpt lat="46.517332093790174" lon="6.952500594779849"><ele></ele><time>2013-9-9T12:32:8Z</time></trkpt>
<trkpt lat="46.517331255599856" lon="6.952518783509731"><ele></ele><time>2013-9-9T12:32:11Z</time></trkpt>
<trkpt lat="46.517324801534414" lon="6.952539654448628"><ele></ele><time>2013-9-9T12:32:14Z</time></trkpt>
<trkpt lat="46.517253890633583" lon="6.95259153842926"><ele></ele><time>2013-9-9T12:32:17Z</time></trkpt>
<trkpt lat="46.517194295302033" lon="6.952639315277338"><ele></ele><time>2013-9-9T12:32:20Z</time></trkpt>
<trkpt lat="46.517184488475323" lon="6.952652391046286"><ele></ele><time>2013-9-9T12:32:23Z</time></trkpt>
<trkpt lat="46.517172586172819" lon="6.952666388824582"><ele></ele><time>2013-9-9T12:32:26Z</time></trkpt>
<trkpt lat="46.517160683870316" lon="6.952678039669991"><ele></ele><time>2013-9-9T12:32:29Z</time></trkpt>
<trkpt lat="46.517148027196527" lon="6.952695390209556"><ele></ele><time>2013-9-9T12:32:32Z</time></trkpt>
<trkpt lat="46.517059933394194" lon="6.952810222283006"><ele></ele><time>2013-9-9T12:32:35Z</time></trkpt>
<trkpt lat="46.517030764371157" lon="6.95286026224494"><ele></ele><time>2013-9-9T12:32:38Z</time></trkpt>
<trkpt lat="46.517021879553795" lon="6.952877277508378"><ele></ele><time>2013-9-9T12:32:41Z</time></trkpt>
<trkpt lat="46.517011234536767" lon="6.952896891161799"><ele></ele><time>2013-9-9T12:32:44Z</time></trkpt>
<trkpt lat="46.516936300322413" lon="6.953040054067969"><ele></ele><time>2013-9-9T12:32:47Z</time></trkpt>
<trkpt lat="46.516906460747123" lon="6.953094620257616"><ele></ele><time>2013-9-9T12:32:50Z</time></trkpt>
<trkpt lat="46.516895061358809" lon="6.953113311901689"><ele></ele><time>2013-9-9T12:32:53Z</time></trkpt>
<trkpt lat="46.516883242875338" lon="6.953134518116713"><ele></ele><time>2013-9-9T12:32:56Z</time></trkpt>
<trkpt lat="46.516873687505722" lon="6.953157735988498"><ele></ele><time>2013-9-9T12:32:59Z</time></trkpt>
<trkpt lat="46.516866395249963" lon="6.953175170347095"><ele></ele><time>2013-9-9T12:33:2Z</time></trkpt>
<trkpt lat="46.516858767718077" lon="6.953196292743087"><ele></ele><time>2013-9-9T12:33:5Z</time></trkpt>
<trkpt lat="46.516833789646626" lon="6.953254211694002"><ele></ele><time>2013-9-9T12:33:8Z</time></trkpt>
<trkpt lat="46.516821384429932" lon="6.953275753185153"><ele></ele><time>2013-9-9T12:33:11Z</time></trkpt>
<trkpt lat="46.516808560118079" lon="6.953293522819877"><ele></ele><time>2013-9-9T12:33:14Z</time></trkpt>
<trkpt lat="46.516792634502053" lon="6.953312298282981"><ele></ele><time>2013-9-9T12:33:17Z</time></trkpt>
<trkpt lat="46.516774026677012" lon="6.953334845602512"><ele></ele><time>2013-9-9T12:33:20Z</time></trkpt>
<trkpt lat="46.516709737479687" lon="6.953417658805847"><ele></ele><time>2013-9-9T12:33:23Z</time></trkpt>
<trkpt lat="46.516693644225597" lon="6.953436685726047"><ele></ele><time>2013-9-9T12:33:26Z</time></trkpt>
<trkpt lat="46.51668056845665" lon="6.953449174761772"><ele></ele><time>2013-9-9T12:33:29Z</time></trkpt>
<trkpt lat="46.516666989773512" lon="6.953462837263942"><ele></ele><time>2013-9-9T12:33:32Z</time></trkpt>
<trkpt lat="46.516651315614581" lon="6.953479768708348"><ele></ele><time>2013-9-9T12:33:35Z</time></trkpt>
<trkpt lat="46.516587864607573" lon="6.953527964651585"><ele></ele><time>2013-9-9T12:33:38Z</time></trkpt>
<trkpt lat="46.516571268439293" lon="6.953537855297327"><ele></ele><time>2013-9-9T12:33:41Z</time></trkpt>
<trkpt lat="46.516551487147808" lon="6.953548165038228"><ele></ele><time>2013-9-9T12:33:44Z</time></trkpt>
<trkpt lat="46.516530197113752" lon="6.953562330454588"><ele></ele><time>2013-9-9T12:33:47Z</time></trkpt>
<trkpt lat="46.516507985070348" lon="6.953574987128377"><ele></ele><time>2013-9-9T12:33:50Z</time></trkpt>
<trkpt lat="46.516447719186544" lon="6.953602815046907"><ele></ele><time>2013-9-9T12:33:53Z</time></trkpt>
<trkpt lat="46.516429362818599" lon="6.953606335446239"><ele></ele><time>2013-9-9T12:33:56Z</time></trkpt>
<trkpt lat="46.516409749165177" lon="6.953608933836222"><ele></ele><time>2013-9-9T12:33:59Z</time></trkpt>
<trkpt lat="46.516389297321439" lon="6.953615639358759"><ele></ele><time>2013-9-9T12:34:2Z</time></trkpt>
<trkpt lat="46.516369935125113" lon="6.953624188899994"><ele></ele><time>2013-9-9T12:34:5Z</time></trkpt>
<trkpt lat="46.516347052529454" lon="6.95363131351769"><ele></ele><time>2013-9-9T12:34:8Z</time></trkpt>
<trkpt lat="46.516243033111095" lon="6.953644389286637"><ele></ele><time>2013-9-9T12:34:11Z</time></trkpt>
<trkpt lat="46.516223754733801" lon="6.953647909685969"><ele></ele><time>2013-9-9T12:34:14Z</time></trkpt>
<trkpt lat="46.516203051432967" lon="6.953647406771779"><ele></ele><time>2013-9-9T12:34:17Z</time></trkpt>
<trkpt lat="46.516181090846658" lon="6.953647825866938"><ele></ele><time>2013-9-9T12:34:20Z</time></trkpt>
<trkpt lat="46.516159381717443" lon="6.953649083152413"><ele></ele><time>2013-9-9T12:34:23Z</time></trkpt>
<trkpt lat="46.516011357307434" lon="6.953662410378456"><ele></ele><time>2013-9-9T12:34:26Z</time></trkpt>
<trkpt lat="46.515989480540156" lon="6.953664505854249"><ele></ele><time>2013-9-9T12:34:29Z</time></trkpt>
<trkpt lat="46.515967268496752" lon="6.953667942434549"><ele></ele><time>2013-9-9T12:34:32Z</time></trkpt>
<trkpt lat="46.515945224091411" lon="6.953670876100659"><ele></ele><time>2013-9-9T12:34:35Z</time></trkpt>
<trkpt lat="46.515924772247672" lon="6.953670959919691"><ele></ele><time>2013-9-9T12:34:38Z</time></trkpt>
<trkpt lat="46.515844808891416" lon="6.953672217205167"><ele></ele><time>2013-9-9T12:34:41Z</time></trkpt>
<trkpt lat="46.515663173049688" lon="6.953682359308004"><ele></ele><time>2013-9-9T12:34:44Z</time></trkpt>
<trkpt lat="46.515615144744515" lon="6.9536894839257"><ele></ele><time>2013-9-9T12:34:47Z</time></trkpt>
<trkpt lat="46.515592597424984" lon="6.953691747039557"><ele></ele><time>2013-9-9T12:34:50Z</time></trkpt>
<trkpt lat="46.515567200258374" lon="6.953694932162762"><ele></ele><time>2013-9-9T12:34:53Z</time></trkpt>
<trkpt lat="46.515541383996606" lon="6.953699542209506"><ele></ele><time>2013-9-9T12:34:56Z</time></trkpt>
<trkpt lat="46.515514645725489" lon="6.953701386228204"><ele></ele><time>2013-9-9T12:34:59Z</time></trkpt>
<trkpt lat="46.515458319336176" lon="6.953707505017519"><ele></ele><time>2013-9-9T12:35:2Z</time></trkpt>
<trkpt lat="46.515200575813651" lon="6.953743798658252"><ele></ele><time>2013-9-9T12:35:5Z</time></trkpt>
<trkpt lat="46.514969486743212" lon="6.953774308785796"><ele></ele><time>2013-9-9T12:35:8Z</time></trkpt>
<trkpt lat="46.514911903068423" lon="6.953779589384794"><ele></ele><time>2013-9-9T12:35:11Z</time></trkpt>
<trkpt lat="46.514883572235703" lon="6.953783696517348"><ele></ele><time>2013-9-9T12:35:14Z</time></trkpt>
<trkpt lat="46.514856498688459" lon="6.953787971287966"><ele></ele><time>2013-9-9T12:35:17Z</time></trkpt>
<trkpt lat="46.514827413484454" lon="6.953791240230203"><ele></ele><time>2013-9-9T12:35:20Z</time></trkpt>
<trkpt lat="46.514798076823354" lon="6.953796017915011"><ele></ele><time>2013-9-9T12:35:23Z</time></trkpt>
<trkpt lat="46.5147715061903" lon="6.953802052885294"><ele></ele><time>2013-9-9T12:35:26Z</time></trkpt>
<trkpt lat="46.514582242816687" lon="6.953839939087629"><ele></ele><time>2013-9-9T12:35:29Z</time></trkpt>
<trkpt lat="46.514556091278791" lon="6.953843543305993"><ele></ele><time>2013-9-9T12:35:32Z</time></trkpt>
<trkpt lat="46.514528095722198" lon="6.953843962401152"><ele></ele><time>2013-9-9T12:35:35Z</time></trkpt>
<trkpt lat="46.514499597251415" lon="6.953847734257579"><ele></ele><time>2013-9-9T12:35:38Z</time></trkpt>
<trkpt lat="46.5144710149616" lon="6.953850332647562"><ele></ele><time>2013-9-9T12:35:41Z</time></trkpt>
<trkpt lat="46.514331875368953" lon="6.953828623518348"><ele></ele><time>2013-9-9T12:35:44Z</time></trkpt>
<trkpt lat="46.514304634183645" lon="6.953811272978783"><ele></ele><time>2013-9-9T12:35:47Z</time></trkpt>
<trkpt lat="46.514279069378972" lon="6.953791072592139"><ele></ele><time>2013-9-9T12:35:50Z</time></trkpt>
<trkpt lat="46.514255097135901" lon="6.953769028186798"><ele></ele><time>2013-9-9T12:35:53Z</time></trkpt>
<trkpt lat="46.514230957254767" lon="6.953745307400823"><ele></ele><time>2013-9-9T12:35:56Z</time></trkpt>
<trkpt lat="46.514151832088828" lon="6.953583201393485"><ele></ele><time>2013-9-9T12:35:59Z</time></trkpt>
<trkpt lat="46.51412358507514" lon="6.9534632563591"><ele></ele><time>2013-9-9T12:36:2Z</time></trkpt>
<trkpt lat="46.514114197343588" lon="6.953424280509353"><ele></ele><time>2013-9-9T12:36:5Z</time></trkpt>
<trkpt lat="46.514105815440416" lon="6.953386142849922"><ele></ele><time>2013-9-9T12:36:8Z</time></trkpt>
<trkpt lat="46.514096846804023" lon="6.953349597752094"><ele></ele><time>2013-9-9T12:36:11Z</time></trkpt>
<trkpt lat="46.514069270342588" lon="6.953197717666626"><ele></ele><time>2013-9-9T12:36:14Z</time></trkpt>
<trkpt lat="46.51399995200336" lon="6.952939890325069"><ele></ele><time>2013-9-9T12:36:17Z</time></trkpt>
<trkpt lat="46.513964245095849" lon="6.952831679955125"><ele></ele><time>2013-9-9T12:36:20Z</time></trkpt>
<trkpt lat="46.513950247317553" lon="6.952795553952456"><ele></ele><time>2013-9-9T12:36:23Z</time></trkpt>
<trkpt lat="46.513934573158622" lon="6.952761439606547"><ele></ele><time>2013-9-9T12:36:26Z</time></trkpt>
<trkpt lat="46.513919653370976" lon="6.952724643051624"><ele></ele><time>2013-9-9T12:36:29Z</time></trkpt>
<trkpt lat="46.513905739411712" lon="6.952688181772828"><ele></ele><time>2013-9-9T12:36:32Z</time></trkpt>
<trkpt lat="46.513890065252781" lon="6.952647864818573"><ele></ele><time>2013-9-9T12:36:35Z</time></trkpt>
<trkpt lat="46.513744723051786" lon="6.952361455187202"><ele></ele><time>2013-9-9T12:36:38Z</time></trkpt>
<trkpt lat="46.513601979240775" lon="6.952123492956162"><ele></ele><time>2013-9-9T12:36:41Z</time></trkpt>
<trkpt lat="46.513437945395708" lon="6.951863653957844"><ele></ele><time>2013-9-9T12:36:44Z</time></trkpt>
<trkpt lat="46.513337446376681" lon="6.951689813286066"><ele></ele><time>2013-9-9T12:36:47Z</time></trkpt>
<trkpt lat="46.513207694515586" lon="6.951487641781569"><ele></ele><time>2013-9-9T12:36:50Z</time></trkpt>
<trkpt lat="46.513191098347306" lon="6.951457969844341"><ele></ele><time>2013-9-9T12:36:53Z</time></trkpt>
<trkpt lat="46.513172825798392" lon="6.951427711173892"><ele></ele><time>2013-9-9T12:36:56Z</time></trkpt>
<trkpt lat="46.5131517034024" lon="6.951398961246014"><ele></ele><time>2013-9-9T12:36:59Z</time></trkpt>
<trkpt lat="46.513131586834788" lon="6.95137188769877"><ele></ele><time>2013-9-9T12:37:2Z</time></trkpt>
<trkpt lat="46.513057993724942" lon="6.951264934614301"><ele></ele><time>2013-9-9T12:37:5Z</time></trkpt>
<trkpt lat="46.512913489714265" lon="6.951044406741858"><ele></ele><time>2013-9-9T12:37:8Z</time></trkpt>
<trkpt lat="46.512899408116937" lon="6.951018925756216"><ele></ele><time>2013-9-9T12:37:11Z</time></trkpt>
<trkpt lat="46.512883398681879" lon="6.950995959341526"><ele></ele><time>2013-9-9T12:37:14Z</time></trkpt>
<trkpt lat="46.512862611562014" lon="6.950974501669407"><ele></ele><time>2013-9-9T12:37:17Z</time></trkpt>
<trkpt lat="46.512843500822783" lon="6.950949104502797"><ele></ele><time>2013-9-9T12:37:20Z</time></trkpt>
<trkpt lat="46.512755658477545" lon="6.950852377340198"><ele></ele><time>2013-9-9T12:37:23Z</time></trkpt>
<trkpt lat="46.512679969891906" lon="6.950788842514157"><ele></ele><time>2013-9-9T12:37:26Z</time></trkpt>
<trkpt lat="46.512654991820455" lon="6.950774509459734"><ele></ele><time>2013-9-9T12:37:29Z</time></trkpt>
<trkpt lat="46.512628588825464" lon="6.950760595500469"><ele></ele><time>2013-9-9T12:37:32Z</time></trkpt>
<trkpt lat="46.512602437287569" lon="6.950744921341538"><ele></ele><time>2013-9-9T12:37:35Z</time></trkpt>
<trkpt lat="46.512577040120959" lon="6.950729331001639"><ele></ele><time>2013-9-9T12:37:38Z</time></trkpt>
<trkpt lat="46.512385262176394" lon="6.950660431757569"><ele></ele><time>2013-9-9T12:37:41Z</time></trkpt>
<trkpt lat="46.512176720425487" lon="6.950676860287786"><ele></ele><time>2013-9-9T12:37:44Z</time></trkpt>
<trkpt lat="46.512147635221481" lon="6.950683481991291"><ele></ele><time>2013-9-9T12:37:47Z</time></trkpt>
<trkpt lat="46.512118130922318" lon="6.950683062896133"><ele></ele><time>2013-9-9T12:37:50Z</time></trkpt>
<trkpt lat="46.512091476470232" lon="6.950677530840039"><ele></ele><time>2013-9-9T12:37:53Z</time></trkpt>
<trkpt lat="46.512066414579749" lon="6.950675519183278"><ele></ele><time>2013-9-9T12:37:56Z</time></trkpt>
<trkpt lat="46.512042693793774" lon="6.950679291039705"><ele></ele><time>2013-9-9T12:37:59Z</time></trkpt>
<trkpt lat="46.512022074311972" lon="6.95069027133286"><ele></ele><time>2013-9-9T12:38:2Z</time></trkpt>
<trkpt lat="46.511866003274918" lon="6.950765624642372"><ele></ele><time>2013-9-9T12:38:5Z</time></trkpt>
<trkpt lat="46.511675314977765" lon="6.950795128941536"><ele></ele><time>2013-9-9T12:38:8Z</time></trkpt>
<trkpt lat="46.511579928919673" lon="6.95078456774354"><ele></ele><time>2013-9-9T12:38:11Z</time></trkpt>
<trkpt lat="46.511529637500644" lon="6.950774677097797"><ele></ele><time>2013-9-9T12:38:14Z</time></trkpt>
<trkpt lat="46.511474400758743" lon="6.950763612985611"><ele></ele><time>2013-9-9T12:38:17Z</time></trkpt>
<trkpt lat="46.511419583112001" lon="6.950754560530186"><ele></ele><time>2013-9-9T12:38:20Z</time></trkpt>
<trkpt lat="46.511364094913006" lon="6.950745088979602"><ele></ele><time>2013-9-9T12:38:23Z</time></trkpt>
<trkpt lat="46.51131103746593" lon="6.950727486982942"><ele></ele><time>2013-9-9T12:38:26Z</time></trkpt>
<trkpt lat="46.511195367202163" lon="6.950687421485782"><ele></ele><time>2013-9-9T12:38:29Z</time></trkpt>
<trkpt lat="46.511130994185805" lon="6.950661102309823"><ele></ele><time>2013-9-9T12:38:32Z</time></trkpt>
<trkpt lat="46.51106377132237" lon="6.950633777305484"><ele></ele><time>2013-9-9T12:38:35Z</time></trkpt>
<trkpt lat="46.510991351678967" lon="6.950603686273098"><ele></ele><time>2013-9-9T12:38:38Z</time></trkpt>
<trkpt lat="46.510916166007519" lon="6.950564961880446"><ele></ele><time>2013-9-9T12:38:41Z</time></trkpt>
<trkpt lat="46.510834190994501" lon="6.950522381812334"><ele></ele><time>2013-9-9T12:38:44Z</time></trkpt>
<trkpt lat="46.510756742209196" lon="6.950477035716176"><ele></ele><time>2013-9-9T12:38:47Z</time></trkpt>
<trkpt lat="46.510682897642255" lon="6.950431438162923"><ele></ele><time>2013-9-9T12:38:50Z</time></trkpt>
<trkpt lat="46.510616177693009" lon="6.950372597202659"><ele></ele><time>2013-9-9T12:38:53Z</time></trkpt>
<trkpt lat="46.510553397238255" lon="6.950304955244064"><ele></ele><time>2013-9-9T12:38:56Z</time></trkpt>
<trkpt lat="46.510494388639927" lon="6.950234044343233"><ele></ele><time>2013-9-9T12:38:59Z</time></trkpt>
<trkpt lat="46.510427836328745" lon="6.950161121785641"><ele></ele><time>2013-9-9T12:39:2Z</time></trkpt>
<trkpt lat="46.51024485938251" lon="6.949952160939574"><ele></ele><time>2013-9-9T12:39:5Z</time></trkpt>
<trkpt lat="46.510128350928426" lon="6.949820481240749"><ele></ele><time>2013-9-9T12:39:8Z</time></trkpt>
<trkpt lat="46.510069677606225" lon="6.949770525097847"><ele></ele><time>2013-9-9T12:39:11Z</time></trkpt>
<trkpt lat="46.509966077283025" lon="6.949699362739921"><ele></ele><time>2013-9-9T12:39:14Z</time></trkpt>
<trkpt lat="46.509915702044964" lon="6.949686873704195"><ele></ele><time>2013-9-9T12:39:17Z</time></trkpt>
<trkpt lat="46.509858956560493" lon="6.949688885360956"><ele></ele><time>2013-9-9T12:39:20Z</time></trkpt>
<trkpt lat="46.509799109771848" lon="6.949696764349937"><ele></ele><time>2013-9-9T12:39:23Z</time></trkpt>
<trkpt lat="46.509732473641634" lon="6.949702966958284"><ele></ele><time>2013-9-9T12:39:26Z</time></trkpt>
<trkpt lat="46.509595010429621" lon="6.949699781835079"><ele></ele><time>2013-9-9T12:39:29Z</time></trkpt>
<trkpt lat="46.509445728734136" lon="6.949682934209704"><ele></ele><time>2013-9-9T12:39:32Z</time></trkpt>
<trkpt lat="46.509159822016954" lon="6.949565503746271"><ele></ele><time>2013-9-9T12:39:35Z</time></trkpt>
<trkpt lat="46.50894801132381" lon="6.949501214548945"><ele></ele><time>2013-9-9T12:39:38Z</time></trkpt>
<trkpt lat="46.508846087381244" lon="6.949485875666142"><ele></ele><time>2013-9-9T12:39:41Z</time></trkpt>
<trkpt lat="46.508634863421321" lon="6.949565755203366"><ele></ele><time>2013-9-9T12:39:44Z</time></trkpt>
<trkpt lat="46.508584320545197" lon="6.949604982510209"><ele></ele><time>2013-9-9T12:39:47Z</time></trkpt>
<trkpt lat="46.508535873144865" lon="6.949654100462794"><ele></ele><time>2013-9-9T12:39:50Z</time></trkpt>
<trkpt lat="46.508365133777261" lon="6.949838250875473"><ele></ele><time>2013-9-9T12:39:53Z</time></trkpt>
<trkpt lat="46.508179223164916" lon="6.950127258896828"><ele></ele><time>2013-9-9T12:39:56Z</time></trkpt>
<trkpt lat="46.507923994213343" lon="6.950387433171272"><ele></ele><time>2013-9-9T12:39:59Z</time></trkpt>
<trkpt lat="46.507888035848737" lon="6.950420876964927"><ele></ele><time>2013-9-9T12:40:2Z</time></trkpt>
<trkpt lat="46.507848724722862" lon="6.950450716540217"><ele></ele><time>2013-9-9T12:40:5Z</time></trkpt>
<trkpt lat="46.507807318121195" lon="6.950475694611669"><ele></ele><time>2013-9-9T12:40:8Z</time></trkpt>
<trkpt lat="46.507763983681798" lon="6.950494721531868"><ele></ele><time>2013-9-9T12:40:11Z</time></trkpt>
<trkpt lat="46.507719559594989" lon="6.950511485338211"><ele></ele><time>2013-9-9T12:40:14Z</time></trkpt>
<trkpt lat="46.507436167448759" lon="6.950631681829691"><ele></ele><time>2013-9-9T12:40:17Z</time></trkpt>
<trkpt lat="46.507396604865789" lon="6.950660683214665"><ele></ele><time>2013-9-9T12:40:20Z</time></trkpt>
<trkpt lat="46.507359389215708" lon="6.950686667114496"><ele></ele><time>2013-9-9T12:40:23Z</time></trkpt>
<trkpt lat="46.507323514670134" lon="6.950711896643043"><ele></ele><time>2013-9-9T12:40:26Z</time></trkpt>
<trkpt lat="46.507288897410035" lon="6.950736790895462"><ele></ele><time>2013-9-9T12:40:29Z</time></trkpt>
<trkpt lat="46.507186302915215" lon="6.950810886919498"><ele></ele><time>2013-9-9T12:40:32Z</time></trkpt>
<trkpt lat="46.507129976525903" lon="6.950866291299462"><ele></ele><time>2013-9-9T12:40:35Z</time></trkpt>
<trkpt lat="46.507108267396688" lon="6.950898980721831"><ele></ele><time>2013-9-9T12:40:38Z</time></trkpt>
<trkpt lat="46.507088067010045" lon="6.950936196371913"><ele></ele><time>2013-9-9T12:40:41Z</time></trkpt>
<trkpt lat="46.507068537175655" lon="6.9509800337255"><ele></ele><time>2013-9-9T12:40:44Z</time></trkpt>
<trkpt lat="46.507048923522234" lon="6.951024038717151"><ele></ele><time>2013-9-9T12:40:47Z</time></trkpt>
<trkpt lat="46.507030818611383" lon="6.95107433013618"><ele></ele><time>2013-9-9T12:40:50Z</time></trkpt>
<trkpt lat="46.507015563547611" lon="6.951129734516144"><ele></ele><time>2013-9-9T12:40:53Z</time></trkpt>
<trkpt lat="46.507000057026744" lon="6.951317740604281"><ele></ele><time>2013-9-9T12:40:56Z</time></trkpt>
<trkpt lat="46.507058730348945" lon="6.951542375609279"><ele></ele><time>2013-9-9T12:40:59Z</time></trkpt>
<trkpt lat="46.507075997069478" lon="6.951600043103099"><ele></ele><time>2013-9-9T12:41:2Z</time></trkpt>
<trkpt lat="46.507163587957621" lon="6.951919728890061"><ele></ele><time>2013-9-9T12:41:5Z</time></trkpt>
<trkpt lat="46.507170042023063" lon="6.951956693083048"><ele></ele><time>2013-9-9T12:41:8Z</time></trkpt>
<trkpt lat="46.507177585735917" lon="6.951984688639641"><ele></ele><time>2013-9-9T12:41:11Z</time></trkpt>
<trkpt lat="46.507184039801359" lon="6.952011426910758"><ele></ele><time>2013-9-9T12:41:14Z</time></trkpt>
<trkpt lat="46.507190242409706" lon="6.952036991715431"><ele></ele><time>2013-9-9T12:41:17Z</time></trkpt>
<trkpt lat="46.507209939882159" lon="6.952088875696063"><ele></ele><time>2013-9-9T12:41:20Z</time></trkpt>
<trkpt lat="46.507239611819386" lon="6.952214185148478"><ele></ele><time>2013-9-9T12:41:23Z</time></trkpt>
<trkpt lat="46.507235504686832" lon="6.952243940904737"><ele></ele><time>2013-9-9T12:41:26Z</time></trkpt>
<trkpt lat="46.507231397554278" lon="6.95227487012744"><ele></ele><time>2013-9-9T12:41:29Z</time></trkpt>
<trkpt lat="46.507221255451441" lon="6.952307475730777"><ele></ele><time>2013-9-9T12:41:32Z</time></trkpt>
<trkpt lat="46.507213208824396" lon="6.952332453802228"><ele></ele><time>2013-9-9T12:41:35Z</time></trkpt>
<trkpt lat="46.507186302915215" lon="6.952377296984196"><ele></ele><time>2013-9-9T12:41:38Z</time></trkpt>
<trkpt lat="46.507047163322568" lon="6.95247863419354"><ele></ele><time>2013-9-9T12:41:41Z</time></trkpt>
<trkpt lat="46.5070247836411" lon="6.952499756589532"><ele></ele><time>2013-9-9T12:41:44Z</time></trkpt>
<trkpt lat="46.507002068683505" lon="6.952523142099381"><ele></ele><time>2013-9-9T12:41:47Z</time></trkpt>
<trkpt lat="46.506978766992688" lon="6.952550886198878"><ele></ele><time>2013-9-9T12:41:50Z</time></trkpt>
<trkpt lat="46.506954627111554" lon="6.952582150697708"><ele></ele><time>2013-9-9T12:41:53Z</time></trkpt>
<trkpt lat="46.506906012073159" lon="6.952642500400543"><ele></ele><time>2013-9-9T12:41:56Z</time></trkpt>
<trkpt lat="46.506756646558642" lon="6.95279379375279"><ele></ele><time>2013-9-9T12:41:59Z</time></trkpt>
<trkpt lat="46.506717000156641" lon="6.952826147899032"><ele></ele><time>2013-9-9T12:42:2Z</time></trkpt>
<trkpt lat="46.5066983923316" lon="6.952839391306043"><ele></ele><time>2013-9-9T12:42:5Z</time></trkpt>
<trkpt lat="46.506680874153972" lon="6.952859843149781"><ele></ele><time>2013-9-9T12:42:8Z</time></trkpt>
<trkpt lat="46.506665116176009" lon="6.952881049364805"><ele></ele><time>2013-9-9T12:42:11Z</time></trkpt>
<trkpt lat="46.506651286035776" lon="6.952895047143102"><ele></ele><time>2013-9-9T12:42:14Z</time></trkpt>
<trkpt lat="46.506628068163991" lon="6.952923377975822"><ele></ele><time>2013-9-9T12:42:17Z</time></trkpt>
<trkpt lat="46.50660652667284" lon="6.952959839254618"><ele></ele><time>2013-9-9T12:42:20Z</time></trkpt>
<trkpt lat="46.506591942161322" lon="6.952979369089007"><ele></ele><time>2013-9-9T12:42:23Z</time></trkpt>
<trkpt lat="46.506580542773008" lon="6.952993031591177"><ele></ele><time>2013-9-9T12:42:26Z</time></trkpt>
<trkpt lat="46.506567467004061" lon="6.953006694093347"><ele></ele><time>2013-9-9T12:42:29Z</time></trkpt>
<trkpt lat="46.506556989625096" lon="6.953022703528404"><ele></ele><time>2013-9-9T12:42:32Z</time></trkpt>
<trkpt lat="46.506517091766" lon="6.953094284981489"><ele></ele><time>2013-9-9T12:42:35Z</time></trkpt>
<trkpt lat="46.506506949663162" lon="6.953112976625562"><ele></ele><time>2013-9-9T12:42:38Z</time></trkpt>
<trkpt lat="46.506492113694549" lon="6.953127728775144"><ele></ele><time>2013-9-9T12:42:41Z</time></trkpt>
<trkpt lat="46.506478786468506" lon="6.953145414590836"><ele></ele><time>2013-9-9T12:42:44Z</time></trkpt>
<trkpt lat="46.506464201956987" lon="6.953162094578147"><ele></ele><time>2013-9-9T12:42:47Z</time></trkpt>
<trkpt lat="46.506426148116589" lon="6.953192185610533"><ele></ele><time>2013-9-9T12:42:50Z</time></trkpt>
<trkpt lat="46.506252558901906" lon="6.953299222514033"><ele></ele><time>2013-9-9T12:42:53Z</time></trkpt>
<trkpt lat="46.506176786497235" lon="6.953372564166784"><ele></ele><time>2013-9-9T12:42:56Z</time></trkpt>
<trkpt lat="46.506144683808088" lon="6.953389830887318"><ele></ele><time>2013-9-9T12:42:59Z</time></trkpt>
<trkpt lat="46.50609883479774" lon="6.953399553894997"><ele></ele><time>2013-9-9T12:43:2Z</time></trkpt>
<trkpt lat="46.505967490375042" lon="6.953437188640237"><ele></ele><time>2013-9-9T12:43:5Z</time></trkpt>
<trkpt lat="46.505773784592748" lon="6.953486306592822"><ele></ele><time>2013-9-9T12:43:8Z</time></trkpt>
<trkpt lat="46.505636153742671" lon="6.953556044027209"><ele></ele><time>2013-9-9T12:43:11Z</time></trkpt>
<trkpt lat="46.505610002204776" lon="6.953573310747743"><ele></ele><time>2013-9-9T12:43:14Z</time></trkpt>
<trkpt lat="46.505568930879235" lon="6.953603234142065"><ele></ele><time>2013-9-9T12:43:17Z</time></trkpt>
<trkpt lat="46.505533894523978" lon="6.953615471720696"><ele></ele><time>2013-9-9T12:43:20Z</time></trkpt>
<trkpt lat="46.505513023585081" lon="6.953640365973115"><ele></ele><time>2013-9-9T12:43:23Z</time></trkpt>
<trkpt lat="46.505398275330663" lon="6.953717563301325"><ele></ele><time>2013-9-9T12:43:26Z</time></trkpt>
<trkpt lat="46.505279168486595" lon="6.953864917159081"><ele></ele><time>2013-9-9T12:43:29Z</time></trkpt>
<trkpt lat="46.50520951487124" lon="6.953962231054902"><ele></ele><time>2013-9-9T12:43:32Z</time></trkpt>
<trkpt lat="46.50515335611999" lon="6.954005397856236"><ele></ele><time>2013-9-9T12:43:35Z</time></trkpt>
<trkpt lat="46.504944814369082" lon="6.954058539122343"><ele></ele><time>2013-9-9T12:43:38Z</time></trkpt>
<trkpt lat="46.504728393629193" lon="6.95408770814538"><ele></ele><time>2013-9-9T12:43:41Z</time></trkpt>
<trkpt lat="46.504560085013509" lon="6.954073375090957"><ele></ele><time>2013-9-9T12:43:44Z</time></trkpt>
<trkpt lat="46.504540555179119" lon="6.954066501930356"><ele></ele><time>2013-9-9T12:43:47Z</time></trkpt>
<trkpt lat="46.504521276801825" lon="6.954058706760407"><ele></ele><time>2013-9-9T12:43:50Z</time></trkpt>
<trkpt lat="46.504503171890974" lon="6.95405250415206"><ele></ele><time>2013-9-9T12:43:53Z</time></trkpt>
<trkpt lat="46.504491101950407" lon="6.954040098935366"><ele></ele><time>2013-9-9T12:43:56Z</time></trkpt>
<trkpt lat="46.504439050331712" lon="6.954028280451894"><ele></ele><time>2013-9-9T12:43:59Z</time></trkpt>
<trkpt lat="46.504418095573783" lon="6.954028615728021"><ele></ele><time>2013-9-9T12:44:2Z</time></trkpt>
<trkpt lat="46.504395212978125" lon="6.954029118642211"><ele></ele><time>2013-9-9T12:44:5Z</time></trkpt>
<trkpt lat="46.504355818033218" lon="6.954031465575099"><ele></ele><time>2013-9-9T12:44:8Z</time></trkpt>
<trkpt lat="46.504319356754422" lon="6.954045630991459"><ele></ele><time>2013-9-9T12:44:11Z</time></trkpt>
<trkpt lat="46.504279877990484" lon="6.954059042036533"><ele></ele><time>2013-9-9T12:44:14Z</time></trkpt>
<trkpt lat="46.504242327064276" lon="6.954070860520005"><ele></ele><time>2013-9-9T12:44:17Z</time></trkpt>
<trkpt lat="46.504208547994494" lon="6.954090222716332"><ele></ele><time>2013-9-9T12:44:20Z</time></trkpt>
<trkpt lat="46.50418147444725" lon="6.954099610447884"><ele></ele><time>2013-9-9T12:44:23Z</time></trkpt>
<trkpt lat="46.504153311252594" lon="6.954104639589787"><ele></ele><time>2013-9-9T12:44:26Z</time></trkpt>
<trkpt lat="46.504117185249925" lon="6.954111764207482"><ele></ele><time>2013-9-9T12:44:29Z</time></trkpt>
<trkpt lat="46.504079550504684" lon="6.954109081998467"><ele></ele><time>2013-9-9T12:44:32Z</time></trkpt>
<trkpt lat="46.504003861919045" lon="6.954093826934695"><ele></ele><time>2013-9-9T12:44:35Z</time></trkpt>
<trkpt lat="46.503983410075307" lon="6.954094581305981"><ele></ele><time>2013-9-9T12:44:38Z</time></trkpt>
<trkpt lat="46.503960946574807" lon="6.954088127240539"><ele></ele><time>2013-9-9T12:44:41Z</time></trkpt>
<trkpt lat="46.503938818350434" lon="6.954086786136031"><ele></ele><time>2013-9-9T12:44:44Z</time></trkpt>
<trkpt lat="46.503913840278983" lon="6.954089384526014"><ele></ele><time>2013-9-9T12:44:47Z</time></trkpt>
<trkpt lat="46.50378760881722" lon="6.954032387584448"><ele></ele><time>2013-9-9T12:44:50Z</time></trkpt>
<trkpt lat="46.503658359870315" lon="6.95398461073637"><ele></ele><time>2013-9-9T12:44:53Z</time></trkpt>
<trkpt lat="46.503521734848619" lon="6.954047307372093"><ele></ele><time>2013-9-9T12:44:56Z</time></trkpt>
<trkpt lat="46.503504551947117" lon="6.954073291271925"><ele></ele><time>2013-9-9T12:44:59Z</time></trkpt>
<trkpt lat="46.503388714045286" lon="6.954197846353054"><ele></ele><time>2013-9-9T12:45:2Z</time></trkpt>
<trkpt lat="46.503260303288698" lon="6.954297171905637"><ele></ele><time>2013-9-9T12:45:5Z</time></trkpt>
<trkpt lat="46.503068944439292" lon="6.954452488571405"><ele></ele><time>2013-9-9T12:45:8Z</time></trkpt>
<trkpt lat="46.502912454307079" lon="6.954602021723986"><ele></ele><time>2013-9-9T12:45:11Z</time></trkpt>
<trkpt lat="46.502856211736798" lon="6.954625658690929"><ele></ele><time>2013-9-9T12:45:14Z</time></trkpt>
<trkpt lat="46.502609197050333" lon="6.954827578738332"><ele></ele><time>2013-9-9T12:45:17Z</time></trkpt>
<trkpt lat="46.502449102699757" lon="6.955003347247839"><ele></ele><time>2013-9-9T12:45:20Z</time></trkpt>
<trkpt lat="46.502399733290076" lon="6.955047519877553"><ele></ele><time>2013-9-9T12:45:23Z</time></trkpt>
<trkpt lat="46.50234516710043" lon="6.955080209299922"><ele></ele><time>2013-9-9T12:45:26Z</time></trkpt>
<trkpt lat="46.502291103824973" lon="6.955118849873543"><ele></ele><time>2013-9-9T12:45:29Z</time></trkpt>
<trkpt lat="46.502238465473056" lon="6.955161262303591"><ele></ele><time>2013-9-9T12:45:32Z</time></trkpt>
<trkpt lat="46.502160849049687" lon="6.955204261466861"><ele></ele><time>2013-9-9T12:45:35Z</time></trkpt>
<trkpt lat="46.502096224576235" lon="6.955256732180715"><ele></ele><time>2013-9-9T12:45:38Z</time></trkpt>
<trkpt lat="46.502044424414635" lon="6.95531465113163"><ele></ele><time>2013-9-9T12:45:41Z</time></trkpt>
<trkpt lat="46.50185021571815" lon="6.955525791272521"><ele></ele><time>2013-9-9T12:45:44Z</time></trkpt>
<trkpt lat="46.501798834651709" lon="6.955603323876858"><ele></ele><time>2013-9-9T12:45:47Z</time></trkpt>
<trkpt lat="46.501769917085767" lon="6.955649927258492"><ele></ele><time>2013-9-9T12:45:50Z</time></trkpt>
<trkpt lat="46.501737479120493" lon="6.955690830945969"><ele></ele><time>2013-9-9T12:45:53Z</time></trkpt>
<trkpt lat="46.501703532412648" lon="6.955744223669171"><ele></ele><time>2013-9-9T12:45:56Z</time></trkpt>
<trkpt lat="46.501674111932516" lon="6.955783953890204"><ele></ele><time>2013-9-9T12:45:59Z</time></trkpt>
<trkpt lat="46.501596411690116" lon="6.95588244125247"><ele></ele><time>2013-9-9T12:46:2Z</time></trkpt>
<trkpt lat="46.501572607085109" lon="6.955928793177009"><ele></ele><time>2013-9-9T12:46:5Z</time></trkpt>
<trkpt lat="46.501549053937197" lon="6.955984281376004"><ele></ele><time>2013-9-9T12:46:8Z</time></trkpt>
<trkpt lat="46.501516448333859" lon="6.956061730161309"><ele></ele><time>2013-9-9T12:46:11Z</time></trkpt>
<trkpt lat="46.501480406150222" lon="6.95617756806314"><ele></ele><time>2013-9-9T12:46:14Z</time></trkpt>
<trkpt lat="46.501458361744881" lon="6.956220231950283"><ele></ele><time>2013-9-9T12:46:17Z</time></trkpt>
<trkpt lat="46.501438580453396" lon="6.956256944686174"><ele></ele><time>2013-9-9T12:46:20Z</time></trkpt>
<trkpt lat="46.501425001770258" lon="6.956294747069478"><ele></ele><time>2013-9-9T12:46:23Z</time></trkpt>
<trkpt lat="46.501409914344549" lon="6.956337410956621"><ele></ele><time>2013-9-9T12:46:26Z</time></trkpt>
<trkpt lat="46.501347385346889" lon="6.956899920478463"><ele></ele><time>2013-9-9T12:46:29Z</time></trkpt>
<trkpt lat="46.501292232424021" lon="6.957168644294143"><ele></ele><time>2013-9-9T12:46:32Z</time></trkpt>
<trkpt lat="46.501286113634706" lon="6.957222707569599"><ele></ele><time>2013-9-9T12:46:35Z</time></trkpt>
<trkpt lat="46.501278905197978" lon="6.957279955968261"><ele></ele><time>2013-9-9T12:46:38Z</time></trkpt>
<trkpt lat="46.501273792237043" lon="6.957332510501146"><ele></ele><time>2013-9-9T12:46:41Z</time></trkpt>
<trkpt lat="46.501270523294806" lon="6.957385987043381"><ele></ele><time>2013-9-9T12:46:44Z</time></trkpt>
<trkpt lat="46.501289801672101" lon="6.957643060013652"><ele></ele><time>2013-9-9T12:46:47Z</time></trkpt>
<trkpt lat="46.501346211880445" lon="6.957921339198947"><ele></ele><time>2013-9-9T12:46:50Z</time></trkpt>
<trkpt lat="46.501325508579612" lon="6.958069363608956"><ele></ele><time>2013-9-9T12:46:53Z</time></trkpt>
<trkpt lat="46.501224506646395" lon="6.958156451582909"><ele></ele><time>2013-9-9T12:46:56Z</time></trkpt>
<trkpt lat="46.501156529411674" lon="6.958257285878062"><ele></ele><time>2013-9-9T12:46:59Z</time></trkpt>
<trkpt lat="46.501108501106501" lon="6.958309421315789"><ele></ele><time>2013-9-9T12:47:2Z</time></trkpt>
<trkpt lat="46.500987382605672" lon="6.958361389115453"><ele></ele><time>2013-9-9T12:47:5Z</time></trkpt>
<trkpt lat="46.500926949083805" lon="6.958388295024633"><ele></ele><time>2013-9-9T12:47:8Z</time></trkpt>
<trkpt lat="46.500904317945242" lon="6.958399526774883"><ele></ele><time>2013-9-9T12:47:11Z</time></trkpt>
<trkpt lat="46.500873304903507" lon="6.958424169570208"><ele></ele><time>2013-9-9T12:47:14Z</time></trkpt>
<trkpt lat="46.500841286033392" lon="6.958444956690073"><ele></ele><time>2013-9-9T12:47:17Z</time></trkpt>
<trkpt lat="46.500693596899509" lon="6.958602536469698"><ele></ele><time>2013-9-9T12:47:20Z</time></trkpt>
<trkpt lat="46.500658392906189" lon="6.95865542627871"><ele></ele><time>2013-9-9T12:47:23Z</time></trkpt>
<trkpt lat="46.50054850615561" lon="6.958792973309755"><ele></ele><time>2013-9-9T12:47:26Z</time></trkpt>
<trkpt lat="46.500498382374644" lon="6.958830105140805"><ele></ele><time>2013-9-9T12:47:29Z</time></trkpt>
<trkpt lat="46.500429483130574" lon="6.958905877545476"><ele></ele><time>2013-9-9T12:47:32Z</time></trkpt>
<trkpt lat="46.500310460105538" lon="6.959121208637953"><ele></ele><time>2013-9-9T12:47:35Z</time></trkpt>
<trkpt lat="46.500280201435089" lon="6.959198825061321"><ele></ele><time>2013-9-9T12:47:38Z</time></trkpt>
<trkpt lat="46.500227730721235" lon="6.95936344563961"><ele></ele><time>2013-9-9T12:47:41Z</time></trkpt>
<trkpt lat="46.500206524506211" lon="6.959453718736768"><ele></ele><time>2013-9-9T12:47:44Z</time></trkpt>
<trkpt lat="46.500189425423741" lon="6.959556313231587"><ele></ele><time>2013-9-9T12:47:47Z</time></trkpt>
<trkpt lat="46.500178445130587" lon="6.959651866927743"><ele></ele><time>2013-9-9T12:47:50Z</time></trkpt>
<trkpt lat="46.500174924731255" lon="6.95974993519485"><ele></ele><time>2013-9-9T12:47:53Z</time></trkpt>
<trkpt lat="46.500149695202708" lon="6.960050510242581"><ele></ele><time>2013-9-9T12:47:56Z</time></trkpt>
<trkpt lat="46.500084735453129" lon="6.96020046249032"><ele></ele><time>2013-9-9T12:47:59Z</time></trkpt>
<trkpt lat="46.500053638592362" lon="6.960277492180467"><ele></ele><time>2013-9-9T12:48:2Z</time></trkpt>
<trkpt lat="46.499888515099883" lon="6.960732964798808"><ele></ele><time>2013-9-9T12:48:5Z</time></trkpt>
<trkpt lat="46.499629514291883" lon="6.96136730723083"><ele></ele><time>2013-9-9T12:48:8Z</time></trkpt>
<trkpt lat="46.499576792120934" lon="6.96148649789393"><ele></ele><time>2013-9-9T12:48:11Z</time></trkpt>
<trkpt lat="46.499554580077529" lon="6.961543997749686"><ele></ele><time>2013-9-9T12:48:14Z</time></trkpt>
<trkpt lat="46.499531026929617" lon="6.961598983034492"><ele></ele><time>2013-9-9T12:48:17Z</time></trkpt>
<trkpt lat="46.499508311972022" lon="6.961654555052519"><ele></ele><time>2013-9-9T12:48:20Z</time></trkpt>
<trkpt lat="46.499468917027116" lon="6.9617591612041"><ele></ele><time>2013-9-9T12:48:23Z</time></trkpt>
<trkpt lat="46.499455589801073" lon="6.961811212822795"><ele></ele><time>2013-9-9T12:48:26Z</time></trkpt>
<trkpt lat="46.499438239261508" lon="6.96185790002346"><ele></ele><time>2013-9-9T12:48:29Z</time></trkpt>
<trkpt lat="46.499418709427118" lon="6.961905928328633"><ele></ele><time>2013-9-9T12:48:32Z</time></trkpt>
<trkpt lat="46.499400353059173" lon="6.961952364072204"><ele></ele><time>2013-9-9T12:48:35Z</time></trkpt>
<trkpt lat="46.499331789091229" lon="6.962163923308253"><ele></ele><time>2013-9-9T12:48:38Z</time></trkpt>
<trkpt lat="46.499145375564694" lon="6.962547060102224"><ele></ele><time>2013-9-9T12:48:41Z</time></trkpt>
<trkpt lat="46.499023335054517" lon="6.962753506377339"><ele></ele><time>2013-9-9T12:48:44Z</time></trkpt>
<trkpt lat="46.498992322012782" lon="6.96279508061707"><ele></ele><time>2013-9-9T12:48:47Z</time></trkpt>
<trkpt lat="46.498961560428143" lon="6.962836571037769"><ele></ele><time>2013-9-9T12:48:50Z</time></trkpt>
<trkpt lat="46.498930882662535" lon="6.96287764236331"><ele></ele><time>2013-9-9T12:48:53Z</time></trkpt>
<trkpt lat="46.49874547496438" lon="6.963140079751611"><ele></ele><time>2013-9-9T12:48:56Z</time></trkpt>
<trkpt lat="46.498726699501276" lon="6.96316447108984"><ele></ele><time>2013-9-9T12:48:59Z</time></trkpt>
<trkpt lat="46.498711779713631" lon="6.96318986825645"><ele></ele><time>2013-9-9T12:49:2Z</time></trkpt>
<trkpt lat="46.498702559620142" lon="6.963212331756949"><ele></ele><time>2013-9-9T12:49:5Z</time></trkpt>
<trkpt lat="46.498694512993097" lon="6.963232532143593"><ele></ele><time>2013-9-9T12:49:8Z</time></trkpt>
<trkpt lat="46.498691830784082" lon="6.963246362283826"><ele></ele><time>2013-9-9T12:49:11Z</time></trkpt>
<trkpt lat="46.498691830784082" lon="6.963243344798684"><ele></ele><time>2013-9-9T12:49:14Z</time></trkpt>
<trkpt lat="46.498643551021814" lon="6.963280811905861"><ele></ele><time>2013-9-9T12:49:17Z</time></trkpt>
<trkpt lat="46.498627373948693" lon="6.963297910988331"><ele></ele><time>2013-9-9T12:49:20Z</time></trkpt>
<trkpt lat="46.498543303459883" lon="6.96342783048749"><ele></ele><time>2013-9-9T12:49:23Z</time></trkpt>
<trkpt lat="46.498420760035515" lon="6.96358323097229"><ele></ele><time>2013-9-9T12:49:26Z</time></trkpt>
<trkpt lat="46.498322272673249" lon="6.963721113279462"><ele></ele><time>2013-9-9T12:49:29Z</time></trkpt>
<trkpt lat="46.498292852193117" lon="6.963770650327206"><ele></ele><time>2013-9-9T12:49:32Z</time></trkpt>
<trkpt lat="46.498276004567742" lon="6.963796298950911"><ele></ele><time>2013-9-9T12:49:35Z</time></trkpt>
<trkpt lat="46.498262844979763" lon="6.963821528479457"><ele></ele><time>2013-9-9T12:49:38Z</time></trkpt>
<trkpt lat="46.498249685391784" lon="6.963848099112511"><ele></ele><time>2013-9-9T12:49:41Z</time></trkpt>
<trkpt lat="46.498236944898963" lon="6.963879028335214"><ele></ele><time>2013-9-9T12:49:44Z</time></trkpt>
<trkpt lat="46.498188329860568" lon="6.963959746062756"><ele></ele><time>2013-9-9T12:49:47Z</time></trkpt>
<trkpt lat="46.49806184694171" lon="6.964152781292796"><ele></ele><time>2013-9-9T12:49:50Z</time></trkpt>
<trkpt lat="46.49801155552268" lon="6.964234840124846"><ele></ele><time>2013-9-9T12:49:53Z</time></trkpt>
<trkpt lat="46.4979915227741" lon="6.964256884530187"><ele></ele><time>2013-9-9T12:49:56Z</time></trkpt>
<trkpt lat="46.497969478368759" lon="6.964279096573591"><ele></ele><time>2013-9-9T12:49:59Z</time></trkpt>
<trkpt lat="46.497951205819845" lon="6.964309690520167"><ele></ele><time>2013-9-9T12:50:2Z</time></trkpt>
<trkpt lat="46.497932095080614" lon="6.964332237839699"><ele></ele><time>2013-9-9T12:50:5Z</time></trkpt>
<trkpt lat="46.497914912179112" lon="6.964358389377594"><ele></ele><time>2013-9-9T12:50:8Z</time></trkpt>
<trkpt lat="46.497796894982457" lon="6.964547317475081"><ele></ele><time>2013-9-9T12:50:11Z</time></trkpt>
<trkpt lat="46.497759008780122" lon="6.964606074616313"><ele></ele><time>2013-9-9T12:50:14Z</time></trkpt>
<trkpt lat="46.497743334621191" lon="6.964632561430335"><ele></ele><time>2013-9-9T12:50:17Z</time></trkpt>
<trkpt lat="46.497725732624531" lon="6.964657036587596"><ele></ele><time>2013-9-9T12:50:20Z</time></trkpt>
<trkpt lat="46.497708968818188" lon="6.964690731838346"><ele></ele><time>2013-9-9T12:50:23Z</time></trkpt>
<trkpt lat="46.497690277174115" lon="6.964723337441683"><ele></ele><time>2013-9-9T12:50:26Z</time></trkpt>
<trkpt lat="46.497668819501996" lon="6.964757284149528"><ele></ele><time>2013-9-9T12:50:29Z</time></trkpt>
<trkpt lat="46.497544851154089" lon="6.964952414855361"><ele></ele><time>2013-9-9T12:50:32Z</time></trkpt>
<trkpt lat="46.497442172840238" lon="6.965166907757521"><ele></ele><time>2013-9-9T12:50:35Z</time></trkpt>
<trkpt lat="46.497427839785814" lon="6.965205548331142"><ele></ele><time>2013-9-9T12:50:38Z</time></trkpt>
<trkpt lat="46.497410489246249" lon="6.965240752324462"><ele></ele><time>2013-9-9T12:50:41Z</time></trkpt>
<trkpt lat="46.497391043230891" lon="6.965275118127465"><ele></ele><time>2013-9-9T12:50:44Z</time></trkpt>
<trkpt lat="46.497371178120375" lon="6.965308897197247"><ele></ele><time>2013-9-9T12:50:47Z</time></trkpt>
<trkpt lat="46.497231870889664" lon="6.965566473081708"><ele></ele><time>2013-9-9T12:50:50Z</time></trkpt>
<trkpt lat="46.497213765978813" lon="6.965595223009586"><ele></ele><time>2013-9-9T12:50:53Z</time></trkpt>
<trkpt lat="46.497197169810534" lon="6.965620620176196"><ele></ele><time>2013-9-9T12:50:56Z</time></trkpt>
<trkpt lat="46.497178645804524" lon="6.965650878846645"><ele></ele><time>2013-9-9T12:50:59Z</time></trkpt>
<trkpt lat="46.4971574395895" lon="6.965674934908748"><ele></ele><time>2013-9-9T12:51:2Z</time></trkpt>
<trkpt lat="46.49708166718483" lon="6.965783648192883"><ele></ele><time>2013-9-9T12:51:5Z</time></trkpt>
<trkpt lat="46.497037494555116" lon="6.965831592679024"><ele></ele><time>2013-9-9T12:51:8Z</time></trkpt>
<trkpt lat="46.497016120702028" lon="6.965860007330775"><ele></ele><time>2013-9-9T12:51:11Z</time></trkpt>
<trkpt lat="46.49699667468667" lon="6.96588858962059"><ele></ele><time>2013-9-9T12:51:14Z</time></trkpt>
<trkpt lat="46.496977563947439" lon="6.965925134718418"><ele></ele><time>2013-9-9T12:51:17Z</time></trkpt>
<trkpt lat="46.496960381045938" lon="6.965953381732106"><ele></ele><time>2013-9-9T12:51:20Z</time></trkpt>
<trkpt lat="46.496942946687341" lon="6.965988585725427"><ele></ele><time>2013-9-9T12:51:23Z</time></trkpt>
<trkpt lat="46.496865665540099" lon="6.966115068644285"><ele></ele><time>2013-9-9T12:51:26Z</time></trkpt>
<trkpt lat="46.4968466386199" lon="6.966140549629927"><ele></ele><time>2013-9-9T12:51:29Z</time></trkpt>
<trkpt lat="46.496825935319066" lon="6.96616318076849"><ele></ele><time>2013-9-9T12:51:32Z</time></trkpt>
<trkpt lat="46.49680707603693" lon="6.966185979545116"><ele></ele><time>2013-9-9T12:51:35Z</time></trkpt>
<trkpt lat="46.496784947812557" lon="6.966202491894364"><ele></ele><time>2013-9-9T12:51:38Z</time></trkpt>
<trkpt lat="46.496626865118742" lon="6.966361412778497"><ele></ele><time>2013-9-9T12:51:41Z</time></trkpt>
<trkpt lat="46.496603395789862" lon="6.966379098594189"><ele></ele><time>2013-9-9T12:51:44Z</time></trkpt>
<trkpt lat="46.496577830985188" lon="6.966397203505039"><ele></ele><time>2013-9-9T12:51:47Z</time></trkpt>
<trkpt lat="46.496551260352135" lon="6.966417403891683"><ele></ele><time>2013-9-9T12:51:50Z</time></trkpt>
<trkpt lat="46.496527707204223" lon="6.96643877774477"><ele></ele><time>2013-9-9T12:51:53Z</time></trkpt>
<trkpt lat="46.496369289234281" lon="6.966532152146101"><ele></ele><time>2013-9-9T12:51:56Z</time></trkpt>
<trkpt lat="46.496302653104067" lon="6.96655553765595"><ele></ele><time>2013-9-9T12:51:59Z</time></trkpt>
<trkpt lat="46.496280441060662" lon="6.966559896245599"><ele></ele><time>2013-9-9T12:52:2Z</time></trkpt>
<trkpt lat="46.496256552636623" lon="6.966566434130073"><ele></ele><time>2013-9-9T12:52:5Z</time></trkpt>
<trkpt lat="46.496230904012918" lon="6.966571379452944"><ele></ele><time>2013-9-9T12:52:8Z</time></trkpt>
<trkpt lat="46.496210200712085" lon="6.966575402766466"><ele></ele><time>2013-9-9T12:52:11Z</time></trkpt>
<trkpt lat="46.496170554310083" lon="6.966588143259287"><ele></ele><time>2013-9-9T12:52:14Z</time></trkpt>
<trkpt lat="46.496158316731453" lon="6.966600213199854"><ele></ele><time>2013-9-9T12:52:17Z</time></trkpt>
<trkpt lat="46.496144905686378" lon="6.96661270223558"><ele></ele><time>2013-9-9T12:52:20Z</time></trkpt>
<trkpt lat="46.496125878766179" lon="6.966628292575479"><ele></ele><time>2013-9-9T12:52:23Z</time></trkpt>
<trkpt lat="46.496107522398233" lon="6.966643380001187"><ele></ele><time>2013-9-9T12:52:26Z</time></trkpt>
<trkpt lat="46.496088663116097" lon="6.966653689742088"><ele></ele><time>2013-9-9T12:52:29Z</time></trkpt>
<trkpt lat="46.496039461344481" lon="6.96669870056212"><ele></ele><time>2013-9-9T12:52:32Z</time></trkpt>
<trkpt lat="46.496019177138805" lon="6.966721834614873"><ele></ele><time>2013-9-9T12:52:35Z</time></trkpt>
<trkpt lat="46.496001994237304" lon="6.966745471581817"><ele></ele><time>2013-9-9T12:52:38Z</time></trkpt>
<trkpt lat="46.495981039479375" lon="6.96677103638649"><ele></ele><time>2013-9-9T12:52:41Z</time></trkpt>
<trkpt lat="46.49595782160759" lon="6.966800205409527"><ele></ele><time>2013-9-9T12:52:44Z</time></trkpt>
<trkpt lat="46.495935777202249" lon="6.966828033328056"><ele></ele><time>2013-9-9T12:52:47Z</time></trkpt>
<trkpt lat="46.49579755961895" lon="6.966976393014193"><ele></ele><time>2013-9-9T12:52:50Z</time></trkpt>
<trkpt lat="46.495580216869712" lon="6.967260120436549"><ele></ele><time>2013-9-9T12:52:53Z</time></trkpt>
<trkpt lat="46.495377207174897" lon="6.967572178691626"><ele></ele><time>2013-9-9T12:52:56Z</time></trkpt>
<trkpt lat="46.495162714272738" lon="6.96783721446991"><ele></ele><time>2013-9-9T12:52:59Z</time></trkpt>
<trkpt lat="46.495126420632005" lon="6.967874262481928"><ele></ele><time>2013-9-9T12:53:2Z</time></trkpt>
<trkpt lat="46.495087444782257" lon="6.967915752902627"><ele></ele><time>2013-9-9T12:53:5Z</time></trkpt>
<trkpt lat="46.495054336264729" lon="6.967959506437182"><ele></ele><time>2013-9-9T12:53:8Z</time></trkpt>
<trkpt lat="46.495027178898454" lon="6.968001751229167"><ele></ele><time>2013-9-9T12:53:11Z</time></trkpt>
<trkpt lat="46.495004966855049" lon="6.968039888888598"><ele></ele><time>2013-9-9T12:53:14Z</time></trkpt>
<trkpt lat="46.494982587173581" lon="6.968084648251534"><ele></ele><time>2013-9-9T12:53:17Z</time></trkpt>
<trkpt lat="46.494947634637356" lon="6.968173496425152"><ele></ele><time>2013-9-9T12:53:20Z</time></trkpt>
<trkpt lat="46.494927350431681" lon="6.968218171969056"><ele></ele><time>2013-9-9T12:53:23Z</time></trkpt>
<trkpt lat="46.494905725121498" lon="6.968266116455197"><ele></ele><time>2013-9-9T12:53:26Z</time></trkpt>
<trkpt lat="46.494883177801967" lon="6.968308109790087"><ele></ele><time>2013-9-9T12:53:29Z</time></trkpt>
<trkpt lat="46.494861217215657" lon="6.968348091468215"><ele></ele><time>2013-9-9T12:53:32Z</time></trkpt>
<trkpt lat="46.494716294109821" lon="6.968668028712273"><ele></ele><time>2013-9-9T12:53:35Z</time></trkpt>
<trkpt lat="46.494695087894797" lon="6.968702478334308"><ele></ele><time>2013-9-9T12:53:38Z</time></trkpt>
<trkpt lat="46.494672540575266" lon="6.968743549659848"><ele></ele><time>2013-9-9T12:53:41Z</time></trkpt>
<trkpt lat="46.494540441781282" lon="6.96897623129189"><ele></ele><time>2013-9-9T12:53:44Z</time></trkpt>
<trkpt lat="46.494523761793971" lon="6.96901336312294"><ele></ele><time>2013-9-9T12:53:47Z</time></trkpt>
<trkpt lat="46.494508925825357" lon="6.969045633450151"><ele></ele><time>2013-9-9T12:53:50Z</time></trkpt>
<trkpt lat="46.494494089856744" lon="6.969073126092553"><ele></ele><time>2013-9-9T12:53:53Z</time></trkpt>
<trkpt lat="46.49447875097394" lon="6.969103384763002"><ele></ele><time>2013-9-9T12:53:56Z</time></trkpt>
<trkpt lat="46.49443918839097" lon="6.96917999535799"><ele></ele><time>2013-9-9T12:53:59Z</time></trkpt>
<trkpt lat="46.494338270276785" lon="6.969437822699547"><ele></ele><time>2013-9-9T12:54:2Z</time></trkpt>
<trkpt lat="46.494244895875454" lon="6.969791455194354"><ele></ele><time>2013-9-9T12:54:5Z</time></trkpt>
<trkpt lat="46.494225533679128" lon="6.969865718856454"><ele></ele><time>2013-9-9T12:54:8Z</time></trkpt>
<trkpt lat="46.494205500930548" lon="6.969944760203362"><ele></ele><time>2013-9-9T12:54:11Z</time></trkpt>
<trkpt lat="46.494186976924539" lon="6.970023717731237"><ele></ele><time>2013-9-9T12:54:14Z</time></trkpt>
<trkpt lat="46.49415428750217" lon="6.970083396881819"><ele></ele><time>2013-9-9T12:54:17Z</time></trkpt>
<trkpt lat="46.494123358279467" lon="6.970161767676473"><ele></ele><time>2013-9-9T12:54:20Z</time></trkpt>
<trkpt lat="46.494092680513859" lon="6.970236198976636"><ele></ele><time>2013-9-9T12:54:23Z</time></trkpt>
<trkpt lat="46.494057979434729" lon="6.970309540629387"><ele></ele><time>2013-9-9T12:54:26Z</time></trkpt>
<trkpt lat="46.494017662480474" lon="6.970383301377296"><ele></ele><time>2013-9-9T12:54:29Z</time></trkpt>
<trkpt lat="46.493975501507521" lon="6.97046360000968"><ele></ele><time>2013-9-9T12:54:32Z</time></trkpt>
<trkpt lat="46.493932083249092" lon="6.970539707690477"><ele></ele><time>2013-9-9T12:54:35Z</time></trkpt>
<trkpt lat="46.493890006095171" lon="6.97062092833221"><ele></ele><time>2013-9-9T12:54:38Z</time></trkpt>
<trkpt lat="46.493841893970966" lon="6.970705334097147"><ele></ele><time>2013-9-9T12:54:41Z</time></trkpt>
<trkpt lat="46.493792021647096" lon="6.9707958586514"><ele></ele><time>2013-9-9T12:54:44Z</time></trkpt>
<trkpt lat="46.493744580075145" lon="6.970879258587956"><ele></ele><time>2013-9-9T12:54:47Z</time></trkpt>
<trkpt lat="46.493697473779321" lon="6.970971878618002"><ele></ele><time>2013-9-9T12:54:50Z</time></trkpt>
<trkpt lat="46.493656486272812" lon="6.971072629094124"><ele></ele><time>2013-9-9T12:54:53Z</time></trkpt>
<trkpt lat="46.493614660575986" lon="6.971166422590613"><ele></ele><time>2013-9-9T12:54:56Z</time></trkpt>
<trkpt lat="46.49352690204978" lon="6.971316542476416"><ele></ele><time>2013-9-9T12:54:59Z</time></trkpt>
<trkpt lat="46.493418104946613" lon="6.971428021788597"><ele></ele><time>2013-9-9T12:55:2Z</time></trkpt>
<trkpt lat="46.493206042796373" lon="6.971532125025988"><ele></ele><time>2013-9-9T12:55:5Z</time></trkpt>
<trkpt lat="46.493103951215744" lon="6.971420394256711"><ele></ele><time>2013-9-9T12:55:8Z</time></trkpt>
<trkpt lat="46.493079727515578" lon="6.971360882744193"><ele></ele><time>2013-9-9T12:55:11Z</time></trkpt>
<trkpt lat="46.493070675060153" lon="6.971285780891776"><ele></ele><time>2013-9-9T12:55:14Z</time></trkpt>
<trkpt lat="46.493058186024427" lon="6.971207745373249"><ele></ele><time>2013-9-9T12:55:17Z</time></trkpt>
<trkpt lat="46.493044188246131" lon="6.971124764531851"><ele></ele><time>2013-9-9T12:55:20Z</time></trkpt>
<trkpt lat="46.493028346449137" lon="6.971033653244376"><ele></ele><time>2013-9-9T12:55:23Z</time></trkpt>
<trkpt lat="46.493007726967335" lon="6.970935501158238"><ele></ele><time>2013-9-9T12:55:26Z</time></trkpt>
<trkpt lat="46.492981240153313" lon="6.97083449922502"><ele></ele><time>2013-9-9T12:55:29Z</time></trkpt>
<trkpt lat="46.492952406406403" lon="6.970723941922188"><ele></ele><time>2013-9-9T12:55:32Z</time></trkpt>
<trkpt lat="46.492923572659492" lon="6.970614725723863"><ele></ele><time>2013-9-9T12:55:35Z</time></trkpt>
<trkpt lat="46.492897337302566" lon="6.970502324402332"><ele></ele><time>2013-9-9T12:55:38Z</time></trkpt>
<trkpt lat="46.492875041440129" lon="6.970393694937229"><ele></ele><time>2013-9-9T12:55:41Z</time></trkpt>
<trkpt lat="46.492854505777359" lon="6.970284143462777"><ele></ele><time>2013-9-9T12:55:44Z</time></trkpt>
<trkpt lat="46.492828940972686" lon="6.970178447663784"><ele></ele><time>2013-9-9T12:55:47Z</time></trkpt>
<trkpt lat="46.492793653160334" lon="6.970084737986326"><ele></ele><time>2013-9-9T12:55:50Z</time></trkpt>
<trkpt lat="46.492752665653825" lon="6.969992956146598"><ele></ele><time>2013-9-9T12:55:53Z</time></trkpt>
<trkpt lat="46.492706146091223" lon="6.969901090487838"><ele></ele><time>2013-9-9T12:55:56Z</time></trkpt>
<trkpt lat="46.492663733661175" lon="6.96981031447649"><ele></ele><time>2013-9-9T12:55:59Z</time></trkpt>
<trkpt lat="46.492617717012763" lon="6.969727082177997"><ele></ele><time>2013-9-9T12:56:2Z</time></trkpt>
<trkpt lat="46.4925691857934" lon="6.969645777717233"><ele></ele><time>2013-9-9T12:56:5Z</time></trkpt>
<trkpt lat="46.492514703422785" lon="6.969574866816402"><ele></ele><time>2013-9-9T12:56:8Z</time></trkpt>
<trkpt lat="46.49233072064817" lon="6.969542512670159"><ele></ele><time>2013-9-9T12:56:11Z</time></trkpt>
<trkpt lat="46.492246650159359" lon="6.969719873741269"><ele></ele><time>2013-9-9T12:56:14Z</time></trkpt>
<trkpt lat="46.492213793098927" lon="6.969814421609044"><ele></ele><time>2013-9-9T12:56:17Z</time></trkpt>
<trkpt lat="46.492174565792084" lon="6.969900503754616"><ele></ele><time>2013-9-9T12:56:20Z</time></trkpt>
<trkpt lat="46.49212745949626" lon="6.969954064115882"><ele></ele><time>2013-9-9T12:56:23Z</time></trkpt>
<trkpt lat="46.492083789780736" lon="6.969992453232408"><ele></ele><time>2013-9-9T12:56:26Z</time></trkpt>
<trkpt lat="46.491997959092259" lon="6.970058334991336"><ele></ele><time>2013-9-9T12:56:29Z</time></trkpt>
<trkpt lat="46.491917073726654" lon="6.970088258385658"><ele></ele><time>2013-9-9T12:56:32Z</time></trkpt>
<trkpt lat="46.491879438981414" lon="6.97009420953691"><ele></ele><time>2013-9-9T12:56:35Z</time></trkpt>
<trkpt lat="46.4918421395123" lon="6.970101585611701"><ele></ele><time>2013-9-9T12:56:38Z</time></trkpt>
<trkpt lat="46.491812551394105" lon="6.970097478479147"><ele></ele><time>2013-9-9T12:56:41Z</time></trkpt>
<trkpt lat="46.491750106215477" lon="6.970101250335574"><ele></ele><time>2013-9-9T12:56:44Z</time></trkpt>
<trkpt lat="46.491691768169403" lon="6.970086498185992"><ele></ele><time>2013-9-9T12:56:47Z</time></trkpt>
<trkpt lat="46.491660084575415" lon="6.97007023729384"><ele></ele><time>2013-9-9T12:56:50Z</time></trkpt>
<trkpt lat="46.491650193929672" lon="6.970069985836744"><ele></ele><time>2013-9-9T12:56:53Z</time></trkpt>
<trkpt lat="46.491641392931342" lon="6.970064034685493"><ele></ele><time>2013-9-9T12:56:56Z</time></trkpt>
<trkpt lat="46.491612810641527" lon="6.970056742429733"><ele></ele><time>2013-9-9T12:56:59Z</time></trkpt>
<trkpt lat="46.491588670760393" lon="6.970049617812038"><ele></ele><time>2013-9-9T12:57:2Z</time></trkpt>
<trkpt lat="46.491564279422164" lon="6.970046600326896"><ele></ele><time>2013-9-9T12:57:5Z</time></trkpt>
<trkpt lat="46.491544749587774" lon="6.970048360526562"><ele></ele><time>2013-9-9T12:57:8Z</time></trkpt>
<trkpt lat="46.491525806486607" lon="6.970045678317547"><ele></ele><time>2013-9-9T12:57:11Z</time></trkpt>
<trkpt lat="46.491485824808478" lon="6.970034027472138"><ele></ele><time>2013-9-9T12:57:14Z</time></trkpt>
<trkpt lat="46.491467468440533" lon="6.970029501244426"><ele></ele><time>2013-9-9T12:57:17Z</time></trkpt>
<trkpt lat="46.491443915292621" lon="6.970022208988667"><ele></ele><time>2013-9-9T12:57:20Z</time></trkpt>
<trkpt lat="46.491431510075927" lon="6.969998404383659"><ele></ele><time>2013-9-9T12:57:23Z</time></trkpt>
<trkpt lat="46.491426983848214" lon="6.969978455454111"><ele></ele><time>2013-9-9T12:57:26Z</time></trkpt>
<trkpt lat="46.491421451792121" lon="6.969926906749606"><ele></ele><time>2013-9-9T12:57:29Z</time></trkpt>
<trkpt lat="46.491421032696962" lon="6.969898659735918"><ele></ele><time>2013-9-9T12:57:32Z</time></trkpt>
<trkpt lat="46.491407118737698" lon="6.969817942008376"><ele></ele><time>2013-9-9T12:57:35Z</time></trkpt>
<trkpt lat="46.491395048797131" lon="6.969778714701533"><ele></ele><time>2013-9-9T12:57:38Z</time></trkpt>
<trkpt lat="46.491384571418166" lon="6.969745941460133"><ele></ele><time>2013-9-9T12:57:41Z</time></trkpt>
<trkpt lat="46.491371328011155" lon="6.969709564000368"><ele></ele><time>2013-9-9T12:57:44Z</time></trkpt>
<trkpt lat="46.491350959986448" lon="6.969668660312891"><ele></ele><time>2013-9-9T12:57:47Z</time></trkpt>
<trkpt lat="46.491332519799471" lon="6.969578806310892"><ele></ele><time>2013-9-9T12:57:50Z</time></trkpt>
<trkpt lat="46.491330089047551" lon="6.969545027241111"><ele></ele><time>2013-9-9T12:57:53Z</time></trkpt>
<trkpt lat="46.491355570033193" lon="6.969391135498881"><ele></ele><time>2013-9-9T12:57:56Z</time></trkpt>
<trkpt lat="46.491407118737698" lon="6.969230873510242"><ele></ele><time>2013-9-9T12:57:59Z</time></trkpt>
<trkpt lat="46.491495547816157" lon="6.969013446941972"><ele></ele><time>2013-9-9T12:58:2Z</time></trkpt>
<trkpt lat="46.491612726822495" lon="6.968774646520615"><ele></ele><time>2013-9-9T12:58:5Z</time></trkpt>
<trkpt lat="46.491653798148036" lon="6.968614049255848"><ele></ele><time>2013-9-9T12:58:8Z</time></trkpt>
<trkpt lat="46.491628652438521" lon="6.968587059527636"><ele></ele><time>2013-9-9T12:58:11Z</time></trkpt>
<trkpt lat="46.491601075977087" lon="6.968573899939656"><ele></ele><time>2013-9-9T12:58:14Z</time></trkpt>
<trkpt lat="46.491576265543699" lon="6.968600219115615"><ele></ele><time>2013-9-9T12:58:17Z</time></trkpt>
<trkpt lat="46.491560004651546" lon="6.968636009842157"><ele></ele><time>2013-9-9T12:58:20Z</time></trkpt>
<trkpt lat="46.491537122055888" lon="6.968656629323959"><ele></ele><time>2013-9-9T12:58:23Z</time></trkpt>
<trkpt lat="46.491490434855223" lon="6.968714045360684"><ele></ele><time>2013-9-9T12:58:26Z</time></trkpt>
<trkpt lat="46.491479873657227" lon="6.968725109472871"><ele></ele><time>2013-9-9T12:58:29Z</time></trkpt>
<trkpt lat="46.491463864222169" lon="6.968745561316609"><ele></ele><time>2013-9-9T12:58:32Z</time></trkpt>
<trkpt lat="46.491447938606143" lon="6.968767689540982"><ele></ele><time>2013-9-9T12:58:35Z</time></trkpt>
<trkpt lat="46.491437880322337" lon="6.968780513852835"><ele></ele><time>2013-9-9T12:58:38Z</time></trkpt>
<trkpt lat="46.491395970806479" lon="6.968842288479209"><ele></ele><time>2013-9-9T12:58:41Z</time></trkpt>
<trkpt lat="46.491336459293962" lon="6.968954689800739"><ele></ele><time>2013-9-9T12:58:44Z</time></trkpt>
<trkpt lat="46.491321204230189" lon="6.968980506062508"><ele></ele><time>2013-9-9T12:58:47Z</time></trkpt>
<trkpt lat="46.491311145946383" lon="6.968997437506914"><ele></ele><time>2013-9-9T12:58:50Z</time></trkpt>
<trkpt lat="46.491300836205482" lon="6.969020906835794"><ele></ele><time>2013-9-9T12:58:53Z</time></trkpt>
<trkpt lat="46.491291783750057" lon="6.969044459983707"><ele></ele><time>2013-9-9T12:58:56Z</time></trkpt>
<trkpt lat="46.491256579756737" lon="6.969110174104571"><ele></ele><time>2013-9-9T12:58:59Z</time></trkpt>
<trkpt lat="46.491226488724351" lon="6.96918535977602"><ele></ele><time>2013-9-9T12:59:2Z</time></trkpt>
<trkpt lat="46.491212071850896" lon="6.969199609011412"><ele></ele><time>2013-9-9T12:59:5Z</time></trkpt>
<trkpt lat="46.491201259195805" lon="6.969224838539958"><ele></ele><time>2013-9-9T12:59:8Z</time></trkpt>
<trkpt lat="46.491182819008827" lon="6.969261048361659"><ele></ele><time>2013-9-9T12:59:11Z</time></trkpt>
<trkpt lat="46.491174269467592" lon="6.969285774976015"><ele></ele><time>2013-9-9T12:59:14Z</time></trkpt>
<trkpt lat="46.491141244769096" lon="6.969352578744292"><ele></ele><time>2013-9-9T12:59:17Z</time></trkpt>
<trkpt lat="46.491115177050233" lon="6.969394152984023"><ele></ele><time>2013-9-9T12:59:20Z</time></trkpt>
<trkpt lat="46.491109728813171" lon="6.969416700303555"><ele></ele><time>2013-9-9T12:59:23Z</time></trkpt>
<trkpt lat="46.491097155958414" lon="6.969445366412401"><ele></ele><time>2013-9-9T12:59:26Z</time></trkpt>
<trkpt lat="46.491089109331369" lon="6.969470176845789"><ele></ele><time>2013-9-9T12:59:29Z</time></trkpt>
<trkpt lat="46.491078464314342" lon="6.969496244564652"><ele></ele><time>2013-9-9T12:59:32Z</time></trkpt>
<trkpt lat="46.491066562011838" lon="6.969520384445787"><ele></ele><time>2013-9-9T12:59:35Z</time></trkpt>
<trkpt lat="46.491009397432208" lon="6.969664636999369"><ele></ele><time>2013-9-9T12:59:38Z</time></trkpt>
<trkpt lat="46.491000344976783" lon="6.969685424119234"><ele></ele><time>2013-9-9T12:59:41Z</time></trkpt>
<trkpt lat="46.490993052721024" lon="6.96970378048718"><ele></ele><time>2013-9-9T12:59:44Z</time></trkpt>
<trkpt lat="46.490984838455915" lon="6.969725908711553"><ele></ele><time>2013-9-9T12:59:47Z</time></trkpt>
<trkpt lat="46.490974193438888" lon="6.969753736630082"><ele></ele><time>2013-9-9T12:59:50Z</time></trkpt>
<trkpt lat="46.490970170125365" lon="6.969780055806041"><ele></ele><time>2013-9-9T12:59:53Z</time></trkpt>
<trkpt lat="46.490939492359757" lon="6.969842752441764"><ele></ele><time>2013-9-9T12:59:56Z</time></trkpt>
<trkpt lat="46.490931445732713" lon="6.969860857352614"><ele></ele><time>2013-9-9T12:59:59Z</time></trkpt>
<trkpt lat="46.490919124335051" lon="6.969903269782662"><ele></ele><time>2013-9-9T13:0:2Z</time></trkpt>
<trkpt lat="46.490911161527038" lon="6.969918105751276"><ele></ele><time>2013-9-9T13:0:5Z</time></trkpt>
<trkpt lat="46.490912083536386" lon="6.969929421320558"><ele></ele><time>2013-9-9T13:0:8Z</time></trkpt>
<trkpt lat="46.490907641127706" lon="6.96994417347014"><ele></ele><time>2013-9-9T13:0:11Z</time></trkpt>
<trkpt lat="46.490907808765769" lon="6.969956578686833"><ele></ele><time>2013-9-9T13:0:14Z</time></trkpt>
<trkpt lat="46.490881238132715" lon="6.970022628083825"><ele></ele><time>2013-9-9T13:0:17Z</time></trkpt>
<trkpt lat="46.490847459062934" lon="6.97008490562439"><ele></ele><time>2013-9-9T13:0:20Z</time></trkpt>
<trkpt lat="46.490835305303335" lon="6.970107117667794"><ele></ele><time>2013-9-9T13:0:23Z</time></trkpt>
<trkpt lat="46.490825163200498" lon="6.970131089910865"><ele></ele><time>2013-9-9T13:0:26Z</time></trkpt>
<trkpt lat="46.490815356373787" lon="6.970156067982316"><ele></ele><time>2013-9-9T13:0:29Z</time></trkpt>
<trkpt lat="46.490807225927711" lon="6.970177190378308"><ele></ele><time>2013-9-9T13:0:32Z</time></trkpt>
<trkpt lat="46.490800436586142" lon="6.970193199813366"><ele></ele><time>2013-9-9T13:0:35Z</time></trkpt>
<trkpt lat="46.490781828761101" lon="6.970323286950588"><ele></ele><time>2013-9-9T13:0:38Z</time></trkpt>
<trkpt lat="46.490783421322703" lon="6.970405681058765"><ele></ele><time>2013-9-9T13:0:41Z</time></trkpt>
<trkpt lat="46.490788115188479" lon="6.970436107367277"><ele></ele><time>2013-9-9T13:0:44Z</time></trkpt>
<trkpt lat="46.49078861810267" lon="6.97046116925776"><ele></ele><time>2013-9-9T13:0:47Z</time></trkpt>
<trkpt lat="46.490786606445909" lon="6.970492601394653"><ele></ele><time>2013-9-9T13:0:50Z</time></trkpt>
<trkpt lat="46.490790545940399" lon="6.970520596951246"><ele></ele><time>2013-9-9T13:0:53Z</time></trkpt>
<trkpt lat="46.490807309746742" lon="6.970661832019687"><ele></ele><time>2013-9-9T13:0:56Z</time></trkpt>
<trkpt lat="46.490807477384806" lon="6.970710195600987"><ele></ele><time>2013-9-9T13:0:59Z</time></trkpt>
<trkpt lat="46.490805298089981" lon="6.970737604424357"><ele></ele><time>2013-9-9T13:1:2Z</time></trkpt>
<trkpt lat="46.490807980298996" lon="6.970760235562921"><ele></ele><time>2013-9-9T13:1:5Z</time></trkpt>
<trkpt lat="46.490809740498662" lon="6.97078169323504"><ele></ele><time>2013-9-9T13:1:8Z</time></trkpt>
<trkpt lat="46.490805801004171" lon="6.970800468698144"><ele></ele><time>2013-9-9T13:1:11Z</time></trkpt>
<trkpt lat="46.49079984985292" lon="6.970828967168927"><ele></ele><time>2013-9-9T13:1:14Z</time></trkpt>
<trkpt lat="46.490813847631216" lon="6.970928711816669"><ele></ele><time>2013-9-9T13:1:17Z</time></trkpt>
<trkpt lat="46.49082918651402" lon="6.970999874174595"><ele></ele><time>2013-9-9T13:1:20Z</time></trkpt>
<trkpt lat="46.490829354152083" lon="6.971021834760904"><ele></ele><time>2013-9-9T13:1:23Z</time></trkpt>
<trkpt lat="46.490824827924371" lon="6.971042873337865"><ele></ele><time>2013-9-9T13:1:26Z</time></trkpt>
<trkpt lat="46.490818625316024" lon="6.971064498648047"><ele></ele><time>2013-9-9T13:1:29Z</time></trkpt>
<trkpt lat="46.490817870944738" lon="6.971088638529182"><ele></ele><time>2013-9-9T13:1:32Z</time></trkpt>
<trkpt lat="46.490815607830882" lon="6.971148820593953"><ele></ele><time>2013-9-9T13:1:35Z</time></trkpt>
<trkpt lat="46.490799095481634" lon="6.971190478652716"><ele></ele><time>2013-9-9T13:1:38Z</time></trkpt>
<trkpt lat="46.490776212885976" lon="6.971210930496454"><ele></ele><time>2013-9-9T13:1:41Z</time></trkpt>
<trkpt lat="46.490768082439899" lon="6.97121512144804"><ele></ele><time>2013-9-9T13:1:44Z</time></trkpt>
<trkpt lat="46.490734722465277" lon="6.971270609647036"><ele></ele><time>2013-9-9T13:1:47Z</time></trkpt>
<trkpt lat="46.490713683888316" lon="6.971281422302127"><ele></ele><time>2013-9-9T13:1:50Z</time></trkpt>
<trkpt lat="46.490603378042579" lon="6.971298605203629"><ele></ele><time>2013-9-9T13:1:53Z</time></trkpt>
<trkpt lat="46.490513943135738" lon="6.971334312111139"><ele></ele><time>2013-9-9T13:1:56Z</time></trkpt>
<trkpt lat="46.49045736528933" lon="6.971346214413643"><ele></ele><time>2013-9-9T13:1:59Z</time></trkpt>
<trkpt lat="46.490440769121051" lon="6.971355769783258"><ele></ele><time>2013-9-9T13:2:2Z</time></trkpt>
<trkpt lat="46.490425011143088" lon="6.971366414800286"><ele></ele><time>2013-9-9T13:2:5Z</time></trkpt>
<trkpt lat="46.490407828241587" lon="6.97137488052249"><ele></ele><time>2013-9-9T13:2:8Z</time></trkpt>
<trkpt lat="46.490386789664626" lon="6.971377646550536"><ele></ele><time>2013-9-9T13:2:11Z</time></trkpt>
<trkpt lat="46.490333313122392" lon="6.971402373164892"><ele></ele><time>2013-9-9T13:2:14Z</time></trkpt>
<trkpt lat="46.490259803831577" lon="6.97145501151681"><ele></ele><time>2013-9-9T13:2:17Z</time></trkpt>
<trkpt lat="46.49024186655879" lon="6.971471020951867"><ele></ele><time>2013-9-9T13:2:20Z</time></trkpt>
<trkpt lat="46.490223007276654" lon="6.971487198024988"><ele></ele><time>2013-9-9T13:2:23Z</time></trkpt>
<trkpt lat="46.490204818546772" lon="6.971500189974904"><ele></ele><time>2013-9-9T13:2:26Z</time></trkpt>
<trkpt lat="46.490152766928077" lon="6.971547715365887"><ele></ele><time>2013-9-9T13:2:29Z</time></trkpt>
<trkpt lat="46.490089064463973" lon="6.971623403951526"><ele></ele><time>2013-9-9T13:2:32Z</time></trkpt>
<trkpt lat="46.490076323971152" lon="6.971646789461374"><ele></ele><time>2013-9-9T13:2:35Z</time></trkpt>
<trkpt lat="46.490064170211554" lon="6.971672270447016"><ele></ele><time>2013-9-9T13:2:38Z</time></trkpt>
<trkpt lat="46.490054195746779" lon="6.971697248518467"><ele></ele><time>2013-9-9T13:2:41Z</time></trkpt>
<trkpt lat="46.49004346691072" lon="6.971719292923808"><ele></ele><time>2013-9-9T13:2:44Z</time></trkpt>
<trkpt lat="46.489971550181508" lon="6.971838064491749"><ele></ele><time>2013-9-9T13:2:47Z</time></trkpt>
<trkpt lat="46.489925952628255" lon="6.971935546025634"><ele></ele><time>2013-9-9T13:2:50Z</time></trkpt>
<trkpt lat="46.489922516047955" lon="6.971962284296751"><ele></ele><time>2013-9-9T13:2:53Z</time></trkpt>
<trkpt lat="46.48991740308702" lon="6.971989776939154"><ele></ele><time>2013-9-9T13:2:56Z</time></trkpt>
<trkpt lat="46.489909021183848" lon="6.972013497725129"><ele></ele><time>2013-9-9T13:2:59Z</time></trkpt>
<trkpt lat="46.48989737033844" lon="6.972033698111773"><ele></ele><time>2013-9-9T13:3:2Z</time></trkpt>
<trkpt lat="46.489822268486023" lon="6.972126821056008"><ele></ele><time>2013-9-9T13:3:5Z</time></trkpt>
<trkpt lat="46.489727469161153" lon="6.972183398902416"><ele></ele><time>2013-9-9T13:3:8Z</time></trkpt>
<trkpt lat="46.489707520231605" lon="6.972188930958509"><ele></ele><time>2013-9-9T13:3:11Z</time></trkpt>
<trkpt lat="46.489688660949469" lon="6.972192032262683"><ele></ele><time>2013-9-9T13:3:14Z</time></trkpt>
<trkpt lat="46.489673992618918" lon="6.972197564318776"><ele></ele><time>2013-9-9T13:3:17Z</time></trkpt>
<trkpt lat="46.489657983183861" lon="6.972204186022282"><ele></ele><time>2013-9-9T13:3:20Z</time></trkpt>
<trkpt lat="46.489645494148135" lon="6.9722118973732"><ele></ele><time>2013-9-9T13:3:23Z</time></trkpt>
<trkpt lat="46.489540552720428" lon="6.972266966477037"><ele></ele><time>2013-9-9T13:3:26Z</time></trkpt>
<trkpt lat="46.489521944895387" lon="6.972279287874699"><ele></ele><time>2013-9-9T13:3:29Z</time></trkpt>
<trkpt lat="46.48950258269906" lon="6.972295297309756"><ele></ele><time>2013-9-9T13:3:32Z</time></trkpt>
<trkpt lat="46.489483555778861" lon="6.972309798002243"><ele></ele><time>2013-9-9T13:3:35Z</time></trkpt>
<trkpt lat="46.489449357613921" lon="6.972334608435631"><ele></ele><time>2013-9-9T13:3:38Z</time></trkpt>
<trkpt lat="46.489302171394229" lon="6.972398310899735"><ele></ele><time>2013-9-9T13:3:41Z</time></trkpt>
<trkpt lat="46.489285407587886" lon="6.972404262050986"><ele></ele><time>2013-9-9T13:3:44Z</time></trkpt>
<trkpt lat="46.489267973229289" lon="6.972408033907414"><ele></ele><time>2013-9-9T13:3:47Z</time></trkpt>
<trkpt lat="46.489252969622612" lon="6.972412811592221"><ele></ele><time>2013-9-9T13:3:50Z</time></trkpt>
<trkpt lat="46.489235870540142" lon="6.972416248172522"><ele></ele><time>2013-9-9T13:3:53Z</time></trkpt>
<trkpt lat="46.48921717889607" lon="6.972416751086712"><ele></ele><time>2013-9-9T13:3:56Z</time></trkpt>
<trkpt lat="46.489156996831298" lon="6.972411638125777"><ele></ele><time>2013-9-9T13:3:59Z</time></trkpt>
<trkpt lat="46.489144088700414" lon="6.972396047785878"><ele></ele><time>2013-9-9T13:4:2Z</time></trkpt>
<trkpt lat="46.489066053181887" lon="6.972337458282709"><ele></ele><time>2013-9-9T13:4:5Z</time></trkpt>
<trkpt lat="46.489026239141822" lon="6.972285071387887"><ele></ele><time>2013-9-9T13:4:8Z</time></trkpt>
<trkpt lat="46.488977875560522" lon="6.972231091931462"><ele></ele><time>2013-9-9T13:4:11Z</time></trkpt>
<trkpt lat="46.488962285220623" lon="6.972215920686722"><ele></ele><time>2013-9-9T13:4:14Z</time></trkpt>
<trkpt lat="46.48894602432847" lon="6.972202761098743"><ele></ele><time>2013-9-9T13:4:17Z</time></trkpt>
<trkpt lat="46.488926913589239" lon="6.972192535176873"><ele></ele><time>2013-9-9T13:4:20Z</time></trkpt>
<trkpt lat="46.488904701545835" lon="6.972184320911765"><ele></ele><time>2013-9-9T13:4:23Z</time></trkpt>
<trkpt lat="46.488863881677389" lon="6.972175184637308"><ele></ele><time>2013-9-9T13:4:26Z</time></trkpt>
<trkpt lat="46.48876229301095" lon="6.972131012007594"><ele></ele><time>2013-9-9T13:4:29Z</time></trkpt>
<trkpt lat="46.488740835338831" lon="6.972123887389898"><ele></ele><time>2013-9-9T13:4:32Z</time></trkpt>
<trkpt lat="46.488720551133156" lon="6.972110476344824"><ele></ele><time>2013-9-9T13:4:35Z</time></trkpt>
<trkpt lat="46.488701021298766" lon="6.972097316756845"><ele></ele><time>2013-9-9T13:4:38Z</time></trkpt>
<trkpt lat="46.488684425130486" lon="6.972089521586895"><ele></ele><time>2013-9-9T13:4:41Z</time></trkpt>
<trkpt lat="46.488627009093761" lon="6.972034033387899"><ele></ele><time>2013-9-9T13:4:44Z</time></trkpt>
<trkpt lat="46.488612424582243" lon="6.972016850486398"><ele></ele><time>2013-9-9T13:4:47Z</time></trkpt>
<trkpt lat="46.4885990973562" lon="6.971999667584896"><ele></ele><time>2013-9-9T13:4:50Z</time></trkpt>
<trkpt lat="46.48858685977757" lon="6.971981897950172"><ele></ele><time>2013-9-9T13:4:53Z</time></trkpt>
<trkpt lat="46.488574873656034" lon="6.97196270339191"><ele></ele><time>2013-9-9T13:4:56Z</time></trkpt>
<trkpt lat="46.488565150648355" lon="6.971938647329807"><ele></ele><time>2013-9-9T13:4:59Z</time></trkpt>
<trkpt lat="46.488539502024651" lon="6.971862958744168"><ele></ele><time>2013-9-9T13:5:2Z</time></trkpt>
<trkpt lat="46.48856146261096" lon="6.971720969304442"><ele></ele><time>2013-9-9T13:5:5Z</time></trkpt>
<trkpt lat="46.488588703796268" lon="6.971652656793594"><ele></ele><time>2013-9-9T13:5:8Z</time></trkpt>
<trkpt lat="46.488595912232995" lon="6.971634970977902"><ele></ele><time>2013-9-9T13:5:11Z</time></trkpt>
<trkpt lat="46.488602450117469" lon="6.971615944057703"><ele></ele><time>2013-9-9T13:5:14Z</time></trkpt>
<trkpt lat="46.488608904182911" lon="6.971595659852028"><ele></ele><time>2013-9-9T13:5:17Z</time></trkpt>
<trkpt lat="46.488616112619638" lon="6.971576632931829"><ele></ele><time>2013-9-9T13:5:20Z</time></trkpt>
<trkpt lat="46.48863522335887" lon="6.971482587978244"><ele></ele><time>2013-9-9T13:5:23Z</time></trkpt>
<trkpt lat="46.488639498129487" lon="6.971456855535507"><ele></ele><time>2013-9-9T13:5:26Z</time></trkpt>
<trkpt lat="46.488643689081073" lon="6.971432715654373"><ele></ele><time>2013-9-9T13:5:29Z</time></trkpt>
<trkpt lat="46.488646706566215" lon="6.971406731754541"><ele></ele><time>2013-9-9T13:5:32Z</time></trkpt>
<trkpt lat="46.488650143146515" lon="6.971384854987264"><ele></ele><time>2013-9-9T13:5:35Z</time></trkpt>
<trkpt lat="46.488644862547517" lon="6.971293995156884"><ele></ele><time>2013-9-9T13:5:38Z</time></trkpt>
<trkpt lat="46.488642683252692" lon="6.971273710951209"><ele></ele><time>2013-9-9T13:5:41Z</time></trkpt>
<trkpt lat="46.488639498129487" lon="6.971250995993614"><ele></ele><time>2013-9-9T13:5:44Z</time></trkpt>
<trkpt lat="46.488633546978235" lon="6.971230376511812"><ele></ele><time>2013-9-9T13:5:47Z</time></trkpt>
<trkpt lat="46.488629439845681" lon="6.971212355419993"><ele></ele><time>2013-9-9T13:5:50Z</time></trkpt>
<trkpt lat="46.488600773736835" lon="6.971116717904806"><ele></ele><time>2013-9-9T13:5:53Z</time></trkpt>
<trkpt lat="46.488592391833663" lon="6.971097942441702"><ele></ele><time>2013-9-9T13:5:56Z</time></trkpt>
<trkpt lat="46.488583339378238" lon="6.971081010997295"><ele></ele><time>2013-9-9T13:5:59Z</time></trkpt>
<trkpt lat="46.488574706017971" lon="6.971063492819667"><ele></ele><time>2013-9-9T13:6:2Z</time></trkpt>
<trkpt lat="46.488565066829324" lon="6.971043962985277"><ele></ele><time>2013-9-9T13:6:5Z</time></trkpt>
<trkpt lat="46.488510081544518" lon="6.970942374318838"><ele></ele><time>2013-9-9T13:6:8Z</time></trkpt>
<trkpt lat="46.4884989336133" lon="6.970929298549891"><ele></ele><time>2013-9-9T13:6:11Z</time></trkpt>
<trkpt lat="46.488487953320146" lon="6.970913875848055"><ele></ele><time>2013-9-9T13:6:14Z</time></trkpt>
<trkpt lat="46.488476637750864" lon="6.970903230831027"><ele></ele><time>2013-9-9T13:6:17Z</time></trkpt>
<trkpt lat="46.488467082381248" lon="6.970892334356904"><ele></ele><time>2013-9-9T13:6:20Z</time></trkpt>
<trkpt lat="46.488454844802618" lon="6.970885712653399"><ele></ele><time>2013-9-9T13:6:23Z</time></trkpt>
<trkpt lat="46.488432716578245" lon="6.97086475789547"><ele></ele><time>2013-9-9T13:6:26Z</time></trkpt>
<trkpt lat="46.488417629152536" lon="6.970810443162918"><ele></ele><time>2013-9-9T13:6:29Z</time></trkpt>
<trkpt lat="46.488413522019982" lon="6.970786470919848"><ele></ele><time>2013-9-9T13:6:32Z</time></trkpt>
<trkpt lat="46.488409833982587" lon="6.970766773447394"><ele></ele><time>2013-9-9T13:6:35Z</time></trkpt>
<trkpt lat="46.488407151773572" lon="6.970744645223022"><ele></ele><time>2013-9-9T13:6:38Z</time></trkpt>
<trkpt lat="46.488408744335175" lon="6.970726372674108"><ele></ele><time>2013-9-9T13:6:41Z</time></trkpt>
<trkpt lat="46.488441517576575" lon="6.970689911395311"><ele></ele><time>2013-9-9T13:6:44Z</time></trkpt>
<trkpt lat="46.488459538668394" lon="6.970686390995979"><ele></ele><time>2013-9-9T13:6:47Z</time></trkpt>
<trkpt lat="46.48849499411881" lon="6.970666022971273"><ele></ele><time>2013-9-9T13:6:50Z</time></trkpt>
<trkpt lat="46.488505220040679" lon="6.97065026499331"><ele></ele><time>2013-9-9T13:6:53Z</time></trkpt>
<trkpt lat="46.488512679934502" lon="6.970635009929538"><ele></ele><time>2013-9-9T13:6:56Z</time></trkpt>
<trkpt lat="46.488518714904785" lon="6.970620676875114"><ele></ele><time>2013-9-9T13:6:59Z</time></trkpt>
<trkpt lat="46.488526174798608" lon="6.970606260001659"><ele></ele><time>2013-9-9T13:7:2Z</time></trkpt>
<trkpt lat="46.488592391833663" lon="6.97055596858263"><ele></ele><time>2013-9-9T13:7:5Z</time></trkpt>
<trkpt lat="46.488601109012961" lon="6.970545658841729"><ele></ele><time>2013-9-9T13:7:8Z</time></trkpt>
<trkpt lat="46.488609490916133" lon="6.970533169806004"><ele></ele><time>2013-9-9T13:7:11Z</time></trkpt>
<trkpt lat="46.488617034628987" lon="6.970519088208675"><ele></ele><time>2013-9-9T13:7:14Z</time></trkpt>
<trkpt lat="46.488622231408954" lon="6.97050659917295"><ele></ele><time>2013-9-9T13:7:17Z</time></trkpt>
<trkpt lat="46.48862742818892" lon="6.970494026318193"><ele></ele><time>2013-9-9T13:7:20Z</time></trkpt>
<trkpt lat="46.488657770678401" lon="6.970460331067443"><ele></ele><time>2013-9-9T13:7:23Z</time></trkpt>
<trkpt lat="46.48867973126471" lon="6.970447758212686"><ele></ele><time>2013-9-9T13:7:26Z</time></trkpt>
<trkpt lat="46.488692220300436" lon="6.970441723242402"><ele></ele><time>2013-9-9T13:7:29Z</time></trkpt>
<trkpt lat="46.488704960793257" lon="6.97043476626277"><ele></ele><time>2013-9-9T13:7:32Z</time></trkpt>
<trkpt lat="46.488717868924141" lon="6.970424624159932"><ele></ele><time>2013-9-9T13:7:35Z</time></trkpt>
<trkpt lat="46.488736309111118" lon="6.970394952222705"><ele></ele><time>2013-9-9T13:7:38Z</time></trkpt>
<trkpt lat="46.488762125372887" lon="6.970357233658433"><ele></ele><time>2013-9-9T13:7:41Z</time></trkpt>
<trkpt lat="46.488775117322803" lon="6.97034927085042"><ele></ele><time>2013-9-9T13:7:44Z</time></trkpt>
<trkpt lat="46.488788276910782" lon="6.970345331355929"><ele></ele><time>2013-9-9T13:7:47Z</time></trkpt>
<trkpt lat="46.48879992775619" lon="6.970342397689819"><ele></ele><time>2013-9-9T13:7:50Z</time></trkpt>
<trkpt lat="46.488812081515789" lon="6.970338458195329"><ele></ele><time>2013-9-9T13:7:53Z</time></trkpt>
<trkpt lat="46.488825241103768" lon="6.970332004129887"><ele></ele><time>2013-9-9T13:7:56Z</time></trkpt>
<trkpt lat="46.488862792029977" lon="6.9702881667763"><ele></ele><time>2013-9-9T13:7:59Z</time></trkpt>
<trkpt lat="46.488886177539825" lon="6.970252627506852"><ele></ele><time>2013-9-9T13:8:2Z</time></trkpt>
<trkpt lat="46.488896571099758" lon="6.970244999974966"><ele></ele><time>2013-9-9T13:8:5Z</time></trkpt>
<trkpt lat="46.488908221945167" lon="6.970243407413364"><ele></ele><time>2013-9-9T13:8:8Z</time></trkpt>
<trkpt lat="46.488920794799924" lon="6.970239803195"><ele></ele><time>2013-9-9T13:8:11Z</time></trkpt>
<trkpt lat="46.488934205844998" lon="6.970236534252763"><ele></ele><time>2013-9-9T13:8:14Z</time></trkpt>
<trkpt lat="46.489008804783225" lon="6.970206024125218"><ele></ele><time>2013-9-9T13:8:17Z</time></trkpt>
<trkpt lat="46.489021461457014" lon="6.970202503725886"><ele></ele><time>2013-9-9T13:8:20Z</time></trkpt>
<trkpt lat="46.489034872502089" lon="6.970197893679142"><ele></ele><time>2013-9-9T13:8:23Z</time></trkpt>
<trkpt lat="46.48904912173748" lon="6.970193954184651"><ele></ele><time>2013-9-9T13:8:26Z</time></trkpt>
<trkpt lat="46.489061526954174" lon="6.970187081024051"><ele></ele><time>2013-9-9T13:8:29Z</time></trkpt>
<trkpt lat="46.489084577187896" lon="6.970170987769961"><ele></ele><time>2013-9-9T13:8:32Z</time></trkpt>
<trkpt lat="46.489120703190565" lon="6.970160761848092"><ele></ele><time>2013-9-9T13:8:35Z</time></trkpt>
<trkpt lat="46.489143250510097" lon="6.970148356631398"><ele></ele><time>2013-9-9T13:8:38Z</time></trkpt>
<trkpt lat="46.489154314622283" lon="6.970141986384988"><ele></ele><time>2013-9-9T13:8:41Z</time></trkpt>
<trkpt lat="46.489166552200913" lon="6.97013670578599"><ele></ele><time>2013-9-9T13:8:44Z</time></trkpt>
<trkpt lat="46.489179292693734" lon="6.97013083845377"><ele></ele><time>2013-9-9T13:8:47Z</time></trkpt>
<trkpt lat="46.489190943539143" lon="6.970126731321216"><ele></ele><time>2013-9-9T13:8:50Z</time></trkpt>
<trkpt lat="46.489203264936805" lon="6.97011960670352"><ele></ele><time>2013-9-9T13:8:53Z</time></trkpt>
<trkpt lat="46.489215083420277" lon="6.970112565904856"><ele></ele><time>2013-9-9T13:8:56Z</time></trkpt>
<trkpt lat="46.489297980442643" lon="6.9700619392097"><ele></ele><time>2013-9-9T13:8:59Z</time></trkpt>
<trkpt lat="46.489308541640639" lon="6.970049701631069"><ele></ele><time>2013-9-9T13:9:2Z</time></trkpt>
<trkpt lat="46.489319438114762" lon="6.970039643347263"><ele></ele><time>2013-9-9T13:9:5Z</time></trkpt>
<trkpt lat="46.489332430064678" lon="6.970032937824726"><ele></ele><time>2013-9-9T13:9:8Z</time></trkpt>
<trkpt lat="46.489346260204911" lon="6.970032015815377"><ele></ele><time>2013-9-9T13:9:11Z</time></trkpt>
<trkpt lat="46.48936771787703" lon="6.970033440738916"><ele></ele><time>2013-9-9T13:9:14Z</time></trkpt>
<trkpt lat="46.489451536908746" lon="6.969976527616382"><ele></ele><time>2013-9-9T13:9:17Z</time></trkpt>
<trkpt lat="46.489464696496725" lon="6.969963954761624"><ele></ele><time>2013-9-9T13:9:20Z</time></trkpt>
<trkpt lat="46.48947861045599" lon="6.969951801002026"><ele></ele><time>2013-9-9T13:9:23Z</time></trkpt>
<trkpt lat="46.489490596577525" lon="6.969940904527903"><ele></ele><time>2013-9-9T13:9:26Z</time></trkpt>
<trkpt lat="46.489500906318426" lon="6.969933276996017"><ele></ele><time>2013-9-9T13:9:29Z</time></trkpt>
<trkpt lat="46.489549856632948" lon="6.969898492097855"><ele></ele><time>2013-9-9T13:9:32Z</time></trkpt>
<trkpt lat="46.489581707865" lon="6.969871167093515"><ele></ele><time>2013-9-9T13:9:35Z</time></trkpt>
<trkpt lat="46.489604003727436" lon="6.969822635874152"><ele></ele><time>2013-9-9T13:9:38Z</time></trkpt>
<trkpt lat="46.489608865231276" lon="6.969805033877492"><ele></ele><time>2013-9-9T13:9:41Z</time></trkpt>
<trkpt lat="46.48961054161191" lon="6.969785587862134"><ele></ele><time>2013-9-9T13:9:44Z</time></trkpt>
<trkpt lat="46.489606266841292" lon="6.969768404960632"><ele></ele><time>2013-9-9T13:9:47Z</time></trkpt>
<trkpt lat="46.489600064232945" lon="6.969749545678496"><ele></ele><time>2013-9-9T13:9:50Z</time></trkpt>
<trkpt lat="46.489590257406235" lon="6.969735631719232"><ele></ele><time>2013-9-9T13:9:53Z</time></trkpt>
<trkpt lat="46.489564944058657" lon="6.969688609242439"><ele></ele><time>2013-9-9T13:9:56Z</time></trkpt>
<trkpt lat="46.489562010392547" lon="6.969673270359635"><ele></ele><time>2013-9-9T13:9:59Z</time></trkpt>
<trkpt lat="46.489561842754483" lon="6.969656925648451"><ele></ele><time>2013-9-9T13:10:2Z</time></trkpt>
<trkpt lat="46.489560753107071" lon="6.969641670584679"><ele></ele><time>2013-9-9T13:10:5Z</time></trkpt>
<trkpt lat="46.489563183858991" lon="6.969624990597367"><ele></ele><time>2013-9-9T13:10:8Z</time></trkpt>
<trkpt lat="46.489569554105401" lon="6.969554834067822"><ele></ele><time>2013-9-9T13:10:11Z</time></trkpt>
<trkpt lat="46.489554466679692" lon="6.969505129382014"><ele></ele><time>2013-9-9T13:10:14Z</time></trkpt>
<trkpt lat="46.489550024271011" lon="6.969499262049794"><ele></ele><time>2013-9-9T13:10:17Z</time></trkpt>
<trkpt lat="46.489546084776521" lon="6.969497418031097"><ele></ele><time>2013-9-9T13:10:20Z</time></trkpt>
<trkpt lat="46.48954164236784" lon="6.969492891803384"><ele></ele><time>2013-9-9T13:10:23Z</time></trkpt>
<trkpt lat="46.489521358162165" lon="6.969497334212065"><ele></ele><time>2013-9-9T13:10:26Z</time></trkpt>
<trkpt lat="46.489473665133119" lon="6.969499597325921"><ele></ele><time>2013-9-9T13:10:29Z</time></trkpt>
<trkpt lat="46.489394623786211" lon="6.969486437737942"><ele></ele><time>2013-9-9T13:10:32Z</time></trkpt>
<trkpt lat="46.489380290731788" lon="6.969492807984352"><ele></ele><time>2013-9-9T13:10:35Z</time></trkpt>
<trkpt lat="46.489361012354493" lon="6.969506051391363"><ele></ele><time>2013-9-9T13:10:38Z</time></trkpt>
<trkpt lat="46.489343997091055" lon="6.969514433294535"><ele></ele><time>2013-9-9T13:10:41Z</time></trkpt>
<trkpt lat="46.48932714946568" lon="6.969516025856137"><ele></ele><time>2013-9-9T13:10:44Z</time></trkpt>
<trkpt lat="46.489247605204582" lon="6.969544943422079"><ele></ele><time>2013-9-9T13:10:47Z</time></trkpt>
<trkpt lat="46.489184238016605" lon="6.96954402141273"><ele></ele><time>2013-9-9T13:10:50Z</time></trkpt>
<trkpt lat="46.489161355420947" lon="6.969544440507889"><ele></ele><time>2013-9-9T13:10:53Z</time></trkpt>
<trkpt lat="46.489140065386891" lon="6.969542847946286"><ele></ele><time>2013-9-9T13:10:56Z</time></trkpt>
<trkpt lat="46.489123553037643" lon="6.969538573175669"><ele></ele><time>2013-9-9T13:10:59Z</time></trkpt>
<trkpt lat="46.489022383466363" lon="6.969515103846788"><ele></ele><time>2013-9-9T13:11:2Z</time></trkpt>
<trkpt lat="46.489000925794244" lon="6.969511164352298"><ele></ele><time>2013-9-9T13:11:5Z</time></trkpt>
<trkpt lat="46.488976702094078" lon="6.969515942037106"><ele></ele><time>2013-9-9T13:11:8Z</time></trkpt>
<trkpt lat="46.488958513364196" lon="6.969517199322581"><ele></ele><time>2013-9-9T13:11:11Z</time></trkpt>
<trkpt lat="46.488940743729472" lon="6.969515522941947"><ele></ele><time>2013-9-9T13:11:14Z</time></trkpt>
<trkpt lat="46.488880142569542" lon="6.969524994492531"><ele></ele><time>2013-9-9T13:11:17Z</time></trkpt>
<trkpt lat="46.488828342407942" lon="6.969531951472163"><ele></ele><time>2013-9-9T13:11:20Z</time></trkpt>
<trkpt lat="46.488811327144504" lon="6.969538740813732"><ele></ele><time>2013-9-9T13:11:23Z</time></trkpt>
<trkpt lat="46.488793389871716" lon="6.969545278698206"><ele></ele><time>2013-9-9T13:11:26Z</time></trkpt>
<trkpt lat="46.488776039332151" lon="6.969548296183348"><ele></ele><time>2013-9-9T13:11:29Z</time></trkpt>
<trkpt lat="46.488754581660032" lon="6.969550978392363"><ele></ele><time>2013-9-9T13:11:32Z</time></trkpt>
<trkpt lat="46.488736225292087" lon="6.969550643116236"><ele></ele><time>2013-9-9T13:11:35Z</time></trkpt>
<trkpt lat="46.488613430410624" lon="6.969559863209724"><ele></ele><time>2013-9-9T13:11:38Z</time></trkpt>
<trkpt lat="46.48859373293817" lon="6.969558019191027"><ele></ele><time>2013-9-9T13:11:41Z</time></trkpt>
<trkpt lat="46.488577555865049" lon="6.969558270648122"><ele></ele><time>2013-9-9T13:11:44Z</time></trkpt>
<trkpt lat="46.488563558086753" lon="6.969560282304883"><ele></ele><time>2013-9-9T13:11:47Z</time></trkpt>
<trkpt lat="46.488545956090093" lon="6.969558773562312"><ele></ele><time>2013-9-9T13:11:50Z</time></trkpt>
<trkpt lat="46.488529443740845" lon="6.969557767733932"><ele></ele><time>2013-9-9T13:11:53Z</time></trkpt>
<trkpt lat="46.488491892814636" lon="6.969556510448456"><ele></ele><time>2013-9-9T13:11:56Z</time></trkpt>
<trkpt lat="46.488315453752875" lon="6.969552151858807"><ele></ele><time>2013-9-9T13:11:59Z</time></trkpt>
<trkpt lat="46.488270107656717" lon="6.969563802704215"><ele></ele><time>2013-9-9T13:12:2Z</time></trkpt>
<trkpt lat="46.488249152898788" lon="6.969563215970993"><ele></ele><time>2013-9-9T13:12:5Z</time></trkpt>
<trkpt lat="46.488233143463731" lon="6.969562126323581"><ele></ele><time>2013-9-9T13:12:8Z</time></trkpt>
<trkpt lat="46.488213026896119" lon="6.969559025019407"><ele></ele><time>2013-9-9T13:12:11Z</time></trkpt>
<trkpt lat="46.488173129037023" lon="6.969559611752629"><ele></ele><time>2013-9-9T13:12:14Z</time></trkpt>
<trkpt lat="46.488049160689116" lon="6.969552487134934"><ele></ele><time>2013-9-9T13:12:17Z</time></trkpt>
<trkpt lat="46.487965257838368" lon="6.969548547640443"><ele></ele><time>2013-9-9T13:12:20Z</time></trkpt>
<trkpt lat="46.487946230918169" lon="6.969548128545284"><ele></ele><time>2013-9-9T13:12:23Z</time></trkpt>
<trkpt lat="46.487923013046384" lon="6.969542261213064"><ele></ele><time>2013-9-9T13:12:26Z</time></trkpt>
<trkpt lat="46.487899124622345" lon="6.969536561518908"><ele></ele><time>2013-9-9T13:12:29Z</time></trkpt>
<trkpt lat="46.487876158207655" lon="6.969529269263148"><ele></ele><time>2013-9-9T13:12:32Z</time></trkpt>
<trkpt lat="46.487780185416341" lon="6.969442265108228"><ele></ele><time>2013-9-9T13:12:35Z</time></trkpt>
<trkpt lat="46.487679434940219" lon="6.96944922208786"><ele></ele><time>2013-9-9T13:12:38Z</time></trkpt>
<trkpt lat="46.487631322816014" lon="6.969484426081181"><ele></ele><time>2013-9-9T13:12:41Z</time></trkpt>
<trkpt lat="46.487612212076783" lon="6.969492891803384"><ele></ele><time>2013-9-9T13:12:44Z</time></trkpt>
<trkpt lat="46.48759201169014" lon="6.969499513506889"><ele></ele><time>2013-9-9T13:12:47Z</time></trkpt>
<trkpt lat="46.487570554018021" lon="6.96950395591557"><ele></ele><time>2013-9-9T13:12:50Z</time></trkpt>
<trkpt lat="46.487551610916853" lon="6.969507224857807"><ele></ele><time>2013-9-9T13:12:53Z</time></trkpt>
<trkpt lat="46.487412387505174" lon="6.969499681144953"><ele></ele><time>2013-9-9T13:12:56Z</time></trkpt>
<trkpt lat="46.487391935661435" lon="6.969502363353968"><ele></ele><time>2013-9-9T13:12:59Z</time></trkpt>
<trkpt lat="46.487375674769282" lon="6.969505464658141"><ele></ele><time>2013-9-9T13:13:2Z</time></trkpt>
<trkpt lat="46.487355642020702" lon="6.969511164352298"><ele></ele><time>2013-9-9T13:13:5Z</time></trkpt>
<trkpt lat="46.4873315859586" lon="6.969513595104218"><ele></ele><time>2013-9-9T13:13:8Z</time></trkpt>
<trkpt lat="46.487309038639069" lon="6.96951761841774"><ele></ele><time>2013-9-9T13:13:11Z</time></trkpt>
<trkpt lat="46.487289927899837" lon="6.969530275091529"><ele></ele><time>2013-9-9T13:13:14Z</time></trkpt>
<trkpt lat="46.487241731956601" lon="6.96956061758101"><ele></ele><time>2013-9-9T13:13:17Z</time></trkpt>
<trkpt lat="46.48720744997263" lon="6.969580231234431"><ele></ele><time>2013-9-9T13:13:20Z</time></trkpt>
<trkpt lat="46.487158332020044" lon="6.969614680856466"><ele></ele><time>2013-9-9T13:13:23Z</time></trkpt>
<trkpt lat="46.487138634547591" lon="6.969619961455464"><ele></ele><time>2013-9-9T13:13:26Z</time></trkpt>
<trkpt lat="46.487118685618043" lon="6.969628259539604"><ele></ele><time>2013-9-9T13:13:29Z</time></trkpt>
<trkpt lat="46.487100077793002" lon="6.969636306166649"><ele></ele><time>2013-9-9T13:13:32Z</time></trkpt>
<trkpt lat="46.487084235996008" lon="6.969638904556632"><ele></ele><time>2013-9-9T13:13:35Z</time></trkpt>
<trkpt lat="46.487066717818379" lon="6.969646029174328"><ele></ele><time>2013-9-9T13:13:38Z</time></trkpt>
<trkpt lat="46.486977534368634" lon="6.969700260087848"><ele></ele><time>2013-9-9T13:13:41Z</time></trkpt>
<trkpt lat="46.486957753077149" lon="6.969706630334258"><ele></ele><time>2013-9-9T13:13:44Z</time></trkpt>
<trkpt lat="46.486938558518887" lon="6.969713922590017"><ele></ele><time>2013-9-9T13:13:47Z</time></trkpt>
<trkpt lat="46.486919783055782" lon="6.969717610627413"><ele></ele><time>2013-9-9T13:13:50Z</time></trkpt>
<trkpt lat="46.486899582669139" lon="6.969719873741269"><ele></ele><time>2013-9-9T13:13:53Z</time></trkpt>
<trkpt lat="46.486881980672479" lon="6.969722639769316"><ele></ele><time>2013-9-9T13:13:56Z</time></trkpt>
<trkpt lat="46.486846944317222" lon="6.969729010015726"><ele></ele><time>2013-9-9T13:13:59Z</time></trkpt>
<trkpt lat="46.486796149984002" lon="6.96973605081439"><ele></ele><time>2013-9-9T13:14:2Z</time></trkpt>
<trkpt lat="46.48677796125412" lon="6.969739822670817"><ele></ele><time>2013-9-9T13:14:5Z</time></trkpt>
<trkpt lat="46.486762622371316" lon="6.969743510708213"><ele></ele><time>2013-9-9T13:14:8Z</time></trkpt>
<trkpt lat="46.486743511632085" lon="6.969747198745608"><ele></ele><time>2013-9-9T13:14:11Z</time></trkpt>
<trkpt lat="46.486722975969315" lon="6.969745438545942"><ele></ele><time>2013-9-9T13:14:14Z</time></trkpt>
<trkpt lat="46.486703949049115" lon="6.96974485181272"><ele></ele><time>2013-9-9T13:14:17Z</time></trkpt>
<trkpt lat="46.486604372039437" lon="6.969756335020065"><ele></ele><time>2013-9-9T13:14:20Z</time></trkpt>
<trkpt lat="46.486587356775999" lon="6.969757424667478"><ele></ele><time>2013-9-9T13:14:23Z</time></trkpt>
<trkpt lat="46.486572017893195" lon="6.969756586477161"><ele></ele><time>2013-9-9T13:14:26Z</time></trkpt>
<trkpt lat="46.486554248258471" lon="6.969760777428746"><ele></ele><time>2013-9-9T13:14:29Z</time></trkpt>
<trkpt lat="46.486534383147955" lon="6.969760442152619"><ele></ele><time>2013-9-9T13:14:32Z</time></trkpt>
<trkpt lat="46.486492389813066" lon="6.9697580114007"><ele></ele><time>2013-9-9T13:14:35Z</time></trkpt>
<trkpt lat="46.486403876915574" lon="6.969789527356625"><ele></ele><time>2013-9-9T13:14:38Z</time></trkpt>
<trkpt lat="46.48639339953661" lon="6.969798747450113"><ele></ele><time>2013-9-9T13:14:41Z</time></trkpt>
<trkpt lat="46.486381245777011" lon="6.969803273677826"><ele></ele><time>2013-9-9T13:14:44Z</time></trkpt>
<trkpt lat="46.486370768398046" lon="6.969805201515555"><ele></ele><time>2013-9-9T13:14:47Z</time></trkpt>
<trkpt lat="46.486335061490536" lon="6.969821630045772"><ele></ele><time>2013-9-9T13:14:50Z</time></trkpt>
<trkpt lat="46.486279489472508" lon="6.969846691936255"><ele></ele><time>2013-9-9T13:14:53Z</time></trkpt>
<trkpt lat="46.486265575513244" lon="6.96985624730587"><ele></ele><time>2013-9-9T13:14:56Z</time></trkpt>
<trkpt lat="46.486252499744296" lon="6.969866557046771"><ele></ele><time>2013-9-9T13:14:59Z</time></trkpt>
<trkpt lat="46.486235735937953" lon="6.969872340559959"><ele></ele><time>2013-9-9T13:15:2Z</time></trkpt>
<trkpt lat="46.486219307407737" lon="6.969877202063799"><ele></ele><time>2013-9-9T13:15:5Z</time></trkpt>
<trkpt lat="46.4861676748842" lon="6.969886673614383"><ele></ele><time>2013-9-9T13:15:8Z</time></trkpt>
<trkpt lat="46.486094249412417" lon="6.969897989183664"><ele></ele><time>2013-9-9T13:15:11Z</time></trkpt>
<trkpt lat="46.486078156158328" lon="6.969900252297521"><ele></ele><time>2013-9-9T13:15:14Z</time></trkpt>
<trkpt lat="46.486061224713922" lon="6.969901761040092"><ele></ele><time>2013-9-9T13:15:17Z</time></trkpt>
<trkpt lat="46.486044963821769" lon="6.969900922849774"><ele></ele><time>2013-9-9T13:15:20Z</time></trkpt>
<trkpt lat="46.486030882224441" lon="6.969900755211711"><ele></ele><time>2013-9-9T13:15:23Z</time></trkpt>
<trkpt lat="46.485994337126613" lon="6.969893630594015"><ele></ele><time>2013-9-9T13:15:26Z</time></trkpt>
<trkpt lat="46.485989978536963" lon="6.969901761040092"><ele></ele><time>2013-9-9T13:15:29Z</time></trkpt>
<trkpt lat="46.485966090112925" lon="6.969899414107204"><ele></ele><time>2013-9-9T13:15:32Z</time></trkpt>
<trkpt lat="46.485932981595397" lon="6.969906790181994"><ele></ele><time>2013-9-9T13:15:35Z</time></trkpt>
<trkpt lat="46.485916553065181" lon="6.969907796010375"><ele></ele><time>2013-9-9T13:15:38Z</time></trkpt>
<trkpt lat="46.485900711268187" lon="6.969905868172646"><ele></ele><time>2013-9-9T13:15:41Z</time></trkpt>
<trkpt lat="46.485884618014097" lon="6.969904694706202"><ele></ele><time>2013-9-9T13:15:44Z</time></trkpt>
<trkpt lat="46.485872715711594" lon="6.969907293096185"><ele></ele><time>2013-9-9T13:15:47Z</time></trkpt>
<trkpt lat="46.485857712104917" lon="6.969905365258455"><ele></ele><time>2013-9-9T13:15:50Z</time></trkpt>
<trkpt lat="46.485840110108256" lon="6.969905700534582"><ele></ele><time>2013-9-9T13:15:53Z</time></trkpt>
<trkpt lat="46.485744472593069" lon="6.969946268945932"><ele></ele><time>2013-9-9T13:15:56Z</time></trkpt>
<trkpt lat="46.485729888081551" lon="6.969957668334246"><ele></ele><time>2013-9-9T13:15:59Z</time></trkpt>
<trkpt lat="46.485717901960015" lon="6.969972085207701"><ele></ele><time>2013-9-9T13:16:2Z</time></trkpt>
<trkpt lat="46.485704239457846" lon="6.969985915347934"><ele></ele><time>2013-9-9T13:16:5Z</time></trkpt>
<trkpt lat="46.485690660774708" lon="6.970000751316547"><ele></ele><time>2013-9-9T13:16:8Z</time></trkpt>
<trkpt lat="46.48563508875668" lon="6.970054060220718"><ele></ele><time>2013-9-9T13:16:11Z</time></trkpt>
<trkpt lat="46.485593849793077" lon="6.970126144587994"><ele></ele><time>2013-9-9T13:16:14Z</time></trkpt>
<trkpt lat="46.485580522567034" lon="6.970142237842083"><ele></ele><time>2013-9-9T13:16:17Z</time></trkpt>
<trkpt lat="46.485569206997752" lon="6.970155062153935"><ele></ele><time>2013-9-9T13:16:20Z</time></trkpt>
<trkpt lat="46.485553281381726" lon="6.970169479027391"><ele></ele><time>2013-9-9T13:16:23Z</time></trkpt>
<trkpt lat="46.485539199784398" lon="6.970179285854101"><ele></ele><time>2013-9-9T13:16:26Z</time></trkpt>
<trkpt lat="46.485441634431481" lon="6.970218345522881"><ele></ele><time>2013-9-9T13:16:29Z</time></trkpt>
<trkpt lat="46.485423529520631" lon="6.970221027731895"><ele></ele><time>2013-9-9T13:16:32Z</time></trkpt>
<trkpt lat="46.485402323305607" lon="6.97022370994091"><ele></ele><time>2013-9-9T13:16:35Z</time></trkpt>
<trkpt lat="46.485382206737995" lon="6.97022513486445"><ele></ele><time>2013-9-9T13:16:38Z</time></trkpt>
<trkpt lat="46.485364688560367" lon="6.970223877578974"><ele></ele><time>2013-9-9T13:16:41Z</time></trkpt>
<trkpt lat="46.485310876742005" lon="6.970216501504183"><ele></ele><time>2013-9-9T13:16:44Z</time></trkpt>
<trkpt lat="46.485229153186083" lon="6.97022563777864"><ele></ele><time>2013-9-9T13:16:47Z</time></trkpt>
<trkpt lat="46.485214401036501" lon="6.970227230340242"><ele></ele><time>2013-9-9T13:16:50Z</time></trkpt>
<trkpt lat="46.485199313610792" lon="6.970227481797338"><ele></ele><time>2013-9-9T13:16:53Z</time></trkpt>
<trkpt lat="46.485184477642179" lon="6.970224631950259"><ele></ele><time>2013-9-9T13:16:56Z</time></trkpt>
<trkpt lat="46.485165199264884" lon="6.970220189541578"><ele></ele><time>2013-9-9T13:16:59Z</time></trkpt>
<trkpt lat="46.485099820420146" lon="6.970205940306187"><ele></ele><time>2013-9-9T13:17:2Z</time></trkpt>
<trkpt lat="46.485008876770735" lon="6.970190349966288"><ele></ele><time>2013-9-9T13:17:5Z</time></trkpt>
<trkpt lat="46.484990688040853" lon="6.970185991376638"><ele></ele><time>2013-9-9T13:17:8Z</time></trkpt>
<trkpt lat="46.484978282824159" lon="6.970179369673133"><ele></ele><time>2013-9-9T13:17:11Z</time></trkpt>
<trkpt lat="46.484964033588767" lon="6.970172747969627"><ele></ele><time>2013-9-9T13:17:14Z</time></trkpt>
<trkpt lat="46.484947185963392" lon="6.970167718827725"><ele></ele><time>2013-9-9T13:17:17Z</time></trkpt>
<trkpt lat="46.484883734956384" lon="6.970151038840413"><ele></ele><time>2013-9-9T13:17:20Z</time></trkpt>
<trkpt lat="46.484806956723332" lon="6.970134945586324"><ele></ele><time>2013-9-9T13:17:23Z</time></trkpt>
<trkpt lat="46.484793126583099" lon="6.970128491520882"><ele></ele><time>2013-9-9T13:17:26Z</time></trkpt>
<trkpt lat="46.48477460257709" lon="6.970128240063787"><ele></ele><time>2013-9-9T13:17:29Z</time></trkpt>
<trkpt lat="46.484755156561732" lon="6.970131006091833"><ele></ele><time>2013-9-9T13:17:32Z</time></trkpt>
<trkpt lat="46.484734285622835" lon="6.970131425186992"><ele></ele><time>2013-9-9T13:17:35Z</time></trkpt>
<trkpt lat="46.484684832394123" lon="6.970133353024721"><ele></ele><time>2013-9-9T13:17:38Z</time></trkpt>
<trkpt lat="46.484586009755731" lon="6.970143411308527"><ele></ele><time>2013-9-9T13:17:41Z</time></trkpt>
<trkpt lat="46.48456446826458" lon="6.970144836232066"><ele></ele><time>2013-9-9T13:17:44Z</time></trkpt>
<trkpt lat="46.48454393260181" lon="6.970147518441081"><ele></ele><time>2013-9-9T13:17:47Z</time></trkpt>
<trkpt lat="46.484527671709657" lon="6.970150535926223"><ele></ele><time>2013-9-9T13:17:50Z</time></trkpt>
<trkpt lat="46.484511829912663" lon="6.970154726877809"><ele></ele><time>2013-9-9T13:17:53Z</time></trkpt>
<trkpt lat="46.484480230137706" lon="6.970164617523551"><ele></ele><time>2013-9-9T13:17:56Z</time></trkpt>
<trkpt lat="46.484392387792468" lon="6.97018506936729"><ele></ele><time>2013-9-9T13:17:59Z</time></trkpt>
<trkpt lat="46.484378222376108" lon="6.970187835395336"><ele></ele><time>2013-9-9T13:18:2Z</time></trkpt>
<trkpt lat="46.48436464369297" lon="6.97018607519567"><ele></ele><time>2013-9-9T13:18:5Z</time></trkpt>
<trkpt lat="46.484351651743054" lon="6.970182470977306"><ele></ele><time>2013-9-9T13:18:8Z</time></trkpt>
<trkpt lat="46.484337821602821" lon="6.970175765454769"><ele></ele><time>2013-9-9T13:18:11Z</time></trkpt>
<trkpt lat="46.484263055026531" lon="6.970162270590663"><ele></ele><time>2013-9-9T13:18:14Z</time></trkpt>
<trkpt lat="46.484235981479287" lon="6.970160091295838"><ele></ele><time>2013-9-9T13:18:17Z</time></trkpt>
<trkpt lat="46.484232880175114" lon="6.970155313611031"><ele></ele><time>2013-9-9T13:18:20Z</time></trkpt>
<trkpt lat="46.484219133853912" lon="6.970149697735906"><ele></ele><time>2013-9-9T13:18:23Z</time></trkpt>
<trkpt lat="46.48421267978847" lon="6.970145842060447"><ele></ele><time>2013-9-9T13:18:26Z</time></trkpt>
<trkpt lat="46.484206560999155" lon="6.970142405480146"><ele></ele><time>2013-9-9T13:18:29Z</time></trkpt>
<trkpt lat="46.484179403632879" lon="6.970150787383318"><ele></ele><time>2013-9-9T13:18:32Z</time></trkpt>
<trkpt lat="46.484136153012514" lon="6.970157492905855"><ele></ele><time>2013-9-9T13:18:35Z</time></trkpt>
<trkpt lat="46.484035905450583" lon="6.970161097124219"><ele></ele><time>2013-9-9T13:18:38Z</time></trkpt>
<trkpt lat="46.484028613194823" lon="6.970153301954269"><ele></ele><time>2013-9-9T13:18:41Z</time></trkpt>
<trkpt lat="46.484022997319698" lon="6.970270229503512"><ele></ele><time>2013-9-9T13:18:44Z</time></trkpt>
<trkpt lat="46.483988966792822" lon="6.970253046602011"><ele></ele><time>2013-9-9T13:18:47Z</time></trkpt>
<trkpt lat="46.483940435573459" lon="6.970246005803347"><ele></ele><time>2013-9-9T13:18:50Z</time></trkpt>
<trkpt lat="46.48392534814775" lon="6.970251118764281"><ele></ele><time>2013-9-9T13:18:53Z</time></trkpt>
<trkpt lat="46.483908835798502" lon="6.970251873135567"><ele></ele><time>2013-9-9T13:18:56Z</time></trkpt>
<trkpt lat="46.48389458656311" lon="6.970252711325884"><ele></ele><time>2013-9-9T13:18:59Z</time></trkpt>
<trkpt lat="46.483882516622543" lon="6.970248939469457"><ele></ele><time>2013-9-9T13:19:2Z</time></trkpt>
<trkpt lat="46.483794339001179" lon="6.97022614069283"><ele></ele><time>2013-9-9T13:19:5Z</time></trkpt>
<trkpt lat="46.483720410615206" lon="6.970245335251093"><ele></ele><time>2013-9-9T13:19:8Z</time></trkpt>
<trkpt lat="46.483704568818212" lon="6.970250951126218"><ele></ele><time>2013-9-9T13:19:11Z</time></trkpt>
<trkpt lat="46.483685206621885" lon="6.97025497443974"><ele></ele><time>2013-9-9T13:19:14Z</time></trkpt>
<trkpt lat="46.483669364824891" lon="6.970258913934231"><ele></ele><time>2013-9-9T13:19:17Z</time></trkpt>
<trkpt lat="46.483652098104358" lon="6.9702691398561"><ele></ele><time>2013-9-9T13:19:20Z</time></trkpt>
<trkpt lat="46.483578002080321" lon="6.970295207574964"><ele></ele><time>2013-9-9T13:19:23Z</time></trkpt>
<trkpt lat="46.483466187492013" lon="6.970332423225045"><ele></ele><time>2013-9-9T13:19:26Z</time></trkpt>
<trkpt lat="46.483450932428241" lon="6.970333009958267"><ele></ele><time>2013-9-9T13:19:29Z</time></trkpt>
<trkpt lat="46.483435509726405" lon="6.970333680510521"><ele></ele><time>2013-9-9T13:19:32Z</time></trkpt>
<trkpt lat="46.483414219692349" lon="6.970336697995663"><ele></ele><time>2013-9-9T13:19:35Z</time></trkpt>
<trkpt lat="46.483392342925072" lon="6.970343487337232"><ele></ele><time>2013-9-9T13:19:38Z</time></trkpt>
<trkpt lat="46.483259741216898" lon="6.970357233658433"><ele></ele><time>2013-9-9T13:19:41Z</time></trkpt>
<trkpt lat="46.483241552487016" lon="6.970357652753592"><ele></ele><time>2013-9-9T13:19:44Z</time></trkpt>
<trkpt lat="46.48322026245296" lon="6.970358993858099"><ele></ele><time>2013-9-9T13:19:47Z</time></trkpt>
<trkpt lat="46.483199140056968" lon="6.970364023000002"><ele></ele><time>2013-9-9T13:19:50Z</time></trkpt>
<trkpt lat="46.48318262770772" lon="6.970365615561605"><ele></ele><time>2013-9-9T13:19:53Z</time></trkpt>
<trkpt lat="46.4831318333745" lon="6.970379697158933"><ele></ele><time>2013-9-9T13:19:56Z</time></trkpt>
<trkpt lat="46.483041308820248" lon="6.970382630825043"><ele></ele><time>2013-9-9T13:19:59Z</time></trkpt>
<trkpt lat="46.48295296356082" lon="6.970357820391655"><ele></ele><time>2013-9-9T13:20:2Z</time></trkpt>
<trkpt lat="46.48294173181057" lon="6.970353461802006"><ele></ele><time>2013-9-9T13:20:5Z</time></trkpt>
<trkpt lat="46.482927985489368" lon="6.970345247536898"><ele></ele><time>2013-9-9T13:20:8Z</time></trkpt>
<trkpt lat="46.482914239168167" lon="6.970335524529219"><ele></ele><time>2013-9-9T13:20:11Z</time></trkpt>
<trkpt lat="46.482899989932775" lon="6.970328316092491"><ele></ele><time>2013-9-9T13:20:14Z</time></trkpt>
<trkpt lat="46.482846513390541" lon="6.970292273908854"><ele></ele><time>2013-9-9T13:20:17Z</time></trkpt>
<trkpt lat="46.482791947200894" lon="6.970243910327554"><ele></ele><time>2013-9-9T13:20:20Z</time></trkpt>
<trkpt lat="46.482780212536454" lon="6.970231924206018"><ele></ele><time>2013-9-9T13:20:23Z</time></trkpt>
<trkpt lat="46.482766382396221" lon="6.970218261703849"><ele></ele><time>2013-9-9T13:20:26Z</time></trkpt>
<trkpt lat="46.482749367132783" lon="6.970204766839743"><ele></ele><time>2013-9-9T13:20:29Z</time></trkpt>
<trkpt lat="46.482734112069011" lon="6.970191691070795"><ele></ele><time>2013-9-9T13:20:32Z</time></trkpt>
<trkpt lat="46.482654651626945" lon="6.970125641673803"><ele></ele><time>2013-9-9T13:20:35Z</time></trkpt>
<trkpt lat="46.482639564201236" lon="6.970117008313537"><ele></ele><time>2013-9-9T13:20:38Z</time></trkpt>
<trkpt lat="46.482625231146812" lon="6.970108458772302"><ele></ele><time>2013-9-9T13:20:41Z</time></trkpt>
<trkpt lat="46.482611484825611" lon="6.970100328326225"><ele></ele><time>2013-9-9T13:20:44Z</time></trkpt>
<trkpt lat="46.482596397399902" lon="6.970088426023722"><ele></ele><time>2013-9-9T13:20:47Z</time></trkpt>
<trkpt lat="46.482529509812593" lon="6.970051461830735"><ele></ele><time>2013-9-9T13:20:50Z</time></trkpt>
<trkpt lat="46.482514338567853" lon="6.970047270879149"><ele></ele><time>2013-9-9T13:20:53Z</time></trkpt>
<trkpt lat="46.48250101134181" lon="6.970046516507864"><ele></ele><time>2013-9-9T13:20:56Z</time></trkpt>
<trkpt lat="46.482487600296736" lon="6.9700394757092"><ele></ele><time>2013-9-9T13:20:59Z</time></trkpt>
<trkpt lat="46.482476117089391" lon="6.970028327777982"><ele></ele><time>2013-9-9T13:21:2Z</time></trkpt>
<trkpt lat="46.482430687174201" lon="6.969997314736247"><ele></ele><time>2013-9-9T13:21:5Z</time></trkpt>
<trkpt lat="46.482369750738144" lon="6.969973258674145"><ele></ele><time>2013-9-9T13:21:8Z</time></trkpt>
<trkpt lat="46.482353992760181" lon="6.969970325008035"><ele></ele><time>2013-9-9T13:21:11Z</time></trkpt>
<trkpt lat="46.482338989153504" lon="6.969966553151608"><ele></ele><time>2013-9-9T13:21:14Z</time></trkpt>
<trkpt lat="46.482325745746493" lon="6.969962697476149"><ele></ele><time>2013-9-9T13:21:17Z</time></trkpt>
<trkpt lat="46.482309317216277" lon="6.969957835972309"><ele></ele><time>2013-9-9T13:21:20Z</time></trkpt>
<trkpt lat="46.482228012755513" lon="6.969929840415716"><ele></ele><time>2013-9-9T13:21:23Z</time></trkpt>
<trkpt lat="46.48221124894917" lon="6.969924392178655"><ele></ele><time>2013-9-9T13:21:26Z</time></trkpt>
<trkpt lat="46.482197837904096" lon="6.969919446855784"><ele></ele><time>2013-9-9T13:21:29Z</time></trkpt>
<trkpt lat="46.482184175401926" lon="6.969917267560959"><ele></ele><time>2013-9-9T13:21:32Z</time></trkpt>
<trkpt lat="46.482170931994915" lon="6.969914669170976"><ele></ele><time>2013-9-9T13:21:35Z</time></trkpt>
<trkpt lat="46.482090884819627" lon="6.969890194013715"><ele></ele><time>2013-9-9T13:21:38Z</time></trkpt>
<trkpt lat="46.482060290873051" lon="6.969874855130911"><ele></ele><time>2013-9-9T13:21:41Z</time></trkpt>
<trkpt lat="46.482046041637659" lon="6.969866221770644"><ele></ele><time>2013-9-9T13:21:44Z</time></trkpt>
<trkpt lat="46.482032462954521" lon="6.969859432429075"><ele></ele><time>2013-9-9T13:21:47Z</time></trkpt>
<trkpt lat="46.482019387185574" lon="6.969851469621062"><ele></ele><time>2013-9-9T13:21:50Z</time></trkpt>
<trkpt lat="46.48200455121696" lon="6.969849960878491"><ele></ele><time>2013-9-9T13:21:53Z</time></trkpt>
<trkpt lat="46.481942273676395" lon="6.969832861796022"><ele></ele><time>2013-9-9T13:21:56Z</time></trkpt>
<trkpt lat="46.481905980035663" lon="6.969808302819729"><ele></ele><time>2013-9-9T13:21:59Z</time></trkpt>
<trkpt lat="46.48188728839159" lon="6.969800340011716"><ele></ele><time>2013-9-9T13:22:2Z</time></trkpt>
<trkpt lat="46.481872871518135" lon="6.969799334183335"><ele></ele><time>2013-9-9T13:22:5Z</time></trkpt>
<trkpt lat="46.48185845464468" lon="6.969794975593686"><ele></ele><time>2013-9-9T13:22:8Z</time></trkpt>
<trkpt lat="46.481845546513796" lon="6.969785671681166"><ele></ele><time>2013-9-9T13:22:11Z</time></trkpt>
<trkpt lat="46.481788046658039" lon="6.969755915924907"><ele></ele><time>2013-9-9T13:22:14Z</time></trkpt>
<trkpt lat="46.481777485460043" lon="6.969748120754957"><ele></ele><time>2013-9-9T13:22:17Z</time></trkpt>
<trkpt lat="46.481761056929827" lon="6.969720795750618"><ele></ele><time>2013-9-9T13:22:20Z</time></trkpt>
<trkpt lat="46.481751669198275" lon="6.969704618677497"><ele></ele><time>2013-9-9T13:22:23Z</time></trkpt>
<trkpt lat="46.481745298951864" lon="6.969686765223742"><ele></ele><time>2013-9-9T13:22:26Z</time></trkpt>
<trkpt lat="46.481739683076739" lon="6.969669414684176"><ele></ele><time>2013-9-9T13:22:29Z</time></trkpt>
<trkpt lat="46.48173532448709" lon="6.969653489068151"><ele></ele><time>2013-9-9T13:22:32Z</time></trkpt>
<trkpt lat="46.481682602316141" lon="6.96954351849854"><ele></ele><time>2013-9-9T13:22:35Z</time></trkpt>
<trkpt lat="46.481676064431667" lon="6.969525748863816"><ele></ele><time>2013-9-9T13:22:38Z</time></trkpt>
<trkpt lat="46.481669107452035" lon="6.9695093203336"><ele></ele><time>2013-9-9T13:22:41Z</time></trkpt>
<trkpt lat="46.481659384444356" lon="6.969495406374335"><ele></ele><time>2013-9-9T13:22:44Z</time></trkpt>
<trkpt lat="46.481647733598948" lon="6.969484174624085"><ele></ele><time>2013-9-9T13:22:47Z</time></trkpt>
<trkpt lat="46.481608422473073" lon="6.969464812427759"><ele></ele><time>2013-9-9T13:22:50Z</time></trkpt>
<trkpt lat="46.481601549312472" lon="6.969450563192368"><ele></ele><time>2013-9-9T13:22:53Z</time></trkpt>
<trkpt lat="46.481589563190937" lon="6.969374036416411"><ele></ele><time>2013-9-9T13:22:56Z</time></trkpt>
<trkpt lat="46.481588305905461" lon="6.969357524067164"><ele></ele><time>2013-9-9T13:22:59Z</time></trkpt>
<trkpt lat="46.481579085811973" lon="6.969341682270169"><ele></ele><time>2013-9-9T13:23:2Z</time></trkpt>
<trkpt lat="46.481570284813643" lon="6.969326427206397"><ele></ele><time>2013-9-9T13:23:5Z</time></trkpt>
<trkpt lat="46.481557544320822" lon="6.969316033646464"><ele></ele><time>2013-9-9T13:23:8Z</time></trkpt>
<trkpt lat="46.481532901525497" lon="6.969291809946299"><ele></ele><time>2013-9-9T13:23:11Z</time></trkpt>
<trkpt lat="46.481505157426" lon="6.969226095825434"><ele></ele><time>2013-9-9T13:23:14Z</time></trkpt>
<trkpt lat="46.481498200446367" lon="6.969212265685201"><ele></ele><time>2013-9-9T13:23:17Z</time></trkpt>
<trkpt lat="46.481489231809974" lon="6.969201620668173"><ele></ele><time>2013-9-9T13:23:20Z</time></trkpt>
<trkpt lat="46.481479844078422" lon="6.969191310927272"><ele></ele><time>2013-9-9T13:23:23Z</time></trkpt>
<trkpt lat="46.481409100815654" lon="6.969129117205739"><ele></ele><time>2013-9-9T13:23:26Z</time></trkpt>
<trkpt lat="46.481398623436689" lon="6.969118304550648"><ele></ele><time>2013-9-9T13:23:29Z</time></trkpt>
<trkpt lat="46.481387978419662" lon="6.969113443046808"><ele></ele><time>2013-9-9T13:23:32Z</time></trkpt>
<trkpt lat="46.481376411393285" lon="6.969109000638127"><ele></ele><time>2013-9-9T13:23:35Z</time></trkpt>
<trkpt lat="46.481363754719496" lon="6.969100786373019"><ele></ele><time>2013-9-9T13:23:38Z</time></trkpt>
<trkpt lat="46.481327125802636" lon="6.969077233225107"><ele></ele><time>2013-9-9T13:23:41Z</time></trkpt>
<trkpt lat="46.48129309527576" lon="6.969054099172354"><ele></ele><time>2013-9-9T13:23:44Z</time></trkpt>
<trkpt lat="46.481280103325844" lon="6.96904219686985"><ele></ele><time>2013-9-9T13:23:47Z</time></trkpt>
<trkpt lat="46.481266273185611" lon="6.969029372557998"><ele></ele><time>2013-9-9T13:23:50Z</time></trkpt>
<trkpt lat="46.481259064748883" lon="6.969024511054158"><ele></ele><time>2013-9-9T13:23:53Z</time></trkpt>
<trkpt lat="46.481237858533859" lon="6.969012441113591"><ele></ele><time>2013-9-9T13:23:56Z</time></trkpt>
<trkpt lat="46.481182621791959" lon="6.969004394486547"><ele></ele><time>2013-9-9T13:23:59Z</time></trkpt>
<trkpt lat="46.481172312051058" lon="6.96899282746017"><ele></ele><time>2013-9-9T13:24:2Z</time></trkpt>
<trkpt lat="46.481162589043379" lon="6.96898209862411"><ele></ele><time>2013-9-9T13:24:5Z</time></trkpt>
<trkpt lat="46.481150183826685" lon="6.968974806368351"><ele></ele><time>2013-9-9T13:24:8Z</time></trkpt>
<trkpt lat="46.481140041723847" lon="6.968965167179704"><ele></ele><time>2013-9-9T13:24:11Z</time></trkpt>
<trkpt lat="46.481087571009994" lon="6.968930466100574"><ele></ele><time>2013-9-9T13:24:14Z</time></trkpt>
<trkpt lat="46.481065358966589" lon="6.968908002600074"><ele></ele><time>2013-9-9T13:24:17Z</time></trkpt>
<trkpt lat="46.481054797768593" lon="6.9688980281353"><ele></ele><time>2013-9-9T13:24:20Z</time></trkpt>
<trkpt lat="46.481042224913836" lon="6.968895932659507"><ele></ele><time>2013-9-9T13:24:23Z</time></trkpt>
<trkpt lat="46.481032418087125" lon="6.968889897689223"><ele></ele><time>2013-9-9T13:24:26Z</time></trkpt>
<trkpt lat="46.481022695079446" lon="6.968888808041811"><ele></ele><time>2013-9-9T13:24:29Z</time></trkpt>
<trkpt lat="46.480993442237377" lon="6.968883192166686"><ele></ele><time>2013-9-9T13:24:32Z</time></trkpt>
<trkpt lat="46.480955136939883" lon="6.968866344541311"><ele></ele><time>2013-9-9T13:24:35Z</time></trkpt>
<trkpt lat="46.48094373755157" lon="6.96886726655066"><ele></ele><time>2013-9-9T13:24:38Z</time></trkpt>
<trkpt lat="46.48093250580132" lon="6.968862572684884"><ele></ele><time>2013-9-9T13:24:41Z</time></trkpt>
<trkpt lat="46.480921860784292" lon="6.968862824141979"><ele></ele><time>2013-9-9T13:24:44Z</time></trkpt>
<trkpt lat="46.480910461395979" lon="6.968865673989058"><ele></ele><time>2013-9-9T13:24:47Z</time></trkpt>
<trkpt lat="46.480826390907168" lon="6.968831140547991"><ele></ele><time>2013-9-9T13:24:50Z</time></trkpt>
<trkpt lat="46.480817086994648" lon="6.968821249902248"><ele></ele><time>2013-9-9T13:24:53Z</time></trkpt>
<trkpt lat="46.4808040112257" lon="6.968813538551331"><ele></ele><time>2013-9-9T13:24:56Z</time></trkpt>
<trkpt lat="46.480792611837387" lon="6.968810018151999"><ele></ele><time>2013-9-9T13:24:59Z</time></trkpt>
<trkpt lat="46.480781966820359" lon="6.968809263780713"><ele></ele><time>2013-9-9T13:25:2Z</time></trkpt>
<trkpt lat="46.480768974870443" lon="6.96881010197103"><ele></ele><time>2013-9-9T13:25:5Z</time></trkpt>
<trkpt lat="46.480709295719862" lon="6.968800127506256"><ele></ele><time>2013-9-9T13:25:8Z</time></trkpt>
<trkpt lat="46.480661937966943" lon="6.968772131949663"><ele></ele><time>2013-9-9T13:25:11Z</time></trkpt>
<trkpt lat="46.480647940188646" lon="6.968762911856175"><ele></ele><time>2013-9-9T13:25:14Z</time></trkpt>
<trkpt lat="46.480635870248079" lon="6.968759139999747"><ele></ele><time>2013-9-9T13:25:17Z</time></trkpt>
<trkpt lat="46.480623884126544" lon="6.968754949048162"><ele></ele><time>2013-9-9T13:25:20Z</time></trkpt>
<trkpt lat="46.480608880519867" lon="6.968756038695574"><ele></ele><time>2013-9-9T13:25:23Z</time></trkpt>
<trkpt lat="46.480506621301174" lon="6.968778586015105"><ele></ele><time>2013-9-9T13:25:26Z</time></trkpt>
<trkpt lat="46.48042188026011" lon="6.968811191618443"><ele></ele><time>2013-9-9T13:25:29Z</time></trkpt>
<trkpt lat="46.480379551649094" lon="6.968941278755665"><ele></ele><time>2013-9-9T13:25:32Z</time></trkpt>
<trkpt lat="46.480392292141914" lon="6.968984864652157"><ele></ele><time>2013-9-9T13:25:35Z</time></trkpt>
<trkpt lat="46.480428753420711" lon="6.969032641500235"><ele></ele><time>2013-9-9T13:25:38Z</time></trkpt>
<trkpt lat="46.480498658493161" lon="6.969107240438461"><ele></ele><time>2013-9-9T13:25:41Z</time></trkpt>
<trkpt lat="46.480498742312193" lon="6.969130458310247"><ele></ele><time>2013-9-9T13:25:44Z</time></trkpt>
<trkpt lat="46.480520032346249" lon="6.9692019559443"><ele></ele><time>2013-9-9T13:25:47Z</time></trkpt>
<trkpt lat="46.480515506118536" lon="6.969241183251143"><ele></ele><time>2013-9-9T13:25:50Z</time></trkpt>
<trkpt lat="46.480520283803344" lon="6.969261299818754"><ele></ele><time>2013-9-9T13:25:53Z</time></trkpt>
<trkpt lat="46.480526989325881" lon="6.969281081110239"><ele></ele><time>2013-9-9T13:25:56Z</time></trkpt>
<trkpt lat="46.480532521381974" lon="6.969301952049136"><ele></ele><time>2013-9-9T13:25:59Z</time></trkpt>
<trkpt lat="46.480534616857767" lon="6.969323325902224"><ele></ele><time>2013-9-9T13:26:2Z</time></trkpt>
<trkpt lat="46.480538975447416" lon="6.96934268809855"><ele></ele><time>2013-9-9T13:26:5Z</time></trkpt>
<trkpt lat="46.480550710111856" lon="6.969401780515909"><ele></ele><time>2013-9-9T13:26:8Z</time></trkpt>
<trkpt lat="46.480554062873125" lon="6.96942231617868"><ele></ele><time>2013-9-9T13:26:11Z</time></trkpt>
<trkpt lat="46.480561606585979" lon="6.969463722780347"><ele></ele><time>2013-9-9T13:26:14Z</time></trkpt>
<trkpt lat="46.480565378442407" lon="6.969486018642783"><ele></ele><time>2013-9-9T13:26:17Z</time></trkpt>
<trkpt lat="46.480567054823041" lon="6.969510409981012"><ele></ele><time>2013-9-9T13:26:20Z</time></trkpt>
<trkpt lat="46.480573173612356" lon="6.969532957300544"><ele></ele><time>2013-9-9T13:26:23Z</time></trkpt>
<trkpt lat="46.480568815022707" lon="6.969602778553963"><ele></ele><time>2013-9-9T13:26:26Z</time></trkpt>
<trkpt lat="46.480570156127214" lon="6.969624487683177"><ele></ele><time>2013-9-9T13:26:29Z</time></trkpt>
<trkpt lat="46.480570575222373" lon="6.969649968668819"><ele></ele><time>2013-9-9T13:26:32Z</time></trkpt>
<trkpt lat="46.48056847974658" lon="6.969673354178667"><ele></ele><time>2013-9-9T13:26:35Z</time></trkpt>
<trkpt lat="46.480563366785645" lon="6.969697242602706"><ele></ele><time>2013-9-9T13:26:38Z</time></trkpt>
<trkpt lat="46.480564121156931" lon="6.96972481906414"><ele></ele><time>2013-9-9T13:26:41Z</time></trkpt>
<trkpt lat="46.480557080358267" lon="6.969782989472151"><ele></ele><time>2013-9-9T13:26:44Z</time></trkpt>
<trkpt lat="46.480495892465115" lon="6.970043750479817"><ele></ele><time>2013-9-9T13:26:47Z</time></trkpt>
<trkpt lat="46.480448367074132" lon="6.970297303050757"><ele></ele><time>2013-9-9T13:26:50Z</time></trkpt>
<trkpt lat="46.480468148365617" lon="6.970399897545576"><ele></ele><time>2013-9-9T13:26:53Z</time></trkpt>
<trkpt lat="46.480471836403012" lon="6.9704211037606"><ele></ele><time>2013-9-9T13:26:56Z</time></trkpt>
<trkpt lat="46.480474602431059" lon="6.970444405451417"><ele></ele><time>2013-9-9T13:26:59Z</time></trkpt>
<trkpt lat="46.480478793382645" lon="6.970464270561934"><ele></ele><time>2013-9-9T13:27:2Z</time></trkpt>
<trkpt lat="46.480479463934898" lon="6.970488158985972"><ele></ele><time>2013-9-9T13:27:5Z</time></trkpt>
<trkpt lat="46.480481056496501" lon="6.970513472333551"><ele></ele><time>2013-9-9T13:27:8Z</time></trkpt>
<trkpt lat="46.480478206649423" lon="6.970624700188637"><ele></ele><time>2013-9-9T13:27:11Z</time></trkpt>
<trkpt lat="46.480471501126885" lon="6.970656383782625"><ele></ele><time>2013-9-9T13:27:14Z</time></trkpt>
<trkpt lat="46.480461778119206" lon="6.970672309398651"><ele></ele><time>2013-9-9T13:27:17Z</time></trkpt>
<trkpt lat="46.480454904958606" lon="6.970692258328199"><ele></ele><time>2013-9-9T13:27:20Z</time></trkpt>
<trkpt lat="46.480445098131895" lon="6.970712710171938"><ele></ele><time>2013-9-9T13:27:23Z</time></trkpt>
<trkpt lat="46.480431435629725" lon="6.970731234177947"><ele></ele><time>2013-9-9T13:27:26Z</time></trkpt>
<trkpt lat="46.48038131184876" lon="6.970747159793973"><ele></ele><time>2013-9-9T13:27:29Z</time></trkpt>
<trkpt lat="46.480371169745922" lon="6.970751769840717"><ele></ele><time>2013-9-9T13:27:32Z</time></trkpt>
<trkpt lat="46.480359854176641" lon="6.970756882801652"><ele></ele><time>2013-9-9T13:27:35Z</time></trkpt>
<trkpt lat="46.480346946045756" lon="6.970754032954574"><ele></ele><time>2013-9-9T13:27:38Z</time></trkpt>
<trkpt lat="46.480309898033738" lon="6.970728300511837"><ele></ele><time>2013-9-9T13:27:41Z</time></trkpt>
<trkpt lat="46.480296151712537" lon="6.970716565847397"><ele></ele><time>2013-9-9T13:27:44Z</time></trkpt>
<trkpt lat="46.480286931619048" lon="6.970706004649401"><ele></ele><time>2013-9-9T13:27:47Z</time></trkpt>
<trkpt lat="46.480274023488164" lon="6.97070105932653"><ele></ele><time>2013-9-9T13:27:50Z</time></trkpt>
<trkpt lat="46.480258600786328" lon="6.97070206515491"><ele></ele><time>2013-9-9T13:27:53Z</time></trkpt>
<trkpt lat="46.480216775089502" lon="6.970711955800653"><ele></ele><time>2013-9-9T13:27:56Z</time></trkpt>
<trkpt lat="46.480203783139586" lon="6.970712626352906"><ele></ele><time>2013-9-9T13:27:59Z</time></trkpt>
<trkpt lat="46.480191294103861" lon="6.970709608867765"><ele></ele><time>2013-9-9T13:28:2Z</time></trkpt>
<trkpt lat="46.480182744562626" lon="6.97070105932653"><ele></ele><time>2013-9-9T13:28:5Z</time></trkpt>
<trkpt lat="46.480177296325564" lon="6.970683289691806"><ele></ele><time>2013-9-9T13:28:8Z</time></trkpt>
<trkpt lat="46.480160113424063" lon="6.970658730715513"><ele></ele><time>2013-9-9T13:28:11Z</time></trkpt>
<trkpt lat="46.480136141180992" lon="6.970650097355247"><ele></ele><time>2013-9-9T13:28:14Z</time></trkpt>
<trkpt lat="46.480121975764632" lon="6.970646493136883"><ele></ele><time>2013-9-9T13:28:17Z</time></trkpt>
<trkpt lat="46.480109822005033" lon="6.970637105405331"><ele></ele><time>2013-9-9T13:28:20Z</time></trkpt>
<trkpt lat="46.480100266635418" lon="6.970622604712844"><ele></ele><time>2013-9-9T13:28:23Z</time></trkpt>
<trkpt lat="46.480091717094183" lon="6.970611708238721"><ele></ele><time>2013-9-9T13:28:26Z</time></trkpt>
<trkpt lat="46.480052405968308" lon="6.97054767049849"><ele></ele><time>2013-9-9T13:28:29Z</time></trkpt>
<trkpt lat="46.480044610798359" lon="6.970531912520528"><ele></ele><time>2013-9-9T13:28:32Z</time></trkpt>
<trkpt lat="46.480035977438092" lon="6.970517411828041"><ele></ele><time>2013-9-9T13:28:35Z</time></trkpt>
<trkpt lat="46.480022817850113" lon="6.970505174249411"><ele></ele><time>2013-9-9T13:28:38Z</time></trkpt>
<trkpt lat="46.480012005195022" lon="6.970491260290146"><ele></ele><time>2013-9-9T13:28:41Z</time></trkpt>
<trkpt lat="46.479955511167645" lon="6.970416409894824"><ele></ele><time>2013-9-9T13:28:44Z</time></trkpt>
<trkpt lat="46.479927264153957" lon="6.97031213901937"><ele></ele><time>2013-9-9T13:28:47Z</time></trkpt>
<trkpt lat="46.479932544752955" lon="6.970275091007352"><ele></ele><time>2013-9-9T13:28:50Z</time></trkpt>
<trkpt lat="46.47994109429419" lon="6.970256734639406"><ele></ele><time>2013-9-9T13:28:53Z</time></trkpt>
<trkpt lat="46.479949643835425" lon="6.970239467918873"><ele></ele><time>2013-9-9T13:28:56Z</time></trkpt>
<trkpt lat="46.479954505339265" lon="6.97022664360702"><ele></ele><time>2013-9-9T13:28:59Z</time></trkpt>
<trkpt lat="46.479961210861802" lon="6.970210298895836"><ele></ele><time>2013-9-9T13:29:2Z</time></trkpt>
<trkpt lat="46.479980070143938" lon="6.970155145972967"><ele></ele><time>2013-9-9T13:29:5Z</time></trkpt>
<trkpt lat="46.480022147297859" lon="6.970060430467129"><ele></ele><time>2013-9-9T13:29:8Z</time></trkpt>
<trkpt lat="46.479976046830416" lon="6.970206191763282"><ele></ele><time>2013-9-9T13:29:11Z</time></trkpt>
<trkpt lat="46.479918798431754" lon="6.970301661640406"><ele></ele><time>2013-9-9T13:29:14Z</time></trkpt>
<trkpt lat="46.479880744591355" lon="6.970346421003342"><ele></ele><time>2013-9-9T13:29:17Z</time></trkpt>
<trkpt lat="46.479850402101874" lon="6.970380116254091"><ele></ele><time>2013-9-9T13:29:20Z</time></trkpt>
<trkpt lat="46.479809498414397" lon="6.970392102375627"><ele></ele><time>2013-9-9T13:29:23Z</time></trkpt>
<trkpt lat="46.479806397110224" lon="6.970394449308515"><ele></ele><time>2013-9-9T13:29:26Z</time></trkpt>
<trkpt lat="46.47980329580605" lon="6.970393108204007"><ele></ele><time>2013-9-9T13:29:29Z</time></trkpt>
<trkpt lat="46.476411307230592" lon="6.967532113194466"><ele></ele><time>2013-9-9T13:29:32Z</time></trkpt>
<trkpt lat="46.476421784609556" lon="6.967510487884283"><ele></ele><time>2013-9-9T13:29:35Z</time></trkpt>
<trkpt lat="46.476425724104047" lon="6.967482576146722"><ele></ele><time>2013-9-9T13:29:38Z</time></trkpt>
<trkpt lat="46.476457826793194" lon="6.967434966936708"><ele></ele><time>2013-9-9T13:29:41Z</time></trkpt>
<trkpt lat="46.476465286687016" lon="6.96741359308362"><ele></ele><time>2013-9-9T13:29:44Z</time></trkpt>
<trkpt lat="46.476478194817901" lon="6.967333042994142"><ele></ele><time>2013-9-9T13:29:47Z</time></trkpt>
<trkpt lat="46.476485067978501" lon="6.967305634170771"><ele></ele><time>2013-9-9T13:29:50Z</time></trkpt>
<trkpt lat="46.476489426568151" lon="6.967279147356749"><ele></ele><time>2013-9-9T13:29:53Z</time></trkpt>
<trkpt lat="46.476483810693026" lon="6.967254085466266"><ele></ele><time>2013-9-9T13:29:56Z</time></trkpt>
<trkpt lat="46.476472746580839" lon="6.967246793210506"><ele></ele><time>2013-9-9T13:29:59Z</time></trkpt>
<trkpt lat="46.476418850943446" lon="6.967248553410173"><ele></ele><time>2013-9-9T13:30:2Z</time></trkpt>
<trkpt lat="46.47640191949904" lon="6.967252157628536"><ele></ele><time>2013-9-9T13:30:5Z</time></trkpt>
<trkpt lat="46.47632815875113" lon="6.967268334701657"><ele></ele><time>2013-9-9T13:30:8Z</time></trkpt>
<trkpt lat="46.47622698917985" lon="6.967275375500321"><ele></ele><time>2013-9-9T13:30:11Z</time></trkpt>
<trkpt lat="46.476058512926102" lon="6.967296665534377"><ele></ele><time>2013-9-9T13:30:14Z</time></trkpt>
<trkpt lat="46.476028757169843" lon="6.967299683019519"><ele></ele><time>2013-9-9T13:30:17Z</time></trkpt>
<trkpt lat="46.475997492671013" lon="6.967296246439219"><ele></ele><time>2013-9-9T13:30:20Z</time></trkpt>
<trkpt lat="46.475964300334454" lon="6.967299515381455"><ele></ele><time>2013-9-9T13:30:23Z</time></trkpt>
<trkpt lat="46.475926833227277" lon="6.96729532442987"><ele></ele><time>2013-9-9T13:30:26Z</time></trkpt>
<trkpt lat="46.475882157683372" lon="6.96730513125658"><ele></ele><time>2013-9-9T13:30:29Z</time></trkpt>
<trkpt lat="46.47569683380425" lon="6.967352405190468"><ele></ele><time>2013-9-9T13:30:32Z</time></trkpt>
<trkpt lat="46.475649895146489" lon="6.96736665442586"><ele></ele><time>2013-9-9T13:30:35Z</time></trkpt>
<trkpt lat="46.475605638697743" lon="6.967374114319682"><ele></ele><time>2013-9-9T13:30:38Z</time></trkpt>
<trkpt lat="46.475557945668697" lon="6.967382915318012"><ele></ele><time>2013-9-9T13:30:41Z</time></trkpt>
<trkpt lat="46.475512767210603" lon="6.967392722144723"><ele></ele><time>2013-9-9T13:30:44Z</time></trkpt>
<trkpt lat="46.475283270701766" lon="6.967445109039545"><ele></ele><time>2013-9-9T13:30:47Z</time></trkpt>
<trkpt lat="46.47523264400661" lon="6.967470925301313"><ele></ele><time>2013-9-9T13:30:50Z</time></trkpt>
<trkpt lat="46.475179083645344" lon="6.967490958049893"><ele></ele><time>2013-9-9T13:30:53Z</time></trkpt>
<trkpt lat="46.475122924894094" lon="6.967509565874934"><ele></ele><time>2013-9-9T13:30:56Z</time></trkpt>
<trkpt lat="46.475068777799606" lon="6.967533957213163"><ele></ele><time>2013-9-9T13:30:59Z</time></trkpt>
<trkpt lat="46.475016893818974" lon="6.967557342723012"><ele></ele><time>2013-9-9T13:31:2Z</time></trkpt>
<trkpt lat="46.474965931847692" lon="6.967582404613495"><ele></ele><time>2013-9-9T13:31:5Z</time></trkpt>
<trkpt lat="46.474915640428662" lon="6.967604449018836"><ele></ele><time>2013-9-9T13:31:8Z</time></trkpt>
<trkpt lat="46.47486031986773" lon="6.967630349099636"><ele></ele><time>2013-9-9T13:31:11Z</time></trkpt>
<trkpt lat="46.474811034277081" lon="6.967658679932356"><ele></ele><time>2013-9-9T13:31:14Z</time></trkpt>
<trkpt lat="46.474697627127171" lon="6.967715173959732"><ele></ele><time>2013-9-9T13:31:17Z</time></trkpt>
<trkpt lat="46.474640043452382" lon="6.96773461997509"><ele></ele><time>2013-9-9T13:31:20Z</time></trkpt>
<trkpt lat="46.47458178922534" lon="6.967760100960732"><ele></ele><time>2013-9-9T13:31:23Z</time></trkpt>
<trkpt lat="46.474524876102805" lon="6.967786671593785"><ele></ele><time>2013-9-9T13:31:26Z</time></trkpt>
<trkpt lat="46.474464945495129" lon="6.967815086245537"><ele></ele><time>2013-9-9T13:31:29Z</time></trkpt>
<trkpt lat="46.474404763430357" lon="6.967839142307639"><ele></ele><time>2013-9-9T13:31:32Z</time></trkpt>
<trkpt lat="46.47434139624238" lon="6.967861605808139"><ele></ele><time>2013-9-9T13:31:35Z</time></trkpt>
<trkpt lat="46.47428180091083" lon="6.967895133420825"><ele></ele><time>2013-9-9T13:31:38Z</time></trkpt>
<trkpt lat="46.474222708493471" lon="6.967925978824496"><ele></ele><time>2013-9-9T13:31:41Z</time></trkpt>
<trkpt lat="46.474164789542556" lon="6.967953974381089"><ele></ele><time>2013-9-9T13:31:44Z</time></trkpt>
<trkpt lat="46.474105445668101" lon="6.967981550842524"><ele></ele><time>2013-9-9T13:31:47Z</time></trkpt>
<trkpt lat="46.473923390731215" lon="6.968057909980416"><ele></ele><time>2013-9-9T13:31:50Z</time></trkpt>
<trkpt lat="46.473862286657095" lon="6.96808498352766"><ele></ele><time>2013-9-9T13:31:53Z</time></trkpt>
<trkpt lat="46.473803445696831" lon="6.968113817274571"><ele></ele><time>2013-9-9T13:31:56Z</time></trkpt>
<trkpt lat="46.473743515089154" lon="6.968136783689261"><ele></ele><time>2013-9-9T13:31:59Z</time></trkpt>
<trkpt lat="46.473685428500175" lon="6.968158492818475"><ele></ele><time>2013-9-9T13:32:2Z</time></trkpt>
<trkpt lat="46.473346212878823" lon="6.968224877491593"><ele></ele><time>2013-9-9T13:32:5Z</time></trkpt>
<trkpt lat="46.473295167088509" lon="6.968218255788088"><ele></ele><time>2013-9-9T13:32:8Z</time></trkpt>
<trkpt lat="46.473167426884174" lon="6.968140974640846"><ele></ele><time>2013-9-9T13:32:11Z</time></trkpt>
<trkpt lat="46.473110849037766" lon="6.968090180307627"><ele></ele><time>2013-9-9T13:32:14Z</time></trkpt>
<trkpt lat="46.473067766055465" lon="6.968051791191101"><ele></ele><time>2013-9-9T13:32:17Z</time></trkpt>
<trkpt lat="46.472941283136606" lon="6.967867892235518"><ele></ele><time>2013-9-9T13:32:20Z</time></trkpt>
<trkpt lat="46.47292535752058" lon="6.967839309945703"><ele></ele><time>2013-9-9T13:32:23Z</time></trkpt>
<trkpt lat="46.472913539037108" lon="6.967801172286272"><ele></ele><time>2013-9-9T13:32:26Z</time></trkpt>
<trkpt lat="46.472896272316575" lon="6.967756412923336"><ele></ele><time>2013-9-9T13:32:29Z</time></trkpt>
<trkpt lat="46.472874647006392" lon="6.967704277485609"><ele></ele><time>2013-9-9T13:32:32Z</time></trkpt>
<trkpt lat="46.472845477983356" lon="6.967658512294292"><ele></ele><time>2013-9-9T13:32:35Z</time></trkpt>
<trkpt lat="46.472810609266162" lon="6.967605287209153"><ele></ele><time>2013-9-9T13:32:38Z</time></trkpt>
<trkpt lat="46.472768783569336" lon="6.96755382232368"><ele></ele><time>2013-9-9T13:32:41Z</time></trkpt>
<trkpt lat="46.472727376967669" lon="6.967503782361746"><ele></ele><time>2013-9-9T13:32:44Z</time></trkpt>
<trkpt lat="46.472684629261494" lon="6.967455670237541"><ele></ele><time>2013-9-9T13:32:47Z</time></trkpt>
<trkpt lat="46.472641630098224" lon="6.967420717701316"><ele></ele><time>2013-9-9T13:32:50Z</time></trkpt>
<trkpt lat="46.472599050030112" lon="6.967398170381784"><ele></ele><time>2013-9-9T13:32:53Z</time></trkpt>
<trkpt lat="46.472562169656157" lon="6.967373611405492"><ele></ele><time>2013-9-9T13:32:56Z</time></trkpt>
<trkpt lat="46.47251489572227" lon="6.967363469302654"><ele></ele><time>2013-9-9T13:32:59Z</time></trkpt>
<trkpt lat="46.472465861588717" lon="6.967358272522688"><ele></ele><time>2013-9-9T13:33:2Z</time></trkpt>
<trkpt lat="46.472413055598736" lon="6.967355757951737"><ele></ele><time>2013-9-9T13:33:5Z</time></trkpt>
<trkpt lat="46.472362847998738" lon="6.96735885925591"><ele></ele><time>2013-9-9T13:33:8Z</time></trkpt>
<trkpt lat="46.472317166626453" lon="6.967366486787796"><ele></ele><time>2013-9-9T13:33:11Z</time></trkpt>
<trkpt lat="46.472278945147991" lon="6.967388615012169"><ele></ele><time>2013-9-9T13:33:14Z</time></trkpt>
<trkpt lat="46.472241813316941" lon="6.967418286949396"><ele></ele><time>2013-9-9T13:33:17Z</time></trkpt>
<trkpt lat="46.472173081710935" lon="6.967512667179108"><ele></ele><time>2013-9-9T13:33:20Z</time></trkpt>
<trkpt lat="46.472138045355678" lon="6.967577040195465"><ele></ele><time>2013-9-9T13:33:23Z</time></trkpt>
<trkpt lat="46.472102757543325" lon="6.967647699639201"><ele></ele><time>2013-9-9T13:33:26Z</time></trkpt>
<trkpt lat="46.472065877169371" lon="6.967710144817829"><ele></ele><time>2013-9-9T13:33:29Z</time></trkpt>
<trkpt lat="46.472034277394414" lon="6.967759598046541"><ele></ele><time>2013-9-9T13:33:32Z</time></trkpt>
<trkpt lat="46.472008042037487" lon="6.96781131438911"><ele></ele><time>2013-9-9T13:33:35Z</time></trkpt>
<trkpt lat="46.471969736739993" lon="6.967903515323997"><ele></ele><time>2013-9-9T13:33:38Z</time></trkpt>
<trkpt lat="46.4719607681036" lon="6.968059251084924"><ele></ele><time>2013-9-9T13:33:41Z</time></trkpt>
<trkpt lat="46.471976358443499" lon="6.968094287440181"><ele></ele><time>2013-9-9T13:33:44Z</time></trkpt>
<trkpt lat="46.472083562985063" lon="6.968175424262881"><ele></ele><time>2013-9-9T13:33:47Z</time></trkpt>
<trkpt lat="46.472263103350997" lon="6.968269720673561"><ele></ele><time>2013-9-9T13:33:50Z</time></trkpt>
<trkpt lat="46.472448762506247" lon="6.968376589938998"><ele></ele><time>2013-9-9T13:33:53Z</time></trkpt>
<trkpt lat="46.47258429788053" lon="6.968509694561362"><ele></ele><time>2013-9-9T13:33:56Z</time></trkpt>
<trkpt lat="46.472614891827106" lon="6.968538528308272"><ele></ele><time>2013-9-9T13:33:59Z</time></trkpt>
<trkpt lat="46.472759312018752" lon="6.96868940256536"><ele></ele><time>2013-9-9T13:34:2Z</time></trkpt>
<trkpt lat="46.472847824916244" lon="6.968895010650158"><ele></ele><time>2013-9-9T13:34:5Z</time></trkpt>
<trkpt lat="46.472892165184021" lon="6.969050159677863"><ele></ele><time>2013-9-9T13:34:8Z</time></trkpt>
<trkpt lat="46.472888980060816" lon="6.969137834385037"><ele></ele><time>2013-9-9T13:34:11Z</time></trkpt>
<trkpt lat="46.472888141870499" lon="6.96914185769856"><ele></ele><time>2013-9-9T13:34:14Z</time></trkpt>
<trkpt lat="46.472891997545958" lon="6.969206817448139"><ele></ele><time>2013-9-9T13:34:17Z</time></trkpt>
<trkpt lat="46.472892081364989" lon="6.969272112473846"><ele></ele><time>2013-9-9T13:34:20Z</time></trkpt>
<trkpt lat="46.472872132435441" lon="6.96941158734262"><ele></ele><time>2013-9-9T13:34:23Z</time></trkpt>
<trkpt lat="46.47286425344646" lon="6.969438744708896"><ele></ele><time>2013-9-9T13:34:26Z</time></trkpt>
<trkpt lat="46.472858805209398" lon="6.969463052228093"><ele></ele><time>2013-9-9T13:34:29Z</time></trkpt>
<trkpt lat="46.472846064716578" lon="6.969488365575671"><ele></ele><time>2013-9-9T13:34:32Z</time></trkpt>
<trkpt lat="46.472833743318915" lon="6.969505380839109"><ele></ele><time>2013-9-9T13:34:35Z</time></trkpt>
<trkpt lat="46.472782278433442" lon="6.969582242891192"><ele></ele><time>2013-9-9T13:34:38Z</time></trkpt>
<trkpt lat="46.472726203501225" lon="6.96973504498601"><ele></ele><time>2013-9-9T13:34:41Z</time></trkpt>
<trkpt lat="46.472718240693212" lon="6.969755664467812"><ele></ele><time>2013-9-9T13:34:44Z</time></trkpt>
<trkpt lat="46.472710780799389" lon="6.969782570376992"><ele></ele><time>2013-9-9T13:34:47Z</time></trkpt>
<trkpt lat="46.47270055487752" lon="6.969805369153619"><ele></ele><time>2013-9-9T13:34:50Z</time></trkpt>
<trkpt lat="46.47269032895565" lon="6.969837639480829"><ele></ele><time>2013-9-9T13:34:53Z</time></trkpt>
<trkpt lat="46.472684964537621" lon="6.969862785190344"><ele></ele><time>2013-9-9T13:34:56Z</time></trkpt>
<trkpt lat="46.472680019214749" lon="6.969881393015385"><ele></ele><time>2013-9-9T13:34:59Z</time></trkpt>
<trkpt lat="46.472617574036121" lon="6.970055820420384"><ele></ele><time>2013-9-9T13:35:2Z</time></trkpt>
<trkpt lat="46.472596786916256" lon="6.970106530934572"><ele></ele><time>2013-9-9T13:35:5Z</time></trkpt>
<trkpt lat="46.472587147727609" lon="6.970127318054438"><ele></ele><time>2013-9-9T13:35:8Z</time></trkpt>
<trkpt lat="46.472571976482868" lon="6.970144668594003"><ele></ele><time>2013-9-9T13:35:11Z</time></trkpt>
<trkpt lat="46.472556218504906" lon="6.970167215913534"><ele></ele><time>2013-9-9T13:35:14Z</time></trkpt>
<trkpt lat="46.472541969269514" lon="6.970195043832064"><ele></ele><time>2013-9-9T13:35:17Z</time></trkpt>
<trkpt lat="46.472479775547981" lon="6.970285652205348"><ele></ele><time>2013-9-9T13:35:20Z</time></trkpt>
<trkpt lat="46.472449600696564" lon="6.970483297482133"><ele></ele><time>2013-9-9T13:35:23Z</time></trkpt>
<trkpt lat="46.472492851316929" lon="6.970634423196316"><ele></ele><time>2013-9-9T13:35:26Z</time></trkpt>
<trkpt lat="46.472591506317258" lon="6.970818322151899"><ele></ele><time>2013-9-9T13:35:29Z</time></trkpt>
<trkpt lat="46.472592931240797" lon="6.9710030592978"><ele></ele><time>2013-9-9T13:35:32Z</time></trkpt>
<trkpt lat="46.472506010904908" lon="6.971169942989945"><ele></ele><time>2013-9-9T13:35:35Z</time></trkpt>
<trkpt lat="46.472406852990389" lon="6.971342694014311"><ele></ele><time>2013-9-9T13:35:38Z</time></trkpt>
<trkpt lat="46.472386736422777" lon="6.971382927149534"><ele></ele><time>2013-9-9T13:35:41Z</time></trkpt>
<trkpt lat="46.472366284579039" lon="6.971414778381586"><ele></ele><time>2013-9-9T13:35:44Z</time></trkpt>
<trkpt lat="46.472350778058171" lon="6.971443863585591"><ele></ele><time>2013-9-9T13:35:47Z</time></trkpt>
<trkpt lat="46.472268216311932" lon="6.971547296270728"><ele></ele><time>2013-9-9T13:35:50Z</time></trkpt>
<trkpt lat="46.472148690372705" lon="6.971652489155531"><ele></ele><time>2013-9-9T13:35:53Z</time></trkpt>
<trkpt lat="46.471973424777389" lon="6.971791377291083"><ele></ele><time>2013-9-9T13:35:56Z</time></trkpt>
<trkpt lat="46.471817186102271" lon="6.971923392266035"><ele></ele><time>2013-9-9T13:35:59Z</time></trkpt>
<trkpt lat="46.471776030957699" lon="6.971960105001926"><ele></ele><time>2013-9-9T13:36:2Z</time></trkpt>
<trkpt lat="46.471758345142007" lon="6.971975779160857"><ele></ele><time>2013-9-9T13:36:5Z</time></trkpt>
<trkpt lat="46.471742168068886" lon="6.971991788595915"><ele></ele><time>2013-9-9T13:36:8Z</time></trkpt>
<trkpt lat="46.471727667376399" lon="6.972005954012275"><ele></ele><time>2013-9-9T13:36:11Z</time></trkpt>
<trkpt lat="46.471708305180073" lon="6.97201743721962"><ele></ele><time>2013-9-9T13:36:14Z</time></trkpt>
<trkpt lat="46.471693385392427" lon="6.972019365057349"><ele></ele><time>2013-9-9T13:36:17Z</time></trkpt>
<trkpt lat="46.471566986292601" lon="6.972017101943493"><ele></ele><time>2013-9-9T13:36:20Z</time></trkpt>
<trkpt lat="46.471430612728" lon="6.971934456378222"><ele></ele><time>2013-9-9T13:36:23Z</time></trkpt>
<trkpt lat="46.471413010731339" lon="6.971919536590576"><ele></ele><time>2013-9-9T13:36:26Z</time></trkpt>
<trkpt lat="46.471394151449203" lon="6.971904616802931"><ele></ele><time>2013-9-9T13:36:29Z</time></trkpt>
<trkpt lat="46.471374873071909" lon="6.971895480528474"><ele></ele><time>2013-9-9T13:36:32Z</time></trkpt>
<trkpt lat="46.471293233335018" lon="6.971868993714452"><ele></ele><time>2013-9-9T13:36:35Z</time></trkpt>
<trkpt lat="46.471254844218493" lon="6.97188357822597"><ele></ele><time>2013-9-9T13:36:38Z</time></trkpt>
<trkpt lat="46.471236068755388" lon="6.971896151080728"><ele></ele><time>2013-9-9T13:36:41Z</time></trkpt>
<trkpt lat="46.471217544749379" lon="6.971913753077388"><ele></ele><time>2013-9-9T13:36:44Z</time></trkpt>
<trkpt lat="46.471198350191116" lon="6.971929678693414"><ele></ele><time>2013-9-9T13:36:47Z</time></trkpt>
<trkpt lat="46.471182005479932" lon="6.971947532147169"><ele></ele><time>2013-9-9T13:36:50Z</time></trkpt>
<trkpt lat="46.471164906397462" lon="6.971966391429305"><ele></ele><time>2013-9-9T13:36:53Z</time></trkpt>
<trkpt lat="46.471029873937368" lon="6.972118439152837"><ele></ele><time>2013-9-9T13:36:56Z</time></trkpt>
<trkpt lat="46.470965417101979" lon="6.972179627045989"><ele></ele><time>2013-9-9T13:36:59Z</time></trkpt>
<trkpt lat="46.470931805670261" lon="6.972218435257673"><ele></ele><time>2013-9-9T13:37:2Z</time></trkpt>
<trkpt lat="46.470918729901314" lon="6.972239809110761"><ele></ele><time>2013-9-9T13:37:5Z</time></trkpt>
<trkpt lat="46.47090439684689" lon="6.972251208499074"><ele></ele><time>2013-9-9T13:37:8Z</time></trkpt>
<trkpt lat="46.470889057964087" lon="6.972267888486385"><ele></ele><time>2013-9-9T13:37:11Z</time></trkpt>
<trkpt lat="46.470877239480615" lon="6.972289262339473"><ele></ele><time>2013-9-9T13:37:14Z</time></trkpt>
<trkpt lat="46.470867684110999" lon="6.972313234582543"><ele></ele><time>2013-9-9T13:37:17Z</time></trkpt>
<trkpt lat="46.470857039093971" lon="6.972338212653995"><ele></ele><time>2013-9-9T13:37:20Z</time></trkpt>
<trkpt lat="46.470798701047897" lon="6.972503168508411"><ele></ele><time>2013-9-9T13:37:23Z</time></trkpt>
<trkpt lat="46.470790822058916" lon="6.972526051104069"><ele></ele><time>2013-9-9T13:37:26Z</time></trkpt>
<trkpt lat="46.470781182870269" lon="6.972549017518759"><ele></ele><time>2013-9-9T13:37:29Z</time></trkpt>
<trkpt lat="46.470773303881288" lon="6.972573744133115"><ele></ele><time>2013-9-9T13:37:32Z</time></trkpt>
<trkpt lat="46.470765424892306" lon="6.972596710547805"><ele></ele><time>2013-9-9T13:37:35Z</time></trkpt>
<trkpt lat="46.470757964998484" lon="6.972615150734782"><ele></ele><time>2013-9-9T13:37:38Z</time></trkpt>
<trkpt lat="46.470744721591473" lon="6.972639877349138"><ele></ele><time>2013-9-9T13:37:41Z</time></trkpt>
<trkpt lat="46.470685629174113" lon="6.972714811563492"><ele></ele><time>2013-9-9T13:37:44Z</time></trkpt>
<trkpt lat="46.470671212300658" lon="6.972733838483691"><ele></ele><time>2013-9-9T13:37:47Z</time></trkpt>
<trkpt lat="46.470614299178123" lon="6.972776167094708"><ele></ele><time>2013-9-9T13:37:50Z</time></trkpt>
<trkpt lat="46.470585130155087" lon="6.97278555482626"><ele></ele><time>2013-9-9T13:37:53Z</time></trkpt>
<trkpt lat="46.470556128770113" lon="6.972796199843288"><ele></ele><time>2013-9-9T13:37:56Z</time></trkpt>
<trkpt lat="46.470543472096324" lon="6.972799971699715"><ele></ele><time>2013-9-9T13:37:59Z</time></trkpt>
<trkpt lat="46.470529474318027" lon="6.972812963649631"><ele></ele><time>2013-9-9T13:38:2Z</time></trkpt>
<trkpt lat="46.470512878149748" lon="6.972812293097377"><ele></ele><time>2013-9-9T13:38:5Z</time></trkpt>
<trkpt lat="46.470498461276293" lon="6.972812376916409"><ele></ele><time>2013-9-9T13:38:8Z</time></trkpt>
<trkpt lat="46.470484463497996" lon="6.972810365259647"><ele></ele><time>2013-9-9T13:38:11Z</time></trkpt>
<trkpt lat="46.470381449908018" lon="6.972808856517077"><ele></ele><time>2013-9-9T13:38:14Z</time></trkpt>
<trkpt lat="46.470365608111024" lon="6.972810868173838"><ele></ele><time>2013-9-9T13:38:17Z</time></trkpt>
<trkpt lat="46.470351107418537" lon="6.972813131287694"><ele></ele><time>2013-9-9T13:38:20Z</time></trkpt>
<trkpt lat="46.470335852354765" lon="6.972813047468662"><ele></ele><time>2013-9-9T13:38:23Z</time></trkpt>
<trkpt lat="46.470275837928057" lon="6.972819250077009"><ele></ele><time>2013-9-9T13:38:26Z</time></trkpt>
<trkpt lat="46.470219008624554" lon="6.972808940336108"><ele></ele><time>2013-9-9T13:38:29Z</time></trkpt>
<trkpt lat="46.470200652256608" lon="6.972814723849297"><ele></ele><time>2013-9-9T13:38:32Z</time></trkpt>
<trkpt lat="46.470181122422218" lon="6.972816232591867"><ele></ele><time>2013-9-9T13:38:35Z</time></trkpt>
<trkpt lat="46.470163268968463" lon="6.972818579524756"><ele></ele><time>2013-9-9T13:38:38Z</time></trkpt>
<trkpt lat="46.470146672800183" lon="6.972814723849297"><ele></ele><time>2013-9-9T13:38:41Z</time></trkpt>
<trkpt lat="46.470131585374475" lon="6.972810197621584"><ele></ele><time>2013-9-9T13:38:44Z</time></trkpt>
<trkpt lat="46.470101997256279" lon="6.972794523462653"><ele></ele><time>2013-9-9T13:38:47Z</time></trkpt>
<trkpt lat="46.470067547634244" lon="6.972788907587528"><ele></ele><time>2013-9-9T13:38:50Z</time></trkpt>
<trkpt lat="46.46999454125762" lon="6.972766444087029"><ele></ele><time>2013-9-9T13:38:53Z</time></trkpt>
<trkpt lat="46.469978028908372" lon="6.972765773534775"><ele></ele><time>2013-9-9T13:38:56Z</time></trkpt>
<trkpt lat="46.469962019473314" lon="6.972760995849967"><ele></ele><time>2013-9-9T13:38:59Z</time></trkpt>
<trkpt lat="46.469946764409542" lon="6.972755463793874"><ele></ele><time>2013-9-9T13:39:2Z</time></trkpt>
<trkpt lat="46.46986898034811" lon="6.972740879282355"><ele></ele><time>2013-9-9T13:39:5Z</time></trkpt>
<trkpt lat="46.469775857403874" lon="6.972721349447966"><ele></ele><time>2013-9-9T13:39:8Z</time></trkpt>
<trkpt lat="46.469611655920744" lon="6.972630405798554"><ele></ele><time>2013-9-9T13:39:11Z</time></trkpt>
<trkpt lat="46.469434965401888" lon="6.972549185156822"><ele></ele><time>2013-9-9T13:39:14Z</time></trkpt>
<trkpt lat="46.469194740056992" lon="6.972532086074352"><ele></ele><time>2013-9-9T13:39:17Z</time></trkpt>
<trkpt lat="46.468842197209597" lon="6.972521273419261"><ele></ele><time>2013-9-9T13:39:20Z</time></trkpt>
<trkpt lat="46.468654610216618" lon="6.972549939528108"><ele></ele><time>2013-9-9T13:39:23Z</time></trkpt>
<trkpt lat="46.468469370156527" lon="6.972666447982192"><ele></ele><time>2013-9-9T13:39:26Z</time></trkpt>
<trkpt lat="46.468445481732488" lon="6.9727005623281"><ele></ele><time>2013-9-9T13:39:29Z</time></trkpt>
<trkpt lat="46.468423353508115" lon="6.972741046920419"><ele></ele><time>2013-9-9T13:39:32Z</time></trkpt>
<trkpt lat="46.468400387093425" lon="6.972780777141452"><ele></ele><time>2013-9-9T13:39:35Z</time></trkpt>
<trkpt lat="46.468372140079737" lon="6.97281681932509"><ele></ele><time>2013-9-9T13:39:38Z</time></trkpt>
<trkpt lat="46.468337858095765" lon="6.972843976691365"><ele></ele><time>2013-9-9T13:39:41Z</time></trkpt>
<trkpt lat="46.468188660219312" lon="6.972844395786524"><ele></ele><time>2013-9-9T13:39:44Z</time></trkpt>
<trkpt lat="46.468004006892443" lon="6.972866859287024"><ele></ele><time>2013-9-9T13:39:47Z</time></trkpt>
<trkpt lat="46.467918595299125" lon="6.972970208153129"><ele></ele><time>2013-9-9T13:39:50Z</time></trkpt>
<trkpt lat="46.467894623056054" lon="6.973017062991858"><ele></ele><time>2013-9-9T13:39:53Z</time></trkpt>
<trkpt lat="46.467874757945538" lon="6.973064253106713"><ele></ele><time>2013-9-9T13:39:56Z</time></trkpt>
<trkpt lat="46.467864196747541" lon="6.973111359402537"><ele></ele><time>2013-9-9T13:39:59Z</time></trkpt>
<trkpt lat="46.467859083786607" lon="6.973158633336425"><ele></ele><time>2013-9-9T13:40:2Z</time></trkpt>
<trkpt lat="46.467849360778928" lon="6.973307160660625"><ele></ele><time>2013-9-9T13:40:5Z</time></trkpt>
<trkpt lat="46.467823041602969" lon="6.973387040197849"><ele></ele><time>2013-9-9T13:40:8Z</time></trkpt>
<trkpt lat="46.46776931360364" lon="6.973444204777479"><ele></ele><time>2013-9-9T13:40:11Z</time></trkpt>
<trkpt lat="46.467641154304147" lon="6.973440935835242"><ele></ele><time>2013-9-9T13:40:14Z</time></trkpt>
<trkpt lat="46.467367652803659" lon="6.973363235592842"><ele></ele><time>2013-9-9T13:40:17Z</time></trkpt>
<trkpt lat="46.467087948694825" lon="6.973327109590173"><ele></ele><time>2013-9-9T13:40:20Z</time></trkpt>
<trkpt lat="46.467050900682807" lon="6.973316464573145"><ele></ele><time>2013-9-9T13:40:23Z</time></trkpt>
<trkpt lat="46.467014439404011" lon="6.973301460966468"><ele></ele><time>2013-9-9T13:40:26Z</time></trkpt>
<trkpt lat="46.466977642849088" lon="6.973284026607871"><ele></ele><time>2013-9-9T13:40:29Z</time></trkpt>
<trkpt lat="46.46694109775126" lon="6.973266005516052"><ele></ele><time>2013-9-9T13:40:32Z</time></trkpt>
<trkpt lat="46.466905055567622" lon="6.973246978595853"><ele></ele><time>2013-9-9T13:40:35Z</time></trkpt>
<trkpt lat="46.466831378638744" lon="6.973212528973818"><ele></ele><time>2013-9-9T13:40:38Z</time></trkpt>
<trkpt lat="46.466607498005033" lon="6.973182940855622"><ele></ele><time>2013-9-9T13:40:41Z</time></trkpt>
<trkpt lat="46.466577406972647" lon="6.973198363557458"><ele></ele><time>2013-9-9T13:40:44Z</time></trkpt>
<trkpt lat="46.466474058106542" lon="6.973349908366799"><ele></ele><time>2013-9-9T13:40:47Z</time></trkpt>
<trkpt lat="46.466340282931924" lon="6.973452670499682"><ele></ele><time>2013-9-9T13:40:50Z</time></trkpt>
<trkpt lat="46.466303570196033" lon="6.973455101251602"><ele></ele><time>2013-9-9T13:40:53Z</time></trkpt>
<trkpt lat="46.466266186907887" lon="6.97345401160419"><ele></ele><time>2013-9-9T13:40:56Z</time></trkpt>
<trkpt lat="46.466227043420076" lon="6.973453089594841"><ele></ele><time>2013-9-9T13:40:59Z</time></trkpt>
<trkpt lat="46.466108104214072" lon="6.973465159535408"><ele></ele><time>2013-9-9T13:41:2Z</time></trkpt>
<trkpt lat="46.465781209990382" lon="6.973627516999841"><ele></ele><time>2013-9-9T13:41:5Z</time></trkpt>
<trkpt lat="46.465781209990382" lon="6.973627516999841"><ele></ele><time>2013-9-9T13:41:8Z</time></trkpt>
<trkpt lat="46.465729912742972" lon="6.973649226129055"><ele></ele><time>2013-9-9T13:41:11Z</time></trkpt>
<trkpt lat="46.465576188638806" lon="6.973696080967784"><ele></ele><time>2013-9-9T13:41:14Z</time></trkpt>
<trkpt lat="46.465524975210428" lon="6.973712425678968"><ele></ele><time>2013-9-9T13:41:17Z</time></trkpt>
<trkpt lat="46.465474097058177" lon="6.973730195313692"><ele></ele><time>2013-9-9T13:41:20Z</time></trkpt>
<trkpt lat="46.465421291068196" lon="6.973748551681638"><ele></ele><time>2013-9-9T13:41:23Z</time></trkpt>
<trkpt lat="46.46537016145885" lon="6.973767075687647"><ele></ele><time>2013-9-9T13:41:26Z</time></trkpt>
<trkpt lat="46.465316852554679" lon="6.973786856979132"><ele></ele><time>2013-9-9T13:41:29Z</time></trkpt>
<trkpt lat="46.465208139270544" lon="6.973830359056592"><ele></ele><time>2013-9-9T13:41:32Z</time></trkpt>
<trkpt lat="46.465152986347675" lon="6.973850056529045"><ele></ele><time>2013-9-9T13:41:35Z</time></trkpt>
<trkpt lat="46.465099174529314" lon="6.973869586363435"><ele></ele><time>2013-9-9T13:41:38Z</time></trkpt>
<trkpt lat="46.465043351054192" lon="6.973890960216522"><ele></ele><time>2013-9-9T13:41:41Z</time></trkpt>
<trkpt lat="46.464904043823481" lon="6.973963379859924"><ele></ele><time>2013-9-9T13:41:44Z</time></trkpt>
<trkpt lat="46.464773621410131" lon="6.974060861393809"><ele></ele><time>2013-9-9T13:41:47Z</time></trkpt>
<trkpt lat="46.464718468487263" lon="6.974089695140719"><ele></ele><time>2013-9-9T13:41:50Z</time></trkpt>
<trkpt lat="46.46466750651598" lon="6.97410729713738"><ele></ele><time>2013-9-9T13:41:53Z</time></trkpt>
<trkpt lat="46.46461377851665" lon="6.974116684868932"><ele></ele><time>2013-9-9T13:41:56Z</time></trkpt>
<trkpt lat="46.464556362479925" lon="6.974121797829866"><ele></ele><time>2013-9-9T13:41:59Z</time></trkpt>
<trkpt lat="46.464498611167073" lon="6.974125234410167"><ele></ele><time>2013-9-9T13:42:2Z</time></trkpt>
<trkpt lat="46.464438764378428" lon="6.974128419533372"><ele></ele><time>2013-9-9T13:42:5Z</time></trkpt>
<trkpt lat="46.464380845427513" lon="6.974129509180784"><ele></ele><time>2013-9-9T13:42:8Z</time></trkpt>
<trkpt lat="46.464320663362741" lon="6.974130179733038"><ele></ele><time>2013-9-9T13:42:11Z</time></trkpt>
<trkpt lat="46.464260648936033" lon="6.974133029580116"><ele></ele><time>2013-9-9T13:42:14Z</time></trkpt>
<trkpt lat="46.46402939222753" lon="6.974176112562418"><ele></ele><time>2013-9-9T13:42:17Z</time></trkpt>
<trkpt lat="46.463969713076949" lon="6.974177453666925"><ele></ele><time>2013-9-9T13:42:20Z</time></trkpt>
<trkpt lat="46.463911961764097" lon="6.974171502515674"><ele></ele><time>2013-9-9T13:42:23Z</time></trkpt>
<trkpt lat="46.463849348947406" lon="6.974164377897978"><ele></ele><time>2013-9-9T13:42:26Z</time></trkpt>
<trkpt lat="46.463783718645573" lon="6.974160019308329"><ele></ele><time>2013-9-9T13:42:29Z</time></trkpt>
<trkpt lat="46.46371909417212" lon="6.97416010312736"><ele></ele><time>2013-9-9T13:42:32Z</time></trkpt>
<trkpt lat="46.463652960956097" lon="6.974165551364422"><ele></ele><time>2013-9-9T13:42:35Z</time></trkpt>
<trkpt lat="46.463585318997502" lon="6.97417913004756"><ele></ele><time>2013-9-9T13:42:38Z</time></trkpt>
<trkpt lat="46.463516671210527" lon="6.974199246615171"><ele></ele><time>2013-9-9T13:42:41Z</time></trkpt>
<trkpt lat="46.463447939604521" lon="6.974222967401147"><ele></ele><time>2013-9-9T13:42:44Z</time></trkpt>
<trkpt lat="46.463379878550768" lon="6.974247777834535"><ele></ele><time>2013-9-9T13:42:47Z</time></trkpt>
<trkpt lat="46.463307961821556" lon="6.974275102838874"><ele></ele><time>2013-9-9T13:42:50Z</time></trkpt>
<trkpt lat="46.463235961273313" lon="6.974303098395467"><ele></ele><time>2013-9-9T13:42:53Z</time></trkpt>
<trkpt lat="46.463165553286672" lon="6.974327825009823"><ele></ele><time>2013-9-9T13:42:56Z</time></trkpt>
<trkpt lat="46.463094390928745" lon="6.97434819303453"><ele></ele><time>2013-9-9T13:42:59Z</time></trkpt>
<trkpt lat="46.463023396208882" lon="6.974364537745714"><ele></ele><time>2013-9-9T13:43:2Z</time></trkpt>
<trkpt lat="46.462950892746449" lon="6.974381804466248"><ele></ele><time>2013-9-9T13:43:5Z</time></trkpt>
<trkpt lat="46.462880820035934" lon="6.97440242394805"><ele></ele><time>2013-9-9T13:43:8Z</time></trkpt>
<trkpt lat="46.462814351543784" lon="6.974428156390786"><ele></ele><time>2013-9-9T13:43:11Z</time></trkpt>
<trkpt lat="46.462744111195207" lon="6.974461013451219"><ele></ele><time>2013-9-9T13:43:14Z</time></trkpt>
<trkpt lat="46.462674457579851" lon="6.974492697045207"><ele></ele><time>2013-9-9T13:43:17Z</time></trkpt>
<trkpt lat="46.46260354667902" lon="6.974518764764071"><ele></ele><time>2013-9-9T13:43:20Z</time></trkpt>
<trkpt lat="46.46253171376884" lon="6.974539551883936"><ele></ele><time>2013-9-9T13:43:23Z</time></trkpt>
<trkpt lat="46.462458455935121" lon="6.974554136395454"><ele></ele><time>2013-9-9T13:43:26Z</time></trkpt>
<trkpt lat="46.462383270263672" lon="6.974566876888275"><ele></ele><time>2013-9-9T13:43:29Z</time></trkpt>
<trkpt lat="46.462310347706079" lon="6.974582634866238"><ele></ele><time>2013-9-9T13:43:32Z</time></trkpt>
<trkpt lat="46.462235916405916" lon="6.974599398672581"><ele></ele><time>2013-9-9T13:43:35Z</time></trkpt>
<trkpt lat="46.462162658572197" lon="6.974613899365068"><ele></ele><time>2013-9-9T13:43:38Z</time></trkpt>
<trkpt lat="46.462092418223619" lon="6.974625885486603"><ele></ele><time>2013-9-9T13:43:41Z</time></trkpt>
<trkpt lat="46.462025698274374" lon="6.974639212712646"><ele></ele><time>2013-9-9T13:43:44Z</time></trkpt>
<trkpt lat="46.461961325258017" lon="6.974660335108638"><ele></ele><time>2013-9-9T13:43:47Z</time></trkpt>
<trkpt lat="46.46190189756453" lon="6.974687660112977"><ele></ele><time>2013-9-9T13:43:50Z</time></trkpt>
<trkpt lat="46.461846409365535" lon="6.97472202591598"><ele></ele><time>2013-9-9T13:43:53Z</time></trkpt>
<trkpt lat="46.461795112118125" lon="6.974764605984092"><ele></ele><time>2013-9-9T13:43:56Z</time></trkpt>
<trkpt lat="46.461742892861366" lon="6.974813556298614"><ele></ele><time>2013-9-9T13:43:59Z</time></trkpt>
<trkpt lat="46.461693858727813" lon="6.974864853546023"><ele></ele><time>2013-9-9T13:44:2Z</time></trkpt>
<trkpt lat="46.461642310023308" lon="6.974916905164719"><ele></ele><time>2013-9-9T13:44:5Z</time></trkpt>
<trkpt lat="46.461529321968555" lon="6.975002065300942"><ele></ele><time>2013-9-9T13:44:8Z</time></trkpt>
<trkpt lat="46.461473582312465" lon="6.97502251714468"><ele></ele><time>2013-9-9T13:44:11Z</time></trkpt>
<trkpt lat="46.461243499070406" lon="6.975135086104274"><ele></ele><time>2013-9-9T13:44:14Z</time></trkpt>
<trkpt lat="46.461208295077085" lon="6.975164590403438"><ele></ele><time>2013-9-9T13:44:17Z</time></trkpt>
<trkpt lat="46.461169738322496" lon="6.975184706971049"><ele></ele><time>2013-9-9T13:44:20Z</time></trkpt>
<trkpt lat="46.461131684482098" lon="6.975199291482568"><ele></ele><time>2013-9-9T13:44:23Z</time></trkpt>
<trkpt lat="46.461098156869411" lon="6.975216222926974"><ele></ele><time>2013-9-9T13:44:26Z</time></trkpt>
<trkpt lat="46.461069574579597" lon="6.975237932056189"><ele></ele><time>2013-9-9T13:44:29Z</time></trkpt>
<trkpt lat="46.461003525182605" lon="6.975330635905266"><ele></ele><time>2013-9-9T13:44:32Z</time></trkpt>
<trkpt lat="46.460982318967581" lon="6.97537237778306"><ele></ele><time>2013-9-9T13:44:35Z</time></trkpt>
<trkpt lat="46.460953988134861" lon="6.975418478250504"><ele></ele><time>2013-9-9T13:44:38Z</time></trkpt>
<trkpt lat="46.460914760828018" lon="6.975463405251503"><ele></ele><time>2013-9-9T13:44:41Z</time></trkpt>
<trkpt lat="46.46086547523737" lon="6.975500453263521"><ele></ele><time>2013-9-9T13:44:44Z</time></trkpt>
<trkpt lat="46.460812836885452" lon="6.975531466305256"><ele></ele><time>2013-9-9T13:44:47Z</time></trkpt>
<trkpt lat="46.460752403363585" lon="6.975559964776039"><ele></ele><time>2013-9-9T13:44:50Z</time></trkpt>
<trkpt lat="46.460692305117846" lon="6.975585026666522"><ele></ele><time>2013-9-9T13:44:53Z</time></trkpt>
<trkpt lat="46.460632290691137" lon="6.975607322528958"><ele></ele><time>2013-9-9T13:44:56Z</time></trkpt>
<trkpt lat="46.460472280159593" lon="6.975640263408423"><ele></ele><time>2013-9-9T13:44:59Z</time></trkpt>
<trkpt lat="46.460424503311515" lon="6.975630288943648"><ele></ele><time>2013-9-9T13:45:2Z</time></trkpt>
<trkpt lat="46.460376558825374" lon="6.975614866241813"><ele></ele><time>2013-9-9T13:45:5Z</time></trkpt>
<trkpt lat="46.460325848311186" lon="6.975603550672531"><ele></ele><time>2013-9-9T13:45:8Z</time></trkpt>
<trkpt lat="46.460274634882808" lon="6.975597348064184"><ele></ele><time>2013-9-9T13:45:11Z</time></trkpt>
<trkpt lat="46.460219481959939" lon="6.975593827664852"><ele></ele><time>2013-9-9T13:45:14Z</time></trkpt>
<trkpt lat="46.46016432903707" lon="6.975589971989393"><ele></ele><time>2013-9-9T13:45:17Z</time></trkpt>
<trkpt lat="46.460106745362282" lon="6.975586032494903"><ele></ele><time>2013-9-9T13:45:20Z</time></trkpt>
<trkpt lat="46.460048910230398" lon="6.975581925362349"><ele></ele><time>2013-9-9T13:45:23Z</time></trkpt>
<trkpt lat="46.459988560527563" lon="6.975584859028459"><ele></ele><time>2013-9-9T13:45:26Z</time></trkpt>
<trkpt lat="46.459922762587667" lon="6.975592067465186"><ele></ele><time>2013-9-9T13:45:29Z</time></trkpt>
<trkpt lat="46.459860233590007" lon="6.975602293387055"><ele></ele><time>2013-9-9T13:45:32Z</time></trkpt>
<trkpt lat="46.459801392629743" lon="6.975618554279208"><ele></ele><time>2013-9-9T13:45:35Z</time></trkpt>
<trkpt lat="46.459748419001698" lon="6.97564210742712"><ele></ele><time>2013-9-9T13:45:38Z</time></trkpt>
<trkpt lat="46.459697037935257" lon="6.975671360269189"><ele></ele><time>2013-9-9T13:45:41Z</time></trkpt>
<trkpt lat="46.459648087620735" lon="6.975697511807084"><ele></ele><time>2013-9-9T13:45:44Z</time></trkpt>
<trkpt lat="46.459600813686848" lon="6.975711928680539"><ele></ele><time>2013-9-9T13:45:47Z</time></trkpt>
<trkpt lat="46.459554880857468" lon="6.975712180137634"><ele></ele><time>2013-9-9T13:45:50Z</time></trkpt>
<trkpt lat="46.459509953856468" lon="6.975688543170691"><ele></ele><time>2013-9-9T13:45:53Z</time></trkpt>
<trkpt lat="46.459470810368657" lon="6.975655434653163"><ele></ele><time>2013-9-9T13:45:56Z</time></trkpt>
<trkpt lat="46.459313733503222" lon="6.975573627278209"><ele></ele><time>2013-9-9T13:45:59Z</time></trkpt>
<trkpt lat="46.459283391013741" lon="6.97557563893497"><ele></ele><time>2013-9-9T13:46:2Z</time></trkpt>
<trkpt lat="46.459248522296548" lon="6.975595336407423"><ele></ele><time>2013-9-9T13:46:5Z</time></trkpt>
<trkpt lat="46.459207786247134" lon="6.97562207467854"><ele></ele><time>2013-9-9T13:46:8Z</time></trkpt>
<trkpt lat="46.459161266684532" lon="6.975647890940309"><ele></ele><time>2013-9-9T13:46:11Z</time></trkpt>
<trkpt lat="46.459107119590044" lon="6.975663062185049"><ele></ele><time>2013-9-9T13:46:14Z</time></trkpt>
<trkpt lat="46.459049116820097" lon="6.975663816556335"><ele></ele><time>2013-9-9T13:46:17Z</time></trkpt>
<trkpt lat="46.458993712440133" lon="6.975651243701577"><ele></ele><time>2013-9-9T13:46:20Z</time></trkpt>
<trkpt lat="46.45894224755466" lon="6.97562986984849"><ele></ele><time>2013-9-9T13:46:23Z</time></trkpt>
<trkpt lat="46.458892207592726" lon="6.975612016394734"><ele></ele><time>2013-9-9T13:46:26Z</time></trkpt>
<trkpt lat="46.458782153204083" lon="6.975602963939309"><ele></ele><time>2013-9-9T13:46:29Z</time></trkpt>
<trkpt lat="46.458604540675879" lon="6.975678820163012"><ele></ele><time>2013-9-9T13:46:32Z</time></trkpt>
<trkpt lat="46.45856942050159" lon="6.975691476836801"><ele></ele><time>2013-9-9T13:46:35Z</time></trkpt>
<trkpt lat="46.458532707765698" lon="6.975707821547985"><ele></ele><time>2013-9-9T13:46:38Z</time></trkpt>
<trkpt lat="46.458496917039156" lon="6.975725507363677"><ele></ele><time>2013-9-9T13:46:41Z</time></trkpt>
<trkpt lat="46.458460120484233" lon="6.975742187350988"><ele></ele><time>2013-9-9T13:46:44Z</time></trkpt>
<trkpt lat="46.458378480747342" lon="6.97576523758471"><ele></ele><time>2013-9-9T13:46:47Z</time></trkpt>
<trkpt lat="46.45833489485085" lon="6.975769344717264"><ele></ele><time>2013-9-9T13:46:50Z</time></trkpt>
<trkpt lat="46.458289632573724" lon="6.975765908136964"><ele></ele><time>2013-9-9T13:46:53Z</time></trkpt>
<trkpt lat="46.458243113011122" lon="6.975754508748651"><ele></ele><time>2013-9-9T13:46:56Z</time></trkpt>
<trkpt lat="46.458194917067885" lon="6.975737158209086"><ele></ele><time>2013-9-9T13:46:59Z</time></trkpt>
<trkpt lat="46.458147810772061" lon="6.975713605061173"><ele></ele><time>2013-9-9T13:47:2Z</time></trkpt>
<trkpt lat="46.458098525181413" lon="6.975684687495232"><ele></ele><time>2013-9-9T13:47:5Z</time></trkpt>
<trkpt lat="46.458053346723318" lon="6.975650740787387"><ele></ele><time>2013-9-9T13:47:8Z</time></trkpt>
<trkpt lat="46.458009593188763" lon="6.975618889555335"><ele></ele><time>2013-9-9T13:47:11Z</time></trkpt>
<trkpt lat="46.457965672016144" lon="6.97559516876936"><ele></ele><time>2013-9-9T13:47:14Z</time></trkpt>
<trkpt lat="46.457880428060889" lon="6.975579997524619"><ele></ele><time>2013-9-9T13:47:17Z</time></trkpt>
<trkpt lat="46.45783600397408" lon="6.975596090778709"><ele></ele><time>2013-9-9T13:47:20Z</time></trkpt>
<trkpt lat="46.457791663706303" lon="6.975617213174701"><ele></ele><time>2013-9-9T13:47:23Z</time></trkpt>
<trkpt lat="46.457742629572749" lon="6.975637748837471"><ele></ele><time>2013-9-9T13:47:26Z</time></trkpt>
<trkpt lat="46.457690158858895" lon="6.975653590634465"><ele></ele><time>2013-9-9T13:47:29Z</time></trkpt>
<trkpt lat="46.457634000107646" lon="6.975666917860508"><ele></ele><time>2013-9-9T13:47:32Z</time></trkpt>
<trkpt lat="46.457582199946046" lon="6.975680496543646"><ele></ele><time>2013-9-9T13:47:35Z</time></trkpt>
<trkpt lat="46.457533333450556" lon="6.975698601454496"><ele></ele><time>2013-9-9T13:47:38Z</time></trkpt>
<trkpt lat="46.457492345944047" lon="6.975724082440138"><ele></ele><time>2013-9-9T13:47:41Z</time></trkpt>
<trkpt lat="46.45742554217577" lon="6.975791556760669"><ele></ele><time>2013-9-9T13:47:44Z</time></trkpt>
<trkpt lat="46.457353541627526" lon="6.975870681926608"><ele></ele><time>2013-9-9T13:47:47Z</time></trkpt>
<trkpt lat="46.457268381491303" lon="6.975899180397391"><ele></ele><time>2013-9-9T13:47:50Z</time></trkpt>
<trkpt lat="46.457221861928701" lon="6.975887529551983"><ele></ele><time>2013-9-9T13:47:53Z</time></trkpt>
<trkpt lat="46.457173079252243" lon="6.975863138213754"><ele></ele><time>2013-9-9T13:47:56Z</time></trkpt>
<trkpt lat="46.457123793661594" lon="6.975832711905241"><ele></ele><time>2013-9-9T13:47:59Z</time></trkpt>
<trkpt lat="46.457074675709009" lon="6.975803710520268"><ele></ele><time>2013-9-9T13:48:2Z</time></trkpt>
<trkpt lat="46.457025222480297" lon="6.975781163200736"><ele></ele><time>2013-9-9T13:48:5Z</time></trkpt>
<trkpt lat="46.456970321014524" lon="6.975763561204076"><ele></ele><time>2013-9-9T13:48:8Z</time></trkpt>
<trkpt lat="46.456919861957431" lon="6.975755682215095"><ele></ele><time>2013-9-9T13:48:11Z</time></trkpt>
<trkpt lat="46.456869402900338" lon="6.975746210664511"><ele></ele><time>2013-9-9T13:48:14Z</time></trkpt>
<trkpt lat="46.456819195300341" lon="6.975730787962675"><ele></ele><time>2013-9-9T13:48:17Z</time></trkpt>
<trkpt lat="46.45676932297647" lon="6.975710587576032"><ele></ele><time>2013-9-9T13:48:20Z</time></trkpt>
<trkpt lat="46.456722300499678" lon="6.975678484886885"><ele></ele><time>2013-9-9T13:48:23Z</time></trkpt>
<trkpt lat="46.456677205860615" lon="6.975638922303915"><ele></ele><time>2013-9-9T13:48:26Z</time></trkpt>
<trkpt lat="46.456630351021886" lon="6.975594246760011"><ele></ele><time>2013-9-9T13:48:29Z</time></trkpt>
<trkpt lat="46.456585926935077" lon="6.97554923593998"><ele></ele><time>2013-9-9T13:48:32Z</time></trkpt>
<trkpt lat="46.456541251391172" lon="6.975504644215107"><ele></ele><time>2013-9-9T13:48:35Z</time></trkpt>
<trkpt lat="46.456495653837919" lon="6.975462315604091"><ele></ele><time>2013-9-9T13:48:38Z</time></trkpt>
<trkpt lat="46.456447709351778" lon="6.975427195429802"><ele></ele><time>2013-9-9T13:48:41Z</time></trkpt>
<trkpt lat="46.456397920846939" lon="6.97539727203548"><ele></ele><time>2013-9-9T13:48:44Z</time></trkpt>
<trkpt lat="46.456344779580832" lon="6.975373551249504"><ele></ele><time>2013-9-9T13:48:47Z</time></trkpt>
<trkpt lat="46.456285184249282" lon="6.975353602319956"><ele></ele><time>2013-9-9T13:48:50Z</time></trkpt>
<trkpt lat="46.456217374652624" lon="6.975322086364031"><ele></ele><time>2013-9-9T13:48:53Z</time></trkpt>
<trkpt lat="46.456152582541108" lon="6.97529124096036"><ele></ele><time>2013-9-9T13:48:56Z</time></trkpt>
<trkpt lat="46.456090053543448" lon="6.975272130221129"><ele></ele><time>2013-9-9T13:48:59Z</time></trkpt>
<trkpt lat="46.456034397706389" lon="6.975268861278892"><ele></ele><time>2013-9-9T13:49:2Z</time></trkpt>
<trkpt lat="46.455983687192202" lon="6.975277746096253"><ele></ele><time>2013-9-9T13:49:5Z</time></trkpt>
<trkpt lat="46.455765841528773" lon="6.975339855998755"><ele></ele><time>2013-9-9T13:49:8Z</time></trkpt>
<trkpt lat="46.455583954229951" lon="6.975369779393077"><ele></ele><time>2013-9-9T13:49:11Z</time></trkpt>
<trkpt lat="46.455517485737801" lon="6.975359302014113"><ele></ele><time>2013-9-9T13:49:14Z</time></trkpt>
<trkpt lat="46.455452274531126" lon="6.975337928161025"><ele></ele><time>2013-9-9T13:49:17Z</time></trkpt>
<trkpt lat="46.455388823524117" lon="6.975317476317287"><ele></ele><time>2013-9-9T13:49:20Z</time></trkpt>
<trkpt lat="46.455331072211266" lon="6.975305071100593"><ele></ele><time>2013-9-9T13:49:23Z</time></trkpt>
<trkpt lat="46.455235267058015" lon="6.975319236516953"><ele></ele><time>2013-9-9T13:49:26Z</time></trkpt>
<trkpt lat="46.455188412219286" lon="6.97533424012363"><ele></ele><time>2013-9-9T13:49:29Z</time></trkpt>
<trkpt lat="46.455137366428971" lon="6.975348656997085"><ele></ele><time>2013-9-9T13:49:32Z</time></trkpt>
<trkpt lat="46.455085733905435" lon="6.975357625633478"><ele></ele><time>2013-9-9T13:49:35Z</time></trkpt>
<trkpt lat="46.455033179372549" lon="6.975350165739656"><ele></ele><time>2013-9-9T13:49:38Z</time></trkpt>
<trkpt lat="46.454976601526141" lon="6.975322421640158"><ele></ele><time>2013-9-9T13:49:41Z</time></trkpt>
<trkpt lat="46.454921700060368" lon="6.975279673933983"><ele></ele><time>2013-9-9T13:49:44Z</time></trkpt>
<trkpt lat="46.454866714775562" lon="6.975231980904937"><ele></ele><time>2013-9-9T13:49:47Z</time></trkpt>
<trkpt lat="46.454810304567218" lon="6.975184790790081"><ele></ele><time>2013-9-9T13:49:50Z</time></trkpt>
<trkpt lat="46.45475372672081" lon="6.97513391263783"><ele></ele><time>2013-9-9T13:49:53Z</time></trkpt>
<trkpt lat="46.454698154702783" lon="6.975076915696263"><ele></ele><time>2013-9-9T13:49:56Z</time></trkpt>
<trkpt lat="46.454642163589597" lon="6.975011620670557"><ele></ele><time>2013-9-9T13:49:59Z</time></trkpt>
<trkpt lat="46.454585501924157" lon="6.974944565445185"><ele></ele><time>2013-9-9T13:50:2Z</time></trkpt>
<trkpt lat="46.454529846087098" lon="6.974877929314971"><ele></ele><time>2013-9-9T13:50:5Z</time></trkpt>
<trkpt lat="46.454472346231341" lon="6.974809281527996"><ele></ele><time>2013-9-9T13:50:8Z</time></trkpt>
<trkpt lat="46.454420629888773" lon="6.974744070321322"><ele></ele><time>2013-9-9T13:50:11Z</time></trkpt>
<trkpt lat="46.454371679574251" lon="6.974680116400123"><ele></ele><time>2013-9-9T13:50:14Z</time></trkpt>
<trkpt lat="46.454324824735522" lon="6.974615324288607"><ele></ele><time>2013-9-9T13:50:17Z</time></trkpt>
<trkpt lat="46.454279562458396" lon="6.974551705643535"><ele></ele><time>2013-9-9T13:50:20Z</time></trkpt>
<trkpt lat="46.454235641285777" lon="6.974488673731685"><ele></ele><time>2013-9-9T13:50:23Z</time></trkpt>
<trkpt lat="46.454192642122507" lon="6.974427653476596"><ele></ele><time>2013-9-9T13:50:26Z</time></trkpt>
<trkpt lat="46.454147463664412" lon="6.974365962669253"><ele></ele><time>2013-9-9T13:50:29Z</time></trkpt>
<trkpt lat="46.4540652371943" lon="6.974258339032531"><ele></ele><time>2013-9-9T13:50:32Z</time></trkpt>
<trkpt lat="46.454030787572265" lon="6.974214669317007"><ele></ele><time>2013-9-9T13:50:35Z</time></trkpt>
<trkpt lat="46.453999355435371" lon="6.974177872762084"><ele></ele><time>2013-9-9T13:50:38Z</time></trkpt>
<trkpt lat="46.453968426212668" lon="6.974143842235208"><ele></ele><time>2013-9-9T13:50:41Z</time></trkpt>
<trkpt lat="46.453894916921854" lon="6.974080055952072"><ele></ele><time>2013-9-9T13:50:44Z</time></trkpt>
<trkpt lat="46.453809421509504" lon="6.974015180021524"><ele></ele><time>2013-9-9T13:50:47Z</time></trkpt>
<trkpt lat="46.453287815675139" lon="6.97287549264729"><ele></ele><time>2013-9-9T13:50:50Z</time></trkpt>
<trkpt lat="46.453208439052105" lon="6.972841210663319"><ele></ele><time>2013-9-9T13:50:53Z</time></trkpt>
<trkpt lat="46.453149681910872" lon="6.972852190956473"><ele></ele><time>2013-9-9T13:50:56Z</time></trkpt>
<trkpt lat="46.453140377998352" lon="6.972852861508727"><ele></ele><time>2013-9-9T13:50:59Z</time></trkpt>
<trkpt lat="46.452987408265471" lon="6.972950678318739"><ele></ele><time>2013-9-9T13:51:2Z</time></trkpt>
<trkpt lat="46.452978439629078" lon="6.972964592278004"><ele></ele><time>2013-9-9T13:51:5Z</time></trkpt>
<trkpt lat="46.452970812097192" lon="6.972979595884681"><ele></ele><time>2013-9-9T13:51:8Z</time></trkpt>
<trkpt lat="46.452930495142937" lon="6.973024941980839"><ele></ele><time>2013-9-9T13:51:11Z</time></trkpt>
<trkpt lat="46.452920353040099" lon="6.973037766292691"><ele></ele><time>2013-9-9T13:51:14Z</time></trkpt>
<trkpt lat="46.452910294756293" lon="6.973052266985178"><ele></ele><time>2013-9-9T13:51:17Z</time></trkpt>
<trkpt lat="46.452899733558297" lon="6.973067941144109"><ele></ele><time>2013-9-9T13:51:20Z</time></trkpt>
<trkpt lat="46.452887915074825" lon="6.973082358017564"><ele></ele><time>2013-9-9T13:51:23Z</time></trkpt>
<trkpt lat="46.452877437695861" lon="6.973094595596194"><ele></ele><time>2013-9-9T13:51:26Z</time></trkpt>
<trkpt lat="46.452838880941272" lon="6.973133319988847"><ele></ele><time>2013-9-9T13:51:29Z</time></trkpt>
<trkpt lat="46.452823877334595" lon="6.973145473748446"><ele></ele><time>2013-9-9T13:51:32Z</time></trkpt>
<trkpt lat="46.452807364985347" lon="6.973157962784171"><ele></ele><time>2013-9-9T13:51:35Z</time></trkpt>
<trkpt lat="46.452791104093194" lon="6.973171625286341"><ele></ele><time>2013-9-9T13:51:38Z</time></trkpt>
<trkpt lat="46.45277475938201" lon="6.973186125978828"><ele></ele><time>2013-9-9T13:51:41Z</time></trkpt>
<trkpt lat="46.452729748561978" lon="6.973209427669644"><ele></ele><time>2013-9-9T13:51:44Z</time></trkpt>
<trkpt lat="46.452663950622082" lon="6.973249493166804"><ele></ele><time>2013-9-9T13:51:47Z</time></trkpt>
<trkpt lat="46.452651042491198" lon="6.973257875069976"><ele></ele><time>2013-9-9T13:51:50Z</time></trkpt>
<trkpt lat="46.452636960893869" lon="6.973266592249274"><ele></ele><time>2013-9-9T13:51:53Z</time></trkpt>
<trkpt lat="46.452555321156979" lon="6.973305568099022"><ele></ele><time>2013-9-9T13:51:56Z</time></trkpt>
<trkpt lat="46.452552722766995" lon="6.973317805677652"><ele></ele><time>2013-9-9T13:51:59Z</time></trkpt>
<trkpt lat="46.452560517936945" lon="6.973476391285658"><ele></ele><time>2013-9-9T13:52:2Z</time></trkpt>
<trkpt lat="46.452524391934276" lon="6.973505560308695"><ele></ele><time>2013-9-9T13:52:5Z</time></trkpt>
<trkpt lat="46.452456414699554" lon="6.97358108125627"><ele></ele><time>2013-9-9T13:52:8Z</time></trkpt>
<trkpt lat="46.452446356415749" lon="6.973595749586821"><ele></ele><time>2013-9-9T13:52:11Z</time></trkpt>
<trkpt lat="46.452437890693545" lon="6.973608573898673"><ele></ele><time>2013-9-9T13:52:14Z</time></trkpt>
<trkpt lat="46.452429089695215" lon="6.973624499514699"><ele></ele><time>2013-9-9T13:52:17Z</time></trkpt>
<trkpt lat="46.452419366687536" lon="6.97364067658782"><ele></ele><time>2013-9-9T13:52:20Z</time></trkpt>
<trkpt lat="46.452365722507238" lon="6.973715694621205"><ele></ele><time>2013-9-9T13:52:23Z</time></trkpt>
<trkpt lat="46.452341414988041" lon="6.973737990483642"><ele></ele><time>2013-9-9T13:52:26Z</time></trkpt>
<trkpt lat="46.452327501028776" lon="6.97374863550067"><ele></ele><time>2013-9-9T13:52:29Z</time></trkpt>
<trkpt lat="46.452313838526607" lon="6.973761878907681"><ele></ele><time>2013-9-9T13:52:32Z</time></trkpt>
<trkpt lat="46.452304450795054" lon="6.973775876685977"><ele></ele><time>2013-9-9T13:52:35Z</time></trkpt>
<trkpt lat="46.45229397341609" lon="6.973807560279965"><ele></ele><time>2013-9-9T13:52:38Z</time></trkpt>
<trkpt lat="46.452289698645473" lon="6.973826922476292"><ele></ele><time>2013-9-9T13:52:41Z</time></trkpt>
<trkpt lat="46.45227687433362" lon="6.973866233602166"><ele></ele><time>2013-9-9T13:52:44Z</time></trkpt>
<trkpt lat="46.452269917353988" lon="6.973885344341397"><ele></ele><time>2013-9-9T13:52:47Z</time></trkpt>
<trkpt lat="46.452263128012419" lon="6.973906802013516"><ele></ele><time>2013-9-9T13:52:50Z</time></trkpt>
<trkpt lat="46.452255668118596" lon="6.973926583305001"><ele></ele><time>2013-9-9T13:52:53Z</time></trkpt>
<trkpt lat="46.452247705310583" lon="6.973946029320359"><ele></ele><time>2013-9-9T13:52:56Z</time></trkpt>
<trkpt lat="46.452214177697897" lon="6.974043678492308"><ele></ele><time>2013-9-9T13:52:59Z</time></trkpt>
<trkpt lat="46.452201856300235" lon="6.974082151427865"><ele></ele><time>2013-9-9T13:53:2Z</time></trkpt>
<trkpt lat="46.4521967433393" lon="6.97410243563354"><ele></ele><time>2013-9-9T13:53:5Z</time></trkpt>
<trkpt lat="46.452192133292556" lon="6.974123222753406"><ele></ele><time>2013-9-9T13:53:8Z</time></trkpt>
<trkpt lat="46.452190205454826" lon="6.974146356806159"><ele></ele><time>2013-9-9T13:53:11Z</time></trkpt>
<trkpt lat="46.452188780531287" lon="6.974171586334705"><ele></ele><time>2013-9-9T13:53:14Z</time></trkpt>
<trkpt lat="46.452187355607748" lon="6.974273510277271"><ele></ele><time>2013-9-9T13:53:17Z</time></trkpt>
<trkpt lat="46.452181152999401" lon="6.97435992769897"><ele></ele><time>2013-9-9T13:53:20Z</time></trkpt>
<trkpt lat="46.45217570476234" lon="6.974375937134028"><ele></ele><time>2013-9-9T13:53:23Z</time></trkpt>
<trkpt lat="46.452171262353659" lon="6.974392952397466"><ele></ele><time>2013-9-9T13:53:26Z</time></trkpt>
<trkpt lat="46.452168328687549" lon="6.974413990974426"><ele></ele><time>2013-9-9T13:53:29Z</time></trkpt>
<trkpt lat="46.452165897935629" lon="6.974434442818165"><ele></ele><time>2013-9-9T13:53:32Z</time></trkpt>
<trkpt lat="46.452158857136965" lon="6.974570984020829"><ele></ele><time>2013-9-9T13:53:35Z</time></trkpt>
<trkpt lat="46.452158018946648" lon="6.974589759483933"><ele></ele><time>2013-9-9T13:53:38Z</time></trkpt>
<trkpt lat="46.452157348394394" lon="6.974606355652213"><ele></ele><time>2013-9-9T13:53:41Z</time></trkpt>
<trkpt lat="46.452156342566013" lon="6.974623035639525"><ele></ele><time>2013-9-9T13:53:44Z</time></trkpt>
<trkpt lat="46.452156007289886" lon="6.974640302360058"><ele></ele><time>2013-9-9T13:53:47Z</time></trkpt>
<trkpt lat="46.452155169099569" lon="6.974658323451877"><ele></ele><time>2013-9-9T13:53:50Z</time></trkpt>
<trkpt lat="46.452146954834461" lon="6.974775670096278"><ele></ele><time>2013-9-9T13:53:53Z</time></trkpt>
<trkpt lat="46.452144691720605" lon="6.974794529378414"><ele></ele><time>2013-9-9T13:53:56Z</time></trkpt>
<trkpt lat="46.452142847701907" lon="6.97481238283217"><ele></ele><time>2013-9-9T13:53:59Z</time></trkpt>
<trkpt lat="46.452140836045146" lon="6.974830739200115"><ele></ele><time>2013-9-9T13:54:2Z</time></trkpt>
<trkpt lat="46.45213957875967" lon="6.974850269034505"><ele></ele><time>2013-9-9T13:54:5Z</time></trkpt>
<trkpt lat="46.452139243483543" lon="6.974870888516307"><ele></ele><time>2013-9-9T13:54:8Z</time></trkpt>
<trkpt lat="46.452107476070523" lon="6.975000556558371"><ele></ele><time>2013-9-9T13:54:11Z</time></trkpt>
<trkpt lat="46.452100519090891" lon="6.975013129413128"><ele></ele><time>2013-9-9T13:54:14Z</time></trkpt>
<trkpt lat="46.452093981206417" lon="6.975028049200773"><ele></ele><time>2013-9-9T13:54:17Z</time></trkpt>
<trkpt lat="46.452088784426451" lon="6.975043388083577"><ele></ele><time>2013-9-9T13:54:20Z</time></trkpt>
<trkpt lat="46.452084593474865" lon="6.975059565156698"><ele></ele><time>2013-9-9T13:54:23Z</time></trkpt>
<trkpt lat="46.452083000913262" lon="6.975077334791422"><ele></ele><time>2013-9-9T13:54:26Z</time></trkpt>
<trkpt lat="46.452077468857169" lon="6.975211864337325"><ele></ele><time>2013-9-9T13:54:29Z</time></trkpt>
<trkpt lat="46.452072774991393" lon="6.975232400000095"><ele></ele><time>2013-9-9T13:54:32Z</time></trkpt>
<trkpt lat="46.45206774584949" lon="6.975250504910946"><ele></ele><time>2013-9-9T13:54:35Z</time></trkpt>
<trkpt lat="46.45206137560308" lon="6.975268609821796"><ele></ele><time>2013-9-9T13:54:38Z</time></trkpt>
<trkpt lat="46.452056933194399" lon="6.975289564579725"><ele></ele><time>2013-9-9T13:54:41Z</time></trkpt>
<trkpt lat="46.45201007835567" lon="6.975416047498584"><ele></ele><time>2013-9-9T13:54:44Z</time></trkpt>
<trkpt lat="46.452003372833133" lon="6.975462147966027"><ele></ele><time>2013-9-9T13:54:47Z</time></trkpt>
<trkpt lat="46.452002031728625" lon="6.975483689457178"><ele></ele><time>2013-9-9T13:54:50Z</time></trkpt>
<trkpt lat="46.452001612633467" lon="6.975504979491234"><ele></ele><time>2013-9-9T13:54:53Z</time></trkpt>
<trkpt lat="46.452001025900245" lon="6.975525431334972"><ele></ele><time>2013-9-9T13:54:56Z</time></trkpt>
<trkpt lat="46.452000103890896" lon="6.975543536245823"><ele></ele><time>2013-9-9T13:54:59Z</time></trkpt>
<trkpt lat="46.451995158568025" lon="6.975585445761681"><ele></ele><time>2013-9-9T13:55:2Z</time></trkpt>
<trkpt lat="46.451960373669863" lon="6.975696254521608"><ele></ele><time>2013-9-9T13:55:5Z</time></trkpt>
<trkpt lat="46.451951237395406" lon="6.975714359432459"><ele></ele><time>2013-9-9T13:55:8Z</time></trkpt>
<trkpt lat="46.451943693682551" lon="6.975733051076531"><ele></ele><time>2013-9-9T13:55:11Z</time></trkpt>
<trkpt lat="46.451936485245824" lon="6.975753754377365"><ele></ele><time>2013-9-9T13:55:14Z</time></trkpt>
<trkpt lat="46.451887954026461" lon="6.975961374118924"><ele></ele><time>2013-9-9T13:55:17Z</time></trkpt>
<trkpt lat="46.451875381171703" lon="6.976016610860825"><ele></ele><time>2013-9-9T13:55:20Z</time></trkpt>
<trkpt lat="46.451868927106261" lon="6.976044438779354"><ele></ele><time>2013-9-9T13:55:23Z</time></trkpt>
<trkpt lat="46.451860964298248" lon="6.976072434335947"><ele></ele><time>2013-9-9T13:55:26Z</time></trkpt>
<trkpt lat="46.451852917671204" lon="6.976099424064159"><ele></ele><time>2013-9-9T13:55:29Z</time></trkpt>
<trkpt lat="46.451844200491905" lon="6.976126749068499"><ele></ele><time>2013-9-9T13:55:32Z</time></trkpt>
<trkpt lat="46.45181461237371" lon="6.97624602355063"><ele></ele><time>2013-9-9T13:55:35Z</time></trkpt>
<trkpt lat="46.451784186065197" lon="6.976409051567316"><ele></ele><time>2013-9-9T13:55:38Z</time></trkpt>
<trkpt lat="46.451776390895247" lon="6.97643612511456"><ele></ele><time>2013-9-9T13:55:41Z</time></trkpt>
<trkpt lat="46.451767338439822" lon="6.976461941376329"><ele></ele><time>2013-9-9T13:55:44Z</time></trkpt>
<trkpt lat="46.451759459450841" lon="6.976486165076494"><ele></ele><time>2013-9-9T13:55:47Z</time></trkpt>
<trkpt lat="46.451751161366701" lon="6.976509969681501"><ele></ele><time>2013-9-9T13:55:50Z</time></trkpt>
<trkpt lat="46.451732721179724" lon="6.976563781499863"><ele></ele><time>2013-9-9T13:55:53Z</time></trkpt>
<trkpt lat="46.451665330678225" lon="6.976828314363957"><ele></ele><time>2013-9-9T13:55:56Z</time></trkpt>
<trkpt lat="46.451653009280562" lon="6.976872151717544"><ele></ele><time>2013-9-9T13:55:59Z</time></trkpt>
<trkpt lat="46.451647896319628" lon="6.976893860846758"><ele></ele><time>2013-9-9T13:56:2Z</time></trkpt>
<trkpt lat="46.451643202453852" lon="6.976916408166289"><ele></ele><time>2013-9-9T13:56:5Z</time></trkpt>
<trkpt lat="46.451637502759695" lon="6.976936189457774"><ele></ele><time>2013-9-9T13:56:8Z</time></trkpt>
<trkpt lat="46.451577069237828" lon="6.977104833349586"><ele></ele><time>2013-9-9T13:56:11Z</time></trkpt>
<trkpt lat="46.451530130580068" lon="6.977199716493487"><ele></ele><time>2013-9-9T13:56:14Z</time></trkpt>
<trkpt lat="46.451520994305611" lon="6.977215306833386"><ele></ele><time>2013-9-9T13:56:17Z</time></trkpt>
<trkpt lat="46.451511941850185" lon="6.977228382602334"><ele></ele><time>2013-9-9T13:56:20Z</time></trkpt>
<trkpt lat="46.451503140851855" lon="6.977239865809679"><ele></ele><time>2013-9-9T13:56:23Z</time></trkpt>
<trkpt lat="46.451492914929986" lon="6.977248080074787"><ele></ele><time>2013-9-9T13:56:26Z</time></trkpt>
<trkpt lat="46.451479839161038" lon="6.97725361213088"><ele></ele><time>2013-9-9T13:56:29Z</time></trkpt>
<trkpt lat="46.451447401195765" lon="6.977268615737557"><ele></ele><time>2013-9-9T13:56:32Z</time></trkpt>
<trkpt lat="46.451469194144011" lon="6.977233998477459"><ele></ele><time>2013-9-9T13:56:35Z</time></trkpt>
<trkpt lat="46.451449664309621" lon="6.977239446714521"><ele></ele><time>2013-9-9T13:56:38Z</time></trkpt>
<trkpt lat="46.451313039287925" lon="6.977265933528543"><ele></ele><time>2013-9-9T13:56:41Z</time></trkpt>
<trkpt lat="46.451263753697276" lon="6.977290576323867"><ele></ele><time>2013-9-9T13:56:44Z</time></trkpt>
<trkpt lat="46.451221760362387" lon="6.977311782538891"><ele></ele><time>2013-9-9T13:56:47Z</time></trkpt>
<trkpt lat="46.451198877766728" lon="6.977332821115851"><ele></ele><time>2013-9-9T13:56:50Z</time></trkpt>
<trkpt lat="46.451185885816813" lon="6.97734983637929"><ele></ele><time>2013-9-9T13:56:53Z</time></trkpt>
<trkpt lat="46.451183203607798" lon="6.977365426719189"><ele></ele><time>2013-9-9T13:56:56Z</time></trkpt>
<trkpt lat="46.451181946322322" lon="6.97741680778563"><ele></ele><time>2013-9-9T13:56:59Z</time></trkpt>
<trkpt lat="46.451179515570402" lon="6.977433152496815"><ele></ele><time>2013-9-9T13:57:2Z</time></trkpt>
<trkpt lat="46.45116476342082" lon="6.97748520411551"><ele></ele><time>2013-9-9T13:57:5Z</time></trkpt>
<trkpt lat="46.451165853068233" lon="6.97753163985908"><ele></ele><time>2013-9-9T13:57:8Z</time></trkpt>
<trkpt lat="46.451181527227163" lon="6.977807488292456"><ele></ele><time>2013-9-9T13:57:11Z</time></trkpt>
<trkpt lat="46.451106257736683" lon="6.978007396683097"><ele></ele><time>2013-9-9T13:57:14Z</time></trkpt>
<trkpt lat="46.451081950217485" lon="6.978019718080759"><ele></ele><time>2013-9-9T13:57:17Z</time></trkpt>
<trkpt lat="46.451054709032178" lon="6.978029441088438"><ele></ele><time>2013-9-9T13:57:20Z</time></trkpt>
<trkpt lat="46.451029144227505" lon="6.978034470230341"><ele></ele><time>2013-9-9T13:57:23Z</time></trkpt>
<trkpt lat="46.451000226661563" lon="6.978036900982261"><ele></ele><time>2013-9-9T13:57:26Z</time></trkpt>
<trkpt lat="46.450966699048877" lon="6.978037403896451"><ele></ele><time>2013-9-9T13:57:29Z</time></trkpt>
<trkpt lat="46.450830493122339" lon="6.978042097762227"><ele></ele><time>2013-9-9T13:57:32Z</time></trkpt>
<trkpt lat="46.450794534757733" lon="6.9780417624861"><ele></ele><time>2013-9-9T13:57:35Z</time></trkpt>
<trkpt lat="46.450757905840874" lon="6.978039247915149"><ele></ele><time>2013-9-9T13:57:38Z</time></trkpt>
<trkpt lat="46.450721444562078" lon="6.978037320077419"><ele></ele><time>2013-9-9T13:57:41Z</time></trkpt>
<trkpt lat="46.450682301074266" lon="6.978034973144531"><ele></ele><time>2013-9-9T13:57:44Z</time></trkpt>
<trkpt lat="46.45064483396709" lon="6.978030698373914"><ele></ele><time>2013-9-9T13:57:47Z</time></trkpt>
<trkpt lat="46.450605439022183" lon="6.978026088327169"><ele></ele><time>2013-9-9T13:57:50Z</time></trkpt>
<trkpt lat="46.450565038248897" lon="6.978019550442696"><ele></ele><time>2013-9-9T13:57:53Z</time></trkpt>
<trkpt lat="46.45052220672369" lon="6.978012090548873"><ele></ele><time>2013-9-9T13:57:56Z</time></trkpt>
<trkpt lat="46.450479459017515" lon="6.978002535179257"><ele></ele><time>2013-9-9T13:57:59Z</time></trkpt>
<trkpt lat="46.450435789301991" lon="6.977990381419659"><ele></ele><time>2013-9-9T13:58:2Z</time></trkpt>
<trkpt lat="46.450347695499659" lon="6.97795769199729"><ele></ele><time>2013-9-9T13:58:5Z</time></trkpt>
<trkpt lat="46.45030427724123" lon="6.97793229483068"><ele></ele><time>2013-9-9T13:58:8Z</time></trkpt>
<trkpt lat="46.450260858982801" lon="6.977900443598628"><ele></ele><time>2013-9-9T13:58:11Z</time></trkpt>
<trkpt lat="46.450220290571451" lon="6.977862808853388"><ele></ele><time>2013-9-9T13:58:14Z</time></trkpt>
<trkpt lat="46.450179386883974" lon="6.977827269583941"><ele></ele><time>2013-9-9T13:58:17Z</time></trkpt>
<trkpt lat="46.450137058272958" lon="6.977794328704476"><ele></ele><time>2013-9-9T13:58:20Z</time></trkpt>
<trkpt lat="46.450095316395164" lon="6.977764740586281"><ele></ele><time>2013-9-9T13:58:23Z</time></trkpt>
<trkpt lat="46.450052401050925" lon="6.977736996486783"><ele></ele><time>2013-9-9T13:58:26Z</time></trkpt>
<trkpt lat="46.450013173744082" lon="6.977710090577602"><ele></ele><time>2013-9-9T13:58:29Z</time></trkpt>
<trkpt lat="46.449979981407523" lon="6.977683771401644"><ele></ele><time>2013-9-9T13:58:32Z</time></trkpt>
<trkpt lat="46.449874369427562" lon="6.977604981511831"><ele></ele><time>2013-9-9T13:58:35Z</time></trkpt>
<trkpt lat="46.449759118258953" lon="6.977507583796978"><ele></ele><time>2013-9-9T13:58:38Z</time></trkpt>
<trkpt lat="46.449738163501024" lon="6.977487467229366"><ele></ele><time>2013-9-9T13:58:41Z</time></trkpt>
<trkpt lat="46.449715700000525" lon="6.97747053578496"><ele></ele><time>2013-9-9T13:58:44Z</time></trkpt>
<trkpt lat="46.449689548462629" lon="6.977455364540219"><ele></ele><time>2013-9-9T13:58:47Z</time></trkpt>
<trkpt lat="46.449660295620561" lon="6.977443546056747"><ele></ele><time>2013-9-9T13:58:50Z</time></trkpt>
<trkpt lat="46.449625510722399" lon="6.977442624047399"><ele></ele><time>2013-9-9T13:58:53Z</time></trkpt>
<trkpt lat="46.44959382712841" lon="6.977448826655746"><ele></ele><time>2013-9-9T13:58:56Z</time></trkpt>
<trkpt lat="46.449560802429914" lon="6.9774598069489"><ele></ele><time>2013-9-9T13:58:59Z</time></trkpt>
<trkpt lat="46.44952786155045" lon="6.977483360096812"><ele></ele><time>2013-9-9T13:59:2Z</time></trkpt>
<trkpt lat="46.449494166299701" lon="6.977514456957579"><ele></ele><time>2013-9-9T13:59:5Z</time></trkpt>
<trkpt lat="46.449425267055631" lon="6.977591151371598"><ele></ele><time>2013-9-9T13:59:8Z</time></trkpt>
<trkpt lat="46.449245391413569" lon="6.977862138301134"><ele></ele><time>2013-9-9T13:59:11Z</time></trkpt>
<trkpt lat="46.449220078065991" lon="6.977913267910481"><ele></ele><time>2013-9-9T13:59:14Z</time></trkpt>
<trkpt lat="46.449196357280016" lon="6.977964816614986"><ele></ele><time>2013-9-9T13:59:17Z</time></trkpt>
<trkpt lat="46.449171882122755" lon="6.978018376976252"><ele></ele><time>2013-9-9T13:59:20Z</time></trkpt>
<trkpt lat="46.449150508269668" lon="6.978082079440355"><ele></ele><time>2013-9-9T13:59:23Z</time></trkpt>
<trkpt lat="46.449114801362157" lon="6.978233959525824"><ele></ele><time>2013-9-9T13:59:26Z</time></trkpt>
<trkpt lat="46.449099378660321" lon="6.978313168510795"><ele></ele><time>2013-9-9T13:59:29Z</time></trkpt>
<trkpt lat="46.449077669531107" lon="6.978390030562878"><ele></ele><time>2013-9-9T13:59:32Z</time></trkpt>
<trkpt lat="46.449052020907402" lon="6.978460941463709"><ele></ele><time>2013-9-9T13:59:35Z</time></trkpt>
<trkpt lat="46.449022348970175" lon="6.978535708039999"><ele></ele><time>2013-9-9T13:59:38Z</time></trkpt>
<trkpt lat="46.448910282924771" lon="6.978731760755181"><ele></ele><time>2013-9-9T13:59:41Z</time></trkpt>
<trkpt lat="46.448751697316766" lon="6.978921610862017"><ele></ele><time>2013-9-9T13:59:44Z</time></trkpt>
<trkpt lat="46.448692688718438" lon="6.978978523984551"><ele></ele><time>2013-9-9T13:59:47Z</time></trkpt>
<trkpt lat="46.448639379814267" lon="6.979029066860676"><ele></ele><time>2013-9-9T13:59:50Z</time></trkpt>
<trkpt lat="46.448589339852333" lon="6.979077430441976"><ele></ele><time>2013-9-9T13:59:53Z</time></trkpt>
<trkpt lat="46.448481967672706" lon="6.97922570630908"><ele></ele><time>2013-9-9T13:59:56Z</time></trkpt>
<trkpt lat="46.44844307564199" lon="6.979373982176185"><ele></ele><time>2013-9-9T13:59:59Z</time></trkpt>
<trkpt lat="46.448479872196913" lon="6.979695092886686"><ele></ele><time>2013-9-9T14:0:2Z</time></trkpt>
<trkpt lat="46.448492864146829" lon="6.979748569428921"><ele></ele><time>2013-9-9T14:0:5Z</time></trkpt>
<trkpt lat="46.448513651266694" lon="6.979799196124077"><ele></ele><time>2013-9-9T14:0:8Z</time></trkpt>
<trkpt lat="46.448544077575207" lon="6.97985066100955"><ele></ele><time>2013-9-9T14:0:11Z</time></trkpt>
<trkpt lat="46.448579868301749" lon="6.979898270219564"><ele></ele><time>2013-9-9T14:0:14Z</time></trkpt>
<trkpt lat="46.448617922142148" lon="6.979939760640264"><ele></ele><time>2013-9-9T14:0:17Z</time></trkpt>
<trkpt lat="46.449255868792534" lon="6.980399759486318"><ele></ele><time>2013-9-9T14:0:20Z</time></trkpt>
<trkpt lat="46.449238350614905" lon="6.98044091463089"><ele></ele><time>2013-9-9T14:0:23Z</time></trkpt>
<trkpt lat="46.449056882411242" lon="6.980666052550077"><ele></ele><time>2013-9-9T14:0:26Z</time></trkpt>
<trkpt lat="46.449029473587871" lon="6.980700166895986"><ele></ele><time>2013-9-9T14:0:29Z</time></trkpt>
<trkpt lat="46.449003322049975" lon="6.980732018128038"><ele></ele><time>2013-9-9T14:0:32Z</time></trkpt>
<trkpt lat="46.448976919054985" lon="6.980773592367768"><ele></ele><time>2013-9-9T14:0:35Z</time></trkpt>
<trkpt lat="46.448949594050646" lon="6.980827571824193"><ele></ele><time>2013-9-9T14:0:38Z</time></trkpt>
<trkpt lat="46.448897290974855" lon="6.980935279279947"><ele></ele><time>2013-9-9T14:0:41Z</time></trkpt>
<trkpt lat="46.448873402550817" lon="6.980996634811163"><ele></ele><time>2013-9-9T14:0:44Z</time></trkpt>
<trkpt lat="46.448852363973856" lon="6.981059750542045"><ele></ele><time>2013-9-9T14:0:47Z</time></trkpt>
<trkpt lat="46.448837192729115" lon="6.981118088588119"><ele></ele><time>2013-9-9T14:0:50Z</time></trkpt>
<trkpt lat="46.448823111131787" lon="6.981179527938366"><ele></ele><time>2013-9-9T14:0:53Z</time></trkpt>
<trkpt lat="46.448820764198899" lon="6.981249684467912"><ele></ele><time>2013-9-9T14:0:56Z</time></trkpt>
<trkpt lat="46.448812047019601" lon="6.981390919536352"><ele></ele><time>2013-9-9T14:0:59Z</time></trkpt>
<trkpt lat="46.448788410052657" lon="6.981459818780422"><ele></ele><time>2013-9-9T14:1:2Z</time></trkpt>
<trkpt lat="46.448753289878368" lon="6.981512708589435"><ele></ele><time>2013-9-9T14:1:5Z</time></trkpt>
<trkpt lat="46.448714900761843" lon="6.981563754379749"><ele></ele><time>2013-9-9T14:1:8Z</time></trkpt>
<trkpt lat="46.448675757274032" lon="6.981610022485256"><ele></ele><time>2013-9-9T14:1:11Z</time></trkpt>
<trkpt lat="46.448576515540481" lon="6.981745222583413"><ele></ele><time>2013-9-9T14:1:14Z</time></trkpt>
<trkpt lat="46.44850367680192" lon="6.981893163174391"><ele></ele><time>2013-9-9T14:1:17Z</time></trkpt>
<trkpt lat="46.448465287685394" lon="6.982110422104597"><ele></ele><time>2013-9-9T14:1:20Z</time></trkpt>
<trkpt lat="46.448506023734808" lon="6.982212597504258"><ele></ele><time>2013-9-9T14:1:23Z</time></trkpt>
<trkpt lat="46.448612809181213" lon="6.982288034632802"><ele></ele><time>2013-9-9T14:1:26Z</time></trkpt>
<trkpt lat="46.448658239096403" lon="6.982306391000748"><ele></ele><time>2013-9-9T14:1:29Z</time></trkpt>
<trkpt lat="46.448704926297069" lon="6.982326759025455"><ele></ele><time>2013-9-9T14:1:32Z</time></trkpt>
<trkpt lat="46.448744907975197" lon="6.982346791774035"><ele></ele><time>2013-9-9T14:1:35Z</time></trkpt>
<trkpt lat="46.448779944330454" lon="6.98236171156168"><ele></ele><time>2013-9-9T14:1:38Z</time></trkpt>
<trkpt lat="46.44886426627636" lon="6.982369255274534"><ele></ele><time>2013-9-9T14:1:41Z</time></trkpt>
<trkpt lat="46.44888874143362" lon="6.98236707597971"><ele></ele><time>2013-9-9T14:1:44Z</time></trkpt>
<trkpt lat="46.448906678706408" lon="6.982349809259176"><ele></ele><time>2013-9-9T14:1:47Z</time></trkpt>
<trkpt lat="46.448920425027609" lon="6.98231284506619"><ele></ele><time>2013-9-9T14:1:50Z</time></trkpt>
<trkpt lat="46.44893023185432" lon="6.982271941378713"><ele></ele><time>2013-9-9T14:1:53Z</time></trkpt>
<trkpt lat="46.448940457776189" lon="6.98222734965384"><ele></ele><time>2013-9-9T14:1:56Z</time></trkpt>
<trkpt lat="46.448951689526439" lon="6.982178399339318"><ele></ele><time>2013-9-9T14:1:59Z</time></trkpt>
<trkpt lat="46.448967531323433" lon="6.982122827321291"><ele></ele><time>2013-9-9T14:2:2Z</time></trkpt>
<trkpt lat="46.448983876034617" lon="6.982071194797754"><ele></ele><time>2013-9-9T14:2:5Z</time></trkpt>
<trkpt lat="46.449010027572513" lon="6.982013694941998"><ele></ele><time>2013-9-9T14:2:8Z</time></trkpt>
<trkpt lat="46.449040034785867" lon="6.98195711709559"><ele></ele><time>2013-9-9T14:2:11Z</time></trkpt>
<trkpt lat="46.449071047827601" lon="6.981898443773389"><ele></ele><time>2013-9-9T14:2:14Z</time></trkpt>
<trkpt lat="46.449102312326431" lon="6.981842033565044"><ele></ele><time>2013-9-9T14:2:17Z</time></trkpt>
<trkpt lat="46.449134750291705" lon="6.981781180948019"><ele></ele><time>2013-9-9T14:2:20Z</time></trkpt>
<trkpt lat="46.449169367551804" lon="6.981713538989425"><ele></ele><time>2013-9-9T14:2:23Z</time></trkpt>
<trkpt lat="46.449199877679348" lon="6.981652770191431"><ele></ele><time>2013-9-9T14:2:26Z</time></trkpt>
<trkpt lat="46.449229549616575" lon="6.981593426316977"><ele></ele><time>2013-9-9T14:2:29Z</time></trkpt>
<trkpt lat="46.449254611507058" lon="6.981537938117981"><ele></ele><time>2013-9-9T14:2:32Z</time></trkpt>
<trkpt lat="46.449280427768826" lon="6.981483539566398"><ele></ele><time>2013-9-9T14:2:35Z</time></trkpt>
<trkpt lat="46.449310937896371" lon="6.981430230662227"><ele></ele><time>2013-9-9T14:2:38Z</time></trkpt>
<trkpt lat="46.449347147718072" lon="6.981377089396119"><ele></ele><time>2013-9-9T14:2:41Z</time></trkpt>
<trkpt lat="46.449385704472661" lon="6.981327887624502"><ele></ele><time>2013-9-9T14:2:44Z</time></trkpt>
<trkpt lat="46.449422836303711" lon="6.98128329589963"><ele></ele><time>2013-9-9T14:2:47Z</time></trkpt>
<trkpt lat="46.449460973963141" lon="6.981237698346376"><ele></ele><time>2013-9-9T14:2:50Z</time></trkpt>
<trkpt lat="46.449497183784842" lon="6.981196291744709"><ele></ele><time>2013-9-9T14:2:53Z</time></trkpt>
<trkpt lat="46.449530543759465" lon="6.981152957305312"><ele></ele><time>2013-9-9T14:2:56Z</time></trkpt>
<trkpt lat="46.449563317000866" lon="6.981107024475932"><ele></ele><time>2013-9-9T14:2:59Z</time></trkpt>
<trkpt lat="46.449629114940763" lon="6.981016919016838"><ele></ele><time>2013-9-9T14:3:2Z</time></trkpt>
<trkpt lat="46.449667336419225" lon="6.980977607890964"><ele></ele><time>2013-9-9T14:3:5Z</time></trkpt>
<trkpt lat="46.449709162116051" lon="6.980941984802485"><ele></ele><time>2013-9-9T14:3:8Z</time></trkpt>
<trkpt lat="46.449751323089004" lon="6.980909211561084"><ele></ele><time>2013-9-9T14:3:11Z</time></trkpt>
<trkpt lat="46.449794406071305" lon="6.980878701433539"><ele></ele><time>2013-9-9T14:3:14Z</time></trkpt>
<trkpt lat="46.44983908161521" lon="6.980849700048566"><ele></ele><time>2013-9-9T14:3:17Z</time></trkpt>
<trkpt lat="46.449887277558446" lon="6.980826398357749"><ele></ele><time>2013-9-9T14:3:20Z</time></trkpt>
<trkpt lat="46.449934048578143" lon="6.980802090838552"><ele></ele><time>2013-9-9T14:3:23Z</time></trkpt>
<trkpt lat="46.449983837082982" lon="6.980779292061925"><ele></ele><time>2013-9-9T14:3:26Z</time></trkpt>
<trkpt lat="46.450033877044916" lon="6.980755152180791"><ele></ele><time>2013-9-9T14:3:29Z</time></trkpt>
<trkpt lat="46.450088191777468" lon="6.980726737529039"><ele></ele><time>2013-9-9T14:3:32Z</time></trkpt>
<trkpt lat="46.450136974453926" lon="6.980696897953749"><ele></ele><time>2013-9-9T14:3:35Z</time></trkpt>
<trkpt lat="46.45018064416945" lon="6.980663035064936"><ele></ele><time>2013-9-9T14:3:38Z</time></trkpt>
<trkpt lat="46.450334368273616" lon="6.980539653450251"><ele></ele><time>2013-9-9T14:3:41Z</time></trkpt>
<trkpt lat="46.450365297496319" lon="6.980512328445911"><ele></ele><time>2013-9-9T14:3:44Z</time></trkpt>
<trkpt lat="46.450390946120024" lon="6.980481315404177"><ele></ele><time>2013-9-9T14:3:47Z</time></trkpt>
<trkpt lat="46.450416762381792" lon="6.980447787791491"><ele></ele><time>2013-9-9T14:3:50Z</time></trkpt>
<trkpt lat="46.450444841757417" lon="6.980413254350424"><ele></ele><time>2013-9-9T14:3:53Z</time></trkpt>
<trkpt lat="46.450474429875612" lon="6.980379475280643"><ele></ele><time>2013-9-9T14:3:56Z</time></trkpt>
<trkpt lat="46.450505275279284" lon="6.980346199125052"><ele></ele><time>2013-9-9T14:3:59Z</time></trkpt>
<trkpt lat="46.450536120682955" lon="6.980315688997507"><ele></ele><time>2013-9-9T14:4:2Z</time></trkpt>
<trkpt lat="46.450565289705992" lon="6.980284005403519"><ele></ele><time>2013-9-9T14:4:5Z</time></trkpt>
<trkpt lat="46.450595213100314" lon="6.980250813066959"><ele></ele><time>2013-9-9T14:4:8Z</time></trkpt>
<trkpt lat="46.450622705742717" lon="6.980220470577478"><ele></ele><time>2013-9-9T14:4:11Z</time></trkpt>
<trkpt lat="46.450649779289961" lon="6.980191133916378"><ele></ele><time>2013-9-9T14:4:14Z</time></trkpt>
<trkpt lat="46.450678613036871" lon="6.980163054540753"><ele></ele><time>2013-9-9T14:4:17Z</time></trkpt>
<trkpt lat="46.450709793716669" lon="6.980138495564461"><ele></ele><time>2013-9-9T14:4:20Z</time></trkpt>
<trkpt lat="46.450783303007483" lon="6.980101699009538"><ele></ele><time>2013-9-9T14:4:23Z</time></trkpt>
<trkpt lat="46.450820602476597" lon="6.980093149468303"><ele></ele><time>2013-9-9T14:4:26Z</time></trkpt>
<trkpt lat="46.45085446536541" lon="6.980084180831909"><ele></ele><time>2013-9-9T14:4:29Z</time></trkpt>
<trkpt lat="46.450886903330684" lon="6.980075212195516"><ele></ele><time>2013-9-9T14:4:32Z</time></trkpt>
<trkpt lat="46.45091699436307" lon="6.980067333206534"><ele></ele><time>2013-9-9T14:4:35Z</time></trkpt>
<trkpt lat="46.45094633102417" lon="6.980092814192176"><ele></ele><time>2013-9-9T14:4:38Z</time></trkpt>
<trkpt lat="46.450986647978425" lon="6.980147967115045"><ele></ele><time>2013-9-9T14:4:41Z</time></trkpt>
<trkpt lat="46.451013134792447" lon="6.980192558839917"><ele></ele><time>2013-9-9T14:4:44Z</time></trkpt>
<trkpt lat="46.451039956882596" lon="6.980238324031234"><ele></ele><time>2013-9-9T14:4:47Z</time></trkpt>
<trkpt lat="46.451067449524999" lon="6.980286352336407"><ele></ele><time>2013-9-9T14:4:50Z</time></trkpt>
<trkpt lat="46.451099300757051" lon="6.980334464460611"><ele></ele><time>2013-9-9T14:4:53Z</time></trkpt>
<trkpt lat="46.451135259121656" lon="6.980379223823547"><ele></ele><time>2013-9-9T14:4:56Z</time></trkpt>
<trkpt lat="46.451172893866897" lon="6.980422642081976"><ele></ele><time>2013-9-9T14:4:59Z</time></trkpt>
<trkpt lat="46.451216312125325" lon="6.980467904359102"><ele></ele><time>2013-9-9T14:5:2Z</time></trkpt>
<trkpt lat="46.451262077316642" lon="6.980514004826546"><ele></ele><time>2013-9-9T14:5:5Z</time></trkpt>
<trkpt lat="46.451306333765388" lon="6.980559686198831"><ele></ele><time>2013-9-9T14:5:8Z</time></trkpt>
<trkpt lat="46.451346734538674" lon="6.980598494410515"><ele></ele><time>2013-9-9T14:5:11Z</time></trkpt>
<trkpt lat="46.45138562656939" lon="6.980636129155755"><ele></ele><time>2013-9-9T14:5:14Z</time></trkpt>
<trkpt lat="46.451420998200774" lon="6.980662699788809"><ele></ele><time>2013-9-9T14:5:17Z</time></trkpt>
<trkpt lat="46.451451424509287" lon="6.980690024793148"><ele></ele><time>2013-9-9T14:5:20Z</time></trkpt>
<trkpt lat="46.451495764777064" lon="6.980764539912343"><ele></ele><time>2013-9-9T14:5:23Z</time></trkpt>
<trkpt lat="46.451514288783073" lon="6.980811143293977"><ele></ele><time>2013-9-9T14:5:26Z</time></trkpt>
<trkpt lat="46.451529795303941" lon="6.980856908485293"><ele></ele><time>2013-9-9T14:5:29Z</time></trkpt>
<trkpt lat="46.451517390087247" lon="6.980895800516009"><ele></ele><time>2013-9-9T14:5:32Z</time></trkpt>
<trkpt lat="46.451487466692924" lon="6.980927232652903"><ele></ele><time>2013-9-9T14:5:35Z</time></trkpt>
<trkpt lat="46.451455447822809" lon="6.980953635647893"><ele></ele><time>2013-9-9T14:5:38Z</time></trkpt>
<trkpt lat="46.451419489458203" lon="6.980978362262249"><ele></ele><time>2013-9-9T14:5:41Z</time></trkpt>
<trkpt lat="46.451387135311961" lon="6.980994455516338"><ele></ele><time>2013-9-9T14:5:44Z</time></trkpt>
<trkpt lat="46.451355703175068" lon="6.981000825762749"><ele></ele><time>2013-9-9T14:5:47Z</time></trkpt>
<trkpt lat="46.451323013752699" lon="6.980993282049894"><ele></ele><time>2013-9-9T14:5:50Z</time></trkpt>
<trkpt lat="46.451289653778076" lon="6.980979284271598"><ele></ele><time>2013-9-9T14:5:53Z</time></trkpt>
<trkpt lat="46.451254785060883" lon="6.980960089713335"><ele></ele><time>2013-9-9T14:5:56Z</time></trkpt>
<trkpt lat="46.45121798850596" lon="6.980944583192468"><ele></ele><time>2013-9-9T14:5:59Z</time></trkpt>
<trkpt lat="46.45113349892199" lon="6.980928657576442"><ele></ele><time>2013-9-9T14:6:2Z</time></trkpt>
<trkpt lat="46.451086811721325" lon="6.980919688940048"><ele></ele><time>2013-9-9T14:6:5Z</time></trkpt>
<trkpt lat="46.451036771759391" lon="6.98090854100883"><ele></ele><time>2013-9-9T14:6:8Z</time></trkpt>
<trkpt lat="46.450984552502632" lon="6.98089923709631"><ele></ele><time>2013-9-9T14:6:11Z</time></trkpt>
<trkpt lat="46.45093459635973" lon="6.980889262631536"><ele></ele><time>2013-9-9T14:6:14Z</time></trkpt>
<trkpt lat="46.450886651873589" lon="6.980875432491303"><ele></ele><time>2013-9-9T14:6:17Z</time></trkpt>
<trkpt lat="46.450841221958399" lon="6.980862021446228"><ele></ele><time>2013-9-9T14:6:20Z</time></trkpt>
<trkpt lat="46.450796294957399" lon="6.980855064466596"><ele></ele><time>2013-9-9T14:6:23Z</time></trkpt>
<trkpt lat="46.450751954689622" lon="6.980855567380786"><ele></ele><time>2013-9-9T14:6:26Z</time></trkpt>
<trkpt lat="46.450708033517003" lon="6.980861518532038"><ele></ele><time>2013-9-9T14:6:29Z</time></trkpt>
<trkpt lat="46.450666459277272" lon="6.980870487168431"><ele></ele><time>2013-9-9T14:6:32Z</time></trkpt>
<trkpt lat="46.450625639408827" lon="6.980885826051235"><ele></ele><time>2013-9-9T14:6:35Z</time></trkpt>
<trkpt lat="46.450591273605824" lon="6.980908205732703"><ele></ele><time>2013-9-9T14:6:38Z</time></trkpt>
<trkpt lat="46.450557997450233" lon="6.980936704203486"><ele></ele><time>2013-9-9T14:6:41Z</time></trkpt>
<trkpt lat="46.450558332726359" lon="6.980984145775437"><ele></ele><time>2013-9-9T14:6:44Z</time></trkpt>
<trkpt lat="46.450540898367763" lon="6.981031838804483"><ele></ele><time>2013-9-9T14:6:47Z</time></trkpt>
<trkpt lat="46.450516255572438" lon="6.981084058061242"><ele></ele><time>2013-9-9T14:6:50Z</time></trkpt>
<trkpt lat="46.450489601120353" lon="6.981142982840538"><ele></ele><time>2013-9-9T14:6:53Z</time></trkpt>
<trkpt lat="46.450463198125362" lon="6.981201991438866"><ele></ele><time>2013-9-9T14:6:56Z</time></trkpt>
<trkpt lat="46.450430760160089" lon="6.981264436617494"><ele></ele><time>2013-9-9T14:6:59Z</time></trkpt>
<trkpt lat="46.450402345508337" lon="6.981322774663568"><ele></ele><time>2013-9-9T14:7:2Z</time></trkpt>
<trkpt lat="46.450377451255918" lon="6.981378514319658"><ele></ele><time>2013-9-9T14:7:5Z</time></trkpt>
<trkpt lat="46.450364459306002" lon="6.981428805738688"><ele></ele><time>2013-9-9T14:7:8Z</time></trkpt>
<trkpt lat="46.450356915593147" lon="6.981471721082926"><ele></ele><time>2013-9-9T14:7:11Z</time></trkpt>
<trkpt lat="46.45035364665091" lon="6.981509104371071"><ele></ele><time>2013-9-9T14:7:14Z</time></trkpt>
<trkpt lat="46.450348114594817" lon="6.981586720794439"><ele></ele><time>2013-9-9T14:7:17Z</time></trkpt>
<trkpt lat="46.450347946956754" lon="6.981624020263553"><ele></ele><time>2013-9-9T14:7:20Z</time></trkpt>
<trkpt lat="46.450348868966103" lon="6.981657966971397"><ele></ele><time>2013-9-9T14:7:23Z</time></trkpt>
<trkpt lat="46.450351634994149" lon="6.981702474877238"><ele></ele><time>2013-9-9T14:7:26Z</time></trkpt>
<trkpt lat="46.450352305546403" lon="6.981743797659874"><ele></ele><time>2013-9-9T14:7:29Z</time></trkpt>
<trkpt lat="46.45034140907228" lon="6.981939515098929"><ele></ele><time>2013-9-9T14:7:32Z</time></trkpt>
<trkpt lat="46.450338307768106" lon="6.981990225613117"><ele></ele><time>2013-9-9T14:7:35Z</time></trkpt>
<trkpt lat="46.450329590588808" lon="6.982047474011779"><ele></ele><time>2013-9-9T14:7:38Z</time></trkpt>
<trkpt lat="46.450311988592148" lon="6.982104554772377"><ele></ele><time>2013-9-9T14:7:41Z</time></trkpt>
<trkpt lat="46.450287261977792" lon="6.982161216437817"><ele></ele><time>2013-9-9T14:7:44Z</time></trkpt>
<trkpt lat="46.450261864811182" lon="6.982229528948665"><ele></ele><time>2013-9-9T14:7:47Z</time></trkpt>
<trkpt lat="46.450233282521367" lon="6.982303876429796"><ele></ele><time>2013-9-9T14:7:50Z</time></trkpt>
<trkpt lat="46.450215261429548" lon="6.982381492853165"><ele></ele><time>2013-9-9T14:7:53Z</time></trkpt>
<trkpt lat="46.45020411349833" lon="6.982458606362343"><ele></ele><time>2013-9-9T14:7:56Z</time></trkpt>
<trkpt lat="46.450192714110017" lon="6.982533624395728"><ele></ele><time>2013-9-9T14:7:59Z</time></trkpt>
<trkpt lat="46.450180392712355" lon="6.982610151171684"><ele></ele><time>2013-9-9T14:8:2Z</time></trkpt>
<trkpt lat="46.4501728489995" lon="6.982685588300228"><ele></ele><time>2013-9-9T14:8:5Z</time></trkpt>
<trkpt lat="46.450164802372456" lon="6.982762366533279"><ele></ele><time>2013-9-9T14:8:8Z</time></trkpt>
<trkpt lat="46.450149798765779" lon="6.982839899137616"><ele></ele><time>2013-9-9T14:8:11Z</time></trkpt>
<trkpt lat="46.450149798765779" lon="6.982890777289867"><ele></ele><time>2013-9-9T14:8:14Z</time></trkpt>
<trkpt lat="46.450154995545745" lon="6.982936961576343"><ele></ele><time>2013-9-9T14:8:17Z</time></trkpt>
<trkpt lat="46.450163712725043" lon="6.98298130184412"><ele></ele><time>2013-9-9T14:8:20Z</time></trkpt>
<trkpt lat="46.450176788493991" lon="6.983027067035437"><ele></ele><time>2013-9-9T14:8:23Z</time></trkpt>
<trkpt lat="46.450198832899332" lon="6.98307660408318"><ele></ele><time>2013-9-9T14:8:26Z</time></trkpt>
<trkpt lat="46.450231103226542" lon="6.983120441436768"><ele></ele><time>2013-9-9T14:8:29Z</time></trkpt>
<trkpt lat="46.450265804305673" lon="6.983151957392693"><ele></ele><time>2013-9-9T14:8:32Z</time></trkpt>
<trkpt lat="46.450301595032215" lon="6.983174588531256"><ele></ele><time>2013-9-9T14:8:35Z</time></trkpt>
<trkpt lat="46.450342247262597" lon="6.983190346509218"><ele></ele><time>2013-9-9T14:8:38Z</time></trkpt>
<trkpt lat="46.450384492054582" lon="6.983204260468483"><ele></ele><time>2013-9-9T14:8:41Z</time></trkpt>
<trkpt lat="46.450422210618854" lon="6.983215324580669"><ele></ele><time>2013-9-9T14:8:44Z</time></trkpt>
<trkpt lat="46.450511310249567" lon="6.983229909092188"><ele></ele><time>2013-9-9T14:8:47Z</time></trkpt>
<trkpt lat="46.450823955237865" lon="6.983284559100866"><ele></ele><time>2013-9-9T14:8:50Z</time></trkpt>
<trkpt lat="46.450846586376429" lon="6.983294449746609"><ele></ele><time>2013-9-9T14:8:53Z</time></trkpt>
<trkpt lat="46.450865780934691" lon="6.983301322907209"><ele></ele><time>2013-9-9T14:8:56Z</time></trkpt>
<trkpt lat="46.450884724035859" lon="6.983308112248778"><ele></ele><time>2013-9-9T14:8:59Z</time></trkpt>
<trkpt lat="46.45090282894671" lon="6.983315739780664"><ele></ele><time>2013-9-9T14:9:2Z</time></trkpt>
<trkpt lat="46.45092093385756" lon="6.983324876055121"><ele></ele><time>2013-9-9T14:9:5Z</time></trkpt>
<trkpt lat="46.450937613844872" lon="6.983335437253118"><ele></ele><time>2013-9-9T14:9:8Z</time></trkpt>
<trkpt lat="46.450952868908644" lon="6.983346333727241"><ele></ele><time>2013-9-9T14:9:11Z</time></trkpt>
<trkpt lat="46.450967285782099" lon="6.983358319848776"><ele></ele><time>2013-9-9T14:9:14Z</time></trkpt>
<trkpt lat="46.450981451198459" lon="6.983369970694184"><ele></ele><time>2013-9-9T14:9:17Z</time></trkpt>
<trkpt lat="46.450994275510311" lon="6.983380615711212"><ele></ele><time>2013-9-9T14:9:20Z</time></trkpt>
<trkpt lat="46.451003579422832" lon="6.983381202444434"><ele></ele><time>2013-9-9T14:9:23Z</time></trkpt>
<trkpt lat="46.450960664078593" lon="6.983417244628072"><ele></ele><time>2013-9-9T14:9:26Z</time></trkpt>
<trkpt lat="46.450910121202469" lon="6.983443815261126"><ele></ele><time>2013-9-9T14:9:29Z</time></trkpt>
<trkpt lat="46.450874414294958" lon="6.983454041182995"><ele></ele><time>2013-9-9T14:9:32Z</time></trkpt>
<trkpt lat="46.45081683062017" lon="6.983480360358954"><ele></ele><time>2013-9-9T14:9:35Z</time></trkpt>
<trkpt lat="46.450750529766083" lon="6.9835090264678"><ele></ele><time>2013-9-9T14:9:38Z</time></trkpt>
<trkpt lat="46.450693532824516" lon="6.983554288744927"><ele></ele><time>2013-9-9T14:9:41Z</time></trkpt>
<trkpt lat="46.450633769854903" lon="6.983611201867461"><ele></ele><time>2013-9-9T14:9:44Z</time></trkpt>
<trkpt lat="46.450504185631871" lon="6.983745060861111"><ele></ele><time>2013-9-9T14:9:47Z</time></trkpt>
<trkpt lat="46.450506281107664" lon="6.98379828594625"><ele></ele><time>2013-9-9T14:9:50Z</time></trkpt>
<trkpt lat="46.45051583647728" lon="6.983839441090822"><ele></ele><time>2013-9-9T14:9:53Z</time></trkpt>
<trkpt lat="46.450534360483289" lon="6.9838837813586"><ele></ele><time>2013-9-9T14:9:56Z</time></trkpt>
<trkpt lat="46.450558165088296" lon="6.983919236809015"><ele></ele><time>2013-9-9T14:9:59Z</time></trkpt>
<trkpt lat="46.450586328282952" lon="6.983951842412353"><ele></ele><time>2013-9-9T14:10:2Z</time></trkpt>
<trkpt lat="46.450618682429194" lon="6.983982352539897"><ele></ele><time>2013-9-9T14:10:5Z</time></trkpt>
<trkpt lat="46.450651623308659" lon="6.984011605381966"><ele></ele><time>2013-9-9T14:10:8Z</time></trkpt>
<trkpt lat="46.450686659663916" lon="6.984029542654753"><ele></ele><time>2013-9-9T14:10:11Z</time></trkpt>
<trkpt lat="46.450723959133029" lon="6.984032643958926"><ele></ele><time>2013-9-9T14:10:14Z</time></trkpt>
<trkpt lat="46.450852202251554" lon="6.983955698087812"><ele></ele><time>2013-9-9T14:10:17Z</time></trkpt>
<trkpt lat="46.450933087617159" lon="6.983900377526879"><ele></ele><time>2013-9-9T14:10:20Z</time></trkpt>
<trkpt lat="46.451021851971745" lon="6.983892749994993"><ele></ele><time>2013-9-9T14:10:23Z</time></trkpt>
<trkpt lat="46.451122602447867" lon="6.983899287879467"><ele></ele><time>2013-9-9T14:10:26Z</time></trkpt>
<trkpt lat="46.451206589117646" lon="6.983914123848081"><ele></ele><time>2013-9-9T14:10:29Z</time></trkpt>
<trkpt lat="46.451286049559712" lon="6.983916889876127"><ele></ele><time>2013-9-9T14:10:32Z</time></trkpt>
<trkpt lat="46.451353440061212" lon="6.983910854905844"><ele></ele><time>2013-9-9T14:10:35Z</time></trkpt>
<trkpt lat="46.451423261314631" lon="6.983905155211687"><ele></ele><time>2013-9-9T14:10:38Z</time></trkpt>
<trkpt lat="46.451543122529984" lon="6.983898784965277"><ele></ele><time>2013-9-9T14:10:41Z</time></trkpt>
<trkpt lat="46.451585870236158" lon="6.983900377526879"><ele></ele><time>2013-9-9T14:10:44Z</time></trkpt>
<trkpt lat="46.451627109199762" lon="6.983904568478465"><ele></ele><time>2013-9-9T14:10:47Z</time></trkpt>
<trkpt lat="46.451655188575387" lon="6.983930887654424"><ele></ele><time>2013-9-9T14:10:50Z</time></trkpt>
<trkpt lat="46.451667677611113" lon="6.983970450237393"><ele></ele><time>2013-9-9T14:10:53Z</time></trkpt>
<trkpt lat="46.451666839420795" lon="6.984018729999661"><ele></ele><time>2013-9-9T14:10:56Z</time></trkpt>
<trkpt lat="46.451613949611783" lon="6.984075726941228"><ele></ele><time>2013-9-9T14:10:59Z</time></trkpt>
<trkpt lat="46.451561395078897" lon="6.984121324494481"><ele></ele><time>2013-9-9T14:11:2Z</time></trkpt>
<trkpt lat="46.4515111874789" lon="6.984168011695147"><ele></ele><time>2013-9-9T14:11:5Z</time></trkpt>
<trkpt lat="46.451463578268886" lon="6.984215788543224"><ele></ele><time>2013-9-9T14:11:8Z</time></trkpt>
<trkpt lat="46.45141982473433" lon="6.984265660867095"><ele></ele><time>2013-9-9T14:11:11Z</time></trkpt>
<trkpt lat="46.45137389190495" lon="6.984307821840048"><ele></ele><time>2013-9-9T14:11:14Z</time></trkpt>
<trkpt lat="46.451333910226822" lon="6.984340427443385"><ele></ele><time>2013-9-9T14:11:17Z</time></trkpt>
<trkpt lat="46.451287558302283" lon="6.984379235655069"><ele></ele><time>2013-9-9T14:11:20Z</time></trkpt>
<trkpt lat="46.451241793110967" lon="6.984414607286453"><ele></ele><time>2013-9-9T14:11:23Z</time></trkpt>
<trkpt lat="46.451192926615477" lon="6.984450230374932"><ele></ele><time>2013-9-9T14:11:26Z</time></trkpt>
<trkpt lat="46.451150178909302" lon="6.984490379691124"><ele></ele><time>2013-9-9T14:11:29Z</time></trkpt>
<trkpt lat="46.451109694316983" lon="6.9845400005579"><ele></ele><time>2013-9-9T14:11:32Z</time></trkpt>
<trkpt lat="46.451068706810474" lon="6.984584089368582"><ele></ele><time>2013-9-9T14:11:35Z</time></trkpt>
<trkpt lat="46.451030736789107" lon="6.984631950035691"><ele></ele><time>2013-9-9T14:11:38Z</time></trkpt>
<trkpt lat="46.450992515310645" lon="6.9846763741225"><ele></ele><time>2013-9-9T14:11:41Z</time></trkpt>
<trkpt lat="46.450950019061565" lon="6.984725659713149"><ele></ele><time>2013-9-9T14:11:44Z</time></trkpt>
<trkpt lat="46.450918838381767" lon="6.984788356348872"><ele></ele><time>2013-9-9T14:11:47Z</time></trkpt>
<trkpt lat="46.450880784541368" lon="6.984838647767901"><ele></ele><time>2013-9-9T14:11:50Z</time></trkpt>
<trkpt lat="46.450850274413824" lon="6.984899081289768"><ele></ele><time>2013-9-9T14:11:53Z</time></trkpt>
<trkpt lat="46.450824793428183" lon="6.984957419335842"><ele></ele><time>2013-9-9T14:11:56Z</time></trkpt>
<trkpt lat="46.450820015743375" lon="6.985018439590931"><ele></ele><time>2013-9-9T14:11:59Z</time></trkpt>
<trkpt lat="46.450814735144377" lon="6.985085662454367"><ele></ele><time>2013-9-9T14:12:2Z</time></trkpt>
<trkpt lat="46.450809622183442" lon="6.985156070441008"><ele></ele><time>2013-9-9T14:12:5Z</time></trkpt>
<trkpt lat="46.450809370726347" lon="6.985227651894093"><ele></ele><time>2013-9-9T14:12:8Z</time></trkpt>
<trkpt lat="46.450815321877599" lon="6.985308034345508"><ele></ele><time>2013-9-9T14:12:11Z</time></trkpt>
<trkpt lat="46.4508256316185" lon="6.985389338806272"><ele></ele><time>2013-9-9T14:12:14Z</time></trkpt>
<trkpt lat="46.45083837211132" lon="6.985469218343496"><ele></ele><time>2013-9-9T14:12:17Z</time></trkpt>
<trkpt lat="46.450853208079934" lon="6.985549181699753"><ele></ele><time>2013-9-9T14:12:20Z</time></trkpt>
<trkpt lat="46.450876342132688" lon="6.985629145056009"><ele></ele><time>2013-9-9T14:12:23Z</time></trkpt>
<trkpt lat="46.450899308547378" lon="6.985709862783551"><ele></ele><time>2013-9-9T14:12:26Z</time></trkpt>
<trkpt lat="46.450938284397125" lon="6.985771050676704"><ele></ele><time>2013-9-9T14:12:29Z</time></trkpt>
<trkpt lat="46.450970219448209" lon="6.985836597159505"><ele></ele><time>2013-9-9T14:12:32Z</time></trkpt>
<trkpt lat="46.450998969376087" lon="6.985912704840303"><ele></ele><time>2013-9-9T14:12:35Z</time></trkpt>
<trkpt lat="46.451036436483264" lon="6.986006498336792"><ele></ele><time>2013-9-9T14:12:38Z</time></trkpt>
<trkpt lat="46.451080273836851" lon="6.986092664301395"><ele></ele><time>2013-9-9T14:12:41Z</time></trkpt>
<trkpt lat="46.451126039028168" lon="6.986142536625266"><ele></ele><time>2013-9-9T14:12:44Z</time></trkpt>
<trkpt lat="46.451170966029167" lon="6.986184194684029"><ele></ele><time>2013-9-9T14:12:47Z</time></trkpt>
<trkpt lat="46.45120533183217" lon="6.986236749216914"><ele></ele><time>2013-9-9T14:12:50Z</time></trkpt>
<trkpt lat="46.451286720111966" lon="6.986295087262988"><ele></ele><time>2013-9-9T14:12:53Z</time></trkpt>
<trkpt lat="46.4513039868325" lon="6.986293159425259"><ele></ele><time>2013-9-9T14:12:56Z</time></trkpt>
<trkpt lat="46.451324941590428" lon="6.986280335113406"><ele></ele><time>2013-9-9T14:12:59Z</time></trkpt>
<trkpt lat="46.451340951025486" lon="6.986267091706395"><ele></ele><time>2013-9-9T14:13:2Z</time></trkpt>
<trkpt lat="46.451363749802113" lon="6.986237587407231"><ele></ele><time>2013-9-9T14:13:5Z</time></trkpt>
<trkpt lat="46.451393505558372" lon="6.986202048137784"><ele></ele><time>2013-9-9T14:13:8Z</time></trkpt>
<trkpt lat="46.451428541913629" lon="6.986154690384865"><ele></ele><time>2013-9-9T14:13:11Z</time></trkpt>
<trkpt lat="46.45145745947957" lon="6.986110014840961"><ele></ele><time>2013-9-9T14:13:14Z</time></trkpt>
<trkpt lat="46.451486544683576" lon="6.986068189144135"><ele></ele><time>2013-9-9T14:13:17Z</time></trkpt>
<trkpt lat="46.45167388021946" lon="6.98587641119957"><ele></ele><time>2013-9-9T14:13:20Z</time></trkpt>
<trkpt lat="46.451703971251845" lon="6.985850092023611"><ele></ele><time>2013-9-9T14:13:23Z</time></trkpt>
<trkpt lat="46.451734565198421" lon="6.985824694857001"><ele></ele><time>2013-9-9T14:13:26Z</time></trkpt>
<trkpt lat="46.451764404773712" lon="6.985801225528121"><ele></ele><time>2013-9-9T14:13:29Z</time></trkpt>
<trkpt lat="46.451798435300589" lon="6.985789993777871"><ele></ele><time>2013-9-9T14:13:32Z</time></trkpt>
<trkpt lat="46.451901281252503" lon="6.985779013484716"><ele></ele><time>2013-9-9T14:13:35Z</time></trkpt>
<trkpt lat="46.452040420845151" lon="6.985759902745485"><ele></ele><time>2013-9-9T14:13:38Z</time></trkpt>
<trkpt lat="46.452055675908923" lon="6.985749257728458"><ele></ele><time>2013-9-9T14:13:41Z</time></trkpt>
<trkpt lat="46.452067075297236" lon="6.985741211101413"><ele></ele><time>2013-9-9T14:13:44Z</time></trkpt>
<trkpt lat="46.452075792476535" lon="6.985737439244986"><ele></ele><time>2013-9-9T14:13:47Z</time></trkpt>
<trkpt lat="46.452079983428121" lon="6.985734757035971"><ele></ele><time>2013-9-9T14:13:50Z</time></trkpt>
<trkpt lat="46.452087108045816" lon="6.985728638246656"><ele></ele><time>2013-9-9T14:13:53Z</time></trkpt>
<trkpt lat="46.452112840488553" lon="6.98572251945734"><ele></ele><time>2013-9-9T14:13:56Z</time></trkpt>
<trkpt lat="46.452148798853159" lon="6.985715143382549"><ele></ele><time>2013-9-9T14:13:59Z</time></trkpt>
<trkpt lat="46.452221553772688" lon="6.985627803951502"><ele></ele><time>2013-9-9T14:14:2Z</time></trkpt>
<trkpt lat="46.452268240973353" lon="6.985600898042321"><ele></ele><time>2013-9-9T14:14:5Z</time></trkpt>
<trkpt lat="46.452293219044805" lon="6.985597712919116"><ele></ele><time>2013-9-9T14:14:8Z</time></trkpt>
<trkpt lat="46.452318113297224" lon="6.985602993518114"><ele></ele><time>2013-9-9T14:14:11Z</time></trkpt>
<trkpt lat="46.452344013378024" lon="6.985613638535142"><ele></ele><time>2013-9-9T14:14:14Z</time></trkpt>
<trkpt lat="46.452367315068841" lon="6.985627301037312"><ele></ele><time>2013-9-9T14:14:17Z</time></trkpt>
<trkpt lat="46.452419953420758" lon="6.985685471445322"><ele></ele><time>2013-9-9T14:14:20Z</time></trkpt>
<trkpt lat="46.452429760247469" lon="6.9857107847929"><ele></ele><time>2013-9-9T14:14:23Z</time></trkpt>
<trkpt lat="46.45243470557034" lon="6.985737271606922"><ele></ele><time>2013-9-9T14:14:26Z</time></trkpt>
<trkpt lat="46.452429592609406" lon="6.985765350982547"><ele></ele><time>2013-9-9T14:14:29Z</time></trkpt>
<trkpt lat="46.452415930107236" lon="6.985799381509423"><ele></ele><time>2013-9-9T14:14:32Z</time></trkpt>
<trkpt lat="46.45239950157702" lon="6.98583391495049"><ele></ele><time>2013-9-9T14:14:35Z</time></trkpt>
<trkpt lat="46.452380893751979" lon="6.985873058438301"><ele></ele><time>2013-9-9T14:14:38Z</time></trkpt>
<trkpt lat="46.452363291755319" lon="6.985914800316095"><ele></ele><time>2013-9-9T14:14:41Z</time></trkpt>
<trkpt lat="46.452331943437457" lon="6.985968947410584"><ele></ele><time>2013-9-9T14:14:44Z</time></trkpt>
<trkpt lat="46.452307803556323" lon="6.986019741743803"><ele></ele><time>2013-9-9T14:14:47Z</time></trkpt>
<trkpt lat="46.452284920960665" lon="6.986073218286037"><ele></ele><time>2013-9-9T14:14:50Z</time></trkpt>
<trkpt lat="46.452269330620766" lon="6.986131556332111"><ele></ele><time>2013-9-9T14:14:53Z</time></trkpt>
<trkpt lat="46.452253991737962" lon="6.986191738396883"><ele></ele><time>2013-9-9T14:14:56Z</time></trkpt>
<trkpt lat="46.452241586521268" lon="6.986239766702056"><ele></ele><time>2013-9-9T14:14:59Z</time></trkpt>
<trkpt lat="46.452230522409081" lon="6.986279329285026"><ele></ele><time>2013-9-9T14:15:2Z</time></trkpt>
<trkpt lat="46.452238904312253" lon="6.986416205763817"><ele></ele><time>2013-9-9T14:15:5Z</time></trkpt>
<trkpt lat="46.4522451069206" lon="6.98647596873343"><ele></ele><time>2013-9-9T14:15:8Z</time></trkpt>
<trkpt lat="46.452252902090549" lon="6.986543443053961"><ele></ele><time>2013-9-9T14:15:11Z</time></trkpt>
<trkpt lat="46.452262289822102" lon="6.986611671745777"><ele></ele><time>2013-9-9T14:15:14Z</time></trkpt>
<trkpt lat="46.452271845191717" lon="6.986681912094355"><ele></ele><time>2013-9-9T14:15:17Z</time></trkpt>
<trkpt lat="46.45228567533195" lon="6.986749973148108"><ele></ele><time>2013-9-9T14:15:20Z</time></trkpt>
<trkpt lat="46.452299673110247" lon="6.986819878220558"><ele></ele><time>2013-9-9T14:15:23Z</time></trkpt>
<trkpt lat="46.452313167974353" lon="6.986894141882658"><ele></ele><time>2013-9-9T14:15:26Z</time></trkpt>
<trkpt lat="46.452324902638793" lon="6.986965723335743"><ele></ele><time>2013-9-9T14:15:29Z</time></trkpt>
<trkpt lat="46.452334709465504" lon="6.987045267596841"><ele></ele><time>2013-9-9T14:15:32Z</time></trkpt>
<trkpt lat="46.452340744435787" lon="6.987120872363448"><ele></ele><time>2013-9-9T14:15:35Z</time></trkpt>
<trkpt lat="46.452343426644802" lon="6.987196477130055"><ele></ele><time>2013-9-9T14:15:38Z</time></trkpt>
<trkpt lat="46.452345522120595" lon="6.987276021391153"><ele></ele><time>2013-9-9T14:15:41Z</time></trkpt>
<trkpt lat="46.452346360310912" lon="6.987356320023537"><ele></ele><time>2013-9-9T14:15:44Z</time></trkpt>
<trkpt lat="46.452345186844468" lon="6.987433517351747"><ele></ele><time>2013-9-9T14:15:47Z</time></trkpt>
<trkpt lat="46.452338648959994" lon="6.987513061612845"><ele></ele><time>2013-9-9T14:15:50Z</time></trkpt>
<trkpt lat="46.452331775799394" lon="6.987599981948733"><ele></ele><time>2013-9-9T14:15:53Z</time></trkpt>
<trkpt lat="46.452326914295554" lon="6.987684471532702"><ele></ele><time>2013-9-9T14:15:56Z</time></trkpt>
<trkpt lat="46.452322890982032" lon="6.987764099612832"><ele></ele><time>2013-9-9T14:15:59Z</time></trkpt>
<trkpt lat="46.45232037641108" lon="6.987841883674264"><ele></ele><time>2013-9-9T14:16:2Z</time></trkpt>
<trkpt lat="46.452314425259829" lon="6.987922769039869"><ele></ele><time>2013-9-9T14:16:5Z</time></trkpt>
<trkpt lat="46.452306797727942" lon="6.988005749881268"><ele></ele><time>2013-9-9T14:16:8Z</time></trkpt>
<trkpt lat="46.452298415824771" lon="6.988086719065905"><ele></ele><time>2013-9-9T14:16:11Z</time></trkpt>
<trkpt lat="46.452290453016758" lon="6.988165425136685"><ele></ele><time>2013-9-9T14:16:14Z</time></trkpt>
<trkpt lat="46.452283076941967" lon="6.988237760961056"><ele></ele><time>2013-9-9T14:16:17Z</time></trkpt>
<trkpt lat="46.452282406389713" lon="6.988286208361387"><ele></ele><time>2013-9-9T14:16:20Z</time></trkpt>
<trkpt lat="46.452286094427109" lon="6.988325770944357"><ele></ele><time>2013-9-9T14:16:23Z</time></trkpt>
<trkpt lat="46.452293805778027" lon="6.988361813127995"><ele></ele><time>2013-9-9T14:16:26Z</time></trkpt>
<trkpt lat="46.45229984074831" lon="6.988397520035505"><ele></ele><time>2013-9-9T14:16:29Z</time></trkpt>
<trkpt lat="46.452302439138293" lon="6.988416463136673"><ele></ele><time>2013-9-9T14:16:32Z</time></trkpt>
<trkpt lat="46.452301600947976" lon="6.988413278013468"><ele></ele><time>2013-9-9T14:16:35Z</time></trkpt>
<trkpt lat="46.452301433309913" lon="6.98841629549861"><ele></ele><time>2013-9-9T14:16:38Z</time></trkpt>
<trkpt lat="46.452309396117926" lon="6.988370446488261"><ele></ele><time>2013-9-9T14:16:41Z</time></trkpt>
<trkpt lat="46.452320208773017" lon="6.988323675468564"><ele></ele><time>2013-9-9T14:16:44Z</time></trkpt>
<trkpt lat="46.45233454182744" lon="6.988274892792106"><ele></ele><time>2013-9-9T14:16:47Z</time></trkpt>
<trkpt lat="46.4523521438241" lon="6.988224852830172"><ele></ele><time>2013-9-9T14:16:50Z</time></trkpt>
<trkpt lat="46.452378965914249" lon="6.98818176984787"><ele></ele><time>2013-9-9T14:16:53Z</time></trkpt>
<trkpt lat="46.452414002269506" lon="6.988155534490943"><ele></ele><time>2013-9-9T14:16:56Z</time></trkpt>
<trkpt lat="46.452457420527935" lon="6.988143883645535"><ele></ele><time>2013-9-9T14:16:59Z</time></trkpt>
<trkpt lat="46.452505616471171" lon="6.988132568076253"><ele></ele><time>2013-9-9T14:17:2Z</time></trkpt>
<trkpt lat="46.452558841556311" lon="6.988120246678591"><ele></ele><time>2013-9-9T14:17:5Z</time></trkpt>
<trkpt lat="46.452611982822418" lon="6.988102225586772"><ele></ele><time>2013-9-9T14:17:8Z</time></trkpt>
<trkpt lat="46.452662106603384" lon="6.988085545599461"><ele></ele><time>2013-9-9T14:17:11Z</time></trkpt>
<trkpt lat="46.452711895108223" lon="6.988075068220496"><ele></ele><time>2013-9-9T14:17:14Z</time></trkpt>
<trkpt lat="46.452762437984347" lon="6.988075068220496"><ele></ele><time>2013-9-9T14:17:17Z</time></trkpt>
<trkpt lat="46.452895710244775" lon="6.988108428195119"><ele></ele><time>2013-9-9T14:17:20Z</time></trkpt>
<trkpt lat="46.452937619760633" lon="6.988122090697289"><ele></ele><time>2013-9-9T14:17:23Z</time></trkpt>
<trkpt lat="46.452975589782" lon="6.988135669380426"><ele></ele><time>2013-9-9T14:17:26Z</time></trkpt>
<trkpt lat="46.453012889251113" lon="6.988148326054215"><ele></ele><time>2013-9-9T14:17:29Z</time></trkpt>
<trkpt lat="46.453030072152615" lon="6.988173807039857"><ele></ele><time>2013-9-9T14:17:32Z</time></trkpt>
<trkpt lat="46.45303032360971" lon="6.988196521997452"><ele></ele><time>2013-9-9T14:17:35Z</time></trkpt>
<trkpt lat="46.453019846230745" lon="6.988217895850539"><ele></ele><time>2013-9-9T14:17:38Z</time></trkpt>
<trkpt lat="46.453008614480495" lon="6.988236168399453"><ele></ele><time>2013-9-9T14:17:41Z</time></trkpt>
<trkpt lat="46.452992521226406" lon="6.988257458433509"><ele></ele><time>2013-9-9T14:17:44Z</time></trkpt>
<trkpt lat="46.452971482649446" lon="6.988282101228833"><ele></ele><time>2013-9-9T14:17:47Z</time></trkpt>
<trkpt lat="46.452952539548278" lon="6.988308001309633"><ele></ele><time>2013-9-9T14:17:50Z</time></trkpt>
<trkpt lat="46.452935356646776" lon="6.988329123705626"><ele></ele><time>2013-9-9T14:17:53Z</time></trkpt>
<trkpt lat="46.452917167916894" lon="6.988355023786426"><ele></ele><time>2013-9-9T14:17:56Z</time></trkpt>
<trkpt lat="46.452904343605042" lon="6.98838260024786"><ele></ele><time>2013-9-9T14:17:59Z</time></trkpt>
<trkpt lat="46.452871235087514" lon="6.988501036539674"><ele></ele><time>2013-9-9T14:18:2Z</time></trkpt>
<trkpt lat="46.45285245962441" lon="6.988547388464212"><ele></ele><time>2013-9-9T14:18:5Z</time></trkpt>
<trkpt lat="46.452817590907216" lon="6.988597847521305"><ele></ele><time>2013-9-9T14:18:8Z</time></trkpt>
<trkpt lat="46.452779956161976" lon="6.988651575520635"><ele></ele><time>2013-9-9T14:18:11Z</time></trkpt>
<trkpt lat="46.452750703319907" lon="6.988700525835156"><ele></ele><time>2013-9-9T14:18:14Z</time></trkpt>
<trkpt lat="46.452723126858473" lon="6.988744363188744"><ele></ele><time>2013-9-9T14:18:17Z</time></trkpt>
<trkpt lat="46.452661687508225" lon="6.988859865814447"><ele></ele><time>2013-9-9T14:18:20Z</time></trkpt>
<trkpt lat="46.452657328918576" lon="6.988888867199421"><ele></ele><time>2013-9-9T14:18:23Z</time></trkpt>
<trkpt lat="46.452663699164987" lon="6.988916024565697"><ele></ele><time>2013-9-9T14:18:26Z</time></trkpt>
<trkpt lat="46.452681636437774" lon="6.988940751180053"><ele></ele><time>2013-9-9T14:18:29Z</time></trkpt>
<trkpt lat="46.452699238434434" lon="6.988965477794409"><ele></ele><time>2013-9-9T14:18:32Z</time></trkpt>
<trkpt lat="46.452717343345284" lon="6.988991964608431"><ele></ele><time>2013-9-9T14:18:35Z</time></trkpt>
<trkpt lat="46.452734945341945" lon="6.989003280177712"><ele></ele><time>2013-9-9T14:18:38Z</time></trkpt>
<trkpt lat="46.452754475176334" lon="6.989019457250834"><ele></ele><time>2013-9-9T14:18:41Z</time></trkpt>
<trkpt lat="46.452775346115232" lon="6.989035215228796"><ele></ele><time>2013-9-9T14:18:44Z</time></trkpt>
<trkpt lat="46.452859165146947" lon="6.989099504426122"><ele></ele><time>2013-9-9T14:18:47Z</time></trkpt>
<trkpt lat="46.452893279492855" lon="6.989127667620778"><ele></ele><time>2013-9-9T14:18:50Z</time></trkpt>
<trkpt lat="46.452925466001034" lon="6.989150969311595"><ele></ele><time>2013-9-9T14:18:53Z</time></trkpt>
<trkpt lat="46.452955389395356" lon="6.989163961261511"><ele></ele><time>2013-9-9T14:18:56Z</time></trkpt>
<trkpt lat="46.452981121838093" lon="6.989169241860509"><ele></ele><time>2013-9-9T14:18:59Z</time></trkpt>
<trkpt lat="46.453006183728576" lon="6.989168738946319"><ele></ele><time>2013-9-9T14:19:2Z</time></trkpt>
<trkpt lat="46.453038118779659" lon="6.989162201061845"><ele></ele><time>2013-9-9T14:19:5Z</time></trkpt>
<trkpt lat="46.453069970011711" lon="6.989152310416102"><ele></ele><time>2013-9-9T14:19:8Z</time></trkpt>
<trkpt lat="46.45310265943408" lon="6.989144682884216"><ele></ele><time>2013-9-9T14:19:11Z</time></trkpt>
<trkpt lat="46.453161165118217" lon="6.989127583801746"><ele></ele><time>2013-9-9T14:19:14Z</time></trkpt>
<trkpt lat="46.453190082684159" lon="6.989118531346321"><ele></ele><time>2013-9-9T14:19:17Z</time></trkpt>
<trkpt lat="46.453219084069133" lon="6.989106880500913"><ele></ele><time>2013-9-9T14:19:20Z</time></trkpt>
<trkpt lat="46.453248085454106" lon="6.989090703427792"><ele></ele><time>2013-9-9T14:19:23Z</time></trkpt>
<trkpt lat="46.453273566439748" lon="6.989068742841482"><ele></ele><time>2013-9-9T14:19:26Z</time></trkpt>
<trkpt lat="46.453297203406692" lon="6.989050218835473"><ele></ele><time>2013-9-9T14:19:29Z</time></trkpt>
<trkpt lat="46.453323187306523" lon="6.989034209400415"><ele></ele><time>2013-9-9T14:19:32Z</time></trkpt>
<trkpt lat="46.453355625271797" lon="6.98903102427721"><ele></ele><time>2013-9-9T14:19:35Z</time></trkpt>
<trkpt lat="46.453383537009358" lon="6.989040663465858"><ele></ele><time>2013-9-9T14:19:38Z</time></trkpt>
<trkpt lat="46.453437432646751" lon="6.989064551889896"><ele></ele><time>2013-9-9T14:19:41Z</time></trkpt>
<trkpt lat="46.453544134274125" lon="6.989099504426122"><ele></ele><time>2013-9-9T14:19:44Z</time></trkpt>
<trkpt lat="46.453618314117193" lon="6.989119369536638"><ele></ele><time>2013-9-9T14:19:47Z</time></trkpt>
<trkpt lat="46.453719483688474" lon="6.989209810271859"><ele></ele><time>2013-9-9T14:19:50Z</time></trkpt>
<trkpt lat="46.453757621347904" lon="6.989241158589721"><ele></ele><time>2013-9-9T14:19:53Z</time></trkpt>
<trkpt lat="46.453791735693812" lon="6.989273261278868"><ele></ele><time>2013-9-9T14:19:56Z</time></trkpt>
<trkpt lat="46.45382241345942" lon="6.989308800548315"><ele></ele><time>2013-9-9T14:19:59Z</time></trkpt>
<trkpt lat="46.453847223892808" lon="6.989347776398063"><ele></ele><time>2013-9-9T14:20:2Z</time></trkpt>
<trkpt lat="46.453931294381618" lon="6.989528071135283"><ele></ele><time>2013-9-9T14:20:5Z</time></trkpt>
<trkpt lat="46.453947052359581" lon="6.989577692002058"><ele></ele><time>2013-9-9T14:20:8Z</time></trkpt>
<trkpt lat="46.453959960490465" lon="6.989625636488199"><ele></ele><time>2013-9-9T14:20:11Z</time></trkpt>
<trkpt lat="46.453971359878778" lon="6.989670395851135"><ele></ele><time>2013-9-9T14:20:14Z</time></trkpt>
<trkpt lat="46.453979909420013" lon="6.989714987576008"><ele></ele><time>2013-9-9T14:20:17Z</time></trkpt>
<trkpt lat="46.453987620770931" lon="6.989763183519244"><ele></ele><time>2013-9-9T14:20:20Z</time></trkpt>
<trkpt lat="46.454002540558577" lon="6.989813139662147"><ele></ele><time>2013-9-9T14:20:23Z</time></trkpt>
<trkpt lat="46.454024920240045" lon="6.989863682538271"><ele></ele><time>2013-9-9T14:20:26Z</time></trkpt>
<trkpt lat="46.454049227759242" lon="6.989917829632759"><ele></ele><time>2013-9-9T14:20:29Z</time></trkpt>
<trkpt lat="46.454071355983615" lon="6.989968959242106"><ele></ele><time>2013-9-9T14:20:32Z</time></trkpt>
<trkpt lat="46.454089879989624" lon="6.990024195984006"><ele></ele><time>2013-9-9T14:20:35Z</time></trkpt>
<trkpt lat="46.454105135053396" lon="6.990079432725906"><ele></ele><time>2013-9-9T14:20:38Z</time></trkpt>
<trkpt lat="46.454119384288788" lon="6.990137100219727"><ele></ele><time>2013-9-9T14:20:41Z</time></trkpt>
<trkpt lat="46.454131621867418" lon="6.990193761885166"><ele></ele><time>2013-9-9T14:20:44Z</time></trkpt>
<trkpt lat="46.454143021255732" lon="6.990248914808035"><ele></ele><time>2013-9-9T14:20:47Z</time></trkpt>
<trkpt lat="46.454155091196299" lon="6.990302810445428"><ele></ele><time>2013-9-9T14:20:50Z</time></trkpt>
<trkpt lat="46.454167580232024" lon="6.990360980853438"><ele></ele><time>2013-9-9T14:20:53Z</time></trkpt>
<trkpt lat="46.454179566353559" lon="6.990419989451766"><ele></ele><time>2013-9-9T14:20:56Z</time></trkpt>
<trkpt lat="46.454192390665412" lon="6.990478914231062"><ele></ele><time>2013-9-9T14:20:59Z</time></trkpt>
<trkpt lat="46.454204712063074" lon="6.990539683029056"><ele></ele><time>2013-9-9T14:21:2Z</time></trkpt>
<trkpt lat="46.454213596880436" lon="6.99059902690351"><ele></ele><time>2013-9-9T14:21:5Z</time></trkpt>
<trkpt lat="46.454220470041037" lon="6.990656526759267"><ele></ele><time>2013-9-9T14:21:8Z</time></trkpt>
<trkpt lat="46.454225666821003" lon="6.990712769329548"><ele></ele><time>2013-9-9T14:21:11Z</time></trkpt>
<trkpt lat="46.454231701791286" lon="6.990766916424036"><ele></ele><time>2013-9-9T14:21:14Z</time></trkpt>
<trkpt lat="46.454234970733523" lon="6.990826176479459"><ele></ele><time>2013-9-9T14:21:17Z</time></trkpt>
<trkpt lat="46.454239999875426" lon="6.990884933620691"><ele></ele><time>2013-9-9T14:21:20Z</time></trkpt>
<trkpt lat="46.454241592437029" lon="6.990947378799319"><ele></ele><time>2013-9-9T14:21:23Z</time></trkpt>
<trkpt lat="46.454242933541536" lon="6.991012087091804"><ele></ele><time>2013-9-9T14:21:26Z</time></trkpt>
<trkpt lat="46.454244945198298" lon="6.991074616089463"><ele></ele><time>2013-9-9T14:21:29Z</time></trkpt>
<trkpt lat="46.454247543588281" lon="6.991134295240045"><ele></ele><time>2013-9-9T14:21:32Z</time></trkpt>
<trkpt lat="46.454251483082771" lon="6.991194477304816"><ele></ele><time>2013-9-9T14:21:35Z</time></trkpt>
<trkpt lat="46.454259362071753" lon="6.991260191425681"><ele></ele><time>2013-9-9T14:21:38Z</time></trkpt>
<trkpt lat="46.454274617135525" lon="6.991324480623007"><ele></ele><time>2013-9-9T14:21:41Z</time></trkpt>
<trkpt lat="46.454292805865407" lon="6.99138717725873"><ele></ele><time>2013-9-9T14:21:44Z</time></trkpt>
<trkpt lat="46.454341588541865" lon="6.991467056795955"><ele></ele><time>2013-9-9T14:21:47Z</time></trkpt>
<trkpt lat="46.45438190549612" lon="6.991538889706135"><ele></ele><time>2013-9-9T14:21:50Z</time></trkpt>
<trkpt lat="46.454418785870075" lon="6.991595048457384"><ele></ele><time>2013-9-9T14:21:53Z</time></trkpt>
<trkpt lat="46.454463796690106" lon="6.991642070934176"><ele></ele><time>2013-9-9T14:21:56Z</time></trkpt>
<trkpt lat="46.454617856070399" lon="6.991849020123482"><ele></ele><time>2013-9-9T14:21:59Z</time></trkpt>
<trkpt lat="46.454634703695774" lon="6.991919428110123"><ele></ele><time>2013-9-9T14:22:2Z</time></trkpt>
<trkpt lat="46.454647360369563" lon="6.991993356496096"><ele></ele><time>2013-9-9T14:22:5Z</time></trkpt>
<trkpt lat="46.454659514129162" lon="6.992062758654356"><ele></ele><time>2013-9-9T14:22:8Z</time></trkpt>
<trkpt lat="46.454674685373902" lon="6.992130149155855"><ele></ele><time>2013-9-9T14:22:11Z</time></trkpt>
<trkpt lat="46.454694466665387" lon="6.992200473323464"><ele></ele><time>2013-9-9T14:22:14Z</time></trkpt>
<trkpt lat="46.454816004261374" lon="6.992494091391563"><ele></ele><time>2013-9-9T14:22:17Z</time></trkpt>
<trkpt lat="46.454849615693092" lon="6.992664327844977"><ele></ele><time>2013-9-9T14:22:20Z</time></trkpt>
<trkpt lat="46.454830253496766" lon="6.992652760818601"><ele></ele><time>2013-9-9T14:22:23Z</time></trkpt>
<trkpt lat="46.454817680642009" lon="6.992621328681707"><ele></ele><time>2013-9-9T14:22:26Z</time></trkpt>
<trkpt lat="46.454807203263044" lon="6.992588890716434"><ele></ele><time>2013-9-9T14:22:29Z</time></trkpt>
<trkpt lat="46.454787757247686" lon="6.992313796654344"><ele></ele><time>2013-9-9T14:22:32Z</time></trkpt>
<trkpt lat="46.454781722277403" lon="6.992272306233645"><ele></ele><time>2013-9-9T14:22:35Z</time></trkpt>
<trkpt lat="46.454700417816639" lon="6.992064351215959"><ele></ele><time>2013-9-9T14:22:38Z</time></trkpt>
<trkpt lat="46.454649288207293" lon="6.992018250748515"><ele></ele><time>2013-9-9T14:22:41Z</time></trkpt>
<trkpt lat="46.454589692875743" lon="6.991978101432324"><ele></ele><time>2013-9-9T14:22:44Z</time></trkpt>
<trkpt lat="46.454520039260387" lon="6.991945914924145"><ele></ele><time>2013-9-9T14:22:47Z</time></trkpt>
<trkpt lat="46.454444602131844" lon="6.991919511929154"><ele></ele><time>2013-9-9T14:22:50Z</time></trkpt>
<trkpt lat="46.454379977658391" lon="6.991897970438004"><ele></ele><time>2013-9-9T14:22:53Z</time></trkpt>
<trkpt lat="46.454316778108478" lon="6.99187383055687"><ele></ele><time>2013-9-9T14:22:56Z</time></trkpt>
<trkpt lat="46.454253578558564" lon="6.991850361227989"><ele></ele><time>2013-9-9T14:22:59Z</time></trkpt>
<trkpt lat="46.45420010201633" lon="6.991816163063049"><ele></ele><time>2013-9-9T14:23:2Z</time></trkpt>
<trkpt lat="46.45415123552084" lon="6.991782803088427"><ele></ele><time>2013-9-9T14:23:5Z</time></trkpt>
<trkpt lat="46.454104213044047" lon="6.991761596873403"><ele></ele><time>2013-9-9T14:23:8Z</time></trkpt>
<trkpt lat="46.454033637419343" lon="6.991760674864054"><ele></ele><time>2013-9-9T14:23:11Z</time></trkpt>
<trkpt lat="46.453938670456409" lon="6.991802165284753"><ele></ele><time>2013-9-9T14:23:14Z</time></trkpt>
<trkpt lat="46.453879242762923" lon="6.991836614906788"><ele></ele><time>2013-9-9T14:23:17Z</time></trkpt>
<trkpt lat="46.453863065689802" lon="6.991890762001276"><ele></ele><time>2013-9-9T14:23:20Z</time></trkpt>
<trkpt lat="46.453907070681453" lon="6.991945328190923"><ele></ele><time>2013-9-9T14:23:23Z</time></trkpt>
<trkpt lat="46.453946633264422" lon="6.991988075897098"><ele></ele><time>2013-9-9T14:23:26Z</time></trkpt>
<trkpt lat="46.453984519466758" lon="6.992029566317797"><ele></ele><time>2013-9-9T14:23:29Z</time></trkpt>
<trkpt lat="46.454021399840713" lon="6.992071811109781"><ele></ele><time>2013-9-9T14:23:32Z</time></trkpt>
<trkpt lat="46.454059621319175" lon="6.992111541330814"><ele></ele><time>2013-9-9T14:23:35Z</time></trkpt>
<trkpt lat="46.454098764806986" lon="6.992151606827974"><ele></ele><time>2013-9-9T14:23:38Z</time></trkpt>
<trkpt lat="46.454133717343211" lon="6.992188068106771"><ele></ele><time>2013-9-9T14:23:41Z</time></trkpt>
<trkpt lat="46.454162383452058" lon="6.99222519993782"><ele></ele><time>2013-9-9T14:23:44Z</time></trkpt>
<trkpt lat="46.45418987609446" lon="6.992261912673712"><ele></ele><time>2013-9-9T14:23:47Z</time></trkpt>
<trkpt lat="46.454211669042706" lon="6.992294350638986"><ele></ele><time>2013-9-9T14:23:50Z</time></trkpt>
<trkpt lat="46.454231534153223" lon="6.992328129708767"><ele></ele><time>2013-9-9T14:23:53Z</time></trkpt>
<trkpt lat="46.454249890521169" lon="6.992362830787897"><ele></ele><time>2013-9-9T14:23:56Z</time></trkpt>
<trkpt lat="46.454265648499131" lon="6.992403063923121"><ele></ele><time>2013-9-9T14:23:59Z</time></trkpt>
<trkpt lat="46.454280819743872" lon="6.992441536858678"><ele></ele><time>2013-9-9T14:24:2Z</time></trkpt>
<trkpt lat="46.454292889684439" lon="6.992477495223284"><ele></ele><time>2013-9-9T14:24:5Z</time></trkpt>
<trkpt lat="46.454310994595289" lon="6.992554608732462"><ele></ele><time>2013-9-9T14:24:8Z</time></trkpt>
<trkpt lat="46.454320549964905" lon="6.992597943171859"><ele></ele><time>2013-9-9T14:24:11Z</time></trkpt>
<trkpt lat="46.45433203317225" lon="6.992645636200905"><ele></ele><time>2013-9-9T14:24:14Z</time></trkpt>
<trkpt lat="46.454347372055054" lon="6.992703974246979"><ele></ele><time>2013-9-9T14:24:17Z</time></trkpt>
<trkpt lat="46.454375116154552" lon="6.992776561528444"><ele></ele><time>2013-9-9T14:24:20Z</time></trkpt>
<trkpt lat="46.454408392310143" lon="6.992854261770845"><ele></ele><time>2013-9-9T14:24:23Z</time></trkpt>
<trkpt lat="46.454447619616985" lon="6.992937410250306"><ele></ele><time>2013-9-9T14:24:26Z</time></trkpt>
<trkpt lat="46.454488942399621" lon="6.993026426061988"><ele></ele><time>2013-9-9T14:24:29Z</time></trkpt>
<trkpt lat="46.454526828601956" lon="6.993115190416575"><ele></ele><time>2013-9-9T14:24:32Z</time></trkpt>
<trkpt lat="46.454564714804292" lon="6.993205631151795"><ele></ele><time>2013-9-9T14:24:35Z</time></trkpt>
<trkpt lat="46.454600002616644" lon="6.993296155706048"><ele></ele><time>2013-9-9T14:24:38Z</time></trkpt>
<trkpt lat="46.454636380076408" lon="6.993393385782838"><ele></ele><time>2013-9-9T14:24:41Z</time></trkpt>
<trkpt lat="46.454668901860714" lon="6.993487179279327"><ele></ele><time>2013-9-9T14:24:44Z</time></trkpt>
<trkpt lat="46.45470435731113" lon="6.993580888956785"><ele></ele><time>2013-9-9T14:24:47Z</time></trkpt>
<trkpt lat="46.454742411151528" lon="6.993677280843258"><ele></ele><time>2013-9-9T14:24:50Z</time></trkpt>
<trkpt lat="46.454783314839005" lon="6.993772415444255"><ele></ele><time>2013-9-9T14:24:53Z</time></trkpt>
<trkpt lat="46.454824469983578" lon="6.993863778188825"><ele></ele><time>2013-9-9T14:24:56Z</time></trkpt>
<trkpt lat="46.454861937090755" lon="6.993945753201842"><ele></ele><time>2013-9-9T14:24:59Z</time></trkpt>
<trkpt lat="46.454893620684743" lon="6.994022531434894"><ele></ele><time>2013-9-9T14:25:2Z</time></trkpt>
<trkpt lat="46.454961765557528" lon="6.994172399863601"><ele></ele><time>2013-9-9T14:25:5Z</time></trkpt>
<trkpt lat="46.454992024227977" lon="6.994239203631878"><ele></ele><time>2013-9-9T14:25:8Z</time></trkpt>
<trkpt lat="46.455021360889077" lon="6.994301984086633"><ele></ele><time>2013-9-9T14:25:11Z</time></trkpt>
<trkpt lat="46.455052960664034" lon="6.994364680722356"><ele></ele><time>2013-9-9T14:25:14Z</time></trkpt>
<trkpt lat="46.455084644258022" lon="6.994428215548396"><ele></ele><time>2013-9-9T14:25:17Z</time></trkpt>
<trkpt lat="46.45512118935585" lon="6.994491666555405"><ele></ele><time>2013-9-9T14:25:20Z</time></trkpt>
<trkpt lat="46.455157985910773" lon="6.994559308513999"><ele></ele><time>2013-9-9T14:25:23Z</time></trkpt>
<trkpt lat="46.455185394734144" lon="6.99462971650064"><ele></ele><time>2013-9-9T14:25:26Z</time></trkpt>
<trkpt lat="46.455208025872707" lon="6.99470398016274"><ele></ele><time>2013-9-9T14:25:29Z</time></trkpt>
<trkpt lat="46.455224035307765" lon="6.994780171662569"><ele></ele><time>2013-9-9T14:25:32Z</time></trkpt>
<trkpt lat="46.455235434696078" lon="6.994852675125003"><ele></ele><time>2013-9-9T14:25:35Z</time></trkpt>
<trkpt lat="46.455246498808265" lon="6.994929201900959"><ele></ele><time>2013-9-9T14:25:38Z</time></trkpt>
<trkpt lat="46.4552619215101" lon="6.995003884658217"><ele></ele><time>2013-9-9T14:25:41Z</time></trkpt>
<trkpt lat="46.455278182402253" lon="6.995080914348364"><ele></ele><time>2013-9-9T14:25:44Z</time></trkpt>
<trkpt lat="46.455296538770199" lon="6.995152495801449"><ele></ele><time>2013-9-9T14:25:47Z</time></trkpt>
<trkpt lat="46.455322522670031" lon="6.995219718664885"><ele></ele><time>2013-9-9T14:25:50Z</time></trkpt>
<trkpt lat="46.455350937321782" lon="6.995283588767052"><ele></ele><time>2013-9-9T14:25:53Z</time></trkpt>
<trkpt lat="46.455379938706756" lon="6.995347207412124"><ele></ele><time>2013-9-9T14:25:56Z</time></trkpt>
<trkpt lat="46.455406593158841" lon="6.995403533801436"><ele></ele><time>2013-9-9T14:25:59Z</time></trkpt>
<trkpt lat="46.455432660877705" lon="6.995462458580732"><ele></ele><time>2013-9-9T14:26:2Z</time></trkpt>
<trkpt lat="46.455459902063012" lon="6.995523562654853"><ele></ele><time>2013-9-9T14:26:5Z</time></trkpt>
<trkpt lat="46.455487227067351" lon="6.995582235977054"><ele></ele><time>2013-9-9T14:26:8Z</time></trkpt>
<trkpt lat="46.455508014187217" lon="6.995629174634814"><ele></ele><time>2013-9-9T14:26:11Z</time></trkpt>
<trkpt lat="46.455528130754828" lon="6.995672760531306"><ele></ele><time>2013-9-9T14:26:14Z</time></trkpt>
<trkpt lat="46.455546403303742" lon="6.995714502409101"><ele></ele><time>2013-9-9T14:26:17Z</time></trkpt>
<trkpt lat="46.455568028613925" lon="6.995755070820451"><ele></ele><time>2013-9-9T14:26:20Z</time></trkpt>
<trkpt lat="46.455592084676027" lon="6.995798656716943"><ele></ele><time>2013-9-9T14:26:23Z</time></trkpt>
<trkpt lat="46.455612536519766" lon="6.995840985327959"><ele></ele><time>2013-9-9T14:26:26Z</time></trkpt>
<trkpt lat="46.455633910372853" lon="6.995886582881212"><ele></ele><time>2013-9-9T14:26:29Z</time></trkpt>
<trkpt lat="46.455656038597226" lon="6.995927821844816"><ele></ele><time>2013-9-9T14:26:32Z</time></trkpt>
<trkpt lat="46.455675484612584" lon="6.995971826836467"><ele></ele><time>2013-9-9T14:26:35Z</time></trkpt>
<trkpt lat="46.455695768818259" lon="6.996014406904578"><ele></ele><time>2013-9-9T14:26:38Z</time></trkpt>
<trkpt lat="46.455727703869343" lon="6.996067464351654"><ele></ele><time>2013-9-9T14:26:41Z</time></trkpt>
<trkpt lat="46.455762488767505" lon="6.996120437979698"><ele></ele><time>2013-9-9T14:26:44Z</time></trkpt>
<trkpt lat="46.455799201503396" lon="6.996174501255155"><ele></ele><time>2013-9-9T14:26:47Z</time></trkpt>
<trkpt lat="46.455827951431274" lon="6.996229067444801"><ele></ele><time>2013-9-9T14:26:50Z</time></trkpt>
<trkpt lat="46.455858293920755" lon="6.996289752423763"><ele></ele><time>2013-9-9T14:26:53Z</time></trkpt>
<trkpt lat="46.455887798219919" lon="6.996340714395046"><ele></ele><time>2013-9-9T14:26:56Z</time></trkpt>
<trkpt lat="46.455917470157146" lon="6.996393268927932"><ele></ele><time>2013-9-9T14:26:59Z</time></trkpt>
<trkpt lat="46.45594890229404" lon="6.99644397944212"><ele></ele><time>2013-9-9T14:27:2Z</time></trkpt>
<trkpt lat="46.455984693020582" lon="6.996493265032768"><ele></ele><time>2013-9-9T14:27:5Z</time></trkpt>
<trkpt lat="46.456013526767492" lon="6.996535006910563"><ele></ele><time>2013-9-9T14:27:8Z</time></trkpt>
<trkpt lat="46.456043282523751" lon="6.996577419340611"><ele></ele><time>2013-9-9T14:27:11Z</time></trkpt>
<trkpt lat="46.456075301393867" lon="6.996624357998371"><ele></ele><time>2013-9-9T14:27:14Z</time></trkpt>
<trkpt lat="46.456115450710058" lon="6.996683785691857"><ele></ele><time>2013-9-9T14:27:17Z</time></trkpt>
<trkpt lat="46.456155180931091" lon="6.996735082939267"><ele></ele><time>2013-9-9T14:27:20Z</time></trkpt>
<trkpt lat="46.456194659695029" lon="6.996786128729582"><ele></ele><time>2013-9-9T14:27:23Z</time></trkpt>
<trkpt lat="46.456232210621238" lon="6.996833486482501"><ele></ele><time>2013-9-9T14:27:26Z</time></trkpt>
<trkpt lat="46.456265319138765" lon="6.996861565858126"><ele></ele><time>2013-9-9T14:27:29Z</time></trkpt>
<trkpt lat="46.456291638314724" lon="6.996893333271146"><ele></ele><time>2013-9-9T14:27:32Z</time></trkpt>
<trkpt lat="46.456405045464635" lon="6.997085446491838"><ele></ele><time>2013-9-9T14:27:35Z</time></trkpt>
<trkpt lat="46.456398172304034" lon="6.997117633000016"><ele></ele><time>2013-9-9T14:27:38Z</time></trkpt>
<trkpt lat="46.456358274444938" lon="6.997082093730569"><ele></ele><time>2013-9-9T14:27:41Z</time></trkpt>
<trkpt lat="46.456333380192518" lon="6.997064156457782"><ele></ele><time>2013-9-9T14:27:44Z</time></trkpt>
<trkpt lat="46.456303792074323" lon="6.997043285518885"><ele></ele><time>2013-9-9T14:27:47Z</time></trkpt>
<trkpt lat="46.456271773204207" lon="6.9970200676471"><ele></ele><time>2013-9-9T14:27:50Z</time></trkpt>
<trkpt lat="46.45623522810638" lon="6.996995005756617"><ele></ele><time>2013-9-9T14:27:53Z</time></trkpt>
<trkpt lat="46.456187199801207" lon="6.996971871703863"><ele></ele><time>2013-9-9T14:27:56Z</time></trkpt>
<trkpt lat="46.456131460145116" lon="6.996945049613714"><ele></ele><time>2013-9-9T14:27:59Z</time></trkpt>
<trkpt lat="46.456072619184852" lon="6.996916886419058"><ele></ele><time>2013-9-9T14:28:2Z</time></trkpt>
<trkpt lat="46.456017214804888" lon="6.996882101520896"><ele></ele><time>2013-9-9T14:28:5Z</time></trkpt>
<trkpt lat="46.455960972234607" lon="6.99683734215796"><ele></ele><time>2013-9-9T14:28:8Z</time></trkpt>
<trkpt lat="46.455912021920085" lon="6.99680658057332"><ele></ele><time>2013-9-9T14:28:11Z</time></trkpt>
<trkpt lat="46.455862568691373" lon="6.996775651350617"><ele></ele><time>2013-9-9T14:28:14Z</time></trkpt>
<trkpt lat="46.455811774358153" lon="6.996745057404041"><ele></ele><time>2013-9-9T14:28:17Z</time></trkpt>
<trkpt lat="46.455762153491378" lon="6.996716223657131"><ele></ele><time>2013-9-9T14:28:20Z</time></trkpt>
<trkpt lat="46.455714292824268" lon="6.996682276949287"><ele></ele><time>2013-9-9T14:28:23Z</time></trkpt>
<trkpt lat="46.455662827938795" lon="6.996646737679839"><ele></ele><time>2013-9-9T14:28:26Z</time></trkpt>
<trkpt lat="46.455608094111085" lon="6.996608935296536"><ele></ele><time>2013-9-9T14:28:29Z</time></trkpt>
<trkpt lat="46.455553527921438" lon="6.996568031609058"><ele></ele><time>2013-9-9T14:28:32Z</time></trkpt>
<trkpt lat="46.455497536808252" lon="6.996531151235104"><ele></ele><time>2013-9-9T14:28:35Z</time></trkpt>
<trkpt lat="46.455439869314432" lon="6.996506508439779"><ele></ele><time>2013-9-9T14:28:38Z</time></trkpt>
<trkpt lat="46.455382537096739" lon="6.996477004140616"><ele></ele><time>2013-9-9T14:28:41Z</time></trkpt>
<trkpt lat="46.455323193222284" lon="6.996445991098881"><ele></ele><time>2013-9-9T14:28:44Z</time></trkpt>
<trkpt lat="46.455262005329132" lon="6.996413553133607"><ele></ele><time>2013-9-9T14:28:47Z</time></trkpt>
<trkpt lat="46.455205427482724" lon="6.996377008035779"><ele></ele><time>2013-9-9T14:28:50Z</time></trkpt>
<trkpt lat="46.455159662291408" lon="6.996347503736615"><ele></ele><time>2013-9-9T14:28:53Z</time></trkpt>
<trkpt lat="46.455116914585233" lon="6.996334595605731"><ele></ele><time>2013-9-9T14:28:56Z</time></trkpt>
<trkpt lat="46.455059414729476" lon="6.996344150975347"><ele></ele><time>2013-9-9T14:28:59Z</time></trkpt>
<trkpt lat="46.455013817176223" lon="6.996359908953309"><ele></ele><time>2013-9-9T14:29:2Z</time></trkpt>
<trkpt lat="46.454979116097093" lon="6.996382456272841"><ele></ele><time>2013-9-9T14:29:5Z</time></trkpt>
<trkpt lat="46.454953970387578" lon="6.996407518163323"><ele></ele><time>2013-9-9T14:29:8Z</time></trkpt>
<trkpt lat="46.454936619848013" lon="6.996436854824424"><ele></ele><time>2013-9-9T14:29:11Z</time></trkpt>
<trkpt lat="46.454913401976228" lon="6.99651095084846"><ele></ele><time>2013-9-9T14:29:14Z</time></trkpt>
<trkpt lat="46.454907283186913" lon="6.996556632220745"><ele></ele><time>2013-9-9T14:29:17Z</time></trkpt>
<trkpt lat="46.454908791929483" lon="6.996605582535267"><ele></ele><time>2013-9-9T14:29:20Z</time></trkpt>
<trkpt lat="46.454915497452021" lon="6.99665361084044"><ele></ele><time>2013-9-9T14:29:23Z</time></trkpt>
<trkpt lat="46.454925304278731" lon="6.996703231707215"><ele></ele><time>2013-9-9T14:29:26Z</time></trkpt>
<trkpt lat="46.454940475523472" lon="6.996753187850118"><ele></ele><time>2013-9-9T14:29:29Z</time></trkpt>
<trkpt lat="46.454959083348513" lon="6.996805407106876"><ele></ele><time>2013-9-9T14:29:32Z</time></trkpt>
<trkpt lat="46.454976769164205" lon="6.996855111792684"><ele></ele><time>2013-9-9T14:29:35Z</time></trkpt>
<trkpt lat="46.455002082511783" lon="6.996911857277155"><ele></ele><time>2013-9-9T14:29:38Z</time></trkpt>
<trkpt lat="46.455030078068376" lon="6.996971201151609"><ele></ele><time>2013-9-9T14:29:41Z</time></trkpt>
<trkpt lat="46.455063773319125" lon="6.997034316882491"><ele></ele><time>2013-9-9T14:29:44Z</time></trkpt>
<trkpt lat="46.455102665349841" lon="6.997100869193673"><ele></ele><time>2013-9-9T14:29:47Z</time></trkpt>
<trkpt lat="46.455146335065365" lon="6.997165158390999"><ele></ele><time>2013-9-9T14:29:50Z</time></trkpt>
<trkpt lat="46.455187909305096" lon="6.997232045978308"><ele></ele><time>2013-9-9T14:29:53Z</time></trkpt>
<trkpt lat="46.455228561535478" lon="6.997294407337904"><ele></ele><time>2013-9-9T14:29:56Z</time></trkpt>
<trkpt lat="46.455270554870367" lon="6.997354086488485"><ele></ele><time>2013-9-9T14:29:59Z</time></trkpt>
<trkpt lat="46.455314056947827" lon="6.997419213876128"><ele></ele><time>2013-9-9T14:30:2Z</time></trkpt>
<trkpt lat="46.455360325053334" lon="6.997479731217027"><ele></ele><time>2013-9-9T14:30:5Z</time></trkpt>
<trkpt lat="46.455417824909091" lon="6.997553156688809"><ele></ele><time>2013-9-9T14:30:8Z</time></trkpt>
<trkpt lat="46.455466356128454" lon="6.997614093124867"><ele></ele><time>2013-9-9T14:30:11Z</time></trkpt>
<trkpt lat="46.455555539578199" lon="6.997702186927199"><ele></ele><time>2013-9-9T14:30:14Z</time></trkpt>
<trkpt lat="46.455629551783204" lon="6.997780725359917"><ele></ele><time>2013-9-9T14:30:17Z</time></trkpt>
<trkpt lat="46.455701971426606" lon="6.997864712029696"><ele></ele><time>2013-9-9T14:30:20Z</time></trkpt>
<trkpt lat="46.45580280572176" lon="6.997960768640041"><ele></ele><time>2013-9-9T14:30:23Z</time></trkpt>
<trkpt lat="46.455895006656647" lon="6.998053472489119"><ele></ele><time>2013-9-9T14:30:26Z</time></trkpt>
<trkpt lat="46.45598653703928" lon="6.99814491905272"><ele></ele><time>2013-9-9T14:30:29Z</time></trkpt>
<trkpt lat="46.456084605306387" lon="6.998244915157557"><ele></ele><time>2013-9-9T14:30:32Z</time></trkpt>
<trkpt lat="46.45617077127099" lon="6.998342229053378"><ele></ele><time>2013-9-9T14:30:35Z</time></trkpt>
<trkpt lat="46.456240676343441" lon="6.998421521857381"><ele></ele><time>2013-9-9T14:30:38Z</time></trkpt>
<trkpt lat="46.45630999468267" lon="6.998495953157544"><ele></ele><time>2013-9-9T14:30:41Z</time></trkpt>
<trkpt lat="46.456377049908042" lon="6.998570216819644"><ele></ele><time>2013-9-9T14:30:44Z</time></trkpt>
<trkpt lat="46.456425916403532" lon="6.998631069436669"><ele></ele><time>2013-9-9T14:30:47Z</time></trkpt>
<trkpt lat="46.456589279696345" lon="6.998799797147512"><ele></ele><time>2013-9-9T14:30:50Z</time></trkpt>
<trkpt lat="46.456648707389832" lon="6.998855285346508"><ele></ele><time>2013-9-9T14:30:53Z</time></trkpt>
<trkpt lat="46.456709057092667" lon="6.998911025002599"><ele></ele><time>2013-9-9T14:30:56Z</time></trkpt>
<trkpt lat="46.456769490614533" lon="6.998965926468372"><ele></ele><time>2013-9-9T14:30:59Z</time></trkpt>
<trkpt lat="46.456825314089656" lon="6.99901663698256"><ele></ele><time>2013-9-9T14:31:2Z</time></trkpt>
<trkpt lat="46.456877281889319" lon="6.999068856239319"><ele></ele><time>2013-9-9T14:31:5Z</time></trkpt>
<trkpt lat="46.456922963261604" lon="6.999115962535143"><ele></ele><time>2013-9-9T14:31:8Z</time></trkpt>
<trkpt lat="46.456971913576126" lon="6.999164912849665"><ele></ele><time>2013-9-9T14:31:11Z</time></trkpt>
<trkpt lat="46.457019355148077" lon="6.999216377735138"><ele></ele><time>2013-9-9T14:31:14Z</time></trkpt>
<trkpt lat="46.457060342654586" lon="6.999263735488057"><ele></ele><time>2013-9-9T14:31:17Z</time></trkpt>
<trkpt lat="46.457099067047238" lon="6.999311177060008"><ele></ele><time>2013-9-9T14:31:20Z</time></trkpt>
<trkpt lat="46.457128822803497" lon="6.99935769662261"><ele></ele><time>2013-9-9T14:31:23Z</time></trkpt>
<trkpt lat="46.457150615751743" lon="6.999396421015263"><ele></ele><time>2013-9-9T14:31:26Z</time></trkpt>
<trkpt lat="46.457171654328704" lon="6.9994290266186"><ele></ele><time>2013-9-9T14:31:29Z</time></trkpt>
<trkpt lat="46.45722471177578" lon="6.99950572103262"><ele></ele><time>2013-9-9T14:31:32Z</time></trkpt>
<trkpt lat="46.457249270752072" lon="6.999534722417593"><ele></ele><time>2013-9-9T14:31:35Z</time></trkpt>
<trkpt lat="46.457270057871938" lon="6.999566573649645"><ele></ele><time>2013-9-9T14:31:38Z</time></trkpt>
<trkpt lat="46.457298891618848" lon="6.999591970816255"><ele></ele><time>2013-9-9T14:31:41Z</time></trkpt>
<trkpt lat="46.457329653203487" lon="6.999611835926771"><ele></ele><time>2013-9-9T14:31:44Z</time></trkpt>
<trkpt lat="46.457392014563084" lon="6.999654248356819"><ele></ele><time>2013-9-9T14:31:47Z</time></trkpt>
<trkpt lat="46.457422859966755" lon="6.999675454571843"><ele></ele><time>2013-9-9T14:31:50Z</time></trkpt>
<trkpt lat="46.457453453913331" lon="6.999699510633946"><ele></ele><time>2013-9-9T14:31:53Z</time></trkpt>
<trkpt lat="46.457483042031527" lon="6.999722477048636"><ele></ele><time>2013-9-9T14:31:56Z</time></trkpt>
<trkpt lat="46.457511456683278" lon="6.999743096530438"><ele></ele><time>2013-9-9T14:31:59Z</time></trkpt>
<trkpt lat="46.457601645961404" lon="6.999797914177179"><ele></ele><time>2013-9-9T14:32:2Z</time></trkpt>
<trkpt lat="46.457725530490279" lon="6.999889444559813"><ele></ele><time>2013-9-9T14:32:5Z</time></trkpt>
<trkpt lat="46.457737348973751" lon="6.999901430681348"><ele></ele><time>2013-9-9T14:32:8Z</time></trkpt>
<trkpt lat="46.457742545753717" lon="6.999915931373835"><ele></ele><time>2013-9-9T14:32:11Z</time></trkpt>
<trkpt lat="46.457732571288943" lon="6.999925151467323"><ele></ele><time>2013-9-9T14:32:14Z</time></trkpt>
<trkpt lat="46.457714550197124" lon="6.999928671866655"><ele></ele><time>2013-9-9T14:32:17Z</time></trkpt>
<trkpt lat="46.457669120281935" lon="6.999915512278676"><ele></ele><time>2013-9-9T14:32:20Z</time></trkpt>
<trkpt lat="46.457633161917329" lon="6.999819707125425"><ele></ele><time>2013-9-9T14:32:23Z</time></trkpt>
<trkpt lat="46.457604831084609" lon="6.999760614708066"><ele></ele><time>2013-9-9T14:32:26Z</time></trkpt>
<trkpt lat="46.45747147500515" lon="6.999658104032278"><ele></ele><time>2013-9-9T14:32:29Z</time></trkpt>
<trkpt lat="46.457426128908992" lon="6.999634215608239"><ele></ele><time>2013-9-9T14:32:32Z</time></trkpt>
<trkpt lat="46.457378016784787" lon="6.999608986079693"><ele></ele><time>2013-9-9T14:32:35Z</time></trkpt>
<trkpt lat="46.457324707880616" lon="6.999587025493383"><ele></ele><time>2013-9-9T14:32:38Z</time></trkpt>
<trkpt lat="46.457270812243223" lon="6.999566992744803"><ele></ele><time>2013-9-9T14:32:41Z</time></trkpt>
<trkpt lat="46.457213144749403" lon="6.999547211453319"><ele></ele><time>2013-9-9T14:32:44Z</time></trkpt>
<trkpt lat="46.457150029018521" lon="6.999525669962168"><ele></ele><time>2013-9-9T14:32:47Z</time></trkpt>
<trkpt lat="46.457080123946071" lon="6.999505469575524"><ele></ele><time>2013-9-9T14:32:50Z</time></trkpt>
<trkpt lat="46.457003178074956" lon="6.99948568828404"><ele></ele><time>2013-9-9T14:32:53Z</time></trkpt>
<trkpt lat="46.456928746774793" lon="6.999468170106411"><ele></ele><time>2013-9-9T14:32:56Z</time></trkpt>
<trkpt lat="46.456850543618202" lon="6.999451573938131"><ele></ele><time>2013-9-9T14:32:59Z</time></trkpt>
<trkpt lat="46.456776782870293" lon="6.999438246712089"><ele></ele><time>2013-9-9T14:33:2Z</time></trkpt>
<trkpt lat="46.456706039607525" lon="6.999430032446981"><ele></ele><time>2013-9-9T14:33:5Z</time></trkpt>
<trkpt lat="46.456639571115375" lon="6.999434223398566"><ele></ele><time>2013-9-9T14:33:8Z</time></trkpt>
<trkpt lat="46.456545358523726" lon="6.999510079622269"><ele></ele><time>2013-9-9T14:33:11Z</time></trkpt>
<trkpt lat="46.456322399899364" lon="6.999625917524099"><ele></ele><time>2013-9-9T14:33:14Z</time></trkpt>
<trkpt lat="46.456271354109049" lon="6.999656511470676"><ele></ele><time>2013-9-9T14:33:17Z</time></trkpt>
<trkpt lat="46.45623623393476" lon="6.999695738777518"><ele></ele><time>2013-9-9T14:33:20Z</time></trkpt>
<trkpt lat="46.456206981092691" lon="6.999738067388535"><ele></ele><time>2013-9-9T14:33:23Z</time></trkpt>
<trkpt lat="46.456188792362809" lon="6.999776288866997"><ele></ele><time>2013-9-9T14:33:26Z</time></trkpt>
<trkpt lat="46.456188708543777" lon="6.999805206432939"><ele></ele><time>2013-9-9T14:33:29Z</time></trkpt>
<trkpt lat="46.456201281398535" lon="6.999830771237612"><ele></ele><time>2013-9-9T14:33:32Z</time></trkpt>
<trkpt lat="46.456224163994193" lon="6.999874357134104"><ele></ele><time>2013-9-9T14:33:35Z</time></trkpt>
<trkpt lat="46.456257104873657" lon="6.999927079305053"><ele></ele><time>2013-9-9T14:33:38Z</time></trkpt>
<trkpt lat="46.456290716305375" lon="6.99997921474278"><ele></ele><time>2013-9-9T14:33:41Z</time></trkpt>
<trkpt lat="46.456323489546776" lon="7.000036714598537"><ele></ele><time>2013-9-9T14:33:44Z</time></trkpt>
<trkpt lat="46.456360453739762" lon="7.000102428719401"><ele></ele><time>2013-9-9T14:33:47Z</time></trkpt>
<trkpt lat="46.456399010494351" lon="7.000166634097695"><ele></ele><time>2013-9-9T14:33:50Z</time></trkpt>
<trkpt lat="46.456435974687338" lon="7.00023964047432"><ele></ele><time>2013-9-9T14:33:53Z</time></trkpt>
<trkpt lat="46.456477800384164" lon="7.000313317403197"><ele></ele><time>2013-9-9T14:33:56Z</time></trkpt>
<trkpt lat="46.456529013812542" lon="7.000392358750105"><ele></ele><time>2013-9-9T14:33:59Z</time></trkpt>
<trkpt lat="46.456585424020886" lon="7.000467879697681"><ele></ele><time>2013-9-9T14:34:2Z</time></trkpt>
<trkpt lat="46.456630518659949" lon="7.000523954629898"><ele></ele><time>2013-9-9T14:34:5Z</time></trkpt>
<trkpt lat="46.456683073192835" lon="7.000570641830564"><ele></ele><time>2013-9-9T14:34:8Z</time></trkpt>
<trkpt lat="46.456733029335737" lon="7.000645743682981"><ele></ele><time>2013-9-9T14:34:11Z</time></trkpt>
<trkpt lat="46.456770915538073" lon="7.000707853585482"><ele></ele><time>2013-9-9T14:34:14Z</time></trkpt>
<trkpt lat="46.456807879731059" lon="7.000778429210186"><ele></ele><time>2013-9-9T14:34:17Z</time></trkpt>
<trkpt lat="46.456834701821208" lon="7.000844646245241"><ele></ele><time>2013-9-9T14:34:20Z</time></trkpt>
<trkpt lat="46.456832271069288" lon="7.000914718955755"><ele></ele><time>2013-9-9T14:34:23Z</time></trkpt>
<trkpt lat="46.456820201128721" lon="7.000975906848908"><ele></ele><time>2013-9-9T14:34:26Z</time></trkpt>
<trkpt lat="46.456798240542412" lon="7.001029970124364"><ele></ele><time>2013-9-9T14:34:29Z</time></trkpt>
<trkpt lat="46.456781728193164" lon="7.00108646415174"><ele></ele><time>2013-9-9T14:34:32Z</time></trkpt>
<trkpt lat="46.456762282177806" lon="7.001142958179116"><ele></ele><time>2013-9-9T14:34:35Z</time></trkpt>
<trkpt lat="46.456743003800511" lon="7.0011973567307"><ele></ele><time>2013-9-9T14:34:38Z</time></trkpt>
<trkpt lat="46.456725485622883" lon="7.001251587644219"><ele></ele><time>2013-9-9T14:34:41Z</time></trkpt>
<trkpt lat="46.456706626340747" lon="7.001308919861913"><ele></ele><time>2013-9-9T14:34:44Z</time></trkpt>
<trkpt lat="46.456730933859944" lon="7.001638999208808"><ele></ele><time>2013-9-9T14:34:47Z</time></trkpt>
<trkpt lat="46.456770580261946" lon="7.001788867637515"><ele></ele><time>2013-9-9T14:34:50Z</time></trkpt>
<trkpt lat="46.456821039319038" lon="7.001934042200446"><ele></ele><time>2013-9-9T14:34:53Z</time></trkpt>
<trkpt lat="46.4568782877177" lon="7.002073517069221"><ele></ele><time>2013-9-9T14:34:56Z</time></trkpt>
<trkpt lat="46.456936961039901" lon="7.002208130434156"><ele></ele><time>2013-9-9T14:34:59Z</time></trkpt>
<trkpt lat="46.456997897475958" lon="7.002340313047171"><ele></ele><time>2013-9-9T14:35:2Z</time></trkpt>
<trkpt lat="46.457062857225537" lon="7.002475010231137"><ele></ele><time>2013-9-9T14:35:5Z</time></trkpt>
<trkpt lat="46.457132343202829" lon="7.002606857568026"><ele></ele><time>2013-9-9T14:35:8Z</time></trkpt>
<trkpt lat="46.457214569672942" lon="7.002741051837802"><ele></ele><time>2013-9-9T14:35:11Z</time></trkpt>
<trkpt lat="46.457298640161753" lon="7.002863762900233"><ele></ele><time>2013-9-9T14:35:14Z</time></trkpt>
<trkpt lat="46.4573825430125" lon="7.0029984600842"><ele></ele><time>2013-9-9T14:35:17Z</time></trkpt>
<trkpt lat="46.457476923242211" lon="7.003154447302222"><ele></ele><time>2013-9-9T14:35:20Z</time></trkpt>
<trkpt lat="46.457565939053893" lon="7.003302639350295"><ele></ele><time>2013-9-9T14:35:23Z</time></trkpt>
<trkpt lat="46.457650931552052" lon="7.003420321270824"><ele></ele><time>2013-9-9T14:35:26Z</time></trkpt>
<trkpt lat="46.45775293931365" lon="7.003529202193022"><ele></ele><time>2013-9-9T14:35:29Z</time></trkpt>
<trkpt lat="46.457851510494947" lon="7.003640849143267"><ele></ele><time>2013-9-9T14:35:32Z</time></trkpt>
<trkpt lat="46.45793566480279" lon="7.003745371475816"><ele></ele><time>2013-9-9T14:35:35Z</time></trkpt>
<trkpt lat="46.458020992577076" lon="7.003837404772639"><ele></ele><time>2013-9-9T14:35:38Z</time></trkpt>
<trkpt lat="46.458105314522982" lon="7.003926169127226"><ele></ele><time>2013-9-9T14:35:41Z</time></trkpt>
<trkpt lat="46.458196509629488" lon="7.004003617912531"><ele></ele><time>2013-9-9T14:35:44Z</time></trkpt>
<trkpt lat="46.458299104124308" lon="7.004070589318872"><ele></ele><time>2013-9-9T14:35:47Z</time></trkpt>
<trkpt lat="46.458398597314954" lon="7.004147116094828"><ele></ele><time>2013-9-9T14:35:50Z</time></trkpt>
<trkpt lat="46.4584980905056" lon="7.004220876842737"><ele></ele><time>2013-9-9T14:35:53Z</time></trkpt>
<trkpt lat="46.458603451028466" lon="7.004289021715522"><ele></ele><time>2013-9-9T14:35:56Z</time></trkpt>
<trkpt lat="46.458713505417109" lon="7.004357166588306"><ele></ele><time>2013-9-9T14:35:59Z</time></trkpt>
<trkpt lat="46.458798162639141" lon="7.004442326724529"><ele></ele><time>2013-9-9T14:36:2Z</time></trkpt>
<trkpt lat="46.458880389109254" lon="7.004521284252405"><ele></ele><time>2013-9-9T14:36:5Z</time></trkpt>
<trkpt lat="46.458990527316928" lon="7.004588339477778"><ele></ele><time>2013-9-9T14:36:8Z</time></trkpt>
<trkpt lat="46.45909957587719" lon="7.004650784656405"><ele></ele><time>2013-9-9T14:36:11Z</time></trkpt>
<trkpt lat="46.459177611395717" lon="7.004725802689791"><ele></ele><time>2013-9-9T14:36:14Z</time></trkpt>
<trkpt lat="46.459253802895546" lon="7.004795959219337"><ele></ele><time>2013-9-9T14:36:17Z</time></trkpt>
<trkpt lat="46.45932974293828" lon="7.004870139062405"><ele></ele><time>2013-9-9T14:36:20Z</time></trkpt>
<trkpt lat="46.459427559748292" lon="7.004926130175591"><ele></ele><time>2013-9-9T14:36:23Z</time></trkpt>
<trkpt lat="46.459522694349289" lon="7.004971643909812"><ele></ele><time>2013-9-9T14:36:26Z</time></trkpt>
<trkpt lat="46.459595113992691" lon="7.005022270604968"><ele></ele><time>2013-9-9T14:36:29Z</time></trkpt>
<trkpt lat="46.459709107875824" lon="7.005104497075081"><ele></ele><time>2013-9-9T14:36:32Z</time></trkpt>
<trkpt lat="46.459923600777984" lon="7.005372885614634"><ele></ele><time>2013-9-9T14:36:35Z</time></trkpt>
<trkpt lat="46.459955703467131" lon="7.005428122356534"><ele></ele><time>2013-9-9T14:36:38Z</time></trkpt>
<trkpt lat="46.459988728165627" lon="7.005484364926815"><ele></ele><time>2013-9-9T14:36:41Z</time></trkpt>
<trkpt lat="46.460019992664456" lon="7.005536500364542"><ele></ele><time>2013-9-9T14:36:44Z</time></trkpt>
<trkpt lat="46.460033738985658" lon="7.005555024370551"><ele></ele><time>2013-9-9T14:36:47Z</time></trkpt>
<trkpt lat="46.459989901632071" lon="7.005511438474059"><ele></ele><time>2013-9-9T14:36:50Z</time></trkpt>
<trkpt lat="46.45986526273191" lon="7.00526031665504"><ele></ele><time>2013-9-9T14:36:53Z</time></trkpt>
<trkpt lat="46.45983693189919" lon="7.005201559513807"><ele></ele><time>2013-9-9T14:36:56Z</time></trkpt>
<trkpt lat="46.459646411240101" lon="7.004902074113488"><ele></ele><time>2013-9-9T14:36:59Z</time></trkpt>
<trkpt lat="46.459367964416742" lon="7.004514997825027"><ele></ele><time>2013-9-9T14:37:2Z</time></trkpt>
<trkpt lat="46.459034532308578" lon="7.004245519638062"><ele></ele><time>2013-9-9T14:37:5Z</time></trkpt>
<trkpt lat="46.45868819206953" lon="7.004084503278136"><ele></ele><time>2013-9-9T14:37:8Z</time></trkpt>
<trkpt lat="46.458527259528637" lon="7.004215847700834"><ele></ele><time>2013-9-9T14:37:11Z</time></trkpt>
<trkpt lat="46.45849272608757" lon="7.004324896261096"><ele></ele><time>2013-9-9T14:37:14Z</time></trkpt>
<trkpt lat="46.458484595641494" lon="7.004365213215351"><ele></ele><time>2013-9-9T14:37:17Z</time></trkpt>
<trkpt lat="46.45847856067121" lon="7.004406033083797"><ele></ele><time>2013-9-9T14:37:20Z</time></trkpt>
<trkpt lat="46.458475878462195" lon="7.004447188228369"><ele></ele><time>2013-9-9T14:37:23Z</time></trkpt>
<trkpt lat="46.458504796028137" lon="7.004711888730526"><ele></ele><time>2013-9-9T14:37:26Z</time></trkpt>
<trkpt lat="46.458566403016448" lon="7.005002908408642"><ele></ele><time>2013-9-9T14:37:29Z</time></trkpt>
<trkpt lat="46.458734879270196" lon="7.005289234220982"><ele></ele><time>2013-9-9T14:37:32Z</time></trkpt>
<trkpt lat="46.458839820697904" lon="7.005540691316128"><ele></ele><time>2013-9-9T14:37:35Z</time></trkpt>
<trkpt lat="46.45879715681076" lon="7.005726015195251"><ele></ele><time>2013-9-9T14:37:38Z</time></trkpt>
<trkpt lat="46.458769245073199" lon="7.00573431327939"><ele></ele><time>2013-9-9T14:37:41Z</time></trkpt>
<trkpt lat="46.458595488220453" lon="7.00595417059958"><ele></ele><time>2013-9-9T14:37:44Z</time></trkpt>
<trkpt lat="46.458377810195088" lon="7.006202107295394"><ele></ele><time>2013-9-9T14:37:47Z</time></trkpt>
<trkpt lat="46.458005318418145" lon="7.006606198847294"><ele></ele><time>2013-9-9T14:37:50Z</time></trkpt>
<trkpt lat="46.45797380246222" lon="7.006635954603553"><ele></ele><time>2013-9-9T14:37:53Z</time></trkpt>
<trkpt lat="46.457943711429834" lon="7.006665794178844"><ele></ele><time>2013-9-9T14:37:56Z</time></trkpt>
<trkpt lat="46.457908172160387" lon="7.006699908524752"><ele></ele><time>2013-9-9T14:37:59Z</time></trkpt>
<trkpt lat="46.457879254594445" lon="7.006726982071996"><ele></ele><time>2013-9-9T14:38:2Z</time></trkpt>
<trkpt lat="46.457697954028845" lon="7.006851956248283"><ele></ele><time>2013-9-9T14:38:5Z</time></trkpt>
<trkpt lat="46.457602148875594" lon="7.006871234625578"><ele></ele><time>2013-9-9T14:38:8Z</time></trkpt>
<trkpt lat="46.457506846636534" lon="7.006874671205878"><ele></ele><time>2013-9-9T14:38:11Z</time></trkpt>
<trkpt lat="46.457294533029199" lon="7.006878694519401"><ele></ele><time>2013-9-9T14:38:14Z</time></trkpt>
<trkpt lat="46.457101665437222" lon="7.006951784715056"><ele></ele><time>2013-9-9T14:38:17Z</time></trkpt>
<trkpt lat="46.457054726779461" lon="7.006971901282668"><ele></ele><time>2013-9-9T14:38:20Z</time></trkpt>
<trkpt lat="46.457006027922034" lon="7.006997130811214"><ele></ele><time>2013-9-9T14:38:23Z</time></trkpt>
<trkpt lat="46.456955568864942" lon="7.007012888789177"><ele></ele><time>2013-9-9T14:38:26Z</time></trkpt>
<trkpt lat="46.456899913027883" lon="7.007020181044936"><ele></ele><time>2013-9-9T14:38:29Z</time></trkpt>
<trkpt lat="46.456780387088656" lon="7.007018588483334"><ele></ele><time>2013-9-9T14:38:32Z</time></trkpt>
<trkpt lat="46.456721294671297" lon="7.007010793313384"><ele></ele><time>2013-9-9T14:38:35Z</time></trkpt>
<trkpt lat="46.456668404862285" lon="7.007001573219895"><ele></ele><time>2013-9-9T14:38:38Z</time></trkpt>
<trkpt lat="46.456613168120384" lon="7.006990592926741"><ele></ele><time>2013-9-9T14:38:41Z</time></trkpt>
<trkpt lat="46.456559104844928" lon="7.006979361176491"><ele></ele><time>2013-9-9T14:38:44Z</time></trkpt>
<trkpt lat="46.456236653029919" lon="7.006939128041267"><ele></ele><time>2013-9-9T14:38:47Z</time></trkpt>
<trkpt lat="46.456127353012562" lon="7.006927896291018"><ele></ele><time>2013-9-9T14:38:50Z</time></trkpt>
<trkpt lat="46.45606767386198" lon="7.006924794986844"><ele></ele><time>2013-9-9T14:38:53Z</time></trkpt>
<trkpt lat="46.455991733819246" lon="7.006922028958798"><ele></ele><time>2013-9-9T14:38:56Z</time></trkpt>
<trkpt lat="46.455933228135109" lon="7.006917502731085"><ele></ele><time>2013-9-9T14:38:59Z</time></trkpt>
<trkpt lat="46.455108281224966" lon="7.006828989833593"><ele></ele><time>2013-9-9T14:39:2Z</time></trkpt>
<trkpt lat="46.455051200464368" lon="7.006793702021241"><ele></ele><time>2013-9-9T14:39:5Z</time></trkpt>
<trkpt lat="46.454995963722467" lon="7.006753720343113"><ele></ele><time>2013-9-9T14:39:8Z</time></trkpt>
<trkpt lat="46.454942738637328" lon="7.00671935454011"><ele></ele><time>2013-9-9T14:39:11Z</time></trkpt>
<trkpt lat="46.454035229980946" lon="7.006359519436956"><ele></ele><time>2013-9-9T14:39:14Z</time></trkpt>
<trkpt lat="46.4539909735322" lon="7.006373601034284"><ele></ele><time>2013-9-9T14:39:17Z</time></trkpt>
<trkpt lat="46.45210437476635" lon="7.009826693683863"><ele></ele><time>2013-9-9T14:39:20Z</time></trkpt>
<trkpt lat="46.452062968164682" lon="7.009793585166335"><ele></ele><time>2013-9-9T14:39:23Z</time></trkpt>
<trkpt lat="46.452054586261511" lon="7.009843206033111"><ele></ele><time>2013-9-9T14:39:26Z</time></trkpt>
<trkpt lat="46.452060118317604" lon="7.009917469695211"><ele></ele><time>2013-9-9T14:39:29Z</time></trkpt>
<trkpt lat="46.452073529362679" lon="7.010000618174672"><ele></ele><time>2013-9-9T14:39:32Z</time></trkpt>
<trkpt lat="46.45208677276969" lon="7.010091980919242"><ele></ele><time>2013-9-9T14:39:35Z</time></trkpt>
<trkpt lat="46.45211418159306" lon="7.010280657559633"><ele></ele><time>2013-9-9T14:39:38Z</time></trkpt>
<trkpt lat="46.452133627608418" lon="7.010372607037425"><ele></ele><time>2013-9-9T14:39:41Z</time></trkpt>
<trkpt lat="46.452142847701907" lon="7.010454582050443"><ele></ele><time>2013-9-9T14:39:44Z</time></trkpt>
<trkpt lat="46.452140500769019" lon="7.01052381657064"><ele></ele><time>2013-9-9T14:39:47Z</time></trkpt>
<trkpt lat="46.452093059197068" lon="7.010608306154609"><ele></ele><time>2013-9-9T14:39:50Z</time></trkpt>
<trkpt lat="46.452065818011761" lon="7.01061618514359"><ele></ele><time>2013-9-9T14:39:53Z</time></trkpt>
<trkpt lat="46.452043605968356" lon="7.010623477399349"><ele></ele><time>2013-9-9T14:39:56Z</time></trkpt>
<trkpt lat="46.452020555734634" lon="7.010621968656778"><ele></ele><time>2013-9-9T14:39:59Z</time></trkpt>
<trkpt lat="46.451998092234135" lon="7.010621130466461"><ele></ele><time>2013-9-9T14:40:2Z</time></trkpt>
<trkpt lat="46.451975461095572" lon="7.010614927858114"><ele></ele><time>2013-9-9T14:40:5Z</time></trkpt>
<trkpt lat="46.451957691460848" lon="7.010616939514875"><ele></ele><time>2013-9-9T14:40:8Z</time></trkpt>
<trkpt lat="46.45194168202579" lon="7.010626411065459"><ele></ele><time>2013-9-9T14:40:11Z</time></trkpt>
<trkpt lat="46.451928773894906" lon="7.010632529854775"><ele></ele><time>2013-9-9T14:40:14Z</time></trkpt>
<trkpt lat="46.451917206868529" lon="7.010639905929565"><ele></ele><time>2013-9-9T14:40:17Z</time></trkpt>
<trkpt lat="46.451870268210769" lon="7.010689023882151"><ele></ele><time>2013-9-9T14:40:20Z</time></trkpt>
<trkpt lat="46.451826011762023" lon="7.010706039145589"><ele></ele><time>2013-9-9T14:40:23Z</time></trkpt>
<trkpt lat="46.451811175793409" lon="7.010730346664786"><ele></ele><time>2013-9-9T14:40:26Z</time></trkpt>
<trkpt lat="46.451795501634479" lon="7.010760018602014"><ele></ele><time>2013-9-9T14:40:29Z</time></trkpt>
<trkpt lat="46.45178041420877" lon="7.010788768529892"><ele></ele><time>2013-9-9T14:40:32Z</time></trkpt>
<trkpt lat="46.451765829697251" lon="7.010811986401677"><ele></ele><time>2013-9-9T14:40:35Z</time></trkpt>
<trkpt lat="46.451708162203431" lon="7.010894380509853"><ele></ele><time>2013-9-9T14:40:38Z</time></trkpt>
<trkpt lat="46.451692152768373" lon="7.010916927829385"><ele></ele><time>2013-9-9T14:40:41Z</time></trkpt>
<trkpt lat="46.451677484437823" lon="7.010938972234726"><ele></ele><time>2013-9-9T14:40:44Z</time></trkpt>
<trkpt lat="46.451660469174385" lon="7.010960849002004"><ele></ele><time>2013-9-9T14:40:47Z</time></trkpt>
<trkpt lat="46.45164605230093" lon="7.010980295017362"><ele></ele><time>2013-9-9T14:40:50Z</time></trkpt>
<trkpt lat="46.451596850529313" lon="7.011032598093152"><ele></ele><time>2013-9-9T14:40:53Z</time></trkpt>
<trkpt lat="46.451549995690584" lon="7.01109697110951"><ele></ele><time>2013-9-9T14:40:56Z</time></trkpt>
<trkpt lat="46.451531136408448" lon="7.011116081848741"><ele></ele><time>2013-9-9T14:40:59Z</time></trkpt>
<trkpt lat="46.451514288783073" lon="7.011129157617688"><ele></ele><time>2013-9-9T14:41:2Z</time></trkpt>
<trkpt lat="46.451513785868883" lon="7.011129576712847"><ele></ele><time>2013-9-9T14:41:5Z</time></trkpt>
<trkpt lat="46.451515881344676" lon="7.011129660531879"><ele></ele><time>2013-9-9T14:41:8Z</time></trkpt>
<trkpt lat="46.451461566612124" lon="7.011181376874447"><ele></ele><time>2013-9-9T14:41:11Z</time></trkpt>
<trkpt lat="46.451446311548352" lon="7.011192105710506"><ele></ele><time>2013-9-9T14:41:14Z</time></trkpt>
<trkpt lat="46.451437510550022" lon="7.011198811233044"><ele></ele><time>2013-9-9T14:41:17Z</time></trkpt>
<trkpt lat="46.451425105333328" lon="7.011209204792976"><ele></ele><time>2013-9-9T14:41:20Z</time></trkpt>
<trkpt lat="46.451356541365385" lon="7.011273745447397"><ele></ele><time>2013-9-9T14:41:23Z</time></trkpt>
<trkpt lat="46.451306501403451" lon="7.011313391849399"><ele></ele><time>2013-9-9T14:41:26Z</time></trkpt>
<trkpt lat="46.451282193884254" lon="7.011329401284456"><ele></ele><time>2013-9-9T14:41:29Z</time></trkpt>
<trkpt lat="46.451259395107627" lon="7.011343147605658"><ele></ele><time>2013-9-9T14:41:32Z</time></trkpt>
<trkpt lat="46.45123852416873" lon="7.011351194232702"><ele></ele><time>2013-9-9T14:41:35Z</time></trkpt>
<trkpt lat="46.451224526390433" lon="7.011353289708495"><ele></ele><time>2013-9-9T14:41:38Z</time></trkpt>
<trkpt lat="46.451126206666231" lon="7.011411879211664"><ele></ele><time>2013-9-9T14:41:41Z</time></trkpt>
<trkpt lat="46.451086308807135" lon="7.011439204216003"><ele></ele><time>2013-9-9T14:41:44Z</time></trkpt>
<trkpt lat="46.451072562485933" lon="7.011453872546554"><ele></ele><time>2013-9-9T14:41:47Z</time></trkpt>
<trkpt lat="46.451059654355049" lon="7.011477509513497"><ele></ele><time>2013-9-9T14:41:50Z</time></trkpt>
<trkpt lat="46.451045488938689" lon="7.011497626081109"><ele></ele><time>2013-9-9T14:41:53Z</time></trkpt>
<trkpt lat="46.451030652970076" lon="7.011523526161909"><ele></ele><time>2013-9-9T14:41:56Z</time></trkpt>
<trkpt lat="46.450998801738024" lon="7.011578846722841"><ele></ele><time>2013-9-9T14:41:59Z</time></trkpt>
<trkpt lat="46.45098346285522" lon="7.011605249717832"><ele></ele><time>2013-9-9T14:42:2Z</time></trkpt>
<trkpt lat="46.450971895828843" lon="7.011624528095126"><ele></ele><time>2013-9-9T14:42:5Z</time></trkpt>
<trkpt lat="46.450964771211147" lon="7.011632826179266"><ele></ele><time>2013-9-9T14:42:8Z</time></trkpt>
<trkpt lat="46.450959239155054" lon="7.011635676026344"><ele></ele><time>2013-9-9T14:42:11Z</time></trkpt>
<trkpt lat="46.450954126194119" lon="7.011638106778264"><ele></ele><time>2013-9-9T14:42:14Z</time></trkpt>
<trkpt lat="46.450910288840532" lon="7.011724608018994"><ele></ele><time>2013-9-9T14:42:17Z</time></trkpt>
<trkpt lat="46.450904756784439" lon="7.011758806183934"><ele></ele><time>2013-9-9T14:42:20Z</time></trkpt>
<trkpt lat="46.450879024341702" lon="7.011869950219989"><ele></ele><time>2013-9-9T14:42:23Z</time></trkpt>
<trkpt lat="46.45087793469429" lon="7.012028200551868"><ele></ele><time>2013-9-9T14:42:26Z</time></trkpt>
<trkpt lat="46.450842898339033" lon="7.012198269367218"><ele></ele><time>2013-9-9T14:42:29Z</time></trkpt>
<trkpt lat="46.450835857540369" lon="7.012227522209287"><ele></ele><time>2013-9-9T14:42:32Z</time></trkpt>
<trkpt lat="46.450829319655895" lon="7.012252165004611"><ele></ele><time>2013-9-9T14:42:35Z</time></trkpt>
<trkpt lat="46.450824709609151" lon="7.01227655634284"><ele></ele><time>2013-9-9T14:42:38Z</time></trkpt>
<trkpt lat="46.450820602476597" lon="7.012298014014959"><ele></ele><time>2013-9-9T14:42:41Z</time></trkpt>
<trkpt lat="46.450807023793459" lon="7.012384934350848"><ele></ele><time>2013-9-9T14:42:44Z</time></trkpt>
<trkpt lat="46.450784727931023" lon="7.012517200782895"><ele></ele><time>2013-9-9T14:42:47Z</time></trkpt>
<trkpt lat="46.45078020170331" lon="7.012552907690406"><ele></ele><time>2013-9-9T14:42:50Z</time></trkpt>
<trkpt lat="46.450777351856232" lon="7.01258635148406"><ele></ele><time>2013-9-9T14:42:53Z</time></trkpt>
<trkpt lat="46.45077676512301" lon="7.012618873268366"><ele></ele><time>2013-9-9T14:42:56Z</time></trkpt>
<trkpt lat="46.450779279693961" lon="7.012642258778215"><ele></ele><time>2013-9-9T14:42:59Z</time></trkpt>
<trkpt lat="46.450789254158735" lon="7.012752313166857"><ele></ele><time>2013-9-9T14:43:2Z</time></trkpt>
<trkpt lat="46.450821859762073" lon="7.01292690820992"><ele></ele><time>2013-9-9T14:43:5Z</time></trkpt>
<trkpt lat="46.450823536142707" lon="7.012950209900737"><ele></ele><time>2013-9-9T14:43:8Z</time></trkpt>
<trkpt lat="46.450826385989785" lon="7.012972673401237"><ele></ele><time>2013-9-9T14:43:11Z</time></trkpt>
<trkpt lat="46.450828230008483" lon="7.012996058911085"><ele></ele><time>2013-9-9T14:43:14Z</time></trkpt>
<trkpt lat="46.450827978551388" lon="7.013018187135458"><ele></ele><time>2013-9-9T14:43:17Z</time></trkpt>
<trkpt lat="46.450824374333024" lon="7.013041405007243"><ele></ele><time>2013-9-9T14:43:20Z</time></trkpt>
<trkpt lat="46.450813813135028" lon="7.013082476332784"><ele></ele><time>2013-9-9T14:43:23Z</time></trkpt>
<trkpt lat="46.45079487003386" lon="7.013120446354151"><ele></ele><time>2013-9-9T14:43:26Z</time></trkpt>
<trkpt lat="46.450772071257234" lon="7.013192111626267"><ele></ele><time>2013-9-9T14:43:29Z</time></trkpt>
<trkpt lat="46.450746254995465" lon="7.013288084417582"><ele></ele><time>2013-9-9T14:43:32Z</time></trkpt>
<trkpt lat="46.450749104842544" lon="7.013310631737113"><ele></ele><time>2013-9-9T14:43:35Z</time></trkpt>
<trkpt lat="46.450755894184113" lon="7.013328820466995"><ele></ele><time>2013-9-9T14:43:38Z</time></trkpt>
<trkpt lat="46.450753631070256" lon="7.013359665870667"><ele></ele><time>2013-9-9T14:43:41Z</time></trkpt>
<trkpt lat="46.450746338814497" lon="7.013393947854638"><ele></ele><time>2013-9-9T14:43:44Z</time></trkpt>
<trkpt lat="46.450727647170424" lon="7.013454716652632"><ele></ele><time>2013-9-9T14:43:47Z</time></trkpt>
<trkpt lat="46.450633350759745" lon="7.013656552881002"><ele></ele><time>2013-9-9T14:43:50Z</time></trkpt>
<trkpt lat="46.450591944158077" lon="7.013738360255957"><ele></ele><time>2013-9-9T14:43:53Z</time></trkpt>
<trkpt lat="46.450583226978779" lon="7.013760907575488"><ele></ele><time>2013-9-9T14:43:56Z</time></trkpt>
<trkpt lat="46.450572330504656" lon="7.013781275600195"><ele></ele><time>2013-9-9T14:43:59Z</time></trkpt>
<trkpt lat="46.450560428202152" lon="7.013799296692014"><ele></ele><time>2013-9-9T14:44:2Z</time></trkpt>
<trkpt lat="46.45054517313838" lon="7.013826202601194"><ele></ele><time>2013-9-9T14:44:5Z</time></trkpt>
<trkpt lat="46.450491361320019" lon="7.013960815966129"><ele></ele><time>2013-9-9T14:44:8Z</time></trkpt>
<trkpt lat="46.450368231162429" lon="7.014135411009193"><ele></ele><time>2013-9-9T14:44:11Z</time></trkpt>
<trkpt lat="46.450261194258928" lon="7.014283603057265"><ele></ele><time>2013-9-9T14:44:14Z</time></trkpt>
<trkpt lat="46.450252309441566" lon="7.014345210045576"><ele></ele><time>2013-9-9T14:44:17Z</time></trkpt>
<trkpt lat="46.450235210359097" lon="7.01437127776444"><ele></ele><time>2013-9-9T14:44:20Z</time></trkpt>
<trkpt lat="46.450220877304673" lon="7.01439768075943"><ele></ele><time>2013-9-9T14:44:23Z</time></trkpt>
<trkpt lat="46.450198162347078" lon="7.014429867267609"><ele></ele><time>2013-9-9T14:44:26Z</time></trkpt>
<trkpt lat="46.450177123770118" lon="7.01445585116744"><ele></ele><time>2013-9-9T14:44:29Z</time></trkpt>
<trkpt lat="46.450071008875966" lon="7.014589123427868"><ele></ele><time>2013-9-9T14:44:32Z</time></trkpt>
<trkpt lat="46.449960619211197" lon="7.014770926907659"><ele></ele><time>2013-9-9T14:44:35Z</time></trkpt>
<trkpt lat="46.449880320578814" lon="7.01497184112668"><ele></ele><time>2013-9-9T14:44:38Z</time></trkpt>
<trkpt lat="46.44987185485661" lon="7.015009475871921"><ele></ele><time>2013-9-9T14:44:41Z</time></trkpt>
<trkpt lat="46.44986305385828" lon="7.015047194436193"><ele></ele><time>2013-9-9T14:44:44Z</time></trkpt>
<trkpt lat="46.44985374994576" lon="7.015088517218828"><ele></ele><time>2013-9-9T14:44:47Z</time></trkpt>
<trkpt lat="46.449844613671303" lon="7.015130007639527"><ele></ele><time>2013-9-9T14:44:50Z</time></trkpt>
<trkpt lat="46.44981318153441" lon="7.015245426446199"><ele></ele><time>2013-9-9T14:44:53Z</time></trkpt>
<trkpt lat="46.449724081903696" lon="7.015477102249861"><ele></ele><time>2013-9-9T14:44:56Z</time></trkpt>
<trkpt lat="46.449656942859292" lon="7.015749849379063"><ele></ele><time>2013-9-9T14:44:59Z</time></trkpt>
<trkpt lat="46.449624337255955" lon="7.015879098325968"><ele></ele><time>2013-9-9T14:45:2Z</time></trkpt>
<trkpt lat="46.449612686410546" lon="7.015908937901259"><ele></ele><time>2013-9-9T14:45:5Z</time></trkpt>
<trkpt lat="46.449599945917726" lon="7.015939280390739"><ele></ele><time>2013-9-9T14:45:8Z</time></trkpt>
<trkpt lat="46.449586031958461" lon="7.015975071117282"><ele></ele><time>2013-9-9T14:45:11Z</time></trkpt>
<trkpt lat="46.449572201818228" lon="7.016012035310268"><ele></ele><time>2013-9-9T14:45:14Z</time></trkpt>
<trkpt lat="46.449489891529083" lon="7.016220493242145"><ele></ele><time>2013-9-9T14:45:17Z</time></trkpt>
<trkpt lat="46.449471954256296" lon="7.016249326989055"><ele></ele><time>2013-9-9T14:45:20Z</time></trkpt>
<trkpt lat="46.449451670050621" lon="7.016277238726616"><ele></ele><time>2013-9-9T14:45:23Z</time></trkpt>
<trkpt lat="46.449432894587517" lon="7.016307162120938"><ele></ele><time>2013-9-9T14:45:26Z</time></trkpt>
<trkpt lat="46.449412358924747" lon="7.016338426619768"><ele></ele><time>2013-9-9T14:45:29Z</time></trkpt>
<trkpt lat="46.449393332004547" lon="7.016368350014091"><ele></ele><time>2013-9-9T14:45:32Z</time></trkpt>
<trkpt lat="46.449373802170157" lon="7.016401374712586"><ele></ele><time>2013-9-9T14:45:35Z</time></trkpt>
<trkpt lat="46.44926056265831" lon="7.016574125736952"><ele></ele><time>2013-9-9T14:45:38Z</time></trkpt>
<trkpt lat="46.449215384200215" lon="7.016614861786366"><ele></ele><time>2013-9-9T14:45:41Z</time></trkpt>
<trkpt lat="46.449193926528096" lon="7.016635648906231"><ele></ele><time>2013-9-9T14:45:44Z</time></trkpt>
<trkpt lat="46.449171211570501" lon="7.016658531501889"><ele></ele><time>2013-9-9T14:45:47Z</time></trkpt>
<trkpt lat="46.44914673641324" lon="7.016682922840118"><ele></ele><time>2013-9-9T14:45:50Z</time></trkpt>
<trkpt lat="46.44912226125598" lon="7.016707062721252"><ele></ele><time>2013-9-9T14:45:53Z</time></trkpt>
<trkpt lat="46.449095774441957" lon="7.016733884811401"><ele></ele><time>2013-9-9T14:45:56Z</time></trkpt>
<trkpt lat="46.448929477483034" lon="7.016890291124582"><ele></ele><time>2013-9-9T14:45:59Z</time></trkpt>
<trkpt lat="46.448893183842301" lon="7.016985677182674"><ele></ele><time>2013-9-9T14:46:2Z</time></trkpt>
<trkpt lat="46.448887567967176" lon="7.017011409625411"><ele></ele><time>2013-9-9T14:46:5Z</time></trkpt>
<trkpt lat="46.448882622644305" lon="7.017033705487847"><ele></ele><time>2013-9-9T14:46:8Z</time></trkpt>
<trkpt lat="46.448875665664673" lon="7.017058851197362"><ele></ele><time>2013-9-9T14:46:11Z</time></trkpt>
<trkpt lat="46.448864685371518" lon="7.017082320526242"><ele></ele><time>2013-9-9T14:46:14Z</time></trkpt>
<trkpt lat="46.448834175243974" lon="7.01713060028851"><ele></ele><time>2013-9-9T14:46:17Z</time></trkpt>
<trkpt lat="46.448804754763842" lon="7.017192458733916"><ele></ele><time>2013-9-9T14:46:20Z</time></trkpt>
<trkpt lat="46.448787236586213" lon="7.017233865335584"><ele></ele><time>2013-9-9T14:46:23Z</time></trkpt>
<trkpt lat="46.448752535507083" lon="7.017270158976317"><ele></ele><time>2013-9-9T14:46:26Z</time></trkpt>
<trkpt lat="46.448666537180543" lon="7.017342746257782"><ele></ele><time>2013-9-9T14:46:29Z</time></trkpt>
<trkpt lat="46.448522116988897" lon="7.017449028789997"><ele></ele><time>2013-9-9T14:46:32Z</time></trkpt>
<trkpt lat="46.448498563840985" lon="7.017474006861448"><ele></ele><time>2013-9-9T14:46:35Z</time></trkpt>
<trkpt lat="46.448478195816278" lon="7.017498901113868"><ele></ele><time>2013-9-9T14:46:38Z</time></trkpt>
<trkpt lat="46.448459001258016" lon="7.017526058480144"><ele></ele><time>2013-9-9T14:46:41Z</time></trkpt>
<trkpt lat="46.448439471423626" lon="7.017551958560944"><ele></ele><time>2013-9-9T14:46:44Z</time></trkpt>
<trkpt lat="46.448379456996918" lon="7.017617672681809"><ele></ele><time>2013-9-9T14:46:47Z</time></trkpt>
<trkpt lat="46.448179800063372" lon="7.017727727070451"><ele></ele><time>2013-9-9T14:46:50Z</time></trkpt>
<trkpt lat="46.448056166991591" lon="7.017816994339228"><ele></ele><time>2013-9-9T14:46:53Z</time></trkpt>
<trkpt lat="46.447994811460376" lon="7.017848677933216"><ele></ele><time>2013-9-9T14:46:56Z</time></trkpt>
<trkpt lat="46.447954745963216" lon="7.017858987674117"><ele></ele><time>2013-9-9T14:46:59Z</time></trkpt>
<trkpt lat="46.447911579161882" lon="7.017874578014016"><ele></ele><time>2013-9-9T14:47:2Z</time></trkpt>
<trkpt lat="46.447866316884756" lon="7.017886061221361"><ele></ele><time>2013-9-9T14:47:5Z</time></trkpt>
<trkpt lat="46.44782985560596" lon="7.017895113676786"><ele></ele><time>2013-9-9T14:47:8Z</time></trkpt>
<trkpt lat="46.447553839534521" lon="7.017984548583627"><ele></ele><time>2013-9-9T14:47:11Z</time></trkpt>
<trkpt lat="46.447329623624682" lon="7.017948338761926"><ele></ele><time>2013-9-9T14:47:14Z</time></trkpt>
<trkpt lat="46.447113286703825" lon="7.017967449501157"><ele></ele><time>2013-9-9T14:47:17Z</time></trkpt>
<trkpt lat="46.446816483512521" lon="7.01812150888145"><ele></ele><time>2013-9-9T14:47:20Z</time></trkpt>
<trkpt lat="46.446621436625719" lon="7.018269449472427"><ele></ele><time>2013-9-9T14:47:23Z</time></trkpt>
<trkpt lat="46.446487158536911" lon="7.018423927947879"><ele></ele><time>2013-9-9T14:47:26Z</time></trkpt>
<trkpt lat="46.446455223485827" lon="7.018469357863069"><ele></ele><time>2013-9-9T14:47:29Z</time></trkpt>
<trkpt lat="46.446302589029074" lon="7.018656777217984"><ele></ele><time>2013-9-9T14:47:32Z</time></trkpt>
<trkpt lat="46.446279874071479" lon="7.018687874078751"><ele></ele><time>2013-9-9T14:47:35Z</time></trkpt>
<trkpt lat="46.446204269304872" lon="7.018795581534505"><ele></ele><time>2013-9-9T14:47:38Z</time></trkpt>
<trkpt lat="46.446088431403041" lon="7.018967159092426"><ele></ele><time>2013-9-9T14:47:41Z</time></trkpt>
<trkpt lat="46.446057837456465" lon="7.019018791615963"><ele></ele><time>2013-9-9T14:47:44Z</time></trkpt>
<trkpt lat="46.445955578237772" lon="7.019193721935153"><ele></ele><time>2013-9-9T14:47:47Z</time></trkpt>
<trkpt lat="46.445928085595369" lon="7.019220544025302"><ele></ele><time>2013-9-9T14:47:50Z</time></trkpt>
<trkpt lat="46.44589489325881" lon="7.019276870414615"><ele></ele><time>2013-9-9T14:47:53Z</time></trkpt>
<trkpt lat="46.445873603224754" lon="7.019401425495744"><ele></ele><time>2013-9-9T14:47:56Z</time></trkpt>
<trkpt lat="46.445885337889194" lon="7.019489854574204"><ele></ele><time>2013-9-9T14:47:59Z</time></trkpt>
<trkpt lat="46.445893216878176" lon="7.019521621987224"><ele></ele><time>2013-9-9T14:48:2Z</time></trkpt>
<trkpt lat="46.44589975476265" lon="7.019555568695068"><ele></ele><time>2013-9-9T14:48:5Z</time></trkpt>
<trkpt lat="46.445908723399043" lon="7.019592197611928"><ele></ele><time>2013-9-9T14:48:8Z</time></trkpt>
<trkpt lat="46.445919955149293" lon="7.019630502909422"><ele></ele><time>2013-9-9T14:48:11Z</time></trkpt>
<trkpt lat="46.445928169414401" lon="7.01966218650341"><ele></ele><time>2013-9-9T14:48:14Z</time></trkpt>
<trkpt lat="46.445945436134934" lon="7.01981901191175"><ele></ele><time>2013-9-9T14:48:17Z</time></trkpt>
<trkpt lat="46.445949794724584" lon="7.019872069358826"><ele></ele><time>2013-9-9T14:48:20Z</time></trkpt>
<trkpt lat="46.44595155492425" lon="7.019937029108405"><ele></ele><time>2013-9-9T14:48:23Z</time></trkpt>
<trkpt lat="46.44595256075263" lon="7.020003329962492"><ele></ele><time>2013-9-9T14:48:26Z</time></trkpt>
<trkpt lat="46.44594962708652" lon="7.020064685493708"><ele></ele><time>2013-9-9T14:48:29Z</time></trkpt>
<trkpt lat="46.445946274325252" lon="7.020132578909397"><ele></ele><time>2013-9-9T14:48:32Z</time></trkpt>
<trkpt lat="46.445941748097539" lon="7.020191168412566"><ele></ele><time>2013-9-9T14:48:35Z</time></trkpt>
<trkpt lat="46.445927666500211" lon="7.020479254424572"><ele></ele><time>2013-9-9T14:48:38Z</time></trkpt>
<trkpt lat="46.445926912128925" lon="7.020533066242933"><ele></ele><time>2013-9-9T14:48:41Z</time></trkpt>
<trkpt lat="46.445926995947957" lon="7.020591320469976"><ele></ele><time>2013-9-9T14:48:44Z</time></trkpt>
<trkpt lat="46.445929175242782" lon="7.02064236626029"><ele></ele><time>2013-9-9T14:48:47Z</time></trkpt>
<trkpt lat="46.445933450013399" lon="7.020689891651273"><ele></ele><time>2013-9-9T14:48:50Z</time></trkpt>
<trkpt lat="46.445919200778008" lon="7.020873539149761"><ele></ele><time>2013-9-9T14:48:53Z</time></trkpt>
<trkpt lat="46.445909142494202" lon="7.020959537476301"><ele></ele><time>2013-9-9T14:48:56Z</time></trkpt>
<trkpt lat="46.445903610438108" lon="7.021002788096666"><ele></ele><time>2013-9-9T14:48:59Z</time></trkpt>
<trkpt lat="46.445887684822083" lon="7.021057857200503"><ele></ele><time>2013-9-9T14:49:2Z</time></trkpt>
<trkpt lat="46.445868238806725" lon="7.021114518865943"><ele></ele><time>2013-9-9T14:49:5Z</time></trkpt>
<trkpt lat="46.445848289877176" lon="7.021166235208511"><ele></ele><time>2013-9-9T14:49:8Z</time></trkpt>
<trkpt lat="46.445732619613409" lon="7.021381817758083"><ele></ele><time>2013-9-9T14:49:11Z</time></trkpt>
<trkpt lat="46.445658439770341" lon="7.021453399211168"><ele></ele><time>2013-9-9T14:49:14Z</time></trkpt>
<trkpt lat="46.445626420900226" lon="7.0214828196913"><ele></ele><time>2013-9-9T14:49:17Z</time></trkpt>
<trkpt lat="46.445597922429442" lon="7.021512407809496"><ele></ele><time>2013-9-9T14:49:20Z</time></trkpt>
<trkpt lat="46.445575291290879" lon="7.021529423072934"><ele></ele><time>2013-9-9T14:49:23Z</time></trkpt>
<trkpt lat="46.445549307391047" lon="7.021541325375438"><ele></ele><time>2013-9-9T14:49:26Z</time></trkpt>
<trkpt lat="46.445287121459842" lon="7.02157317660749"><ele></ele><time>2013-9-9T14:49:29Z</time></trkpt>
<trkpt lat="46.445106826722622" lon="7.021523304283619"><ele></ele><time>2013-9-9T14:49:32Z</time></trkpt>
<trkpt lat="46.445073550567031" lon="7.021522214636207"><ele></ele><time>2013-9-9T14:49:35Z</time></trkpt>
<trkpt lat="46.445036921650171" lon="7.021526070311666"><ele></ele><time>2013-9-9T14:49:38Z</time></trkpt>
<trkpt lat="46.445001885294914" lon="7.02152875252068"><ele></ele><time>2013-9-9T14:49:41Z</time></trkpt>
<trkpt lat="46.444970201700926" lon="7.021530512720347"><ele></ele><time>2013-9-9T14:49:44Z</time></trkpt>
<trkpt lat="46.444868026301265" lon="7.021529171615839"><ele></ele><time>2013-9-9T14:49:47Z</time></trkpt>
<trkpt lat="46.444582287222147" lon="7.021535709500313"><ele></ele><time>2013-9-9T14:49:50Z</time></trkpt>
<trkpt lat="46.444548172876239" lon="7.021538391709328"><ele></ele><time>2013-9-9T14:49:53Z</time></trkpt>
<trkpt lat="46.444512633606791" lon="7.021545516327024"><ele></ele><time>2013-9-9T14:49:56Z</time></trkpt>
<trkpt lat="46.444478100165725" lon="7.021553311496973"><ele></ele><time>2013-9-9T14:49:59Z</time></trkpt>
<trkpt lat="46.44444365054369" lon="7.021559262648225"><ele></ele><time>2013-9-9T14:50:2Z</time></trkpt>
<trkpt lat="46.444371566176414" lon="7.021593628451228"><ele></ele><time>2013-9-9T14:50:5Z</time></trkpt>
<trkpt lat="46.444193366914988" lon="7.021697983145714"><ele></ele><time>2013-9-9T14:50:8Z</time></trkpt>
<trkpt lat="46.444045007228851" lon="7.021831758320332"><ele></ele><time>2013-9-9T14:50:11Z</time></trkpt>
<trkpt lat="46.443918105214834" lon="7.021918930113316"><ele></ele><time>2013-9-9T14:50:14Z</time></trkpt>
<trkpt lat="46.443883404135704" lon="7.021924713626504"><ele></ele><time>2013-9-9T14:50:17Z</time></trkpt>
<trkpt lat="46.443850714713335" lon="7.021931083872914"><ele></ele><time>2013-9-9T14:50:20Z</time></trkpt>
<trkpt lat="46.443818360567093" lon="7.021939046680927"><ele></ele><time>2013-9-9T14:50:23Z</time></trkpt>
<trkpt lat="46.443786760792136" lon="7.021950362250209"><ele></ele><time>2013-9-9T14:50:26Z</time></trkpt>
<trkpt lat="46.443626498803496" lon="7.022034600377083"><ele></ele><time>2013-9-9T14:50:29Z</time></trkpt>
<trkpt lat="46.443319385871291" lon="7.022280944511294"><ele></ele><time>2013-9-9T14:50:32Z</time></trkpt>
<trkpt lat="46.443183347582817" lon="7.022398039698601"><ele></ele><time>2013-9-9T14:50:35Z</time></trkpt>
<trkpt lat="46.443065498024225" lon="7.022474398836494"><ele></ele><time>2013-9-9T14:50:38Z</time></trkpt>
<trkpt lat="46.442852346226573" lon="7.022662404924631"><ele></ele><time>2013-9-9T14:50:41Z</time></trkpt>
<trkpt lat="46.442650593817234" lon="7.022831216454506"><ele></ele><time>2013-9-9T14:50:44Z</time></trkpt>
<trkpt lat="46.442397376522422" lon="7.023079991340637"><ele></ele><time>2013-9-9T14:50:47Z</time></trkpt>
<trkpt lat="46.442178022116423" lon="7.023282833397389"><ele></ele><time>2013-9-9T14:50:50Z</time></trkpt>
<trkpt lat="46.442052712664008" lon="7.023408897221088"><ele></ele><time>2013-9-9T14:50:53Z</time></trkpt>
<trkpt lat="46.442025555297732" lon="7.023444352671504"><ele></ele><time>2013-9-9T14:50:56Z</time></trkpt>
<trkpt lat="46.441993368789554" lon="7.023475617170334"><ele></ele><time>2013-9-9T14:50:59Z</time></trkpt>
<trkpt lat="46.441964618861675" lon="7.023503696545959"><ele></ele><time>2013-9-9T14:51:2Z</time></trkpt>
<trkpt lat="46.441935701295733" lon="7.023533619940281"><ele></ele><time>2013-9-9T14:51:5Z</time></trkpt>
<trkpt lat="46.441831178963184" lon="7.023622803390026"><ele></ele><time>2013-9-9T14:51:8Z</time></trkpt>
<trkpt lat="46.441731350496411" lon="7.023674435913563"><ele></ele><time>2013-9-9T14:51:11Z</time></trkpt>
<trkpt lat="46.441708719357848" lon="7.02368893660605"><ele></ele><time>2013-9-9T14:51:14Z</time></trkpt>
<trkpt lat="46.441683825105429" lon="7.023701509460807"><ele></ele><time>2013-9-9T14:51:17Z</time></trkpt>
<trkpt lat="46.441651722416282" lon="7.023726655170322"><ele></ele><time>2013-9-9T14:51:20Z</time></trkpt>
<trkpt lat="46.441618027165532" lon="7.023746771737933"><ele></ele><time>2013-9-9T14:51:23Z</time></trkpt>
<trkpt lat="46.441582571715117" lon="7.02376420609653"><ele></ele><time>2013-9-9T14:51:26Z</time></trkpt>
<trkpt lat="46.441409653052688" lon="7.023852886632085"><ele></ele><time>2013-9-9T14:51:29Z</time></trkpt>
<trkpt lat="46.441221479326487" lon="7.023959588259459"><ele></ele><time>2013-9-9T14:51:32Z</time></trkpt>
<trkpt lat="46.441186275333166" lon="7.023983476683497"><ele></ele><time>2013-9-9T14:51:35Z</time></trkpt>
<trkpt lat="46.441152328625321" lon="7.023998312652111"><ele></ele><time>2013-9-9T14:51:38Z</time></trkpt>
<trkpt lat="46.441117795184255" lon="7.024012226611376"><ele></ele><time>2013-9-9T14:51:41Z</time></trkpt>
<trkpt lat="46.4410809148103" lon="7.024025889113545"><ele></ele><time>2013-9-9T14:51:44Z</time></trkpt>
<trkpt lat="46.441042525693774" lon="7.024045502766967"><ele></ele><time>2013-9-9T14:51:47Z</time></trkpt>
<trkpt lat="46.440802300348878" lon="7.024151030927897"><ele></ele><time>2013-9-9T14:51:50Z</time></trkpt>
<trkpt lat="46.440584119409323" lon="7.024264773353934"><ele></ele><time>2013-9-9T14:51:53Z</time></trkpt>
<trkpt lat="46.440409356728196" lon="7.024388490244746"><ele></ele><time>2013-9-9T14:51:56Z</time></trkpt>
<trkpt lat="46.44027859903872" lon="7.024561911821365"><ele></ele><time>2013-9-9T14:51:59Z</time></trkpt>
<trkpt lat="46.440257057547569" lon="7.024617902934551"><ele></ele><time>2013-9-9T14:52:2Z</time></trkpt>
<trkpt lat="46.440164772793651" lon="7.024853182956576"><ele></ele><time>2013-9-9T14:52:5Z</time></trkpt>
<trkpt lat="46.44011833705008" lon="7.0249158795923"><ele></ele><time>2013-9-9T14:52:8Z</time></trkpt>
<trkpt lat="46.440071733668447" lon="7.024972625076771"><ele></ele><time>2013-9-9T14:52:11Z</time></trkpt>
<trkpt lat="46.439913483336568" lon="7.025173706933856"><ele></ele><time>2013-9-9T14:52:14Z</time></trkpt>
<trkpt lat="46.439703265205026" lon="7.025348637253046"><ele></ele><time>2013-9-9T14:52:17Z</time></trkpt>
<trkpt lat="46.43951341509819" lon="7.025501020252705"><ele></ele><time>2013-9-9T14:52:20Z</time></trkpt>
<trkpt lat="46.439283331856132" lon="7.025682153180242"><ele></ele><time>2013-9-9T14:52:23Z</time></trkpt>
<trkpt lat="46.439248966053128" lon="7.02571040019393"><ele></ele><time>2013-9-9T14:52:26Z</time></trkpt>
<trkpt lat="46.439215103164315" lon="7.025731857866049"><ele></ele><time>2013-9-9T14:52:29Z</time></trkpt>
<trkpt lat="46.439179144799709" lon="7.025746442377567"><ele></ele><time>2013-9-9T14:52:32Z</time></trkpt>
<trkpt lat="46.439139917492867" lon="7.025769911706448"><ele></ele><time>2013-9-9T14:52:35Z</time></trkpt>
<trkpt lat="46.43905651755631" lon="7.0258345361799"><ele></ele><time>2013-9-9T14:52:38Z</time></trkpt>
<trkpt lat="46.439014188945293" lon="7.025873176753521"><ele></ele><time>2013-9-9T14:52:41Z</time></trkpt>
<trkpt lat="46.438799779862165" lon="7.026060344651341"><ele></ele><time>2013-9-9T14:52:44Z</time></trkpt>
<trkpt lat="46.438528122380376" lon="7.026273580268025"><ele></ele><time>2013-9-9T14:52:47Z</time></trkpt>
<trkpt lat="46.438491409644485" lon="7.02630165964365"><ele></ele><time>2013-9-9T14:52:50Z</time></trkpt>
<trkpt lat="46.438456373289227" lon="7.026330744847655"><ele></ele><time>2013-9-9T14:52:53Z</time></trkpt>
<trkpt lat="46.438423683866858" lon="7.02635538764298"><ele></ele><time>2013-9-9T14:52:56Z</time></trkpt>
<trkpt lat="46.438390323892236" lon="7.026382796466351"><ele></ele><time>2013-9-9T14:52:59Z</time></trkpt>
<trkpt lat="46.43826006911695" lon="7.026462759822607"><ele></ele><time>2013-9-9T14:53:2Z</time></trkpt>
<trkpt lat="46.438016071915627" lon="7.026591086760163"><ele></ele><time>2013-9-9T14:53:5Z</time></trkpt>
<trkpt lat="46.437870729714632" lon="7.026633499190211"><ele></ele><time>2013-9-9T14:53:8Z</time></trkpt>
<trkpt lat="46.437822449952364" lon="7.026644898578525"><ele></ele><time>2013-9-9T14:53:11Z</time></trkpt>
<trkpt lat="46.437776265665889" lon="7.026654537767172"><ele></ele><time>2013-9-9T14:53:14Z</time></trkpt>
<trkpt lat="46.437732176855206" lon="7.02666618861258"><ele></ele><time>2013-9-9T14:53:17Z</time></trkpt>
<trkpt lat="46.437689093872905" lon="7.026675073429942"><ele></ele><time>2013-9-9T14:53:20Z</time></trkpt>
<trkpt lat="46.437537716701627" lon="7.026693094521761"><ele></ele><time>2013-9-9T14:53:23Z</time></trkpt>
<trkpt lat="46.437391955405474" lon="7.026699800044298"><ele></ele><time>2013-9-9T14:53:26Z</time></trkpt>
<trkpt lat="46.437353314831853" lon="7.026697285473347"><ele></ele><time>2013-9-9T14:53:29Z</time></trkpt>
<trkpt lat="46.437315260991454" lon="7.026693932712078"><ele></ele><time>2013-9-9T14:53:32Z</time></trkpt>
<trkpt lat="46.437278129160404" lon="7.026695860549808"><ele></ele><time>2013-9-9T14:53:35Z</time></trkpt>
<trkpt lat="46.437240913510323" lon="7.026699967682362"><ele></ele><time>2013-9-9T14:53:38Z</time></trkpt>
<trkpt lat="46.437002113088965" lon="7.026705667376518"><ele></ele><time>2013-9-9T14:53:41Z</time></trkpt>
<trkpt lat="46.436884012073278" lon="7.026691501960158"><ele></ele><time>2013-9-9T14:53:44Z</time></trkpt>
<trkpt lat="46.436799271032214" lon="7.026685634627938"><ele></ele><time>2013-9-9T14:53:47Z</time></trkpt>
<trkpt lat="46.436755517497659" lon="7.026683958247304"><ele></ele><time>2013-9-9T14:53:50Z</time></trkpt>
<trkpt lat="46.436533899977803" lon="7.026678090915084"><ele></ele><time>2013-9-9T14:53:53Z</time></trkpt>
<trkpt lat="46.436240784823895" lon="7.026687143370509"><ele></ele><time>2013-9-9T14:53:56Z</time></trkpt>
<trkpt lat="46.436008354648948" lon="7.026699213311076"><ele></ele><time>2013-9-9T14:53:59Z</time></trkpt>
<trkpt lat="46.435968289151788" lon="7.026704074814916"><ele></ele><time>2013-9-9T14:54:2Z</time></trkpt>
<trkpt lat="46.435930151492357" lon="7.026707930490375"><ele></ele><time>2013-9-9T14:54:5Z</time></trkpt>
<trkpt lat="46.435891930013895" lon="7.026709690690041"><ele></ele><time>2013-9-9T14:54:8Z</time></trkpt>
<trkpt lat="46.43585454672575" lon="7.026712791994214"><ele></ele><time>2013-9-9T14:54:11Z</time></trkpt>
<trkpt lat="46.435816576704383" lon="7.026715222746134"><ele></ele><time>2013-9-9T14:54:14Z</time></trkpt>
<trkpt lat="46.435699313879013" lon="7.026728130877018"><ele></ele><time>2013-9-9T14:54:17Z</time></trkpt>
<trkpt lat="46.435480965301394" lon="7.026743302121759"><ele></ele><time>2013-9-9T14:54:20Z</time></trkpt>
<trkpt lat="46.435444839298725" lon="7.026743972674012"><ele></ele><time>2013-9-9T14:54:23Z</time></trkpt>
<trkpt lat="46.435409551486373" lon="7.026744643226266"><ele></ele><time>2013-9-9T14:54:26Z</time></trkpt>
<trkpt lat="46.435375018045306" lon="7.026743469759822"><ele></ele><time>2013-9-9T14:54:29Z</time></trkpt>
<trkpt lat="46.435139402747154" lon="7.026749756187201"><ele></ele><time>2013-9-9T14:54:32Z</time></trkpt>
<trkpt lat="46.435107719153166" lon="7.026748079806566"><ele></ele><time>2013-9-9T14:54:35Z</time></trkpt>
<trkpt lat="46.435044435784221" lon="7.0267463196069"><ele></ele><time>2013-9-9T14:54:38Z</time></trkpt>
<trkpt lat="46.435012081637979" lon="7.026745984330773"><ele></ele><time>2013-9-9T14:54:41Z</time></trkpt>
<trkpt lat="46.434977715834975" lon="7.026745732873678"><ele></ele><time>2013-9-9T14:54:44Z</time></trkpt>
<trkpt lat="46.434945110231638" lon="7.026745229959488"><ele></ele><time>2013-9-9T14:54:47Z</time></trkpt>
<trkpt lat="46.434912588447332" lon="7.026750594377518"><ele></ele><time>2013-9-9T14:54:50Z</time></trkpt>
<trkpt lat="46.434816783294082" lon="7.026756126433611"><ele></ele><time>2013-9-9T14:54:53Z</time></trkpt>
<trkpt lat="46.434473460540175" lon="7.026777667924762"><ele></ele><time>2013-9-9T14:54:56Z</time></trkpt>
<trkpt lat="46.434377739205956" lon="7.026786217465997"><ele></ele><time>2013-9-9T14:54:59Z</time></trkpt>
<trkpt lat="46.434344965964556" lon="7.026787642389536"><ele></ele><time>2013-9-9T14:55:2Z</time></trkpt>
<trkpt lat="46.434312611818314" lon="7.026790659874678"><ele></ele><time>2013-9-9T14:55:5Z</time></trkpt>
<trkpt lat="46.434278916567564" lon="7.026795353740454"><ele></ele><time>2013-9-9T14:55:8Z</time></trkpt>
<trkpt lat="46.434242706745863" lon="7.026799879968166"><ele></ele><time>2013-9-9T14:55:11Z</time></trkpt>
<trkpt lat="46.434209095314145" lon="7.02680348418653"><ele></ele><time>2013-9-9T14:55:14Z</time></trkpt>
<trkpt lat="46.434037601575255" lon="7.026878166943789"><ele></ele><time>2013-9-9T14:55:17Z</time></trkpt>
<trkpt lat="46.433897204697132" lon="7.027035746723414"><ele></ele><time>2013-9-9T14:55:20Z</time></trkpt>
<trkpt lat="46.433874489739537" lon="7.0270727109164"><ele></ele><time>2013-9-9T14:55:23Z</time></trkpt>
<trkpt lat="46.433852277696133" lon="7.027109591290355"><ele></ele><time>2013-9-9T14:55:26Z</time></trkpt>
<trkpt lat="46.433836771175265" lon="7.027141526341438"><ele></ele><time>2013-9-9T14:55:29Z</time></trkpt>
<trkpt lat="46.433819336816669" lon="7.027175221592188"><ele></ele><time>2013-9-9T14:55:32Z</time></trkpt>
<trkpt lat="46.43380232155323" lon="7.027214029803872"><ele></ele><time>2013-9-9T14:55:35Z</time></trkpt>
<trkpt lat="46.433773571625352" lon="7.027285108342767"><ele></ele><time>2013-9-9T14:55:38Z</time></trkpt>
<trkpt lat="46.433731410652399" lon="7.027399353682995"><ele></ele><time>2013-9-9T14:55:41Z</time></trkpt>
<trkpt lat="46.433721017092466" lon="7.027445957064629"><ele></ele><time>2013-9-9T14:55:44Z</time></trkpt>
<trkpt lat="46.433709617704153" lon="7.02749147079885"><ele></ele><time>2013-9-9T14:55:47Z</time></trkpt>
<trkpt lat="46.433696877211332" lon="7.027534302324057"><ele></ele><time>2013-9-9T14:55:50Z</time></trkpt>
<trkpt lat="46.433686818927526" lon="7.027570595964789"><ele></ele><time>2013-9-9T14:55:53Z</time></trkpt>
<trkpt lat="46.4335931930691" lon="7.027748292312026"><ele></ele><time>2013-9-9T14:55:56Z</time></trkpt>
<trkpt lat="46.43357609398663" lon="7.02778609469533"><ele></ele><time>2013-9-9T14:55:59Z</time></trkpt>
<trkpt lat="46.433558240532875" lon="7.027820125222206"><ele></ele><time>2013-9-9T14:56:2Z</time></trkpt>
<trkpt lat="46.433542063459754" lon="7.027852730825543"><ele></ele><time>2013-9-9T14:56:5Z</time></trkpt>
<trkpt lat="46.433521611616015" lon="7.02788483351469"><ele></ele><time>2013-9-9T14:56:8Z</time></trkpt>
<trkpt lat="46.433459250256419" lon="7.027994720265269"><ele></ele><time>2013-9-9T14:56:11Z</time></trkpt>
<trkpt lat="46.433411808684468" lon="7.028072001412511"><ele></ele><time>2013-9-9T14:56:14Z</time></trkpt>
<trkpt lat="46.433387584984303" lon="7.02810418792069"><ele></ele><time>2013-9-9T14:56:17Z</time></trkpt>
<trkpt lat="46.433370485901833" lon="7.028139559552074"><ele></ele><time>2013-9-9T14:56:20Z</time></trkpt>
<trkpt lat="46.433352800086141" lon="7.028175517916679"><ele></ele><time>2013-9-9T14:56:23Z</time></trkpt>
<trkpt lat="46.433335952460766" lon="7.028214493766427"><ele></ele><time>2013-9-9T14:56:26Z</time></trkpt>
<trkpt lat="46.433297647163272" lon="7.028427394106984"><ele></ele><time>2013-9-9T14:56:29Z</time></trkpt>
<trkpt lat="46.433289516717196" lon="7.028514649719"><ele></ele><time>2013-9-9T14:56:32Z</time></trkpt>
<trkpt lat="46.433292701840401" lon="7.028556223958731"><ele></ele><time>2013-9-9T14:56:35Z</time></trkpt>
<trkpt lat="46.433296306058764" lon="7.028593942523003"><ele></ele><time>2013-9-9T14:56:38Z</time></trkpt>
<trkpt lat="46.433299910277128" lon="7.02863291837275"><ele></ele><time>2013-9-9T14:56:41Z</time></trkpt>
<trkpt lat="46.433304436504841" lon="7.028671642765403"><ele></ele><time>2013-9-9T14:56:44Z</time></trkpt>
<trkpt lat="46.43332052975893" lon="7.029004404321313"><ele></ele><time>2013-9-9T14:56:47Z</time></trkpt>
<trkpt lat="46.43329655751586" lon="7.029167180880904"><ele></ele><time>2013-9-9T14:56:50Z</time></trkpt>
<trkpt lat="46.43329412676394" lon="7.029164750128985"><ele></ele><time>2013-9-9T14:56:53Z</time></trkpt>
<trkpt lat="46.433280296623707" lon="7.029244881123304"><ele></ele><time>2013-9-9T14:56:56Z</time></trkpt>
<trkpt lat="46.433277446776628" lon="7.029269188642502"><ele></ele><time>2013-9-9T14:56:59Z</time></trkpt>
<trkpt lat="46.433270154520869" lon="7.029299447312951"><ele></ele><time>2013-9-9T14:57:2Z</time></trkpt>
<trkpt lat="46.433266550302505" lon="7.029330544173718"><ele></ele><time>2013-9-9T14:57:5Z</time></trkpt>
<trkpt lat="46.4332564920187" lon="7.029369352385402"><ele></ele><time>2013-9-9T14:57:8Z</time></trkpt>
<trkpt lat="46.433245008811355" lon="7.029410758987069"><ele></ele><time>2013-9-9T14:57:11Z</time></trkpt>
<trkpt lat="46.433213911950588" lon="7.029492734000087"><ele></ele><time>2013-9-9T14:57:14Z</time></trkpt>
<trkpt lat="46.433069324120879" lon="7.029776042327285"><ele></ele><time>2013-9-9T14:57:17Z</time></trkpt>
<trkpt lat="46.433041328564286" lon="7.029821220785379"><ele></ele><time>2013-9-9T14:57:20Z</time></trkpt>
<trkpt lat="46.433011069893837" lon="7.029866818338633"><ele></ele><time>2013-9-9T14:57:23Z</time></trkpt>
<trkpt lat="46.432984499260783" lon="7.029913756996393"><ele></ele><time>2013-9-9T14:57:26Z</time></trkpt>
<trkpt lat="46.432954408228397" lon="7.02996538951993"><ele></ele><time>2013-9-9T14:57:29Z</time></trkpt>
<trkpt lat="46.432920545339584" lon="7.030019368976355"><ele></ele><time>2013-9-9T14:57:32Z</time></trkpt>
<trkpt lat="46.432884922251105" lon="7.030074773356319"><ele></ele><time>2013-9-9T14:57:35Z</time></trkpt>
<trkpt lat="46.432685852050781" lon="7.030384568497539"><ele></ele><time>2013-9-9T14:57:38Z</time></trkpt>
<trkpt lat="46.432615024968982" lon="7.030505184084177"><ele></ele><time>2013-9-9T14:57:41Z</time></trkpt>
<trkpt lat="46.432512598112226" lon="7.030638372525573"><ele></ele><time>2013-9-9T14:57:44Z</time></trkpt>
<trkpt lat="46.432469850406051" lon="7.030686065554619"><ele></ele><time>2013-9-9T14:57:47Z</time></trkpt>
<trkpt lat="46.432452164590359" lon="7.030714815482497"><ele></ele><time>2013-9-9T14:57:50Z</time></trkpt>
<trkpt lat="46.432435149326921" lon="7.030736776068807"><ele></ele><time>2013-9-9T14:57:53Z</time></trkpt>
<trkpt lat="46.432418217882514" lon="7.030763011425734"><ele></ele><time>2013-9-9T14:57:56Z</time></trkpt>
<trkpt lat="46.432398101314902" lon="7.030787905678153"><ele></ele><time>2013-9-9T14:57:59Z</time></trkpt>
<trkpt lat="46.432377817109227" lon="7.030808189883828"><ele></ele><time>2013-9-9T14:58:2Z</time></trkpt>
<trkpt lat="46.432269606739283" lon="7.030902737751603"><ele></ele><time>2013-9-9T14:58:5Z</time></trkpt>
<trkpt lat="46.432251334190369" lon="7.030918747186661"><ele></ele><time>2013-9-9T14:58:8Z</time></trkpt>
<trkpt lat="46.432232977822423" lon="7.030930733308196"><ele></ele><time>2013-9-9T14:58:11Z</time></trkpt>
<trkpt lat="46.432218225672841" lon="7.030942300334573"><ele></ele><time>2013-9-9T14:58:14Z</time></trkpt>
<trkpt lat="46.432203808799386" lon="7.030954202637076"><ele></ele><time>2013-9-9T14:58:17Z</time></trkpt>
<trkpt lat="46.432139687240124" lon="7.031001141294837"><ele></ele><time>2013-9-9T14:58:20Z</time></trkpt>
<trkpt lat="46.432123342528939" lon="7.031010026112199"><ele></ele><time>2013-9-9T14:58:23Z</time></trkpt>
<trkpt lat="46.432105656713247" lon="7.031018827110529"><ele></ele><time>2013-9-9T14:58:26Z</time></trkpt>
<trkpt lat="46.432082606479526" lon="7.031038524582982"><ele></ele><time>2013-9-9T14:58:29Z</time></trkpt>
<trkpt lat="46.432056706398726" lon="7.031051851809025"><ele></ele><time>2013-9-9T14:58:32Z</time></trkpt>
<trkpt lat="46.43202711828053" lon="7.031079344451428"><ele></ele><time>2013-9-9T14:58:35Z</time></trkpt>
<trkpt lat="46.431997530162334" lon="7.031115554273129"><ele></ele><time>2013-9-9T14:58:38Z</time></trkpt>
<trkpt lat="46.431963415816426" lon="7.031224435195327"><ele></ele><time>2013-9-9T14:58:41Z</time></trkpt>
<trkpt lat="46.431962745264173" lon="7.031255699694157"><ele></ele><time>2013-9-9T14:58:44Z</time></trkpt>
<trkpt lat="46.431965930387378" lon="7.03128419816494"><ele></ele><time>2013-9-9T14:58:47Z</time></trkpt>
<trkpt lat="46.431970121338964" lon="7.031311355531216"><ele></ele><time>2013-9-9T14:58:50Z</time></trkpt>
<trkpt lat="46.431972971186042" lon="7.03133943490684"><ele></ele><time>2013-9-9T14:58:53Z</time></trkpt>
<trkpt lat="46.431982107460499" lon="7.031364580616355"><ele></ele><time>2013-9-9T14:58:56Z</time></trkpt>
<trkpt lat="46.432005073875189" lon="7.03140246681869"><ele></ele><time>2013-9-9T14:58:59Z</time></trkpt>
<trkpt lat="46.432099957019091" lon="7.03147916123271"><ele></ele><time>2013-9-9T14:59:2Z</time></trkpt>
<trkpt lat="46.432147063314915" lon="7.031505145132542"><ele></ele><time>2013-9-9T14:59:5Z</time></trkpt>
<trkpt lat="46.432160809636116" lon="7.031508330255747"><ele></ele><time>2013-9-9T14:59:8Z</time></trkpt>
<trkpt lat="46.432174891233444" lon="7.03150849789381"><ele></ele><time>2013-9-9T14:59:11Z</time></trkpt>
<trkpt lat="46.432190481573343" lon="7.031512185931206"><ele></ele><time>2013-9-9T14:59:14Z</time></trkpt>
<trkpt lat="46.432206071913242" lon="7.031514449045062"><ele></ele><time>2013-9-9T14:59:17Z</time></trkpt>
<trkpt lat="46.432230044156313" lon="7.031510258093476"><ele></ele><time>2013-9-9T14:59:20Z</time></trkpt>
<trkpt lat="46.432336159050465" lon="7.031498355790973"><ele></ele><time>2013-9-9T14:59:23Z</time></trkpt>
<trkpt lat="46.432368513196707" lon="7.03149139881134"><ele></ele><time>2013-9-9T14:59:26Z</time></trkpt>
<trkpt lat="46.432388545945287" lon="7.031483016908169"><ele></ele><time>2013-9-9T14:59:29Z</time></trkpt>
<trkpt lat="46.43240631558001" lon="7.031480669975281"><ele></ele><time>2013-9-9T14:59:32Z</time></trkpt>
<trkpt lat="46.43242483958602" lon="7.031483352184296"><ele></ele><time>2013-9-9T14:59:35Z</time></trkpt>
<trkpt lat="46.432442190125585" lon="7.031486872583628"><ele></ele><time>2013-9-9T14:59:38Z</time></trkpt>
<trkpt lat="46.4325519092381" lon="7.03147572465241"><ele></ele><time>2013-9-9T14:59:41Z</time></trkpt>
<trkpt lat="46.432588621973991" lon="7.031470779329538"><ele></ele><time>2013-9-9T14:59:44Z</time></trkpt>
<trkpt lat="46.432608906179667" lon="7.031470444053412"><ele></ele><time>2013-9-9T14:59:47Z</time></trkpt>
<trkpt lat="46.432629358023405" lon="7.031470946967602"><ele></ele><time>2013-9-9T14:59:50Z</time></trkpt>
<trkpt lat="46.432650312781334" lon="7.03147036023438"><ele></ele><time>2013-9-9T14:59:53Z</time></trkpt>
<trkpt lat="46.432670764625072" lon="7.031469186767936"><ele></ele><time>2013-9-9T14:59:56Z</time></trkpt>
<trkpt lat="46.432763552293181" lon="7.031466588377953"><ele></ele><time>2013-9-9T14:59:59Z</time></trkpt>
<trkpt lat="46.432803198695183" lon="7.031462900340557"><ele></ele><time>2013-9-9T15:0:2Z</time></trkpt>
<trkpt lat="46.432823399081826" lon="7.031458709388971"><ele></ele><time>2013-9-9T15:0:5Z</time></trkpt>
<trkpt lat="46.432844437658787" lon="7.031457619741559"><ele></ele><time>2013-9-9T15:0:8Z</time></trkpt>
<trkpt lat="46.432864721864462" lon="7.031458206474781"><ele></ele><time>2013-9-9T15:0:11Z</time></trkpt>
<trkpt lat="46.432883413508534" lon="7.031458374112845"><ele></ele><time>2013-9-9T15:0:14Z</time></trkpt>
<trkpt lat="46.433014338836074" lon="7.03143565915525"><ele></ele><time>2013-9-9T15:0:17Z</time></trkpt>
<trkpt lat="46.433035042136908" lon="7.031432976946235"><ele></ele><time>2013-9-9T15:0:20Z</time></trkpt>
<trkpt lat="46.433052057400346" lon="7.031428953632712"><ele></ele><time>2013-9-9T15:0:23Z</time></trkpt>
<trkpt lat="46.433070665225387" lon="7.031429205089808"><ele></ele><time>2013-9-9T15:0:26Z</time></trkpt>
<trkpt lat="46.433152388781309" lon="7.031424427405"><ele></ele><time>2013-9-9T15:0:29Z</time></trkpt>
<trkpt lat="46.433226820081472" lon="7.031412189826369"><ele></ele><time>2013-9-9T15:0:32Z</time></trkpt>
<trkpt lat="46.433248780667782" lon="7.031402634456754"><ele></ele><time>2013-9-9T15:0:35Z</time></trkpt>
<trkpt lat="46.433267639949918" lon="7.031391318887472"><ele></ele><time>2013-9-9T15:0:38Z</time></trkpt>
<trkpt lat="46.433287337422371" lon="7.031375644728541"><ele></ele><time>2013-9-9T15:0:41Z</time></trkpt>
<trkpt lat="46.433305609971285" lon="7.031362233683467"><ele></ele><time>2013-9-9T15:0:44Z</time></trkpt>
<trkpt lat="46.433452712371945" lon="7.031289981678128"><ele></ele><time>2013-9-9T15:0:47Z</time></trkpt>
<trkpt lat="46.433467464521527" lon="7.031281851232052"><ele></ele><time>2013-9-9T15:0:50Z</time></trkpt>
<trkpt lat="46.433479953557253" lon="7.031274558976293"><ele></ele><time>2013-9-9T15:0:53Z</time></trkpt>
<trkpt lat="46.43349445424974" lon="7.031271625310183"><ele></ele><time>2013-9-9T15:0:56Z</time></trkpt>
<trkpt lat="46.433509541675448" lon="7.031264081597328"><ele></ele><time>2013-9-9T15:0:59Z</time></trkpt>
<trkpt lat="46.433584308251739" lon="7.031224854290485"><ele></ele><time>2013-9-9T15:1:2Z</time></trkpt>
<trkpt lat="46.433627055957913" lon="7.031194679439068"><ele></ele><time>2013-9-9T15:1:5Z</time></trkpt>
<trkpt lat="46.433647591620684" lon="7.031182022765279"><ele></ele><time>2013-9-9T15:1:8Z</time></trkpt>
<trkpt lat="46.433670725673437" lon="7.031167773529887"><ele></ele><time>2013-9-9T15:1:11Z</time></trkpt>
<trkpt lat="46.433688579127192" lon="7.031155619770289"><ele></ele><time>2013-9-9T15:1:14Z</time></trkpt>
<trkpt lat="46.43370802514255" lon="7.031144388020039"><ele></ele><time>2013-9-9T15:1:17Z</time></trkpt>
<trkpt lat="46.43372998572886" lon="7.031131815165281"><ele></ele><time>2013-9-9T15:1:20Z</time></trkpt>
<trkpt lat="46.433906424790621" lon="7.031038105487824"><ele></ele><time>2013-9-9T15:1:23Z</time></trkpt>
<trkpt lat="46.433924781158566" lon="7.031030897051096"><ele></ele><time>2013-9-9T15:1:26Z</time></trkpt>
<trkpt lat="46.433942969888449" lon="7.0310237724334"><ele></ele><time>2013-9-9T15:1:29Z</time></trkpt>
<trkpt lat="46.433961326256394" lon="7.031011953949928"><ele></ele><time>2013-9-9T15:1:32Z</time></trkpt>
<trkpt lat="46.433979934081435" lon="7.031001979485154"><ele></ele><time>2013-9-9T15:1:35Z</time></trkpt>
<trkpt lat="46.434064423665404" lon="7.030988233163953"><ele></ele><time>2013-9-9T15:1:38Z</time></trkpt>
<trkpt lat="46.434086300432682" lon="7.030986305326223"><ele></ele><time>2013-9-9T15:1:41Z</time></trkpt>
<trkpt lat="46.434107925742865" lon="7.030986053869128"><ele></ele><time>2013-9-9T15:1:44Z</time></trkpt>
<trkpt lat="46.434126365929842" lon="7.030984293669462"><ele></ele><time>2013-9-9T15:1:47Z</time></trkpt>
<trkpt lat="46.434143967926502" lon="7.030979683622718"><ele></ele><time>2013-9-9T15:1:50Z</time></trkpt>
<trkpt lat="46.434162575751543" lon="7.030974319204688"><ele></ele><time>2013-9-9T15:1:53Z</time></trkpt>
<trkpt lat="46.434254022315145" lon="7.030968032777309"><ele></ele><time>2013-9-9T15:1:56Z</time></trkpt>
<trkpt lat="46.434338763356209" lon="7.030969290062785"><ele></ele><time>2013-9-9T15:1:59Z</time></trkpt>
<trkpt lat="46.434359299018979" lon="7.030973983928561"><ele></ele><time>2013-9-9T15:2:2Z</time></trkpt>
<trkpt lat="46.434381259605289" lon="7.030972139909864"><ele></ele><time>2013-9-9T15:2:5Z</time></trkpt>
<trkpt lat="46.434403052553535" lon="7.030971636995673"><ele></ele><time>2013-9-9T15:2:8Z</time></trkpt>
<trkpt lat="46.434421995654702" lon="7.030973145738244"><ele></ele><time>2013-9-9T15:2:11Z</time></trkpt>
<trkpt lat="46.434556609019637" lon="7.030968032777309"><ele></ele><time>2013-9-9T15:2:14Z</time></trkpt>
<trkpt lat="46.434581838548183" lon="7.030965937301517"><ele></ele><time>2013-9-9T15:2:17Z</time></trkpt>
<trkpt lat="46.434606397524476" lon="7.030963925644755"><ele></ele><time>2013-9-9T15:2:20Z</time></trkpt>
<trkpt lat="46.434628441929817" lon="7.030959902331233"><ele></ele><time>2013-9-9T15:2:23Z</time></trkpt>
<trkpt lat="46.434649061411619" lon="7.03095487318933"><ele></ele><time>2013-9-9T15:2:26Z</time></trkpt>
<trkpt lat="46.434802617877722" lon="7.030950766056776"><ele></ele><time>2013-9-9T15:2:29Z</time></trkpt>
<trkpt lat="46.434823572635651" lon="7.030946407467127"><ele></ele><time>2013-9-9T15:2:32Z</time></trkpt>
<trkpt lat="46.434839498251677" lon="7.030947664752603"><ele></ele><time>2013-9-9T15:2:35Z</time></trkpt>
<trkpt lat="46.43485919572413" lon="7.030946156010032"><ele></ele><time>2013-9-9T15:2:38Z</time></trkpt>
<trkpt lat="46.434877049177885" lon="7.030945401638746"><ele></ele><time>2013-9-9T15:2:41Z</time></trkpt>
<trkpt lat="46.434957347810268" lon="7.030950011685491"><ele></ele><time>2013-9-9T15:2:44Z</time></trkpt>
<trkpt lat="46.435073185712099" lon="7.030935427173972"><ele></ele><time>2013-9-9T15:2:47Z</time></trkpt>
<trkpt lat="46.435089949518442" lon="7.030934002250433"><ele></ele><time>2013-9-9T15:2:50Z</time></trkpt>
<trkpt lat="46.435107467696071" lon="7.030929643660784"><ele></ele><time>2013-9-9T15:2:53Z</time></trkpt>
<trkpt lat="46.435123812407255" lon="7.030927212908864"><ele></ele><time>2013-9-9T15:2:56Z</time></trkpt>
<trkpt lat="46.435140911489725" lon="7.030922519043088"><ele></ele><time>2013-9-9T15:2:59Z</time></trkpt>
<trkpt lat="46.435229927301407" lon="7.030937355011702"><ele></ele><time>2013-9-9T15:3:2Z</time></trkpt>
<trkpt lat="46.435255827382207" lon="7.030941126868129"><ele></ele><time>2013-9-9T15:3:5Z</time></trkpt>
<trkpt lat="46.435277117416263" lon="7.030942719429731"><ele></ele><time>2013-9-9T15:3:8Z</time></trkpt>
<trkpt lat="46.435292875394225" lon="7.030941965058446"><ele></ele><time>2013-9-9T15:3:11Z</time></trkpt>
<trkpt lat="46.435307040810585" lon="7.030941462144256"><ele></ele><time>2013-9-9T15:3:14Z</time></trkpt>
<trkpt lat="46.435319948941469" lon="7.030943809077144"><ele></ele><time>2013-9-9T15:3:17Z</time></trkpt>
<trkpt lat="46.435335706919432" lon="7.030943809077144"><ele></ele><time>2013-9-9T15:3:20Z</time></trkpt>
<trkpt lat="46.435431428253651" lon="7.03095537610352"><ele></ele><time>2013-9-9T15:3:23Z</time></trkpt>
<trkpt lat="46.43544995225966" lon="7.030956968665123"><ele></ele><time>2013-9-9T15:3:26Z</time></trkpt>
<trkpt lat="46.435470068827271" lon="7.030955962836742"><ele></ele><time>2013-9-9T15:3:29Z</time></trkpt>
<trkpt lat="46.435492783784866" lon="7.030955124646425"><ele></ele><time>2013-9-9T15:3:32Z</time></trkpt>
<trkpt lat="46.43551298417151" lon="7.030962333083153"><ele></ele><time>2013-9-9T15:3:35Z</time></trkpt>
<trkpt lat="46.435577357187867" lon="7.031000470742583"><ele></ele><time>2013-9-9T15:3:38Z</time></trkpt>
<trkpt lat="46.435606358572841" lon="7.031057802960277"><ele></ele><time>2013-9-9T15:3:41Z</time></trkpt>
<trkpt lat="46.435612477362156" lon="7.031078170984983"><ele></ele><time>2013-9-9T15:3:44Z</time></trkpt>
<trkpt lat="46.435613399371505" lon="7.031096778810024"><ele></ele><time>2013-9-9T15:3:47Z</time></trkpt>
<trkpt lat="46.435615159571171" lon="7.031112955883145"><ele></ele><time>2013-9-9T15:3:50Z</time></trkpt>
<trkpt lat="46.435609627515078" lon="7.031132904812694"><ele></ele><time>2013-9-9T15:3:53Z</time></trkpt>
<trkpt lat="46.435546763241291" lon="7.031202726066113"><ele></ele><time>2013-9-9T15:3:56Z</time></trkpt>
<trkpt lat="46.435505356639624" lon="7.031255951151252"><ele></ele><time>2013-9-9T15:3:59Z</time></trkpt>
<trkpt lat="46.435490436851978" lon="7.031268524006009"><ele></ele><time>2013-9-9T15:4:2Z</time></trkpt>
<trkpt lat="46.435477528721094" lon="7.031280510127544"><ele></ele><time>2013-9-9T15:4:5Z</time></trkpt>
<trkpt lat="46.435463028028607" lon="7.031288724392653"><ele></ele><time>2013-9-9T15:4:8Z</time></trkpt>
<trkpt lat="46.435448192059994" lon="7.031299704685807"><ele></ele><time>2013-9-9T15:4:11Z</time></trkpt>
<trkpt lat="46.435338640585542" lon="7.031420571729541"><ele></ele><time>2013-9-9T15:4:14Z</time></trkpt>
<trkpt lat="46.435326067730784" lon="7.031439011916518"><ele></ele><time>2013-9-9T15:4:17Z</time></trkpt>
<trkpt lat="46.43531215377152" lon="7.031458541750908"><ele></ele><time>2013-9-9T15:4:20Z</time></trkpt>
<trkpt lat="46.435301257297397" lon="7.031473210081458"><ele></ele><time>2013-9-9T15:4:23Z</time></trkpt>
<trkpt lat="46.435285666957498" lon="7.031491147354245"><ele></ele><time>2013-9-9T15:4:26Z</time></trkpt>
<trkpt lat="46.435233615338802" lon="7.031541941687465"><ele></ele><time>2013-9-9T15:4:29Z</time></trkpt>
<trkpt lat="46.435180306434631" lon="7.031607069075108"><ele></ele><time>2013-9-9T15:4:32Z</time></trkpt>
<trkpt lat="46.435165302827954" lon="7.031626347452402"><ele></ele><time>2013-9-9T15:4:35Z</time></trkpt>
<trkpt lat="46.435149628669024" lon="7.031642524525523"><ele></ele><time>2013-9-9T15:4:38Z</time></trkpt>
<trkpt lat="46.435132026672363" lon="7.031654426828027"><ele></ele><time>2013-9-9T15:4:41Z</time></trkpt>
<trkpt lat="46.435038568452001" lon="7.031745202839375"><ele></ele><time>2013-9-9T15:4:44Z</time></trkpt>
<trkpt lat="46.435039741918445" lon="7.031752243638039"><ele></ele><time>2013-9-9T15:4:47Z</time></trkpt>
<trkpt lat="46.43504099920392" lon="7.0317508187145"><ele></ele><time>2013-9-9T15:4:50Z</time></trkpt>
<trkpt lat="46.435022223740816" lon="7.031798763200641"><ele></ele><time>2013-9-9T15:4:53Z</time></trkpt>
<trkpt lat="46.4350023586303" lon="7.03182952478528"><ele></ele><time>2013-9-9T15:4:56Z</time></trkpt>
<trkpt lat="46.43494083546102" lon="7.031993810087442"><ele></ele><time>2013-9-9T15:4:59Z</time></trkpt>
<trkpt lat="46.434891633689404" lon="7.032159101217985"><ele></ele><time>2013-9-9T15:5:2Z</time></trkpt>
<trkpt lat="46.43484310247004" lon="7.032293295487762"><ele></ele><time>2013-9-9T15:5:5Z</time></trkpt>
<trkpt lat="46.434838157147169" lon="7.032317854464054"><ele></ele><time>2013-9-9T15:5:8Z</time></trkpt>
<trkpt lat="46.434832205995917" lon="7.032341491430998"><ele></ele><time>2013-9-9T15:5:11Z</time></trkpt>
<trkpt lat="46.43482256680727" lon="7.032364374026656"><ele></ele><time>2013-9-9T15:5:14Z</time></trkpt>
<trkpt lat="46.434814520180225" lon="7.032388178631663"><ele></ele><time>2013-9-9T15:5:17Z</time></trkpt>
<trkpt lat="46.434776885434985" lon="7.032504770904779"><ele></ele><time>2013-9-9T15:5:20Z</time></trkpt>
<trkpt lat="46.434727348387241" lon="7.032609879970551"><ele></ele><time>2013-9-9T15:5:23Z</time></trkpt>
<trkpt lat="46.434714607894421" lon="7.032629493623972"><ele></ele><time>2013-9-9T15:5:26Z</time></trkpt>
<trkpt lat="46.434703376144171" lon="7.032650113105774"><ele></ele><time>2013-9-9T15:5:29Z</time></trkpt>
<trkpt lat="46.434694994240999" lon="7.032669056206942"><ele></ele><time>2013-9-9T15:5:32Z</time></trkpt>
<trkpt lat="46.4346828404814" lon="7.032694201916456"><ele></ele><time>2013-9-9T15:5:35Z</time></trkpt>
<trkpt lat="46.434611342847347" lon="7.032796544954181"><ele></ele><time>2013-9-9T15:5:38Z</time></trkpt>
<trkpt lat="46.434581587091088" lon="7.03283024020493"><ele></ele><time>2013-9-9T15:5:41Z</time></trkpt>
<trkpt lat="46.434568176046014" lon="7.032845998182893"><ele></ele><time>2013-9-9T15:5:44Z</time></trkpt>
<trkpt lat="46.434556189924479" lon="7.032861337065697"><ele></ele><time>2013-9-9T15:5:47Z</time></trkpt>
<trkpt lat="46.434545209631324" lon="7.032880028709769"><ele></ele><time>2013-9-9T15:5:50Z</time></trkpt>
<trkpt lat="46.434531128033996" lon="7.032895283773542"><ele></ele><time>2013-9-9T15:5:53Z</time></trkpt>
<trkpt lat="46.434511346742511" lon="7.032911879941821"><ele></ele><time>2013-9-9T15:5:56Z</time></trkpt>
<trkpt lat="46.434459881857038" lon="7.032961836084724"><ele></ele><time>2013-9-9T15:5:59Z</time></trkpt>
<trkpt lat="46.434437921270728" lon="7.032986059784889"><ele></ele><time>2013-9-9T15:6:2Z</time></trkpt>
<trkpt lat="46.434407494962215" lon="7.033005086705089"><ele></ele><time>2013-9-9T15:6:5Z</time></trkpt>
<trkpt lat="46.434397185221314" lon="7.033011540770531"><ele></ele><time>2013-9-9T15:6:8Z</time></trkpt>
<trkpt lat="46.434368183836341" lon="7.033034255728126"><ele></ele><time>2013-9-9T15:6:11Z</time></trkpt>
<trkpt lat="46.434337673708797" lon="7.033072812482715"><ele></ele><time>2013-9-9T15:6:14Z</time></trkpt>
<trkpt lat="46.434292998164892" lon="7.033118829131126"><ele></ele><time>2013-9-9T15:6:17Z</time></trkpt>
<trkpt lat="46.434249579906464" lon="7.033165181055665"><ele></ele><time>2013-9-9T15:6:20Z</time></trkpt>
<trkpt lat="46.43423130735755" lon="7.033175658434629"><ele></ele><time>2013-9-9T15:6:23Z</time></trkpt>
<trkpt lat="46.43421177752316" lon="7.033187644556165"><ele></ele><time>2013-9-9T15:6:26Z</time></trkpt>
<trkpt lat="46.434198953211308" lon="7.033207593485713"><ele></ele><time>2013-9-9T15:6:29Z</time></trkpt>
<trkpt lat="46.434182105585933" lon="7.033224022015929"><ele></ele><time>2013-9-9T15:6:32Z</time></trkpt>
<trkpt lat="46.434160731732845" lon="7.033242210745812"><ele></ele><time>2013-9-9T15:6:35Z</time></trkpt>
<trkpt lat="46.434000385925174" lon="7.03336869366467"><ele></ele><time>2013-9-9T15:6:38Z</time></trkpt>
<trkpt lat="46.43398261629045" lon="7.033384200185537"><ele></ele><time>2013-9-9T15:6:41Z</time></trkpt>
<trkpt lat="46.433962751179934" lon="7.033395767211914"><ele></ele><time>2013-9-9T15:6:44Z</time></trkpt>
<trkpt lat="46.433943891897798" lon="7.03340825624764"><ele></ele><time>2013-9-9T15:6:47Z</time></trkpt>
<trkpt lat="46.433923859149218" lon="7.033420074731112"><ele></ele><time>2013-9-9T15:6:50Z</time></trkpt>
<trkpt lat="46.433904580771923" lon="7.033431809395552"><ele></ele><time>2013-9-9T15:6:53Z</time></trkpt>
<trkpt lat="46.433824701234698" lon="7.03347128815949"><ele></ele><time>2013-9-9T15:6:56Z</time></trkpt>
<trkpt lat="46.433750940486789" lon="7.033510264009237"><ele></ele><time>2013-9-9T15:6:59Z</time></trkpt>
<trkpt lat="46.433734595775604" lon="7.033517640084028"><ele></ele><time>2013-9-9T15:7:2Z</time></trkpt>
<trkpt lat="46.433715904131532" lon="7.033528117462993"><ele></ele><time>2013-9-9T15:7:5Z</time></trkpt>
<trkpt lat="46.433697799220681" lon="7.033537589013577"><ele></ele><time>2013-9-9T15:7:8Z</time></trkpt>
<trkpt lat="46.433680700138211" lon="7.033551000058651"><ele></ele><time>2013-9-9T15:7:11Z</time></trkpt>
<trkpt lat="46.433553630486131" lon="7.03362719155848"><ele></ele><time>2013-9-9T15:7:14Z</time></trkpt>
<trkpt lat="46.433537118136883" lon="7.033633226528764"><ele></ele><time>2013-9-9T15:7:17Z</time></trkpt>
<trkpt lat="46.433523455634713" lon="7.03363892622292"><ele></ele><time>2013-9-9T15:7:20Z</time></trkpt>
<trkpt lat="46.43350426107645" lon="7.033642027527094"><ele></ele><time>2013-9-9T15:7:23Z</time></trkpt>
<trkpt lat="46.43348422832787" lon="7.03364378772676"><ele></ele><time>2013-9-9T15:7:26Z</time></trkpt>
<trkpt lat="46.43343142233789" lon="7.033654181286693"><ele></ele><time>2013-9-9T15:7:29Z</time></trkpt>
<trkpt lat="46.433356236666441" lon="7.033662563189864"><ele></ele><time>2013-9-9T15:7:32Z</time></trkpt>
<trkpt lat="46.433338969945908" lon="7.033660635352135"><ele></ele><time>2013-9-9T15:7:35Z</time></trkpt>
<trkpt lat="46.433321535587311" lon="7.033662227913737"><ele></ele><time>2013-9-9T15:7:38Z</time></trkpt>
<trkpt lat="46.433303765952587" lon="7.033661976456642"><ele></ele><time>2013-9-9T15:7:41Z</time></trkpt>
<trkpt lat="46.433288007974625" lon="7.033659880980849"><ele></ele><time>2013-9-9T15:7:44Z</time></trkpt>
<trkpt lat="46.433182060718536" lon="7.033585617318749"><ele></ele><time>2013-9-9T15:7:47Z</time></trkpt>
<trkpt lat="46.433169320225716" lon="7.0335812587291"><ele></ele><time>2013-9-9T15:7:50Z</time></trkpt>
<trkpt lat="46.433154568076134" lon="7.033575726673007"><ele></ele><time>2013-9-9T15:7:53Z</time></trkpt>
<trkpt lat="46.433141827583313" lon="7.033572038635612"><ele></ele><time>2013-9-9T15:7:56Z</time></trkpt>
<trkpt lat="46.433126404881477" lon="7.033574720844626"><ele></ele><time>2013-9-9T15:7:59Z</time></trkpt>
<trkpt lat="46.433023810386658" lon="7.033528285101056"><ele></ele><time>2013-9-9T15:8:2Z</time></trkpt>
<trkpt lat="46.43301023170352" lon="7.033521076664329"><ele></ele><time>2013-9-9T15:8:5Z</time></trkpt>
<trkpt lat="46.432996401563287" lon="7.033519148826599"><ele></ele><time>2013-9-9T15:8:8Z</time></trkpt>
<trkpt lat="46.432980895042419" lon="7.033519484102726"><ele></ele><time>2013-9-9T15:8:11Z</time></trkpt>
<trkpt lat="46.432964885607362" lon="7.033514454960823"><ele></ele><time>2013-9-9T15:8:14Z</time></trkpt>
<trkpt lat="46.432949462905526" lon="7.033516718074679"><ele></ele><time>2013-9-9T15:8:17Z</time></trkpt>
<trkpt lat="46.43291836604476" lon="7.03350992873311"><ele></ele><time>2013-9-9T15:8:20Z</time></trkpt>
<trkpt lat="46.432814011350274" lon="7.033511605113745"><ele></ele><time>2013-9-9T15:8:23Z</time></trkpt>
<trkpt lat="46.432795990258455" lon="7.033519567921758"><ele></ele><time>2013-9-9T15:8:26Z</time></trkpt>
<trkpt lat="46.432775622233748" lon="7.033520070835948"><ele></ele><time>2013-9-9T15:8:29Z</time></trkpt>
<trkpt lat="46.432756008580327" lon="7.033522753044963"><ele></ele><time>2013-9-9T15:8:32Z</time></trkpt>
<trkpt lat="46.432740669697523" lon="7.033524010330439"><ele></ele><time>2013-9-9T15:8:35Z</time></trkpt>
<trkpt lat="46.432657018303871" lon="7.033516969531775"><ele></ele><time>2013-9-9T15:8:38Z</time></trkpt>
<trkpt lat="46.432605721056461" lon="7.033528620377183"><ele></ele><time>2013-9-9T15:8:41Z</time></trkpt>
<trkpt lat="46.432588873431087" lon="7.03352409414947"><ele></ele><time>2013-9-9T15:8:44Z</time></trkpt>
<trkpt lat="46.432572361081839" lon="7.033520825207233"><ele></ele><time>2013-9-9T15:8:47Z</time></trkpt>
<trkpt lat="46.432555178180337" lon="7.033518813550472"><ele></ele><time>2013-9-9T15:8:50Z</time></trkpt>
<trkpt lat="46.43253774382174" lon="7.033519903197885"><ele></ele><time>2013-9-9T15:8:53Z</time></trkpt>
<trkpt lat="46.43243414349854" lon="7.033526608720422"><ele></ele><time>2013-9-9T15:8:56Z</time></trkpt>
<trkpt lat="46.432415954768658" lon="7.03352652490139"><ele></ele><time>2013-9-9T15:8:59Z</time></trkpt>
<trkpt lat="46.432397430762649" lon="7.033525099977851"><ele></ele><time>2013-9-9T15:9:2Z</time></trkpt>
<trkpt lat="46.432377817109227" lon="7.033527782186866"><ele></ele><time>2013-9-9T15:9:5Z</time></trkpt>
<trkpt lat="46.432360466569662" lon="7.033527111634612"><ele></ele><time>2013-9-9T15:9:8Z</time></trkpt>
<trkpt lat="46.432218644768" lon="7.033540103584528"><ele></ele><time>2013-9-9T15:9:11Z</time></trkpt>
<trkpt lat="46.432201042771339" lon="7.033538511022925"><ele></ele><time>2013-9-9T15:9:14Z</time></trkpt>
<trkpt lat="46.432182854041457" lon="7.033542953431606"><ele></ele><time>2013-9-9T15:9:17Z</time></trkpt>
<trkpt lat="46.432165838778019" lon="7.033551251515746"><ele></ele><time>2013-9-9T15:9:20Z</time></trkpt>
<trkpt lat="46.432146392762661" lon="7.033558459952474"><ele></ele><time>2013-9-9T15:9:23Z</time></trkpt>
<trkpt lat="46.432129461318254" lon="7.033567009493709"><ele></ele><time>2013-9-9T15:9:26Z</time></trkpt>
<trkpt lat="46.432078499346972" lon="7.033608080819249"><ele></ele><time>2013-9-9T15:9:29Z</time></trkpt>
<trkpt lat="46.431995015591383" lon="7.033657031133771"><ele></ele><time>2013-9-9T15:9:32Z</time></trkpt>
<trkpt lat="46.431978670880198" lon="7.033668598160148"><ele></ele><time>2013-9-9T15:9:35Z</time></trkpt>
<trkpt lat="46.431963331997395" lon="7.03368628397584"><ele></ele><time>2013-9-9T15:9:38Z</time></trkpt>
<trkpt lat="46.431948244571686" lon="7.033702041953802"><ele></ele><time>2013-9-9T15:9:41Z</time></trkpt>
<trkpt lat="46.43193231895566" lon="7.033716710284352"><ele></ele><time>2013-9-9T15:9:44Z</time></trkpt>
<trkpt lat="46.431793766096234" lon="7.033829111605883"><ele></ele><time>2013-9-9T15:9:47Z</time></trkpt>
<trkpt lat="46.43178035505116" lon="7.033843277022243"><ele></ele><time>2013-9-9T15:9:50Z</time></trkpt>
<trkpt lat="46.43176669254899" lon="7.033857610076666"><ele></ele><time>2013-9-9T15:9:53Z</time></trkpt>
<trkpt lat="46.431754035875201" lon="7.03387294895947"><ele></ele><time>2013-9-9T15:9:56Z</time></trkpt>
<trkpt lat="46.431739535182714" lon="7.033885773271322"><ele></ele><time>2013-9-9T15:9:59Z</time></trkpt>
<trkpt lat="46.431720172986388" lon="7.033901195973158"><ele></ele><time>2013-9-9T15:10:2Z</time></trkpt>
<trkpt lat="46.431689830496907" lon="7.033926676958799"><ele></ele><time>2013-9-9T15:10:5Z</time></trkpt>
<trkpt lat="46.431586900725961" lon="7.034029690548778"><ele></ele><time>2013-9-9T15:10:8Z</time></trkpt>
<trkpt lat="46.431568376719952" lon="7.034043688327074"><ele></ele><time>2013-9-9T15:10:11Z</time></trkpt>
<trkpt lat="46.431553037837148" lon="7.034058440476656"><ele></ele><time>2013-9-9T15:10:14Z</time></trkpt>
<trkpt lat="46.431542476639152" lon="7.034081071615219"><ele></ele><time>2013-9-9T15:10:17Z</time></trkpt>
<trkpt lat="46.431527389213443" lon="7.034097751602531"><ele></ele><time>2013-9-9T15:10:20Z</time></trkpt>
<trkpt lat="46.431465446949005" lon="7.034158688038588"><ele></ele><time>2013-9-9T15:10:23Z</time></trkpt>
<trkpt lat="46.431399146094918" lon="7.034212332218885"><ele></ele><time>2013-9-9T15:10:26Z</time></trkpt>
<trkpt lat="46.431384310126305" lon="7.034227838739753"><ele></ele><time>2013-9-9T15:10:29Z</time></trkpt>
<trkpt lat="46.431367797777057" lon="7.034247284755111"><ele></ele><time>2013-9-9T15:10:32Z</time></trkpt>
<trkpt lat="46.431352626532316" lon="7.034268071874976"><ele></ele><time>2013-9-9T15:10:35Z</time></trkpt>
<trkpt lat="46.431341310963035" lon="7.034288104623556"><ele></ele><time>2013-9-9T15:10:38Z</time></trkpt>
<trkpt lat="46.431269980967045" lon="7.034409726038575"><ele></ele><time>2013-9-9T15:10:41Z</time></trkpt>
<trkpt lat="46.43125606700778" lon="7.034426489844918"><ele></ele><time>2013-9-9T15:10:44Z</time></trkpt>
<trkpt lat="46.431246679276228" lon="7.034446690231562"><ele></ele><time>2013-9-9T15:10:47Z</time></trkpt>
<trkpt lat="46.431237375363708" lon="7.034465884789825"><ele></ele><time>2013-9-9T15:10:50Z</time></trkpt>
<trkpt lat="46.431227484717965" lon="7.034489437937737"><ele></ele><time>2013-9-9T15:10:53Z</time></trkpt>
<trkpt lat="46.431181132793427" lon="7.034588092938066"><ele></ele><time>2013-9-9T15:10:56Z</time></trkpt>
<trkpt lat="46.431151209399104" lon="7.034687083214521"><ele></ele><time>2013-9-9T15:10:59Z</time></trkpt>
<trkpt lat="46.431139474734664" lon="7.034709043800831"><ele></ele><time>2013-9-9T15:11:2Z</time></trkpt>
<trkpt lat="46.431128745898604" lon="7.034733854234219"><ele></ele><time>2013-9-9T15:11:5Z</time></trkpt>
<trkpt lat="46.431120196357369" lon="7.03475539572537"><ele></ele><time>2013-9-9T15:11:8Z</time></trkpt>
<trkpt lat="46.431112233549356" lon="7.034782133996487"><ele></ele><time>2013-9-9T15:11:11Z</time></trkpt>
<trkpt lat="46.43108163960278" lon="7.034853547811508"><ele></ele><time>2013-9-9T15:11:14Z</time></trkpt>
<trkpt lat="46.431043753400445" lon="7.034943150356412"><ele></ele><time>2013-9-9T15:11:17Z</time></trkpt>
<trkpt lat="46.43103813752532" lon="7.034966535866261"><ele></ele><time>2013-9-9T15:11:20Z</time></trkpt>
<trkpt lat="46.431027157232165" lon="7.034986820071936"><ele></ele><time>2013-9-9T15:11:23Z</time></trkpt>
<trkpt lat="46.431014416739345" lon="7.035009115934372"><ele></ele><time>2013-9-9T15:11:26Z</time></trkpt>
<trkpt lat="46.430983319878578" lon="7.035076087340713"><ele></ele><time>2013-9-9T15:11:29Z</time></trkpt>
<trkpt lat="46.430927580222487" lon="7.035149848088622"><ele></ele><time>2013-9-9T15:11:32Z</time></trkpt>
<trkpt lat="46.430913079530001" lon="7.035166528075934"><ele></ele><time>2013-9-9T15:11:35Z</time></trkpt>
<trkpt lat="46.430896148085594" lon="7.035181866958737"><ele></ele><time>2013-9-9T15:11:38Z</time></trkpt>
<trkpt lat="46.430883323773742" lon="7.035202318802476"><ele></ele><time>2013-9-9T15:11:41Z</time></trkpt>
<trkpt lat="46.430869828909636" lon="7.035224949941039"><ele></ele><time>2013-9-9T15:11:44Z</time></trkpt>
<trkpt lat="46.430781399831176" lon="7.035321928560734"><ele></ele><time>2013-9-9T15:11:47Z</time></trkpt>
<trkpt lat="46.430750889703631" lon="7.035352354869247"><ele></ele><time>2013-9-9T15:11:50Z</time></trkpt>
<trkpt lat="46.430737059563398" lon="7.035370040684938"><ele></ele><time>2013-9-9T15:11:53Z</time></trkpt>
<trkpt lat="46.43072297796607" lon="7.035383703187108"><ele></ele><time>2013-9-9T15:11:56Z</time></trkpt>
<trkpt lat="46.430709315463901" lon="7.035400802269578"><ele></ele><time>2013-9-9T15:11:59Z</time></trkpt>
<trkpt lat="46.430692719295621" lon="7.035415805876255"><ele></ele><time>2013-9-9T15:12:2Z</time></trkpt>
<trkpt lat="46.430649887770414" lon="7.035470707342029"><ele></ele><time>2013-9-9T15:12:5Z</time></trkpt>
<trkpt lat="46.430602865293622" lon="7.035529632121325"><ele></ele><time>2013-9-9T15:12:8Z</time></trkpt>
<trkpt lat="46.430586352944374" lon="7.035543881356716"><ele></ele><time>2013-9-9T15:12:11Z</time></trkpt>
<trkpt lat="46.430571265518665" lon="7.035559387877584"><ele></ele><time>2013-9-9T15:12:14Z</time></trkpt>
<trkpt lat="46.430557686835527" lon="7.03557824715972"><ele></ele><time>2013-9-9T15:12:17Z</time></trkpt>
<trkpt lat="46.430542850866914" lon="7.035594591870904"><ele></ele><time>2013-9-9T15:12:20Z</time></trkpt>
<trkpt lat="46.4305280148983" lon="7.035612445324659"><ele></ele><time>2013-9-9T15:12:23Z</time></trkpt>
<trkpt lat="46.43041854724288" lon="7.03573071397841"><ele></ele><time>2013-9-9T15:12:26Z</time></trkpt>
<trkpt lat="46.430400693789124" lon="7.03574781306088"><ele></ele><time>2013-9-9T15:12:29Z</time></trkpt>
<trkpt lat="46.430385354906321" lon="7.035769354552031"><ele></ele><time>2013-9-9T15:12:32Z</time></trkpt>
<trkpt lat="46.430367920547724" lon="7.035784190520644"><ele></ele><time>2013-9-9T15:12:35Z</time></trkpt>
<trkpt lat="46.430351827293634" lon="7.035802211612463"><ele></ele><time>2013-9-9T15:12:38Z</time></trkpt>
<trkpt lat="46.430331794545054" lon="7.035818723961711"><ele></ele><time>2013-9-9T15:12:41Z</time></trkpt>
<trkpt lat="46.430298769846559" lon="7.035856274887919"><ele></ele><time>2013-9-9T15:12:44Z</time></trkpt>
<trkpt lat="46.43020112067461" lon="7.035929365083575"><ele></ele><time>2013-9-9T15:12:47Z</time></trkpt>
<trkpt lat="46.43018058501184" lon="7.035943530499935"><ele></ele><time>2013-9-9T15:12:50Z</time></trkpt>
<trkpt lat="46.430158959701657" lon="7.035958953201771"><ele></ele><time>2013-9-9T15:12:53Z</time></trkpt>
<trkpt lat="46.430137166753411" lon="7.035973453894258"><ele></ele><time>2013-9-9T15:12:56Z</time></trkpt>
<trkpt lat="46.43011411651969" lon="7.035984518006444"><ele></ele><time>2013-9-9T15:12:59Z</time></trkpt>
<trkpt lat="46.429962739348412" lon="7.03609474003315"><ele></ele><time>2013-9-9T15:13:2Z</time></trkpt>
<trkpt lat="46.429871628060937" lon="7.036143857985735"><ele></ele><time>2013-9-9T15:13:5Z</time></trkpt>
<trkpt lat="46.429848410189152" lon="7.036158358678222"><ele></ele><time>2013-9-9T15:13:8Z</time></trkpt>
<trkpt lat="46.429826114326715" lon="7.036168249323964"><ele></ele><time>2013-9-9T15:13:11Z</time></trkpt>
<trkpt lat="46.42980239354074" lon="7.036181073635817"><ele></ele><time>2013-9-9T15:13:14Z</time></trkpt>
<trkpt lat="46.429778756573796" lon="7.036198172718287"><ele></ele><time>2013-9-9T15:13:17Z</time></trkpt>
<trkpt lat="46.42961522564292" lon="7.036297079175711"><ele></ele><time>2013-9-9T15:13:20Z</time></trkpt>
<trkpt lat="46.429430823773146" lon="7.036380646750331"><ele></ele><time>2013-9-9T15:13:23Z</time></trkpt>
<trkpt lat="46.429404001682997" lon="7.036386765539646"><ele></ele><time>2013-9-9T15:13:26Z</time></trkpt>
<trkpt lat="46.429378017783165" lon="7.036396153271198"><ele></ele><time>2013-9-9T15:13:29Z</time></trkpt>
<trkpt lat="46.429351782426238" lon="7.036401350051165"><ele></ele><time>2013-9-9T15:13:32Z</time></trkpt>
<trkpt lat="46.429328229278326" lon="7.036400511860848"><ele></ele><time>2013-9-9T15:13:35Z</time></trkpt>
<trkpt lat="46.429250193759799" lon="7.036398081108928"><ele></ele><time>2013-9-9T15:13:38Z</time></trkpt>
<trkpt lat="46.429044418036938" lon="7.036347286775708"><ele></ele><time>2013-9-9T15:13:41Z</time></trkpt>
<trkpt lat="46.428959425538778" lon="7.036315854638815"><ele></ele><time>2013-9-9T15:13:44Z</time></trkpt>
<trkpt lat="46.428933190181851" lon="7.03630143776536"><ele></ele><time>2013-9-9T15:13:47Z</time></trkpt>
<trkpt lat="46.428903434425592" lon="7.036292972043157"><ele></ele><time>2013-9-9T15:13:50Z</time></trkpt>
<trkpt lat="46.428870325908065" lon="7.036284673959017"><ele></ele><time>2013-9-9T15:13:53Z</time></trkpt>
<trkpt lat="46.428835457190871" lon="7.036277716979384"><ele></ele><time>2013-9-9T15:13:56Z</time></trkpt>
<trkpt lat="46.428636219352484" lon="7.036229856312275"><ele></ele><time>2013-9-9T15:13:59Z</time></trkpt>
<trkpt lat="46.428437819704413" lon="7.036178056150675"><ele></ele><time>2013-9-9T15:14:2Z</time></trkpt>
<trkpt lat="46.428401609882712" lon="7.036165231838822"><ele></ele><time>2013-9-9T15:14:5Z</time></trkpt>
<trkpt lat="46.428368585184216" lon="7.036149306222796"><ele></ele><time>2013-9-9T15:14:8Z</time></trkpt>
<trkpt lat="46.428340757265687" lon="7.036129357293248"><ele></ele><time>2013-9-9T15:14:11Z</time></trkpt>
<trkpt lat="46.428189212456346" lon="7.036090213805437"><ele></ele><time>2013-9-9T15:14:14Z</time></trkpt>
<trkpt lat="46.428164653480053" lon="7.036102786660194"><ele></ele><time>2013-9-9T15:14:17Z</time></trkpt>
<trkpt lat="46.428134646266699" lon="7.036111252382398"><ele></ele><time>2013-9-9T15:14:20Z</time></trkpt>
<trkpt lat="46.428104303777218" lon="7.036127177998424"><ele></ele><time>2013-9-9T15:14:23Z</time></trkpt>
<trkpt lat="46.4280741289258" lon="7.036149054765701"><ele></ele><time>2013-9-9T15:14:26Z</time></trkpt>
<trkpt lat="46.4280447922647" lon="7.036169925704598"><ele></ele><time>2013-9-9T15:14:29Z</time></trkpt>
<trkpt lat="46.427986538037658" lon="7.036234801635146"><ele></ele><time>2013-9-9T15:14:32Z</time></trkpt>
<trkpt lat="46.427975809201598" lon="7.036301102489233"><ele></ele><time>2013-9-9T15:14:35Z</time></trkpt>
<trkpt lat="46.427972707897425" lon="7.036334965378046"><ele></ele><time>2013-9-9T15:14:38Z</time></trkpt>
<trkpt lat="46.427976479753852" lon="7.03636690042913"><ele></ele><time>2013-9-9T15:14:41Z</time></trkpt>
<trkpt lat="46.427977904677391" lon="7.036409312859178"><ele></ele><time>2013-9-9T15:14:44Z</time></trkpt>
<trkpt lat="46.427983017638326" lon="7.036435632035136"><ele></ele><time>2013-9-9T15:14:47Z</time></trkpt>
<trkpt lat="46.427988633513451" lon="7.036504279822111"><ele></ele><time>2013-9-9T15:14:50Z</time></trkpt>
<trkpt lat="46.428003637120128" lon="7.036590781062841"><ele></ele><time>2013-9-9T15:14:53Z</time></trkpt>
<trkpt lat="46.428002547472715" lon="7.036642162129283"><ele></ele><time>2013-9-9T15:14:56Z</time></trkpt>
<trkpt lat="46.428042277693748" lon="7.036834694445133"><ele></ele><time>2013-9-9T15:14:59Z</time></trkpt>
<trkpt lat="46.428059209138155" lon="7.036902755498886"><ele></ele><time>2013-9-9T15:15:2Z</time></trkpt>
<trkpt lat="46.428061639890075" lon="7.036937037482858"><ele></ele><time>2013-9-9T15:15:5Z</time></trkpt>
<trkpt lat="46.428060717880726" lon="7.036964362487197"><ele></ele><time>2013-9-9T15:15:8Z</time></trkpt>
<trkpt lat="46.428064573556185" lon="7.036992944777012"><ele></ele><time>2013-9-9T15:15:11Z</time></trkpt>
<trkpt lat="46.42806775867939" lon="7.037022029981017"><ele></ele><time>2013-9-9T15:15:14Z</time></trkpt>
<trkpt lat="46.428074464201927" lon="7.037048768252134"><ele></ele><time>2013-9-9T15:15:17Z</time></trkpt>
<trkpt lat="46.428088126704097" lon="7.037132252007723"><ele></ele><time>2013-9-9T15:15:20Z</time></trkpt>
<trkpt lat="46.428091814741492" lon="7.037241049110889"><ele></ele><time>2013-9-9T15:15:23Z</time></trkpt>
<trkpt lat="46.428099693730474" lon="7.037270553410053"><ele></ele><time>2013-9-9T15:15:26Z</time></trkpt>
<trkpt lat="46.42810782417655" lon="7.037299890071154"><ele></ele><time>2013-9-9T15:15:29Z</time></trkpt>
<trkpt lat="46.428114948794246" lon="7.037330064922571"><ele></ele><time>2013-9-9T15:15:32Z</time></trkpt>
<trkpt lat="46.428124252706766" lon="7.037354707717896"><ele></ele><time>2013-9-9T15:15:35Z</time></trkpt>
<trkpt lat="46.428126096725464" lon="7.037382116541266"><ele></ele><time>2013-9-9T15:15:38Z</time></trkpt>
<trkpt lat="46.428127437829971" lon="7.037417404353619"><ele></ele><time>2013-9-9T15:15:41Z</time></trkpt>
<trkpt lat="46.428158534690738" lon="7.037626281380653"><ele></ele><time>2013-9-9T15:15:44Z</time></trkpt>
<trkpt lat="46.428172616288066" lon="7.037690738216043"><ele></ele><time>2013-9-9T15:15:47Z</time></trkpt>
<trkpt lat="46.428175969049335" lon="7.037724517285824"><ele></ele><time>2013-9-9T15:15:50Z</time></trkpt>
<trkpt lat="46.428172867745161" lon="7.037760056555271"><ele></ele><time>2013-9-9T15:15:53Z</time></trkpt>
<trkpt lat="46.428172951564193" lon="7.037792159244418"><ele></ele><time>2013-9-9T15:15:56Z</time></trkpt>
<trkpt lat="46.428175633773208" lon="7.037824681028724"><ele></ele><time>2013-9-9T15:15:59Z</time></trkpt>
<trkpt lat="46.428178735077381" lon="7.037885282188654"><ele></ele><time>2013-9-9T15:16:2Z</time></trkpt>
<trkpt lat="46.428179405629635" lon="7.038092901930213"><ele></ele><time>2013-9-9T15:16:5Z</time></trkpt>
<trkpt lat="46.428182171657681" lon="7.038124250248075"><ele></ele><time>2013-9-9T15:16:8Z</time></trkpt>
<trkpt lat="46.428186614066362" lon="7.038157442584634"><ele></ele><time>2013-9-9T15:16:11Z</time></trkpt>
<trkpt lat="46.428189883008599" lon="7.03818560577929"><ele></ele><time>2013-9-9T15:16:14Z</time></trkpt>
<trkpt lat="46.42819189466536" lon="7.03821879811585"><ele></ele><time>2013-9-9T15:16:17Z</time></trkpt>
<trkpt lat="46.428188374266028" lon="7.038324242457748"><ele></ele><time>2013-9-9T15:16:20Z</time></trkpt>
<trkpt lat="46.428144117817283" lon="7.038525575771928"><ele></ele><time>2013-9-9T15:16:23Z</time></trkpt>
<trkpt lat="46.428137412294745" lon="7.038567485287786"><ele></ele><time>2013-9-9T15:16:26Z</time></trkpt>
<trkpt lat="46.428121570497751" lon="7.038601767271757"><ele></ele><time>2013-9-9T15:16:29Z</time></trkpt>
<trkpt lat="46.428108075633645" lon="7.038623811677098"><ele></ele><time>2013-9-9T15:16:32Z</time></trkpt>
<trkpt lat="46.428101621568203" lon="7.038665721192956"><ele></ele><time>2013-9-9T15:16:35Z</time></trkpt>
<trkpt lat="46.428095670416951" lon="7.038700338453054"><ele></ele><time>2013-9-9T15:16:38Z</time></trkpt>
<trkpt lat="46.428069937974215" lon="7.038897061720491"><ele></ele><time>2013-9-9T15:16:41Z</time></trkpt>
<trkpt lat="46.428013863041997" lon="7.039187243208289"><ele></ele><time>2013-9-9T15:16:44Z</time></trkpt>
<trkpt lat="46.427911603823304" lon="7.039436437189579"><ele></ele><time>2013-9-9T15:16:47Z</time></trkpt>
<trkpt lat="46.427825856953859" lon="7.039781184867024"><ele></ele><time>2013-9-9T15:16:50Z</time></trkpt>
<trkpt lat="46.427776236087084" lon="7.039932897314429"><ele></ele><time>2013-9-9T15:16:53Z</time></trkpt>
<trkpt lat="46.427720077335835" lon="7.0402314607054"><ele></ele><time>2013-9-9T15:16:56Z</time></trkpt>
<trkpt lat="46.426823884248734" lon="7.04262575134635"><ele></ele><time>2013-9-9T15:16:59Z</time></trkpt>
<trkpt lat="46.426807539537549" lon="7.042661961168051"><ele></ele><time>2013-9-9T15:17:2Z</time></trkpt>
<trkpt lat="46.426807539537549" lon="7.042661961168051"><ele></ele><time>2013-9-9T15:17:5Z</time></trkpt>
<trkpt lat="46.426628082990646" lon="7.042892295867205"><ele></ele><time>2013-9-9T15:17:8Z</time></trkpt>
<trkpt lat="46.426522973924875" lon="7.04306211322546"><ele></ele><time>2013-9-9T15:17:11Z</time></trkpt>
<trkpt lat="46.426506210118532" lon="7.043098071590066"><ele></ele><time>2013-9-9T15:17:14Z</time></trkpt>
<trkpt lat="46.426491960883141" lon="7.043139897286892"><ele></ele><time>2013-9-9T15:17:17Z</time></trkpt>
<trkpt lat="46.42647972330451" lon="7.043183399364352"><ele></ele><time>2013-9-9T15:17:20Z</time></trkpt>
<trkpt lat="46.426489446312189" lon="7.043400993570685"><ele></ele><time>2013-9-9T15:17:23Z</time></trkpt>
<trkpt lat="46.42653345130384" lon="7.043515909463167"><ele></ele><time>2013-9-9T15:17:26Z</time></trkpt>
<trkpt lat="46.426548454910517" lon="7.043545162305236"><ele></ele><time>2013-9-9T15:17:29Z</time></trkpt>
<trkpt lat="46.426560608670115" lon="7.04356980510056"><ele></ele><time>2013-9-9T15:17:32Z</time></trkpt>
<trkpt lat="46.426564380526543" lon="7.043598806485534"><ele></ele><time>2013-9-9T15:17:35Z</time></trkpt>
<trkpt lat="46.426565302535892" lon="7.043623700737953"><ele></ele><time>2013-9-9T15:17:38Z</time></trkpt>
<trkpt lat="46.426567230373621" lon="7.043683212250471"><ele></ele><time>2013-9-9T15:17:41Z</time></trkpt>
<trkpt lat="46.426585083827376" lon="7.043705005198717"><ele></ele><time>2013-9-9T15:17:44Z</time></trkpt>
<trkpt lat="46.426705699414015" lon="7.043602662160993"><ele></ele><time>2013-9-9T15:17:47Z</time></trkpt>
<trkpt lat="46.426761522889137" lon="7.043696539476514"><ele></ele><time>2013-9-9T15:17:50Z</time></trkpt>
<trkpt lat="46.426776275038719" lon="7.04371196217835"><ele></ele><time>2013-9-9T15:17:53Z</time></trkpt>
<trkpt lat="46.426819860935211" lon="7.043830649927259"><ele></ele><time>2013-9-9T15:17:56Z</time></trkpt>
<trkpt lat="46.426882725208998" lon="7.044030306860805"><ele></ele><time>2013-9-9T15:17:59Z</time></trkpt>
<trkpt lat="46.426892196759582" lon="7.044058972969651"><ele></ele><time>2013-9-9T15:18:2Z</time></trkpt>
<trkpt lat="46.426905021071434" lon="7.044085459783673"><ele></ele><time>2013-9-9T15:18:5Z</time></trkpt>
<trkpt lat="46.426913319155574" lon="7.044113287702203"><ele></ele><time>2013-9-9T15:18:8Z</time></trkpt>
<trkpt lat="46.426922203972936" lon="7.044141869992018"><ele></ele><time>2013-9-9T15:18:11Z</time></trkpt>
<trkpt lat="46.42697224393487" lon="7.044243793934584"><ele></ele><time>2013-9-9T15:18:14Z</time></trkpt>
<trkpt lat="46.42699764110148" lon="7.044281763955951"><ele></ele><time>2013-9-9T15:18:17Z</time></trkpt>
<trkpt lat="46.427010213956237" lon="7.044306742027402"><ele></ele><time>2013-9-9T15:18:20Z</time></trkpt>
<trkpt lat="46.427021948620677" lon="7.044333396479487"><ele></ele><time>2013-9-9T15:18:23Z</time></trkpt>
<trkpt lat="46.427034772932529" lon="7.044358793646097"><ele></ele><time>2013-9-9T15:18:26Z</time></trkpt>
<trkpt lat="46.427045334130526" lon="7.044388046488166"><ele></ele><time>2013-9-9T15:18:29Z</time></trkpt>
<trkpt lat="46.42706754617393" lon="7.044434146955609"><ele></ele><time>2013-9-9T15:18:32Z</time></trkpt>
<trkpt lat="46.427163016051054" lon="7.044583847746253"><ele></ele><time>2013-9-9T15:18:35Z</time></trkpt>
<trkpt lat="46.427198890596628" lon="7.044652746990323"><ele></ele><time>2013-9-9T15:18:38Z</time></trkpt>
<trkpt lat="46.42720484174788" lon="7.044677305966616"><ele></ele><time>2013-9-9T15:18:41Z</time></trkpt>
<trkpt lat="46.427214397117496" lon="7.044698596000671"><ele></ele><time>2013-9-9T15:18:44Z</time></trkpt>
<trkpt lat="46.427223784849048" lon="7.044725334271789"><ele></ele><time>2013-9-9T15:18:47Z</time></trkpt>
<trkpt lat="46.427234681323171" lon="7.044747546315193"><ele></ele><time>2013-9-9T15:18:50Z</time></trkpt>
<trkpt lat="46.427323529496789" lon="7.044953741133213"><ele></ele><time>2013-9-9T15:18:53Z</time></trkpt>
<trkpt lat="46.42733140848577" lon="7.044978635385633"><ele></ele><time>2013-9-9T15:18:56Z</time></trkpt>
<trkpt lat="46.427342053502798" lon="7.045000260695815"><ele></ele><time>2013-9-9T15:18:59Z</time></trkpt>
<trkpt lat="46.427352111786604" lon="7.04502297565341"><ele></ele><time>2013-9-9T15:19:2Z</time></trkpt>
<trkpt lat="46.42736217007041" lon="7.045047450810671"><ele></ele><time>2013-9-9T15:19:5Z</time></trkpt>
<trkpt lat="46.427371222525835" lon="7.045073518529534"><ele></ele><time>2013-9-9T15:19:8Z</time></trkpt>
<trkpt lat="46.427381616085768" lon="7.045130096375942"><ele></ele><time>2013-9-9T15:19:11Z</time></trkpt>
<trkpt lat="46.427427800372243" lon="7.045276276767254"><ele></ele><time>2013-9-9T15:19:14Z</time></trkpt>
<trkpt lat="46.42743743956089" lon="7.045294297859073"><ele></ele><time>2013-9-9T15:19:17Z</time></trkpt>
<trkpt lat="46.427448503673077" lon="7.045311313122511"><ele></ele><time>2013-9-9T15:19:20Z</time></trkpt>
<trkpt lat="46.427458897233009" lon="7.045328579843044"><ele></ele><time>2013-9-9T15:19:23Z</time></trkpt>
<trkpt lat="46.427471889182925" lon="7.04534936696291"><ele></ele><time>2013-9-9T15:19:26Z</time></trkpt>
<trkpt lat="46.427533160895109" lon="7.045460510998964"><ele></ele><time>2013-9-9T15:19:29Z</time></trkpt>
<trkpt lat="46.427598120644689" lon="7.045551119372249"><ele></ele><time>2013-9-9T15:19:32Z</time></trkpt>
<trkpt lat="46.427611280232668" lon="7.045570900663734"><ele></ele><time>2013-9-9T15:19:35Z</time></trkpt>
<trkpt lat="46.427622931078076" lon="7.045593112707138"><ele></ele><time>2013-9-9T15:19:38Z</time></trkpt>
<trkpt lat="46.427636090666056" lon="7.04561666585505"><ele></ele><time>2013-9-9T15:19:41Z</time></trkpt>
<trkpt lat="46.427646735683084" lon="7.045640554279089"><ele></ele><time>2013-9-9T15:19:44Z</time></trkpt>
<trkpt lat="46.427701804786921" lon="7.045753374695778"><ele></ele><time>2013-9-9T15:19:47Z</time></trkpt>
<trkpt lat="46.427722508087754" lon="7.045803749933839"><ele></ele><time>2013-9-9T15:19:50Z</time></trkpt>
<trkpt lat="46.42774622887373" lon="7.045879019424319"><ele></ele><time>2013-9-9T15:19:53Z</time></trkpt>
<trkpt lat="46.427756370976567" lon="7.045904584228993"><ele></ele><time>2013-9-9T15:19:56Z</time></trkpt>
<trkpt lat="46.427766513079405" lon="7.045928053557873"><ele></ele><time>2013-9-9T15:19:59Z</time></trkpt>
<trkpt lat="46.427773302420974" lon="7.045954372733831"><ele></ele><time>2013-9-9T15:20:2Z</time></trkpt>
<trkpt lat="46.427834322676063" lon="7.046139445155859"><ele></ele><time>2013-9-9T15:20:5Z</time></trkpt>
<trkpt lat="46.427864748984575" lon="7.046220917254686"><ele></ele><time>2013-9-9T15:20:8Z</time></trkpt>
<trkpt lat="46.427875058725476" lon="7.046248158439994"><ele></ele><time>2013-9-9T15:20:11Z</time></trkpt>
<trkpt lat="46.427886541932821" lon="7.04627632163465"><ele></ele><time>2013-9-9T15:20:14Z</time></trkpt>
<trkpt lat="46.427898276597261" lon="7.046301634982228"><ele></ele><time>2013-9-9T15:20:17Z</time></trkpt>
<trkpt lat="46.427910011261702" lon="7.04632518813014"><ele></ele><time>2013-9-9T15:20:20Z</time></trkpt>
<trkpt lat="46.427923254668713" lon="7.046347986906767"><ele></ele><time>2013-9-9T15:20:23Z</time></trkpt>
<trkpt lat="46.427984107285738" lon="7.04649374820292"><ele></ele><time>2013-9-9T15:20:26Z</time></trkpt>
<trkpt lat="46.427988549694419" lon="7.046529119834304"><ele></ele><time>2013-9-9T15:20:29Z</time></trkpt>
<trkpt lat="46.42799399793148" lon="7.046565832570195"><ele></ele><time>2013-9-9T15:20:32Z</time></trkpt>
<trkpt lat="46.42799542285502" lon="7.046612100675702"><ele></ele><time>2013-9-9T15:20:35Z</time></trkpt>
<trkpt lat="46.428021155297756" lon="7.046817792579532"><ele></ele><time>2013-9-9T15:20:38Z</time></trkpt>
<trkpt lat="46.428183345124125" lon="7.047094479203224"><ele></ele><time>2013-9-9T15:20:41Z</time></trkpt>
<trkpt lat="46.428183345124125" lon="7.047094479203224"><ele></ele><time>2013-9-9T15:20:44Z</time></trkpt>
<trkpt lat="46.428291136398911" lon="7.047339230775833"><ele></ele><time>2013-9-9T15:20:47Z</time></trkpt>
<trkpt lat="46.428395742550492" lon="7.047681044787169"><ele></ele><time>2013-9-9T15:20:50Z</time></trkpt>
<trkpt lat="46.428505796939135" lon="7.048012046143413"><ele></ele><time>2013-9-9T15:20:53Z</time></trkpt>
<trkpt lat="46.428632279857993" lon="7.048488222062588"><ele></ele><time>2013-9-9T15:20:56Z</time></trkpt>
<trkpt lat="46.428736634552479" lon="7.048727860674262"><ele></ele><time>2013-9-9T15:20:59Z</time></trkpt>
<trkpt lat="46.428801426663995" lon="7.048879992216826"><ele></ele><time>2013-9-9T15:21:2Z</time></trkpt>
<trkpt lat="46.428820369765162" lon="7.048918465152383"><ele></ele><time>2013-9-9T15:21:5Z</time></trkpt>
<trkpt lat="46.428966801613569" lon="7.049240916967392"><ele></ele><time>2013-9-9T15:21:8Z</time></trkpt>
<trkpt lat="46.429034359753132" lon="7.049392629414797"><ele></ele><time>2013-9-9T15:21:11Z</time></trkpt>
<trkpt lat="46.42905774526298" lon="7.04942406155169"><ele></ele><time>2013-9-9T15:21:14Z</time></trkpt>
<trkpt lat="46.429073922336102" lon="7.04946362413466"><ele></ele><time>2013-9-9T15:21:17Z</time></trkpt>
<trkpt lat="46.429089764133096" lon="7.0495012588799"><ele></ele><time>2013-9-9T15:21:20Z</time></trkpt>
<trkpt lat="46.429107449948788" lon="7.04953839071095"><ele></ele><time>2013-9-9T15:21:23Z</time></trkpt>
<trkpt lat="46.429127985611558" lon="7.049573175609112"><ele></ele><time>2013-9-9T15:21:26Z</time></trkpt>
<trkpt lat="46.429248433560133" lon="7.049822537228465"><ele></ele><time>2013-9-9T15:21:29Z</time></trkpt>
<trkpt lat="46.429251115769148" lon="7.049900321289897"><ele></ele><time>2013-9-9T15:21:32Z</time></trkpt>
<trkpt lat="46.429217252880335" lon="7.049944996833801"><ele></ele><time>2013-9-9T15:21:35Z</time></trkpt>
<trkpt lat="46.429081801325083" lon="7.050026217475534"><ele></ele><time>2013-9-9T15:21:38Z</time></trkpt>
<trkpt lat="46.42903720960021" lon="7.05005538649857"><ele></ele><time>2013-9-9T15:21:41Z</time></trkpt>
<trkpt lat="46.428791116923094" lon="7.050228221341968"><ele></ele><time>2013-9-9T15:21:44Z</time></trkpt>
<trkpt lat="46.428757337853312" lon="7.050258396193385"><ele></ele><time>2013-9-9T15:21:47Z</time></trkpt>
<trkpt lat="46.428730515763164" lon="7.050288990139961"><ele></ele><time>2013-9-9T15:21:50Z</time></trkpt>
<trkpt lat="46.428703609853983" lon="7.050318913534284"><ele></ele><time>2013-9-9T15:21:53Z</time></trkpt>
<trkpt lat="46.428671423345804" lon="7.050348250195384"><ele></ele><time>2013-9-9T15:21:56Z</time></trkpt>
<trkpt lat="46.428597578778863" lon="7.050437182188034"><ele></ele><time>2013-9-9T15:21:59Z</time></trkpt>
<trkpt lat="46.428426252678037" lon="7.050657542422414"><ele></ele><time>2013-9-9T15:22:2Z</time></trkpt>
<trkpt lat="46.428403034806252" lon="7.050683526322246"><ele></ele><time>2013-9-9T15:22:5Z</time></trkpt>
<trkpt lat="46.428380571305752" lon="7.050714204087853"><ele></ele><time>2013-9-9T15:22:8Z</time></trkpt>
<trkpt lat="46.428356766700745" lon="7.050740104168654"><ele></ele><time>2013-9-9T15:22:11Z</time></trkpt>
<trkpt lat="46.428329609334469" lon="7.050772374495864"><ele></ele><time>2013-9-9T15:22:14Z</time></trkpt>
<trkpt lat="46.428249729797244" lon="7.050875136628747"><ele></ele><time>2013-9-9T15:22:17Z</time></trkpt>
<trkpt lat="46.428123917430639" lon="7.051021568477154"><ele></ele><time>2013-9-9T15:22:20Z</time></trkpt>
<trkpt lat="46.42797002568841" lon="7.051320802420378"><ele></ele><time>2013-9-9T15:22:23Z</time></trkpt>
<trkpt lat="46.427858378738165" lon="7.051586676388979"><ele></ele><time>2013-9-9T15:22:26Z</time></trkpt>
<trkpt lat="46.427778750658035" lon="7.051818100735545"><ele></ele><time>2013-9-9T15:22:29Z</time></trkpt>
<trkpt lat="46.427663750946522" lon="7.052077604457736"><ele></ele><time>2013-9-9T15:22:32Z</time></trkpt>
<trkpt lat="46.427618907764554" lon="7.05227424390614"><ele></ele><time>2013-9-9T15:22:35Z</time></trkpt>
<trkpt lat="46.427650088444352" lon="7.052530227228999"><ele></ele><time>2013-9-9T15:22:38Z</time></trkpt>
<trkpt lat="46.427709180861712" lon="7.052845638245344"><ele></ele><time>2013-9-9T15:22:41Z</time></trkpt>
<trkpt lat="46.427747989073396" lon="7.053013276308775"><ele></ele><time>2013-9-9T15:22:44Z</time></trkpt>
<trkpt lat="46.427785037085414" lon="7.053136490285397"><ele></ele><time>2013-9-9T15:22:47Z</time></trkpt>
<trkpt lat="46.427806159481406" lon="7.053203042596579"><ele></ele><time>2013-9-9T15:22:50Z</time></trkpt>
<trkpt lat="46.427827114239335" lon="7.053269427269697"><ele></ele><time>2013-9-9T15:22:53Z</time></trkpt>
<trkpt lat="46.427848404273391" lon="7.05333648249507"><ele></ele><time>2013-9-9T15:22:56Z</time></trkpt>
<trkpt lat="46.428036745637655" lon="7.053754739463329"><ele></ele><time>2013-9-9T15:22:59Z</time></trkpt>
<trkpt lat="46.428081337362528" lon="7.053813831880689"><ele></ele><time>2013-9-9T15:23:2Z</time></trkpt>
<trkpt lat="46.428200276568532" lon="7.053941069170833"><ele></ele><time>2013-9-9T15:23:5Z</time></trkpt>
<trkpt lat="46.428302451968193" lon="7.054119687527418"><ele></ele><time>2013-9-9T15:23:8Z</time></trkpt>
<trkpt lat="46.428310079500079" lon="7.054351447150111"><ele></ele><time>2013-9-9T15:23:11Z</time></trkpt>
<trkpt lat="46.428246712312102" lon="7.054541800171137"><ele></ele><time>2013-9-9T15:23:14Z</time></trkpt>
<trkpt lat="46.42821041867137" lon="7.054600976407528"><ele></ele><time>2013-9-9T15:23:17Z</time></trkpt>
<trkpt lat="46.428084690123796" lon="7.054764088243246"><ele></ele><time>2013-9-9T15:23:20Z</time></trkpt>
<trkpt lat="46.428009588271379" lon="7.054884620010853"><ele></ele><time>2013-9-9T15:23:23Z</time></trkpt>
<trkpt lat="46.427919650450349" lon="7.055130125954747"><ele></ele><time>2013-9-9T15:23:26Z</time></trkpt>
<trkpt lat="46.42789576202631" lon="7.055190140381455"><ele></ele><time>2013-9-9T15:23:29Z</time></trkpt>
<trkpt lat="46.427706917747855" lon="7.055550310760737"><ele></ele><time>2013-9-9T15:23:32Z</time></trkpt>
<trkpt lat="46.42767489887774" lon="7.055589035153389"><ele></ele><time>2013-9-9T15:23:35Z</time></trkpt>
<trkpt lat="46.427530478686094" lon="7.05570294521749"><ele></ele><time>2013-9-9T15:23:38Z</time></trkpt>
<trkpt lat="46.42738614231348" lon="7.055882569402456"><ele></ele><time>2013-9-9T15:23:41Z</time></trkpt>
<trkpt lat="46.427353033795953" lon="7.056050375103951"><ele></ele><time>2013-9-9T15:23:44Z</time></trkpt>
<trkpt lat="46.427353117614985" lon="7.056179707869887"><ele></ele><time>2013-9-9T15:23:47Z</time></trkpt>
<trkpt lat="46.427423609420657" lon="7.056714473292232"><ele></ele><time>2013-9-9T15:23:50Z</time></trkpt>
<trkpt lat="46.427541123703122" lon="7.057008761912584"><ele></ele><time>2013-9-9T15:23:53Z</time></trkpt>
<trkpt lat="46.427580518648028" lon="7.05708478577435"><ele></ele><time>2013-9-9T15:23:56Z</time></trkpt>
<trkpt lat="46.427712449803948" lon="7.057314533740282"><ele></ele><time>2013-9-9T15:23:59Z</time></trkpt>
<trkpt lat="46.427756957709789" lon="7.057392653077841"><ele></ele><time>2013-9-9T15:24:2Z</time></trkpt>
<trkpt lat="46.427904311567545" lon="7.057624496519566"><ele></ele><time>2013-9-9T15:24:5Z</time></trkpt>
<trkpt lat="46.427957033738494" lon="7.057706890627742"><ele></ele><time>2013-9-9T15:24:8Z</time></trkpt>
<trkpt lat="46.428012186661363" lon="7.057788027450442"><ele></ele><time>2013-9-9T15:24:11Z</time></trkpt>
<trkpt lat="46.428065914660692" lon="7.057871678844094"><ele></ele><time>2013-9-9T15:24:14Z</time></trkpt>
<trkpt lat="46.428120229393244" lon="7.05795893445611"><ele></ele><time>2013-9-9T15:24:17Z</time></trkpt>
<trkpt lat="46.428280491381884" lon="7.058225898072124"><ele></ele><time>2013-9-9T15:24:20Z</time></trkpt>
<trkpt lat="46.428334722295403" lon="7.058315416797996"><ele></ele><time>2013-9-9T15:24:23Z</time></trkpt>
<trkpt lat="46.428394401445985" lon="7.058407282456756"><ele></ele><time>2013-9-9T15:24:26Z</time></trkpt>
<trkpt lat="46.428453242406249" lon="7.058481043204665"><ele></ele><time>2013-9-9T15:24:29Z</time></trkpt>
<trkpt lat="46.42851778306067" lon="7.058531921356916"><ele></ele><time>2013-9-9T15:24:32Z</time></trkpt>
<trkpt lat="46.428637141361833" lon="7.058622445911169"><ele></ele><time>2013-9-9T15:24:35Z</time></trkpt>
<trkpt lat="46.42867905087769" lon="7.058679778128862"><ele></ele><time>2013-9-9T15:24:38Z</time></trkpt>
<trkpt lat="46.428738981485367" lon="7.058826880529523"><ele></ele><time>2013-9-9T15:24:41Z</time></trkpt>
<trkpt lat="46.428766474127769" lon="7.058979347348213"><ele></ele><time>2013-9-9T15:24:44Z</time></trkpt>
<trkpt lat="46.428836295381188" lon="7.05928998067975"><ele></ele><time>2013-9-9T15:24:47Z</time></trkpt>
<trkpt lat="46.428866805508733" lon="7.059357287362218"><ele></ele><time>2013-9-9T15:24:50Z</time></trkpt>
<trkpt lat="46.428973423317075" lon="7.059539426118136"><ele></ele><time>2013-9-9T15:24:53Z</time></trkpt>
<trkpt lat="46.429323786869645" lon="7.060093302279711"><ele></ele><time>2013-9-9T15:24:56Z</time></trkpt>
<trkpt lat="46.429656967520714" lon="7.060756897553802"><ele></ele><time>2013-9-9T15:24:59Z</time></trkpt>
<trkpt lat="46.429895181208849" lon="7.061254531145096"><ele></ele><time>2013-9-9T15:25:2Z</time></trkpt>
<trkpt lat="46.430017556995153" lon="7.061408506706357"><ele></ele><time>2013-9-9T15:25:5Z</time></trkpt>
<trkpt lat="46.430145129561424" lon="7.061565332114697"><ele></ele><time>2013-9-9T15:25:8Z</time></trkpt>
<trkpt lat="46.43043321557343" lon="7.061922987923026"><ele></ele><time>2013-9-9T15:25:11Z</time></trkpt>
<trkpt lat="46.430768994614482" lon="7.062384495511651"><ele></ele><time>2013-9-9T15:25:14Z</time></trkpt>
<trkpt lat="46.430847868323326" lon="7.062470493838191"><ele></ele><time>2013-9-9T15:25:17Z</time></trkpt>
<trkpt lat="46.430976530537009" lon="7.062562275677919"><ele></ele><time>2013-9-9T15:25:20Z</time></trkpt>
<trkpt lat="46.431190436705947" lon="7.062710300087929"><ele></ele><time>2013-9-9T15:25:23Z</time></trkpt>
<trkpt lat="46.431231508031487" lon="7.062761429697275"><ele></ele><time>2013-9-9T15:25:26Z</time></trkpt>
<trkpt lat="46.431297641247511" lon="7.062958907335997"><ele></ele><time>2013-9-9T15:25:29Z</time></trkpt>
<trkpt lat="46.43135086633265" lon="7.063100142404437"><ele></ele><time>2013-9-9T15:25:32Z</time></trkpt>
<trkpt lat="46.431449018418789" lon="7.063294434919953"><ele></ele><time>2013-9-9T15:25:35Z</time></trkpt>
<trkpt lat="46.431756298989058" lon="7.063791900873184"><ele></ele><time>2013-9-9T15:25:38Z</time></trkpt>
<trkpt lat="46.432065591216087" lon="7.064137989655137"><ele></ele><time>2013-9-9T15:25:41Z</time></trkpt>
<trkpt lat="46.432243371382356" lon="7.064287438988686"><ele></ele><time>2013-9-9T15:25:44Z</time></trkpt>
<trkpt lat="46.432335153222084" lon="7.06432088278234"><ele></ele><time>2013-9-9T15:25:47Z</time></trkpt>
<trkpt lat="46.432540426030755" lon="7.06438098102808"><ele></ele><time>2013-9-9T15:25:50Z</time></trkpt>
<trkpt lat="46.432638075202703" lon="7.064407551661134"><ele></ele><time>2013-9-9T15:25:53Z</time></trkpt>
<trkpt lat="46.432809485122561" lon="7.064426327124238"><ele></ele><time>2013-9-9T15:25:56Z</time></trkpt>
<trkpt lat="46.432837815955281" lon="7.064435547217727"><ele></ele><time>2013-9-9T15:25:59Z</time></trkpt>
<trkpt lat="46.432877629995346" lon="7.064461447298527"><ele></ele><time>2013-9-9T15:26:2Z</time></trkpt>
<trkpt lat="46.432918282225728" lon="7.064487347379327"><ele></ele><time>2013-9-9T15:26:5Z</time></trkpt>
<trkpt lat="46.432955414056778" lon="7.064519533887506"><ele></ele><time>2013-9-9T15:26:8Z</time></trkpt>
<trkpt lat="46.432990534231067" lon="7.064555743709207"><ele></ele><time>2013-9-9T15:26:11Z</time></trkpt>
<trkpt lat="46.433179546147585" lon="7.064761854708195"><ele></ele><time>2013-9-9T15:26:14Z</time></trkpt>
<trkpt lat="46.43321692943573" lon="7.06478850916028"><ele></ele><time>2013-9-9T15:26:17Z</time></trkpt>
<trkpt lat="46.433251043781638" lon="7.064813151955605"><ele></ele><time>2013-9-9T15:26:20Z</time></trkpt>
<trkpt lat="46.433287421241403" lon="7.064840393140912"><ele></ele><time>2013-9-9T15:26:23Z</time></trkpt>
<trkpt lat="46.433323966339231" lon="7.064867466688156"><ele></ele><time>2013-9-9T15:26:26Z</time></trkpt>
<trkpt lat="46.433396218344569" lon="7.064909376204014"><ele></ele><time>2013-9-9T15:26:29Z</time></trkpt>
<trkpt lat="46.433538543060422" lon="7.064996883273125"><ele></ele><time>2013-9-9T15:26:32Z</time></trkpt>
<trkpt lat="46.433571148663759" lon="7.065025214105845"><ele></ele><time>2013-9-9T15:26:35Z</time></trkpt>
<trkpt lat="46.433602580800653" lon="7.065061423927546"><ele></ele><time>2013-9-9T15:26:38Z</time></trkpt>
<trkpt lat="46.433627642691135" lon="7.065100818872452"><ele></ele><time>2013-9-9T15:26:41Z</time></trkpt>
<trkpt lat="46.43365329131484" lon="7.065148008987308"><ele></ele><time>2013-9-9T15:26:44Z</time></trkpt>
<trkpt lat="46.43370752222836" lon="7.065290501341224"><ele></ele><time>2013-9-9T15:26:47Z</time></trkpt>
<trkpt lat="46.433841045945883" lon="7.06565679050982"><ele></ele><time>2013-9-9T15:26:50Z</time></trkpt>
<trkpt lat="46.433864599093795" lon="7.065695263445377"><ele></ele><time>2013-9-9T15:26:53Z</time></trkpt>
<trkpt lat="46.433884967118502" lon="7.065738681703806"><ele></ele><time>2013-9-9T15:26:56Z</time></trkpt>
<trkpt lat="46.433903155848384" lon="7.065778328105807"><ele></ele><time>2013-9-9T15:26:59Z</time></trkpt>
<trkpt lat="46.433921931311488" lon="7.06582099199295"><ele></ele><time>2013-9-9T15:27:2Z</time></trkpt>
<trkpt lat="46.433978173881769" lon="7.065940098837018"><ele></ele><time>2013-9-9T15:27:5Z</time></trkpt>
<trkpt lat="46.43414824269712" lon="7.066195327788591"><ele></ele><time>2013-9-9T15:27:8Z</time></trkpt>
<trkpt lat="46.434253351762891" lon="7.066328348591924"><ele></ele><time>2013-9-9T15:27:11Z</time></trkpt>
<trkpt lat="46.434283023700118" lon="7.066361540928483"><ele></ele><time>2013-9-9T15:27:14Z</time></trkpt>
<trkpt lat="46.434308001771569" lon="7.066390290856361"><ele></ele><time>2013-9-9T15:27:17Z</time></trkpt>
<trkpt lat="46.434332728385925" lon="7.06642247736454"><ele></ele><time>2013-9-9T15:27:20Z</time></trkpt>
<trkpt lat="46.434360723942518" lon="7.066452233120799"><ele></ele><time>2013-9-9T15:27:23Z</time></trkpt>
<trkpt lat="46.43452350050211" lon="7.066661026328802"><ele></ele><time>2013-9-9T15:27:26Z</time></trkpt>
<trkpt lat="46.434542443603277" lon="7.066717939451337"><ele></ele><time>2013-9-9T15:27:29Z</time></trkpt>
<trkpt lat="46.434543700888753" lon="7.066741744056344"><ele></ele><time>2013-9-9T15:27:32Z</time></trkpt>
<trkpt lat="46.434528194367886" lon="7.066916842013598"><ele></ele><time>2013-9-9T15:27:35Z</time></trkpt>
<trkpt lat="46.434521740302444" lon="7.066962020471692"><ele></ele><time>2013-9-9T15:27:38Z</time></trkpt>
<trkpt lat="46.434519644826651" lon="7.067009462043643"><ele></ele><time>2013-9-9T15:27:41Z</time></trkpt>
<trkpt lat="46.434519225731492" lon="7.067062687128782"><ele></ele><time>2013-9-9T15:27:44Z</time></trkpt>
<trkpt lat="46.434518555179238" lon="7.067118762061"><ele></ele><time>2013-9-9T15:27:47Z</time></trkpt>
<trkpt lat="46.434503551572561" lon="7.067320598289371"><ele></ele><time>2013-9-9T15:27:50Z</time></trkpt>
<trkpt lat="46.434318479150534" lon="7.067735586315393"><ele></ele><time>2013-9-9T15:27:53Z</time></trkpt>
<trkpt lat="46.434318479150534" lon="7.067735586315393"><ele></ele><time>2013-9-9T15:27:56Z</time></trkpt>
<trkpt lat="46.434279335662723" lon="7.06774958409369"><ele></ele><time>2013-9-9T15:27:59Z</time></trkpt>
<trkpt lat="46.433945149183273" lon="7.067946558818221"><ele></ele><time>2013-9-9T15:28:2Z</time></trkpt>
<trkpt lat="46.433833418413997" lon="7.067917641252279"><ele></ele><time>2013-9-9T15:28:5Z</time></trkpt>
<trkpt lat="46.433794945478439" lon="7.067902889102697"><ele></ele><time>2013-9-9T15:28:8Z</time></trkpt>
<trkpt lat="46.433758148923516" lon="7.067891908809543"><ele></ele><time>2013-9-9T15:28:11Z</time></trkpt>
<trkpt lat="46.433611297979951" lon="7.067801048979163"><ele></ele><time>2013-9-9T15:28:14Z</time></trkpt>
<trkpt lat="46.433335952460766" lon="7.067622765898705"><ele></ele><time>2013-9-9T15:28:17Z</time></trkpt>
<trkpt lat="46.433265963569283" lon="7.067604325711727"><ele></ele><time>2013-9-9T15:28:20Z</time></trkpt>
<trkpt lat="46.433265460655093" lon="7.067601308226585"><ele></ele><time>2013-9-9T15:28:23Z</time></trkpt>
<trkpt lat="46.43323159776628" lon="7.067557303234935"><ele></ele><time>2013-9-9T15:28:26Z</time></trkpt>
<trkpt lat="46.433155992999673" lon="7.067503659054637"><ele></ele><time>2013-9-9T15:28:29Z</time></trkpt>
<trkpt lat="46.432892885059118" lon="7.067342894151807"><ele></ele><time>2013-9-9T15:28:32Z</time></trkpt>
<trkpt lat="46.432517124339938" lon="7.06720182672143"><ele></ele><time>2013-9-9T15:28:35Z</time></trkpt>
<trkpt lat="46.432314198464155" lon="7.067133178934455"><ele></ele><time>2013-9-9T15:28:38Z</time></trkpt>
<trkpt lat="46.432271283119917" lon="7.067114235833287"><ele></ele><time>2013-9-9T15:28:41Z</time></trkpt>
<trkpt lat="46.432226691395044" lon="7.067093197256327"><ele></ele><time>2013-9-9T15:28:44Z</time></trkpt>
<trkpt lat="46.432181345298886" lon="7.067072074860334"><ele></ele><time>2013-9-9T15:28:47Z</time></trkpt>
<trkpt lat="46.432137675583363" lon="7.067050701007247"><ele></ele><time>2013-9-9T15:28:50Z</time></trkpt>
<trkpt lat="46.432090401649475" lon="7.067020107060671"><ele></ele><time>2013-9-9T15:28:53Z</time></trkpt>
<trkpt lat="46.431535687297583" lon="7.066816845908761"><ele></ele><time>2013-9-9T15:28:56Z</time></trkpt>
<trkpt lat="46.43148866482079" lon="7.066801339387894"><ele></ele><time>2013-9-9T15:28:59Z</time></trkpt>
<trkpt lat="46.431366289034486" lon="7.066763285547495"><ele></ele><time>2013-9-9T15:29:2Z</time></trkpt>
<trkpt lat="46.431325385347009" lon="7.066754149273038"><ele></ele><time>2013-9-9T15:29:5Z</time></trkpt>
<trkpt lat="46.431286577135324" lon="7.066744342446327"><ele></ele><time>2013-9-9T15:29:8Z</time></trkpt>
<trkpt lat="46.431247852742672" lon="7.066735709086061"><ele></ele><time>2013-9-9T15:29:11Z</time></trkpt>
<trkpt lat="46.431205859407783" lon="7.066725650802255"><ele></ele><time>2013-9-9T15:29:14Z</time></trkpt>
<trkpt lat="46.431000251322985" lon="7.066683154553175"><ele></ele><time>2013-9-9T15:29:17Z</time></trkpt>
<trkpt lat="46.43083387054503" lon="7.066664043813944"><ele></ele><time>2013-9-9T15:29:20Z</time></trkpt>
<trkpt lat="46.430784920230508" lon="7.066659349948168"><ele></ele><time>2013-9-9T15:29:23Z</time></trkpt>
<trkpt lat="46.430731946602464" lon="7.066661948338151"><ele></ele><time>2013-9-9T15:29:26Z</time></trkpt>
<trkpt lat="46.430683080106974" lon="7.066661445423961"><ele></ele><time>2013-9-9T15:29:29Z</time></trkpt>
<trkpt lat="46.43063748255372" lon="7.066660691052675"><ele></ele><time>2013-9-9T15:29:32Z</time></trkpt>
<trkpt lat="46.430519297719002" lon="7.066650716587901"><ele></ele><time>2013-9-9T15:29:35Z</time></trkpt>
<trkpt lat="46.430086540058255" lon="7.066633198410273"><ele></ele><time>2013-9-9T15:29:38Z</time></trkpt>
<trkpt lat="46.430057035759091" lon="7.06662917509675"><ele></ele><time>2013-9-9T15:29:41Z</time></trkpt>
<trkpt lat="46.430025938898325" lon="7.066629510372877"><ele></ele><time>2013-9-9T15:29:44Z</time></trkpt>
<trkpt lat="46.429995931684971" lon="7.066636634990573"><ele></ele><time>2013-9-9T15:29:47Z</time></trkpt>
<trkpt lat="46.429964248090982" lon="7.066649626940489"><ele></ele><time>2013-9-9T15:29:50Z</time></trkpt>
<trkpt lat="46.429860228672624" lon="7.066724561154842"><ele></ele><time>2013-9-9T15:29:53Z</time></trkpt>
<trkpt lat="46.42981605604291" lon="7.066827993839979"><ele></ele><time>2013-9-9T15:29:56Z</time></trkpt>
<trkpt lat="46.429816726595163" lon="7.066857162863016"><ele></ele><time>2013-9-9T15:29:59Z</time></trkpt>
<trkpt lat="46.429819827899337" lon="7.066877949982882"><ele></ele><time>2013-9-9T15:30:2Z</time></trkpt>
<trkpt lat="46.429820917546749" lon="7.066904017701745"><ele></ele><time>2013-9-9T15:30:5Z</time></trkpt>
<trkpt lat="46.429819744080305" lon="7.066929414868355"><ele></ele><time>2013-9-9T15:30:8Z</time></trkpt>
<trkpt lat="46.429844722151756" lon="7.067166790366173"><ele></ele><time>2013-9-9T15:30:11Z</time></trkpt>
<trkpt lat="46.429853271692991" lon="7.06736552529037"><ele></ele><time>2013-9-9T15:30:14Z</time></trkpt>
<trkpt lat="46.429871208965778" lon="7.067366447299719"><ele></ele><time>2013-9-9T15:30:17Z</time></trkpt>
<trkpt lat="46.429870203137398" lon="7.067292518913746"><ele></ele><time>2013-9-9T15:30:20Z</time></trkpt>
<trkpt lat="46.42987472936511" lon="7.067222194746137"><ele></ele><time>2013-9-9T15:30:23Z</time></trkpt>
<trkpt lat="46.429879758507013" lon="7.067145416513085"><ele></ele><time>2013-9-9T15:30:26Z</time></trkpt>
<trkpt lat="46.429877746850252" lon="7.066922038793564"><ele></ele><time>2013-9-9T15:30:29Z</time></trkpt>
<trkpt lat="46.429798454046249" lon="7.066615428775549"><ele></ele><time>2013-9-9T15:30:32Z</time></trkpt>
<trkpt lat="46.429641544818878" lon="7.066473355516791"><ele></ele><time>2013-9-9T15:30:35Z</time></trkpt>
<trkpt lat="46.429448593407869" lon="7.066348465159535"><ele></ele><time>2013-9-9T15:30:38Z</time></trkpt>
<trkpt lat="46.429406348615885" lon="7.066311584785581"><ele></ele><time>2013-9-9T15:30:41Z</time></trkpt>
<trkpt lat="46.429404588416219" lon="7.066317452117801"><ele></ele><time>2013-9-9T15:30:44Z</time></trkpt>
<trkpt lat="46.429393272846937" lon="7.066325917840004"><ele></ele><time>2013-9-9T15:30:47Z</time></trkpt>
<trkpt lat="46.429367875680327" lon="7.066304963082075"><ele></ele><time>2013-9-9T15:30:50Z</time></trkpt>
<trkpt lat="46.429339377209544" lon="7.066277386620641"><ele></ele><time>2013-9-9T15:30:53Z</time></trkpt>
<trkpt lat="46.429304592311382" lon="7.066248301416636"><ele></ele><time>2013-9-9T15:30:56Z</time></trkpt>
<trkpt lat="46.429265616461635" lon="7.066222904250026"><ele></ele><time>2013-9-9T15:30:59Z</time></trkpt>
<trkpt lat="46.429228568449616" lon="7.066209157928824"><ele></ele><time>2013-9-9T15:31:2Z</time></trkpt>
<trkpt lat="46.429197136312723" lon="7.066211001947522"><ele></ele><time>2013-9-9T15:31:5Z</time></trkpt>
<trkpt lat="46.429171403869987" lon="7.066226592287421"><ele></ele><time>2013-9-9T15:31:8Z</time></trkpt>
<trkpt lat="46.429145839065313" lon="7.066243859007955"><ele></ele><time>2013-9-9T15:31:11Z</time></trkpt>
<trkpt lat="46.429090602323413" lon="7.066254923120141"><ele></ele><time>2013-9-9T15:31:14Z</time></trkpt>
<trkpt lat="46.428996892645955" lon="7.066232794895768"><ele></ele><time>2013-9-9T15:31:17Z</time></trkpt>
<trkpt lat="46.429032934829593" lon="7.066232962533832"><ele></ele><time>2013-9-9T15:31:20Z</time></trkpt>
<trkpt lat="46.429127901792526" lon="7.066314686089754"><ele></ele><time>2013-9-9T15:31:23Z</time></trkpt>
<trkpt lat="46.429187413305044" lon="7.066589361056685"><ele></ele><time>2013-9-9T15:31:26Z</time></trkpt>
<trkpt lat="46.429204177111387" lon="7.066655997186899"><ele></ele><time>2013-9-9T15:31:29Z</time></trkpt>
<trkpt lat="46.429256731644273" lon="7.066888511180878"><ele></ele><time>2013-9-9T15:31:32Z</time></trkpt>
<trkpt lat="46.429272070527077" lon="7.066983561962843"><ele></ele><time>2013-9-9T15:31:35Z</time></trkpt>
<trkpt lat="46.429326636716723" lon="7.067331159487367"><ele></ele><time>2013-9-9T15:31:38Z</time></trkpt>
<trkpt lat="46.429358320310712" lon="7.067567948251963"><ele></ele><time>2013-9-9T15:31:41Z</time></trkpt>
<trkpt lat="46.429389417171478" lon="7.06782728433609"><ele></ele><time>2013-9-9T15:31:44Z</time></trkpt>
<trkpt lat="46.42940173856914" lon="7.067917138338089"><ele></ele><time>2013-9-9T15:31:47Z</time></trkpt>
<trkpt lat="46.429411461576819" lon="7.068004896864295"><ele></ele><time>2013-9-9T15:31:50Z</time></trkpt>
<trkpt lat="46.429410791024566" lon="7.068238165229559"><ele></ele><time>2013-9-9T15:31:53Z</time></trkpt>
<trkpt lat="46.429401654750109" lon="7.068294826894999"><ele></ele><time>2013-9-9T15:31:56Z</time></trkpt>
<trkpt lat="46.429332587867975" lon="7.068401109427214"><ele></ele><time>2013-9-9T15:31:59Z</time></trkpt>
<trkpt lat="46.429072497412562" lon="7.068644855171442"><ele></ele><time>2013-9-9T15:32:2Z</time></trkpt>
<trkpt lat="46.428966801613569" lon="7.068695481866598"><ele></ele><time>2013-9-9T15:32:5Z</time></trkpt>
<trkpt lat="46.428841492161155" lon="7.06871802918613"><ele></ele><time>2013-9-9T15:32:8Z</time></trkpt>
<trkpt lat="46.428746860474348" lon="7.068731859326363"><ele></ele><time>2013-9-9T15:32:11Z</time></trkpt>
<trkpt lat="46.42869321629405" lon="7.068736217916012"><ele></ele><time>2013-9-9T15:32:14Z</time></trkpt>
<trkpt lat="46.428641835227609" lon="7.068741833791137"><ele></ele><time>2013-9-9T15:32:17Z</time></trkpt>
<trkpt lat="46.4285559207201" lon="7.068746946752071"><ele></ele><time>2013-9-9T15:32:20Z</time></trkpt>
<trkpt lat="46.428514597937465" lon="7.068753819912672"><ele></ele><time>2013-9-9T15:32:23Z</time></trkpt>
<trkpt lat="46.428458690643311" lon="7.068765554577112"><ele></ele><time>2013-9-9T15:32:26Z</time></trkpt>
<trkpt lat="46.428397418931127" lon="7.068771338090301"><ele></ele><time>2013-9-9T15:32:29Z</time></trkpt>
<trkpt lat="46.428330615162849" lon="7.068776283413172"><ele></ele><time>2013-9-9T15:32:32Z</time></trkpt>
<trkpt lat="46.428254842758179" lon="7.068779971450567"><ele></ele><time>2013-9-9T15:32:35Z</time></trkpt>
<trkpt lat="46.428173622116446" lon="7.068794723600149"><ele></ele><time>2013-9-9T15:32:38Z</time></trkpt>
<trkpt lat="46.428094329312444" lon="7.068807715550065"><ele></ele><time>2013-9-9T15:32:41Z</time></trkpt>
<trkpt lat="46.428021574392915" lon="7.068819282576442"><ele></ele><time>2013-9-9T15:32:44Z</time></trkpt>
<trkpt lat="46.427955273538828" lon="7.068828502669931"><ele></ele><time>2013-9-9T15:32:47Z</time></trkpt>
<trkpt lat="46.427901796996593" lon="7.068833447992802"><ele></ele><time>2013-9-9T15:32:50Z</time></trkpt>
<trkpt lat="46.427862737327814" lon="7.068832442164421"><ele></ele><time>2013-9-9T15:32:53Z</time></trkpt>
<trkpt lat="46.427805488929152" lon="7.068826742470264"><ele></ele><time>2013-9-9T15:32:56Z</time></trkpt>
<trkpt lat="46.427785623818636" lon="7.068823724985123"><ele></ele><time>2013-9-9T15:32:59Z</time></trkpt>
<trkpt lat="46.427769111469388" lon="7.068820120766759"><ele></ele><time>2013-9-9T15:33:2Z</time></trkpt>
<trkpt lat="46.427758298814297" lon="7.068806877359748"><ele></ele><time>2013-9-9T15:33:5Z</time></trkpt>
<trkpt lat="46.427749330177903" lon="7.068788018077612"><ele></ele><time>2013-9-9T15:33:8Z</time></trkpt>
<trkpt lat="46.427755113691092" lon="7.068680226802826"><ele></ele><time>2013-9-9T15:33:11Z</time></trkpt>
<trkpt lat="46.427740612998605" lon="7.06844980828464"><ele></ele><time>2013-9-9T15:33:14Z</time></trkpt>
<trkpt lat="46.427778583019972" lon="7.068271692842245"><ele></ele><time>2013-9-9T15:33:17Z</time></trkpt>
<trkpt lat="46.427786629647017" lon="7.068238332867622"><ele></ele><time>2013-9-9T15:33:20Z</time></trkpt>
<trkpt lat="46.427656374871731" lon="7.068375460803509"><ele></ele><time>2013-9-9T15:33:23Z</time></trkpt>
<trkpt lat="46.427669450640678" lon="7.068410664796829"><ele></ele><time>2013-9-9T15:33:26Z</time></trkpt>
<trkpt lat="46.427809679880738" lon="7.068804446607828"><ele></ele><time>2013-9-9T15:33:29Z</time></trkpt>
<trkpt lat="46.427807249128819" lon="7.068853564560413"><ele></ele><time>2013-9-9T15:33:32Z</time></trkpt>
<trkpt lat="46.42778386361897" lon="7.06887686625123"><ele></ele><time>2013-9-9T15:33:35Z</time></trkpt>
<trkpt lat="46.427642544731498" lon="7.068925397470594"><ele></ele><time>2013-9-9T15:33:38Z</time></trkpt>
<trkpt lat="46.427430734038353" lon="7.068932773545384"><ele></ele><time>2013-9-9T15:33:41Z</time></trkpt>
<trkpt lat="46.427388656884432" lon="7.068942328915"><ele></ele><time>2013-9-9T15:33:44Z</time></trkpt>
<trkpt lat="46.427349764853716" lon="7.068952806293964"><ele></ele><time>2013-9-9T15:33:47Z</time></trkpt>
<trkpt lat="46.427313135936856" lon="7.06897309049964"><ele></ele><time>2013-9-9T15:33:50Z</time></trkpt>
<trkpt lat="46.427278267219663" lon="7.069000750780106"><ele></ele><time>2013-9-9T15:33:53Z</time></trkpt>
<trkpt lat="46.42721557058394" lon="7.069078031927347"><ele></ele><time>2013-9-9T15:33:56Z</time></trkpt>
<trkpt lat="46.427181540057063" lon="7.069124886766076"><ele></ele><time>2013-9-9T15:33:59Z</time></trkpt>
<trkpt lat="46.427150191739202" lon="7.069171825423837"><ele></ele><time>2013-9-9T15:34:2Z</time></trkpt>
<trkpt lat="46.427127560600638" lon="7.069211807101965"><ele></ele><time>2013-9-9T15:34:5Z</time></trkpt>
<trkpt lat="46.427054889500141" lon="7.069312641397119"><ele></ele><time>2013-9-9T15:34:8Z</time></trkpt>
<trkpt lat="46.426962101832032" lon="7.069456558674574"><ele></ele><time>2013-9-9T15:34:11Z</time></trkpt>
<trkpt lat="46.426939722150564" lon="7.069510286673904"><ele></ele><time>2013-9-9T15:34:14Z</time></trkpt>
<trkpt lat="46.426913486793637" lon="7.069572899490595"><ele></ele><time>2013-9-9T15:34:17Z</time></trkpt>
<trkpt lat="46.42688674852252" lon="7.069638445973396"><ele></ele><time>2013-9-9T15:34:20Z</time></trkpt>
<trkpt lat="46.426852131262422" lon="7.069712793454528"><ele></ele><time>2013-9-9T15:34:23Z</time></trkpt>
<trkpt lat="46.426818519830704" lon="7.069777920842171"><ele></ele><time>2013-9-9T15:34:26Z</time></trkpt>
<trkpt lat="46.426780801266432" lon="7.069844389334321"><ele></ele><time>2013-9-9T15:34:29Z</time></trkpt>
<trkpt lat="46.426742244511843" lon="7.069908594712615"><ele></ele><time>2013-9-9T15:34:32Z</time></trkpt>
<trkpt lat="46.426703687757254" lon="7.069978667423129"><ele></ele><time>2013-9-9T15:34:35Z</time></trkpt>
<trkpt lat="46.426664292812347" lon="7.070053685456514"><ele></ele><time>2013-9-9T15:34:38Z</time></trkpt>
<trkpt lat="46.426622215658426" lon="7.070131804794073"><ele></ele><time>2013-9-9T15:34:41Z</time></trkpt>
<trkpt lat="46.426578126847744" lon="7.07021277397871"><ele></ele><time>2013-9-9T15:34:44Z</time></trkpt>
<trkpt lat="46.426534624770284" lon="7.070292150601745"><ele></ele><time>2013-9-9T15:34:47Z</time></trkpt>
<trkpt lat="46.426492212340236" lon="7.070363648235798"><ele></ele><time>2013-9-9T15:34:50Z</time></trkpt>
<trkpt lat="46.426451727747917" lon="7.070428188890219"><ele></ele><time>2013-9-9T15:34:53Z</time></trkpt>
<trkpt lat="46.426407303661108" lon="7.070490466430783"><ele></ele><time>2013-9-9T15:34:56Z</time></trkpt>
<trkpt lat="46.426362041383982" lon="7.070544278249145"><ele></ele><time>2013-9-9T15:34:59Z</time></trkpt>
<trkpt lat="46.42626715824008" lon="7.070639412850142"><ele></ele><time>2013-9-9T15:35:2Z</time></trkpt>
<trkpt lat="46.426220303401351" lon="7.070683669298887"><ele></ele><time>2013-9-9T15:35:5Z</time></trkpt>
<trkpt lat="46.426175376400352" lon="7.070728093385696"><ele></ele><time>2013-9-9T15:35:8Z</time></trkpt>
<trkpt lat="46.426131036132574" lon="7.070776959881187"><ele></ele><time>2013-9-9T15:35:11Z</time></trkpt>
<trkpt lat="46.426090719178319" lon="7.070827670395374"><ele></ele><time>2013-9-9T15:35:14Z</time></trkpt>
<trkpt lat="46.426050569862127" lon="7.070880644023418"><ele></ele><time>2013-9-9T15:35:17Z</time></trkpt>
<trkpt lat="46.426009247079492" lon="7.070937221869826"><ele></ele><time>2013-9-9T15:35:20Z</time></trkpt>
<trkpt lat="46.425968259572983" lon="7.070999247953296"><ele></ele><time>2013-9-9T15:35:23Z</time></trkpt>
<trkpt lat="46.425928277894855" lon="7.071064123883843"><ele></ele><time>2013-9-9T15:35:26Z</time></trkpt>
<trkpt lat="46.425890894606709" lon="7.071132520213723"><ele></ele><time>2013-9-9T15:35:29Z</time></trkpt>
<trkpt lat="46.425851164385676" lon="7.071196222677827"><ele></ele><time>2013-9-9T15:35:32Z</time></trkpt>
<trkpt lat="46.425805231556296" lon="7.071251627057791"><ele></ele><time>2013-9-9T15:35:35Z</time></trkpt>
<trkpt lat="46.425754353404045" lon="7.071302924305201"><ele></ele><time>2013-9-9T15:35:38Z</time></trkpt>
<trkpt lat="46.425706576555967" lon="7.071350365877152"><ele></ele><time>2013-9-9T15:35:41Z</time></trkpt>
<trkpt lat="46.425658967345953" lon="7.071393197402358"><ele></ele><time>2013-9-9T15:35:44Z</time></trkpt>
<trkpt lat="46.425573723390698" lon="7.071480955928564"><ele></ele><time>2013-9-9T15:35:47Z</time></trkpt>
<trkpt lat="46.425502058118582" lon="7.071579862385988"><ele></ele><time>2013-9-9T15:35:50Z</time></trkpt>
<trkpt lat="46.425350429490209" lon="7.071838695555925"><ele></ele><time>2013-9-9T15:35:53Z</time></trkpt>
<trkpt lat="46.425322685390711" lon="7.071897452697158"><ele></ele><time>2013-9-9T15:35:56Z</time></trkpt>
<trkpt lat="46.425296533852816" lon="7.071955539286137"><ele></ele><time>2013-9-9T15:35:59Z</time></trkpt>
<trkpt lat="46.425271891057491" lon="7.072013458237052"><ele></ele><time>2013-9-9T15:36:2Z</time></trkpt>
<trkpt lat="46.425248337909579" lon="7.072073724120855"><ele></ele><time>2013-9-9T15:36:5Z</time></trkpt>
<trkpt lat="46.425235345959663" lon="7.072128709405661"><ele></ele><time>2013-9-9T15:36:8Z</time></trkpt>
<trkpt lat="46.425232496112585" lon="7.072180928662419"><ele></ele><time>2013-9-9T15:36:11Z</time></trkpt>
<trkpt lat="46.425244146957994" lon="7.072248738259077"><ele></ele><time>2013-9-9T15:36:14Z</time></trkpt>
<trkpt lat="46.425249092280865" lon="7.072307160124183"><ele></ele><time>2013-9-9T15:36:17Z</time></trkpt>
<trkpt lat="46.425324697047472" lon="7.072585942223668"><ele></ele><time>2013-9-9T15:36:20Z</time></trkpt>
<trkpt lat="46.425332324579358" lon="7.072672108188272"><ele></ele><time>2013-9-9T15:36:23Z</time></trkpt>
<trkpt lat="46.425312962383032" lon="7.072728015482426"><ele></ele><time>2013-9-9T15:36:26Z</time></trkpt>
<trkpt lat="46.425171559676528" lon="7.07298425026238"><ele></ele><time>2013-9-9T15:36:29Z</time></trkpt>
<trkpt lat="46.42510961741209" lon="7.073278455063701"><ele></ele><time>2013-9-9T15:36:32Z</time></trkpt>
<trkpt lat="46.425051782280207" lon="7.07376510836184"><ele></ele><time>2013-9-9T15:36:35Z</time></trkpt>
<trkpt lat="46.424988666549325" lon="7.074100887402892"><ele></ele><time>2013-9-9T15:36:38Z</time></trkpt>
<trkpt lat="46.424838127568364" lon="7.07414816133678"><ele></ele><time>2013-9-9T15:36:41Z</time></trkpt>
<trkpt lat="46.424680547788739" lon="7.074215551838279"><ele></ele><time>2013-9-9T15:36:44Z</time></trkpt>
<trkpt lat="46.42452665604651" lon="7.074473379179835"><ele></ele><time>2013-9-9T15:36:47Z</time></trkpt>
<trkpt lat="46.424334123730659" lon="7.074726428836584"><ele></ele><time>2013-9-9T15:36:50Z</time></trkpt>
<trkpt lat="46.424271930009127" lon="7.075017532333732"><ele></ele><time>2013-9-9T15:36:53Z</time></trkpt>
<trkpt lat="46.424253489822149" lon="7.075438974425197"><ele></ele><time>2013-9-9T15:36:56Z</time></trkpt>
<trkpt lat="46.424275953322649" lon="7.075926549732685"><ele></ele><time>2013-9-9T15:36:59Z</time></trkpt>
<trkpt lat="46.424252483993769" lon="7.076188484206796"><ele></ele><time>2013-9-9T15:37:2Z</time></trkpt>
<trkpt lat="46.424240246415138" lon="7.076221508905292"><ele></ele><time>2013-9-9T15:37:5Z</time></trkpt>
<trkpt lat="46.424227086827159" lon="7.076252354308963"><ele></ele><time>2013-9-9T15:37:8Z</time></trkpt>
<trkpt lat="46.424214346334338" lon="7.076284708455205"><ele></ele><time>2013-9-9T15:37:11Z</time></trkpt>
<trkpt lat="46.424201857298613" lon="7.076317062601447"><ele></ele><time>2013-9-9T15:37:14Z</time></trkpt>
<trkpt lat="46.424152236431837" lon="7.076501296833158"><ele></ele><time>2013-9-9T15:37:17Z</time></trkpt>
<trkpt lat="46.424143267795444" lon="7.076532393693924"><ele></ele><time>2013-9-9T15:37:20Z</time></trkpt>
<trkpt lat="46.424132119864225" lon="7.076563825830817"><ele></ele><time>2013-9-9T15:37:23Z</time></trkpt>
<trkpt lat="46.424116110429168" lon="7.076599448919296"><ele></ele><time>2013-9-9T15:37:26Z</time></trkpt>
<trkpt lat="46.424103118479252" lon="7.076636161655188"><ele></ele><time>2013-9-9T15:37:29Z</time></trkpt>
<trkpt lat="46.42402776516974" lon="7.076870184391737"><ele></ele><time>2013-9-9T15:37:32Z</time></trkpt>
<trkpt lat="46.423976719379425" lon="7.076936652883887"><ele></ele><time>2013-9-9T15:37:35Z</time></trkpt>
<trkpt lat="46.423838753253222" lon="7.077092472463846"><ele></ele><time>2013-9-9T15:37:38Z</time></trkpt>
<trkpt lat="46.423645801842213" lon="7.077384497970343"><ele></ele><time>2013-9-9T15:37:41Z</time></trkpt>
<trkpt lat="46.423583440482616" lon="7.077448535710573"><ele></ele><time>2013-9-9T15:37:44Z</time></trkpt>
<trkpt lat="46.42357187345624" lon="7.07743126899004"><ele></ele><time>2013-9-9T15:37:47Z</time></trkpt>
<trkpt lat="46.423560976982117" lon="7.077406877651811"><ele></ele><time>2013-9-9T15:37:50Z</time></trkpt>
<trkpt lat="46.423548571765423" lon="7.077383073046804"><ele></ele><time>2013-9-9T15:37:53Z</time></trkpt>
<trkpt lat="46.423535412177444" lon="7.077362788841128"><ele></ele><time>2013-9-9T15:37:56Z</time></trkpt>
<trkpt lat="46.423509679734707" lon="7.077272683382034"><ele></ele><time>2013-9-9T15:37:59Z</time></trkpt>
<trkpt lat="46.423446480184793" lon="7.077322136610746"><ele></ele><time>2013-9-9T15:38:2Z</time></trkpt>
<trkpt lat="46.423267861828208" lon="7.077487008646131"><ele></ele><time>2013-9-9T15:38:5Z</time></trkpt>
<trkpt lat="46.423110952600837" lon="7.07766973413527"><ele></ele><time>2013-9-9T15:38:8Z</time></trkpt>
<trkpt lat="46.423010285943747" lon="7.07786369137466"><ele></ele><time>2013-9-9T15:38:11Z</time></trkpt>
<trkpt lat="46.423006681725383" lon="7.077895123511553"><ele></ele><time>2013-9-9T15:38:14Z</time></trkpt>
<trkpt lat="46.423002993687987" lon="7.077922029420734"><ele></ele><time>2013-9-9T15:38:17Z</time></trkpt>
<trkpt lat="46.423011040315032" lon="7.07795019261539"><ele></ele><time>2013-9-9T15:38:20Z</time></trkpt>
<trkpt lat="46.423015650361776" lon="7.077979110181332"><ele></ele><time>2013-9-9T15:38:23Z</time></trkpt>
<trkpt lat="46.423040376976132" lon="7.078163763508201"><ele></ele><time>2013-9-9T15:38:26Z</time></trkpt>
<trkpt lat="46.423035431653261" lon="7.07819108851254"><ele></ele><time>2013-9-9T15:38:29Z</time></trkpt>
<trkpt lat="46.4230334199965" lon="7.078216066583991"><ele></ele><time>2013-9-9T15:38:32Z</time></trkpt>
<trkpt lat="46.423033755272627" lon="7.078241882845759"><ele></ele><time>2013-9-9T15:38:35Z</time></trkpt>
<trkpt lat="46.423036437481642" lon="7.078271387144923"><ele></ele><time>2013-9-9T15:38:38Z</time></trkpt>
<trkpt lat="46.423037610948086" lon="7.078458471223712"><ele></ele><time>2013-9-9T15:38:41Z</time></trkpt>
<trkpt lat="46.42304565757513" lon="7.078479090705514"><ele></ele><time>2013-9-9T15:38:44Z</time></trkpt>
<trkpt lat="46.423052111640573" lon="7.078502727672458"><ele></ele><time>2013-9-9T15:38:47Z</time></trkpt>
<trkpt lat="46.423053536564112" lon="7.07852435298264"><ele></ele><time>2013-9-9T15:38:50Z</time></trkpt>
<trkpt lat="46.423051524907351" lon="7.078548492863774"><ele></ele><time>2013-9-9T15:38:53Z</time></trkpt>
<trkpt lat="46.423045741394162" lon="7.078724093735218"><ele></ele><time>2013-9-9T15:38:56Z</time></trkpt>
<trkpt lat="46.423040544614196" lon="7.078751837834716"><ele></ele><time>2013-9-9T15:38:59Z</time></trkpt>
<trkpt lat="46.423032162711024" lon="7.078777486458421"><ele></ele><time>2013-9-9T15:39:2Z</time></trkpt>
<trkpt lat="46.423018332570791" lon="7.078800871968269"><ele></ele><time>2013-9-9T15:39:5Z</time></trkpt>
<trkpt lat="46.423011124134064" lon="7.078821575269103"><ele></ele><time>2013-9-9T15:39:8Z</time></trkpt>
<trkpt lat="46.422996707260609" lon="7.079032463952899"><ele></ele><time>2013-9-9T15:39:11Z</time></trkpt>
<trkpt lat="46.422999976202846" lon="7.079056687653065"><ele></ele><time>2013-9-9T15:39:14Z</time></trkpt>
<trkpt lat="46.422999054193497" lon="7.079080827534199"><ele></ele><time>2013-9-9T15:39:17Z</time></trkpt>
<trkpt lat="46.422993019223213" lon="7.079101530835033"><ele></ele><time>2013-9-9T15:39:20Z</time></trkpt>
<trkpt lat="46.422986732795835" lon="7.079125251621008"><ele></ele><time>2013-9-9T15:39:23Z</time></trkpt>
<trkpt lat="46.422940464690328" lon="7.079235389828682"><ele></ele><time>2013-9-9T15:39:26Z</time></trkpt>
<trkpt lat="46.422915821895003" lon="7.079282747581601"><ele></ele><time>2013-9-9T15:39:29Z</time></trkpt>
<trkpt lat="46.422905009239912" lon="7.079291045665741"><ele></ele><time>2013-9-9T15:39:32Z</time></trkpt>
<trkpt lat="46.422899141907692" lon="7.079308396205306"><ele></ele><time>2013-9-9T15:39:35Z</time></trkpt>
<trkpt lat="46.422894364222884" lon="7.079328848049045"><ele></ele><time>2013-9-9T15:39:38Z</time></trkpt>
<trkpt lat="46.422893526032567" lon="7.079349718987942"><ele></ele><time>2013-9-9T15:39:41Z</time></trkpt>
<trkpt lat="46.422896040603518" lon="7.079380815848708"><ele></ele><time>2013-9-9T15:39:44Z</time></trkpt>
<trkpt lat="46.42291028983891" lon="7.079552141949534"><ele></ele><time>2013-9-9T15:39:47Z</time></trkpt>
<trkpt lat="46.422912133857608" lon="7.079577203840017"><ele></ele><time>2013-9-9T15:39:50Z</time></trkpt>
<trkpt lat="46.422914145514369" lon="7.079600924625993"><ele></ele><time>2013-9-9T15:39:53Z</time></trkpt>
<trkpt lat="46.422911295667291" lon="7.079622969031334"><ele></ele><time>2013-9-9T15:39:56Z</time></trkpt>
<trkpt lat="46.422906601801515" lon="7.07963696680963"><ele></ele><time>2013-9-9T15:39:59Z</time></trkpt>
<trkpt lat="46.422904841601849" lon="7.079745260998607"><ele></ele><time>2013-9-9T15:40:2Z</time></trkpt>
<trkpt lat="46.422901237383485" lon="7.079768143594265"><ele></ele><time>2013-9-9T15:40:5Z</time></trkpt>
<trkpt lat="46.42290442250669" lon="7.079793540760875"><ele></ele><time>2013-9-9T15:40:8Z</time></trkpt>
<trkpt lat="46.422904506325722" lon="7.079820781946182"><ele></ele><time>2013-9-9T15:40:11Z</time></trkpt>
<trkpt lat="46.422902159392834" lon="7.079846598207951"><ele></ele><time>2013-9-9T15:40:14Z</time></trkpt>
<trkpt lat="46.422889083623886" lon="7.079892531037331"><ele></ele><time>2013-9-9T15:40:17Z</time></trkpt>
<trkpt lat="46.422858908772469" lon="7.079969560727477"><ele></ele><time>2013-9-9T15:40:20Z</time></trkpt>
<trkpt lat="46.422846671193838" lon="7.07999411970377"><ele></ele><time>2013-9-9T15:40:23Z</time></trkpt>
<trkpt lat="46.422832254320383" lon="7.080014236271381"><ele></ele><time>2013-9-9T15:40:26Z</time></trkpt>
<trkpt lat="46.422818088904023" lon="7.080030245706439"><ele></ele><time>2013-9-9T15:40:29Z</time></trkpt>
<trkpt lat="46.422802750021219" lon="7.080048518255353"><ele></ele><time>2013-9-9T15:40:32Z</time></trkpt>
<trkpt lat="46.422769138589501" lon="7.080083219334483"><ele></ele><time>2013-9-9T15:40:35Z</time></trkpt>
<trkpt lat="46.422657072544098" lon="7.080173408612609"><ele></ele><time>2013-9-9T15:40:38Z</time></trkpt>
<trkpt lat="46.422646595165133" lon="7.0801773481071"><ele></ele><time>2013-9-9T15:40:41Z</time></trkpt>
<trkpt lat="46.422637458890676" lon="7.080179275944829"><ele></ele><time>2013-9-9T15:40:44Z</time></trkpt>
<trkpt lat="46.422629998996854" lon="7.080178437754512"><ele></ele><time>2013-9-9T15:40:47Z</time></trkpt>
<trkpt lat="46.422622455283999" lon="7.080176509916782"><ele></ele><time>2013-9-9T15:40:50Z</time></trkpt>
<trkpt lat="46.422571912407875" lon="7.080134432762861"><ele></ele><time>2013-9-9T15:40:53Z</time></trkpt>
<trkpt lat="46.422629998996854" lon="7.080522514879704"><ele></ele><time>2013-9-9T15:40:56Z</time></trkpt>
<trkpt lat="46.422611391171813" lon="7.080532489344478"><ele></ele><time>2013-9-9T15:40:59Z</time></trkpt>
<trkpt lat="46.422593537718058" lon="7.080543050542474"><ele></ele><time>2013-9-9T15:41:2Z</time></trkpt>
<trkpt lat="46.422580797225237" lon="7.080557383596897"><ele></ele><time>2013-9-9T15:41:5Z</time></trkpt>
<trkpt lat="46.42256923019886" lon="7.080576159060001"><ele></ele><time>2013-9-9T15:41:8Z</time></trkpt>
<trkpt lat="46.422447441145778" lon="7.080645812675357"><ele></ele><time>2013-9-9T15:41:11Z</time></trkpt>
<trkpt lat="46.422399748116732" lon="7.08068897947669"><ele></ele><time>2013-9-9T15:41:14Z</time></trkpt>
<trkpt lat="46.422379296272993" lon="7.080705910921097"><ele></ele><time>2013-9-9T15:41:17Z</time></trkpt>
<trkpt lat="46.422365549951792" lon="7.080724518746138"><ele></ele><time>2013-9-9T15:41:20Z</time></trkpt>
<trkpt lat="46.422355072572827" lon="7.080740863457322"><ele></ele><time>2013-9-9T15:41:23Z</time></trkpt>
<trkpt lat="46.422350378707051" lon="7.080760560929775"><ele></ele><time>2013-9-9T15:41:26Z</time></trkpt>
<trkpt lat="46.422360604628921" lon="7.080847481265664"><ele></ele><time>2013-9-9T15:41:29Z</time></trkpt>
<trkpt lat="46.422422043979168" lon="7.081049149855971"><ele></ele><time>2013-9-9T15:41:32Z</time></trkpt>
<trkpt lat="46.422434113919735" lon="7.081074547022581"><ele></ele><time>2013-9-9T15:41:35Z</time></trkpt>
<trkpt lat="46.422446854412556" lon="7.08109499886632"><ele></ele><time>2013-9-9T15:41:38Z</time></trkpt>
<trkpt lat="46.422460516914725" lon="7.081113439053297"><ele></ele><time>2013-9-9T15:41:41Z</time></trkpt>
<trkpt lat="46.422468479722738" lon="7.081130621954799"><ele></ele><time>2013-9-9T15:41:44Z</time></trkpt>
<trkpt lat="46.422538133338094" lon="7.081287112087011"><ele></ele><time>2013-9-9T15:41:47Z</time></trkpt>
<trkpt lat="46.422549281269312" lon="7.081308150663972"><ele></ele><time>2013-9-9T15:41:50Z</time></trkpt>
<trkpt lat="46.422556908801198" lon="7.081326926127076"><ele></ele><time>2013-9-9T15:41:53Z</time></trkpt>
<trkpt lat="46.42256579361856" lon="7.081346204504371"><ele></ele><time>2013-9-9T15:41:56Z</time></trkpt>
<trkpt lat="46.422577612102032" lon="7.08136816509068"><ele></ele><time>2013-9-9T15:41:59Z</time></trkpt>
<trkpt lat="46.422597309574485" lon="7.081439075991511"><ele></ele><time>2013-9-9T15:42:2Z</time></trkpt>
<trkpt lat="46.422606110572815" lon="7.081510405987501"><ele></ele><time>2013-9-9T15:42:5Z</time></trkpt>
<trkpt lat="46.422613067552447" lon="7.081554159522057"><ele></ele><time>2013-9-9T15:42:8Z</time></trkpt>
<trkpt lat="46.422617509961128" lon="7.081570755690336"><ele></ele><time>2013-9-9T15:42:11Z</time></trkpt>
<trkpt lat="46.422620359808207" lon="7.081588692963123"><ele></ele><time>2013-9-9T15:42:14Z</time></trkpt>
<trkpt lat="46.422625640407205" lon="7.081611156463623"><ele></ele><time>2013-9-9T15:42:17Z</time></trkpt>
<trkpt lat="46.422633435577154" lon="7.081632781773806"><ele></ele><time>2013-9-9T15:42:20Z</time></trkpt>
<trkpt lat="46.422642823308706" lon="7.081681480631232"><ele></ele><time>2013-9-9T15:42:23Z</time></trkpt>
<trkpt lat="46.422657491639256" lon="7.081818357110024"><ele></ele><time>2013-9-9T15:42:26Z</time></trkpt>
<trkpt lat="46.422649445012212" lon="7.081834115087986"><ele></ele><time>2013-9-9T15:42:29Z</time></trkpt>
<trkpt lat="46.42264299094677" lon="7.081849789246917"><ele></ele><time>2013-9-9T15:42:32Z</time></trkpt>
<trkpt lat="46.422644332051277" lon="7.081876359879971"><ele></ele><time>2013-9-9T15:42:35Z</time></trkpt>
<trkpt lat="46.422642823308706" lon="7.0819041877985"><ele></ele><time>2013-9-9T15:42:38Z</time></trkpt>
<trkpt lat="46.422647181898355" lon="7.082033604383469"><ele></ele><time>2013-9-9T15:42:41Z</time></trkpt>
<trkpt lat="46.422645086422563" lon="7.082057492807508"><ele></ele><time>2013-9-9T15:42:44Z</time></trkpt>
<trkpt lat="46.422643242403865" lon="7.082080626860261"><ele></ele><time>2013-9-9T15:42:47Z</time></trkpt>
<trkpt lat="46.422636536881328" lon="7.082102503627539"><ele></ele><time>2013-9-9T15:42:50Z</time></trkpt>
<trkpt lat="46.422626310959458" lon="7.082123877480626"><ele></ele><time>2013-9-9T15:42:53Z</time></trkpt>
<trkpt lat="46.422613654285669" lon="7.082152124494314"><ele></ele><time>2013-9-9T15:42:56Z</time></trkpt>
<trkpt lat="46.422599824145436" lon="7.08217634819448"><ele></ele><time>2013-9-9T15:42:59Z</time></trkpt>
<trkpt lat="46.422566715627909" lon="7.082239966839552"><ele></ele><time>2013-9-9T15:43:2Z</time></trkpt>
<trkpt lat="46.422539558261633" lon="7.08233367651701"><ele></ele><time>2013-9-9T15:43:5Z</time></trkpt>
<trkpt lat="46.422537295147777" lon="7.082362845540047"><ele></ele><time>2013-9-9T15:43:8Z</time></trkpt>
<trkpt lat="46.422538217157125" lon="7.082398971542716"><ele></ele><time>2013-9-9T15:43:11Z</time></trkpt>
<trkpt lat="46.422534445300698" lon="7.082423195242882"><ele></ele><time>2013-9-9T15:43:14Z</time></trkpt>
<trkpt lat="46.422529751434922" lon="7.082446832209826"><ele></ele><time>2013-9-9T15:43:17Z</time></trkpt>
<trkpt lat="46.422452973201871" lon="7.082587899640203"><ele></ele><time>2013-9-9T15:43:20Z</time></trkpt>
<trkpt lat="46.422436963766813" lon="7.082603070884943"><ele></ele><time>2013-9-9T15:43:23Z</time></trkpt>
<trkpt lat="46.422420116141438" lon="7.082615224644542"><ele></ele><time>2013-9-9T15:43:26Z</time></trkpt>
<trkpt lat="46.42240209504962" lon="7.082627881318331"><ele></ele><time>2013-9-9T15:43:29Z</time></trkpt>
<trkpt lat="46.422388013452291" lon="7.082637855783105"><ele></ele><time>2013-9-9T15:43:32Z</time></trkpt>
<trkpt lat="46.422309977933764" lon="7.082713963463903"><ele></ele><time>2013-9-9T15:43:35Z</time></trkpt>
<trkpt lat="46.422271504998207" lon="7.082741539925337"><ele></ele><time>2013-9-9T15:43:38Z</time></trkpt>
<trkpt lat="46.422258596867323" lon="7.082750843837857"><ele></ele><time>2013-9-9T15:43:41Z</time></trkpt>
<trkpt lat="46.422246862202883" lon="7.082760902121663"><ele></ele><time>2013-9-9T15:43:44Z</time></trkpt>
<trkpt lat="46.422238228842616" lon="7.082771882414818"><ele></ele><time>2013-9-9T15:43:47Z</time></trkpt>
<trkpt lat="46.422229260206223" lon="7.082781689241529"><ele></ele><time>2013-9-9T15:43:50Z</time></trkpt>
<trkpt lat="46.422208808362484" lon="7.082799626514316"><ele></ele><time>2013-9-9T15:43:53Z</time></trkpt>
<trkpt lat="46.42214410007" lon="7.082881014794111"><ele></ele><time>2013-9-9T15:43:56Z</time></trkpt>
<trkpt lat="46.422130269929767" lon="7.082894006744027"><ele></ele><time>2013-9-9T15:43:59Z</time></trkpt>
<trkpt lat="46.422115601599216" lon="7.082908842712641"><ele></ele><time>2013-9-9T15:44:2Z</time></trkpt>
<trkpt lat="46.422102609649301" lon="7.082923846319318"><ele></ele><time>2013-9-9T15:44:5Z</time></trkpt>
<trkpt lat="46.422088276594877" lon="7.08293910138309"><ele></ele><time>2013-9-9T15:44:8Z</time></trkpt>
<trkpt lat="46.421960704028606" lon="7.083075726404786"><ele></ele><time>2013-9-9T15:44:11Z</time></trkpt>
<trkpt lat="46.421944694593549" lon="7.083094334229827"><ele></ele><time>2013-9-9T15:44:14Z</time></trkpt>
<trkpt lat="46.421928266063333" lon="7.083111936226487"><ele></ele><time>2013-9-9T15:44:17Z</time></trkpt>
<trkpt lat="46.421911334618926" lon="7.083129035308957"><ele></ele><time>2013-9-9T15:44:20Z</time></trkpt>
<trkpt lat="46.421894989907742" lon="7.083144709467888"><ele></ele><time>2013-9-9T15:44:23Z</time></trkpt>
<trkpt lat="46.421772949397564" lon="7.083289632573724"><ele></ele><time>2013-9-9T15:44:26Z</time></trkpt>
<trkpt lat="46.421759286895394" lon="7.083302289247513"><ele></ele><time>2013-9-9T15:44:29Z</time></trkpt>
<trkpt lat="46.421743696555495" lon="7.083314443007112"><ele></ele><time>2013-9-9T15:44:32Z</time></trkpt>
<trkpt lat="46.421730285510421" lon="7.083328692242503"><ele></ele><time>2013-9-9T15:44:35Z</time></trkpt>
<trkpt lat="46.421717880293727" lon="7.083345204591751"><ele></ele><time>2013-9-9T15:44:38Z</time></trkpt>
<trkpt lat="46.421661637723446" lon="7.083482667803764"><ele></ele><time>2013-9-9T15:44:41Z</time></trkpt>
<trkpt lat="46.42163934186101" lon="7.083533881232142"><ele></ele><time>2013-9-9T15:44:44Z</time></trkpt>
<trkpt lat="46.421625763177872" lon="7.083561541512609"><ele></ele><time>2013-9-9T15:44:47Z</time></trkpt>
<trkpt lat="46.421617045998573" lon="7.083590961992741"><ele></ele><time>2013-9-9T15:44:50Z</time></trkpt>
<trkpt lat="46.421607071533799" lon="7.083620717749"><ele></ele><time>2013-9-9T15:44:53Z</time></trkpt>
<trkpt lat="46.421596677973866" lon="7.083646701648831"><ele></ele><time>2013-9-9T15:44:56Z</time></trkpt>
<trkpt lat="46.421561138704419" lon="7.083737561479211"><ele></ele><time>2013-9-9T15:44:59Z</time></trkpt>
<trkpt lat="46.421537837013602" lon="7.083808137103915"><ele></ele><time>2013-9-9T15:45:2Z</time></trkpt>
<trkpt lat="46.421532724052668" lon="7.083830181509256"><ele></ele><time>2013-9-9T15:45:5Z</time></trkpt>
<trkpt lat="46.421535322442651" lon="7.083862535655499"><ele></ele><time>2013-9-9T15:45:8Z</time></trkpt>
<trkpt lat="46.421544793993235" lon="7.08398868329823"><ele></ele><time>2013-9-9T15:45:11Z</time></trkpt>
<trkpt lat="46.421530544757843" lon="7.084036124870181"><ele></ele><time>2013-9-9T15:45:14Z</time></trkpt>
<trkpt lat="46.421502297744155" lon="7.084170822054148"><ele></ele><time>2013-9-9T15:45:17Z</time></trkpt>
<trkpt lat="46.421505901962519" lon="7.08419538103044"><ele></ele><time>2013-9-9T15:45:20Z</time></trkpt>
<trkpt lat="46.421507243067026" lon="7.08422664552927"><ele></ele><time>2013-9-9T15:45:23Z</time></trkpt>
<trkpt lat="46.421508835628629" lon="7.084259334951639"><ele></ele><time>2013-9-9T15:45:26Z</time></trkpt>
<trkpt lat="46.421514870598912" lon="7.084287498146296"><ele></ele><time>2013-9-9T15:45:29Z</time></trkpt>
<trkpt lat="46.421539345756173" lon="7.084324546158314"><ele></ele><time>2013-9-9T15:45:32Z</time></trkpt>
<trkpt lat="46.421647137030959" lon="7.084433091804385"><ele></ele><time>2013-9-9T15:45:35Z</time></trkpt>
<trkpt lat="46.421876968815923" lon="7.084560077637434"><ele></ele><time>2013-9-9T15:45:38Z</time></trkpt>
<trkpt lat="46.42190421000123" lon="7.084590839222074"><ele></ele><time>2013-9-9T15:45:41Z</time></trkpt>
<trkpt lat="46.421929439529777" lon="7.084620259702206"><ele></ele><time>2013-9-9T15:45:44Z</time></trkpt>
<trkpt lat="46.42195014283061" lon="7.08464733324945"><ele></ele><time>2013-9-9T15:45:47Z</time></trkpt>
<trkpt lat="46.421963721513748" lon="7.084671137854457"><ele></ele><time>2013-9-9T15:45:50Z</time></trkpt>
<trkpt lat="46.422004709020257" lon="7.084786556661129"><ele></ele><time>2013-9-9T15:45:53Z</time></trkpt>
<trkpt lat="46.421996746212244" lon="7.084866352379322"><ele></ele><time>2013-9-9T15:45:56Z</time></trkpt>
<trkpt lat="46.421995405107737" lon="7.084886049851775"><ele></ele><time>2013-9-9T15:45:59Z</time></trkpt>
<trkpt lat="46.421996494755149" lon="7.084907088428736"><ele></ele><time>2013-9-9T15:46:2Z</time></trkpt>
<trkpt lat="46.421996913850307" lon="7.084928629919887"><ele></ele><time>2013-9-9T15:46:5Z</time></trkpt>
<trkpt lat="46.421993812546134" lon="7.084948662668467"><ele></ele><time>2013-9-9T15:46:8Z</time></trkpt>
<trkpt lat="46.421981742605567" lon="7.085028374567628"><ele></ele><time>2013-9-9T15:46:11Z</time></trkpt>
<trkpt lat="46.421981742605567" lon="7.085050586611033"><ele></ele><time>2013-9-9T15:46:14Z</time></trkpt>
<trkpt lat="46.421984592452645" lon="7.08507489413023"><ele></ele><time>2013-9-9T15:46:17Z</time></trkpt>
<trkpt lat="46.421988112851977" lon="7.08509786054492"><ele></ele><time>2013-9-9T15:46:20Z</time></trkpt>
<trkpt lat="46.42198970541358" lon="7.08512082695961"><ele></ele><time>2013-9-9T15:46:23Z</time></trkpt>
<trkpt lat="46.421991717070341" lon="7.085143374279141"><ele></ele><time>2013-9-9T15:46:26Z</time></trkpt>
<trkpt lat="46.421995321288705" lon="7.085236078128219"><ele></ele><time>2013-9-9T15:46:29Z</time></trkpt>
<trkpt lat="46.421966152265668" lon="7.085376642644405"><ele></ele><time>2013-9-9T15:46:32Z</time></trkpt>
<trkpt lat="46.421958189457655" lon="7.085396256297827"><ele></ele><time>2013-9-9T15:46:35Z</time></trkpt>
<trkpt lat="46.421951735392213" lon="7.085417462512851"><ele></ele><time>2013-9-9T15:46:38Z</time></trkpt>
<trkpt lat="46.421943688765168" lon="7.085440931841731"><ele></ele><time>2013-9-9T15:46:41Z</time></trkpt>
<trkpt lat="46.421939413994551" lon="7.085462221875787"><ele></ele><time>2013-9-9T15:46:44Z</time></trkpt>
<trkpt lat="46.421908317133784" lon="7.085547801107168"><ele></ele><time>2013-9-9T15:46:47Z</time></trkpt>
<trkpt lat="46.421861546114087" lon="7.08563731983304"><ele></ele><time>2013-9-9T15:46:50Z</time></trkpt>
<trkpt lat="46.421851823106408" lon="7.085653496906161"><ele></ele><time>2013-9-9T15:46:53Z</time></trkpt>
<trkpt lat="46.421842770650983" lon="7.085670260712504"><ele></ele><time>2013-9-9T15:46:56Z</time></trkpt>
<trkpt lat="46.421835059300065" lon="7.085688030347228"><ele></ele><time>2013-9-9T15:46:59Z</time></trkpt>
<trkpt lat="46.421822821721435" lon="7.085700603201985"><ele></ele><time>2013-9-9T15:47:2Z</time></trkpt>
<trkpt lat="46.421705139800906" lon="7.08574234507978"><ele></ele><time>2013-9-9T15:47:5Z</time></trkpt>
<trkpt lat="46.421689800918102" lon="7.085742680355907"><ele></ele><time>2013-9-9T15:47:8Z</time></trkpt>
<trkpt lat="46.421676641330123" lon="7.085743518546224"><ele></ele><time>2013-9-9T15:47:11Z</time></trkpt>
<trkpt lat="46.421663062646985" lon="7.085744105279446"><ele></ele><time>2013-9-9T15:47:14Z</time></trkpt>
<trkpt lat="46.421648729592562" lon="7.085745949298143"><ele></ele><time>2013-9-9T15:47:17Z</time></trkpt>
<trkpt lat="46.421583937481046" lon="7.085736142471433"><ele></ele><time>2013-9-9T15:47:20Z</time></trkpt>
<trkpt lat="46.421546805649996" lon="7.085711918771267"><ele></ele><time>2013-9-9T15:47:23Z</time></trkpt>
<trkpt lat="46.421531131491065" lon="7.085706051439047"><ele></ele><time>2013-9-9T15:47:26Z</time></trkpt>
<trkpt lat="46.421516546979547" lon="7.085702028125525"><ele></ele><time>2013-9-9T15:47:29Z</time></trkpt>
<trkpt lat="46.421503806486726" lon="7.085703033953905"><ele></ele><time>2013-9-9T15:47:32Z</time></trkpt>
<trkpt lat="46.421396685764194" lon="7.085664980113506"><ele></ele><time>2013-9-9T15:47:35Z</time></trkpt>
<trkpt lat="46.421380257233977" lon="7.085655592381954"><ele></ele><time>2013-9-9T15:47:38Z</time></trkpt>
<trkpt lat="46.421365840360522" lon="7.08564218133688"><ele></ele><time>2013-9-9T15:47:41Z</time></trkpt>
<trkpt lat="46.421351758763194" lon="7.085626171901822"><ele></ele><time>2013-9-9T15:47:44Z</time></trkpt>
<trkpt lat="46.421340694651008" lon="7.085618963465095"><ele></ele><time>2013-9-9T15:47:47Z</time></trkpt>
<trkpt lat="46.42133004963398" lon="7.085617203265429"><ele></ele><time>2013-9-9T15:47:50Z</time></trkpt>
<trkpt lat="46.421308172866702" lon="7.085610749199987"><ele></ele><time>2013-9-9T15:47:53Z</time></trkpt>
<trkpt lat="46.421204907819629" lon="7.085595745593309"><ele></ele><time>2013-9-9T15:47:56Z</time></trkpt>
<trkpt lat="46.421188646927476" lon="7.085594153031707"><ele></ele><time>2013-9-9T15:47:59Z</time></trkpt>
<trkpt lat="46.421172553673387" lon="7.085589542984963"><ele></ele><time>2013-9-9T15:48:2Z</time></trkpt>
<trkpt lat="46.421159142628312" lon="7.085586106404662"><ele></ele><time>2013-9-9T15:48:5Z</time></trkpt>
<trkpt lat="46.421101307496428" lon="7.085600439459086"><ele></ele><time>2013-9-9T15:48:8Z</time></trkpt>
<trkpt lat="46.421053195372224" lon="7.085613682866097"><ele></ele><time>2013-9-9T15:48:11Z</time></trkpt>
<trkpt lat="46.42103735357523" lon="7.08561435341835"><ele></ele><time>2013-9-9T15:48:14Z</time></trkpt>
<trkpt lat="46.421022014692426" lon="7.085621561855078"><ele></ele><time>2013-9-9T15:48:17Z</time></trkpt>
<trkpt lat="46.421004580333829" lon="7.085625417530537"><ele></ele><time>2013-9-9T15:48:20Z</time></trkpt>
<trkpt lat="46.420991672202945" lon="7.085632039234042"><ele></ele><time>2013-9-9T15:48:23Z</time></trkpt>
<trkpt lat="46.42090056091547" lon="7.085668919607997"><ele></ele><time>2013-9-9T15:48:26Z</time></trkpt>
<trkpt lat="46.420786650851369" lon="7.085764892399311"><ele></ele><time>2013-9-9T15:48:29Z</time></trkpt>
<trkpt lat="46.420775167644024" lon="7.085787942633033"><ele></ele><time>2013-9-9T15:48:32Z</time></trkpt>
<trkpt lat="46.420756475999951" lon="7.085813758894801"><ele></ele><time>2013-9-9T15:48:35Z</time></trkpt>
<trkpt lat="46.42074272967875" lon="7.085833624005318"><ele></ele><time>2013-9-9T15:48:38Z</time></trkpt>
<trkpt lat="46.420699143782258" lon="7.085887938737869"><ele></ele><time>2013-9-9T15:48:41Z</time></trkpt>
<trkpt lat="46.420555897057056" lon="7.086044764146209"><ele></ele><time>2013-9-9T15:48:44Z</time></trkpt>
<trkpt lat="46.420536367222667" lon="7.08608047105372"><ele></ele><time>2013-9-9T15:48:47Z</time></trkpt>
<trkpt lat="46.420533852651715" lon="7.086125649511814"><ele></ele><time>2013-9-9T15:48:50Z</time></trkpt>
<trkpt lat="46.420536786317825" lon="7.086145598441362"><ele></ele><time>2013-9-9T15:48:53Z</time></trkpt>
<trkpt lat="46.420591771602631" lon="7.086289934813976"><ele></ele><time>2013-9-9T15:48:56Z</time></trkpt>
<trkpt lat="46.42066603526473" lon="7.086385320872068"><ele></ele><time>2013-9-9T15:48:59Z</time></trkpt>
<trkpt lat="46.420684140175581" lon="7.086406359449029"><ele></ele><time>2013-9-9T15:49:2Z</time></trkpt>
<trkpt lat="46.420700065791607" lon="7.086435863748193"><ele></ele><time>2013-9-9T15:49:5Z</time></trkpt>
<trkpt lat="46.420710878446698" lon="7.086457489058375"><ele></ele><time>2013-9-9T15:49:8Z</time></trkpt>
<trkpt lat="46.42071632668376" lon="7.086481293663383"><ele></ele><time>2013-9-9T15:49:11Z</time></trkpt>
<trkpt lat="46.420752285048366" lon="7.086547678336501"><ele></ele><time>2013-9-9T15:49:14Z</time></trkpt>
<trkpt lat="46.42083358950913" lon="7.086775163188577"><ele></ele><time>2013-9-9T15:49:17Z</time></trkpt>
<trkpt lat="46.420844066888094" lon="7.086898544803262"><ele></ele><time>2013-9-9T15:49:20Z</time></trkpt>
<trkpt lat="46.420835014432669" lon="7.086955793201923"><ele></ele><time>2013-9-9T15:49:23Z</time></trkpt>
<trkpt lat="46.420835768803954" lon="7.087027039378882"><ele></ele><time>2013-9-9T15:49:26Z</time></trkpt>
<trkpt lat="46.420838702470064" lon="7.087060483172536"><ele></ele><time>2013-9-9T15:49:29Z</time></trkpt>
<trkpt lat="46.42084876075387" lon="7.087100045755506"><ele></ele><time>2013-9-9T15:49:32Z</time></trkpt>
<trkpt lat="46.420855047181249" lon="7.08713642321527"><ele></ele><time>2013-9-9T15:49:35Z</time></trkpt>
<trkpt lat="46.420859154313803" lon="7.087172297760844"><ele></ele><time>2013-9-9T15:49:38Z</time></trkpt>
<trkpt lat="46.420873068273067" lon="7.087394502013922"><ele></ele><time>2013-9-9T15:49:41Z</time></trkpt>
<trkpt lat="46.420896537601948" lon="7.08765191026032"><ele></ele><time>2013-9-9T15:49:44Z</time></trkpt>
<trkpt lat="46.420908523723483" lon="7.087755929678679"><ele></ele><time>2013-9-9T15:49:47Z</time></trkpt>
<trkpt lat="46.420920426025987" lon="7.087789624929428"><ele></ele><time>2013-9-9T15:49:50Z</time></trkpt>
<trkpt lat="46.420924616977572" lon="7.087825248017907"><ele></ele><time>2013-9-9T15:49:53Z</time></trkpt>
<trkpt lat="46.420924365520477" lon="7.087864056229591"><ele></ele><time>2013-9-9T15:49:56Z</time></trkpt>
<trkpt lat="46.420927047729492" lon="7.087901355698705"><ele></ele><time>2013-9-9T15:49:59Z</time></trkpt>
<trkpt lat="46.420938111841679" lon="7.088015517219901"><ele></ele><time>2013-9-9T15:50:2Z</time></trkpt>
<trkpt lat="46.42094356007874" lon="7.088104952126741"><ele></ele><time>2013-9-9T15:50:5Z</time></trkpt>
<trkpt lat="46.421002317219973" lon="7.088313242420554"><ele></ele><time>2013-9-9T15:50:8Z</time></trkpt>
<trkpt lat="46.421038778498769" lon="7.088660504668951"><ele></ele><time>2013-9-9T15:50:11Z</time></trkpt>
<trkpt lat="46.420971807092428" lon="7.08889058791101"><ele></ele><time>2013-9-9T15:50:14Z</time></trkpt>
<trkpt lat="46.420793943107128" lon="7.089113630354404"><ele></ele><time>2013-9-9T15:50:17Z</time></trkpt>
<trkpt lat="46.420721942558885" lon="7.089397525414825"><ele></ele><time>2013-9-9T15:50:20Z</time></trkpt>
<trkpt lat="46.420707106590271" lon="7.089524930343032"><ele></ele><time>2013-9-9T15:50:23Z</time></trkpt>
<trkpt lat="46.420678356662393" lon="7.089821984991431"><ele></ele><time>2013-9-9T15:50:26Z</time></trkpt>
<trkpt lat="46.420623790472746" lon="7.090298077091575"><ele></ele><time>2013-9-9T15:50:29Z</time></trkpt>
<trkpt lat="46.420615576207638" lon="7.090358510613442"><ele></ele><time>2013-9-9T15:50:32Z</time></trkpt>
<trkpt lat="46.420558579266071" lon="7.090813061222434"><ele></ele><time>2013-9-9T15:50:35Z</time></trkpt>
<trkpt lat="46.420535864308476" lon="7.090970724821091"><ele></ele><time>2013-9-9T15:50:38Z</time></trkpt>
<trkpt lat="46.420528907328844" lon="7.091018417850137"><ele></ele><time>2013-9-9T15:50:41Z</time></trkpt>
<trkpt lat="46.420522117987275" lon="7.091061836108565"><ele></ele><time>2013-9-9T15:50:44Z</time></trkpt>
<trkpt lat="46.420518010854721" lon="7.091103494167328"><ele></ele><time>2013-9-9T15:50:47Z</time></trkpt>
<trkpt lat="46.42051113769412" lon="7.091142050921917"><ele></ele><time>2013-9-9T15:50:50Z</time></trkpt>
<trkpt lat="46.420504432171583" lon="7.091185720637441"><ele></ele><time>2013-9-9T15:50:53Z</time></trkpt>
<trkpt lat="46.420454978942871" lon="7.091522673144937"><ele></ele><time>2013-9-9T15:50:56Z</time></trkpt>
<trkpt lat="46.420413991436362" lon="7.09190933033824"><ele></ele><time>2013-9-9T15:50:59Z</time></trkpt>
<trkpt lat="46.420355988666415" lon="7.09240335971117"><ele></ele><time>2013-9-9T15:51:2Z</time></trkpt>
<trkpt lat="46.420313995331526" lon="7.092729918658733"><ele></ele><time>2013-9-9T15:51:5Z</time></trkpt>
<trkpt lat="46.420252807438374" lon="7.093093609437347"><ele></ele><time>2013-9-9T15:51:8Z</time></trkpt>
<trkpt lat="46.420219363644719" lon="7.093334589153528"><ele></ele><time>2013-9-9T15:51:11Z</time></trkpt>
<trkpt lat="46.420177705585957" lon="7.093604067340493"><ele></ele><time>2013-9-9T15:51:14Z</time></trkpt>
<trkpt lat="46.420121127739549" lon="7.093867510557175"><ele></ele><time>2013-9-9T15:51:17Z</time></trkpt>
<trkpt lat="46.419979389756918" lon="7.094102706760168"><ele></ele><time>2013-9-9T15:51:20Z</time></trkpt>
<trkpt lat="46.419922476634383" lon="7.094148471951485"><ele></ele><time>2013-9-9T15:51:23Z</time></trkpt>
<trkpt lat="46.419918956235051" lon="7.094149896875024"><ele></ele><time>2013-9-9T15:51:26Z</time></trkpt>
<trkpt lat="46.419894648715854" lon="7.094205804169178"><ele></ele><time>2013-9-9T15:51:29Z</time></trkpt>
<trkpt lat="46.419875370338559" lon="7.094253916293383"><ele></ele><time>2013-9-9T15:51:32Z</time></trkpt>
<trkpt lat="46.419863384217024" lon="7.094322731718421"><ele></ele><time>2013-9-9T15:51:35Z</time></trkpt>
<trkpt lat="46.419840333983302" lon="7.094424907118082"><ele></ele><time>2013-9-9T15:51:38Z</time></trkpt>
<trkpt lat="46.419792473316193" lon="7.09467058070004"><ele></ele><time>2013-9-9T15:51:41Z</time></trkpt>
<trkpt lat="46.419771686196327" lon="7.095141476020217"><ele></ele><time>2013-9-9T15:51:44Z</time></trkpt>
<trkpt lat="46.419841591268778" lon="7.09555596113205"><ele></ele><time>2013-9-9T15:51:47Z</time></trkpt>
<trkpt lat="46.419869419187307" lon="7.095616227015853"><ele></ele><time>2013-9-9T15:51:50Z</time></trkpt>
<trkpt lat="46.419961703941226" lon="7.096033981069922"><ele></ele><time>2013-9-9T15:51:53Z</time></trkpt>
<trkpt lat="46.420028507709503" lon="7.096543265506625"><ele></ele><time>2013-9-9T15:51:56Z</time></trkpt>
<trkpt lat="46.419991459697485" lon="7.097068140283227"><ele></ele><time>2013-9-9T15:51:59Z</time></trkpt>
<trkpt lat="46.419942006468773" lon="7.09766149520874"><ele></ele><time>2013-9-9T15:52:2Z</time></trkpt>
<trkpt lat="46.419941755011678" lon="7.098013702780008"><ele></ele><time>2013-9-9T15:52:5Z</time></trkpt>
<trkpt lat="46.419988693669438" lon="7.098273793235421"><ele></ele><time>2013-9-9T15:52:8Z</time></trkpt>
<trkpt lat="46.420023730024695" lon="7.098452746868134"><ele></ele><time>2013-9-9T15:52:11Z</time></trkpt>
<trkpt lat="46.420004535466433" lon="7.098539415746927"><ele></ele><time>2013-9-9T15:52:14Z</time></trkpt>
<trkpt lat="46.419985005632043" lon="7.098557269200683"><ele></ele><time>2013-9-9T15:52:17Z</time></trkpt>
<trkpt lat="46.419888865202665" lon="7.098635388538241"><ele></ele><time>2013-9-9T15:52:20Z</time></trkpt>
<trkpt lat="46.419862378388643" lon="7.098641339689493"><ele></ele><time>2013-9-9T15:52:23Z</time></trkpt>
<trkpt lat="46.419840669259429" lon="7.098654499277473"><ele></ele><time>2013-9-9T15:52:26Z</time></trkpt>
<trkpt lat="46.419820720329881" lon="7.098665731027722"><ele></ele><time>2013-9-9T15:52:29Z</time></trkpt>
<trkpt lat="46.419717455282807" lon="7.098792884498835"><ele></ele><time>2013-9-9T15:52:32Z</time></trkpt>
<trkpt lat="46.419592732563615" lon="7.098836721852422"><ele></ele><time>2013-9-9T15:52:35Z</time></trkpt>
<trkpt lat="46.419566161930561" lon="7.098845941945911"><ele></ele><time>2013-9-9T15:52:38Z</time></trkpt>
<trkpt lat="46.41953925602138" lon="7.098856335505843"><ele></ele><time>2013-9-9T15:52:41Z</time></trkpt>
<trkpt lat="46.419503968209028" lon="7.098868153989315"><ele></ele><time>2013-9-9T15:52:44Z</time></trkpt>
<trkpt lat="46.419476140290499" lon="7.09888307377696"><ele></ele><time>2013-9-9T15:52:47Z</time></trkpt>
<trkpt lat="46.419415036216378" lon="7.098923893645406"><ele></ele><time>2013-9-9T15:52:50Z</time></trkpt>
<trkpt lat="46.419401206076145" lon="7.098938478156924"><ele></ele><time>2013-9-9T15:52:53Z</time></trkpt>
<trkpt lat="46.419388968497515" lon="7.098951553925872"><ele></ele><time>2013-9-9T15:52:56Z</time></trkpt>
<trkpt lat="46.419369857758284" lon="7.098970413208008"><ele></ele><time>2013-9-9T15:52:59Z</time></trkpt>
<trkpt lat="46.419351249933243" lon="7.0989880990237"><ele></ele><time>2013-9-9T15:53:2Z</time></trkpt>
<trkpt lat="46.419293247163296" lon="7.099054232239723"><ele></ele><time>2013-9-9T15:53:5Z</time></trkpt>
<trkpt lat="46.419281093403697" lon="7.099068062379956"><ele></ele><time>2013-9-9T15:53:8Z</time></trkpt>
<trkpt lat="46.419269777834415" lon="7.099081808701158"><ele></ele><time>2013-9-9T15:53:11Z</time></trkpt>
<trkpt lat="46.419255528599024" lon="7.099094549193978"><ele></ele><time>2013-9-9T15:53:14Z</time></trkpt>
<trkpt lat="46.419244129210711" lon="7.099108379334211"><ele></ele><time>2013-9-9T15:53:17Z</time></trkpt>
<trkpt lat="46.419188138097525" lon="7.099266462028027"><ele></ele><time>2013-9-9T15:53:20Z</time></trkpt>
<trkpt lat="46.419185539707541" lon="7.099287668243051"><ele></ele><time>2013-9-9T15:53:23Z</time></trkpt>
<trkpt lat="46.419184701517224" lon="7.099317340180278"><ele></ele><time>2013-9-9T15:53:26Z</time></trkpt>
<trkpt lat="46.419176990166306" lon="7.099337708204985"><ele></ele><time>2013-9-9T15:53:29Z</time></trkpt>
<trkpt lat="46.419169278815389" lon="7.099355813115835"><ele></ele><time>2013-9-9T15:53:32Z</time></trkpt>
<trkpt lat="46.419141953811049" lon="7.099413061514497"><ele></ele><time>2013-9-9T15:53:35Z</time></trkpt>
<trkpt lat="46.419106246903539" lon="7.099438710138202"><ele></ele><time>2013-9-9T15:53:38Z</time></trkpt>
<trkpt lat="46.419202471151948" lon="7.099841963499785"><ele></ele><time>2013-9-9T15:53:41Z</time></trkpt>
<trkpt lat="46.419167015701532" lon="7.099901977926493"><ele></ele><time>2013-9-9T15:53:44Z</time></trkpt>
<trkpt lat="46.419153353199363" lon="7.099923184141517"><ele></ele><time>2013-9-9T15:53:47Z</time></trkpt>
<trkpt lat="46.419131141155958" lon="7.099946150556207"><ele></ele><time>2013-9-9T15:53:50Z</time></trkpt>
<trkpt lat="46.419121418148279" lon="7.099967272952199"><ele></ele><time>2013-9-9T15:53:53Z</time></trkpt>
<trkpt lat="46.419112030416727" lon="7.09998931735754"><ele></ele><time>2013-9-9T15:53:56Z</time></trkpt>
<trkpt lat="46.419091410934925" lon="7.100078081712127"><ele></ele><time>2013-9-9T15:53:59Z</time></trkpt>
<trkpt lat="46.419090488925576" lon="7.10009727627039"><ele></ele><time>2013-9-9T15:54:2Z</time></trkpt>
<trkpt lat="46.419089902192354" lon="7.100114542990923"><ele></ele><time>2013-9-9T15:54:5Z</time></trkpt>
<trkpt lat="46.419090405106544" lon="7.100130971521139"><ele></ele><time>2013-9-9T15:54:8Z</time></trkpt>
<trkpt lat="46.419090488925576" lon="7.100147064775229"><ele></ele><time>2013-9-9T15:54:11Z</time></trkpt>
<trkpt lat="46.419072467833757" lon="7.10019308142364"><ele></ele><time>2013-9-9T15:54:14Z</time></trkpt>
<trkpt lat="46.41906626522541" lon="7.100203391164541"><ele></ele><time>2013-9-9T15:54:17Z</time></trkpt>
<trkpt lat="46.419059056788683" lon="7.100210431963205"><ele></ele><time>2013-9-9T15:54:20Z</time></trkpt>
<trkpt lat="46.419059308245778" lon="7.100238259881735"><ele></ele><time>2013-9-9T15:54:23Z</time></trkpt>
<trkpt lat="46.419047322124243" lon="7.100251670926809"><ele></ele><time>2013-9-9T15:54:26Z</time></trkpt>
<trkpt lat="46.419032234698534" lon="7.100253263488412"><ele></ele><time>2013-9-9T15:54:29Z</time></trkpt>
<trkpt lat="46.419016309082508" lon="7.100242031738162"><ele></ele><time>2013-9-9T15:54:32Z</time></trkpt>
<trkpt lat="46.419005915522575" lon="7.100234823301435"><ele></ele><time>2013-9-9T15:54:35Z</time></trkpt>
<trkpt lat="46.418929137289524" lon="7.100196434184909"><ele></ele><time>2013-9-9T15:54:38Z</time></trkpt>
<trkpt lat="46.418913044035435" lon="7.100198194384575"><ele></ele><time>2013-9-9T15:54:41Z</time></trkpt>
<trkpt lat="46.418895190581679" lon="7.100197104737163"><ele></ele><time>2013-9-9T15:54:44Z</time></trkpt>
<trkpt lat="46.418883623555303" lon="7.100198529660702"><ele></ele><time>2013-9-9T15:54:47Z</time></trkpt>
<trkpt lat="46.41885562799871" lon="7.10022334009409"><ele></ele><time>2013-9-9T15:54:50Z</time></trkpt>
<trkpt lat="46.418834924697876" lon="7.10023507475853"><ele></ele><time>2013-9-9T15:54:53Z</time></trkpt>
<trkpt lat="46.418638285249472" lon="7.100298190489411"><ele></ele><time>2013-9-9T15:54:56Z</time></trkpt>
<trkpt lat="46.418609116226435" lon="7.100312607362866"><ele></ele><time>2013-9-9T15:54:59Z</time></trkpt>
<trkpt lat="46.418460169807076" lon="7.100358959287405"><ele></ele><time>2013-9-9T15:55:2Z</time></trkpt>
<trkpt lat="46.41828197054565" lon="7.100408244878054"><ele></ele><time>2013-9-9T15:55:5Z</time></trkpt>
<trkpt lat="46.418251963332295" lon="7.100403467193246"><ele></ele><time>2013-9-9T15:55:8Z</time></trkpt>
<trkpt lat="46.418224135413766" lon="7.10040120407939"><ele></ele><time>2013-9-9T15:55:11Z</time></trkpt>
<trkpt lat="46.418197648599744" lon="7.100399611517787"><ele></ele><time>2013-9-9T15:55:14Z</time></trkpt>
<trkpt lat="46.418171413242817" lon="7.10039684548974"><ele></ele><time>2013-9-9T15:55:17Z</time></trkpt>
<trkpt lat="46.418147440999746" lon="7.100392067804933"><ele></ele><time>2013-9-9T15:55:20Z</time></trkpt>
<trkpt lat="46.418039314448833" lon="7.100388128310442"><ele></ele><time>2013-9-9T15:55:23Z</time></trkpt>
<trkpt lat="46.417842339724302" lon="7.100364826619625"><ele></ele><time>2013-9-9T15:55:26Z</time></trkpt>
<trkpt lat="46.417805291712284" lon="7.100363485515118"><ele></ele><time>2013-9-9T15:55:29Z</time></trkpt>
<trkpt lat="46.417788779363036" lon="7.100363820791245"><ele></ele><time>2013-9-9T15:55:32Z</time></trkpt>
<trkpt lat="46.417770339176059" lon="7.100360635668039"><ele></ele><time>2013-9-9T15:55:35Z</time></trkpt>
<trkpt lat="46.417754078283906" lon="7.100361390039325"><ele></ele><time>2013-9-9T15:55:38Z</time></trkpt>
<trkpt lat="46.417741170153022" lon="7.100360887125135"><ele></ele><time>2013-9-9T15:55:41Z</time></trkpt>
<trkpt lat="46.417740499600768" lon="7.100354265421629"><ele></ele><time>2013-9-9T15:55:44Z</time></trkpt>
<trkpt lat="46.417671851813793" lon="7.100323252379894"><ele></ele><time>2013-9-9T15:55:47Z</time></trkpt>
<trkpt lat="46.417622901499271" lon="7.100319229066372"><ele></ele><time>2013-9-9T15:55:50Z</time></trkpt>
<trkpt lat="46.417549727484584" lon="7.100293915718794"><ele></ele><time>2013-9-9T15:55:53Z</time></trkpt>
<trkpt lat="46.417535142973065" lon="7.100282683968544"><ele></ele><time>2013-9-9T15:55:56Z</time></trkpt>
<trkpt lat="46.417521061375737" lon="7.100271368399262"><ele></ele><time>2013-9-9T15:55:59Z</time></trkpt>
<trkpt lat="46.41750605776906" lon="7.100262902677059"><ele></ele><time>2013-9-9T15:56:2Z</time></trkpt>
<trkpt lat="46.417492143809795" lon="7.10024974308908"><ele></ele><time>2013-9-9T15:56:5Z</time></trkpt>
<trkpt lat="46.417475212365389" lon="7.100235242396593"><ele></ele><time>2013-9-9T15:56:8Z</time></trkpt>
<trkpt lat="46.417375802993774" lon="7.100163577124476"><ele></ele><time>2013-9-9T15:56:11Z</time></trkpt>
<trkpt lat="46.417359206825495" lon="7.100159721449018"><ele></ele><time>2013-9-9T15:56:14Z</time></trkpt>
<trkpt lat="46.417341688647866" lon="7.10015008226037"><ele></ele><time>2013-9-9T15:56:17Z</time></trkpt>
<trkpt lat="46.41732819378376" lon="7.10014614276588"><ele></ele><time>2013-9-9T15:56:20Z</time></trkpt>
<trkpt lat="46.417310927063227" lon="7.100133318454027"><ele></ele><time>2013-9-9T15:56:23Z</time></trkpt>
<trkpt lat="46.417298270389438" lon="7.100116219371557"><ele></ele><time>2013-9-9T15:56:26Z</time></trkpt>
<trkpt lat="46.417162399739027" lon="7.100018654018641"><ele></ele><time>2013-9-9T15:56:29Z</time></trkpt>
<trkpt lat="46.417134404182434" lon="7.100013121962547"><ele></ele><time>2013-9-9T15:56:32Z</time></trkpt>
<trkpt lat="46.417119903489947" lon="7.100004320964217"><ele></ele><time>2013-9-9T15:56:35Z</time></trkpt>
<trkpt lat="46.417105905711651" lon="7.100000297650695"><ele></ele><time>2013-9-9T15:56:38Z</time></trkpt>
<trkpt lat="46.417091991752386" lon="7.09999174810946"><ele></ele><time>2013-9-9T15:56:41Z</time></trkpt>
<trkpt lat="46.417079921811819" lon="7.099985126405954"><ele></ele><time>2013-9-9T15:56:44Z</time></trkpt>
<trkpt lat="46.417055111378431" lon="7.099972721189261"><ele></ele><time>2013-9-9T15:56:47Z</time></trkpt>
<trkpt lat="46.416964083909988" lon="7.099871635437012"><ele></ele><time>2013-9-9T15:56:50Z</time></trkpt>
<trkpt lat="46.416951259598136" lon="7.099859062582254"><ele></ele><time>2013-9-9T15:56:53Z</time></trkpt>
<trkpt lat="46.416940530762076" lon="7.099842550233007"><ele></ele><time>2013-9-9T15:56:56Z</time></trkpt>
<trkpt lat="46.416933154687285" lon="7.099827798083425"><ele></ele><time>2013-9-9T15:56:59Z</time></trkpt>
<trkpt lat="46.41692167147994" lon="7.099817488342524"><ele></ele><time>2013-9-9T15:57:2Z</time></trkpt>
<trkpt lat="46.41685863956809" lon="7.099772058427334"><ele></ele><time>2013-9-9T15:57:5Z</time></trkpt>
<trkpt lat="46.41677993349731" lon="7.099746074527502"><ele></ele><time>2013-9-9T15:57:8Z</time></trkpt>
<trkpt lat="46.416770629584789" lon="7.099737357348204"><ele></ele><time>2013-9-9T15:57:11Z</time></trkpt>
<trkpt lat="46.416741292923689" lon="7.099729813635349"><ele></ele><time>2013-9-9T15:57:14Z</time></trkpt>
<trkpt lat="46.416728468611836" lon="7.099718581885099"><ele></ele><time>2013-9-9T15:57:17Z</time></trkpt>
<trkpt lat="46.416715644299984" lon="7.099708775058389"><ele></ele><time>2013-9-9T15:57:20Z</time></trkpt>
<trkpt lat="46.416704244911671" lon="7.099697208032012"><ele></ele><time>2013-9-9T15:57:23Z</time></trkpt>
<trkpt lat="46.416693599894643" lon="7.099685473367572"><ele></ele><time>2013-9-9T15:57:26Z</time></trkpt>
<trkpt lat="46.41660894267261" lon="7.099564857780933"><ele></ele><time>2013-9-9T15:57:29Z</time></trkpt>
<trkpt lat="46.416595950722694" lon="7.099543651565909"><ele></ele><time>2013-9-9T15:57:32Z</time></trkpt>
<trkpt lat="46.416586060076952" lon="7.099525881931186"><ele></ele><time>2013-9-9T15:57:35Z</time></trkpt>
<trkpt lat="46.416577510535717" lon="7.099508112296462"><ele></ele><time>2013-9-9T15:57:38Z</time></trkpt>
<trkpt lat="46.416570721194148" lon="7.099492521956563"><ele></ele><time>2013-9-9T15:57:41Z</time></trkpt>
<trkpt lat="46.416513556614518" lon="7.099444158375263"><ele></ele><time>2013-9-9T15:57:44Z</time></trkpt>
<trkpt lat="46.416514394804835" lon="7.099449103698134"><ele></ele><time>2013-9-9T15:57:47Z</time></trkpt>
<trkpt lat="46.415958339348435" lon="7.098996313288808"><ele></ele><time>2013-9-9T15:57:50Z</time></trkpt>
<trkpt lat="46.415944173932076" lon="7.098990278318524"><ele></ele><time>2013-9-9T15:57:53Z</time></trkpt>
<trkpt lat="46.415925649926066" lon="7.098979884758592"><ele></ele><time>2013-9-9T15:57:56Z</time></trkpt>
<trkpt lat="46.415909389033914" lon="7.098963120952249"><ele></ele><time>2013-9-9T15:57:59Z</time></trkpt>
<trkpt lat="46.415779637172818" lon="7.098845271393657"><ele></ele><time>2013-9-9T15:58:2Z</time></trkpt>
<trkpt lat="46.415765136480331" lon="7.098830100148916"><ele></ele><time>2013-9-9T15:58:5Z</time></trkpt>
<trkpt lat="46.415749462321401" lon="7.098815431818366"><ele></ele><time>2013-9-9T15:58:8Z</time></trkpt>
<trkpt lat="46.415733704343438" lon="7.098800428211689"><ele></ele><time>2013-9-9T15:58:11Z</time></trkpt>
<trkpt lat="46.415719538927078" lon="7.098787520080805"><ele></ele><time>2013-9-9T15:58:14Z</time></trkpt>
<trkpt lat="46.415619207546115" lon="7.098696827888489"><ele></ele><time>2013-9-9T15:58:17Z</time></trkpt>
<trkpt lat="46.415610825642943" lon="7.098685093224049"><ele></ele><time>2013-9-9T15:58:20Z</time></trkpt>
<trkpt lat="46.415601940825582" lon="7.098675537854433"><ele></ele><time>2013-9-9T15:58:23Z</time></trkpt>
<trkpt lat="46.415590960532427" lon="7.098665311932564"><ele></ele><time>2013-9-9T15:58:26Z</time></trkpt>
<trkpt lat="46.415479397401214" lon="7.098554084077478"><ele></ele><time>2013-9-9T15:58:29Z</time></trkpt>
<trkpt lat="46.415450312197208" lon="7.098521310836077"><ele></ele><time>2013-9-9T15:58:32Z</time></trkpt>
<trkpt lat="46.415432374924421" lon="7.098505049943924"><ele></ele><time>2013-9-9T15:58:35Z</time></trkpt>
<trkpt lat="46.415415024384856" lon="7.098490130156279"><ele></ele><time>2013-9-9T15:58:38Z</time></trkpt>
<trkpt lat="46.415401864796877" lon="7.098479149863124"><ele></ele><time>2013-9-9T15:58:41Z</time></trkpt>
<trkpt lat="46.415389040485024" lon="7.09846917539835"><ele></ele><time>2013-9-9T15:58:44Z</time></trkpt>
<trkpt lat="46.415364816784859" lon="7.098447298631072"><ele></ele><time>2013-9-9T15:58:47Z</time></trkpt>
<trkpt lat="46.415256941691041" lon="7.098305560648441"><ele></ele><time>2013-9-9T15:58:50Z</time></trkpt>
<trkpt lat="46.415246464312077" lon="7.098295167088509"><ele></ele><time>2013-9-9T15:58:53Z</time></trkpt>
<trkpt lat="46.415236657485366" lon="7.098287623375654"><ele></ele><time>2013-9-9T15:58:56Z</time></trkpt>
<trkpt lat="46.415227688848972" lon="7.098279157653451"><ele></ele><time>2013-9-9T15:58:59Z</time></trkpt>
<trkpt lat="46.415219223126769" lon="7.098270189017057"><ele></ele><time>2013-9-9T15:59:2Z</time></trkpt>
<trkpt lat="46.415178654715419" lon="7.098206151276827"><ele></ele><time>2013-9-9T15:59:5Z</time></trkpt>
<trkpt lat="46.415076814591885" lon="7.09807681851089"><ele></ele><time>2013-9-9T15:59:8Z</time></trkpt>
<trkpt lat="46.415058122947812" lon="7.09805871360004"><ele></ele><time>2013-9-9T15:59:11Z</time></trkpt>
<trkpt lat="46.415040856227279" lon="7.09804161451757"><ele></ele><time>2013-9-9T15:59:14Z</time></trkpt>
<trkpt lat="46.415027193725109" lon="7.098028622567654"><ele></ele><time>2013-9-9T15:59:17Z</time></trkpt>
<trkpt lat="46.415011687204242" lon="7.098014708608389"><ele></ele><time>2013-9-9T15:59:20Z</time></trkpt>
<trkpt lat="46.414923090487719" lon="7.097920998930931"><ele></ele><time>2013-9-9T15:59:23Z</time></trkpt>
<trkpt lat="46.414894089102745" lon="7.097894763574004"><ele></ele><time>2013-9-9T15:59:26Z</time></trkpt>
<trkpt lat="46.414880510419607" lon="7.09787649102509"><ele></ele><time>2013-9-9T15:59:29Z</time></trkpt>
<trkpt lat="46.414868524298072" lon="7.097857631742954"><ele></ele><time>2013-9-9T15:59:32Z</time></trkpt>
<trkpt lat="46.414853604510427" lon="7.097841957584024"><ele></ele><time>2013-9-9T15:59:35Z</time></trkpt>
<trkpt lat="46.41483960673213" lon="7.09782955236733"><ele></ele><time>2013-9-9T15:59:38Z</time></trkpt>
<trkpt lat="46.414808090776205" lon="7.097795438021421"><ele></ele><time>2013-9-9T15:59:41Z</time></trkpt>
<trkpt lat="46.414704071357846" lon="7.097669877111912"><ele></ele><time>2013-9-9T15:59:44Z</time></trkpt>
<trkpt lat="46.414688229560852" lon="7.097649676725268"><ele></ele><time>2013-9-9T15:59:47Z</time></trkpt>
<trkpt lat="46.414675572887063" lon="7.097632996737957"><ele></ele><time>2013-9-9T15:59:50Z</time></trkpt>
<trkpt lat="46.414662497118115" lon="7.097617825493217"><ele></ele><time>2013-9-9T15:59:53Z</time></trkpt>
<trkpt lat="46.414650427177548" lon="7.097600810229778"><ele></ele><time>2013-9-9T15:59:56Z</time></trkpt>
<trkpt lat="46.414563087746501" lon="7.097511207684875"><ele></ele><time>2013-9-9T15:59:59Z</time></trkpt>
<trkpt lat="46.41454791650176" lon="7.097500646486878"><ele></ele><time>2013-9-9T16:0:2Z</time></trkpt>
<trkpt lat="46.414530733600259" lon="7.09748949855566"><ele></ele><time>2013-9-9T16:0:5Z</time></trkpt>
<trkpt lat="46.414514472708106" lon="7.097477344796062"><ele></ele><time>2013-9-9T16:0:8Z</time></trkpt>
<trkpt lat="46.414496283978224" lon="7.097466615960002"><ele></ele><time>2013-9-9T16:0:11Z</time></trkpt>
<trkpt lat="46.414348930120468" lon="7.097363853827119"><ele></ele><time>2013-9-9T16:0:14Z</time></trkpt>
<trkpt lat="46.414331579580903" lon="7.097350275143981"><ele></ele><time>2013-9-9T16:0:17Z</time></trkpt>
<trkpt lat="46.414315653964877" lon="7.097338037565351"><ele></ele><time>2013-9-9T16:0:20Z</time></trkpt>
<trkpt lat="46.414298973977566" lon="7.097325464710593"><ele></ele><time>2013-9-9T16:0:23Z</time></trkpt>
<trkpt lat="46.414279863238335" lon="7.097317585721612"><ele></ele><time>2013-9-9T16:0:26Z</time></trkpt>
<trkpt lat="46.414168551564217" lon="7.097257906571031"><ele></ele><time>2013-9-9T16:0:29Z</time></trkpt>
<trkpt lat="46.414121361449361" lon="7.097229659557343"><ele></ele><time>2013-9-9T16:0:32Z</time></trkpt>
<trkpt lat="46.414105938747525" lon="7.09721683524549"><ele></ele><time>2013-9-9T16:0:35Z</time></trkpt>
<trkpt lat="46.4140934497118" lon="7.097203591838479"><ele></ele><time>2013-9-9T16:0:38Z</time></trkpt>
<trkpt lat="46.414080457761884" lon="7.097189761698246"><ele></ele><time>2013-9-9T16:0:41Z</time></trkpt>
<trkpt lat="46.41406905837357" lon="7.097178194671869"><ele></ele><time>2013-9-9T16:0:44Z</time></trkpt>
<trkpt lat="46.414004182443023" lon="7.097123879939318"><ele></ele><time>2013-9-9T16:0:47Z</time></trkpt>
<trkpt lat="46.413961853832006" lon="7.097092783078551"><ele></ele><time>2013-9-9T16:0:50Z</time></trkpt>
<trkpt lat="46.413948191329837" lon="7.097081216052175"><ele></ele><time>2013-9-9T16:0:53Z</time></trkpt>
<trkpt lat="46.413934277370572" lon="7.097070571035147"><ele></ele><time>2013-9-9T16:0:56Z</time></trkpt>
<trkpt lat="46.41392195597291" lon="7.097064116969705"><ele></ele><time>2013-9-9T16:0:59Z</time></trkpt>
<trkpt lat="46.413906449452043" lon="7.097057495266199"><ele></ele><time>2013-9-9T16:1:2Z</time></trkpt>
<trkpt lat="46.413875687867403" lon="7.097047185525298"><ele></ele><time>2013-9-9T16:1:5Z</time></trkpt>
<trkpt lat="46.413785582408309" lon="7.096959510818124"><ele></ele><time>2013-9-9T16:1:8Z</time></trkpt>
<trkpt lat="46.413766806945205" lon="7.096941070631146"><ele></ele><time>2013-9-9T16:1:11Z</time></trkpt>
<trkpt lat="46.41375046223402" lon="7.096925228834152"><ele></ele><time>2013-9-9T16:1:14Z</time></trkpt>
<trkpt lat="46.413736883550882" lon="7.096908884122968"><ele></ele><time>2013-9-9T16:1:17Z</time></trkpt>
<trkpt lat="46.413720203563571" lon="7.096891365945339"><ele></ele><time>2013-9-9T16:1:20Z</time></trkpt>
<trkpt lat="46.4136150944978" lon="7.096786927431822"><ele></ele><time>2013-9-9T16:1:23Z</time></trkpt>
<trkpt lat="46.413531610742211" lon="7.096738815307617"><ele></ele><time>2013-9-9T16:1:26Z</time></trkpt>
<trkpt lat="46.413514511659741" lon="7.09673160687089"><ele></ele><time>2013-9-9T16:1:29Z</time></trkpt>
<trkpt lat="46.413499340415001" lon="7.096724398434162"><ele></ele><time>2013-9-9T16:1:32Z</time></trkpt>
<trkpt lat="46.413486767560244" lon="7.096719620749354"><ele></ele><time>2013-9-9T16:1:35Z</time></trkpt>
<trkpt lat="46.413470171391964" lon="7.096712663769722"><ele></ele><time>2013-9-9T16:1:38Z</time></trkpt>
<trkpt lat="46.413389453664422" lon="7.096695648506284"><ele></ele><time>2013-9-9T16:1:41Z</time></trkpt>
<trkpt lat="46.413359362632036" lon="7.096690451726317"><ele></ele><time>2013-9-9T16:1:44Z</time></trkpt>
<trkpt lat="46.413345616310835" lon="7.096689781174064"><ele></ele><time>2013-9-9T16:1:47Z</time></trkpt>
<trkpt lat="46.413326170295477" lon="7.096684752032161"><ele></ele><time>2013-9-9T16:1:50Z</time></trkpt>
<trkpt lat="46.413308819755912" lon="7.096677124500275"><ele></ele><time>2013-9-9T16:1:53Z</time></trkpt>
<trkpt lat="46.413289960473776" lon="7.096672682091594"><ele></ele><time>2013-9-9T16:1:56Z</time></trkpt>
<trkpt lat="46.41326766461134" lon="7.096671173349023"><ele></ele><time>2013-9-9T16:1:59Z</time></trkpt>
<trkpt lat="46.413152245804667" lon="7.096620546653867"><ele></ele><time>2013-9-9T16:2:2Z</time></trkpt>
<trkpt lat="46.413113437592983" lon="7.096597412601113"><ele></ele><time>2013-9-9T16:2:5Z</time></trkpt>
<trkpt lat="46.413100780919194" lon="7.096590623259544"><ele></ele><time>2013-9-9T16:2:8Z</time></trkpt>
<trkpt lat="46.413087453693151" lon="7.096582744270563"><ele></ele><time>2013-9-9T16:2:11Z</time></trkpt>
<trkpt lat="46.413073875010014" lon="7.096576625481248"><ele></ele><time>2013-9-9T16:2:14Z</time></trkpt>
<trkpt lat="46.41306197270751" lon="7.096567321568728"><ele></ele><time>2013-9-9T16:2:17Z</time></trkpt>
<trkpt lat="46.412978824228048" lon="7.096506552770734"><ele></ele><time>2013-9-9T16:2:20Z</time></trkpt>
<trkpt lat="46.412927694618702" lon="7.096478389576078"><ele></ele><time>2013-9-9T16:2:23Z</time></trkpt>
<trkpt lat="46.412909673526883" lon="7.096467828378081"><ele></ele><time>2013-9-9T16:2:26Z</time></trkpt>
<trkpt lat="46.412895005196333" lon="7.096460787579417"><ele></ele><time>2013-9-9T16:2:29Z</time></trkpt>
<trkpt lat="46.412880420684814" lon="7.096449891105294"><ele></ele><time>2013-9-9T16:2:32Z</time></trkpt>
<trkpt lat="46.412866674363613" lon="7.096438156440854"><ele></ele><time>2013-9-9T16:2:35Z</time></trkpt>
<trkpt lat="46.412800624966621" lon="7.096405802294612"><ele></ele><time>2013-9-9T16:2:38Z</time></trkpt>
<trkpt lat="46.412712531164289" lon="7.09636171348393"><ele></ele><time>2013-9-9T16:2:41Z</time></trkpt>
<trkpt lat="46.412697108462453" lon="7.096351571381092"><ele></ele><time>2013-9-9T16:2:44Z</time></trkpt>
<trkpt lat="46.412680093199015" lon="7.096342518925667"><ele></ele><time>2013-9-9T16:2:47Z</time></trkpt>
<trkpt lat="46.41266374848783" lon="7.096330365166068"><ele></ele><time>2013-9-9T16:2:50Z</time></trkpt>
<trkpt lat="46.412645392119884" lon="7.096316954120994"><ele></ele><time>2013-9-9T16:2:53Z</time></trkpt>
<trkpt lat="46.412530727684498" lon="7.096210923045874"><ele></ele><time>2013-9-9T16:2:56Z</time></trkpt>
<trkpt lat="46.412435928359628" lon="7.096147974953055"><ele></ele><time>2013-9-9T16:2:59Z</time></trkpt>
<trkpt lat="46.412416147068143" lon="7.096134312450886"><ele></ele><time>2013-9-9T16:3:2Z</time></trkpt>
<trkpt lat="46.412393180653453" lon="7.09612475708127"><ele></ele><time>2013-9-9T16:3:5Z</time></trkpt>
<trkpt lat="46.412369627505541" lon="7.09611352533102"><ele></ele><time>2013-9-9T16:3:8Z</time></trkpt>
<trkpt lat="46.412351103499532" lon="7.096102209761739"><ele></ele><time>2013-9-9T16:3:11Z</time></trkpt>
<trkpt lat="46.412256136536598" lon="7.096031969413161"><ele></ele><time>2013-9-9T16:3:14Z</time></trkpt>
<trkpt lat="46.412165025249124" lon="7.09595812484622"><ele></ele><time>2013-9-9T16:3:17Z</time></trkpt>
<trkpt lat="46.412148848176003" lon="7.095946641638875"><ele></ele><time>2013-9-9T16:3:20Z</time></trkpt>
<trkpt lat="46.412132503464818" lon="7.095934739336371"><ele></ele><time>2013-9-9T16:3:23Z</time></trkpt>
<trkpt lat="46.412113308906555" lon="7.095919651910663"><ele></ele><time>2013-9-9T16:3:26Z</time></trkpt>
<trkpt lat="46.412092940881848" lon="7.095907665789127"><ele></ele><time>2013-9-9T16:3:29Z</time></trkpt>
<trkpt lat="46.41198355704546" lon="7.095888303592801"><ele></ele><time>2013-9-9T16:3:32Z</time></trkpt>
<trkpt lat="46.411819439381361" lon="7.095895344391465"><ele></ele><time>2013-9-9T16:3:35Z</time></trkpt>
<trkpt lat="46.411594552919269" lon="7.095973882824183"><ele></ele><time>2013-9-9T16:3:38Z</time></trkpt>
<trkpt lat="46.411469243466854" lon="7.096027778461576"><ele></ele><time>2013-9-9T16:3:41Z</time></trkpt>
<trkpt lat="46.411423226818442" lon="7.096046470105648"><ele></ele><time>2013-9-9T16:3:44Z</time></trkpt>
<trkpt lat="46.411376120522618" lon="7.096065748482943"><ele></ele><time>2013-9-9T16:3:47Z</time></trkpt>
<trkpt lat="46.411332115530968" lon="7.096084943041205"><ele></ele><time>2013-9-9T16:3:50Z</time></trkpt>
<trkpt lat="46.411251900717616" lon="7.096117297187448"><ele></ele><time>2013-9-9T16:3:53Z</time></trkpt>
<trkpt lat="46.410953588783741" lon="7.096222238615155"><ele></ele><time>2013-9-9T16:3:56Z</time></trkpt>
<trkpt lat="46.410812772810459" lon="7.096263309940696"><ele></ele><time>2013-9-9T16:3:59Z</time></trkpt>
<trkpt lat="46.410609595477581" lon="7.09631871432066"><ele></ele><time>2013-9-9T16:4:2Z</time></trkpt>
<trkpt lat="46.41055385582149" lon="7.096331035718322"><ele></ele><time>2013-9-9T16:4:5Z</time></trkpt>
<trkpt lat="46.410495098680258" lon="7.096338663250208"><ele></ele><time>2013-9-9T16:4:8Z</time></trkpt>
<trkpt lat="46.410435168072581" lon="7.096348972991109"><ele></ele><time>2013-9-9T16:4:11Z</time></trkpt>
<trkpt lat="46.410373477265239" lon="7.096362300217152"><ele></ele><time>2013-9-9T16:4:14Z</time></trkpt>
<trkpt lat="46.410312876105309" lon="7.096375292167068"><ele></ele><time>2013-9-9T16:4:17Z</time></trkpt>
<trkpt lat="46.410250766202807" lon="7.096390882506967"><ele></ele><time>2013-9-9T16:4:20Z</time></trkpt>
<trkpt lat="46.410184716805816" lon="7.096407059580088"><ele></ele><time>2013-9-9T16:4:23Z</time></trkpt>
<trkpt lat="46.410118918865919" lon="7.096421727910638"><ele></ele><time>2013-9-9T16:4:26Z</time></trkpt>
<trkpt lat="46.41005395911634" lon="7.096435390412808"><ele></ele><time>2013-9-9T16:4:29Z</time></trkpt>
<trkpt lat="46.409992268308997" lon="7.096445700153709"><ele></ele><time>2013-9-9T16:4:32Z</time></trkpt>
<trkpt lat="46.409930577501655" lon="7.096460536122322"><ele></ele><time>2013-9-9T16:4:35Z</time></trkpt>
<trkpt lat="46.409869221970439" lon="7.096482580527663"><ele></ele><time>2013-9-9T16:4:38Z</time></trkpt>
<trkpt lat="46.409812057390809" lon="7.096517197787762"><ele></ele><time>2013-9-9T16:4:41Z</time></trkpt>
<trkpt lat="46.409757155925035" lon="7.096563968807459"><ele></ele><time>2013-9-9T16:4:44Z</time></trkpt>
<trkpt lat="46.409708457067609" lon="7.096618367359042"><ele></ele><time>2013-9-9T16:4:47Z</time></trkpt>
<trkpt lat="46.409635785967112" lon="7.096734708175063"><ele></ele><time>2013-9-9T16:4:50Z</time></trkpt>
<trkpt lat="46.40960737131536" lon="7.096785167232156"><ele></ele><time>2013-9-9T16:4:53Z</time></trkpt>
<trkpt lat="46.409581890329719" lon="7.096836632117629"><ele></ele><time>2013-9-9T16:4:56Z</time></trkpt>
<trkpt lat="46.409465381875634" lon="7.097027823328972"><ele></ele><time>2013-9-9T16:4:59Z</time></trkpt>
<trkpt lat="46.409258767962456" lon="7.097102757543325"><ele></ele><time>2013-9-9T16:5:2Z</time></trkpt>
<trkpt lat="46.40897898003459" lon="7.097147181630135"><ele></ele><time>2013-9-9T16:5:5Z</time></trkpt>
<trkpt lat="46.408932963386178" lon="7.09715279750526"><ele></ele><time>2013-9-9T16:5:8Z</time></trkpt>
<trkpt lat="46.408884264528751" lon="7.097156317904592"><ele></ele><time>2013-9-9T16:5:11Z</time></trkpt>
<trkpt lat="46.408831793814898" lon="7.097155898809433"><ele></ele><time>2013-9-9T16:5:14Z</time></trkpt>
<trkpt lat="46.408779071643949" lon="7.09715573117137"><ele></ele><time>2013-9-9T16:5:17Z</time></trkpt>
<trkpt lat="46.408658791333437" lon="7.097157407552004"><ele></ele><time>2013-9-9T16:5:20Z</time></trkpt>
<trkpt lat="46.408595256507397" lon="7.097159251570702"><ele></ele><time>2013-9-9T16:5:23Z</time></trkpt>
<trkpt lat="46.408526273444295" lon="7.097164699807763"><ele></ele><time>2013-9-9T16:5:26Z</time></trkpt>
<trkpt lat="46.408455530181527" lon="7.097173165529966"><ele></ele><time>2013-9-9T16:5:29Z</time></trkpt>
<trkpt lat="46.408382942900062" lon="7.097190180793405"><ele></ele><time>2013-9-9T16:5:32Z</time></trkpt>
<trkpt lat="46.408307086676359" lon="7.097219014540315"><ele></ele><time>2013-9-9T16:5:35Z</time></trkpt>
<trkpt lat="46.408231062814593" lon="7.097255643457174"><ele></ele><time>2013-9-9T16:5:38Z</time></trkpt>
<trkpt lat="46.408148584887385" lon="7.097304929047823"><ele></ele><time>2013-9-9T16:5:41Z</time></trkpt>
<trkpt lat="46.40807650052011" lon="7.097367960959673"><ele></ele><time>2013-9-9T16:5:44Z</time></trkpt>
<trkpt lat="46.408017827197909" lon="7.097453372552991"><ele></ele><time>2013-9-9T16:5:47Z</time></trkpt>
<trkpt lat="46.407977426424623" lon="7.097552279010415"><ele></ele><time>2013-9-9T16:5:50Z</time></trkpt>
<trkpt lat="46.407948508858681" lon="7.097654957324266"><ele></ele><time>2013-9-9T16:5:53Z</time></trkpt>
<trkpt lat="46.407926715910435" lon="7.09776408970356"><ele></ele><time>2013-9-9T16:5:56Z</time></trkpt>
<trkpt lat="46.407876843586564" lon="7.098133815452457"><ele></ele><time>2013-9-9T16:5:59Z</time></trkpt>
<trkpt lat="46.407876843586564" lon="7.098133815452457"><ele></ele><time>2013-9-9T16:6:2Z</time></trkpt>
<trkpt lat="46.407861756160855" lon="7.098263734951615"><ele></ele><time>2013-9-9T16:6:5Z</time></trkpt>
<trkpt lat="46.407848261296749" lon="7.098391726613045"><ele></ele><time>2013-9-9T16:6:8Z</time></trkpt>
<trkpt lat="46.407843232154846" lon="7.09852340631187"><ele></ele><time>2013-9-9T16:6:11Z</time></trkpt>
<trkpt lat="46.407853709533811" lon="7.098655588924885"><ele></ele><time>2013-9-9T16:6:14Z</time></trkpt>
<trkpt lat="46.407886063680053" lon="7.098787855356932"><ele></ele><time>2013-9-9T16:6:17Z</time></trkpt>
<trkpt lat="46.407929314300418" lon="7.09892163053155"><ele></ele><time>2013-9-9T16:6:20Z</time></trkpt>
<trkpt lat="46.407980276271701" lon="7.099067559465766"><ele></ele><time>2013-9-9T16:6:23Z</time></trkpt>
<trkpt lat="46.408036854118109" lon="7.099209800362587"><ele></ele><time>2013-9-9T16:6:26Z</time></trkpt>
<trkpt lat="46.408101310953498" lon="7.099351705983281"><ele></ele><time>2013-9-9T16:6:29Z</time></trkpt>
<trkpt lat="46.408169455826283" lon="7.099492438137531"><ele></ele><time>2013-9-9T16:6:32Z</time></trkpt>
<trkpt lat="46.408240450546145" lon="7.099626129493117"><ele></ele><time>2013-9-9T16:6:35Z</time></trkpt>
<trkpt lat="46.408310439437628" lon="7.099754959344864"><ele></ele><time>2013-9-9T16:6:38Z</time></trkpt>
<trkpt lat="46.408375399187207" lon="7.099875994026661"><ele></ele><time>2013-9-9T16:6:41Z</time></trkpt>
<trkpt lat="46.408428540453315" lon="7.099985629320145"><ele></ele><time>2013-9-9T16:6:44Z</time></trkpt>
<trkpt lat="46.408467935398221" lon="7.100078333169222"><ele></ele><time>2013-9-9T16:6:47Z</time></trkpt>
<trkpt lat="46.408497858792543" lon="7.100150501355529"><ele></ele><time>2013-9-9T16:6:50Z</time></trkpt>
<trkpt lat="46.40851529315114" lon="7.100219484418631"><ele></ele><time>2013-9-9T16:6:53Z</time></trkpt>
<trkpt lat="46.408518729731441" lon="7.100298777222633"><ele></ele><time>2013-9-9T16:6:56Z</time></trkpt>
<trkpt lat="46.408498445525765" lon="7.100475719198585"><ele></ele><time>2013-9-9T16:6:59Z</time></trkpt>
<trkpt lat="46.40847522765398" lon="7.100573536008596"><ele></ele><time>2013-9-9T16:7:2Z</time></trkpt>
<trkpt lat="46.408442789688706" lon="7.100671604275703"><ele></ele><time>2013-9-9T16:7:5Z</time></trkpt>
<trkpt lat="46.408399874344468" lon="7.100773192942143"><ele></ele><time>2013-9-9T16:7:8Z</time></trkpt>
<trkpt lat="46.408351929858327" lon="7.100867237895727"><ele></ele><time>2013-9-9T16:7:11Z</time></trkpt>
<trkpt lat="46.408300548791885" lon="7.100962037220597"><ele></ele><time>2013-9-9T16:7:14Z</time></trkpt>
<trkpt lat="46.408246904611588" lon="7.101057590916753"><ele></ele><time>2013-9-9T16:7:17Z</time></trkpt>
<trkpt lat="46.408193511888385" lon="7.101157503202558"><ele></ele><time>2013-9-9T16:7:20Z</time></trkpt>
<trkpt lat="46.40813902951777" lon="7.101261606439948"><ele></ele><time>2013-9-9T16:7:23Z</time></trkpt>
<trkpt lat="46.408085636794567" lon="7.101375516504049"><ele></ele><time>2013-9-9T16:7:26Z</time></trkpt>
<trkpt lat="46.408043811097741" lon="7.101500825956464"><ele></ele><time>2013-9-9T16:7:29Z</time></trkpt>
<trkpt lat="46.408007936552167" lon="7.101629991084337"><ele></ele><time>2013-9-9T16:7:32Z</time></trkpt>
<trkpt lat="46.40797583386302" lon="7.101748511195183"><ele></ele><time>2013-9-9T16:7:35Z</time></trkpt>
<trkpt lat="46.407945994287729" lon="7.101861163973808"><ele></ele><time>2013-9-9T16:7:38Z</time></trkpt>
<trkpt lat="46.407923279330134" lon="7.101969206705689"><ele></ele><time>2013-9-9T16:7:41Z</time></trkpt>
<trkpt lat="46.407906766980886" lon="7.102074399590492"><ele></ele><time>2013-9-9T16:7:44Z</time></trkpt>
<trkpt lat="46.407894948497415" lon="7.102175820618868"><ele></ele><time>2013-9-9T16:7:47Z</time></trkpt>
<trkpt lat="46.407882627099752" lon="7.102266764268279"><ele></ele><time>2013-9-9T16:7:50Z</time></trkpt>
<trkpt lat="46.407871898263693" lon="7.102349074557424"><ele></ele><time>2013-9-9T16:7:53Z</time></trkpt>
<trkpt lat="46.407863097265363" lon="7.10242023691535"><ele></ele><time>2013-9-9T16:7:56Z</time></trkpt>
<trkpt lat="46.407855469733477" lon="7.102486537769437"><ele></ele><time>2013-9-9T16:7:59Z</time></trkpt>
<trkpt lat="46.407846249639988" lon="7.102549318224192"><ele></ele><time>2013-9-9T16:8:2Z</time></trkpt>
<trkpt lat="46.407830491662025" lon="7.102605812251568"><ele></ele><time>2013-9-9T16:8:5Z</time></trkpt>
<trkpt lat="46.407815823331475" lon="7.102660546079278"><ele></ele><time>2013-9-9T16:8:8Z</time></trkpt>
<trkpt lat="46.407788917422295" lon="7.10277646780014"><ele></ele><time>2013-9-9T16:8:11Z</time></trkpt>
<trkpt lat="46.407718760892749" lon="7.103075534105301"><ele></ele><time>2013-9-9T16:8:14Z</time></trkpt>
<trkpt lat="46.40770853497088" lon="7.103132866322994"><ele></ele><time>2013-9-9T16:8:17Z</time></trkpt>
<trkpt lat="46.407697554677725" lon="7.103187935426831"><ele></ele><time>2013-9-9T16:8:20Z</time></trkpt>
<trkpt lat="46.407685149461031" lon="7.103242836892605"><ele></ele><time>2013-9-9T16:8:23Z</time></trkpt>
<trkpt lat="46.407668301835656" lon="7.103290697559714"><ele></ele><time>2013-9-9T16:8:26Z</time></trkpt>
<trkpt lat="46.40760937705636" lon="7.103480380028486"><ele></ele><time>2013-9-9T16:8:29Z</time></trkpt>
<trkpt lat="46.407597810029984" lon="7.103527151048183"><ele></ele><time>2013-9-9T16:8:32Z</time></trkpt>
<trkpt lat="46.407588506117463" lon="7.103577023372054"><ele></ele><time>2013-9-9T16:8:35Z</time></trkpt>
<trkpt lat="46.407578028738499" lon="7.103626560419798"><ele></ele><time>2013-9-9T16:8:38Z</time></trkpt>
<trkpt lat="46.407568473368883" lon="7.103667045012116"><ele></ele><time>2013-9-9T16:8:41Z</time></trkpt>
<trkpt lat="46.407527569681406" lon="7.103862259536982"><ele></ele><time>2013-9-9T16:8:44Z</time></trkpt>
<trkpt lat="46.407520696520805" lon="7.103903498500586"><ele></ele><time>2013-9-9T16:8:47Z</time></trkpt>
<trkpt lat="46.407512985169888" lon="7.103940797969699"><ele></ele><time>2013-9-9T16:8:50Z</time></trkpt>
<trkpt lat="46.407505357638001" lon="7.103976085782051"><ele></ele><time>2013-9-9T16:8:53Z</time></trkpt>
<trkpt lat="46.407470488920808" lon="7.104152776300907"><ele></ele><time>2013-9-9T16:8:56Z</time></trkpt>
<trkpt lat="46.407444505020976" lon="7.104265680536628"><ele></ele><time>2013-9-9T16:8:59Z</time></trkpt>
<trkpt lat="46.407434614375234" lon="7.104302477091551"><ele></ele><time>2013-9-9T16:9:2Z</time></trkpt>
<trkpt lat="46.40742321498692" lon="7.104339106008411"><ele></ele><time>2013-9-9T16:9:5Z</time></trkpt>
<trkpt lat="46.407411228865385" lon="7.104375315830112"><ele></ele><time>2013-9-9T16:9:8Z</time></trkpt>
<trkpt lat="46.40739731490612" lon="7.10440993309021"><ele></ele><time>2013-9-9T16:9:11Z</time></trkpt>
<trkpt lat="46.407356830313802" lon="7.104497104883194"><ele></ele><time>2013-9-9T16:9:14Z</time></trkpt>
<trkpt lat="46.407245770096779" lon="7.104596346616745"><ele></ele><time>2013-9-9T16:9:17Z</time></trkpt>
<trkpt lat="46.40719941817224" lon="7.104585282504559"><ele></ele><time>2013-9-9T16:9:20Z</time></trkpt>
<trkpt lat="46.407173937186599" lon="7.104583270847797"><ele></ele><time>2013-9-9T16:9:23Z</time></trkpt>
<trkpt lat="46.407148540019989" lon="7.104580421000719"><ele></ele><time>2013-9-9T16:9:26Z</time></trkpt>
<trkpt lat="46.40712364576757" lon="7.104577906429768"><ele></ele><time>2013-9-9T16:9:29Z</time></trkpt>
<trkpt lat="46.407074108719826" lon="7.104574050754309"><ele></ele><time>2013-9-9T16:9:32Z</time></trkpt>
<trkpt lat="46.406918959692121" lon="7.104644123464823"><ele></ele><time>2013-9-9T16:9:35Z</time></trkpt>
<trkpt lat="46.406896999105811" lon="7.104657283052802"><ele></ele><time>2013-9-9T16:9:38Z</time></trkpt>
<trkpt lat="46.406875709071755" lon="7.104669436812401"><ele></ele><time>2013-9-9T16:9:41Z</time></trkpt>
<trkpt lat="46.406855257228017" lon="7.104686871170998"><ele></ele><time>2013-9-9T16:9:44Z</time></trkpt>
<trkpt lat="46.40683488920331" lon="7.104707239195705"><ele></ele><time>2013-9-9T16:9:47Z</time></trkpt>
<trkpt lat="46.406716536730528" lon="7.104849060997367"><ele></ele><time>2013-9-9T16:9:50Z</time></trkpt>
<trkpt lat="46.406647972762585" lon="7.104956181719899"><ele></ele><time>2013-9-9T16:9:53Z</time></trkpt>
<trkpt lat="46.40663112513721" lon="7.104982249438763"><ele></ele><time>2013-9-9T16:9:56Z</time></trkpt>
<trkpt lat="46.406613439321518" lon="7.10500655695796"><ele></ele><time>2013-9-9T16:9:59Z</time></trkpt>
<trkpt lat="46.406595585867763" lon="7.105027176439762"><ele></ele><time>2013-9-9T16:10:2Z</time></trkpt>
<trkpt lat="46.406531883403659" lon="7.105078222230077"><ele></ele><time>2013-9-9T16:10:5Z</time></trkpt>
<trkpt lat="46.406380422413349" lon="7.105079814791679"><ele></ele><time>2013-9-9T16:10:8Z</time></trkpt>
<trkpt lat="46.406358797103167" lon="7.105068499222398"><ele></ele><time>2013-9-9T16:10:11Z</time></trkpt>
<trkpt lat="46.40633650124073" lon="7.105054166167975"><ele></ele><time>2013-9-9T16:10:14Z</time></trkpt>
<trkpt lat="46.406316217035055" lon="7.105037737637758"><ele></ele><time>2013-9-9T16:10:17Z</time></trkpt>
<trkpt lat="46.406298279762268" lon="7.105016866698861"><ele></ele><time>2013-9-9T16:10:20Z</time></trkpt>
<trkpt lat="46.406255029141903" lon="7.104948638007045"><ele></ele><time>2013-9-9T16:10:23Z</time></trkpt>
<trkpt lat="46.406214041635394" lon="7.104843948036432"><ele></ele><time>2013-9-9T16:10:26Z</time></trkpt>
<trkpt lat="46.406209263950586" lon="7.10481159389019"><ele></ele><time>2013-9-9T16:10:29Z</time></trkpt>
<trkpt lat="46.406205827370286" lon="7.104779910296202"><ele></ele><time>2013-9-9T16:10:32Z</time></trkpt>
<trkpt lat="46.406201887875795" lon="7.104748142883182"><ele></ele><time>2013-9-9T16:10:35Z</time></trkpt>
<trkpt lat="46.406196607276797" lon="7.104717381298542"><ele></ele><time>2013-9-9T16:10:38Z</time></trkpt>
<trkpt lat="46.40615520067513" lon="7.104443041607738"><ele></ele><time>2013-9-9T16:10:41Z</time></trkpt>
<trkpt lat="46.406144388020039" lon="7.104412699118257"><ele></ele><time>2013-9-9T16:10:44Z</time></trkpt>
<trkpt lat="46.406130809336901" lon="7.104383446276188"><ele></ele><time>2013-9-9T16:10:47Z</time></trkpt>
<trkpt lat="46.406115721911192" lon="7.104354780167341"><ele></ele><time>2013-9-9T16:10:50Z</time></trkpt>
<trkpt lat="46.406102059409022" lon="7.104327287524939"><ele></ele><time>2013-9-9T16:10:53Z</time></trkpt>
<trkpt lat="46.406017066910863" lon="7.104196026921272"><ele></ele><time>2013-9-9T16:10:56Z</time></trkpt>
<trkpt lat="46.405974067747593" lon="7.104160320013762"><ele></ele><time>2013-9-9T16:10:59Z</time></trkpt>
<trkpt lat="46.405949760228395" lon="7.104139532893896"><ele></ele><time>2013-9-9T16:11:2Z</time></trkpt>
<trkpt lat="46.405927967280149" lon="7.104118997231126"><ele></ele><time>2013-9-9T16:11:5Z</time></trkpt>
<trkpt lat="46.405902989208698" lon="7.104101562872529"><ele></ele><time>2013-9-9T16:11:8Z</time></trkpt>
<trkpt lat="46.405799807980657" lon="7.104050349444151"><ele></ele><time>2013-9-9T16:11:11Z</time></trkpt>
<trkpt lat="46.405526725575328" lon="7.103887069970369"><ele></ele><time>2013-9-9T16:11:14Z</time></trkpt>
<trkpt lat="46.405408876016736" lon="7.103751031681895"><ele></ele><time>2013-9-9T16:11:17Z</time></trkpt>
<trkpt lat="46.405385658144951" lon="7.103716330602765"><ele></ele><time>2013-9-9T16:11:20Z</time></trkpt>
<trkpt lat="46.405364200472832" lon="7.10368137806654"><ele></ele><time>2013-9-9T16:11:23Z</time></trkpt>
<trkpt lat="46.405343413352966" lon="7.10364525206387"><ele></ele><time>2013-9-9T16:11:26Z</time></trkpt>
<trkpt lat="46.405325727537274" lon="7.103608623147011"><ele></ele><time>2013-9-9T16:11:29Z</time></trkpt>
<trkpt lat="46.405234029516578" lon="7.103338139131665"><ele></ele><time>2013-9-9T16:11:32Z</time></trkpt>
<trkpt lat="46.405208213254809" lon="7.103256247937679"><ele></ele><time>2013-9-9T16:11:35Z</time></trkpt>
<trkpt lat="46.405198322609067" lon="7.103214925155044"><ele></ele><time>2013-9-9T16:11:38Z</time></trkpt>
<trkpt lat="46.405187258496881" lon="7.103174440562725"><ele></ele><time>2013-9-9T16:11:41Z</time></trkpt>
<trkpt lat="46.405173093080521" lon="7.103132950142026"><ele></ele><time>2013-9-9T16:11:44Z</time></trkpt>
<trkpt lat="46.405158592388034" lon="7.1030945610255"><ele></ele><time>2013-9-9T16:11:47Z</time></trkpt>
<trkpt lat="46.40508022159338" lon="7.102957600727677"><ele></ele><time>2013-9-9T16:11:50Z</time></trkpt>
<trkpt lat="46.40495172701776" lon="7.102834638208151"><ele></ele><time>2013-9-9T16:11:53Z</time></trkpt>
<trkpt lat="46.404924318194389" lon="7.102813767269254"><ele></ele><time>2013-9-9T16:11:56Z</time></trkpt>
<trkpt lat="46.40489649027586" lon="7.102796752005816"><ele></ele><time>2013-9-9T16:11:59Z</time></trkpt>
<trkpt lat="46.404866818338633" lon="7.102786526083946"><ele></ele><time>2013-9-9T16:12:2Z</time></trkpt>
<trkpt lat="46.404685098677874" lon="7.102762553840876"><ele></ele><time>2013-9-9T16:12:5Z</time></trkpt>
<trkpt lat="46.404324509203434" lon="7.102733636274934"><ele></ele><time>2013-9-9T16:12:8Z</time></trkpt>
<trkpt lat="46.40428033657372" lon="7.10273003205657"><ele></ele><time>2013-9-9T16:12:11Z</time></trkpt>
<trkpt lat="46.404234739020467" lon="7.102728355675936"><ele></ele><time>2013-9-9T16:12:14Z</time></trkpt>
<trkpt lat="46.404187716543674" lon="7.102728523313999"><ele></ele><time>2013-9-9T16:12:17Z</time></trkpt>
<trkpt lat="46.404148153960705" lon="7.102726008743048"><ele></ele><time>2013-9-9T16:12:20Z</time></trkpt>
<trkpt lat="46.40375847928226" lon="7.102675633504987"><ele></ele><time>2013-9-9T16:12:23Z</time></trkpt>
<trkpt lat="46.403483469039202" lon="7.102529956027865"><ele></ele><time>2013-9-9T16:12:26Z</time></trkpt>
<trkpt lat="46.403447594493628" lon="7.102500284090638"><ele></ele><time>2013-9-9T16:12:29Z</time></trkpt>
<trkpt lat="46.403413899242878" lon="7.102467929944396"><ele></ele><time>2013-9-9T16:12:32Z</time></trkpt>
<trkpt lat="46.403380455449224" lon="7.102436581626535"><ele></ele><time>2013-9-9T16:12:35Z</time></trkpt>
<trkpt lat="46.403346927836537" lon="7.102407328784466"><ele></ele><time>2013-9-9T16:12:38Z</time></trkpt>
<trkpt lat="46.403212649747729" lon="7.10229953750968"><ele></ele><time>2013-9-9T16:12:41Z</time></trkpt>
<trkpt lat="46.403055069968104" lon="7.102233152836561"><ele></ele><time>2013-9-9T16:12:44Z</time></trkpt>
<trkpt lat="46.403016345575452" lon="7.10222234018147"><ele></ele><time>2013-9-9T16:12:47Z</time></trkpt>
<trkpt lat="46.402977537363768" lon="7.102215047925711"><ele></ele><time>2013-9-9T16:12:50Z</time></trkpt>
<trkpt lat="46.402935460209846" lon="7.102211443707347"><ele></ele><time>2013-9-9T16:12:53Z</time></trkpt>
<trkpt lat="46.402474623173475" lon="7.10215151309967"><ele></ele><time>2013-9-9T16:12:56Z</time></trkpt>
<trkpt lat="46.402111435309052" lon="7.102186214178801"><ele></ele><time>2013-9-9T16:12:59Z</time></trkpt>
<trkpt lat="46.402070363983512" lon="7.102205576375127"><ele></ele><time>2013-9-9T16:13:2Z</time></trkpt>
<trkpt lat="46.402035159990191" lon="7.102229800075293"><ele></ele><time>2013-9-9T16:13:5Z</time></trkpt>
<trkpt lat="46.401997609063983" lon="7.102260645478964"><ele></ele><time>2013-9-9T16:13:8Z</time></trkpt>
<trkpt lat="46.40195838175714" lon="7.102296771481633"><ele></ele><time>2013-9-9T16:13:11Z</time></trkpt>
<trkpt lat="46.401916891336441" lon="7.102334741503"><ele></ele><time>2013-9-9T16:13:14Z</time></trkpt>
<trkpt lat="46.40180834569037" lon="7.102474300190806"><ele></ele><time>2013-9-9T16:13:17Z</time></trkpt>
<trkpt lat="46.401675324887037" lon="7.102659372612834"><ele></ele><time>2013-9-9T16:13:20Z</time></trkpt>
<trkpt lat="46.401561247184873" lon="7.102775126695633"><ele></ele><time>2013-9-9T16:13:23Z</time></trkpt>
<trkpt lat="46.401468794792891" lon="7.102823406457901"><ele></ele><time>2013-9-9T16:13:26Z</time></trkpt>
<trkpt lat="46.401424873620272" lon="7.102836901322007"><ele></ele><time>2013-9-9T16:13:29Z</time></trkpt>
<trkpt lat="46.401258744299412" lon="7.102823657914996"><ele></ele><time>2013-9-9T16:13:32Z</time></trkpt>
<trkpt lat="46.401051543653011" lon="7.102684937417507"><ele></ele><time>2013-9-9T16:13:35Z</time></trkpt>
<trkpt lat="46.401012651622295" lon="7.102654175832868"><ele></ele><time>2013-9-9T16:13:38Z</time></trkpt>
<trkpt lat="46.400975352153182" lon="7.102623581886292"><ele></ele><time>2013-9-9T16:13:41Z</time></trkpt>
<trkpt lat="46.400936795398593" lon="7.102596340700984"><ele></ele><time>2013-9-9T16:13:44Z</time></trkpt>
<trkpt lat="46.400694139301777" lon="7.102461392059922"><ele></ele><time>2013-9-9T16:13:47Z</time></trkpt>
<trkpt lat="46.400313936173916" lon="7.102402551099658"><ele></ele><time>2013-9-9T16:13:50Z</time></trkpt>
<trkpt lat="46.399974720552564" lon="7.102384865283966"><ele></ele><time>2013-9-9T16:13:53Z</time></trkpt>
<trkpt lat="46.399934403598309" lon="7.102384194731712"><ele></ele><time>2013-9-9T16:13:56Z</time></trkpt>
<trkpt lat="46.399894254282117" lon="7.102385116741061"><ele></ele><time>2013-9-9T16:13:59Z</time></trkpt>
<trkpt lat="46.39985335059464" lon="7.102385452017188"><ele></ele><time>2013-9-9T16:14:2Z</time></trkpt>
<trkpt lat="46.399598205462098" lon="7.102464744821191"><ele></ele><time>2013-9-9T16:14:5Z</time></trkpt>
<trkpt lat="46.399308443069458" lon="7.102656438946724"><ele></ele><time>2013-9-9T16:14:8Z</time></trkpt>
<trkpt lat="46.399261672049761" lon="7.102664904668927"><ele></ele><time>2013-9-9T16:14:11Z</time></trkpt>
<trkpt lat="46.399013567715883" lon="7.102615116164088"><ele></ele><time>2013-9-9T16:14:14Z</time></trkpt>
<trkpt lat="46.39896453358233" lon="7.1025834325701"><ele></ele><time>2013-9-9T16:14:17Z</time></trkpt>
<trkpt lat="46.398764960467815" lon="7.10242610424757"><ele></ele><time>2013-9-9T16:14:20Z</time></trkpt>
<trkpt lat="46.398452566936612" lon="7.102227369323373"><ele></ele><time>2013-9-9T16:14:23Z</time></trkpt>
<trkpt lat="46.398180825635791" lon="7.101932745426893"><ele></ele><time>2013-9-9T16:14:26Z</time></trkpt>
<trkpt lat="46.397904139012098" lon="7.101624207571149"><ele></ele><time>2013-9-9T16:14:29Z</time></trkpt>
<trkpt lat="46.397745637223125" lon="7.101519769057632"><ele></ele><time>2013-9-9T16:14:32Z</time></trkpt>
<trkpt lat="46.397616975009441" lon="7.101476015523076"><ele></ele><time>2013-9-9T16:14:35Z</time></trkpt>
<trkpt lat="46.397506669163704" lon="7.101450953632593"><ele></ele><time>2013-9-9T16:14:38Z</time></trkpt>
<trkpt lat="46.397466771304607" lon="7.101443996652961"><ele></ele><time>2013-9-9T16:14:41Z</time></trkpt>
<trkpt lat="46.397430226206779" lon="7.101435530930758"><ele></ele><time>2013-9-9T16:14:44Z</time></trkpt>
<trkpt lat="46.39739410020411" lon="7.101432010531426"><ele></ele><time>2013-9-9T16:14:47Z</time></trkpt>
<trkpt lat="46.397359566763043" lon="7.101434441283345"><ele></ele><time>2013-9-9T16:14:50Z</time></trkpt>
<trkpt lat="46.39721380546689" lon="7.101473165675998"><ele></ele><time>2013-9-9T16:14:53Z</time></trkpt>
<trkpt lat="46.3970095384866" lon="7.101550111547113"><ele></ele><time>2013-9-9T16:14:56Z</time></trkpt>
<trkpt lat="46.396747184917331" lon="7.101683216169477"><ele></ele><time>2013-9-9T16:14:59Z</time></trkpt>
<trkpt lat="46.396610392257571" lon="7.10176938213408"><ele></ele><time>2013-9-9T16:15:2Z</time></trkpt>
<trkpt lat="46.396440071985126" lon="7.101836940273643"><ele></ele><time>2013-9-9T16:15:5Z</time></trkpt>
<trkpt lat="46.39622088521719" lon="7.101940205320716"><ele></ele><time>2013-9-9T16:15:8Z</time></trkpt>
<trkpt lat="46.396053247153759" lon="7.102114632725716"><ele></ele><time>2013-9-9T16:15:11Z</time></trkpt>
<trkpt lat="46.396036567166448" lon="7.102229632437229"><ele></ele><time>2013-9-9T16:15:14Z</time></trkpt>
<trkpt lat="46.396079063415527" lon="7.102269781753421"><ele></ele><time>2013-9-9T16:15:17Z</time></trkpt>
<trkpt lat="46.396087277680635" lon="7.10227757692337"><ele></ele><time>2013-9-9T16:15:20Z</time></trkpt>
<trkpt lat="46.39603715389967" lon="7.102151932194829"><ele></ele><time>2013-9-9T16:15:23Z</time></trkpt>
<trkpt lat="46.39603715389967" lon="7.102151932194829"><ele></ele><time>2013-9-9T16:15:26Z</time></trkpt>
<trkpt lat="46.396029777824879" lon="7.102143634110689"><ele></ele><time>2013-9-9T16:15:29Z</time></trkpt>
<trkpt lat="46.395997842773795" lon="7.102126032114029"><ele></ele><time>2013-9-9T16:15:32Z</time></trkpt>
<trkpt lat="46.395939001813531" lon="7.102141370996833"><ele></ele><time>2013-9-9T16:15:35Z</time></trkpt>
<trkpt lat="46.395908994600177" lon="7.10216173902154"><ele></ele><time>2013-9-9T16:15:38Z</time></trkpt>
<trkpt lat="46.395883597433567" lon="7.102191410958767"><ele></ele><time>2013-9-9T16:15:41Z</time></trkpt>
<trkpt lat="46.395858367905021" lon="7.102219825610519"><ele></ele><time>2013-9-9T16:15:44Z</time></trkpt>
<trkpt lat="46.395827941596508" lon="7.102241450920701"><ele></ele><time>2013-9-9T16:15:47Z</time></trkpt>
<trkpt lat="46.395766586065292" lon="7.102281432598829"><ele></ele><time>2013-9-9T16:15:50Z</time></trkpt>
<trkpt lat="46.395601965487003" lon="7.102279420942068"><ele></ele><time>2013-9-9T16:15:53Z</time></trkpt>
<trkpt lat="46.395568354055285" lon="7.102250838652253"><ele></ele><time>2013-9-9T16:15:56Z</time></trkpt>
<trkpt lat="46.395527701824903" lon="7.102217059582472"><ele></ele><time>2013-9-9T16:15:59Z</time></trkpt>
<trkpt lat="46.395483110100031" lon="7.102181855589151"><ele></ele><time>2013-9-9T16:16:2Z</time></trkpt>
<trkpt lat="46.395430555567145" lon="7.102145561948419"><ele></ele><time>2013-9-9T16:16:5Z</time></trkpt>
<trkpt lat="46.395375151187181" lon="7.102110022678971"><ele></ele><time>2013-9-9T16:16:8Z</time></trkpt>
<trkpt lat="46.395319914445281" lon="7.102070795372129"><ele></ele><time>2013-9-9T16:16:11Z</time></trkpt>
<trkpt lat="46.395258978009224" lon="7.102029640227556"><ele></ele><time>2013-9-9T16:16:14Z</time></trkpt>
<trkpt lat="46.395194018259645" lon="7.10198387503624"><ele></ele><time>2013-9-9T16:16:17Z</time></trkpt>
<trkpt lat="46.395125705748796" lon="7.101933415979147"><ele></ele><time>2013-9-9T16:16:20Z</time></trkpt>
<trkpt lat="46.395062254741788" lon="7.101879771798849"><ele></ele><time>2013-9-9T16:16:23Z</time></trkpt>
<trkpt lat="46.395001653581858" lon="7.101825205609202"><ele></ele><time>2013-9-9T16:16:26Z</time></trkpt>
<trkpt lat="46.394890593364835" lon="7.101700315251946"><ele></ele><time>2013-9-9T16:16:29Z</time></trkpt>
<trkpt lat="46.394843989983201" lon="7.101636026054621"><ele></ele><time>2013-9-9T16:16:32Z</time></trkpt>
<trkpt lat="46.394802751019597" lon="7.101566791534424"><ele></ele><time>2013-9-9T16:16:35Z</time></trkpt>
<trkpt lat="46.394765200093389" lon="7.101487834006548"><ele></ele><time>2013-9-9T16:16:38Z</time></trkpt>
<trkpt lat="46.39472764916718" lon="7.101403092965484"><ele></ele><time>2013-9-9T16:16:41Z</time></trkpt>
<trkpt lat="46.394693031907082" lon="7.101303683593869"><ele></ele><time>2013-9-9T16:16:44Z</time></trkpt>
<trkpt lat="46.394666125997901" lon="7.101204944774509"><ele></ele><time>2013-9-9T16:16:47Z</time></trkpt>
<trkpt lat="46.394641567021608" lon="7.101101009175181"><ele></ele><time>2013-9-9T16:16:50Z</time></trkpt>
<trkpt lat="46.394618600606918" lon="7.101001851260662"><ele></ele><time>2013-9-9T16:16:53Z</time></trkpt>
<trkpt lat="46.394497817382216" lon="7.100538080558181"><ele></ele><time>2013-9-9T16:16:56Z</time></trkpt>
<trkpt lat="46.394387176260352" lon="7.100156033411622"><ele></ele><time>2013-9-9T16:16:59Z</time></trkpt>
<trkpt lat="46.394346775487065" lon="7.100023599341512"><ele></ele><time>2013-9-9T16:17:2Z</time></trkpt>
<trkpt lat="46.394325569272041" lon="7.099971966817975"><ele></ele><time>2013-9-9T16:17:5Z</time></trkpt>
<trkpt lat="46.394306793808937" lon="7.099918490275741"><ele></ele><time>2013-9-9T16:17:8Z</time></trkpt>
<trkpt lat="46.394287683069706" lon="7.099863588809967"><ele></ele><time>2013-9-9T16:17:11Z</time></trkpt>
<trkpt lat="46.394270583987236" lon="7.099812207743526"><ele></ele><time>2013-9-9T16:17:14Z</time></trkpt>
<trkpt lat="46.394197409972548" lon="7.099564271047711"><ele></ele><time>2013-9-9T16:17:17Z</time></trkpt>
<trkpt lat="46.394190285354853" lon="7.099549435079098"><ele></ele><time>2013-9-9T16:17:20Z</time></trkpt>
<trkpt lat="46.394185842946172" lon="7.099544238299131"><ele></ele><time>2013-9-9T16:17:23Z</time></trkpt>
<trkpt lat="46.394183663651347" lon="7.09955538623035"><ele></ele><time>2013-9-9T16:17:26Z</time></trkpt>
<trkpt lat="46.394184837117791" lon="7.099577346816659"><ele></ele><time>2013-9-9T16:17:29Z</time></trkpt>
<trkpt lat="46.394182238727808" lon="7.099582208320499"><ele></ele><time>2013-9-9T16:17:32Z</time></trkpt>
<trkpt lat="46.394183412194252" lon="7.099589416757226"><ele></ele><time>2013-9-9T16:17:35Z</time></trkpt>
<trkpt lat="46.394630502909422" lon="7.10002058185637"><ele></ele><time>2013-9-9T16:17:38Z</time></trkpt>
<trkpt lat="46.394681129604578" lon="7.100005829706788"><ele></ele><time>2013-9-9T16:17:41Z</time></trkpt>
<trkpt lat="46.394768804311752" lon="7.09996978752315"><ele></ele><time>2013-9-9T16:17:44Z</time></trkpt>
<trkpt lat="46.394801996648312" lon="7.099950592964888"><ele></ele><time>2013-9-9T16:17:47Z</time></trkpt>
<trkpt lat="46.394835021346807" lon="7.099932068958879"><ele></ele><time>2013-9-9T16:17:50Z</time></trkpt>
<trkpt lat="46.394875086843967" lon="7.099913209676743"><ele></ele><time>2013-9-9T16:17:53Z</time></trkpt>
<trkpt lat="46.394914900884032" lon="7.099894601851702"><ele></ele><time>2013-9-9T16:17:56Z</time></trkpt>
<trkpt lat="46.395038450136781" lon="7.099835928529501"><ele></ele><time>2013-9-9T16:17:59Z</time></trkpt>
<trkpt lat="46.395093016326427" lon="7.0997997187078"><ele></ele><time>2013-9-9T16:18:2Z</time></trkpt>
<trkpt lat="46.395112629979849" lon="7.099778763949871"><ele></ele><time>2013-9-9T16:18:5Z</time></trkpt>
<trkpt lat="46.395133752375841" lon="7.099755210801959"><ele></ele><time>2013-9-9T16:18:8Z</time></trkpt>
<trkpt lat="46.395153114572167" lon="7.099731992930174"><ele></ele><time>2013-9-9T16:18:11Z</time></trkpt>
<trkpt lat="46.395173650234938" lon="7.099709277972579"><ele></ele><time>2013-9-9T16:18:14Z</time></trkpt>
<trkpt lat="46.395225534215569" lon="7.099644737318158"><ele></ele><time>2013-9-9T16:18:17Z</time></trkpt>
<trkpt lat="46.395392082631588" lon="7.099543986842036"><ele></ele><time>2013-9-9T16:18:20Z</time></trkpt>
<trkpt lat="46.395401386544108" lon="7.099520014598966"><ele></ele><time>2013-9-9T16:18:23Z</time></trkpt>
<trkpt lat="46.39540339820087" lon="7.099489169195294"><ele></ele><time>2013-9-9T16:18:26Z</time></trkpt>
<trkpt lat="46.395402643829584" lon="7.099456479772925"><ele></ele><time>2013-9-9T16:18:29Z</time></trkpt>
<trkpt lat="46.395401135087013" lon="7.099424544721842"><ele></ele><time>2013-9-9T16:18:32Z</time></trkpt>
<trkpt lat="46.395367439836264" lon="7.099167136475444"><ele></ele><time>2013-9-9T16:18:35Z</time></trkpt>
<trkpt lat="46.395355621352792" lon="7.099129669368267"><ele></ele><time>2013-9-9T16:18:38Z</time></trkpt>
<trkpt lat="46.39533743262291" lon="7.099049789831042"><ele></ele><time>2013-9-9T16:18:41Z</time></trkpt>
<trkpt lat="46.395331649109721" lon="7.099018692970276"><ele></ele><time>2013-9-9T16:18:44Z</time></trkpt>
<trkpt lat="46.395328715443611" lon="7.098992709070444"><ele></ele><time>2013-9-9T16:18:47Z</time></trkpt>
<trkpt lat="46.395324524492025" lon="7.098966641351581"><ele></ele><time>2013-9-9T16:18:50Z</time></trkpt>
<trkpt lat="46.395320082083344" lon="7.098938561975956"><ele></ele><time>2013-9-9T16:18:53Z</time></trkpt>
<trkpt lat="46.395314550027251" lon="7.098905285820365"><ele></ele><time>2013-9-9T16:18:56Z</time></trkpt>
<trkpt lat="46.395302060991526" lon="7.098786262795329"><ele></ele><time>2013-9-9T16:18:59Z</time></trkpt>
<trkpt lat="46.39529594220221" lon="7.098710658028722"><ele></ele><time>2013-9-9T16:19:2Z</time></trkpt>
<trkpt lat="46.395293595269322" lon="7.098679728806019"><ele></ele><time>2013-9-9T16:19:5Z</time></trkpt>
<trkpt lat="46.395287057384849" lon="7.098648883402348"><ele></ele><time>2013-9-9T16:19:8Z</time></trkpt>
<trkpt lat="46.395287979394197" lon="7.098625330254436"><ele></ele><time>2013-9-9T16:19:11Z</time></trkpt>
<trkpt lat="46.395290661603212" lon="7.09859817288816"><ele></ele><time>2013-9-9T16:19:14Z</time></trkpt>
<trkpt lat="46.39530910179019" lon="7.09846724756062"><ele></ele><time>2013-9-9T16:19:17Z</time></trkpt>
<trkpt lat="46.395302144810557" lon="7.098326599225402"><ele></ele><time>2013-9-9T16:19:20Z</time></trkpt>
<trkpt lat="46.395292757079005" lon="7.098295921459794"><ele></ele><time>2013-9-9T16:19:23Z</time></trkpt>
<trkpt lat="46.395280938595533" lon="7.098260130733252"><ele></ele><time>2013-9-9T16:19:26Z</time></trkpt>
<trkpt lat="46.39526903629303" lon="7.098223334178329"><ele></ele><time>2013-9-9T16:19:29Z</time></trkpt>
<trkpt lat="46.395260486751795" lon="7.098191818222404"><ele></ele><time>2013-9-9T16:19:32Z</time></trkpt>
<trkpt lat="46.395249422639608" lon="7.098120488226414"><ele></ele><time>2013-9-9T16:19:35Z</time></trkpt>
<trkpt lat="46.39517130330205" lon="7.097754618152976"><ele></ele><time>2013-9-9T16:19:38Z</time></trkpt>
<trkpt lat="46.395143726840615" lon="7.097580526024103"><ele></ele><time>2013-9-9T16:19:41Z</time></trkpt>
<trkpt lat="46.395141379907727" lon="7.097554123029113"><ele></ele><time>2013-9-9T16:19:44Z</time></trkpt>
<trkpt lat="46.395136937499046" lon="7.097526211291552"><ele></ele><time>2013-9-9T16:19:47Z</time></trkpt>
<trkpt lat="46.39513123780489" lon="7.097493270412087"><ele></ele><time>2013-9-9T16:19:50Z</time></trkpt>
<trkpt lat="46.395122520625591" lon="7.097456557676196"><ele></ele><time>2013-9-9T16:19:53Z</time></trkpt>
<trkpt lat="46.395103158429265" lon="7.09723586216569"><ele></ele><time>2013-9-9T16:19:56Z</time></trkpt>
<trkpt lat="46.394971311092377" lon="7.096756165847182"><ele></ele><time>2013-9-9T16:19:59Z</time></trkpt>
<trkpt lat="46.394827729091048" lon="7.096299855038524"><ele></ele><time>2013-9-9T16:20:2Z</time></trkpt>
<trkpt lat="46.394818425178528" lon="7.096272027119994"><ele></ele><time>2013-9-9T16:20:5Z</time></trkpt>
<trkpt lat="46.394810043275356" lon="7.096240930259228"><ele></ele><time>2013-9-9T16:20:8Z</time></trkpt>
<trkpt lat="46.394802583381534" lon="7.096213018521667"><ele></ele><time>2013-9-9T16:20:11Z</time></trkpt>
<trkpt lat="46.394795626401901" lon="7.096186364069581"><ele></ele><time>2013-9-9T16:20:14Z</time></trkpt>
<trkpt lat="46.394797470420599" lon="7.096171025186777"><ele></ele><time>2013-9-9T16:20:17Z</time></trkpt>
<trkpt lat="46.394779114052653" lon="7.096061473712325"><ele></ele><time>2013-9-9T16:20:20Z</time></trkpt>
<trkpt lat="46.39477651566267" lon="7.096040267497301"><ele></ele><time>2013-9-9T16:20:23Z</time></trkpt>
<trkpt lat="46.394774504005909" lon="7.09601822309196"><ele></ele><time>2013-9-9T16:20:26Z</time></trkpt>
<trkpt lat="46.394771486520767" lon="7.095994083210826"><ele></ele><time>2013-9-9T16:20:29Z</time></trkpt>
<trkpt lat="46.394766792654991" lon="7.095970027148724"><ele></ele><time>2013-9-9T16:20:32Z</time></trkpt>
<trkpt lat="46.39476478099823" lon="7.0959488209337"><ele></ele><time>2013-9-9T16:20:35Z</time></trkpt>
<trkpt lat="46.394755812361836" lon="7.095855949446559"><ele></ele><time>2013-9-9T16:20:38Z</time></trkpt>
<trkpt lat="46.394758075475693" lon="7.095844633877277"><ele></ele><time>2013-9-9T16:20:41Z</time></trkpt>
<trkpt lat="46.394756147637963" lon="7.095832312479615"><ele></ele><time>2013-9-9T16:20:44Z</time></trkpt>
<trkpt lat="46.394751872867346" lon="7.095811190083623"><ele></ele><time>2013-9-9T16:20:47Z</time></trkpt>
<trkpt lat="46.394748436287045" lon="7.095795013010502"><ele></ele><time>2013-9-9T16:20:50Z</time></trkpt>
<trkpt lat="46.394743155688047" lon="7.095773722976446"><ele></ele><time>2013-9-9T16:20:53Z</time></trkpt>
<trkpt lat="46.394742066040635" lon="7.095750588923693"><ele></ele><time>2013-9-9T16:20:56Z</time></trkpt>
<trkpt lat="46.394740557298064" lon="7.095731142908335"><ele></ele><time>2013-9-9T16:20:59Z</time></trkpt>
<trkpt lat="46.394735276699066" lon="7.095712367445231"><ele></ele><time>2013-9-9T16:21:2Z</time></trkpt>
<trkpt lat="46.394728654995561" lon="7.095691161230207"><ele></ele><time>2013-9-9T16:21:5Z</time></trkpt>
<trkpt lat="46.394719770178199" lon="7.095610275864601"><ele></ele><time>2013-9-9T16:21:8Z</time></trkpt>
<trkpt lat="46.394734103232622" lon="7.095599547028542"><ele></ele><time>2013-9-9T16:21:11Z</time></trkpt>
<trkpt lat="46.394745754078031" lon="7.095593763515353"><ele></ele><time>2013-9-9T16:21:14Z</time></trkpt>
<trkpt lat="46.394755393266678" lon="7.095583705231547"><ele></ele><time>2013-9-9T16:21:17Z</time></trkpt>
<trkpt lat="46.394765954464674" lon="7.095570797100663"><ele></ele><time>2013-9-9T16:21:20Z</time></trkpt>
<trkpt lat="46.394794201478362" lon="7.095525953918695"><ele></ele><time>2013-9-9T16:21:23Z</time></trkpt>
<trkpt lat="46.394806690514088" lon="7.095508771017194"><ele></ele><time>2013-9-9T16:21:26Z</time></trkpt>
<trkpt lat="46.394816413521767" lon="7.095496114343405"><ele></ele><time>2013-9-9T16:21:29Z</time></trkpt>
<trkpt lat="46.394826807081699" lon="7.095483876764774"><ele></ele><time>2013-9-9T16:21:32Z</time></trkpt>
<trkpt lat="46.394837787374854" lon="7.095470633357763"><ele></ele><time>2013-9-9T16:21:35Z</time></trkpt>
<trkpt lat="46.394867291674018" lon="7.095448337495327"><ele></ele><time>2013-9-9T16:21:38Z</time></trkpt>
<trkpt lat="46.394883217290044" lon="7.09543677046895"><ele></ele><time>2013-9-9T16:21:41Z</time></trkpt>
<trkpt lat="46.394893610849977" lon="7.095423778519034"><ele></ele><time>2013-9-9T16:21:44Z</time></trkpt>
<trkpt lat="46.394916912540793" lon="7.095413552597165"><ele></ele><time>2013-9-9T16:21:47Z</time></trkpt>
<trkpt lat="46.394954463467002" lon="7.095387065783143"><ele></ele><time>2013-9-9T16:21:50Z</time></trkpt>
<trkpt lat="46.39496024698019" lon="7.095386143773794"><ele></ele><time>2013-9-9T16:21:53Z</time></trkpt>
<trkpt lat="46.394979190081358" lon="7.095353454351425"><ele></ele><time>2013-9-9T16:21:56Z</time></trkpt>
<trkpt lat="46.394985392689705" lon="7.095340127125382"><ele></ele><time>2013-9-9T16:21:59Z</time></trkpt>
<trkpt lat="46.39499151147902" lon="7.095324620604515"><ele></ele><time>2013-9-9T16:22:2Z</time></trkpt>
<trkpt lat="46.394997546449304" lon="7.095302240923047"><ele></ele><time>2013-9-9T16:22:5Z</time></trkpt>
<trkpt lat="46.395040210336447" lon="7.095212135463953"><ele></ele><time>2013-9-9T16:22:8Z</time></trkpt>
<trkpt lat="46.395047586411238" lon="7.095190845429897"><ele></ele><time>2013-9-9T16:22:11Z</time></trkpt>
<trkpt lat="46.39504867605865" lon="7.095171734690666"><ele></ele><time>2013-9-9T16:22:14Z</time></trkpt>
<trkpt lat="46.395043814554811" lon="7.095151701942086"><ele></ele><time>2013-9-9T16:22:17Z</time></trkpt>
<trkpt lat="46.395034845918417" lon="7.095132758840919"><ele></ele><time>2013-9-9T16:22:20Z</time></trkpt>
<trkpt lat="46.394979190081358" lon="7.09502924233675"><ele></ele><time>2013-9-9T16:22:23Z</time></trkpt>
<trkpt lat="46.394904088228941" lon="7.094890102744103"><ele></ele><time>2013-9-9T16:22:26Z</time></trkpt>
<trkpt lat="46.394896795973182" lon="7.094874428585172"><ele></ele><time>2013-9-9T16:22:29Z</time></trkpt>
<trkpt lat="46.394889336079359" lon="7.094861855730414"><ele></ele><time>2013-9-9T16:22:32Z</time></trkpt>
<trkpt lat="46.394880702719092" lon="7.094847522675991"><ele></ele><time>2013-9-9T16:22:35Z</time></trkpt>
<trkpt lat="46.394872572273016" lon="7.094832938164473"><ele></ele><time>2013-9-9T16:22:38Z</time></trkpt>
<trkpt lat="46.394828986376524" lon="7.094733696430922"><ele></ele><time>2013-9-9T16:22:41Z</time></trkpt>
<trkpt lat="46.394825130701065" lon="7.094721961766481"><ele></ele><time>2013-9-9T16:22:44Z</time></trkpt>
<trkpt lat="46.394819766283035" lon="7.094707963988185"><ele></ele><time>2013-9-9T16:22:47Z</time></trkpt>
<trkpt lat="46.394811635836959" lon="7.094694972038269"><ele></ele><time>2013-9-9T16:22:50Z</time></trkpt>
<trkpt lat="46.394805181771517" lon="7.094680303707719"><ele></ele><time>2013-9-9T16:22:53Z</time></trkpt>
<trkpt lat="46.39478774741292" lon="7.094628671184182"><ele></ele><time>2013-9-9T16:22:56Z</time></trkpt>
<trkpt lat="46.394779533147812" lon="7.094609057530761"><ele></ele><time>2013-9-9T16:22:59Z</time></trkpt>
<trkpt lat="46.394771737977862" lon="7.094591204077005"><ele></ele><time>2013-9-9T16:23:2Z</time></trkpt>
<trkpt lat="46.394765032455325" lon="7.094576871022582"><ele></ele><time>2013-9-9T16:23:5Z</time></trkpt>
<trkpt lat="46.394759584218264" lon="7.094562202692032"><ele></ele><time>2013-9-9T16:23:8Z</time></trkpt>
<trkpt lat="46.39472957700491" lon="7.094460278749466"><ele></ele><time>2013-9-9T16:23:11Z</time></trkpt>
<trkpt lat="46.394728235900402" lon="7.094439743086696"><ele></ele><time>2013-9-9T16:23:14Z</time></trkpt>
<trkpt lat="46.39472521841526" lon="7.094416441395879"><ele></ele><time>2013-9-9T16:23:17Z</time></trkpt>
<trkpt lat="46.394718093797565" lon="7.094390206038952"><ele></ele><time>2013-9-9T16:23:20Z</time></trkpt>
<trkpt lat="46.394712226465344" lon="7.094365982338786"><ele></ele><time>2013-9-9T16:23:23Z</time></trkpt>
<trkpt lat="46.394667131826282" lon="7.094206726178527"><ele></ele><time>2013-9-9T16:23:26Z</time></trkpt>
<trkpt lat="46.394664533436298" lon="7.094180658459663"><ele></ele><time>2013-9-9T16:23:29Z</time></trkpt>
<trkpt lat="46.394662437960505" lon="7.094152830541134"><ele></ele><time>2013-9-9T16:23:32Z</time></trkpt>
<trkpt lat="46.394658666104078" lon="7.094125170260668"><ele></ele><time>2013-9-9T16:23:35Z</time></trkpt>
<trkpt lat="46.394654642790556" lon="7.094097342342138"><ele></ele><time>2013-9-9T16:23:38Z</time></trkpt>
<trkpt lat="46.394665371626616" lon="7.093968680128455"><ele></ele><time>2013-9-9T16:23:41Z</time></trkpt>
<trkpt lat="46.394670903682709" lon="7.093746978789568"><ele></ele><time>2013-9-9T16:23:44Z</time></trkpt>
<trkpt lat="46.394677022472024" lon="7.093703392893076"><ele></ele><time>2013-9-9T16:23:47Z</time></trkpt>
<trkpt lat="46.394681800156832" lon="7.093680594116449"><ele></ele><time>2013-9-9T16:23:50Z</time></trkpt>
<trkpt lat="46.394686913117766" lon="7.09366156719625"><ele></ele><time>2013-9-9T16:23:53Z</time></trkpt>
<trkpt lat="46.394689092412591" lon="7.093641785904765"><ele></ele><time>2013-9-9T16:23:56Z</time></trkpt>
<trkpt lat="46.394690852612257" lon="7.093618987128139"><ele></ele><time>2013-9-9T16:23:59Z</time></trkpt>
<trkpt lat="46.394730415195227" lon="7.0935501717031"><ele></ele><time>2013-9-9T16:24:2Z</time></trkpt>
<trkpt lat="46.394763691350818" lon="7.093493090942502"><ele></ele><time>2013-9-9T16:24:5Z</time></trkpt>
<trkpt lat="46.394772324711084" lon="7.093476494774222"><ele></ele><time>2013-9-9T16:24:8Z</time></trkpt>
<trkpt lat="46.394780287519097" lon="7.093458641320467"><ele></ele><time>2013-9-9T16:24:11Z</time></trkpt>
<trkpt lat="46.394789339974523" lon="7.093440117314458"><ele></ele><time>2013-9-9T16:24:14Z</time></trkpt>
<trkpt lat="46.394798727706075" lon="7.093423185870051"><ele></ele><time>2013-9-9T16:24:17Z</time></trkpt>
<trkpt lat="46.394806606695056" lon="7.093403739854693"><ele></ele><time>2013-9-9T16:24:20Z</time></trkpt>
<trkpt lat="46.394873578101397" lon="7.093225456774235"><ele></ele><time>2013-9-9T16:24:23Z</time></trkpt>
<trkpt lat="46.394873410463333" lon="7.093203663825989"><ele></ele><time>2013-9-9T16:24:26Z</time></trkpt>
<trkpt lat="46.394873661920428" lon="7.093182038515806"><ele></ele><time>2013-9-9T16:24:29Z</time></trkpt>
<trkpt lat="46.39487617649138" lon="7.093164185062051"><ele></ele><time>2013-9-9T16:24:32Z</time></trkpt>
<trkpt lat="46.394877685233951" lon="7.093145996332169"><ele></ele><time>2013-9-9T16:24:35Z</time></trkpt>
<trkpt lat="46.394888246431947" lon="7.093078102916479"><ele></ele><time>2013-9-9T16:24:38Z</time></trkpt>
<trkpt lat="46.394891599193215" lon="7.093058237805963"><ele></ele><time>2013-9-9T16:24:41Z</time></trkpt>
<trkpt lat="46.394893107935786" lon="7.093038959428668"><ele></ele><time>2013-9-9T16:24:44Z</time></trkpt>
<trkpt lat="46.394890090450644" lon="7.093015573918819"><ele></ele><time>2013-9-9T16:24:47Z</time></trkpt>
<trkpt lat="46.3948889169842" lon="7.092993445694447"><ele></ele><time>2013-9-9T16:24:50Z</time></trkpt>
<trkpt lat="46.394891431555152" lon="7.092910800129175"><ele></ele><time>2013-9-9T16:24:53Z</time></trkpt>
<trkpt lat="46.394889503717422" lon="7.092890935018659"><ele></ele><time>2013-9-9T16:24:56Z</time></trkpt>
<trkpt lat="46.394885564222932" lon="7.092869896441698"><ele></ele><time>2013-9-9T16:24:59Z</time></trkpt>
<trkpt lat="46.394881037995219" lon="7.092849696055055"><ele></ele><time>2013-9-9T16:25:2Z</time></trkpt>
<trkpt lat="46.394876595586538" lon="7.092829328030348"><ele></ele><time>2013-9-9T16:25:5Z</time></trkpt>
<trkpt lat="46.39486888423562" lon="7.092809127643704"><ele></ele><time>2013-9-9T16:25:8Z</time></trkpt>
<trkpt lat="46.394837787374854" lon="7.092755232006311"><ele></ele><time>2013-9-9T16:25:11Z</time></trkpt>
<trkpt lat="46.394827393814921" lon="7.092740815132856"><ele></ele><time>2013-9-9T16:25:14Z</time></trkpt>
<trkpt lat="46.394818844273686" lon="7.092729331925511"><ele></ele><time>2013-9-9T16:25:17Z</time></trkpt>
<trkpt lat="46.394807361066341" lon="7.092717010527849"><ele></ele><time>2013-9-9T16:25:20Z</time></trkpt>
<trkpt lat="46.39479554258287" lon="7.092709550634027"><ele></ele><time>2013-9-9T16:25:23Z</time></trkpt>
<trkpt lat="46.394751202315092" lon="7.092685829848051"><ele></ele><time>2013-9-9T16:25:26Z</time></trkpt>
<trkpt lat="46.394737791270018" lon="7.092677783221006"><ele></ele><time>2013-9-9T16:25:29Z</time></trkpt>
<trkpt lat="46.394728571176529" lon="7.092668311670423"><ele></ele><time>2013-9-9T16:25:32Z</time></trkpt>
<trkpt lat="46.394720189273357" lon="7.092659762129188"><ele></ele><time>2013-9-9T16:25:35Z</time></trkpt>
<trkpt lat="46.394712561741471" lon="7.09264962002635"><ele></ele><time>2013-9-9T16:25:38Z</time></trkpt>
<trkpt lat="46.394676519557834" lon="7.092602262273431"><ele></ele><time>2013-9-9T16:25:41Z</time></trkpt>
<trkpt lat="46.394668389111757" lon="7.09258901886642"><ele></ele><time>2013-9-9T16:25:44Z</time></trkpt>
<trkpt lat="46.394662940874696" lon="7.092580469325185"><ele></ele><time>2013-9-9T16:25:47Z</time></trkpt>
<trkpt lat="46.394658330827951" lon="7.092575691640377"><ele></ele><time>2013-9-9T16:25:50Z</time></trkpt>
<trkpt lat="46.39465631917119" lon="7.092574015259743"><ele></ele><time>2013-9-9T16:25:53Z</time></trkpt>
<trkpt lat="46.394661013036966" lon="7.092525903135538"><ele></ele><time>2013-9-9T16:25:56Z</time></trkpt>
<trkpt lat="46.394661264494061" lon="7.092503942549229"><ele></ele><time>2013-9-9T16:25:59Z</time></trkpt>
<trkpt lat="46.394666628912091" lon="7.092457003891468"><ele></ele><time>2013-9-9T16:26:2Z</time></trkpt>
<trkpt lat="46.394667718559504" lon="7.092429846525192"><ele></ele><time>2013-9-9T16:26:5Z</time></trkpt>
<trkpt lat="46.394670652225614" lon="7.092406209558249"><ele></ele><time>2013-9-9T16:26:8Z</time></trkpt>
<trkpt lat="46.394675010815263" lon="7.092384584248066"><ele></ele><time>2013-9-9T16:26:11Z</time></trkpt>
<trkpt lat="46.394677776843309" lon="7.09236329421401"><ele></ele><time>2013-9-9T16:26:14Z</time></trkpt>
<trkpt lat="46.394694875925779" lon="7.092310404404998"><ele></ele><time>2013-9-9T16:26:17Z</time></trkpt>
<trkpt lat="46.394700827077031" lon="7.09229146130383"><ele></ele><time>2013-9-9T16:26:20Z</time></trkpt>
<trkpt lat="46.394703341647983" lon="7.092269668355584"><ele></ele><time>2013-9-9T16:26:23Z</time></trkpt>
<trkpt lat="46.394704347476363" lon="7.092248881235719"><ele></ele><time>2013-9-9T16:26:26Z</time></trkpt>
<trkpt lat="46.394706023856997" lon="7.092226417735219"><ele></ele><time>2013-9-9T16:26:29Z</time></trkpt>
<trkpt lat="46.394707364961505" lon="7.092204876244068"><ele></ele><time>2013-9-9T16:26:32Z</time></trkpt>
<trkpt lat="46.394705688580871" lon="7.092116111889482"><ele></ele><time>2013-9-9T16:26:35Z</time></trkpt>
<trkpt lat="46.394703509286046" lon="7.092090211808682"><ele></ele><time>2013-9-9T16:26:38Z</time></trkpt>
<trkpt lat="46.394703844562173" lon="7.092067999765277"><ele></ele><time>2013-9-9T16:26:41Z</time></trkpt>
<trkpt lat="46.394706694409251" lon="7.092049643397331"><ele></ele><time>2013-9-9T16:26:44Z</time></trkpt>
<trkpt lat="46.394708873704076" lon="7.092029107734561"><ele></ele><time>2013-9-9T16:26:47Z</time></trkpt>
<trkpt lat="46.39470124617219" lon="7.091882843524218"><ele></ele><time>2013-9-9T16:26:50Z</time></trkpt>
<trkpt lat="46.394700910896063" lon="7.091862643137574"><ele></ele><time>2013-9-9T16:26:53Z</time></trkpt>
<trkpt lat="46.394699569791555" lon="7.091841939836741"><ele></ele><time>2013-9-9T16:26:56Z</time></trkpt>
<trkpt lat="46.394695797935128" lon="7.091818721964955"><ele></ele><time>2013-9-9T16:26:59Z</time></trkpt>
<trkpt lat="46.394694373011589" lon="7.091797851026058"><ele></ele><time>2013-9-9T16:27:2Z</time></trkpt>
<trkpt lat="46.394693786278367" lon="7.091697184368968"><ele></ele><time>2013-9-9T16:27:5Z</time></trkpt>
<trkpt lat="46.394690936431289" lon="7.09168259985745"><ele></ele><time>2013-9-9T16:27:8Z</time></trkpt>
<trkpt lat="46.394688505679369" lon="7.091666255146265"><ele></ele><time>2013-9-9T16:27:11Z</time></trkpt>
<trkpt lat="46.394688002765179" lon="7.091643624007702"><ele></ele><time>2013-9-9T16:27:14Z</time></trkpt>
<trkpt lat="46.39468657784164" lon="7.091623172163963"><ele></ele><time>2013-9-9T16:27:17Z</time></trkpt>
<trkpt lat="46.394664198160172" lon="7.091494593769312"><ele></ele><time>2013-9-9T16:27:20Z</time></trkpt>
<trkpt lat="46.394671490415931" lon="7.091491911560297"><ele></ele><time>2013-9-9T16:27:23Z</time></trkpt>
<trkpt lat="46.394678363576531" lon="7.091492665931583"><ele></ele><time>2013-9-9T16:27:26Z</time></trkpt>
<trkpt lat="46.394756315276027" lon="7.091434579342604"><ele></ele><time>2013-9-9T16:27:29Z</time></trkpt>
<trkpt lat="46.394788920879364" lon="7.091408930718899"><ele></ele><time>2013-9-9T16:27:32Z</time></trkpt>
<trkpt lat="46.394831836223602" lon="7.09140557795763"><ele></ele><time>2013-9-9T16:27:35Z</time></trkpt>
<trkpt lat="46.394848935306072" lon="7.091403566300869"><ele></ele><time>2013-9-9T16:27:38Z</time></trkpt>
<trkpt lat="46.394866285845637" lon="7.091400045901537"><ele></ele><time>2013-9-9T16:27:41Z</time></trkpt>
<trkpt lat="46.394886318594217" lon="7.0914002135396"><ele></ele><time>2013-9-9T16:27:44Z</time></trkpt>
<trkpt lat="46.394908362999558" lon="7.091401303187013"><ele></ele><time>2013-9-9T16:27:47Z</time></trkpt>
<trkpt lat="46.394929066300392" lon="7.091400381177664"><ele></ele><time>2013-9-9T16:27:50Z</time></trkpt>
<trkpt lat="46.39503643848002" lon="7.091384707018733"><ele></ele><time>2013-9-9T16:27:53Z</time></trkpt>
<trkpt lat="46.395194437354803" lon="7.091355537995696"><ele></ele><time>2013-9-9T16:27:56Z</time></trkpt>
<trkpt lat="46.395209524780512" lon="7.091356879100204"><ele></ele><time>2013-9-9T16:27:59Z</time></trkpt>
<trkpt lat="46.395222600549459" lon="7.091353358700872"><ele></ele><time>2013-9-9T16:28:2Z</time></trkpt>
<trkpt lat="46.395236430689692" lon="7.091350089758635"><ele></ele><time>2013-9-9T16:28:5Z</time></trkpt>
<trkpt lat="46.395251853391528" lon="7.09134740754962"><ele></ele><time>2013-9-9T16:28:8Z</time></trkpt>
<trkpt lat="46.395307341590524" lon="7.091333912685514"><ele></ele><time>2013-9-9T16:28:11Z</time></trkpt>
<trkpt lat="46.395356794819236" lon="7.091329386457801"><ele></ele><time>2013-9-9T16:28:14Z</time></trkpt>
<trkpt lat="46.395372804254293" lon="7.091323938220739"><ele></ele><time>2013-9-9T16:28:17Z</time></trkpt>
<trkpt lat="46.395386885851622" lon="7.091318909078836"><ele></ele><time>2013-9-9T16:28:20Z</time></trkpt>
<trkpt lat="46.395400129258633" lon="7.091313125565648"><ele></ele><time>2013-9-9T16:28:23Z</time></trkpt>
<trkpt lat="46.395413791760802" lon="7.091308683156967"><ele></ele><time>2013-9-9T16:28:26Z</time></trkpt>
<trkpt lat="46.395454024896026" lon="7.091299965977669"><ele></ele><time>2013-9-9T16:28:29Z</time></trkpt>
<trkpt lat="46.395507920533419" lon="7.091289404779673"><ele></ele><time>2013-9-9T16:28:32Z</time></trkpt>
<trkpt lat="46.395522756502032" lon="7.091286387294531"><ele></ele><time>2013-9-9T16:28:35Z</time></trkpt>
<trkpt lat="46.39553633518517" lon="7.091284794732928"><ele></ele><time>2013-9-9T16:28:38Z</time></trkpt>
<trkpt lat="46.395550919696689" lon="7.091280855238438"><ele></ele><time>2013-9-9T16:28:41Z</time></trkpt>
<trkpt lat="46.395564582198858" lon="7.091274484992027"><ele></ele><time>2013-9-9T16:28:44Z</time></trkpt>
<trkpt lat="46.395665919408202" lon="7.09124774672091"><ele></ele><time>2013-9-9T16:28:47Z</time></trkpt>
<trkpt lat="46.395674385130405" lon="7.091243891045451"><ele></ele><time>2013-9-9T16:28:50Z</time></trkpt>
<trkpt lat="46.395683856680989" lon="7.091240286827087"><ele></ele><time>2013-9-9T16:28:53Z</time></trkpt>
<trkpt lat="46.395693244412541" lon="7.09123550914228"><ele></ele><time>2013-9-9T16:28:56Z</time></trkpt>
<trkpt lat="46.395716210827231" lon="7.091227546334267"><ele></ele><time>2013-9-9T16:28:59Z</time></trkpt>
<trkpt lat="46.395756360143423" lon="7.091217990964651"><ele></ele><time>2013-9-9T16:29:2Z</time></trkpt>
<trkpt lat="46.395766166970134" lon="7.091211369261146"><ele></ele><time>2013-9-9T16:29:5Z</time></trkpt>
<trkpt lat="46.395776141434908" lon="7.091208770871162"><ele></ele><time>2013-9-9T16:29:8Z</time></trkpt>
<trkpt lat="46.39578846283257" lon="7.091206591576338"><ele></ele><time>2013-9-9T16:29:11Z</time></trkpt>
<trkpt lat="46.395801035687327" lon="7.091197874397039"><ele></ele><time>2013-9-9T16:29:14Z</time></trkpt>
<trkpt lat="46.395890805870295" lon="7.091157976537943"><ele></ele><time>2013-9-9T16:29:17Z</time></trkpt>
<trkpt lat="46.395923160016537" lon="7.091145068407059"><ele></ele><time>2013-9-9T16:29:20Z</time></trkpt>
<trkpt lat="46.395941097289324" lon="7.091137859970331"><ele></ele><time>2013-9-9T16:29:23Z</time></trkpt>
<trkpt lat="46.395957190543413" lon="7.091133836656809"><ele></ele><time>2013-9-9T16:29:26Z</time></trkpt>
<trkpt lat="46.395970685407519" lon="7.091129897162318"><ele></ele><time>2013-9-9T16:29:29Z</time></trkpt>
<trkpt lat="46.395986527204514" lon="7.091127131134272"><ele></ele><time>2013-9-9T16:29:32Z</time></trkpt>
<trkpt lat="46.396020809188485" lon="7.091123443096876"><ele></ele><time>2013-9-9T16:29:35Z</time></trkpt>
<trkpt lat="46.396165899932384" lon="7.091118497774005"><ele></ele><time>2013-9-9T16:29:38Z</time></trkpt>
<trkpt lat="46.396300010383129" lon="7.091102991253138"><ele></ele><time>2013-9-9T16:29:41Z</time></trkpt>
<trkpt lat="46.396424481645226" lon="7.091073403134942"><ele></ele><time>2013-9-9T16:29:44Z</time></trkpt>
<trkpt lat="46.396440742537379" lon="7.091069966554642"><ele></ele><time>2013-9-9T16:29:47Z</time></trkpt>
<trkpt lat="46.396455997601151" lon="7.091066613793373"><ele></ele><time>2013-9-9T16:29:50Z</time></trkpt>
<trkpt lat="46.396472174674273" lon="7.091063847765327"><ele></ele><time>2013-9-9T16:29:53Z</time></trkpt>
<trkpt lat="46.396488854661584" lon="7.091060662642121"><ele></ele><time>2013-9-9T16:29:56Z</time></trkpt>
<trkpt lat="46.396582396700978" lon="7.091033505275846"><ele></ele><time>2013-9-9T16:29:59Z</time></trkpt>
<trkpt lat="46.396681470796466" lon="7.091003665700555"><ele></ele><time>2013-9-9T16:30:2Z</time></trkpt>
<trkpt lat="46.396695217117667" lon="7.09100048057735"><ele></ele><time>2013-9-9T16:30:5Z</time></trkpt>
<trkpt lat="46.396709550172091" lon="7.090994780883193"><ele></ele><time>2013-9-9T16:30:8Z</time></trkpt>
<trkpt lat="46.39672664925456" lon="7.090989165008068"><ele></ele><time>2013-9-9T16:30:11Z</time></trkpt>
<trkpt lat="46.396738803014159" lon="7.090985476970673"><ele></ele><time>2013-9-9T16:30:14Z</time></trkpt>
<trkpt lat="46.396819017827511" lon="7.09097508341074"><ele></ele><time>2013-9-9T16:30:17Z</time></trkpt>
<trkpt lat="46.39683460816741" lon="7.090968377888203"><ele></ele><time>2013-9-9T16:30:20Z</time></trkpt>
<trkpt lat="46.396850785240531" lon="7.090961253270507"><ele></ele><time>2013-9-9T16:30:23Z</time></trkpt>
<trkpt lat="46.396865369752049" lon="7.090954212471843"><ele></ele><time>2013-9-9T16:30:26Z</time></trkpt>
<trkpt lat="46.396947260946035" lon="7.090923869982362"><ele></ele><time>2013-9-9T16:30:29Z</time></trkpt>
<trkpt lat="46.396960504353046" lon="7.090920768678188"><ele></ele><time>2013-9-9T16:30:32Z</time></trkpt>
<trkpt lat="46.396973496302962" lon="7.090913308784366"><ele></ele><time>2013-9-9T16:30:35Z</time></trkpt>
<trkpt lat="46.396988080814481" lon="7.090907944366336"><ele></ele><time>2013-9-9T16:30:38Z</time></trkpt>
<trkpt lat="46.39700367115438" lon="7.090902412310243"><ele></ele><time>2013-9-9T16:30:41Z</time></trkpt>
<trkpt lat="46.397016663104296" lon="7.090895287692547"><ele></ele><time>2013-9-9T16:30:44Z</time></trkpt>
<trkpt lat="46.397046502679586" lon="7.090884642675519"><ele></ele><time>2013-9-9T16:30:47Z</time></trkpt>
<trkpt lat="46.397103499621153" lon="7.090872908011079"><ele></ele><time>2013-9-9T16:30:50Z</time></trkpt>
<trkpt lat="46.397120095789433" lon="7.090874081477523"><ele></ele><time>2013-9-9T16:30:53Z</time></trkpt>
<trkpt lat="46.397134261205792" lon="7.090872405096889"><ele></ele><time>2013-9-9T16:30:56Z</time></trkpt>
<trkpt lat="46.397146917879581" lon="7.090866537764669"><ele></ele><time>2013-9-9T16:30:59Z</time></trkpt>
<trkpt lat="46.397158904001117" lon="7.090858742594719"><ele></ele><time>2013-9-9T16:31:2Z</time></trkpt>
<trkpt lat="46.397262252867222" lon="7.090815156698227"><ele></ele><time>2013-9-9T16:31:5Z</time></trkpt>
<trkpt lat="46.397276418283582" lon="7.090808115899563"><ele></ele><time>2013-9-9T16:31:8Z</time></trkpt>
<trkpt lat="46.397292846813798" lon="7.090800991281867"><ele></ele><time>2013-9-9T16:31:11Z</time></trkpt>
<trkpt lat="46.397308520972729" lon="7.090797470882535"><ele></ele><time>2013-9-9T16:31:14Z</time></trkpt>
<trkpt lat="46.397322686389089" lon="7.090790178626776"><ele></ele><time>2013-9-9T16:31:17Z</time></trkpt>
<trkpt lat="46.397387310862541" lon="7.090752879157662"><ele></ele><time>2013-9-9T16:31:20Z</time></trkpt>
<trkpt lat="46.397438691928983" lon="7.09074298851192"><ele></ele><time>2013-9-9T16:31:23Z</time></trkpt>
<trkpt lat="46.397453527897596" lon="7.090744329616427"><ele></ele><time>2013-9-9T16:31:26Z</time></trkpt>
<trkpt lat="46.397462747991085" lon="7.090743742883205"><ele></ele><time>2013-9-9T16:31:29Z</time></trkpt>
<trkpt lat="46.397472051903605" lon="7.090739468112588"><ele></ele><time>2013-9-9T16:31:32Z</time></trkpt>
<trkpt lat="46.397472554817796" lon="7.090736953541637"><ele></ele><time>2013-9-9T16:31:35Z</time></trkpt>
<trkpt lat="46.399419838562608" lon="7.087817955762148"><ele></ele><time>2013-9-9T16:31:38Z</time></trkpt>
<trkpt lat="46.399374660104513" lon="7.087786104530096"><ele></ele><time>2013-9-9T16:31:41Z</time></trkpt>
<trkpt lat="46.39929830096662" lon="7.087732460349798"><ele></ele><time>2013-9-9T16:31:44Z</time></trkpt>
<trkpt lat="46.399281537160277" lon="7.087722821161151"><ele></ele><time>2013-9-9T16:31:47Z</time></trkpt>
<trkpt lat="46.399182379245758" lon="7.087664064019918"><ele></ele><time>2013-9-9T16:31:50Z</time></trkpt>
<trkpt lat="46.399105181917548" lon="7.087587369605899"><ele></ele><time>2013-9-9T16:31:53Z</time></trkpt>
<trkpt lat="46.399008790031075" lon="7.087475890293717"><ele></ele><time>2013-9-9T16:31:56Z</time></trkpt>
<trkpt lat="46.398996468633413" lon="7.087460048496723"><ele></ele><time>2013-9-9T16:31:59Z</time></trkpt>
<trkpt lat="46.398983560502529" lon="7.087444374337792"><ele></ele><time>2013-9-9T16:32:2Z</time></trkpt>
<trkpt lat="46.398971155285835" lon="7.087429454550147"><ele></ele><time>2013-9-9T16:32:5Z</time></trkpt>
<trkpt lat="46.398960845544934" lon="7.087411265820265"><ele></ele><time>2013-9-9T16:32:8Z</time></trkpt>
<trkpt lat="46.398950451985002" lon="7.087393747642636"><ele></ele><time>2013-9-9T16:32:11Z</time></trkpt>
<trkpt lat="46.398913320153952" lon="7.087356448173523"><ele></ele><time>2013-9-9T16:32:14Z</time></trkpt>
<trkpt lat="46.398837883025408" lon="7.087266845628619"><ele></ele><time>2013-9-9T16:32:17Z</time></trkpt>
<trkpt lat="46.39883067458868" lon="7.087251003831625"><ele></ele><time>2013-9-9T16:32:20Z</time></trkpt>
<trkpt lat="46.398819694295526" lon="7.087231473997235"><ele></ele><time>2013-9-9T16:32:23Z</time></trkpt>
<trkpt lat="46.398814497515559" lon="7.087214374914765"><ele></ele><time>2013-9-9T16:32:26Z</time></trkpt>
<trkpt lat="46.398808630183339" lon="7.087194593623281"><ele></ele><time>2013-9-9T16:32:29Z</time></trkpt>
<trkpt lat="46.398795554414392" lon="7.087158216163516"><ele></ele><time>2013-9-9T16:32:32Z</time></trkpt>
<trkpt lat="46.398737635463476" lon="7.087064841762185"><ele></ele><time>2013-9-9T16:32:35Z</time></trkpt>
<trkpt lat="46.398699162527919" lon="7.087032236158848"><ele></ele><time>2013-9-9T16:32:38Z</time></trkpt>
<trkpt lat="46.398686924949288" lon="7.087027123197913"><ele></ele><time>2013-9-9T16:32:41Z</time></trkpt>
<trkpt lat="46.398676028475165" lon="7.087025362998247"><ele></ele><time>2013-9-9T16:32:44Z</time></trkpt>
<trkpt lat="46.398670580238104" lon="7.087026201188564"><ele></ele><time>2013-9-9T16:32:47Z</time></trkpt>
<trkpt lat="46.398672508075833" lon="7.087028129026294"><ele></ele><time>2013-9-9T16:32:50Z</time></trkpt>
<trkpt lat="46.398414764553308" lon="7.086917068809271"><ele></ele><time>2013-9-9T16:32:53Z</time></trkpt>
<trkpt lat="46.398357432335615" lon="7.086905417963862"><ele></ele><time>2013-9-9T16:32:56Z</time></trkpt>
<trkpt lat="46.398326251655817" lon="7.086888067424297"><ele></ele><time>2013-9-9T16:32:59Z</time></trkpt>
<trkpt lat="46.398271434009075" lon="7.086848421022296"><ele></ele><time>2013-9-9T16:33:2Z</time></trkpt>
<trkpt lat="46.398254837840796" lon="7.086836686357856"><ele></ele><time>2013-9-9T16:33:5Z</time></trkpt>
<trkpt lat="46.398241342976689" lon="7.086823778226972"><ele></ele><time>2013-9-9T16:33:8Z</time></trkpt>
<trkpt lat="46.398230781778693" lon="7.086807936429977"><ele></ele><time>2013-9-9T16:33:11Z</time></trkpt>
<trkpt lat="46.398218711838126" lon="7.086793100461364"><ele></ele><time>2013-9-9T16:33:14Z</time></trkpt>
<trkpt lat="46.398204211145639" lon="7.086780108511448"><ele></ele><time>2013-9-9T16:33:17Z</time></trkpt>
<trkpt lat="46.398186609148979" lon="7.086769714951515"><ele></ele><time>2013-9-9T16:33:20Z</time></trkpt>
<trkpt lat="46.398117709904909" lon="7.086716154590249"><ele></ele><time>2013-9-9T16:33:23Z</time></trkpt>
<trkpt lat="46.398105723783374" lon="7.086709029972553"><ele></ele><time>2013-9-9T16:33:26Z</time></trkpt>
<trkpt lat="46.39809331856668" lon="7.086697882041335"><ele></ele><time>2013-9-9T16:33:29Z</time></trkpt>
<trkpt lat="46.398079404607415" lon="7.086687739938498"><ele></ele><time>2013-9-9T16:33:32Z</time></trkpt>
<trkpt lat="46.39802391640842" lon="7.086631497368217"><ele></ele><time>2013-9-9T16:33:35Z</time></trkpt>
<trkpt lat="46.39793012291193" lon="7.086548767983913"><ele></ele><time>2013-9-9T16:33:38Z</time></trkpt>
<trkpt lat="46.397919645532966" lon="7.086539044976234"><ele></ele><time>2013-9-9T16:33:41Z</time></trkpt>
<trkpt lat="46.397909168154001" lon="7.086527645587921"><ele></ele><time>2013-9-9T16:33:44Z</time></trkpt>
<trkpt lat="46.397896511480212" lon="7.086515491828322"><ele></ele><time>2013-9-9T16:33:47Z</time></trkpt>
<trkpt lat="46.397884609177709" lon="7.086502416059375"><ele></ele><time>2013-9-9T16:33:50Z</time></trkpt>
<trkpt lat="46.397827947512269" lon="7.086458662524819"><ele></ele><time>2013-9-9T16:33:53Z</time></trkpt>
<trkpt lat="46.397738009691238" lon="7.08636143244803"><ele></ele><time>2013-9-9T16:33:56Z</time></trkpt>
<trkpt lat="46.397702218964696" lon="7.086326144635677"><ele></ele><time>2013-9-9T16:33:59Z</time></trkpt>
<trkpt lat="46.39742536470294" lon="7.084403168410063"><ele></ele><time>2013-9-9T16:34:2Z</time></trkpt>
<trkpt lat="46.397408349439502" lon="7.084383890032768"><ele></ele><time>2013-9-9T16:34:5Z</time></trkpt>
<trkpt lat="46.397346993908286" lon="7.084265872836113"><ele></ele><time>2013-9-9T16:34:8Z</time></trkpt>
<trkpt lat="46.397338528186083" lon="7.084216084331274"><ele></ele><time>2013-9-9T16:34:11Z</time></trkpt>
<trkpt lat="46.397331990301609" lon="7.084176940843463"><ele></ele><time>2013-9-9T16:34:14Z</time></trkpt>
<trkpt lat="46.397329643368721" lon="7.08414651453495"><ele></ele><time>2013-9-9T16:34:17Z</time></trkpt>
<trkpt lat="46.397327715530992" lon="7.084121871739626"><ele></ele><time>2013-9-9T16:34:20Z</time></trkpt>
<trkpt lat="46.397325871512294" lon="7.084070239216089"><ele></ele><time>2013-9-9T16:34:23Z</time></trkpt>
<trkpt lat="46.397376917302608" lon="7.083813585340977"><ele></ele><time>2013-9-9T16:34:26Z</time></trkpt>
<trkpt lat="46.397391082718968" lon="7.083742171525955"><ele></ele><time>2013-9-9T16:34:29Z</time></trkpt>
<trkpt lat="46.39740583486855" lon="7.083663968369365"><ele></ele><time>2013-9-9T16:34:32Z</time></trkpt>
<trkpt lat="46.397424107417464" lon="7.083585010841489"><ele></ele><time>2013-9-9T16:34:35Z</time></trkpt>
<trkpt lat="46.397444223985076" lon="7.08350102417171"><ele></ele><time>2013-9-9T16:34:38Z</time></trkpt>
<trkpt lat="46.397462580353022" lon="7.083406392484903"><ele></ele><time>2013-9-9T16:34:41Z</time></trkpt>
<trkpt lat="46.397481271997094" lon="7.083307486027479"><ele></ele><time>2013-9-9T16:34:44Z</time></trkpt>
<trkpt lat="46.397497868165374" lon="7.083210339769721"><ele></ele><time>2013-9-9T16:34:47Z</time></trkpt>
<trkpt lat="46.397515302523971" lon="7.083109254017472"><ele></ele><time>2013-9-9T16:34:50Z</time></trkpt>
<trkpt lat="46.397535167634487" lon="7.08300556987524"><ele></ele><time>2013-9-9T16:34:53Z</time></trkpt>
<trkpt lat="46.397550506517291" lon="7.082904987037182"><ele></ele><time>2013-9-9T16:34:56Z</time></trkpt>
<trkpt lat="46.397555200383067" lon="7.082821922376752"><ele></ele><time>2013-9-9T16:34:59Z</time></trkpt>
<trkpt lat="46.397560900077224" lon="7.082748329266906"><ele></ele><time>2013-9-9T16:35:2Z</time></trkpt>
<trkpt lat="46.397562827914953" lon="7.082688482478261"><ele></ele><time>2013-9-9T16:35:5Z</time></trkpt>
<trkpt lat="46.397560397163033" lon="7.082640621811152"><ele></ele><time>2013-9-9T16:35:8Z</time></trkpt>
<trkpt lat="46.397551679983735" lon="7.082606926560402"><ele></ele><time>2013-9-9T16:35:11Z</time></trkpt>
<trkpt lat="46.397550757974386" lon="7.082606675103307"><ele></ele><time>2013-9-9T16:35:14Z</time></trkpt>
<trkpt lat="46.397540029138327" lon="7.082599299028516"><ele></ele><time>2013-9-9T16:35:17Z</time></trkpt>
<trkpt lat="46.397546483203769" lon="7.082608686760068"><ele></ele><time>2013-9-9T16:35:20Z</time></trkpt>
<trkpt lat="46.397548746317625" lon="7.082609441131353"><ele></ele><time>2013-9-9T16:35:23Z</time></trkpt>
<trkpt lat="46.397549249231815" lon="7.082603489980102"><ele></ele><time>2013-9-9T16:35:26Z</time></trkpt>
<trkpt lat="46.397550590336323" lon="7.082597119733691"><ele></ele><time>2013-9-9T16:35:29Z</time></trkpt>
<trkpt lat="46.397563330829144" lon="7.082569040358067"><ele></ele><time>2013-9-9T16:35:32Z</time></trkpt>
<trkpt lat="46.397566348314285" lon="7.082489831373096"><ele></ele><time>2013-9-9T16:35:35Z</time></trkpt>
<trkpt lat="46.397527623921633" lon="7.082450771704316"><ele></ele><time>2013-9-9T16:35:38Z</time></trkpt>
<trkpt lat="46.397406840696931" lon="7.082344489172101"><ele></ele><time>2013-9-9T16:35:41Z</time></trkpt>
<trkpt lat="46.397392423823476" lon="7.082325210794807"><ele></ele><time>2013-9-9T16:35:44Z</time></trkpt>
<trkpt lat="46.397378593683243" lon="7.08230534568429"><ele></ele><time>2013-9-9T16:35:47Z</time></trkpt>
<trkpt lat="46.397363757714629" lon="7.082286905497313"><ele></ele><time>2013-9-9T16:35:50Z</time></trkpt>
<trkpt lat="46.397348754107952" lon="7.082267543300986"><ele></ele><time>2013-9-9T16:35:53Z</time></trkpt>
<trkpt lat="46.397229311987758" lon="7.082080207765102"><ele></ele><time>2013-9-9T16:35:56Z</time></trkpt>
<trkpt lat="46.397141721099615" lon="7.082013823091984"><ele></ele><time>2013-9-9T16:35:59Z</time></trkpt>
<trkpt lat="46.397120011970401" lon="7.082004938274622"><ele></ele><time>2013-9-9T16:36:2Z</time></trkpt>
<trkpt lat="46.397098302841187" lon="7.081994712352753"><ele></ele><time>2013-9-9T16:36:5Z</time></trkpt>
<trkpt lat="46.397080197930336" lon="7.081983564421535"><ele></ele><time>2013-9-9T16:36:8Z</time></trkpt>
<trkpt lat="46.397061757743359" lon="7.081969818100333"><ele></ele><time>2013-9-9T16:36:11Z</time></trkpt>
<trkpt lat="46.396939884871244" lon="7.08194961771369"><ele></ele><time>2013-9-9T16:36:14Z</time></trkpt>
<trkpt lat="46.396850198507309" lon="7.081940146163106"><ele></ele><time>2013-9-9T16:36:17Z</time></trkpt>
<trkpt lat="46.396838463842869" lon="7.081942660734057"><ele></ele><time>2013-9-9T16:36:20Z</time></trkpt>
<trkpt lat="46.396828573197126" lon="7.08194425329566"><ele></ele><time>2013-9-9T16:36:23Z</time></trkpt>
<trkpt lat="46.396817844361067" lon="7.081952802836895"><ele></ele><time>2013-9-9T16:36:26Z</time></trkpt>
<trkpt lat="46.396748777478933" lon="7.081952383741736"><ele></ele><time>2013-9-9T16:36:29Z</time></trkpt>
<trkpt lat="46.396691780537367" lon="7.081963447853923"><ele></ele><time>2013-9-9T16:36:32Z</time></trkpt>
<trkpt lat="46.396676944568753" lon="7.081967890262604"><ele></ele><time>2013-9-9T16:36:35Z</time></trkpt>
<trkpt lat="46.396666383370757" lon="7.081975936889648"><ele></ele><time>2013-9-9T16:36:38Z</time></trkpt>
<trkpt lat="46.396655905991793" lon="7.081980546936393"><ele></ele><time>2013-9-9T16:36:41Z</time></trkpt>
<trkpt lat="46.396640734747052" lon="7.081991694867611"><ele></ele><time>2013-9-9T16:36:44Z</time></trkpt>
<trkpt lat="46.396572338417172" lon="7.081984570249915"><ele></ele><time>2013-9-9T16:36:47Z</time></trkpt>
<trkpt lat="46.396558675915003" lon="7.081982893869281"><ele></ele><time>2013-9-9T16:36:50Z</time></trkpt>
<trkpt lat="46.396545432507992" lon="7.081982726231217"><ele></ele><time>2013-9-9T16:36:53Z</time></trkpt>
<trkpt lat="46.396534452214837" lon="7.081984989345074"><ele></ele><time>2013-9-9T16:36:56Z</time></trkpt>
<trkpt lat="46.396523639559746" lon="7.081984570249915"><ele></ele><time>2013-9-9T16:36:59Z</time></trkpt>
<trkpt lat="46.396474605426192" lon="7.08197358995676"><ele></ele><time>2013-9-9T16:37:2Z</time></trkpt>
<trkpt lat="46.396462619304657" lon="7.081963615491986"><ele></ele><time>2013-9-9T16:37:5Z</time></trkpt>
<trkpt lat="46.396451303735375" lon="7.081953724846244"><ele></ele><time>2013-9-9T16:37:8Z</time></trkpt>
<trkpt lat="46.396436719223857" lon="7.08194618113339"><ele></ele><time>2013-9-9T16:37:11Z</time></trkpt>
<trkpt lat="46.396425822749734" lon="7.081934362649918"><ele></ele><time>2013-9-9T16:37:14Z</time></trkpt>
<trkpt lat="46.396389445289969" lon="7.081873426213861"><ele></ele><time>2013-9-9T16:37:17Z</time></trkpt>
<trkpt lat="46.396378884091973" lon="7.081861104816198"><ele></ele><time>2013-9-9T16:37:20Z</time></trkpt>
<trkpt lat="46.396367652341723" lon="7.081848531961441"><ele></ele><time>2013-9-9T16:37:23Z</time></trkpt>
<trkpt lat="46.396354911848903" lon="7.08184065297246"><ele></ele><time>2013-9-9T16:37:26Z</time></trkpt>
<trkpt lat="46.396345524117351" lon="7.081835120916367"><ele></ele><time>2013-9-9T16:37:29Z</time></trkpt>
<trkpt lat="46.396332196891308" lon="7.081831013783813"><ele></ele><time>2013-9-9T16:37:32Z</time></trkpt>
<trkpt lat="46.396301183849573" lon="7.081784158945084"><ele></ele><time>2013-9-9T16:37:35Z</time></trkpt>
<trkpt lat="46.396290706470609" lon="7.08176588639617"><ele></ele><time>2013-9-9T16:37:38Z</time></trkpt>
<trkpt lat="46.396281905472279" lon="7.08175465464592"><ele></ele><time>2013-9-9T16:37:41Z</time></trkpt>
<trkpt lat="46.396268829703331" lon="7.081741830334067"><ele></ele><time>2013-9-9T16:37:44Z</time></trkpt>
<trkpt lat="46.396257430315018" lon="7.081732526421547"><ele></ele><time>2013-9-9T16:37:47Z</time></trkpt>
<trkpt lat="46.3962047919631" lon="7.081685168668628"><ele></ele><time>2013-9-9T16:37:50Z</time></trkpt>
<trkpt lat="46.396196493878961" lon="7.081675194203854"><ele></ele><time>2013-9-9T16:37:53Z</time></trkpt>
<trkpt lat="46.396189285442233" lon="7.081662537530065"><ele></ele><time>2013-9-9T16:37:56Z</time></trkpt>
<trkpt lat="46.396180987358093" lon="7.081651892513037"><ele></ele><time>2013-9-9T16:37:59Z</time></trkpt>
<trkpt lat="46.396173192188144" lon="7.081638397648931"><ele></ele><time>2013-9-9T16:38:2Z</time></trkpt>
<trkpt lat="46.396113513037562" lon="7.081550136208534"><ele></ele><time>2013-9-9T16:38:5Z</time></trkpt>
<trkpt lat="46.39610412530601" lon="7.081539994105697"><ele></ele><time>2013-9-9T16:38:8Z</time></trkpt>
<trkpt lat="46.396095659583807" lon="7.081529181450605"><ele></ele><time>2013-9-9T16:38:11Z</time></trkpt>
<trkpt lat="46.396086607128382" lon="7.081520045176148"><ele></ele><time>2013-9-9T16:38:14Z</time></trkpt>
<trkpt lat="46.396077889949083" lon="7.081514010205865"><ele></ele><time>2013-9-9T16:38:17Z</time></trkpt>
<trkpt lat="46.396037740632892" lon="7.081451145932078"><ele></ele><time>2013-9-9T16:38:20Z</time></trkpt>
<trkpt lat="46.396006057038903" lon="7.081391215324402"><ele></ele><time>2013-9-9T16:38:23Z</time></trkpt>
<trkpt lat="46.395999351516366" lon="7.081382749602199"><ele></ele><time>2013-9-9T16:38:26Z</time></trkpt>
<trkpt lat="46.395989628508687" lon="7.08137939684093"><ele></ele><time>2013-9-9T16:38:29Z</time></trkpt>
<trkpt lat="46.39597806148231" lon="7.081375038251281"><ele></ele><time>2013-9-9T16:38:32Z</time></trkpt>
<trkpt lat="46.395967165008187" lon="7.081371685490012"><ele></ele><time>2013-9-9T16:38:35Z</time></trkpt>
<trkpt lat="46.395956184715033" lon="7.081363219767809"><ele></ele><time>2013-9-9T16:38:38Z</time></trkpt>
<trkpt lat="46.395949311554432" lon="7.08135349676013"><ele></ele><time>2013-9-9T16:38:41Z</time></trkpt>
<trkpt lat="46.395880077034235" lon="7.081281077116728"><ele></ele><time>2013-9-9T16:38:44Z</time></trkpt>
<trkpt lat="46.39586909674108" lon="7.081270096823573"><ele></ele><time>2013-9-9T16:38:47Z</time></trkpt>
<trkpt lat="46.395860128104687" lon="7.08125970326364"><ele></ele><time>2013-9-9T16:38:50Z</time></trkpt>
<trkpt lat="46.395851327106357" lon="7.081245956942439"><ele></ele><time>2013-9-9T16:38:53Z</time></trkpt>
<trkpt lat="46.395844034850597" lon="7.081235898658633"><ele></ele><time>2013-9-9T16:38:56Z</time></trkpt>
<trkpt lat="46.395831210538745" lon="7.081232629716396"><ele></ele><time>2013-9-9T16:38:59Z</time></trkpt>
<trkpt lat="46.395788127556443" lon="7.081205220893025"><ele></ele><time>2013-9-9T16:39:2Z</time></trkpt>
<trkpt lat="46.395759209990501" lon="7.081175213679671"><ele></ele><time>2013-9-9T16:39:5Z</time></trkpt>
<trkpt lat="46.395746972411871" lon="7.081174375489354"><ele></ele><time>2013-9-9T16:39:8Z</time></trkpt>
<trkpt lat="46.395735070109367" lon="7.081172447651625"><ele></ele><time>2013-9-9T16:39:11Z</time></trkpt>
<trkpt lat="46.39572543092072" lon="7.081165406852961"><ele></ele><time>2013-9-9T16:39:14Z</time></trkpt>
<trkpt lat="46.395715204998851" lon="7.081155516207218"><ele></ele><time>2013-9-9T16:39:17Z</time></trkpt>
<trkpt lat="46.395604480057955" lon="7.081067422404885"><ele></ele><time>2013-9-9T16:39:20Z</time></trkpt>
<trkpt lat="46.395588638260961" lon="7.081053676083684"><ele></ele><time>2013-9-9T16:39:23Z</time></trkpt>
<trkpt lat="46.395574891939759" lon="7.081045880913734"><ele></ele><time>2013-9-9T16:39:26Z</time></trkpt>
<trkpt lat="46.395561816170812" lon="7.081037079915404"><ele></ele><time>2013-9-9T16:39:29Z</time></trkpt>
<trkpt lat="46.395550165325403" lon="7.081031715497375"><ele></ele><time>2013-9-9T16:39:32Z</time></trkpt>
<trkpt lat="46.395489061251283" lon="7.081000450998545"><ele></ele><time>2013-9-9T16:39:35Z</time></trkpt>
<trkpt lat="46.395419659093022" lon="7.080961056053639"><ele></ele><time>2013-9-9T16:39:38Z</time></trkpt>
<trkpt lat="46.395407170057297" lon="7.080957451835275"><ele></ele><time>2013-9-9T16:39:41Z</time></trkpt>
<trkpt lat="46.395395267754793" lon="7.080955440178514"><ele></ele><time>2013-9-9T16:39:44Z</time></trkpt>
<trkpt lat="46.395380683243275" lon="7.080949153751135"><ele></ele><time>2013-9-9T16:39:47Z</time></trkpt>
<trkpt lat="46.395369116216898" lon="7.080945381894708"><ele></ele><time>2013-9-9T16:39:50Z</time></trkpt>
<trkpt lat="46.395280184224248" lon="7.08087807521224"><ele></ele><time>2013-9-9T16:39:53Z</time></trkpt>
<trkpt lat="46.395169710740447" lon="7.080820491537452"><ele></ele><time>2013-9-9T16:39:56Z</time></trkpt>
<trkpt lat="46.395154790952802" lon="7.080809762701392"><ele></ele><time>2013-9-9T16:39:59Z</time></trkpt>
<trkpt lat="46.395139200612903" lon="7.080802470445633"><ele></ele><time>2013-9-9T16:40:2Z</time></trkpt>
<trkpt lat="46.39512293972075" lon="7.080793417990208"><ele></ele><time>2013-9-9T16:40:5Z</time></trkpt>
<trkpt lat="46.395110283046961" lon="7.080783611163497"><ele></ele><time>2013-9-9T16:40:8Z</time></trkpt>
<trkpt lat="46.395026380196214" lon="7.080704905092716"><ele></ele><time>2013-9-9T16:40:11Z</time></trkpt>
<trkpt lat="46.394937532022595" lon="7.080639693886042"><ele></ele><time>2013-9-9T16:40:14Z</time></trkpt>
<trkpt lat="46.394924791529775" lon="7.080629803240299"><ele></ele><time>2013-9-9T16:40:17Z</time></trkpt>
<trkpt lat="46.394912051036954" lon="7.080618655309081"><ele></ele><time>2013-9-9T16:40:20Z</time></trkpt>
<trkpt lat="46.394898137077689" lon="7.080609016120434"><ele></ele><time>2013-9-9T16:40:23Z</time></trkpt>
<trkpt lat="46.394885228946805" lon="7.080596191808581"><ele></ele><time>2013-9-9T16:40:26Z</time></trkpt>
<trkpt lat="46.394786657765508" lon="7.080539613962174"><ele></ele><time>2013-9-9T16:40:29Z</time></trkpt>
<trkpt lat="46.394729828462005" lon="7.080503404140472"><ele></ele><time>2013-9-9T16:40:32Z</time></trkpt>
<trkpt lat="46.394713064655662" lon="7.080495189875364"><ele></ele><time>2013-9-9T16:40:35Z</time></trkpt>
<trkpt lat="46.394699737429619" lon="7.080488819628954"><ele></ele><time>2013-9-9T16:40:38Z</time></trkpt>
<trkpt lat="46.394688840955496" lon="7.08047884516418"><ele></ele><time>2013-9-9T16:40:41Z</time></trkpt>
<trkpt lat="46.394677525386214" lon="7.080469541251659"><ele></ele><time>2013-9-9T16:40:44Z</time></trkpt>
<trkpt lat="46.394611895084381" lon="7.080426709726453"><ele></ele><time>2013-9-9T16:40:47Z</time></trkpt>
<trkpt lat="46.394596807658672" lon="7.080421010032296"><ele></ele><time>2013-9-9T16:40:50Z</time></trkpt>
<trkpt lat="46.394583564251661" lon="7.0804104488343"><ele></ele><time>2013-9-9T16:40:53Z</time></trkpt>
<trkpt lat="46.394572667777538" lon="7.080395864322782"><ele></ele><time>2013-9-9T16:40:56Z</time></trkpt>
<trkpt lat="46.394551461562514" lon="7.080368455499411"><ele></ele><time>2013-9-9T16:40:59Z</time></trkpt>
<trkpt lat="46.394446939229965" lon="7.080296790227294"><ele></ele><time>2013-9-9T16:41:2Z</time></trkpt>
<trkpt lat="46.394430510699749" lon="7.080289162695408"><ele></ele><time>2013-9-9T16:41:5Z</time></trkpt>
<trkpt lat="46.394416261464357" lon="7.08028388209641"><ele></ele><time>2013-9-9T16:41:8Z</time></trkpt>
<trkpt lat="46.394401341676712" lon="7.080273656174541"><ele></ele><time>2013-9-9T16:41:11Z</time></trkpt>
<trkpt lat="46.394389942288399" lon="7.080262005329132"><ele></ele><time>2013-9-9T16:41:14Z</time></trkpt>
<trkpt lat="46.394314337521791" lon="7.080228310078383"><ele></ele><time>2013-9-9T16:41:17Z</time></trkpt>
<trkpt lat="46.394199170172215" lon="7.080220514908433"><ele></ele><time>2013-9-9T16:41:20Z</time></trkpt>
<trkpt lat="46.394179724156857" lon="7.08022478967905"><ele></ele><time>2013-9-9T16:41:23Z</time></trkpt>
<trkpt lat="46.394161032512784" lon="7.080228142440319"><ele></ele><time>2013-9-9T16:41:26Z</time></trkpt>
<trkpt lat="46.394140496850014" lon="7.080232417210937"><ele></ele><time>2013-9-9T16:41:29Z</time></trkpt>
<trkpt lat="46.394000016152859" lon="7.080234093591571"><ele></ele><time>2013-9-9T16:41:32Z</time></trkpt>
<trkpt lat="46.393818212673068" lon="7.080217748880386"><ele></ele><time>2013-9-9T16:41:35Z</time></trkpt>
<trkpt lat="46.393586955964565" lon="7.080197297036648"><ele></ele><time>2013-9-9T16:41:38Z</time></trkpt>
<trkpt lat="46.393462987616658" lon="7.08021791651845"><ele></ele><time>2013-9-9T16:41:41Z</time></trkpt>
<trkpt lat="46.393445720896125" lon="7.080228645354509"><ele></ele><time>2013-9-9T16:41:44Z</time></trkpt>
<trkpt lat="46.393424514681101" lon="7.080236440524459"><ele></ele><time>2013-9-9T16:41:47Z</time></trkpt>
<trkpt lat="46.393404481932521" lon="7.080246079713106"><ele></ele><time>2013-9-9T16:41:50Z</time></trkpt>
<trkpt lat="46.393384784460068" lon="7.080256221815944"><ele></ele><time>2013-9-9T16:41:53Z</time></trkpt>
<trkpt lat="46.39324028044939" lon="7.080308189615607"><ele></ele><time>2013-9-9T16:41:56Z</time></trkpt>
<trkpt lat="46.393035762012005" lon="7.080354709178209"><ele></ele><time>2013-9-9T16:41:59Z</time></trkpt>
<trkpt lat="46.39287038706243" lon="7.080385638400912"><ele></ele><time>2013-9-9T16:42:2Z</time></trkpt>
<trkpt lat="46.392847839742899" lon="7.080391421914101"><ele></ele><time>2013-9-9T16:42:5Z</time></trkpt>
<trkpt lat="46.392820598557591" lon="7.080398462712765"><ele></ele><time>2013-9-9T16:42:8Z</time></trkpt>
<trkpt lat="46.392793022096157" lon="7.080397456884384"><ele></ele><time>2013-9-9T16:42:11Z</time></trkpt>
<trkpt lat="46.392768044024706" lon="7.080395026132464"><ele></ele><time>2013-9-9T16:42:14Z</time></trkpt>
<trkpt lat="46.392640806734562" lon="7.080417824909091"><ele></ele><time>2013-9-9T16:42:17Z</time></trkpt>
<trkpt lat="46.392427738755941" lon="7.08045931532979"><ele></ele><time>2013-9-9T16:42:20Z</time></trkpt>
<trkpt lat="46.392262950539589" lon="7.08054237999022"><ele></ele><time>2013-9-9T16:42:23Z</time></trkpt>
<trkpt lat="46.392216682434082" lon="7.080574063584209"><ele></ele><time>2013-9-9T16:42:26Z</time></trkpt>
<trkpt lat="46.392168989405036" lon="7.080606333911419"><ele></ele><time>2013-9-9T16:42:29Z</time></trkpt>
<trkpt lat="46.39212129637599" lon="7.080643214285374"><ele></ele><time>2013-9-9T16:42:32Z</time></trkpt>
<trkpt lat="46.392066227272153" lon="7.080679507926107"><ele></ele><time>2013-9-9T16:42:35Z</time></trkpt>
<trkpt lat="46.392017109319568" lon="7.080706497654319"><ele></ele><time>2013-9-9T16:42:38Z</time></trkpt>
<trkpt lat="46.391971595585346" lon="7.080730386078358"><ele></ele><time>2013-9-9T16:42:41Z</time></trkpt>
<trkpt lat="46.391915520653129" lon="7.080747317522764"><ele></ele><time>2013-9-9T16:42:44Z</time></trkpt>
<trkpt lat="46.391858020797372" lon="7.080762153491378"><ele></ele><time>2013-9-9T16:42:47Z</time></trkpt>
<trkpt lat="46.391795994713902" lon="7.080768691375852"><ele></ele><time>2013-9-9T16:42:50Z</time></trkpt>
<trkpt lat="46.391744110733271" lon="7.080773133784533"><ele></ele><time>2013-9-9T16:42:53Z</time></trkpt>
<trkpt lat="46.391688454896212" lon="7.080784365534782"><ele></ele><time>2013-9-9T16:42:56Z</time></trkpt>
<trkpt lat="46.391631541773677" lon="7.080796267837286"><ele></ele><time>2013-9-9T16:42:59Z</time></trkpt>
<trkpt lat="46.391278496012092" lon="7.080904394388199"><ele></ele><time>2013-9-9T16:43:2Z</time></trkpt>
<trkpt lat="46.391077833250165" lon="7.080955021083355"><ele></ele><time>2013-9-9T16:43:5Z</time></trkpt>
<trkpt lat="46.390973143279552" lon="7.080981843173504"><ele></ele><time>2013-9-9T16:43:8Z</time></trkpt>
<trkpt lat="46.390945734456182" lon="7.080986285582185"><ele></ele><time>2013-9-9T16:43:11Z</time></trkpt>
<trkpt lat="46.390915308147669" lon="7.080991063266993"><ele></ele><time>2013-9-9T16:43:14Z</time></trkpt>
<trkpt lat="46.390874488279223" lon="7.08099827170372"><ele></ele><time>2013-9-9T16:43:17Z</time></trkpt>
<trkpt lat="46.390834338963032" lon="7.08100900053978"><ele></ele><time>2013-9-9T16:43:20Z</time></trkpt>
<trkpt lat="46.390788909047842" lon="7.081021489575505"><ele></ele><time>2013-9-9T16:43:23Z</time></trkpt>
<trkpt lat="46.390737360343337" lon="7.081037247553468"><ele></ele><time>2013-9-9T16:43:26Z</time></trkpt>
<trkpt lat="46.390676004812121" lon="7.08105493336916"><ele></ele><time>2013-9-9T16:43:29Z</time></trkpt>
<trkpt lat="46.390614146366715" lon="7.081071110442281"><ele></ele><time>2013-9-9T16:43:32Z</time></trkpt>
<trkpt lat="46.390538457781076" lon="7.081088125705719"><ele></ele><time>2013-9-9T16:43:35Z</time></trkpt>
<trkpt lat="46.390463942661881" lon="7.081105560064316"><ele></ele><time>2013-9-9T16:43:38Z</time></trkpt>
<trkpt lat="46.390389176085591" lon="7.081097345799208"><ele></ele><time>2013-9-9T16:43:41Z</time></trkpt>
<trkpt lat="46.39031583443284" lon="7.081076893955469"><ele></ele><time>2013-9-9T16:43:44Z</time></trkpt>
<trkpt lat="46.390237463638186" lon="7.08104663528502"><ele></ele><time>2013-9-9T16:43:47Z</time></trkpt>
<trkpt lat="46.390153728425503" lon="7.081010760739446"><ele></ele><time>2013-9-9T16:43:50Z</time></trkpt>
<trkpt lat="46.390070663765073" lon="7.080976143479347"><ele></ele><time>2013-9-9T16:43:53Z</time></trkpt>
<trkpt lat="46.389973098412156" lon="7.080935072153807"><ele></ele><time>2013-9-9T16:43:56Z</time></trkpt>
<trkpt lat="46.389870336279273" lon="7.080890815705061"><ele></ele><time>2013-9-9T16:43:59Z</time></trkpt>
<trkpt lat="46.3897670712322" lon="7.080848906189203"><ele></ele><time>2013-9-9T16:44:2Z</time></trkpt>
<trkpt lat="46.389657519757748" lon="7.080787802115083"><ele></ele><time>2013-9-9T16:44:5Z</time></trkpt>
<trkpt lat="46.389558864757419" lon="7.080731308087707"><ele></ele><time>2013-9-9T16:44:8Z</time></trkpt>
<trkpt lat="46.389471022412181" lon="7.08067623898387"><ele></ele><time>2013-9-9T16:44:11Z</time></trkpt>
<trkpt lat="46.389401787891984" lon="7.080636927857995"><ele></ele><time>2013-9-9T16:44:14Z</time></trkpt>
<trkpt lat="46.389346215873957" lon="7.080626785755158"><ele></ele><time>2013-9-9T16:44:17Z</time></trkpt>
<trkpt lat="46.389297936111689" lon="7.080633826553822"><ele></ele><time>2013-9-9T16:44:20Z</time></trkpt>
<trkpt lat="46.389282681047916" lon="7.080719321966171"><ele></ele><time>2013-9-9T16:44:23Z</time></trkpt>
<trkpt lat="46.389287961646914" lon="7.080787299200892"><ele></ele><time>2013-9-9T16:44:26Z</time></trkpt>
<trkpt lat="46.389500107616186" lon="7.081103716045618"><ele></ele><time>2013-9-9T16:44:29Z</time></trkpt>
<trkpt lat="46.389500107616186" lon="7.081103716045618"><ele></ele><time>2013-9-9T16:44:32Z</time></trkpt>
<trkpt lat="46.389537155628204" lon="7.081151995807886"><ele></ele><time>2013-9-9T16:44:35Z</time></trkpt>
<trkpt lat="46.389594404026866" lon="7.081218967214227"><ele></ele><time>2013-9-9T16:44:38Z</time></trkpt>
<trkpt lat="46.389648551121354" lon="7.081285687163472"><ele></ele><time>2013-9-9T16:44:41Z</time></trkpt>
<trkpt lat="46.389698842540383" lon="7.081355508416891"><ele></ele><time>2013-9-9T16:44:44Z</time></trkpt>
<trkpt lat="46.389748128131032" lon="7.081426838412881"><ele></ele><time>2013-9-9T16:44:47Z</time></trkpt>
<trkpt lat="46.38979397714138" lon="7.081505209207535"><ele></ele><time>2013-9-9T16:44:50Z</time></trkpt>
<trkpt lat="46.389837563037872" lon="7.081579975783825"><ele></ele><time>2013-9-9T16:44:53Z</time></trkpt>
<trkpt lat="46.389884501695633" lon="7.081674942746759"><ele></ele><time>2013-9-9T16:44:56Z</time></trkpt>
<trkpt lat="46.38992783613503" lon="7.081801677122712"><ele></ele><time>2013-9-9T16:44:59Z</time></trkpt>
<trkpt lat="46.38995910063386" lon="7.081919275224209"><ele></ele><time>2013-9-9T16:45:2Z</time></trkpt>
<trkpt lat="46.389994723722339" lon="7.082034358754754"><ele></ele><time>2013-9-9T16:45:5Z</time></trkpt>
<trkpt lat="46.390045685693622" lon="7.082148604094982"><ele></ele><time>2013-9-9T16:45:8Z</time></trkpt>
<trkpt lat="46.390116093680263" lon="7.082259831950069"><ele></ele><time>2013-9-9T16:45:11Z</time></trkpt>
<trkpt lat="46.390198990702629" lon="7.082362174987793"><ele></ele><time>2013-9-9T16:45:14Z</time></trkpt>
<trkpt lat="46.390283983200788" lon="7.082470888271928"><ele></ele><time>2013-9-9T16:45:17Z</time></trkpt>
<trkpt lat="46.390362437814474" lon="7.082579433917999"><ele></ele><time>2013-9-9T16:45:20Z</time></trkpt>
<trkpt lat="46.390439551323652" lon="7.082722429186106"><ele></ele><time>2013-9-9T16:45:23Z</time></trkpt>
<trkpt lat="46.390513312071562" lon="7.082864502444863"><ele></ele><time>2013-9-9T16:45:26Z</time></trkpt>
<trkpt lat="46.390570560470223" lon="7.082963744178414"><ele></ele><time>2013-9-9T16:45:29Z</time></trkpt>
<trkpt lat="46.390617080032825" lon="7.083036918193102"><ele></ele><time>2013-9-9T16:45:32Z</time></trkpt>
<trkpt lat="46.390643985942006" lon="7.083096094429493"><ele></ele><time>2013-9-9T16:45:35Z</time></trkpt>
<trkpt lat="46.39065002091229" lon="7.083155605942011"><ele></ele><time>2013-9-9T16:45:38Z</time></trkpt>
<trkpt lat="46.390623869374394" lon="7.083208747208118"><ele></ele><time>2013-9-9T16:45:41Z</time></trkpt>
<trkpt lat="46.390576176345348" lon="7.083231126889586"><ele></ele><time>2013-9-9T16:45:44Z</time></trkpt>
<trkpt lat="46.390524040907621" lon="7.083219895139337"><ele></ele><time>2013-9-9T16:45:47Z</time></trkpt>
<trkpt lat="46.390472408384085" lon="7.083187624812126"><ele></ele><time>2013-9-9T16:45:50Z</time></trkpt>
<trkpt lat="46.390423374250531" lon="7.083142362535"><ele></ele><time>2013-9-9T16:45:53Z</time></trkpt>
<trkpt lat="46.390374004840851" lon="7.083090227097273"><ele></ele><time>2013-9-9T16:45:56Z</time></trkpt>
<trkpt lat="46.390329664573073" lon="7.083044294267893"><ele></ele><time>2013-9-9T16:45:59Z</time></trkpt>
<trkpt lat="46.390275433659554" lon="7.082991069182754"><ele></ele><time>2013-9-9T16:46:2Z</time></trkpt>
<trkpt lat="46.390197398141026" lon="7.082952428609133"><ele></ele><time>2013-9-9T16:46:5Z</time></trkpt>
<trkpt lat="46.390121290460229" lon="7.082926779985428"><ele></ele><time>2013-9-9T16:46:8Z</time></trkpt>
<trkpt lat="46.390040405094624" lon="7.082910686731339"><ele></ele><time>2013-9-9T16:46:11Z</time></trkpt>
<trkpt lat="46.38995323330164" lon="7.08290196955204"><ele></ele><time>2013-9-9T16:46:14Z</time></trkpt>
<trkpt lat="46.389860613271594" lon="7.08289660513401"><ele></ele><time>2013-9-9T16:46:17Z</time></trkpt>
<trkpt lat="46.389760784804821" lon="7.082895096391439"><ele></ele><time>2013-9-9T16:46:20Z</time></trkpt>
<trkpt lat="46.389659028500319" lon="7.082896186038852"><ele></ele><time>2013-9-9T16:46:23Z</time></trkpt>
<trkpt lat="46.389553919434547" lon="7.082897946238518"><ele></ele><time>2013-9-9T16:46:26Z</time></trkpt>
<trkpt lat="46.389444367960095" lon="7.082899957895279"><ele></ele><time>2013-9-9T16:46:29Z</time></trkpt>
<trkpt lat="46.389327608048916" lon="7.082897275686264"><ele></ele><time>2013-9-9T16:46:32Z</time></trkpt>
<trkpt lat="46.38920858502388" lon="7.082883445546031"><ele></ele><time>2013-9-9T16:46:35Z</time></trkpt>
<trkpt lat="46.389092328026891" lon="7.082857210189104"><ele></ele><time>2013-9-9T16:46:38Z</time></trkpt>
<trkpt lat="46.388990906998515" lon="7.082824353128672"><ele></ele><time>2013-9-9T16:46:41Z</time></trkpt>
<trkpt lat="46.388911865651608" lon="7.082789149135351"><ele></ele><time>2013-9-9T16:46:44Z</time></trkpt>
<trkpt lat="46.38885092921555" lon="7.082756711170077"><ele></ele><time>2013-9-9T16:46:47Z</time></trkpt>
<trkpt lat="46.388804325833917" lon="7.082726955413818"><ele></ele><time>2013-9-9T16:46:50Z</time></trkpt>
<trkpt lat="46.388766942545772" lon="7.082696110010147"><ele></ele><time>2013-9-9T16:46:53Z</time></trkpt>
<trkpt lat="46.388728804886341" lon="7.082663839682937"><ele></ele><time>2013-9-9T16:46:56Z</time></trkpt>
<trkpt lat="46.388687733560801" lon="7.082626540213823"><ele></ele><time>2013-9-9T16:46:59Z</time></trkpt>
<trkpt lat="46.388643141835928" lon="7.082585049793124"><ele></ele><time>2013-9-9T16:47:2Z</time></trkpt>
<trkpt lat="46.388538619503379" lon="7.082493351772428"><ele></ele><time>2013-9-9T16:47:5Z</time></trkpt>
<trkpt lat="46.388477012515068" lon="7.082462338730693"><ele></ele><time>2013-9-9T16:47:8Z</time></trkpt>
<trkpt lat="46.388410711660981" lon="7.082444066181779"><ele></ele><time>2013-9-9T16:47:11Z</time></trkpt>
<trkpt lat="46.38833929784596" lon="7.082438450306654"><ele></ele><time>2013-9-9T16:47:14Z</time></trkpt>
<trkpt lat="46.388260005041957" lon="7.082441635429859"><ele></ele><time>2013-9-9T16:47:17Z</time></trkpt>
<trkpt lat="46.388175180181861" lon="7.082447838038206"><ele></ele><time>2013-9-9T16:47:20Z</time></trkpt>
<trkpt lat="46.388083985075355" lon="7.082461165264249"><ele></ele><time>2013-9-9T16:47:23Z</time></trkpt>
<trkpt lat="46.387984659522772" lon="7.082478012889624"><ele></ele><time>2013-9-9T16:47:26Z</time></trkpt>
<trkpt lat="46.38788340613246" lon="7.082494860514998"><ele></ele><time>2013-9-9T16:47:29Z</time></trkpt>
<trkpt lat="46.387784415856004" lon="7.082512294873595"><ele></ele><time>2013-9-9T16:47:32Z</time></trkpt>
<trkpt lat="46.387689029797912" lon="7.082526125013828"><ele></ele><time>2013-9-9T16:47:35Z</time></trkpt>
<trkpt lat="46.387591464444995" lon="7.08253987133503"><ele></ele><time>2013-9-9T16:47:38Z</time></trkpt>
<trkpt lat="46.38750228099525" lon="7.082545235753059"><ele></ele><time>2013-9-9T16:47:41Z</time></trkpt>
<trkpt lat="46.387417456135154" lon="7.0825310703367"><ele></ele><time>2013-9-9T16:47:44Z</time></trkpt>
<trkpt lat="46.387336989864707" lon="7.082486897706986"><ele></ele><time>2013-9-9T16:47:47Z</time></trkpt>
<trkpt lat="46.387265492230654" lon="7.082413136959076"><ele></ele><time>2013-9-9T16:47:50Z</time></trkpt>
<trkpt lat="46.387201622128487" lon="7.082316409796476"><ele></ele><time>2013-9-9T16:47:53Z</time></trkpt>
<trkpt lat="46.387146636843681" lon="7.082195458933711"><ele></ele><time>2013-9-9T16:47:56Z</time></trkpt>
<trkpt lat="46.387108666822314" lon="7.082060761749744"><ele></ele><time>2013-9-9T16:47:59Z</time></trkpt>
<trkpt lat="46.38707622885704" lon="7.081923633813858"><ele></ele><time>2013-9-9T16:48:2Z</time></trkpt>
<trkpt lat="46.387034403160214" lon="7.081796145066619"><ele></ele><time>2013-9-9T16:48:5Z</time></trkpt>
<trkpt lat="46.386976651847363" lon="7.08168575540185"><ele></ele><time>2013-9-9T16:48:8Z</time></trkpt>
<trkpt lat="46.38690372928977" lon="7.081599421799183"><ele></ele><time>2013-9-9T16:48:11Z</time></trkpt>
<trkpt lat="46.386815719306469" lon="7.081534126773477"><ele></ele><time>2013-9-9T16:48:14Z</time></trkpt>
<trkpt lat="46.386719411239028" lon="7.081478973850608"><ele></ele><time>2013-9-9T16:48:17Z</time></trkpt>
<trkpt lat="46.386614805087447" lon="7.081424072384834"><ele></ele><time>2013-9-9T16:48:20Z</time></trkpt>
<trkpt lat="46.386506007984281" lon="7.081370512023568"><ele></ele><time>2013-9-9T16:48:23Z</time></trkpt>
<trkpt lat="46.386396791785955" lon="7.081308569759131"><ele></ele><time>2013-9-9T16:48:26Z</time></trkpt>
<trkpt lat="46.386288832873106" lon="7.08124503493309"><ele></ele><time>2013-9-9T16:48:29Z</time></trkpt>
<trkpt lat="46.386176934465766" lon="7.081184601411223"><ele></ele><time>2013-9-9T16:48:32Z</time></trkpt>
<trkpt lat="46.386070987209678" lon="7.081128526479006"><ele></ele><time>2013-9-9T16:48:35Z</time></trkpt>
<trkpt lat="46.38597384095192" lon="7.081066919490695"><ele></ele><time>2013-9-9T16:48:38Z</time></trkpt>
<trkpt lat="46.385881891474128" lon="7.080993996933103"><ele></ele><time>2013-9-9T16:48:41Z</time></trkpt>
<trkpt lat="46.385788433253765" lon="7.080919397994876"><ele></ele><time>2013-9-9T16:48:44Z</time></trkpt>
<trkpt lat="46.385692795738578" lon="7.080849660560489"><ele></ele><time>2013-9-9T16:48:47Z</time></trkpt>
<trkpt lat="46.385597409680486" lon="7.080804733559489"><ele></ele><time>2013-9-9T16:48:50Z</time></trkpt>
<trkpt lat="46.385504705831409" lon="7.080795178189874"><ele></ele><time>2013-9-9T16:48:53Z</time></trkpt>
<trkpt lat="46.385416444391012" lon="7.080805320292711"><ele></ele><time>2013-9-9T16:48:56Z</time></trkpt>
<trkpt lat="46.385334134101868" lon="7.080805152654648"><ele></ele><time>2013-9-9T16:48:59Z</time></trkpt>
<trkpt lat="46.385257607325912" lon="7.080781096592546"><ele></ele><time>2013-9-9T16:49:2Z</time></trkpt>
<trkpt lat="46.385187869891524" lon="7.080742791295052"><ele></ele><time>2013-9-9T16:49:5Z</time></trkpt>
<trkpt lat="46.38512265868485" lon="7.080697948113084"><ele></ele><time>2013-9-9T16:49:8Z</time></trkpt>
<trkpt lat="46.385062644258142" lon="7.08064841106534"><ele></ele><time>2013-9-9T16:49:11Z</time></trkpt>
<trkpt lat="46.385008078068495" lon="7.080588145181537"><ele></ele><time>2013-9-9T16:49:14Z</time></trkpt>
<trkpt lat="46.384956780821085" lon="7.08052184432745"><ele></ele><time>2013-9-9T16:49:17Z</time></trkpt>
<trkpt lat="46.384748490527272" lon="7.080187574028969"><ele></ele><time>2013-9-9T16:49:20Z</time></trkpt>
<trkpt lat="46.384697109460831" lon="7.080102749168873"><ele></ele><time>2013-9-9T16:49:23Z</time></trkpt>
<trkpt lat="46.384643130004406" lon="7.080022282898426"><ele></ele><time>2013-9-9T16:49:26Z</time></trkpt>
<trkpt lat="46.384589150547981" lon="7.079948773607612"><ele></ele><time>2013-9-9T16:49:29Z</time></trkpt>
<trkpt lat="46.384534249082208" lon="7.079880628734827"><ele></ele><time>2013-9-9T16:49:32Z</time></trkpt>
<trkpt lat="46.38447817414999" lon="7.079818854108453"><ele></ele><time>2013-9-9T16:49:35Z</time></trkpt>
<trkpt lat="46.384249683469534" lon="7.079561781138182"><ele></ele><time>2013-9-9T16:49:38Z</time></trkpt>
<trkpt lat="46.384185058996081" lon="7.079496989026666"><ele></ele><time>2013-9-9T16:49:41Z</time></trkpt>
<trkpt lat="46.384116243571043" lon="7.079432280734181"><ele></ele><time>2013-9-9T16:49:44Z</time></trkpt>
<trkpt lat="46.384042985737324" lon="7.079364387318492"><ele></ele><time>2013-9-9T16:49:47Z</time></trkpt>
<trkpt lat="46.383967632427812" lon="7.0792914647609"><ele></ele><time>2013-9-9T16:49:50Z</time></trkpt>
<trkpt lat="46.383891440927982" lon="7.079214015975595"><ele></ele><time>2013-9-9T16:49:53Z</time></trkpt>
<trkpt lat="46.383814243599772" lon="7.079132962971926"><ele></ele><time>2013-9-9T16:49:56Z</time></trkpt>
<trkpt lat="46.383733358234167" lon="7.079050233587623"><ele></ele><time>2013-9-9T16:49:59Z</time></trkpt>
<trkpt lat="46.383647695183754" lon="7.078967001289129"><ele></ele><time>2013-9-9T16:50:2Z</time></trkpt>
<trkpt lat="46.383555913344026" lon="7.07888837903738"><ele></ele><time>2013-9-9T16:50:5Z</time></trkpt>
<trkpt lat="46.383455665782094" lon="7.078807409852743"><ele></ele><time>2013-9-9T16:50:8Z</time></trkpt>
<trkpt lat="46.383362039923668" lon="7.078732894733548"><ele></ele><time>2013-9-9T16:50:11Z</time></trkpt>
<trkpt lat="46.383279981091619" lon="7.078664246946573"><ele></ele><time>2013-9-9T16:50:14Z</time></trkpt>
<trkpt lat="46.38320286758244" lon="7.078598868101835"><ele></ele><time>2013-9-9T16:50:17Z</time></trkpt>
<trkpt lat="46.383134052157402" lon="7.078534075990319"><ele></ele><time>2013-9-9T16:50:20Z</time></trkpt>
<trkpt lat="46.383070014417171" lon="7.078457716852427"><ele></ele><time>2013-9-9T16:50:23Z</time></trkpt>
<trkpt lat="46.383012849837542" lon="7.078367862850428"><ele></ele><time>2013-9-9T16:50:26Z</time></trkpt>
<trkpt lat="46.382964067161083" lon="7.07827415317297"><ele></ele><time>2013-9-9T16:50:29Z</time></trkpt>
<trkpt lat="46.382916709408164" lon="7.078180694952607"><ele></ele><time>2013-9-9T16:50:32Z</time></trkpt>
<trkpt lat="46.382865747436881" lon="7.078088745474815"><ele></ele><time>2013-9-9T16:50:35Z</time></trkpt>
<trkpt lat="46.382807660847902" lon="7.077999729663134"><ele></ele><time>2013-9-9T16:50:38Z</time></trkpt>
<trkpt lat="46.38274110853672" lon="7.077914653345943"><ele></ele><time>2013-9-9T16:50:41Z</time></trkpt>
<trkpt lat="46.382668605074286" lon="7.077830834314227"><ele></ele><time>2013-9-9T16:50:44Z</time></trkpt>
<trkpt lat="46.382588306441903" lon="7.077740477398038"><ele></ele><time>2013-9-9T16:50:47Z</time></trkpt>
<trkpt lat="46.382503397762775" lon="7.077645845711231"><ele></ele><time>2013-9-9T16:50:50Z</time></trkpt>
<trkpt lat="46.38241320848465" lon="7.077535791322589"><ele></ele><time>2013-9-9T16:50:53Z</time></trkpt>
<trkpt lat="46.382325114682317" lon="7.077414924278855"><ele></ele><time>2013-9-9T16:50:56Z</time></trkpt>
<trkpt lat="46.382240792736411" lon="7.077276958152652"><ele></ele><time>2013-9-9T16:50:59Z</time></trkpt>
<trkpt lat="46.382171390578151" lon="7.07714444026351"><ele></ele><time>2013-9-9T16:51:2Z</time></trkpt>
<trkpt lat="46.382113052532077" lon="7.077014436945319"><ele></ele><time>2013-9-9T16:51:5Z</time></trkpt>
<trkpt lat="46.382063180208206" lon="7.076887534931302"><ele></ele><time>2013-9-9T16:51:8Z</time></trkpt>
<trkpt lat="46.382021103054285" lon="7.076760632917285"><ele></ele><time>2013-9-9T16:51:11Z</time></trkpt>
<trkpt lat="46.381983971223235" lon="7.076639598235488"><ele></ele><time>2013-9-9T16:51:14Z</time></trkpt>
<trkpt lat="46.381944576278329" lon="7.076529627665877"><ele></ele><time>2013-9-9T16:51:17Z</time></trkpt>
<trkpt lat="46.381899984553456" lon="7.076431475579739"><ele></ele><time>2013-9-9T16:51:20Z</time></trkpt>
<trkpt lat="46.381851453334093" lon="7.076342459768057"><ele></ele><time>2013-9-9T16:51:23Z</time></trkpt>
<trkpt lat="46.381791858002543" lon="7.076265681535006"><ele></ele><time>2013-9-9T16:51:26Z</time></trkpt>
<trkpt lat="46.381728071719408" lon="7.076195357367396"><ele></ele><time>2013-9-9T16:51:29Z</time></trkpt>
<trkpt lat="46.381653975695372" lon="7.076109694316983"><ele></ele><time>2013-9-9T16:51:32Z</time></trkpt>
<trkpt lat="46.381578454747796" lon="7.076018415391445"><ele></ele><time>2013-9-9T16:51:35Z</time></trkpt>
<trkpt lat="46.381501089781523" lon="7.07594683393836"><ele></ele><time>2013-9-9T16:51:38Z</time></trkpt>
<trkpt lat="46.381422970443964" lon="7.075904002413154"><ele></ele><time>2013-9-9T16:51:41Z</time></trkpt>
<trkpt lat="46.381340995430946" lon="7.075880533084273"><ele></ele><time>2013-9-9T16:51:44Z</time></trkpt>
<trkpt lat="46.381255583837628" lon="7.075859075412154"><ele></ele><time>2013-9-9T16:51:47Z</time></trkpt>
<trkpt lat="46.381172267720103" lon="7.075843987986445"><ele></ele><time>2013-9-9T16:51:50Z</time></trkpt>
<trkpt lat="46.381089119240642" lon="7.075834600254893"><ele></ele><time>2013-9-9T16:51:53Z</time></trkpt>
<trkpt lat="46.381002198904753" lon="7.075810628011823"><ele></ele><time>2013-9-9T16:51:56Z</time></trkpt>
<trkpt lat="46.380922151729465" lon="7.075768886134028"><ele></ele><time>2013-9-9T16:51:59Z</time></trkpt>
<trkpt lat="46.380845289677382" lon="7.075711889192462"><ele></ele><time>2013-9-9T16:52:2Z</time></trkpt>
<trkpt lat="46.380774462595582" lon="7.075650282204151"><ele></ele><time>2013-9-9T16:52:5Z</time></trkpt>
<trkpt lat="46.380714448168874" lon="7.075576521456242"><ele></ele><time>2013-9-9T16:52:8Z</time></trkpt>
<trkpt lat="46.380662815645337" lon="7.075473759323359"><ele></ele><time>2013-9-9T16:52:11Z</time></trkpt>
<trkpt lat="46.380616715177894" lon="7.075354568660259"><ele></ele><time>2013-9-9T16:52:14Z</time></trkpt>
<trkpt lat="46.38057304546237" lon="7.075229762122035"><ele></ele><time>2013-9-9T16:52:17Z</time></trkpt>
<trkpt lat="46.380534740164876" lon="7.0751210488379"><ele></ele><time>2013-9-9T16:52:20Z</time></trkpt>
<trkpt lat="46.380494842305779" lon="7.075018621981144"><ele></ele><time>2013-9-9T16:52:23Z</time></trkpt>
<trkpt lat="46.380446227267385" lon="7.074938742443919"><ele></ele><time>2013-9-9T16:52:26Z</time></trkpt>
<trkpt lat="46.380393840372562" lon="7.07487965002656"><ele></ele><time>2013-9-9T16:52:29Z</time></trkpt>
<trkpt lat="46.380336005240679" lon="7.074835309758782"><ele></ele><time>2013-9-9T16:52:32Z</time></trkpt>
<trkpt lat="46.380219664424658" lon="7.074811002239585"><ele></ele><time>2013-9-9T16:52:35Z</time></trkpt>
<trkpt lat="46.380159482359886" lon="7.07482298836112"><ele></ele><time>2013-9-9T16:52:38Z</time></trkpt>
<trkpt lat="46.380101311951876" lon="7.074852073565126"><ele></ele><time>2013-9-9T16:52:41Z</time></trkpt>
<trkpt lat="46.380048170685768" lon="7.074898509308696"><ele></ele><time>2013-9-9T16:52:44Z</time></trkpt>
<trkpt lat="46.380003495141864" lon="7.074961792677641"><ele></ele><time>2013-9-9T16:52:47Z</time></trkpt>
<trkpt lat="46.379969464614987" lon="7.075038654729724"><ele></ele><time>2013-9-9T16:52:50Z</time></trkpt>
<trkpt lat="46.37995052151382" lon="7.075125155970454"><ele></ele><time>2013-9-9T16:52:53Z</time></trkpt>
<trkpt lat="46.380351008847356" lon="7.076027886942029"><ele></ele><time>2013-9-9T16:52:56Z</time></trkpt>
<trkpt lat="46.380400294438004" lon="7.076161745935679"><ele></ele><time>2013-9-9T16:52:59Z</time></trkpt>
<trkpt lat="46.380443125963211" lon="7.076276410371065"><ele></ele><time>2013-9-9T16:53:2Z</time></trkpt>
<trkpt lat="46.380481934174895" lon="7.076397947967053"><ele></ele><time>2013-9-9T16:53:5Z</time></trkpt>
<trkpt lat="46.380517221987247" lon="7.076515797525644"><ele></ele><time>2013-9-9T16:53:8Z</time></trkpt>
<trkpt lat="46.380547061562538" lon="7.076635155826807"><ele></ele><time>2013-9-9T16:53:11Z</time></trkpt>
<trkpt lat="46.380563993006945" lon="7.07675694487989"><ele></ele><time>2013-9-9T16:53:14Z</time></trkpt>
<trkpt lat="46.380579248070717" lon="7.077098842710257"><ele></ele><time>2013-9-9T16:53:17Z</time></trkpt>
<trkpt lat="46.380579667165875" lon="7.077189618721604"><ele></ele><time>2013-9-9T16:53:20Z</time></trkpt>
<trkpt lat="46.380582097917795" lon="7.077227672562003"><ele></ele><time>2013-9-9T16:53:23Z</time></trkpt>
<trkpt lat="46.38058427721262" lon="7.077228175476193"><ele></ele><time>2013-9-9T16:53:26Z</time></trkpt>
<trkpt lat="46.380582684651017" lon="7.077189031988382"><ele></ele><time>2013-9-9T16:53:29Z</time></trkpt>
<trkpt lat="46.380572877824306" lon="7.077117785811424"><ele></ele><time>2013-9-9T16:53:32Z</time></trkpt>
<trkpt lat="46.380560053512454" lon="7.077023573219776"><ele></ele><time>2013-9-9T16:53:35Z</time></trkpt>
<trkpt lat="46.380097540095448" lon="7.076125536113977"><ele></ele><time>2013-9-9T16:53:38Z</time></trkpt>
<trkpt lat="46.380075076594949" lon="7.076019002124667"><ele></ele><time>2013-9-9T16:53:41Z</time></trkpt>
<trkpt lat="46.380050517618656" lon="7.07589746452868"><ele></ele><time>2013-9-9T16:53:44Z</time></trkpt>
<trkpt lat="46.380007853731513" lon="7.075789673253894"><ele></ele><time>2013-9-9T16:53:47Z</time></trkpt>
<trkpt lat="46.37996619567275" lon="7.075697220861912"><ele></ele><time>2013-9-9T16:53:50Z</time></trkpt>
<trkpt lat="46.379924872890115" lon="7.075610887259245"><ele></ele><time>2013-9-9T16:53:53Z</time></trkpt>
<trkpt lat="46.379885310307145" lon="7.075531175360084"><ele></ele><time>2013-9-9T16:53:56Z</time></trkpt>
<trkpt lat="46.379845160990953" lon="7.075452720746398"><ele></ele><time>2013-9-9T16:53:59Z</time></trkpt>
<trkpt lat="46.379803000018001" lon="7.075376780703664"><ele></ele><time>2013-9-9T16:54:2Z</time></trkpt>
<trkpt lat="46.379753882065415" lon="7.075302517041564"><ele></ele><time>2013-9-9T16:54:5Z</time></trkpt>
<trkpt lat="46.379687078297138" lon="7.075226744636893"><ele></ele><time>2013-9-9T16:54:8Z</time></trkpt>
<trkpt lat="46.379619101062417" lon="7.075156755745411"><ele></ele><time>2013-9-9T16:54:11Z</time></trkpt>
<trkpt lat="46.379489935934544" lon="7.075025914236903"><ele></ele><time>2013-9-9T16:54:14Z</time></trkpt>
<trkpt lat="46.379423886537552" lon="7.074969420209527"><ele></ele><time>2013-9-9T16:54:17Z</time></trkpt>
<trkpt lat="46.379354819655418" lon="7.074927091598511"><ele></ele><time>2013-9-9T16:54:20Z</time></trkpt>
<trkpt lat="46.37928256765008" lon="7.074899598956108"><ele></ele><time>2013-9-9T16:54:23Z</time></trkpt>
<trkpt lat="46.379207130521536" lon="7.074865652248263"><ele></ele><time>2013-9-9T16:54:26Z</time></trkpt>
<trkpt lat="46.379141667857766" lon="7.074820976704359"><ele></ele><time>2013-9-9T16:54:29Z</time></trkpt>
<trkpt lat="46.379083413630724" lon="7.074766661971808"><ele></ele><time>2013-9-9T16:54:32Z</time></trkpt>
<trkpt lat="46.379035888239741" lon="7.07471108995378"><ele></ele><time>2013-9-9T16:54:35Z</time></trkpt>
<trkpt lat="46.378989033401012" lon="7.074650237336755"><ele></ele><time>2013-9-9T16:54:38Z</time></trkpt>
<trkpt lat="46.37875291518867" lon="7.074265675619245"><ele></ele><time>2013-9-9T16:54:41Z</time></trkpt>
<trkpt lat="46.378650991246104" lon="7.074091667309403"><ele></ele><time>2013-9-9T16:54:44Z</time></trkpt>
<trkpt lat="46.378616290166974" lon="7.074040286242962"><ele></ele><time>2013-9-9T16:54:47Z</time></trkpt>
<trkpt lat="46.3785769790411" lon="7.073991252109408"><ele></ele><time>2013-9-9T16:54:50Z</time></trkpt>
<trkpt lat="46.378536662086844" lon="7.073951354250312"><ele></ele><time>2013-9-9T16:54:53Z</time></trkpt>
<trkpt lat="46.378494501113892" lon="7.073913216590881"><ele></ele><time>2013-9-9T16:54:56Z</time></trkpt>
<trkpt lat="46.378451585769653" lon="7.07387407310307"><ele></ele><time>2013-9-9T16:54:59Z</time></trkpt>
<trkpt lat="46.378406910225749" lon="7.073830738663673"><ele></ele><time>2013-9-9T16:55:2Z</time></trkpt>
<trkpt lat="46.378360139206052" lon="7.073782458901405"><ele></ele><time>2013-9-9T16:55:5Z</time></trkpt>
<trkpt lat="46.378315547481179" lon="7.07373384386301"><ele></ele><time>2013-9-9T16:55:8Z</time></trkpt>
<trkpt lat="46.37827405706048" lon="7.07368791103363"><ele></ele><time>2013-9-9T16:55:11Z</time></trkpt>
<trkpt lat="46.378231644630432" lon="7.073644995689392"><ele></ele><time>2013-9-9T16:55:14Z</time></trkpt>
<trkpt lat="46.378108765929937" lon="7.073553632944822"><ele></ele><time>2013-9-9T16:55:17Z</time></trkpt>
<trkpt lat="46.378068868070841" lon="7.073527816683054"><ele></ele><time>2013-9-9T16:55:20Z</time></trkpt>
<trkpt lat="46.378030143678188" lon="7.07350711338222"><ele></ele><time>2013-9-9T16:55:23Z</time></trkpt>
<trkpt lat="46.377996280789375" lon="7.073493786156178"><ele></ele><time>2013-9-9T16:55:26Z</time></trkpt>
<trkpt lat="46.377931823953986" lon="7.073467886075378"><ele></ele><time>2013-9-9T16:55:29Z</time></trkpt>
<trkpt lat="46.377870049327612" lon="7.073445841670036"><ele></ele><time>2013-9-9T16:55:32Z</time></trkpt>
<trkpt lat="46.377850268036127" lon="7.073434526100755"><ele></ele><time>2013-9-9T16:55:35Z</time></trkpt>
<trkpt lat="46.377825792878866" lon="7.073421701788902"><ele></ele><time>2013-9-9T16:55:38Z</time></trkpt>
<trkpt lat="46.377797545865178" lon="7.073408709838986"><ele></ele><time>2013-9-9T16:55:41Z</time></trkpt>
<trkpt lat="46.377776004374027" lon="7.073401333764195"><ele></ele><time>2013-9-9T16:55:44Z</time></trkpt>
<trkpt lat="46.377753624692559" lon="7.07338884472847"><ele></ele><time>2013-9-9T16:55:47Z</time></trkpt>
<trkpt lat="46.377736106514931" lon="7.073378199711442"><ele></ele><time>2013-9-9T16:55:50Z</time></trkpt>
<trkpt lat="46.377722695469856" lon="7.073366632685065"><ele></ele><time>2013-9-9T16:55:53Z</time></trkpt>
<trkpt lat="46.377710457891226" lon="7.073354227468371"><ele></ele><time>2013-9-9T16:55:56Z</time></trkpt>
<trkpt lat="46.377703500911593" lon="7.07333947531879"><ele></ele><time>2013-9-9T16:55:59Z</time></trkpt>
<trkpt lat="46.377699226140976" lon="7.073267642408609"><ele></ele><time>2013-9-9T16:56:2Z</time></trkpt>
<trkpt lat="46.377765107899904" lon="7.073330506682396"><ele></ele><time>2013-9-9T16:56:5Z</time></trkpt>
<trkpt lat="46.377791510894895" lon="7.073342995718122"><ele></ele><time>2013-9-9T16:56:8Z</time></trkpt>
<trkpt lat="46.377805257216096" lon="7.073350287973881"><ele></ele><time>2013-9-9T16:56:11Z</time></trkpt>
<trkpt lat="46.377819254994392" lon="7.073358166962862"><ele></ele><time>2013-9-9T16:56:14Z</time></trkpt>
<trkpt lat="46.377834342420101" lon="7.073368979617953"><ele></ele><time>2013-9-9T16:56:17Z</time></trkpt>
<trkpt lat="46.377849010750651" lon="7.073377864435315"><ele></ele><time>2013-9-9T16:56:20Z</time></trkpt>
<trkpt lat="46.377940457314253" lon="7.073445338755846"><ele></ele><time>2013-9-9T16:56:23Z</time></trkpt>
<trkpt lat="46.377956299111247" lon="7.073450786992908"><ele></ele><time>2013-9-9T16:56:26Z</time></trkpt>
<trkpt lat="46.377970715984702" lon="7.073455397039652"><ele></ele><time>2013-9-9T16:56:29Z</time></trkpt>
<trkpt lat="46.377983540296555" lon="7.073461432009935"><ele></ele><time>2013-9-9T16:56:32Z</time></trkpt>
<trkpt lat="46.377992173656821" lon="7.073466796427965"><ele></ele><time>2013-9-9T16:56:35Z</time></trkpt>
<trkpt lat="46.378000052645802" lon="7.073472999036312"><ele></ele><time>2013-9-9T16:56:38Z</time></trkpt>
<trkpt lat="46.378044057637453" lon="7.073522452265024"><ele></ele><time>2013-9-9T16:56:41Z</time></trkpt>
<trkpt lat="46.37806098908186" lon="7.073533684015274"><ele></ele><time>2013-9-9T16:56:44Z</time></trkpt>
<trkpt lat="46.37818805873394" lon="7.07359847612679"><ele></ele><time>2013-9-9T16:56:47Z</time></trkpt>
<trkpt lat="46.378249498084188" lon="7.073592022061348"><ele></ele><time>2013-9-9T16:56:50Z</time></trkpt>
<trkpt lat="46.378263328224421" lon="7.073580119758844"><ele></ele><time>2013-9-9T16:56:53Z</time></trkpt>
<trkpt lat="46.3782799243927" lon="7.073574084788561"><ele></ele><time>2013-9-9T16:56:56Z</time></trkpt>
<trkpt lat="46.378297442570329" lon="7.07356670871377"><ele></ele><time>2013-9-9T16:56:59Z</time></trkpt>
<trkpt lat="46.378306159749627" lon="7.073560170829296"><ele></ele><time>2013-9-9T16:57:2Z</time></trkpt>
<trkpt lat="46.378284869715571" lon="7.073441650718451"><ele></ele><time>2013-9-9T16:57:5Z</time></trkpt>
<trkpt lat="46.378260059282184" lon="7.073377529159188"><ele></ele><time>2013-9-9T16:57:8Z</time></trkpt>
<trkpt lat="46.378247067332268" lon="7.073350371792913"><ele></ele><time>2013-9-9T16:57:11Z</time></trkpt>
<trkpt lat="46.378234745934606" lon="7.073320280760527"><ele></ele><time>2013-9-9T16:57:14Z</time></trkpt>
<trkpt lat="46.378225022926927" lon="7.073293039575219"><ele></ele><time>2013-9-9T16:57:17Z</time></trkpt>
<trkpt lat="46.378222927451134" lon="7.073272168636322"><ele></ele><time>2013-9-9T16:57:20Z</time></trkpt>
<trkpt lat="46.378219239413738" lon="7.073254566639662"><ele></ele><time>2013-9-9T16:57:23Z</time></trkpt>
<trkpt lat="46.378213288262486" lon="7.073151720687747"><ele></ele><time>2013-9-9T16:57:26Z</time></trkpt>
<trkpt lat="46.378196105360985" lon="7.073052395135164"><ele></ele><time>2013-9-9T16:57:29Z</time></trkpt>
<trkpt lat="46.378190824761987" lon="7.07302775233984"><ele></ele><time>2013-9-9T16:57:32Z</time></trkpt>
<trkpt lat="46.378184873610735" lon="7.073004199191928"><ele></ele><time>2013-9-9T16:57:35Z</time></trkpt>
<trkpt lat="46.378178922459483" lon="7.072981568053365"><ele></ele><time>2013-9-9T16:57:38Z</time></trkpt>
<trkpt lat="46.378174815326929" lon="7.072962624952197"><ele></ele><time>2013-9-9T16:57:41Z</time></trkpt>
<trkpt lat="46.378163918852806" lon="7.072870591655374"><ele></ele><time>2013-9-9T16:57:44Z</time></trkpt>
<trkpt lat="46.378149501979351" lon="7.072774451225996"><ele></ele><time>2013-9-9T16:57:47Z</time></trkpt>
<trkpt lat="46.378144221380353" lon="7.072749892249703"><ele></ele><time>2013-9-9T16:57:50Z</time></trkpt>
<trkpt lat="46.378138521686196" lon="7.072727344930172"><ele></ele><time>2013-9-9T16:57:53Z</time></trkpt>
<trkpt lat="46.378132738173008" lon="7.072702534496784"><ele></ele><time>2013-9-9T16:57:56Z</time></trkpt>
<trkpt lat="46.3781279604882" lon="7.072683591395617"><ele></ele><time>2013-9-9T16:57:59Z</time></trkpt>
<trkpt lat="46.378123434260488" lon="7.072644028812647"><ele></ele><time>2013-9-9T16:58:2Z</time></trkpt>
<trkpt lat="46.378106335178018" lon="7.072531124576926"><ele></ele><time>2013-9-9T16:58:5Z</time></trkpt>
<trkpt lat="46.37810398824513" lon="7.0725117623806"><ele></ele><time>2013-9-9T16:58:8Z</time></trkpt>
<trkpt lat="46.37810155749321" lon="7.072490137070417"><ele></ele><time>2013-9-9T16:58:11Z</time></trkpt>
<trkpt lat="46.378095354884863" lon="7.072466583922505"><ele></ele><time>2013-9-9T16:58:14Z</time></trkpt>
<trkpt lat="46.378087559714913" lon="7.072443282231689"><ele></ele><time>2013-9-9T16:58:17Z</time></trkpt>
<trkpt lat="46.378081608563662" lon="7.072419645264745"><ele></ele><time>2013-9-9T16:58:20Z</time></trkpt>
<trkpt lat="46.378049924969673" lon="7.072291737422347"><ele></ele><time>2013-9-9T16:58:23Z</time></trkpt>
<trkpt lat="46.378047661855817" lon="7.072274722158909"><ele></ele><time>2013-9-9T16:58:26Z</time></trkpt>
<trkpt lat="46.378044309094548" lon="7.072255443781614"><ele></ele><time>2013-9-9T16:58:29Z</time></trkpt>
<trkpt lat="46.378037519752979" lon="7.072234489023686"><ele></ele><time>2013-9-9T16:58:32Z</time></trkpt>
<trkpt lat="46.378029221668839" lon="7.07221076823771"><ele></ele><time>2013-9-9T16:58:35Z</time></trkpt>
<trkpt lat="46.378023186698556" lon="7.072187047451735"><ele></ele><time>2013-9-9T16:58:38Z</time></trkpt>
<trkpt lat="46.378002986311913" lon="7.072100210934877"><ele></ele><time>2013-9-9T16:58:41Z</time></trkpt>
<trkpt lat="46.378000387921929" lon="7.072080932557583"><ele></ele><time>2013-9-9T16:58:44Z</time></trkpt>
<trkpt lat="46.378000220283866" lon="7.072064587846398"><ele></ele><time>2013-9-9T16:58:47Z</time></trkpt>
<trkpt lat="46.377998543903232" lon="7.072046902030706"><ele></ele><time>2013-9-9T16:58:50Z</time></trkpt>
<trkpt lat="46.377993766218424" lon="7.072030305862427"><ele></ele><time>2013-9-9T16:58:53Z</time></trkpt>
<trkpt lat="46.377972308546305" lon="7.071966268122196"><ele></ele><time>2013-9-9T16:58:56Z</time></trkpt>
<trkpt lat="46.377892177551985" lon="7.071873228996992"><ele></ele><time>2013-9-9T16:58:59Z</time></trkpt>
<trkpt lat="46.377881783992052" lon="7.071868786588311"><ele></ele><time>2013-9-9T16:59:2Z</time></trkpt>
<trkpt lat="46.377868289127946" lon="7.071857051923871"><ele></ele><time>2013-9-9T16:59:5Z</time></trkpt>
<trkpt lat="46.377856638282537" lon="7.071841880679131"><ele></ele><time>2013-9-9T16:59:8Z</time></trkpt>
<trkpt lat="46.377844149246812" lon="7.071829559281468"><ele></ele><time>2013-9-9T16:59:11Z</time></trkpt>
<trkpt lat="46.377809699624777" lon="7.071766443550587"><ele></ele><time>2013-9-9T16:59:14Z</time></trkpt>
<trkpt lat="46.377803664654493" lon="7.071756552904844"><ele></ele><time>2013-9-9T16:59:17Z</time></trkpt>
<trkpt lat="46.377797378227115" lon="7.071745404973626"><ele></ele><time>2013-9-9T16:59:20Z</time></trkpt>
<trkpt lat="46.377791259437799" lon="7.071731742471457"><ele></ele><time>2013-9-9T16:59:23Z</time></trkpt>
<trkpt lat="46.377783212810755" lon="7.071715230122209"><ele></ele><time>2013-9-9T16:59:26Z</time></trkpt>
<trkpt lat="46.377744153141975" lon="7.071570139378309"><ele></ele><time>2013-9-9T16:59:29Z</time></trkpt>
<trkpt lat="46.377740800380707" lon="7.071552956476808"><ele></ele><time>2013-9-9T16:59:32Z</time></trkpt>
<trkpt lat="46.377736022695899" lon="7.071532756090164"><ele></ele><time>2013-9-9T16:59:35Z</time></trkpt>
<trkpt lat="46.377735016867518" lon="7.07151154987514"><ele></ele><time>2013-9-9T16:59:38Z</time></trkpt>
<trkpt lat="46.377732586115599" lon="7.071490595117211"><ele></ele><time>2013-9-9T16:59:41Z</time></trkpt>
<trkpt lat="46.377733675763011" lon="7.071377690881491"><ele></ele><time>2013-9-9T16:59:44Z</time></trkpt>
<trkpt lat="46.377736860886216" lon="7.071264116093516"><ele></ele><time>2013-9-9T16:59:47Z</time></trkpt>
<trkpt lat="46.377735519781709" lon="7.071246933192015"><ele></ele><time>2013-9-9T16:59:50Z</time></trkpt>
<trkpt lat="46.377735519781709" lon="7.071234947070479"><ele></ele><time>2013-9-9T16:59:53Z</time></trkpt>
<trkpt lat="46.377733005210757" lon="7.071221452206373"><ele></ele><time>2013-9-9T16:59:56Z</time></trkpt>
<trkpt lat="46.377738872542977" lon="7.071156827732921"><ele></ele><time>2013-9-9T16:59:59Z</time></trkpt>
<trkpt lat="46.377757396548986" lon="7.071111146360636"><ele></ele><time>2013-9-9T17:0:2Z</time></trkpt>
<trkpt lat="46.37776100076735" lon="7.071093879640102"><ele></ele><time>2013-9-9T17:0:5Z</time></trkpt>
<trkpt lat="46.377766197547317" lon="7.071072673425078"><ele></ele><time>2013-9-9T17:0:8Z</time></trkpt>
<trkpt lat="46.377768712118268" lon="7.071050964295864"><ele></ele><time>2013-9-9T17:0:11Z</time></trkpt>
<trkpt lat="46.377769717946649" lon="7.071027494966984"><ele></ele><time>2013-9-9T17:0:14Z</time></trkpt>
<trkpt lat="46.37778103351593" lon="7.07098139449954"><ele></ele><time>2013-9-9T17:0:17Z</time></trkpt>
<trkpt lat="46.377790672704577" lon="7.070906292647123"><ele></ele><time>2013-9-9T17:0:20Z</time></trkpt>
<trkpt lat="46.377793271094561" lon="7.070885086432099"><ele></ele><time>2013-9-9T17:0:23Z</time></trkpt>
<trkpt lat="46.377790421247482" lon="7.070859018713236"><ele></ele><time>2013-9-9T17:0:26Z</time></trkpt>
<trkpt lat="46.377789499238133" lon="7.070831526070833"><ele></ele><time>2013-9-9T17:0:29Z</time></trkpt>
<trkpt lat="46.377787739038467" lon="7.070808140560985"><ele></ele><time>2013-9-9T17:0:32Z</time></trkpt>
<trkpt lat="46.377780195325613" lon="7.070768661797047"><ele></ele><time>2013-9-9T17:0:35Z</time></trkpt>
<trkpt lat="46.377779105678201" lon="7.070761620998383"><ele></ele><time>2013-9-9T17:0:38Z</time></trkpt>
<trkpt lat="46.377767287194729" lon="7.070672940462828"><ele></ele><time>2013-9-9T17:0:41Z</time></trkpt>
<trkpt lat="46.377765443176031" lon="7.070648381486535"><ele></ele><time>2013-9-9T17:0:44Z</time></trkpt>
<trkpt lat="46.377763766795397" lon="7.070624576881528"><ele></ele><time>2013-9-9T17:0:47Z</time></trkpt>
<trkpt lat="46.377761168405414" lon="7.070604208856821"><ele></ele><time>2013-9-9T17:0:50Z</time></trkpt>
<trkpt lat="46.377755217254162" lon="7.07058166153729"><ele></ele><time>2013-9-9T17:0:53Z</time></trkpt>
<trkpt lat="46.377749601379037" lon="7.070561796426773"><ele></ele><time>2013-9-9T17:0:56Z</time></trkpt>
<trkpt lat="46.377702662721276" lon="7.070359038189054"><ele></ele><time>2013-9-9T17:0:59Z</time></trkpt>
<trkpt lat="46.377697214484215" lon="7.070332886651158"><ele></ele><time>2013-9-9T17:1:2Z</time></trkpt>
<trkpt lat="46.377692185342312" lon="7.070306651294231"><ele></ele><time>2013-9-9T17:1:5Z</time></trkpt>
<trkpt lat="46.377689503133297" lon="7.070284774526954"><ele></ele><time>2013-9-9T17:1:8Z</time></trkpt>
<trkpt lat="46.377685396000743" lon="7.070263316854835"><ele></ele><time>2013-9-9T17:1:11Z</time></trkpt>
<trkpt lat="46.377675337716937" lon="7.070126943290234"><ele></ele><time>2013-9-9T17:1:14Z</time></trkpt>
<trkpt lat="46.377671398222446" lon="7.070104563608766"><ele></ele><time>2013-9-9T17:1:17Z</time></trkpt>
<trkpt lat="46.377668799832463" lon="7.070084363222122"><ele></ele><time>2013-9-9T17:1:20Z</time></trkpt>
<trkpt lat="46.377668380737305" lon="7.070061815902591"><ele></ele><time>2013-9-9T17:1:23Z</time></trkpt>
<trkpt lat="46.377662932500243" lon="7.069803904742003"><ele></ele><time>2013-9-9T17:1:26Z</time></trkpt>
<trkpt lat="46.377660082653165" lon="7.069771802052856"><ele></ele><time>2013-9-9T17:1:29Z</time></trkpt>
<trkpt lat="46.377655975520611" lon="7.069739699363709"><ele></ele><time>2013-9-9T17:1:32Z</time></trkpt>
<trkpt lat="46.377651616930962" lon="7.069707596674562"><ele></ele><time>2013-9-9T17:1:35Z</time></trkpt>
<trkpt lat="46.377647509798408" lon="7.069677170366049"><ele></ele><time>2013-9-9T17:1:38Z</time></trkpt>
<trkpt lat="46.377629237249494" lon="7.069405345246196"><ele></ele><time>2013-9-9T17:1:41Z</time></trkpt>
<trkpt lat="46.37763443402946" lon="7.069374835118651"><ele></ele><time>2013-9-9T17:1:44Z</time></trkpt>
<trkpt lat="46.377637283876538" lon="7.069351868703961"><ele></ele><time>2013-9-9T17:1:47Z</time></trkpt>
<trkpt lat="46.377642983570695" lon="7.069328483194113"><ele></ele><time>2013-9-9T17:1:50Z</time></trkpt>
<trkpt lat="46.377649269998074" lon="7.069303086027503"><ele></ele><time>2013-9-9T17:1:53Z</time></trkpt>
<trkpt lat="46.377656394615769" lon="7.069277940317988"><ele></ele><time>2013-9-9T17:1:56Z</time></trkpt>
<trkpt lat="46.37768916785717" lon="7.069136537611485"><ele></ele><time>2013-9-9T17:1:59Z</time></trkpt>
<trkpt lat="46.377636697143316" lon="7.068960014730692"><ele></ele><time>2013-9-9T17:2:2Z</time></trkpt>
<trkpt lat="46.377576598897576" lon="7.068882398307324"><ele></ele><time>2013-9-9T17:2:5Z</time></trkpt>
<trkpt lat="46.377576179802418" lon="7.068884242326021"><ele></ele><time>2013-9-9T17:2:8Z</time></trkpt>
<trkpt lat="46.377567294985056" lon="7.06884115934372"><ele></ele><time>2013-9-9T17:2:11Z</time></trkpt>
<trkpt lat="46.377540472894907" lon="7.068722890689969"><ele></ele><time>2013-9-9T17:2:14Z</time></trkpt>
<trkpt lat="46.377513986080885" lon="7.068376801908016"><ele></ele><time>2013-9-9T17:2:17Z</time></trkpt>
<trkpt lat="46.377503257244825" lon="7.068166751414537"><ele></ele><time>2013-9-9T17:2:20Z</time></trkpt>
<trkpt lat="46.37749663554132" lon="7.068161386996508"><ele></ele><time>2013-9-9T17:2:23Z</time></trkpt>
<trkpt lat="46.377497222274542" lon="7.067933985963464"><ele></ele><time>2013-9-9T17:2:26Z</time></trkpt>
<trkpt lat="46.377502251416445" lon="7.067905655130744"><ele></ele><time>2013-9-9T17:2:29Z</time></trkpt>
<trkpt lat="46.377514991909266" lon="7.06785854883492"><ele></ele><time>2013-9-9T17:2:32Z</time></trkpt>
<trkpt lat="46.37753183953464" lon="7.067819405347109"><ele></ele><time>2013-9-9T17:2:35Z</time></trkpt>
<trkpt lat="46.377546088770032" lon="7.067769533023238"><ele></ele><time>2013-9-9T17:2:38Z</time></trkpt>
<trkpt lat="46.377553632482886" lon="7.067722007632256"><ele></ele><time>2013-9-9T17:2:41Z</time></trkpt>
<trkpt lat="46.37755773961544" lon="7.067679259926081"><ele></ele><time>2013-9-9T17:2:44Z</time></trkpt>
<trkpt lat="46.377493534237146" lon="7.067503659054637"><ele></ele><time>2013-9-9T17:2:47Z</time></trkpt>
<trkpt lat="46.377417342737317" lon="7.067311545833945"><ele></ele><time>2013-9-9T17:2:50Z</time></trkpt>
<trkpt lat="46.377405524253845" lon="7.067258572205901"><ele></ele><time>2013-9-9T17:2:53Z</time></trkpt>
<trkpt lat="46.377354813739657" lon="7.067152122035623"><ele></ele><time>2013-9-9T17:2:56Z</time></trkpt>
<trkpt lat="46.377302259206772" lon="7.067048186436296"><ele></ele><time>2013-9-9T17:2:59Z</time></trkpt>
<trkpt lat="46.377249788492918" lon="7.066957745701075"><ele></ele><time>2013-9-9T17:3:2Z</time></trkpt>
<trkpt lat="46.377202263101935" lon="7.066892283037305"><ele></ele><time>2013-9-9T17:3:5Z</time></trkpt>
<trkpt lat="46.377068236470222" lon="7.066735876724124"><ele></ele><time>2013-9-9T17:3:8Z</time></trkpt>
<trkpt lat="46.377036720514297" lon="7.066678460687399"><ele></ele><time>2013-9-9T17:3:11Z</time></trkpt>
<trkpt lat="46.377004701644182" lon="7.066609980538487"><ele></ele><time>2013-9-9T17:3:14Z</time></trkpt>
<trkpt lat="46.376969246193767" lon="7.066552899777889"><ele></ele><time>2013-9-9T17:3:17Z</time></trkpt>
<trkpt lat="46.376924905925989" lon="7.066495902836323"><ele></ele><time>2013-9-9T17:3:20Z</time></trkpt>
<trkpt lat="46.376885427162051" lon="7.066440163180232"><ele></ele><time>2013-9-9T17:3:23Z</time></trkpt>
<trkpt lat="46.376846535131335" lon="7.066385848447681"><ele></ele><time>2013-9-9T17:3:26Z</time></trkpt>
<trkpt lat="46.376809235662222" lon="7.066325498744845"><ele></ele><time>2013-9-9T17:3:29Z</time></trkpt>
<trkpt lat="46.376773528754711" lon="7.066262885928154"><ele></ele><time>2013-9-9T17:3:32Z</time></trkpt>
<trkpt lat="46.376741006970406" lon="7.066207649186254"><ele></ele><time>2013-9-9T17:3:35Z</time></trkpt>
<trkpt lat="46.376689374446869" lon="7.066119471564889"><ele></ele><time>2013-9-9T17:3:38Z</time></trkpt>
<trkpt lat="46.376621229574084" lon="7.066029785200954"><ele></ele><time>2013-9-9T17:3:41Z</time></trkpt>
<trkpt lat="46.376600945368409" lon="7.066005142405629"><ele></ele><time>2013-9-9T17:3:44Z</time></trkpt>
<trkpt lat="46.376603040844202" lon="7.065978404134512"><ele></ele><time>2013-9-9T17:3:47Z</time></trkpt>
<trkpt lat="46.376604381948709" lon="7.065961053594947"><ele></ele><time>2013-9-9T17:3:50Z</time></trkpt>
<trkpt lat="46.376585774123669" lon="7.065759301185608"><ele></ele><time>2013-9-9T17:3:53Z</time></trkpt>
<trkpt lat="46.37658728286624" lon="7.065731137990952"><ele></ele><time>2013-9-9T17:3:56Z</time></trkpt>
<trkpt lat="46.37659071944654" lon="7.065704399719834"><ele></ele><time>2013-9-9T17:3:59Z</time></trkpt>
<trkpt lat="46.376596419140697" lon="7.065679589286447"><ele></ele><time>2013-9-9T17:4:2Z</time></trkpt>
<trkpt lat="46.376638999208808" lon="7.065595099702478"><ele></ele><time>2013-9-9T17:4:5Z</time></trkpt>
<trkpt lat="46.376674370840192" lon="7.065575318410993"><ele></ele><time>2013-9-9T17:4:8Z</time></trkpt>
<trkpt lat="46.376693397760391" lon="7.065566768869758"><ele></ele><time>2013-9-9T17:4:11Z</time></trkpt>
<trkpt lat="46.376711251214147" lon="7.065555872395635"><ele></ele><time>2013-9-9T17:4:14Z</time></trkpt>
<trkpt lat="46.376728853210807" lon="7.065545730292797"><ele></ele><time>2013-9-9T17:4:17Z</time></trkpt>
<trkpt lat="46.376746706664562" lon="7.065535504370928"><ele></ele><time>2013-9-9T17:4:20Z</time></trkpt>
<trkpt lat="46.376781659200788" lon="7.065518321469426"><ele></ele><time>2013-9-9T17:4:23Z</time></trkpt>
<trkpt lat="46.376857347786427" lon="7.065469538792968"><ele></ele><time>2013-9-9T17:4:26Z</time></trkpt>
<trkpt lat="46.376873189583421" lon="7.065456714481115"><ele></ele><time>2013-9-9T17:4:29Z</time></trkpt>
<trkpt lat="46.376888863742352" lon="7.065447410568595"><ele></ele><time>2013-9-9T17:4:32Z</time></trkpt>
<trkpt lat="46.376905795186758" lon="7.065436346456409"><ele></ele><time>2013-9-9T17:4:35Z</time></trkpt>
<trkpt lat="46.376921720802784" lon="7.065424360334873"><ele></ele><time>2013-9-9T17:4:38Z</time></trkpt>
<trkpt lat="46.376954326406121" lon="7.065400052815676"><ele></ele><time>2013-9-9T17:4:41Z</time></trkpt>
<trkpt lat="46.37704418040812" lon="7.065277928486466"><ele></ele><time>2013-9-9T17:4:44Z</time></trkpt>
<trkpt lat="46.377054825425148" lon="7.065258147194982"><ele></ele><time>2013-9-9T17:4:47Z</time></trkpt>
<trkpt lat="46.37706614099443" lon="7.065239120274782"><ele></ele><time>2013-9-9T17:4:50Z</time></trkpt>
<trkpt lat="46.377076702192426" lon="7.065219255164266"><ele></ele><time>2013-9-9T17:4:53Z</time></trkpt>
<trkpt lat="46.377088520675898" lon="7.065191343426704"><ele></ele><time>2013-9-9T17:4:56Z</time></trkpt>
<trkpt lat="46.377145936712623" lon="7.065036194398999"><ele></ele><time>2013-9-9T17:4:59Z</time></trkpt>
<trkpt lat="46.377156665548682" lon="7.065012138336897"><ele></ele><time>2013-9-9T17:5:2Z</time></trkpt>
<trkpt lat="46.377165550366044" lon="7.064987076446414"><ele></ele><time>2013-9-9T17:5:5Z</time></trkpt>
<trkpt lat="46.37717368081212" lon="7.064961930736899"><ele></ele><time>2013-9-9T17:5:8Z</time></trkpt>
<trkpt lat="46.377179631963372" lon="7.064935360103846"><ele></ele><time>2013-9-9T17:5:11Z</time></trkpt>
<trkpt lat="46.377197736874223" lon="7.064868807792664"><ele></ele><time>2013-9-9T17:5:14Z</time></trkpt>
<trkpt lat="46.377229420468211" lon="7.064687004312873"><ele></ele><time>2013-9-9T17:5:17Z</time></trkpt>
<trkpt lat="46.37723377905786" lon="7.064660014584661"><ele></ele><time>2013-9-9T17:5:20Z</time></trkpt>
<trkpt lat="46.377235623076558" lon="7.064634868875146"><ele></ele><time>2013-9-9T17:5:23Z</time></trkpt>
<trkpt lat="46.377235790714622" lon="7.06460821442306"><ele></ele><time>2013-9-9T17:5:26Z</time></trkpt>
<trkpt lat="46.377237634733319" lon="7.064580721780658"><ele></ele><time>2013-9-9T17:5:29Z</time></trkpt>
<trkpt lat="46.377290775999427" lon="7.064311411231756"><ele></ele><time>2013-9-9T17:5:32Z</time></trkpt>
<trkpt lat="46.377288345247507" lon="7.06428961828351"><ele></ele><time>2013-9-9T17:5:35Z</time></trkpt>
<trkpt lat="46.377284657210112" lon="7.064273944124579"><ele></ele><time>2013-9-9T17:5:38Z</time></trkpt>
<trkpt lat="46.377272922545671" lon="7.064254079014063"><ele></ele><time>2013-9-9T17:5:41Z</time></trkpt>
<trkpt lat="46.377257080748677" lon="7.064124159514904"><ele></ele><time>2013-9-9T17:5:44Z</time></trkpt>
<trkpt lat="46.377282058820128" lon="7.06391871906817"><ele></ele><time>2013-9-9T17:5:47Z</time></trkpt>
<trkpt lat="46.377290105447173" lon="7.063891729339957"><ele></ele><time>2013-9-9T17:5:50Z</time></trkpt>
<trkpt lat="46.377299074083567" lon="7.063866499811411"><ele></ele><time>2013-9-9T17:5:53Z</time></trkpt>
<trkpt lat="46.377308210358024" lon="7.063842192292213"><ele></ele><time>2013-9-9T17:5:56Z</time></trkpt>
<trkpt lat="46.377314412966371" lon="7.063815789297223"><ele></ele><time>2013-9-9T17:5:59Z</time></trkpt>
<trkpt lat="46.377341989427805" lon="7.063636835664511"><ele></ele><time>2013-9-9T17:6:2Z</time></trkpt>
<trkpt lat="46.377346934750676" lon="7.063620155677199"><ele></ele><time>2013-9-9T17:6:5Z</time></trkpt>
<trkpt lat="46.37735104188323" lon="7.063599452376366"><ele></ele><time>2013-9-9T17:6:8Z</time></trkpt>
<trkpt lat="46.377356238663197" lon="7.063577072694898"><ele></ele><time>2013-9-9T17:6:11Z</time></trkpt>
<trkpt lat="46.377361938357353" lon="7.063557375222445"><ele></ele><time>2013-9-9T17:6:14Z</time></trkpt>
<trkpt lat="46.377458833158016" lon="7.063395688310266"><ele></ele><time>2013-9-9T17:6:17Z</time></trkpt>
<trkpt lat="46.377470903098583" lon="7.063378840684891"><ele></ele><time>2013-9-9T17:6:20Z</time></trkpt>
<trkpt lat="46.377487666904926" lon="7.06335972994566"><ele></ele><time>2013-9-9T17:6:23Z</time></trkpt>
<trkpt lat="46.377504598349333" lon="7.063340786844492"><ele></ele><time>2013-9-9T17:6:26Z</time></trkpt>
<trkpt lat="46.377518009394407" lon="7.063325280323625"><ele></ele><time>2013-9-9T17:6:29Z</time></trkpt>
<trkpt lat="46.377616496756673" lon="7.06320290453732"><ele></ele><time>2013-9-9T17:6:32Z</time></trkpt>
<trkpt lat="46.377712888643146" lon="7.06287207081914"><ele></ele><time>2013-9-9T17:6:35Z</time></trkpt>
<trkpt lat="46.377719426527619" lon="7.062839213758707"><ele></ele><time>2013-9-9T17:6:38Z</time></trkpt>
<trkpt lat="46.377727137878537" lon="7.062802836298943"><ele></ele><time>2013-9-9T17:6:41Z</time></trkpt>
<trkpt lat="46.377740046009421" lon="7.062766961753368"><ele></ele><time>2013-9-9T17:6:44Z</time></trkpt>
<trkpt lat="46.377755720168352" lon="7.062729997560382"><ele></ele><time>2013-9-9T17:6:47Z</time></trkpt>
<trkpt lat="46.377842724323273" lon="7.062524640932679"><ele></ele><time>2013-9-9T17:6:50Z</time></trkpt>
<trkpt lat="46.378000304102898" lon="7.062106635421515"><ele></ele><time>2013-9-9T17:6:53Z</time></trkpt>
<trkpt lat="46.378018073737621" lon="7.062041256576777"><ele></ele><time>2013-9-9T17:6:56Z</time></trkpt>
<trkpt lat="46.378033915534616" lon="7.061972441151738"><ele></ele><time>2013-9-9T17:6:59Z</time></trkpt>
<trkpt lat="46.378047410398722" lon="7.061903290450573"><ele></ele><time>2013-9-9T17:7:2Z</time></trkpt>
<trkpt lat="46.378067024052143" lon="7.061832547187805"><ele></ele><time>2013-9-9T17:7:5Z</time></trkpt>
<trkpt lat="46.378166936337948" lon="7.061562314629555"><ele></ele><time>2013-9-9T17:7:8Z</time></trkpt>
<trkpt lat="46.378193758428097" lon="7.06148779951036"><ele></ele><time>2013-9-9T17:7:11Z</time></trkpt>
<trkpt lat="46.378220161423087" lon="7.061409596353769"><ele></ele><time>2013-9-9T17:7:14Z</time></trkpt>
<trkpt lat="46.37823885306716" lon="7.061329130083323"><ele></ele><time>2013-9-9T17:7:17Z</time></trkpt>
<trkpt lat="46.378255868330598" lon="7.061247657984495"><ele></ele><time>2013-9-9T17:7:20Z</time></trkpt>
<trkpt lat="46.37829358689487" lon="7.061099549755454"><ele></ele><time>2013-9-9T17:7:23Z</time></trkpt>
<trkpt lat="46.378359971567988" lon="7.06091171130538"><ele></ele><time>2013-9-9T17:7:26Z</time></trkpt>
<trkpt lat="46.378382435068488" lon="7.060862174257636"><ele></ele><time>2013-9-9T17:7:29Z</time></trkpt>
<trkpt lat="46.378405736759305" lon="7.060821689665318"><ele></ele><time>2013-9-9T17:7:32Z</time></trkpt>
<trkpt lat="46.378429541364312" lon="7.060785479843617"><ele></ele><time>2013-9-9T17:7:35Z</time></trkpt>
<trkpt lat="46.378451082855463" lon="7.06075094640255"><ele></ele><time>2013-9-9T17:7:38Z</time></trkpt>
<trkpt lat="46.378515036776662" lon="7.060689255595207"><ele></ele><time>2013-9-9T17:7:41Z</time></trkpt>
<trkpt lat="46.378533225506544" lon="7.060678359121084"><ele></ele><time>2013-9-9T17:7:44Z</time></trkpt>
<trkpt lat="46.378550324589014" lon="7.060667630285025"><ele></ele><time>2013-9-9T17:7:47Z</time></trkpt>
<trkpt lat="46.378564825281501" lon="7.060661343857646"><ele></ele><time>2013-9-9T17:7:50Z</time></trkpt>
<trkpt lat="46.378650823608041" lon="7.060607699677348"><ele></ele><time>2013-9-9T17:7:53Z</time></trkpt>
<trkpt lat="46.37866398319602" lon="7.060598144307733"><ele></ele><time>2013-9-9T17:7:56Z</time></trkpt>
<trkpt lat="46.378676136955619" lon="7.060588840395212"><ele></ele><time>2013-9-9T17:7:59Z</time></trkpt>
<trkpt lat="46.37868988327682" lon="7.060582134872675"><ele></ele><time>2013-9-9T17:8:2Z</time></trkpt>
<trkpt lat="46.378703126683831" lon="7.060574255883694"><ele></ele><time>2013-9-9T17:8:5Z</time></trkpt>
<trkpt lat="46.37879298068583" lon="7.060522204264998"><ele></ele><time>2013-9-9T17:8:8Z</time></trkpt>
<trkpt lat="46.378809073939919" lon="7.0605100505054"><ele></ele><time>2013-9-9T17:8:11Z</time></trkpt>
<trkpt lat="46.37882474809885" lon="7.060495465993881"><ele></ele><time>2013-9-9T17:8:14Z</time></trkpt>
<trkpt lat="46.378838829696178" lon="7.060479708015919"><ele></ele><time>2013-9-9T17:8:17Z</time></trkpt>
<trkpt lat="46.378852408379316" lon="7.060464033856988"><ele></ele><time>2013-9-9T17:8:20Z</time></trkpt>
<trkpt lat="46.378918373957276" lon="7.060379879549146"><ele></ele><time>2013-9-9T17:8:23Z</time></trkpt>
<trkpt lat="46.378929521888494" lon="7.060360684990883"><ele></ele><time>2013-9-9T17:8:26Z</time></trkpt>
<trkpt lat="46.378939999267459" lon="7.060341406613588"><ele></ele><time>2013-9-9T17:8:29Z</time></trkpt>
<trkpt lat="46.378949973732233" lon="7.060320619493723"><ele></ele><time>2013-9-9T17:8:32Z</time></trkpt>
<trkpt lat="46.378957601264119" lon="7.060299497097731"><ele></ele><time>2013-9-9T17:8:35Z</time></trkpt>
<trkpt lat="46.37899674475193" lon="7.06017242744565"><ele></ele><time>2013-9-9T17:8:38Z</time></trkpt>
<trkpt lat="46.379002695903182" lon="7.06015482544899"><ele></ele><time>2013-9-9T17:8:41Z</time></trkpt>
<trkpt lat="46.379009569063783" lon="7.06013772636652"><ele></ele><time>2013-9-9T17:8:44Z</time></trkpt>
<trkpt lat="46.379016023129225" lon="7.060123980045319"><ele></ele><time>2013-9-9T17:8:47Z</time></trkpt>
<trkpt lat="46.379025746136904" lon="7.060110988095403"><ele></ele><time>2013-9-9T17:8:50Z</time></trkpt>
<trkpt lat="46.379036726430058" lon="7.060098918154836"><ele></ele><time>2013-9-9T17:8:53Z</time></trkpt>
<trkpt lat="46.379080144688487" lon="7.060046615079045"><ele></ele><time>2013-9-9T17:8:56Z</time></trkpt>
<trkpt lat="46.379111241549253" lon="7.059993222355843"><ele></ele><time>2013-9-9T17:8:59Z</time></trkpt>
<trkpt lat="46.379121299833059" lon="7.059978470206261"><ele></ele><time>2013-9-9T17:9:2Z</time></trkpt>
<trkpt lat="46.379131022840738" lon="7.059950055554509"><ele></ele><time>2013-9-9T17:9:5Z</time></trkpt>
<trkpt lat="46.379140075296164" lon="7.059929771348834"><ele></ele><time>2013-9-9T17:9:8Z</time></trkpt>
<trkpt lat="46.379148038104177" lon="7.059901189059019"><ele></ele><time>2013-9-9T17:9:11Z</time></trkpt>
<trkpt lat="46.37917947024107" lon="7.059849472716451"><ele></ele><time>2013-9-9T17:9:14Z</time></trkpt>
<trkpt lat="46.379239484667778" lon="7.059790212661028"><ele></ele><time>2013-9-9T17:9:17Z</time></trkpt>
<trkpt lat="46.379251386970282" lon="7.059777472168207"><ele></ele><time>2013-9-9T17:9:20Z</time></trkpt>
<trkpt lat="46.379265049472451" lon="7.059764815494418"><ele></ele><time>2013-9-9T17:9:23Z</time></trkpt>
<trkpt lat="46.379278209060431" lon="7.059753835201263"><ele></ele><time>2013-9-9T17:9:26Z</time></trkpt>
<trkpt lat="46.379287680611014" lon="7.059742687270045"><ele></ele><time>2013-9-9T17:9:29Z</time></trkpt>
<trkpt lat="46.379296565428376" lon="7.059733467176557"><ele></ele><time>2013-9-9T17:9:32Z</time></trkpt>
<trkpt lat="46.379387592896819" lon="7.059655012562871"><ele></ele><time>2013-9-9T17:9:35Z</time></trkpt>
<trkpt lat="46.379398070275784" lon="7.059637242928147"><ele></ele><time>2013-9-9T17:9:38Z</time></trkpt>
<trkpt lat="46.37940963730216" lon="7.059618383646011"><ele></ele><time>2013-9-9T17:9:41Z</time></trkpt>
<trkpt lat="46.379423635080457" lon="7.059598937630653"><ele></ele><time>2013-9-9T17:9:44Z</time></trkpt>
<trkpt lat="46.37943796813488" lon="7.0595792401582"><ele></ele><time>2013-9-9T17:9:47Z</time></trkpt>
<trkpt lat="46.379488343372941" lon="7.059456026181579"><ele></ele><time>2013-9-9T17:9:50Z</time></trkpt>
<trkpt lat="46.37949027121067" lon="7.059449907392263"><ele></ele><time>2013-9-9T17:9:53Z</time></trkpt>
<trkpt lat="46.379489684477448" lon="7.059393413364887"><ele></ele><time>2013-9-9T17:9:56Z</time></trkpt>
<trkpt lat="46.379491360858083" lon="7.059307498857379"><ele></ele><time>2013-9-9T17:9:59Z</time></trkpt>
<trkpt lat="46.37953570112586" lon="7.058974402025342"><ele></ele><time>2013-9-9T17:10:2Z</time></trkpt>
<trkpt lat="46.379598062485456" lon="7.058720430359244"><ele></ele><time>2013-9-9T17:10:5Z</time></trkpt>
<trkpt lat="46.379674002528191" lon="7.058303849771619"><ele></ele><time>2013-9-9T17:10:8Z</time></trkpt>
<trkpt lat="46.379793612286448" lon="7.05791937187314"><ele></ele><time>2013-9-9T17:10:11Z</time></trkpt>
<trkpt lat="46.37980199418962" lon="7.05758024007082"><ele></ele><time>2013-9-9T17:10:14Z</time></trkpt>
<trkpt lat="46.379757821559906" lon="7.057420397177339"><ele></ele><time>2013-9-9T17:10:17Z</time></trkpt>
<trkpt lat="46.379748433828354" lon="7.0573774818331"><ele></ele><time>2013-9-9T17:10:20Z</time></trkpt>
<trkpt lat="46.379742817953229" lon="7.057335823774338"><ele></ele><time>2013-9-9T17:10:23Z</time></trkpt>
<trkpt lat="46.379739129915833" lon="7.05729047767818"><ele></ele><time>2013-9-9T17:10:26Z</time></trkpt>
<trkpt lat="46.379737872630358" lon="7.057248316705227"><ele></ele><time>2013-9-9T17:10:29Z</time></trkpt>
<trkpt lat="46.379795707762241" lon="7.057066764682531"><ele></ele><time>2013-9-9T17:10:32Z</time></trkpt>
<trkpt lat="46.379938367754221" lon="7.056893259286881"><ele></ele><time>2013-9-9T17:10:35Z</time></trkpt>
<trkpt lat="46.379950856789947" lon="7.056877082213759"><ele></ele><time>2013-9-9T17:10:38Z</time></trkpt>
<trkpt lat="46.379961920902133" lon="7.056860318407416"><ele></ele><time>2013-9-9T17:10:41Z</time></trkpt>
<trkpt lat="46.379975248128176" lon="7.056842716410756"><ele></ele><time>2013-9-9T17:10:44Z</time></trkpt>
<trkpt lat="46.379991844296455" lon="7.056826958432794"><ele></ele><time>2013-9-9T17:10:47Z</time></trkpt>
<trkpt lat="46.380090834572911" lon="7.056725956499577"><ele></ele><time>2013-9-9T17:10:50Z</time></trkpt>
<trkpt lat="46.380106508731842" lon="7.056698715314269"><ele></ele><time>2013-9-9T17:10:53Z</time></trkpt>
<trkpt lat="46.380119165405631" lon="7.056675245985389"><ele></ele><time>2013-9-9T17:10:56Z</time></trkpt>
<trkpt lat="46.380134001374245" lon="7.056649262085557"><ele></ele><time>2013-9-9T17:10:59Z</time></trkpt>
<trkpt lat="46.380300717428327" lon="7.056495035067201"><ele></ele><time>2013-9-9T17:11:2Z</time></trkpt>
<trkpt lat="46.380317732691765" lon="7.056487239897251"><ele></ele><time>2013-9-9T17:11:5Z</time></trkpt>
<trkpt lat="46.380336089059711" lon="7.056475589051843"><ele></ele><time>2013-9-9T17:11:8Z</time></trkpt>
<trkpt lat="46.380355283617973" lon="7.056464105844498"><ele></ele><time>2013-9-9T17:11:11Z</time></trkpt>
<trkpt lat="46.380371460691094" lon="7.056454718112946"><ele></ele><time>2013-9-9T17:11:14Z</time></trkpt>
<trkpt lat="46.380480341613293" lon="7.0562809612602"><ele></ele><time>2013-9-9T17:11:17Z</time></trkpt>
<trkpt lat="46.380510767921805" lon="7.056137127801776"><ele></ele><time>2013-9-9T17:11:20Z</time></trkpt>
<trkpt lat="46.380514539778233" lon="7.05610703676939"><ele></ele><time>2013-9-9T17:11:23Z</time></trkpt>
<trkpt lat="46.380516719073057" lon="7.056076359003782"><ele></ele><time>2013-9-9T17:11:26Z</time></trkpt>
<trkpt lat="46.380513114854693" lon="7.056039981544018"><ele></ele><time>2013-9-9T17:11:29Z</time></trkpt>
<trkpt lat="46.3805075827986" lon="7.05600880086422"><ele></ele><time>2013-9-9T17:11:32Z</time></trkpt>
<trkpt lat="46.380443125963211" lon="7.05573471263051"><ele></ele><time>2013-9-9T17:11:35Z</time></trkpt>
<trkpt lat="46.380420159548521" lon="7.055530361831188"><ele></ele><time>2013-9-9T17:11:38Z</time></trkpt>
<trkpt lat="46.380422003567219" lon="7.055492643266916"><ele></ele><time>2013-9-9T17:11:41Z</time></trkpt>
<trkpt lat="46.380426697432995" lon="7.055455930531025"><ele></ele><time>2013-9-9T17:11:44Z</time></trkpt>
<trkpt lat="46.380432983860373" lon="7.055415362119675"><ele></ele><time>2013-9-9T17:11:47Z</time></trkpt>
<trkpt lat="46.380438013002276" lon="7.055374123156071"><ele></ele><time>2013-9-9T17:11:50Z</time></trkpt>
<trkpt lat="46.38052367605269" lon="7.055158289149404"><ele></ele><time>2013-9-9T17:11:53Z</time></trkpt>
<trkpt lat="46.380635406821966" lon="7.055027028545737"><ele></ele><time>2013-9-9T17:11:56Z</time></trkpt>
<trkpt lat="46.380653511732817" lon="7.055007666349411"><ele></ele><time>2013-9-9T17:11:59Z</time></trkpt>
<trkpt lat="46.380672454833984" lon="7.054989226162434"><ele></ele><time>2013-9-9T17:12:2Z</time></trkpt>
<trkpt lat="46.380689470097423" lon="7.054976485669613"><ele></ele><time>2013-9-9T17:12:5Z</time></trkpt>
<trkpt lat="46.380708664655685" lon="7.054956620559096"><ele></ele><time>2013-9-9T17:12:8Z</time></trkpt>
<trkpt lat="46.380853001028299" lon="7.054877579212189"><ele></ele><time>2013-9-9T17:12:11Z</time></trkpt>
<trkpt lat="46.380868759006262" lon="7.054865844547749"><ele></ele><time>2013-9-9T17:12:14Z</time></trkpt>
<trkpt lat="46.380885019898415" lon="7.054853942245245"><ele></ele><time>2013-9-9T17:12:17Z</time></trkpt>
<trkpt lat="46.380901448428631" lon="7.054838351905346"><ele></ele><time>2013-9-9T17:12:20Z</time></trkpt>
<trkpt lat="46.380918128415942" lon="7.054824354127049"><ele></ele><time>2013-9-9T17:12:23Z</time></trkpt>
<trkpt lat="46.381078055128455" lon="7.054708683863282"><ele></ele><time>2013-9-9T17:12:26Z</time></trkpt>
<trkpt lat="46.381099596619606" lon="7.054662918671966"><ele></ele><time>2013-9-9T17:12:29Z</time></trkpt>
<trkpt lat="46.381107894703746" lon="7.054642550647259"><ele></ele><time>2013-9-9T17:12:32Z</time></trkpt>
<trkpt lat="46.38111736625433" lon="7.054620925337076"><ele></ele><time>2013-9-9T17:12:35Z</time></trkpt>
<trkpt lat="46.381129520013928" lon="7.054600389674306"><ele></ele><time>2013-9-9T17:12:38Z</time></trkpt>
<trkpt lat="46.381143182516098" lon="7.054577758535743"><ele></ele><time>2013-9-9T17:12:41Z</time></trkpt>
<trkpt lat="46.381186600774527" lon="7.054486311972141"><ele></ele><time>2013-9-9T17:12:44Z</time></trkpt>
<trkpt lat="46.381231192499399" lon="7.054334850981832"><ele></ele><time>2013-9-9T17:12:47Z</time></trkpt>
<trkpt lat="46.381241083145142" lon="7.054303586483002"><ele></ele><time>2013-9-9T17:12:50Z</time></trkpt>
<trkpt lat="46.381251309067011" lon="7.054271399974823"><ele></ele><time>2013-9-9T17:12:53Z</time></trkpt>
<trkpt lat="46.381258768960834" lon="7.054239381104708"><ele></ele><time>2013-9-9T17:12:56Z</time></trkpt>
<trkpt lat="46.381290620192885" lon="7.054125554859638"><ele></ele><time>2013-9-9T17:12:59Z</time></trkpt>
<trkpt lat="46.381280645728111" lon="7.053961604833603"><ele></ele><time>2013-9-9T17:13:2Z</time></trkpt>
<trkpt lat="46.381249548867345" lon="7.05376940779388"><ele></ele><time>2013-9-9T17:13:5Z</time></trkpt>
<trkpt lat="46.381252985447645" lon="7.053659940138459"><ele></ele><time>2013-9-9T17:13:8Z</time></trkpt>
<trkpt lat="46.381252985447645" lon="7.053659940138459"><ele></ele><time>2013-9-9T17:13:11Z</time></trkpt>
<trkpt lat="46.381261451169848" lon="7.053627921268344"><ele></ele><time>2013-9-9T17:13:14Z</time></trkpt>
<trkpt lat="46.381324902176857" lon="7.053249645978212"><ele></ele><time>2013-9-9T17:13:17Z</time></trkpt>
<trkpt lat="46.381331859156489" lon="7.053212430328131"><ele></ele><time>2013-9-9T17:13:20Z</time></trkpt>
<trkpt lat="46.381339319050312" lon="7.053176891058683"><ele></ele><time>2013-9-9T17:13:23Z</time></trkpt>
<trkpt lat="46.381348203867674" lon="7.053144788369536"><ele></ele><time>2013-9-9T17:13:26Z</time></trkpt>
<trkpt lat="46.38135583139956" lon="7.053113942965865"><ele></ele><time>2013-9-9T17:13:29Z</time></trkpt>
<trkpt lat="46.381466304883361" lon="7.05277162604034"><ele></ele><time>2013-9-9T17:13:32Z</time></trkpt>
<trkpt lat="46.38147896155715" lon="7.052706582471728"><ele></ele><time>2013-9-9T17:13:35Z</time></trkpt>
<trkpt lat="46.381487175822258" lon="7.052672384306788"><ele></ele><time>2013-9-9T17:13:38Z</time></trkpt>
<trkpt lat="46.381496395915747" lon="7.05264120362699"><ele></ele><time>2013-9-9T17:13:41Z</time></trkpt>
<trkpt lat="46.381505029276013" lon="7.052615890279412"><ele></ele><time>2013-9-9T17:13:44Z</time></trkpt>
<trkpt lat="46.381510058417916" lon="7.052589571103454"><ele></ele><time>2013-9-9T17:13:47Z</time></trkpt>
<trkpt lat="46.381526403129101" lon="7.052485300228"><ele></ele><time>2013-9-9T17:13:50Z</time></trkpt>
<trkpt lat="46.381575604900718" lon="7.052376586943865"><ele></ele><time>2013-9-9T17:13:53Z</time></trkpt>
<trkpt lat="46.381592033430934" lon="7.0523626729846"><ele></ele><time>2013-9-9T17:13:56Z</time></trkpt>
<trkpt lat="46.381610473617911" lon="7.052348172292113"><ele></ele><time>2013-9-9T17:13:59Z</time></trkpt>
<trkpt lat="46.381630338728428" lon="7.052332246676087"><ele></ele><time>2013-9-9T17:14:2Z</time></trkpt>
<trkpt lat="46.381645677611232" lon="7.052314477041364"><ele></ele><time>2013-9-9T17:14:5Z</time></trkpt>
<trkpt lat="46.381817255169153" lon="7.052207859233022"><ele></ele><time>2013-9-9T17:14:8Z</time></trkpt>
<trkpt lat="46.381932841613889" lon="7.052113059908152"><ele></ele><time>2013-9-9T17:14:11Z</time></trkpt>
<trkpt lat="46.381953964009881" lon="7.052097301930189"><ele></ele><time>2013-9-9T17:14:14Z</time></trkpt>
<trkpt lat="46.381978522986174" lon="7.052083052694798"><ele></ele><time>2013-9-9T17:14:17Z</time></trkpt>
<trkpt lat="46.382002159953117" lon="7.052067965269089"><ele></ele><time>2013-9-9T17:14:20Z</time></trkpt>
<trkpt lat="46.382024791091681" lon="7.052047178149223"><ele></ele><time>2013-9-9T17:14:23Z</time></trkpt>
<trkpt lat="46.382094863802195" lon="7.051977189257741"><ele></ele><time>2013-9-9T17:14:26Z</time></trkpt>
<trkpt lat="46.38231648132205" lon="7.051687845960259"><ele></ele><time>2013-9-9T17:14:29Z</time></trkpt>
<trkpt lat="46.382337687537074" lon="7.051549963653088"><ele></ele><time>2013-9-9T17:14:32Z</time></trkpt>
<trkpt lat="46.382334753870964" lon="7.05151878297329"><ele></ele><time>2013-9-9T17:14:35Z</time></trkpt>
<trkpt lat="46.382333748042583" lon="7.051489362493157"><ele></ele><time>2013-9-9T17:14:38Z</time></trkpt>
<trkpt lat="46.382333748042583" lon="7.051455415785313"><ele></ele><time>2013-9-9T17:14:41Z</time></trkpt>
<trkpt lat="46.382336094975471" lon="7.051417278125882"><ele></ele><time>2013-9-9T17:14:44Z</time></trkpt>
<trkpt lat="46.382340788841248" lon="7.051041517406702"><ele></ele><time>2013-9-9T17:14:47Z</time></trkpt>
<trkpt lat="46.382441120222211" lon="7.050744714215398"><ele></ele><time>2013-9-9T17:14:50Z</time></trkpt>
<trkpt lat="46.382614206522703" lon="7.0504096057266"><ele></ele><time>2013-9-9T17:14:53Z</time></trkpt>
<trkpt lat="46.382618146017194" lon="7.05015211366117"><ele></ele><time>2013-9-9T17:14:56Z</time></trkpt>
<trkpt lat="46.382620492950082" lon="7.049861010164022"><ele></ele><time>2013-9-9T17:14:59Z</time></trkpt>
<trkpt lat="46.382626527920365" lon="7.049803091213107"><ele></ele><time>2013-9-9T17:15:2Z</time></trkpt>
<trkpt lat="46.382638178765774" lon="7.049742490053177"><ele></ele><time>2013-9-9T17:15:5Z</time></trkpt>
<trkpt lat="46.382654188200831" lon="7.049684906378388"><ele></ele><time>2013-9-9T17:15:8Z</time></trkpt>
<trkpt lat="46.382671287283301" lon="7.049627071246505"><ele></ele><time>2013-9-9T17:15:11Z</time></trkpt>
<trkpt lat="46.382816880941391" lon="7.049309145659208"><ele></ele><time>2013-9-9T17:15:14Z</time></trkpt>
<trkpt lat="46.383105721324682" lon="7.048901952803135"><ele></ele><time>2013-9-9T17:15:17Z</time></trkpt>
<trkpt lat="46.383280148729682" lon="7.048713779076934"><ele></ele><time>2013-9-9T17:15:20Z</time></trkpt>
<trkpt lat="46.383310072124004" lon="7.04867497086525"><ele></ele><time>2013-9-9T17:15:23Z</time></trkpt>
<trkpt lat="46.38333479873836" lon="7.048648232594132"><ele></ele><time>2013-9-9T17:15:26Z</time></trkpt>
<trkpt lat="46.383352316915989" lon="7.048645969480276"><ele></ele><time>2013-9-9T17:15:29Z</time></trkpt>
<trkpt lat="46.383365727961063" lon="7.048646891489625"><ele></ele><time>2013-9-9T17:15:32Z</time></trkpt>
<trkpt lat="46.383370673283935" lon="7.048651920631528"><ele></ele><time>2013-9-9T17:15:35Z</time></trkpt>
<trkpt lat="46.383395483717322" lon="7.048561815172434"><ele></ele><time>2013-9-9T17:15:38Z</time></trkpt>
<trkpt lat="46.383455833420157" lon="7.0484858751297"><ele></ele><time>2013-9-9T17:15:41Z</time></trkpt>
<trkpt lat="46.383485672995448" lon="7.048452012240887"><ele></ele><time>2013-9-9T17:15:44Z</time></trkpt>
<trkpt lat="46.383519619703293" lon="7.048413455486298"><ele></ele><time>2013-9-9T17:15:47Z</time></trkpt>
<trkpt lat="46.383557338267565" lon="7.048374647274613"><ele></ele><time>2013-9-9T17:15:50Z</time></trkpt>
<trkpt lat="46.383602013811469" lon="7.048331061378121"><ele></ele><time>2013-9-9T17:15:53Z</time></trkpt>
<trkpt lat="46.383652053773403" lon="7.048288229852915"><ele></ele><time>2013-9-9T17:15:56Z</time></trkpt>
<trkpt lat="46.383695304393768" lon="7.0482371840626"><ele></ele><time>2013-9-9T17:15:59Z</time></trkpt>
<trkpt lat="46.383740315213799" lon="7.048183372244239"><ele></ele><time>2013-9-9T17:16:2Z</time></trkpt>
<trkpt lat="46.383783146739006" lon="7.048126459121704"><ele></ele><time>2013-9-9T17:16:5Z</time></trkpt>
<trkpt lat="46.383822960779071" lon="7.048067785799503"><ele></ele><time>2013-9-9T17:16:8Z</time></trkpt>
<trkpt lat="46.38386101461947" lon="7.048009028658271"><ele></ele><time>2013-9-9T17:16:11Z</time></trkpt>
<trkpt lat="46.383923040702939" lon="7.0479039195925"><ele></ele><time>2013-9-9T17:16:14Z</time></trkpt>
<trkpt lat="46.38406528159976" lon="7.047624131664634"><ele></ele><time>2013-9-9T17:16:17Z</time></trkpt>
<trkpt lat="46.384204169735312" lon="7.04740745946765"><ele></ele><time>2013-9-9T17:16:20Z</time></trkpt>
<trkpt lat="46.384236356243491" lon="7.04736839979887"><ele></ele><time>2013-9-9T17:16:23Z</time></trkpt>
<trkpt lat="46.38426954858005" lon="7.047329675406218"><ele></ele><time>2013-9-9T17:16:26Z</time></trkpt>
<trkpt lat="46.384306261315942" lon="7.047284748405218"><ele></ele><time>2013-9-9T17:16:29Z</time></trkpt>
<trkpt lat="46.384345320984721" lon="7.047240408137441"><ele></ele><time>2013-9-9T17:16:32Z</time></trkpt>
<trkpt lat="46.384387901052833" lon="7.047196570783854"><ele></ele><time>2013-9-9T17:16:35Z</time></trkpt>
<trkpt lat="46.384433330968022" lon="7.047147369012237"><ele></ele><time>2013-9-9T17:16:38Z</time></trkpt>
<trkpt lat="46.384479682892561" lon="7.047097161412239"><ele></ele><time>2013-9-9T17:16:41Z</time></trkpt>
<trkpt lat="46.384526370093226" lon="7.047044523060322"><ele></ele><time>2013-9-9T17:16:44Z</time></trkpt>
<trkpt lat="46.384574649855494" lon="7.046986604109407"><ele></ele><time>2013-9-9T17:16:47Z</time></trkpt>
<trkpt lat="46.384616391733289" lon="7.046928266063333"><ele></ele><time>2013-9-9T17:16:50Z</time></trkpt>
<trkpt lat="46.384651763364673" lon="7.046865737065673"><ele></ele><time>2013-9-9T17:16:53Z</time></trkpt>
<trkpt lat="46.384721249341965" lon="7.04673757776618"><ele></ele><time>2013-9-9T17:16:56Z</time></trkpt>
<trkpt lat="46.384753687307239" lon="7.046674126759172"><ele></ele><time>2013-9-9T17:16:59Z</time></trkpt>
<trkpt lat="46.384782185778022" lon="7.046610256657004"><ele></ele><time>2013-9-9T17:17:2Z</time></trkpt>
<trkpt lat="46.384808588773012" lon="7.046540603041649"><ele></ele><time>2013-9-9T17:17:5Z</time></trkpt>
<trkpt lat="46.384829292073846" lon="7.046474972739816"><ele></ele><time>2013-9-9T17:17:8Z</time></trkpt>
<trkpt lat="46.384830800816417" lon="7.046404229477048"><ele></ele><time>2013-9-9T17:17:11Z</time></trkpt>
<trkpt lat="46.384826358407736" lon="7.046333737671375"><ele></ele><time>2013-9-9T17:17:14Z</time></trkpt>
<trkpt lat="46.384822586551309" lon="7.046262826770544"><ele></ele><time>2013-9-9T17:17:17Z</time></trkpt>
<trkpt lat="46.384817473590374" lon="7.046192334964871"><ele></ele><time>2013-9-9T17:17:20Z</time></trkpt>
<trkpt lat="46.384811690077186" lon="7.046119160950184"><ele></ele><time>2013-9-9T17:17:23Z</time></trkpt>
<trkpt lat="46.384802553802729" lon="7.046040371060371"><ele></ele><time>2013-9-9T17:17:26Z</time></trkpt>
<trkpt lat="46.3847884722054" lon="7.045955043286085"><ele></ele><time>2013-9-9T17:17:29Z</time></trkpt>
<trkpt lat="46.384774474427104" lon="7.045871810987592"><ele></ele><time>2013-9-9T17:17:32Z</time></trkpt>
<trkpt lat="46.384753352031112" lon="7.045799307525158"><ele></ele><time>2013-9-9T17:17:35Z</time></trkpt>
<trkpt lat="46.384720830246806" lon="7.045733677223325"><ele></ele><time>2013-9-9T17:17:38Z</time></trkpt>
<trkpt lat="46.384681183844805" lon="7.045675255358219"><ele></ele><time>2013-9-9T17:17:41Z</time></trkpt>
<trkpt lat="46.384641034528613" lon="7.045616833493114"><ele></ele><time>2013-9-9T17:17:44Z</time></trkpt>
<trkpt lat="46.384571716189384" lon="7.045478280633688"><ele></ele><time>2013-9-9T17:17:47Z</time></trkpt>
<trkpt lat="46.384448166936636" lon="7.045075194910169"><ele></ele><time>2013-9-9T17:17:50Z</time></trkpt>
<trkpt lat="46.384298549965024" lon="7.044459627941251"><ele></ele><time>2013-9-9T17:17:53Z</time></trkpt>
<trkpt lat="46.384266447275877" lon="7.044390728697181"><ele></ele><time>2013-9-9T17:17:56Z</time></trkpt>
<trkpt lat="46.383972074836493" lon="7.043895525857806"><ele></ele><time>2013-9-9T17:17:59Z</time></trkpt>
<trkpt lat="46.383972074836493" lon="7.043895525857806"><ele></ele><time>2013-9-9T17:18:2Z</time></trkpt>
<trkpt lat="46.383943660184741" lon="7.043832829222083"><ele></ele><time>2013-9-9T17:18:5Z</time></trkpt>
<trkpt lat="46.383915999904275" lon="7.043768372386694"><ele></ele><time>2013-9-9T17:18:8Z</time></trkpt>
<trkpt lat="46.383892446756363" lon="7.043703328818083"><ele></ele><time>2013-9-9T17:18:11Z</time></trkpt>
<trkpt lat="46.38389085419476" lon="7.043497385457158"><ele></ele><time>2013-9-9T17:18:14Z</time></trkpt>
<trkpt lat="46.384017253294587" lon="7.043236372992396"><ele></ele><time>2013-9-9T17:18:17Z</time></trkpt>
<trkpt lat="46.384047931060195" lon="7.043185159564018"><ele></ele><time>2013-9-9T17:18:20Z</time></trkpt>
<trkpt lat="46.384077854454517" lon="7.043132185935974"><ele></ele><time>2013-9-9T17:18:23Z</time></trkpt>
<trkpt lat="46.384104508906603" lon="7.043074686080217"><ele></ele><time>2013-9-9T17:18:26Z</time></trkpt>
<trkpt lat="46.384128648787737" lon="7.043014001101255"><ele></ele><time>2013-9-9T17:18:29Z</time></trkpt>
<trkpt lat="46.384154548868537" lon="7.042943257838488"><ele></ele><time>2013-9-9T17:18:32Z</time></trkpt>
<trkpt lat="46.384189249947667" lon="7.042862204834819"><ele></ele><time>2013-9-9T17:18:35Z</time></trkpt>
<trkpt lat="46.384227890521288" lon="7.042787354439497"><ele></ele><time>2013-9-9T17:18:38Z</time></trkpt>
<trkpt lat="46.384289748966694" lon="7.042686603963375"><ele></ele><time>2013-9-9T17:18:41Z</time></trkpt>
<trkpt lat="46.384356217458844" lon="7.042584847658873"><ele></ele><time>2013-9-9T17:18:44Z</time></trkpt>
<trkpt lat="46.384429726749659" lon="7.042471021413803"><ele></ele><time>2013-9-9T17:18:47Z</time></trkpt>
<trkpt lat="46.384497452527285" lon="7.042350573465228"><ele></ele><time>2013-9-9T17:18:50Z</time></trkpt>
<trkpt lat="46.384566519409418" lon="7.042220402508974"><ele></ele><time>2013-9-9T17:18:53Z</time></trkpt>
<trkpt lat="46.384636592119932" lon="7.042089309543371"><ele></ele><time>2013-9-9T17:18:56Z</time></trkpt>
<trkpt lat="46.384706245735288" lon="7.04196073114872"><ele></ele><time>2013-9-9T17:18:59Z</time></trkpt>
<trkpt lat="46.384775312617421" lon="7.041834332048893"><ele></ele><time>2013-9-9T17:19:2Z</time></trkpt>
<trkpt lat="46.384855695068836" lon="7.041718158870935"><ele></ele><time>2013-9-9T17:19:5Z</time></trkpt>
<trkpt lat="46.384932389482856" lon="7.041612798348069"><ele></ele><time>2013-9-9T17:19:8Z</time></trkpt>
<trkpt lat="46.385012688115239" lon="7.041515652090311"><ele></ele><time>2013-9-9T17:19:11Z</time></trkpt>
<trkpt lat="46.385094579309225" lon="7.041431581601501"><ele></ele><time>2013-9-9T17:19:14Z</time></trkpt>
<trkpt lat="46.385178482159972" lon="7.041352959349752"><ele></ele><time>2013-9-9T17:19:17Z</time></trkpt>
<trkpt lat="46.385261127725244" lon="7.041283473372459"><ele></ele><time>2013-9-9T17:19:20Z</time></trkpt>
<trkpt lat="46.385345198214054" lon="7.041220609098673"><ele></ele><time>2013-9-9T17:19:23Z</time></trkpt>
<trkpt lat="46.385422479361296" lon="7.041166964918375"><ele></ele><time>2013-9-9T17:19:26Z</time></trkpt>
<trkpt lat="46.38550478965044" lon="7.041130922734737"><ele></ele><time>2013-9-9T17:19:29Z</time></trkpt>
<trkpt lat="46.385583328083158" lon="7.041091360151768"><ele></ele><time>2013-9-9T17:19:32Z</time></trkpt>
<trkpt lat="46.385660693049431" lon="7.041043248027563"><ele></ele><time>2013-9-9T17:19:35Z</time></trkpt>
<trkpt lat="46.385781643912196" lon="7.040958255529404"><ele></ele><time>2013-9-9T17:19:38Z</time></trkpt>
<trkpt lat="46.385799581184983" lon="7.040937636047602"><ele></ele><time>2013-9-9T17:19:41Z</time></trkpt>
<trkpt lat="46.385790277272463" lon="7.040934367105365"><ele></ele><time>2013-9-9T17:19:44Z</time></trkpt>
<trkpt lat="46.385752810165286" lon="7.040973762050271"><ele></ele><time>2013-9-9T17:19:47Z</time></trkpt>
<trkpt lat="46.385710313916206" lon="7.041048109531403"><ele></ele><time>2013-9-9T17:19:50Z</time></trkpt>
<trkpt lat="46.385667398571968" lon="7.041130503639579"><ele></ele><time>2013-9-9T17:19:53Z</time></trkpt>
<trkpt lat="46.385617023333907" lon="7.041195798665285"><ele></ele><time>2013-9-9T17:19:56Z</time></trkpt>
<trkpt lat="46.385563295334578" lon="7.041244832798839"><ele></ele><time>2013-9-9T17:19:59Z</time></trkpt>
<trkpt lat="46.385494899004698" lon="7.041274504736066"><ele></ele><time>2013-9-9T17:20:2Z</time></trkpt>
<trkpt lat="46.385430861264467" lon="7.041290095075965"><ele></ele><time>2013-9-9T17:20:5Z</time></trkpt>
<trkpt lat="46.385360956192017" lon="7.041294286027551"><ele></ele><time>2013-9-9T17:20:8Z</time></trkpt>
<trkpt lat="46.385284513235092" lon="7.041290933266282"><ele></ele><time>2013-9-9T17:20:11Z</time></trkpt>
<trkpt lat="46.385205471888185" lon="7.041279198601842"><ele></ele><time>2013-9-9T17:20:14Z</time></trkpt>
<trkpt lat="46.385121485218406" lon="7.041264614090323"><ele></ele><time>2013-9-9T17:20:17Z</time></trkpt>
<trkpt lat="46.385033223778009" lon="7.041245503351092"><ele></ele><time>2013-9-9T17:20:20Z</time></trkpt>
<trkpt lat="46.384947393089533" lon="7.041243156418204"><ele></ele><time>2013-9-9T17:20:23Z</time></trkpt>
<trkpt lat="46.384868854656816" lon="7.04123804345727"><ele></ele><time>2013-9-9T17:20:26Z</time></trkpt>
<trkpt lat="46.384803727269173" lon="7.041224967688322"><ele></ele><time>2013-9-9T17:20:29Z</time></trkpt>
<trkpt lat="46.384750166907907" lon="7.041193367913365"><ele></ele><time>2013-9-9T17:20:32Z</time></trkpt>
<trkpt lat="46.384637095034122" lon="7.041039140895009"><ele></ele><time>2013-9-9T17:20:35Z</time></trkpt>
<trkpt lat="46.384604321792722" lon="7.040970157831907"><ele></ele><time>2013-9-9T17:20:38Z</time></trkpt>
<trkpt lat="46.384576493874192" lon="7.040886171162128"><ele></ele><time>2013-9-9T17:20:41Z</time></trkpt>
<trkpt lat="46.384549671784043" lon="7.040790198370814"><ele></ele><time>2013-9-9T17:20:44Z</time></trkpt>
<trkpt lat="46.384526789188385" lon="7.040692633017898"><ele></ele><time>2013-9-9T17:20:47Z</time></trkpt>
<trkpt lat="46.384506169706583" lon="7.040585596114397"><ele></ele><time>2013-9-9T17:20:50Z</time></trkpt>
<trkpt lat="46.384487729519606" lon="7.040473278611898"><ele></ele><time>2013-9-9T17:20:53Z</time></trkpt>
<trkpt lat="46.384471133351326" lon="7.040353836491704"><ele></ele><time>2013-9-9T17:20:56Z</time></trkpt>
<trkpt lat="46.384522011503577" lon="7.040270855650306"><ele></ele><time>2013-9-9T17:20:59Z</time></trkpt>
<trkpt lat="46.384559813886881" lon="7.04019290395081"><ele></ele><time>2013-9-9T17:21:2Z</time></trkpt>
<trkpt lat="46.38463064096868" lon="7.040025349706411"><ele></ele><time>2013-9-9T17:21:5Z</time></trkpt>
<trkpt lat="46.38471563346684" lon="7.039922503754497"><ele></ele><time>2013-9-9T17:21:8Z</time></trkpt>
<trkpt lat="46.384771540760994" lon="7.039904063567519"><ele></ele><time>2013-9-9T17:21:11Z</time></trkpt>
<trkpt lat="46.384820071980357" lon="7.039878163486719"><ele></ele><time>2013-9-9T17:21:14Z</time></trkpt>
<trkpt lat="46.384861310943961" lon="7.039849581196904"><ele></ele><time>2013-9-9T17:21:17Z</time></trkpt>
<trkpt lat="46.384893078356981" lon="7.039756290614605"><ele></ele><time>2013-9-9T17:21:20Z</time></trkpt>
<trkpt lat="46.384891821071506" lon="7.039709184318781"><ele></ele><time>2013-9-9T17:21:23Z</time></trkpt>
<trkpt lat="46.384889725595713" lon="7.039655204862356"><ele></ele><time>2013-9-9T17:21:26Z</time></trkpt>
<trkpt lat="46.384886037558317" lon="7.039596866816282"><ele></ele><time>2013-9-9T17:21:29Z</time></trkpt>
<trkpt lat="46.384882014244795" lon="7.039528470486403"><ele></ele><time>2013-9-9T17:21:32Z</time></trkpt>
<trkpt lat="46.384875057265162" lon="7.039460577070713"><ele></ele><time>2013-9-9T17:21:35Z</time></trkpt>
<trkpt lat="46.384865920990705" lon="7.039400059729815"><ele></ele><time>2013-9-9T17:21:38Z</time></trkpt>
<trkpt lat="46.38485636562109" lon="7.03934951685369"><ele></ele><time>2013-9-9T17:21:41Z</time></trkpt>
<trkpt lat="46.384780928492546" lon="7.039175005629659"><ele></ele><time>2013-9-9T17:21:44Z</time></trkpt>
<trkpt lat="46.384625276550651" lon="7.038853811100125"><ele></ele><time>2013-9-9T17:21:47Z</time></trkpt>
<trkpt lat="46.384423021227121" lon="7.038562372326851"><ele></ele><time>2013-9-9T17:21:50Z</time></trkpt>
<trkpt lat="46.384287318214774" lon="7.038459107279778"><ele></ele><time>2013-9-9T17:21:53Z</time></trkpt>
<trkpt lat="46.38424364849925" lon="7.038438655436039"><ele></ele><time>2013-9-9T17:21:56Z</time></trkpt>
<trkpt lat="46.384205594658852" lon="7.038420801982284"><ele></ele><time>2013-9-9T17:21:59Z</time></trkpt>
<trkpt lat="46.384168295189738" lon="7.038405798375607"><ele></ele><time>2013-9-9T17:22:2Z</time></trkpt>
<trkpt lat="46.38413124717772" lon="7.038391046226025"><ele></ele><time>2013-9-9T17:22:5Z</time></trkpt>
<trkpt lat="46.384044075384736" lon="7.038352070376277"><ele></ele><time>2013-9-9T17:22:8Z</time></trkpt>
<trkpt lat="46.383994035422802" lon="7.038332959637046"><ele></ele><time>2013-9-9T17:22:11Z</time></trkpt>
<trkpt lat="46.383947096765041" lon="7.038321811705828"><ele></ele><time>2013-9-9T17:22:14Z</time></trkpt>
<trkpt lat="46.383903007954359" lon="7.03829993493855"><ele></ele><time>2013-9-9T17:22:17Z</time></trkpt>
<trkpt lat="46.383867217227817" lon="7.03827646560967"><ele></ele><time>2013-9-9T17:22:20Z</time></trkpt>
<trkpt lat="46.383787170052528" lon="7.038220725953579"><ele></ele><time>2013-9-9T17:22:23Z</time></trkpt>
<trkpt lat="46.383790103718638" lon="7.038224916905165"><ele></ele><time>2013-9-9T17:22:26Z</time></trkpt>
<trkpt lat="46.383739393204451" lon="7.038232460618019"><ele></ele><time>2013-9-9T17:22:29Z</time></trkpt>
<trkpt lat="46.383725898340344" lon="7.03822860494256"><ele></ele><time>2013-9-9T17:22:32Z</time></trkpt>
<trkpt lat="46.383673679083586" lon="7.038226006552577"><ele></ele><time>2013-9-9T17:22:35Z</time></trkpt>
<trkpt lat="46.383654735982418" lon="7.038228772580624"><ele></ele><time>2013-9-9T17:22:38Z</time></trkpt>
<trkpt lat="46.383535712957382" lon="7.038248218595982"><ele></ele><time>2013-9-9T17:22:41Z</time></trkpt>
<trkpt lat="46.383519032970071" lon="7.038245871663094"><ele></ele><time>2013-9-9T17:22:44Z</time></trkpt>
<trkpt lat="46.383502185344696" lon="7.038243776187301"><ele></ele><time>2013-9-9T17:22:47Z</time></trkpt>
<trkpt lat="46.383484918624163" lon="7.038242937996984"><ele></ele><time>2013-9-9T17:22:50Z</time></trkpt>
<trkpt lat="46.383339576423168" lon="7.038223911076784"><ele></ele><time>2013-9-9T17:22:53Z</time></trkpt>
<trkpt lat="46.38313103467226" lon="7.038160879164934"><ele></ele><time>2013-9-9T17:22:56Z</time></trkpt>
<trkpt lat="46.382976388558745" lon="7.038104133680463"><ele></ele><time>2013-9-9T17:22:59Z</time></trkpt>
<trkpt lat="46.382961049675941" lon="7.038097344338894"><ele></ele><time>2013-9-9T17:23:2Z</time></trkpt>
<trkpt lat="46.382944621145725" lon="7.038093069568276"><ele></ele><time>2013-9-9T17:23:5Z</time></trkpt>
<trkpt lat="46.382929868996143" lon="7.038090974092484"><ele></ele><time>2013-9-9T17:23:8Z</time></trkpt>
<trkpt lat="46.382875638082623" lon="7.038083765655756"><ele></ele><time>2013-9-9T17:23:11Z</time></trkpt>
<trkpt lat="46.382818892598152" lon="7.038108492270112"><ele></ele><time>2013-9-9T17:23:14Z</time></trkpt>
<trkpt lat="46.3828095048666" lon="7.038115784525871"><ele></ele><time>2013-9-9T17:23:17Z</time></trkpt>
<trkpt lat="46.382796680554748" lon="7.038122657686472"><ele></ele><time>2013-9-9T17:23:20Z</time></trkpt>
<trkpt lat="46.382781509310007" lon="7.038127351552248"><ele></ele><time>2013-9-9T17:23:23Z</time></trkpt>
<trkpt lat="46.382764661684632" lon="7.038137158378959"><ele></ele><time>2013-9-9T17:23:26Z</time></trkpt>
<trkpt lat="46.382747227326035" lon="7.038148725405335"><ele></ele><time>2013-9-9T17:23:29Z</time></trkpt>
<trkpt lat="46.382683021947742" lon="7.038187365978956"><ele></ele><time>2013-9-9T17:23:32Z</time></trkpt>
<trkpt lat="46.382670029997826" lon="7.038197927176952"><ele></ele><time>2013-9-9T17:23:35Z</time></trkpt>
<trkpt lat="46.382657457143068" lon="7.038203878328204"><ele></ele><time>2013-9-9T17:23:38Z</time></trkpt>
<trkpt lat="46.382646560668945" lon="7.038215361535549"><ele></ele><time>2013-9-9T17:23:41Z</time></trkpt>
<trkpt lat="46.38258277438581" lon="7.038227096199989"><ele></ele><time>2013-9-9T17:23:44Z</time></trkpt>
<trkpt lat="46.382566932588816" lon="7.038221983239055"><ele></ele><time>2013-9-9T17:23:47Z</time></trkpt>
<trkpt lat="46.382552264258265" lon="7.038221228867769"><ele></ele><time>2013-9-9T17:23:50Z</time></trkpt>
<trkpt lat="46.382541954517365" lon="7.038226090371609"><ele></ele><time>2013-9-9T17:23:53Z</time></trkpt>
<trkpt lat="46.382530638948083" lon="7.038231622427702"><ele></ele><time>2013-9-9T17:23:56Z</time></trkpt>
<trkpt lat="46.382519993931055" lon="7.038238495588303"><ele></ele><time>2013-9-9T17:23:59Z</time></trkpt>
<trkpt lat="46.382462829351425" lon="7.038277387619019"><ele></ele><time>2013-9-9T17:24:2Z</time></trkpt>
<trkpt lat="46.382339699193835" lon="7.03833656385541"><ele></ele><time>2013-9-9T17:24:5Z</time></trkpt>
<trkpt lat="46.382229058071971" lon="7.038353830575943"><ele></ele><time>2013-9-9T17:24:8Z</time></trkpt>
<trkpt lat="46.382217155769467" lon="7.038344861939549"><ele></ele><time>2013-9-9T17:24:11Z</time></trkpt>
<trkpt lat="46.382209109142423" lon="7.038337988778949"><ele></ele><time>2013-9-9T17:24:14Z</time></trkpt>
<trkpt lat="46.382200811058283" lon="7.038325918838382"><ele></ele><time>2013-9-9T17:24:17Z</time></trkpt>
<trkpt lat="46.382188573479652" lon="7.038316950201988"><ele></ele><time>2013-9-9T17:24:20Z</time></trkpt>
<trkpt lat="46.382108442485332" lon="7.038289289921522"><ele></ele><time>2013-9-9T17:24:23Z</time></trkpt>
<trkpt lat="46.381999896839261" lon="7.038229694589973"><ele></ele><time>2013-9-9T17:24:26Z</time></trkpt>
<trkpt lat="46.381893614307046" lon="7.038160962983966"><ele></ele><time>2013-9-9T17:24:29Z</time></trkpt>
<trkpt lat="46.38188062235713" lon="7.038148222491145"><ele></ele><time>2013-9-9T17:24:32Z</time></trkpt>
<trkpt lat="46.381870312616229" lon="7.038135817274451"><ele></ele><time>2013-9-9T17:24:35Z</time></trkpt>
<trkpt lat="46.381860505789518" lon="7.038116622716188"><ele></ele><time>2013-9-9T17:24:38Z</time></trkpt>
<trkpt lat="46.381849274039268" lon="7.038097260519862"><ele></ele><time>2013-9-9T17:24:41Z</time></trkpt>
<trkpt lat="46.381823625415564" lon="7.038057278841734"><ele></ele><time>2013-9-9T17:24:44Z</time></trkpt>
<trkpt lat="46.381843155249953" lon="7.037675231695175"><ele></ele><time>2013-9-9T17:24:47Z</time></trkpt>
<trkpt lat="46.381835611537099" lon="7.03764321282506"><ele></ele><time>2013-9-9T17:24:50Z</time></trkpt>
<trkpt lat="46.381812561303377" lon="7.037615636363626"><ele></ele><time>2013-9-9T17:24:53Z</time></trkpt>
<trkpt lat="46.381795629858971" lon="7.037597363814712"><ele></ele><time>2013-9-9T17:24:56Z</time></trkpt>
<trkpt lat="46.38177995570004" lon="7.037586802616715"><ele></ele><time>2013-9-9T17:24:59Z</time></trkpt>
<trkpt lat="46.381726730614901" lon="7.037594513967633"><ele></ele><time>2013-9-9T17:25:2Z</time></trkpt>
<trkpt lat="46.381715666502714" lon="7.037597112357616"><ele></ele><time>2013-9-9T17:25:5Z</time></trkpt>
<trkpt lat="46.381656154990196" lon="7.037594094872475"><ele></ele><time>2013-9-9T17:25:8Z</time></trkpt>
<trkpt lat="46.381649533286691" lon="7.0375997107476"><ele></ele><time>2013-9-9T17:25:11Z</time></trkpt>
<trkpt lat="46.381634445860982" lon="7.037607841193676"><ele></ele><time>2013-9-9T17:25:14Z</time></trkpt>
<trkpt lat="46.3816162571311" lon="7.037607841193676"><ele></ele><time>2013-9-9T17:25:17Z</time></trkpt>
<trkpt lat="46.381591195240617" lon="7.037606248632073"><ele></ele><time>2013-9-9T17:25:20Z</time></trkpt>
<trkpt lat="46.381554985418916" lon="7.037611696869135"><ele></ele><time>2013-9-9T17:25:23Z</time></trkpt>
<trkpt lat="46.381522044539452" lon="7.037608763203025"><ele></ele><time>2013-9-9T17:25:26Z</time></trkpt>
<trkpt lat="46.381484912708402" lon="7.037598118185997"><ele></ele><time>2013-9-9T17:25:29Z</time></trkpt>
<trkpt lat="46.381450966000557" lon="7.037585210055113"><ele></ele><time>2013-9-9T17:25:32Z</time></trkpt>
<trkpt lat="46.381425065919757" lon="7.037569368258119"><ele></ele><time>2013-9-9T17:25:35Z</time></trkpt>
<trkpt lat="46.381330937147141" lon="7.03753131441772"><ele></ele><time>2013-9-9T17:25:38Z</time></trkpt>
<trkpt lat="46.381294643506408" lon="7.037522178143263"><ele></ele><time>2013-9-9T17:25:41Z</time></trkpt>
<trkpt lat="46.381252566352487" lon="7.03751957975328"><ele></ele><time>2013-9-9T17:25:44Z</time></trkpt>
<trkpt lat="46.381212081760168" lon="7.037519495934248"><ele></ele><time>2013-9-9T17:25:47Z</time></trkpt>
<trkpt lat="46.381174111738801" lon="7.037524273619056"><ele></ele><time>2013-9-9T17:25:50Z</time></trkpt>
<trkpt lat="46.381073277443647" lon="7.037493176758289"><ele></ele><time>2013-9-9T17:25:53Z</time></trkpt>
<trkpt lat="46.380946962162852" lon="7.037372058257461"><ele></ele><time>2013-9-9T17:25:56Z</time></trkpt>
<trkpt lat="46.380895916372538" lon="7.037359988316894"><ele></ele><time>2013-9-9T17:25:59Z</time></trkpt>
<trkpt lat="46.380878230556846" lon="7.037359401583672"><ele></ele><time>2013-9-9T17:26:2Z</time></trkpt>
<trkpt lat="46.380858533084393" lon="7.037357138469815"><ele></ele><time>2013-9-9T17:26:5Z</time></trkpt>
<trkpt lat="46.380839925259352" lon="7.037353282794356"><ele></ele><time>2013-9-9T17:26:8Z</time></trkpt>
<trkpt lat="46.380827100947499" lon="7.037353869527578"><ele></ele><time>2013-9-9T17:26:11Z</time></trkpt>
<trkpt lat="46.380811762064695" lon="7.037352779880166"><ele></ele><time>2013-9-9T17:26:14Z</time></trkpt>
<trkpt lat="46.380669353529811" lon="7.037331154569984"><ele></ele><time>2013-9-9T17:26:17Z</time></trkpt>
<trkpt lat="46.380594922229648" lon="7.037282371893525"><ele></ele><time>2013-9-9T17:26:20Z</time></trkpt>
<trkpt lat="46.380578996613622" lon="7.037276420742273"><ele></ele><time>2013-9-9T17:26:23Z</time></trkpt>
<trkpt lat="46.380562148988247" lon="7.037268206477165"><ele></ele><time>2013-9-9T17:26:26Z</time></trkpt>
<trkpt lat="46.380547899752855" lon="7.037263093516231"><ele></ele><time>2013-9-9T17:26:29Z</time></trkpt>
<trkpt lat="46.380537003278732" lon="7.037260411307216"><ele></ele><time>2013-9-9T17:26:32Z</time></trkpt>
<trkpt lat="46.380511857569218" lon="7.037266865372658"><ele></ele><time>2013-9-9T17:26:35Z</time></trkpt>
<trkpt lat="46.38035268522799" lon="7.037268206477165"><ele></ele><time>2013-9-9T17:26:38Z</time></trkpt>
<trkpt lat="46.380338352173567" lon="7.037261836230755"><ele></ele><time>2013-9-9T17:26:41Z</time></trkpt>
<trkpt lat="46.380193596705794" lon="7.037197798490524"><ele></ele><time>2013-9-9T17:26:44Z</time></trkpt>
<trkpt lat="46.380172558128834" lon="7.037188326939941"><ele></ele><time>2013-9-9T17:26:47Z</time></trkpt>
<trkpt lat="46.380155878141522" lon="7.037182040512562"><ele></ele><time>2013-9-9T17:26:50Z</time></trkpt>
<trkpt lat="46.380143724381924" lon="7.037180783227086"><ele></ele><time>2013-9-9T17:26:53Z</time></trkpt>
<trkpt lat="46.38013232499361" lon="7.037188913673163"><ele></ele><time>2013-9-9T17:26:56Z</time></trkpt>
<trkpt lat="46.380116147920489" lon="7.037199223414064"><ele></ele><time>2013-9-9T17:26:59Z</time></trkpt>
<trkpt lat="46.380084631964564" lon="7.037214310839772"><ele></ele><time>2013-9-9T17:27:2Z</time></trkpt>
<trkpt lat="46.379935098811984" lon="7.037263177335262"><ele></ele><time>2013-9-9T17:27:5Z</time></trkpt>
<trkpt lat="46.379833007231355" lon="7.037239708006382"><ele></ele><time>2013-9-9T17:27:8Z</time></trkpt>
<trkpt lat="46.379817835986614" lon="7.037237863987684"><ele></ele><time>2013-9-9T17:27:11Z</time></trkpt>
<trkpt lat="46.37980543076992" lon="7.037236858159304"><ele></ele><time>2013-9-9T17:27:14Z</time></trkpt>
<trkpt lat="46.37981079518795" lon="7.037238534539938"><ele></ele><time>2013-9-9T17:27:17Z</time></trkpt>
<trkpt lat="46.379812639206648" lon="7.037239288911223"><ele></ele><time>2013-9-9T17:27:20Z</time></trkpt>
<trkpt lat="46.37981322593987" lon="7.037244234234095"><ele></ele><time>2013-9-9T17:27:23Z</time></trkpt>
<trkpt lat="46.378493327647448" lon="7.039126474410296"><ele></ele><time>2013-9-9T17:27:26Z</time></trkpt>
<trkpt lat="46.378491064533591" lon="7.039153045043349"><ele></ele><time>2013-9-9T17:27:29Z</time></trkpt>
<trkpt lat="46.378494333475828" lon="7.039193110540509"><ele></ele><time>2013-9-9T17:27:32Z</time></trkpt>
<trkpt lat="46.378489471971989" lon="7.039224877953529"><ele></ele><time>2013-9-9T17:27:35Z</time></trkpt>
<trkpt lat="46.378459380939603" lon="7.039255723357201"><ele></ele><time>2013-9-9T17:27:38Z</time></trkpt>
<trkpt lat="46.378445634618402" lon="7.039264775812626"><ele></ele><time>2013-9-9T17:27:41Z</time></trkpt>
<trkpt lat="46.378436163067818" lon="7.039275420829654"><ele></ele><time>2013-9-9T17:27:44Z</time></trkpt>
<trkpt lat="46.378426691517234" lon="7.039285814389586"><ele></ele><time>2013-9-9T17:27:47Z</time></trkpt>
<trkpt lat="46.378416884690523" lon="7.039298806339502"><ele></ele><time>2013-9-9T17:27:50Z</time></trkpt>
<trkpt lat="46.378345303237438" lon="7.039369465783238"><ele></ele><time>2013-9-9T17:27:53Z</time></trkpt>
<trkpt lat="46.378247318789363" lon="7.039414392784238"><ele></ele><time>2013-9-9T17:27:56Z</time></trkpt>
<trkpt lat="46.378235081210732" lon="7.039417074993253"><ele></ele><time>2013-9-9T17:27:59Z</time></trkpt>
<trkpt lat="46.378213204443455" lon="7.039409447461367"><ele></ele><time>2013-9-9T17:28:2Z</time></trkpt>
<trkpt lat="46.378203900530934" lon="7.03941841609776"><ele></ele><time>2013-9-9T17:28:5Z</time></trkpt>
<trkpt lat="46.378190154209733" lon="7.039434593170881"><ele></ele><time>2013-9-9T17:28:8Z</time></trkpt>
<trkpt lat="46.378175737336278" lon="7.039453284814954"><ele></ele><time>2013-9-9T17:28:11Z</time></trkpt>
<trkpt lat="46.378163751214743" lon="7.039479101076722"><ele></ele><time>2013-9-9T17:28:14Z</time></trkpt>
<trkpt lat="46.378149753436446" lon="7.039499217644334"><ele></ele><time>2013-9-9T17:28:17Z</time></trkpt>
<trkpt lat="46.37811572290957" lon="7.039578091353178"><ele></ele><time>2013-9-9T17:28:20Z</time></trkpt>
<trkpt lat="46.378003656864166" lon="7.039703149348497"><ele></ele><time>2013-9-9T17:28:23Z</time></trkpt>
<trkpt lat="46.377925453707576" lon="7.039793087169528"><ele></ele><time>2013-9-9T17:28:26Z</time></trkpt>
<trkpt lat="46.377925202250481" lon="7.03981664031744"><ele></ele><time>2013-9-9T17:28:29Z</time></trkpt>
<trkpt lat="46.377352634444833" lon="7.040477469563484"><ele></ele><time>2013-9-9T17:28:32Z</time></trkpt>
<trkpt lat="46.37733394280076" lon="7.040478643029928"><ele></ele><time>2013-9-9T17:28:35Z</time></trkpt>
<trkpt lat="46.377277784049511" lon="7.040460957214236"><ele></ele><time>2013-9-9T17:28:38Z</time></trkpt>
<trkpt lat="46.37726160697639" lon="7.040456682443619"><ele></ele><time>2013-9-9T17:28:41Z</time></trkpt>
<trkpt lat="46.377248950302601" lon="7.04045282676816"><ele></ele><time>2013-9-9T17:28:44Z</time></trkpt>
<trkpt lat="46.377233862876892" lon="7.040445953607559"><ele></ele><time>2013-9-9T17:28:47Z</time></trkpt>
<trkpt lat="46.377149038016796" lon="7.040420975536108"><ele></ele><time>2013-9-9T17:28:50Z</time></trkpt>
<trkpt lat="46.377129340544343" lon="7.040410414338112"><ele></ele><time>2013-9-9T17:28:53Z</time></trkpt>
<trkpt lat="46.377106374129653" lon="7.040400020778179"><ele></ele><time>2013-9-9T17:28:56Z</time></trkpt>
<trkpt lat="46.377083156257868" lon="7.040392393246293"><ele></ele><time>2013-9-9T17:28:59Z</time></trkpt>
<trkpt lat="46.377063626423478" lon="7.040384765714407"><ele></ele><time>2013-9-9T17:29:2Z</time></trkpt>
<trkpt lat="46.377013586461544" lon="7.040368085727096"><ele></ele><time>2013-9-9T17:29:5Z</time></trkpt>
<trkpt lat="46.377001935616136" lon="7.04036196693778"><ele></ele><time>2013-9-9T17:29:8Z</time></trkpt>
<trkpt lat="46.376989530399442" lon="7.040354674682021"><ele></ele><time>2013-9-9T17:29:11Z</time></trkpt>
<trkpt lat="46.376978047192097" lon="7.040346711874008"><ele></ele><time>2013-9-9T17:29:14Z</time></trkpt>
<trkpt lat="46.376967569813132" lon="7.040331121534109"><ele></ele><time>2013-9-9T17:29:17Z</time></trkpt>
<trkpt lat="46.376909902319312" lon="7.040209751576185"><ele></ele><time>2013-9-9T17:29:20Z</time></trkpt>
<trkpt lat="46.37684041634202" lon="7.040110258385539"><ele></ele><time>2013-9-9T17:29:23Z</time></trkpt>
<trkpt lat="46.376821724697948" lon="7.040095757693052"><ele></ele><time>2013-9-9T17:29:26Z</time></trkpt>
<trkpt lat="46.376809319481254" lon="7.040081843733788"><ele></ele><time>2013-9-9T17:29:29Z</time></trkpt>
<trkpt lat="46.376797333359718" lon="7.04006633721292"><ele></ele><time>2013-9-9T17:29:32Z</time></trkpt>
<trkpt lat="46.376789035275578" lon="7.040047980844975"><ele></ele><time>2013-9-9T17:29:35Z</time></trkpt>
<trkpt lat="46.376698426902294" lon="7.039922084659338"><ele></ele><time>2013-9-9T17:29:38Z</time></trkpt>
<trkpt lat="46.376610836014152" lon="7.039745897054672"><ele></ele><time>2013-9-9T17:29:41Z</time></trkpt>
<trkpt lat="46.376604549586773" lon="7.039725361391902"><ele></ele><time>2013-9-9T17:29:44Z</time></trkpt>
<trkpt lat="46.376595832407475" lon="7.039706753566861"><ele></ele><time>2013-9-9T17:29:47Z</time></trkpt>
<trkpt lat="46.376586277037859" lon="7.039691917598248"><ele></ele><time>2013-9-9T17:29:50Z</time></trkpt>
<trkpt lat="46.376576889306307" lon="7.039677836000919"><ele></ele><time>2013-9-9T17:29:53Z</time></trkpt>
<trkpt lat="46.376530872657895" lon="7.039660653099418"><ele></ele><time>2013-9-9T17:29:56Z</time></trkpt>
<trkpt lat="46.376431966200471" lon="7.039595441892743"><ele></ele><time>2013-9-9T17:29:59Z</time></trkpt>
<trkpt lat="46.376423165202141" lon="7.039585718885064"><ele></ele><time>2013-9-9T17:30:2Z</time></trkpt>
<trkpt lat="46.376416208222508" lon="7.039578510448337"><ele></ele><time>2013-9-9T17:30:5Z</time></trkpt>
<trkpt lat="46.376412436366081" lon="7.039572726935148"><ele></ele><time>2013-9-9T17:30:8Z</time></trkpt>
<trkpt lat="46.376410759985447" lon="7.03956937417388"><ele></ele><time>2013-9-9T17:30:11Z</time></trkpt>
<trkpt lat="46.376411430537701" lon="7.039571972563863"><ele></ele><time>2013-9-9T17:30:14Z</time></trkpt>
<trkpt lat="46.376392571255565" lon="7.039545821025968"><ele></ele><time>2013-9-9T17:30:17Z</time></trkpt>
<trkpt lat="46.37635812163353" lon="7.039496954530478"><ele></ele><time>2013-9-9T17:30:20Z</time></trkpt>
<trkpt lat="46.376230213791132" lon="7.039288328960538"><ele></ele><time>2013-9-9T17:30:23Z</time></trkpt>
<trkpt lat="46.376219401136041" lon="7.03926251269877"><ele></ele><time>2013-9-9T17:30:26Z</time></trkpt>
<trkpt lat="46.376209342852235" lon="7.039235858246684"><ele></ele><time>2013-9-9T17:30:29Z</time></trkpt>
<trkpt lat="46.376201966777444" lon="7.03920928761363"><ele></ele><time>2013-9-9T17:30:32Z</time></trkpt>
<trkpt lat="46.376197189092636" lon="7.039186488837004"><ele></ele><time>2013-9-9T17:30:35Z</time></trkpt>
<trkpt lat="46.376182688400149" lon="7.039097975939512"><ele></ele><time>2013-9-9T17:30:38Z</time></trkpt>
<trkpt lat="46.376144802197814" lon="7.038864037021995"><ele></ele><time>2013-9-9T17:30:41Z</time></trkpt>
<trkpt lat="46.376087386161089" lon="7.038568239659071"><ele></ele><time>2013-9-9T17:30:44Z</time></trkpt>
<trkpt lat="46.375990239903331" lon="7.038353746756911"><ele></ele><time>2013-9-9T17:30:47Z</time></trkpt>
<trkpt lat="46.375928549095988" lon="7.038228772580624"><ele></ele><time>2013-9-9T17:30:50Z</time></trkpt>
<trkpt lat="46.375920753926039" lon="7.038199855014682"><ele></ele><time>2013-9-9T17:30:53Z</time></trkpt>
<trkpt lat="46.37591203674674" lon="7.038172781467438"><ele></ele><time>2013-9-9T17:30:56Z</time></trkpt>
<trkpt lat="46.37590080499649" lon="7.038142690435052"><ele></ele><time>2013-9-9T17:30:59Z</time></trkpt>
<trkpt lat="46.37589200399816" lon="7.038107654079795"><ele></ele><time>2013-9-9T17:31:2Z</time></trkpt>
<trkpt lat="46.375884292647243" lon="7.038068259134889"><ele></ele><time>2013-9-9T17:31:5Z</time></trkpt>
<trkpt lat="46.37584799900651" lon="7.037758715450764"><ele></ele><time>2013-9-9T17:31:8Z</time></trkpt>
<trkpt lat="46.375847579911351" lon="7.037702556699514"><ele></ele><time>2013-9-9T17:31:11Z</time></trkpt>
<trkpt lat="46.375842802226543" lon="7.037647571414709"><ele></ele><time>2013-9-9T17:31:14Z</time></trkpt>
<trkpt lat="46.375835929065943" lon="7.037590574473143"><ele></ele><time>2013-9-9T17:31:17Z</time></trkpt>
<trkpt lat="46.375821931287646" lon="7.037536427378655"><ele></ele><time>2013-9-9T17:31:20Z</time></trkpt>
<trkpt lat="46.375777674838901" lon="7.037437604740262"><ele></ele><time>2013-9-9T17:31:23Z</time></trkpt>
<trkpt lat="46.375587824732065" lon="7.037264686077833"><ele></ele><time>2013-9-9T17:31:26Z</time></trkpt>
<trkpt lat="46.37546494603157" lon="7.037237863987684"><ele></ele><time>2013-9-9T17:31:29Z</time></trkpt>
<trkpt lat="46.375207286328077" lon="7.037145243957639"><ele></ele><time>2013-9-9T17:31:32Z</time></trkpt>
<trkpt lat="46.374985668808222" lon="7.037055641412735"><ele></ele><time>2013-9-9T17:31:35Z</time></trkpt>
<trkpt lat="46.374925235286355" lon="7.037018090486527"><ele></ele><time>2013-9-9T17:31:38Z</time></trkpt>
<trkpt lat="46.374889612197876" lon="7.036994285881519"><ele></ele><time>2013-9-9T17:31:41Z</time></trkpt>
<trkpt lat="46.374854492023587" lon="7.036971068009734"><ele></ele><time>2013-9-9T17:31:44Z</time></trkpt>
<trkpt lat="46.374816354364157" lon="7.036946676671505"><ele></ele><time>2013-9-9T17:31:47Z</time></trkpt>
<trkpt lat="46.374779473990202" lon="7.03692739829421"><ele></ele><time>2013-9-9T17:31:50Z</time></trkpt>
<trkpt lat="46.37474468909204" lon="7.036911556497216"><ele></ele><time>2013-9-9T17:31:53Z</time></trkpt>
<trkpt lat="46.374712167307734" lon="7.036895044147968"><ele></ele><time>2013-9-9T17:31:56Z</time></trkpt>
<trkpt lat="46.374679477885365" lon="7.036878615617752"><ele></ele><time>2013-9-9T17:31:59Z</time></trkpt>
<trkpt lat="46.374643184244633" lon="7.03686336055398"><ele></ele><time>2013-9-9T17:32:2Z</time></trkpt>
<trkpt lat="46.3746103271842" lon="7.036845507100225"><ele></ele><time>2013-9-9T17:32:5Z</time></trkpt>
<trkpt lat="46.374551821500063" lon="7.03678272664547"><ele></ele><time>2013-9-9T17:32:8Z</time></trkpt>
<trkpt lat="46.374523909762502" lon="7.036742577329278"><ele></ele><time>2013-9-9T17:32:11Z</time></trkpt>
<trkpt lat="46.374496333301067" lon="7.036703266203404"><ele></ele><time>2013-9-9T17:32:14Z</time></trkpt>
<trkpt lat="46.374464565888047" lon="7.036667056381702"><ele></ele><time>2013-9-9T17:32:17Z</time></trkpt>
<trkpt lat="46.374430283904076" lon="7.03663126565516"><ele></ele><time>2013-9-9T17:32:20Z</time></trkpt>
<trkpt lat="46.374267758801579" lon="7.036504950374365"><ele></ele><time>2013-9-9T17:32:23Z</time></trkpt>
<trkpt lat="46.374049074947834" lon="7.036448791623116"><ele></ele><time>2013-9-9T17:32:26Z</time></trkpt>
<trkpt lat="46.373950252309442" lon="7.036412330344319"><ele></ele><time>2013-9-9T17:32:29Z</time></trkpt>
<trkpt lat="46.373926447704434" lon="7.036395231261849"><ele></ele><time>2013-9-9T17:32:32Z</time></trkpt>
<trkpt lat="46.373903146013618" lon="7.036373857408762"><ele></ele><time>2013-9-9T17:32:35Z</time></trkpt>
<trkpt lat="46.373880347236991" lon="7.036351142451167"><ele></ele><time>2013-9-9T17:32:38Z</time></trkpt>
<trkpt lat="46.373857799917459" lon="7.036329014226794"><ele></ele><time>2013-9-9T17:32:41Z</time></trkpt>
<trkpt lat="46.373816896229982" lon="7.036283919587731"><ele></ele><time>2013-9-9T17:32:44Z</time></trkpt>
<trkpt lat="46.373799126595259" lon="7.036266149953008"><ele></ele><time>2013-9-9T17:32:47Z</time></trkpt>
<trkpt lat="46.373782614246011" lon="7.036251565441489"><ele></ele><time>2013-9-9T17:32:50Z</time></trkpt>
<trkpt lat="46.373765515163541" lon="7.036239746958017"><ele></ele><time>2013-9-9T17:32:53Z</time></trkpt>
<trkpt lat="46.373752942308784" lon="7.036228012293577"><ele></ele><time>2013-9-9T17:32:56Z</time></trkpt>
<trkpt lat="46.373743806034327" lon="7.036215355619788"><ele></ele><time>2013-9-9T17:32:59Z</time></trkpt>
<trkpt lat="46.37373324483633" lon="7.036205464974046"><ele></ele><time>2013-9-9T17:33:2Z</time></trkpt>
<trkpt lat="46.373717738315463" lon="7.036190880462527"><ele></ele><time>2013-9-9T17:33:5Z</time></trkpt>
<trkpt lat="46.373703237622976" lon="7.036173027008772"><ele></ele><time>2013-9-9T17:33:8Z</time></trkpt>
<trkpt lat="46.373687395825982" lon="7.036157855764031"><ele></ele><time>2013-9-9T17:33:11Z</time></trkpt>
<trkpt lat="46.373644061386585" lon="7.036120304837823"><ele></ele><time>2013-9-9T17:33:14Z</time></trkpt>
<trkpt lat="46.373627968132496" lon="7.036107731983066"><ele></ele><time>2013-9-9T17:33:17Z</time></trkpt>
<trkpt lat="46.373609360307455" lon="7.036096835508943"><ele></ele><time>2013-9-9T17:33:20Z</time></trkpt>
<trkpt lat="46.37359444051981" lon="7.036083927378058"><ele></ele><time>2013-9-9T17:33:23Z</time></trkpt>
<trkpt lat="46.373579353094101" lon="7.036070181056857"><ele></ele><time>2013-9-9T17:33:26Z</time></trkpt>
<trkpt lat="46.37353828176856" lon="7.036030031740665"><ele></ele><time>2013-9-9T17:33:29Z</time></trkpt>
<trkpt lat="46.373368632048368" lon="7.035984182730317"><ele></ele><time>2013-9-9T17:33:32Z</time></trkpt>
<trkpt lat="46.373187247663736" lon="7.036106307059526"><ele></ele><time>2013-9-9T17:33:35Z</time></trkpt>
<trkpt lat="46.372777875512838" lon="7.03626916743815"><ele></ele><time>2013-9-9T17:33:38Z</time></trkpt>
<trkpt lat="46.372686009854078" lon="7.036291547119618"><ele></ele><time>2013-9-9T17:33:41Z</time></trkpt>
<trkpt lat="46.372635047882795" lon="7.036303952336311"><ele></ele><time>2013-9-9T17:33:44Z</time></trkpt>
<trkpt lat="46.372587019577622" lon="7.036314764991403"><ele></ele><time>2013-9-9T17:33:47Z</time></trkpt>
<trkpt lat="46.372544355690479" lon="7.036323398351669"><ele></ele><time>2013-9-9T17:33:50Z</time></trkpt>
<trkpt lat="46.372504290193319" lon="7.036325326189399"><ele></ele><time>2013-9-9T17:33:53Z</time></trkpt>
<trkpt lat="46.372467996552587" lon="7.036325242370367"><ele></ele><time>2013-9-9T17:33:56Z</time></trkpt>
<trkpt lat="46.372269513085485" lon="7.036294564604759"><ele></ele><time>2013-9-9T17:33:59Z</time></trkpt>
<trkpt lat="46.372192902490497" lon="7.036276208236814"><ele></ele><time>2013-9-9T17:34:2Z</time></trkpt>
<trkpt lat="46.372164320200682" lon="7.036274280399084"><ele></ele><time>2013-9-9T17:34:5Z</time></trkpt>
<trkpt lat="46.372137330472469" lon="7.036268413066864"><ele></ele><time>2013-9-9T17:34:8Z</time></trkpt>
<trkpt lat="46.372115118429065" lon="7.036256426945329"><ele></ele><time>2013-9-9T17:34:11Z</time></trkpt>
<trkpt lat="46.372093828395009" lon="7.036241507157683"><ele></ele><time>2013-9-9T17:34:14Z</time></trkpt>
<trkpt lat="46.372072203084826" lon="7.03622717410326"><ele></ele><time>2013-9-9T17:34:17Z</time></trkpt>
<trkpt lat="46.371974721550941" lon="7.036169255152345"><ele></ele><time>2013-9-9T17:34:20Z</time></trkpt>
<trkpt lat="46.371951000764966" lon="7.036162801086903"><ele></ele><time>2013-9-9T17:34:23Z</time></trkpt>
<trkpt lat="46.371930129826069" lon="7.036167914047837"><ele></ele><time>2013-9-9T17:34:26Z</time></trkpt>
<trkpt lat="46.371912192553282" lon="7.036179983988404"><ele></ele><time>2013-9-9T17:34:29Z</time></trkpt>
<trkpt lat="46.371899116784334" lon="7.036193814128637"><ele></ele><time>2013-9-9T17:34:32Z</time></trkpt>
<trkpt lat="46.371790068224072" lon="7.036310657858849"><ele></ele><time>2013-9-9T17:34:35Z</time></trkpt>
<trkpt lat="46.371754361316562" lon="7.036344772204757"><ele></ele><time>2013-9-9T17:34:38Z</time></trkpt>
<trkpt lat="46.371720330789685" lon="7.036377126350999"><ele></ele><time>2013-9-9T17:34:41Z</time></trkpt>
<trkpt lat="46.371685210615396" lon="7.036409983411431"><ele></ele><time>2013-9-9T17:34:44Z</time></trkpt>
<trkpt lat="46.371641540899873" lon="7.036449881270528"><ele></ele><time>2013-9-9T17:34:47Z</time></trkpt>
<trkpt lat="46.371593847870827" lon="7.03648860566318"><ele></ele><time>2013-9-9T17:34:50Z</time></trkpt>
<trkpt lat="46.371538108214736" lon="7.036520456895232"><ele></ele><time>2013-9-9T17:34:53Z</time></trkpt>
<trkpt lat="46.371470214799047" lon="7.03653747215867"><ele></ele><time>2013-9-9T17:34:56Z</time></trkpt>
<trkpt lat="46.371407099068165" lon="7.036552894860506"><ele></ele><time>2013-9-9T17:34:59Z</time></trkpt>
<trkpt lat="46.37134968303144" lon="7.036577789112926"><ele></ele><time>2013-9-9T17:35:2Z</time></trkpt>
<trkpt lat="46.371284807100892" lon="7.036607461050153"><ele></ele><time>2013-9-9T17:35:5Z</time></trkpt>
<trkpt lat="46.371217919513583" lon="7.036642832681537"><ele></ele><time>2013-9-9T17:35:8Z</time></trkpt>
<trkpt lat="46.370892534032464" lon="7.036972492933273"><ele></ele><time>2013-9-9T17:35:11Z</time></trkpt>
<trkpt lat="46.37084199115634" lon="7.037033010274172"><ele></ele><time>2013-9-9T17:35:14Z</time></trkpt>
<trkpt lat="46.370792705565691" lon="7.037094449624419"><ele></ele><time>2013-9-9T17:35:17Z</time></trkpt>
<trkpt lat="46.370745096355677" lon="7.037157313898206"><ele></ele><time>2013-9-9T17:35:20Z</time></trkpt>
<trkpt lat="46.370699750259519" lon="7.0372215192765"><ele></ele><time>2013-9-9T17:35:23Z</time></trkpt>
<trkpt lat="46.370580308139324" lon="7.037401394918561"><ele></ele><time>2013-9-9T17:35:26Z</time></trkpt>
<trkpt lat="46.370545439422131" lon="7.037450512871146"><ele></ele><time>2013-9-9T17:35:29Z</time></trkpt>
<trkpt lat="46.370512917637825" lon="7.037493260577321"><ele></ele><time>2013-9-9T17:35:32Z</time></trkpt>
<trkpt lat="46.370482826605439" lon="7.037530224770308"><ele></ele><time>2013-9-9T17:35:35Z</time></trkpt>
<trkpt lat="46.370455333963037" lon="7.037558052688837"><ele></ele><time>2013-9-9T17:35:38Z</time></trkpt>
<trkpt lat="46.370428595691919" lon="7.037582863122225"><ele></ele><time>2013-9-9T17:35:41Z</time></trkpt>
<trkpt lat="46.370402947068214" lon="7.037605661898851"><ele></ele><time>2013-9-9T17:35:44Z</time></trkpt>
<trkpt lat="46.370380818843842" lon="7.037628041580319"><ele></ele><time>2013-9-9T17:35:47Z</time></trkpt>
<trkpt lat="46.370303956791759" lon="7.037721583619714"><ele></ele><time>2013-9-9T17:35:50Z</time></trkpt>
<trkpt lat="46.370284594595432" lon="7.037746394053102"><ele></ele><time>2013-9-9T17:35:53Z</time></trkpt>
<trkpt lat="46.370266238227487" lon="7.03777221031487"><ele></ele><time>2013-9-9T17:35:56Z</time></trkpt>
<trkpt lat="46.370245451107621" lon="7.03779811039567"><ele></ele><time>2013-9-9T17:35:59Z</time></trkpt>
<trkpt lat="46.370225753635168" lon="7.037822920829058"><ele></ele><time>2013-9-9T17:36:2Z</time></trkpt>
<trkpt lat="46.370160207152367" lon="7.03789634630084"><ele></ele><time>2013-9-9T17:36:5Z</time></trkpt>
<trkpt lat="46.370139587670565" lon="7.037921492010355"><ele></ele><time>2013-9-9T17:36:8Z</time></trkpt>
<trkpt lat="46.370124500244856" lon="7.037946553900838"><ele></ele><time>2013-9-9T17:36:11Z</time></trkpt>
<trkpt lat="46.370115196332335" lon="7.03797304071486"><ele></ele><time>2013-9-9T17:36:14Z</time></trkpt>
<trkpt lat="46.370108658447862" lon="7.038003131747246"><ele></ele><time>2013-9-9T17:36:17Z</time></trkpt>
<trkpt lat="46.370086194947362" lon="7.038058703765273"><ele></ele><time>2013-9-9T17:36:20Z</time></trkpt>
<trkpt lat="46.370078232139349" lon="7.038085190579295"><ele></ele><time>2013-9-9T17:36:23Z</time></trkpt>
<trkpt lat="46.370066581293941" lon="7.038111090660095"><ele></ele><time>2013-9-9T17:36:26Z</time></trkpt>
<trkpt lat="46.370055265724659" lon="7.038136990740895"><ele></ele><time>2013-9-9T17:36:29Z</time></trkpt>
<trkpt lat="46.370017882436514" lon="7.038201196119189"><ele></ele><time>2013-9-9T17:36:32Z</time></trkpt>
<trkpt lat="46.370004136115313" lon="7.038218127563596"><ele></ele><time>2013-9-9T17:36:35Z</time></trkpt>
<trkpt lat="46.369990725070238" lon="7.038233634084463"><ele></ele><time>2013-9-9T17:36:38Z</time></trkpt>
<trkpt lat="46.369979660958052" lon="7.038247128948569"><ele></ele><time>2013-9-9T17:36:41Z</time></trkpt>
<trkpt lat="46.369970859959722" lon="7.038260791450739"><ele></ele><time>2013-9-9T17:36:44Z</time></trkpt>
<trkpt lat="46.369955856353045" lon="7.038282919675112"><ele></ele><time>2013-9-9T17:36:47Z</time></trkpt>
<trkpt lat="46.369955688714981" lon="7.038283841684461"><ele></ele><time>2013-9-9T17:36:50Z</time></trkpt>
<trkpt lat="46.369927860796452" lon="7.038289876654744"><ele></ele><time>2013-9-9T17:36:53Z</time></trkpt>
<trkpt lat="46.369881508871913" lon="7.038302533328533"><ele></ele><time>2013-9-9T17:36:56Z</time></trkpt>
<trkpt lat="46.369728455320001" lon="7.038380149751902"><ele></ele><time>2013-9-9T17:36:59Z</time></trkpt>
<trkpt lat="46.369660226628184" lon="7.038399428129196"><ele></ele><time>2013-9-9T17:37:2Z</time></trkpt>
<trkpt lat="46.36932872235775" lon="7.038339748978615"><ele></ele><time>2013-9-9T17:37:5Z</time></trkpt>
<trkpt lat="46.36932872235775" lon="7.038339748978615"><ele></ele><time>2013-9-9T17:37:8Z</time></trkpt>
<trkpt lat="46.369143398478627" lon="7.03813967294991"><ele></ele><time>2013-9-9T17:37:11Z</time></trkpt>
<trkpt lat="46.368944915011525" lon="7.037885701283813"><ele></ele><time>2013-9-9T17:37:14Z</time></trkpt>
<trkpt lat="46.368819689378142" lon="7.037746896967292"><ele></ele><time>2013-9-9T17:37:17Z</time></trkpt>
<trkpt lat="46.368801165372133" lon="7.037721080705524"><ele></ele><time>2013-9-9T17:37:20Z</time></trkpt>
<trkpt lat="46.368783311918378" lon="7.037693420425057"><ele></ele><time>2013-9-9T17:37:23Z</time></trkpt>
<trkpt lat="46.368765123188496" lon="7.037670956924558"><ele></ele><time>2013-9-9T17:37:26Z</time></trkpt>
<trkpt lat="46.368745258077979" lon="7.037651175633073"><ele></ele><time>2013-9-9T17:37:29Z</time></trkpt>
<trkpt lat="46.368688596412539" lon="7.037591245025396"><ele></ele><time>2013-9-9T17:37:32Z</time></trkpt>
<trkpt lat="46.368484748527408" lon="7.037335680797696"><ele></ele><time>2013-9-9T17:37:35Z</time></trkpt>
<trkpt lat="46.368420040234923" lon="7.037257226184011"><ele></ele><time>2013-9-9T17:37:38Z</time></trkpt>
<trkpt lat="46.368399672210217" lon="7.037230739369988"><ele></ele><time>2013-9-9T17:37:41Z</time></trkpt>
<trkpt lat="46.368379388004541" lon="7.037202408537269"><ele></ele><time>2013-9-9T17:37:44Z</time></trkpt>
<trkpt lat="46.368358265608549" lon="7.037173071876168"><ele></ele><time>2013-9-9T17:37:47Z</time></trkpt>
<trkpt lat="46.368339573964477" lon="7.037142310291529"><ele></ele><time>2013-9-9T17:37:50Z</time></trkpt>
<trkpt lat="46.36832264252007" lon="7.037117332220078"><ele></ele><time>2013-9-9T17:37:53Z</time></trkpt>
<trkpt lat="46.368200685828924" lon="7.036980791017413"><ele></ele><time>2013-9-9T17:37:56Z</time></trkpt>
<trkpt lat="46.368046710267663" lon="7.036812650039792"><ele></ele><time>2013-9-9T17:37:59Z</time></trkpt>
<trkpt lat="46.367985438555479" lon="7.036748696118593"><ele></ele><time>2013-9-9T17:38:2Z</time></trkpt>
<trkpt lat="46.367967082187533" lon="7.03672556206584"><ele></ele><time>2013-9-9T17:38:5Z</time></trkpt>
<trkpt lat="46.367946965619922" lon="7.036700416356325"><ele></ele><time>2013-9-9T17:38:8Z</time></trkpt>
<trkpt lat="46.367930453270674" lon="7.036679293960333"><ele></ele><time>2013-9-9T17:38:11Z</time></trkpt>
<trkpt lat="46.367918383330107" lon="7.036661272868514"><ele></ele><time>2013-9-9T17:38:14Z</time></trkpt>
<trkpt lat="46.367906481027603" lon="7.036644089967012"><ele></ele><time>2013-9-9T17:38:17Z</time></trkpt>
<trkpt lat="46.367859290912747" lon="7.036573262885213"><ele></ele><time>2013-9-9T17:38:20Z</time></trkpt>
<trkpt lat="46.367839341983199" lon="7.036549374461174"><ele></ele><time>2013-9-9T17:38:23Z</time></trkpt>
<trkpt lat="46.36782081797719" lon="7.036530431360006"><ele></ele><time>2013-9-9T17:38:26Z</time></trkpt>
<trkpt lat="46.367802964523435" lon="7.036507884040475"><ele></ele><time>2013-9-9T17:38:29Z</time></trkpt>
<trkpt lat="46.36778268031776" lon="7.036483157426119"><ele></ele><time>2013-9-9T17:38:32Z</time></trkpt>
<trkpt lat="46.367758624255657" lon="7.036455497145653"><ele></ele><time>2013-9-9T17:38:35Z</time></trkpt>
<trkpt lat="46.367732221260667" lon="7.036416353657842"><ele></ele><time>2013-9-9T17:38:38Z</time></trkpt>
<trkpt lat="46.367704141885042" lon="7.03636396676302"><ele></ele><time>2013-9-9T17:38:41Z</time></trkpt>
<trkpt lat="46.367676146328449" lon="7.036311831325293"><ele></ele><time>2013-9-9T17:38:44Z</time></trkpt>
<trkpt lat="46.367648569867015" lon="7.0362579356879"><ele></ele><time>2013-9-9T17:38:47Z</time></trkpt>
<trkpt lat="46.367625435814261" lon="7.036204375326634"><ele></ele><time>2013-9-9T17:38:50Z</time></trkpt>
<trkpt lat="46.367606492713094" lon="7.036147797480226"><ele></ele><time>2013-9-9T17:38:53Z</time></trkpt>
<trkpt lat="46.367587214335799" lon="7.036086274310947"><ele></ele><time>2013-9-9T17:38:56Z</time></trkpt>
<trkpt lat="46.367572965100408" lon="7.036021649837494"><ele></ele><time>2013-9-9T17:38:59Z</time></trkpt>
<trkpt lat="46.367562068626285" lon="7.035958953201771"><ele></ele><time>2013-9-9T17:39:2Z</time></trkpt>
<trkpt lat="46.367554441094398" lon="7.035827105864883"><ele></ele><time>2013-9-9T17:39:5Z</time></trkpt>
<trkpt lat="46.367556788027287" lon="7.035759966820478"><ele></ele><time>2013-9-9T17:39:8Z</time></trkpt>
<trkpt lat="46.367560056969523" lon="7.035687882453203"><ele></ele><time>2013-9-9T17:39:11Z</time></trkpt>
<trkpt lat="46.367569863796234" lon="7.035612193867564"><ele></ele><time>2013-9-9T17:39:14Z</time></trkpt>
<trkpt lat="46.367580341175199" lon="7.035537762567401"><ele></ele><time>2013-9-9T17:39:17Z</time></trkpt>
<trkpt lat="46.367590483278036" lon="7.035471294075251"><ele></ele><time>2013-9-9T17:39:20Z</time></trkpt>
<trkpt lat="46.367601715028286" lon="7.03540968708694"><ele></ele><time>2013-9-9T17:39:23Z</time></trkpt>
<trkpt lat="46.367613533511758" lon="7.035346403717995"><ele></ele><time>2013-9-9T17:39:26Z</time></trkpt>
<trkpt lat="46.367628369480371" lon="7.035289406776428"><ele></ele><time>2013-9-9T17:39:29Z</time></trkpt>
<trkpt lat="46.36764538474381" lon="7.035229643806815"><ele></ele><time>2013-9-9T17:39:32Z</time></trkpt>
<trkpt lat="46.367662064731121" lon="7.035170383751392"><ele></ele><time>2013-9-9T17:39:35Z</time></trkpt>
<trkpt lat="46.367679834365845" lon="7.03510525636375"><ele></ele><time>2013-9-9T17:39:38Z</time></trkpt>
<trkpt lat="46.367699364200234" lon="7.035036273300648"><ele></ele><time>2013-9-9T17:39:41Z</time></trkpt>
<trkpt lat="46.367719983682036" lon="7.03496553003788"><ele></ele><time>2013-9-9T17:39:44Z</time></trkpt>
<trkpt lat="46.367741357535124" lon="7.03489612787962"><ele></ele><time>2013-9-9T17:39:47Z</time></trkpt>
<trkpt lat="46.367763066664338" lon="7.034826641902328"><ele></ele><time>2013-9-9T17:39:50Z</time></trkpt>
<trkpt lat="46.367785446345806" lon="7.034755731001496"><ele></ele><time>2013-9-9T17:39:53Z</time></trkpt>
<trkpt lat="46.367807993665338" lon="7.034683395177126"><ele></ele><time>2013-9-9T17:39:56Z</time></trkpt>
<trkpt lat="46.367830624803901" lon="7.034609718248248"><ele></ele><time>2013-9-9T17:39:59Z</time></trkpt>
<trkpt lat="46.367850909009576" lon="7.034534867852926"><ele></ele><time>2013-9-9T17:40:2Z</time></trkpt>
<trkpt lat="46.367868343368173" lon="7.03445834107697"><ele></ele><time>2013-9-9T17:40:5Z</time></trkpt>
<trkpt lat="46.367884436622262" lon="7.034381562843919"><ele></ele><time>2013-9-9T17:40:8Z</time></trkpt>
<trkpt lat="46.367898769676685" lon="7.034299755468965"><ele></ele><time>2013-9-9T17:40:11Z</time></trkpt>
<trkpt lat="46.367911929264665" lon="7.034221217036247"><ele></ele><time>2013-9-9T17:40:14Z</time></trkpt>
<trkpt lat="46.36792441830039" lon="7.034140666946769"><ele></ele><time>2013-9-9T17:40:17Z</time></trkpt>
<trkpt lat="46.36793615296483" lon="7.034057937562466"><ele></ele><time>2013-9-9T17:40:20Z</time></trkpt>
<trkpt lat="46.367948977276683" lon="7.033973447978497"><ele></ele><time>2013-9-9T17:40:23Z</time></trkpt>
<trkpt lat="46.367964399978518" lon="7.033885437995195"><ele></ele><time>2013-9-9T17:40:26Z</time></trkpt>
<trkpt lat="46.367982672527432" lon="7.033796422183514"><ele></ele><time>2013-9-9T17:40:29Z</time></trkpt>
<trkpt lat="46.368002789095044" lon="7.033702628687024"><ele></ele><time>2013-9-9T17:40:32Z</time></trkpt>
<trkpt lat="46.3680240791291" lon="7.03361202031374"><ele></ele><time>2013-9-9T17:40:35Z</time></trkpt>
<trkpt lat="46.368045201525092" lon="7.03352065756917"><ele></ele><time>2013-9-9T17:40:38Z</time></trkpt>
<trkpt lat="46.368064228445292" lon="7.033428875729442"><ele></ele><time>2013-9-9T17:40:41Z</time></trkpt>
<trkpt lat="46.36808174662292" lon="7.033335333690047"><ele></ele><time>2013-9-9T17:40:44Z</time></trkpt>
<trkpt lat="46.368099180981517" lon="7.033239444717765"><ele></ele><time>2013-9-9T17:40:47Z</time></trkpt>
<trkpt lat="46.36811837553978" lon="7.033138694241643"><ele></ele><time>2013-9-9T17:40:50Z</time></trkpt>
<trkpt lat="46.368139162659645" lon="7.033032244071364"><ele></ele><time>2013-9-9T17:40:53Z</time></trkpt>
<trkpt lat="46.368160536512733" lon="7.032912382856011"><ele></ele><time>2013-9-9T17:40:56Z</time></trkpt>
<trkpt lat="46.368178389966488" lon="7.032793695107102"><ele></ele><time>2013-9-9T17:40:59Z</time></trkpt>
<trkpt lat="46.368192723020911" lon="7.032673079520464"><ele></ele><time>2013-9-9T17:41:2Z</time></trkpt>
<trkpt lat="46.368205798789859" lon="7.032558917999268"><ele></ele><time>2013-9-9T17:41:5Z</time></trkpt>
<trkpt lat="46.368214096873999" lon="7.032457748427987"><ele></ele><time>2013-9-9T17:41:8Z</time></trkpt>
<trkpt lat="46.368214013054967" lon="7.03236018307507"><ele></ele><time>2013-9-9T17:41:11Z</time></trkpt>
<trkpt lat="46.368201691657305" lon="7.032288266345859"><ele></ele><time>2013-9-9T17:41:14Z</time></trkpt>
<trkpt lat="46.368164056912065" lon="7.032212493941188"><ele></ele><time>2013-9-9T17:41:17Z</time></trkpt>
<trkpt lat="46.368106305599213" lon="7.032190281897783"><ele></ele><time>2013-9-9T17:41:20Z</time></trkpt>
<trkpt lat="46.368072861805558" lon="7.032243506982923"><ele></ele><time>2013-9-9T17:41:23Z</time></trkpt>
<trkpt lat="46.368056433275342" lon="7.032291283831"><ele></ele><time>2013-9-9T17:41:26Z</time></trkpt>
<trkpt lat="46.368040340021253" lon="7.032349035143852"><ele></ele><time>2013-9-9T17:41:29Z</time></trkpt>
<trkpt lat="46.36802944354713" lon="7.032400500029326"><ele></ele><time>2013-9-9T17:41:32Z</time></trkpt>
<trkpt lat="46.368017541244626" lon="7.032448360696435"><ele></ele><time>2013-9-9T17:41:35Z</time></trkpt>
<trkpt lat="46.368003375828266" lon="7.032495969906449"><ele></ele><time>2013-9-9T17:41:38Z</time></trkpt>
<trkpt lat="46.367986695840955" lon="7.032543830573559"><ele></ele><time>2013-9-9T17:41:41Z</time></trkpt>
<trkpt lat="46.36796741746366" lon="7.032579202204943"><ele></ele><time>2013-9-9T17:41:44Z</time></trkpt>
<trkpt lat="46.367945875972509" lon="7.032612897455692"><ele></ele><time>2013-9-9T17:41:47Z</time></trkpt>
<trkpt lat="46.367923077195883" lon="7.032654136419296"><ele></ele><time>2013-9-9T17:41:50Z</time></trkpt>
<trkpt lat="46.367848729714751" lon="7.032688837498426"><ele></ele><time>2013-9-9T17:41:53Z</time></trkpt>
<trkpt lat="46.367805311456323" lon="7.032523546367884"><ele></ele><time>2013-9-9T17:41:56Z</time></trkpt>
<trkpt lat="46.367807490751147" lon="7.032471159473062"><ele></ele><time>2013-9-9T17:41:59Z</time></trkpt>
<trkpt lat="46.367812268435955" lon="7.03241977840662"><ele></ele><time>2013-9-9T17:42:2Z</time></trkpt>
<trkpt lat="46.367814028635621" lon="7.032369486987591"><ele></ele><time>2013-9-9T17:42:5Z</time></trkpt>
<trkpt lat="46.367810256779194" lon="7.032315842807293"><ele></ele><time>2013-9-9T17:42:8Z</time></trkpt>
<trkpt lat="46.367804892361164" lon="7.032256918027997"><ele></ele><time>2013-9-9T17:42:11Z</time></trkpt>
<trkpt lat="46.367800952866673" lon="7.03219598159194"><ele></ele><time>2013-9-9T17:42:14Z</time></trkpt>
<trkpt lat="46.367799863219261" lon="7.032137643545866"><ele></ele><time>2013-9-9T17:42:17Z</time></trkpt>
<trkpt lat="46.367800533771515" lon="7.032076623290777"><ele></ele><time>2013-9-9T17:42:20Z</time></trkpt>
<trkpt lat="46.367801120504737" lon="7.032024739310145"><ele></ele><time>2013-9-9T17:42:23Z</time></trkpt>
<trkpt lat="46.367800701409578" lon="7.031980063766241"><ele></ele><time>2013-9-9T17:42:26Z</time></trkpt>
<trkpt lat="46.367799863219261" lon="7.031947458162904"><ele></ele><time>2013-9-9T17:42:29Z</time></trkpt>
<trkpt lat="46.367783267050982" lon="7.031887276098132"><ele></ele><time>2013-9-9T17:42:32Z</time></trkpt>
<trkpt lat="46.367783099412918" lon="7.031893981620669"><ele></ele><time>2013-9-9T17:42:35Z</time></trkpt>
<trkpt lat="46.36778712272644" lon="7.031913762912154"><ele></ele><time>2013-9-9T17:42:38Z</time></trkpt>
<trkpt lat="46.367786787450314" lon="7.031858107075095"><ele></ele><time>2013-9-9T17:42:41Z</time></trkpt>
<trkpt lat="46.367799192667007" lon="7.031638417392969"><ele></ele><time>2013-9-9T17:42:44Z</time></trkpt>
<trkpt lat="46.3677426148206" lon="7.031411770731211"><ele></ele><time>2013-9-9T17:42:47Z</time></trkpt>
<trkpt lat="46.367598949000239" lon="7.031275061890483"><ele></ele><time>2013-9-9T17:42:50Z</time></trkpt>
<trkpt lat="46.367523428052664" lon="7.031179172918201"><ele></ele><time>2013-9-9T17:42:53Z</time></trkpt>
<trkpt lat="46.367514627054334" lon="7.031175484880805"><ele></ele><time>2013-9-9T17:42:56Z</time></trkpt>
<trkpt lat="46.367507502436638" lon="7.031174143776298"><ele></ele><time>2013-9-9T17:42:59Z</time></trkpt>
<trkpt lat="46.367497695609927" lon="7.03116693533957"><ele></ele><time>2013-9-9T17:43:2Z</time></trkpt>
<trkpt lat="46.36749342083931" lon="7.03116450458765"><ele></ele><time>2013-9-9T17:43:5Z</time></trkpt>
<trkpt lat="46.367487972602248" lon="7.03116450458765"><ele></ele><time>2013-9-9T17:43:8Z</time></trkpt>
<trkpt lat="46.367445141077042" lon="7.031124019995332"><ele></ele><time>2013-9-9T17:43:11Z</time></trkpt>
<trkpt lat="46.367430221289396" lon="7.031085882335901"><ele></ele><time>2013-9-9T17:43:14Z</time></trkpt>
<trkpt lat="46.367422426119447" lon="7.03106434084475"><ele></ele><time>2013-9-9T17:43:17Z</time></trkpt>
<trkpt lat="46.367412703111768" lon="7.031045481562614"><ele></ele><time>2013-9-9T17:43:20Z</time></trkpt>
<trkpt lat="46.367404405027628" lon="7.031032154336572"><ele></ele><time>2013-9-9T17:43:23Z</time></trkpt>
<trkpt lat="46.367394933477044" lon="7.031017821282148"><ele></ele><time>2013-9-9T17:43:26Z</time></trkpt>
<trkpt lat="46.367362160235643" lon="7.030972642824054"><ele></ele><time>2013-9-9T17:43:29Z</time></trkpt>
<trkpt lat="46.367353862151504" lon="7.030948419123888"><ele></ele><time>2013-9-9T17:43:32Z</time></trkpt>
<trkpt lat="46.367347575724125" lon="7.030927380546928"><ele></ele><time>2013-9-9T17:43:35Z</time></trkpt>
<trkpt lat="46.367342043668032" lon="7.03090307302773"><ele></ele><time>2013-9-9T17:43:38Z</time></trkpt>
<trkpt lat="46.367337182164192" lon="7.030879100784659"><ele></ele><time>2013-9-9T17:43:41Z</time></trkpt>
<trkpt lat="46.367317233234644" lon="7.030781786888838"><ele></ele><time>2013-9-9T17:43:44Z</time></trkpt>
<trkpt lat="46.367313964292407" lon="7.030755719169974"><ele></ele><time>2013-9-9T17:43:47Z</time></trkpt>
<trkpt lat="46.367311784997582" lon="7.030729986727238"><ele></ele><time>2013-9-9T17:43:50Z</time></trkpt>
<trkpt lat="46.367311030626297" lon="7.030704338103533"><ele></ele><time>2013-9-9T17:43:53Z</time></trkpt>
<trkpt lat="46.36731362901628" lon="7.030676007270813"><ele></ele><time>2013-9-9T17:43:56Z</time></trkpt>
<trkpt lat="46.367341289296746" lon="7.030492527410388"><ele></ele><time>2013-9-9T17:43:59Z</time></trkpt>
<trkpt lat="46.367416391149163" lon="7.030254565179348"><ele></ele><time>2013-9-9T17:44:2Z</time></trkpt>
<trkpt lat="46.36743432842195" lon="7.030197065323591"><ele></ele><time>2013-9-9T17:44:5Z</time></trkpt>
<trkpt lat="46.367458552122116" lon="7.030058177188039"><ele></ele><time>2013-9-9T17:44:8Z</time></trkpt>
<trkpt lat="46.36747095733881" lon="7.029983075335622"><ele></ele><time>2013-9-9T17:44:11Z</time></trkpt>
<trkpt lat="46.367484368383884" lon="7.029914343729615"><ele></ele><time>2013-9-9T17:44:14Z</time></trkpt>
<trkpt lat="46.36750029399991" lon="7.029839996248484"><ele></ele><time>2013-9-9T17:44:17Z</time></trkpt>
<trkpt lat="46.367519153282046" lon="7.029757602140307"><ele></ele><time>2013-9-9T17:44:20Z</time></trkpt>
<trkpt lat="46.367545137181878" lon="7.029661042615771"><ele></ele><time>2013-9-9T17:44:23Z</time></trkpt>
<trkpt lat="46.367574892938137" lon="7.029559705406427"><ele></ele><time>2013-9-9T17:44:26Z</time></trkpt>
<trkpt lat="46.367605151608586" lon="7.02945870347321"><ele></ele><time>2013-9-9T17:44:29Z</time></trkpt>
<trkpt lat="46.36763758957386" lon="7.029352588579059"><ele></ele><time>2013-9-9T17:44:32Z</time></trkpt>
<trkpt lat="46.367734149098396" lon="7.028983868658543"><ele></ele><time>2013-9-9T17:44:35Z</time></trkpt>
<trkpt lat="46.36775535531342" lon="7.028894852846861"><ele></ele><time>2013-9-9T17:44:38Z</time></trkpt>
<trkpt lat="46.367769101634622" lon="7.028804998844862"><ele></ele><time>2013-9-9T17:44:41Z</time></trkpt>
<trkpt lat="46.367780165746808" lon="7.028725035488606"><ele></ele><time>2013-9-9T17:44:44Z</time></trkpt>
<trkpt lat="46.367786284536123" lon="7.028659405186772"><ele></ele><time>2013-9-9T17:44:47Z</time></trkpt>
<trkpt lat="46.367774130776525" lon="7.028605761006475"><ele></ele><time>2013-9-9T17:44:50Z</time></trkpt>
<trkpt lat="46.367749404162169" lon="7.028563348576427"><ele></ele><time>2013-9-9T17:44:53Z</time></trkpt>
<trkpt lat="46.367720738053322" lon="7.028535855934024"><ele></ele><time>2013-9-9T17:44:56Z</time></trkpt>
<trkpt lat="46.367688803002238" lon="7.028514733538032"><ele></ele><time>2013-9-9T17:44:59Z</time></trkpt>
<trkpt lat="46.367656281217933" lon="7.028493611142039"><ele></ele><time>2013-9-9T17:45:2Z</time></trkpt>
<trkpt lat="46.367623340338469" lon="7.028471231460571"><ele></ele><time>2013-9-9T17:45:5Z</time></trkpt>
<trkpt lat="46.367588303983212" lon="7.028445834293962"><ele></ele><time>2013-9-9T17:45:8Z</time></trkpt>
<trkpt lat="46.36755745857954" lon="7.0284110493958"><ele></ele><time>2013-9-9T17:45:11Z</time></trkpt>
<trkpt lat="46.367504568770528" lon="7.028350196778774"><ele></ele><time>2013-9-9T17:45:14Z</time></trkpt>
<trkpt lat="46.367459893226624" lon="7.028292696923018"><ele></ele><time>2013-9-9T17:45:17Z</time></trkpt>
<trkpt lat="46.367143727838993" lon="7.027851557359099"><ele></ele><time>2013-9-9T17:45:20Z</time></trkpt>
<trkpt lat="46.366867460310459" lon="7.027681488543749"><ele></ele><time>2013-9-9T17:45:23Z</time></trkpt>
<trkpt lat="46.366460686549544" lon="7.02749046497047"><ele></ele><time>2013-9-9T17:45:26Z</time></trkpt>
<trkpt lat="46.366411400958896" lon="7.027465822175145"><ele></ele><time>2013-9-9T17:45:29Z</time></trkpt>
<trkpt lat="46.366365468129516" lon="7.02744310721755"><ele></ele><time>2013-9-9T17:45:32Z</time></trkpt>
<trkpt lat="46.366322720423341" lon="7.027422236278653"><ele></ele><time>2013-9-9T17:45:35Z</time></trkpt>
<trkpt lat="46.366286426782608" lon="7.027407316491008"><ele></ele><time>2013-9-9T17:45:38Z</time></trkpt>
<trkpt lat="46.366261029615998" lon="7.027397425845265"><ele></ele><time>2013-9-9T17:45:41Z</time></trkpt>
<trkpt lat="46.366238985210657" lon="7.027392480522394"><ele></ele><time>2013-9-9T17:45:44Z</time></trkpt>
<trkpt lat="46.366217108443379" lon="7.027385607361794"><ele></ele><time>2013-9-9T17:45:47Z</time></trkpt>
<trkpt lat="46.366176623851061" lon="7.027368927374482"><ele></ele><time>2013-9-9T17:45:50Z</time></trkpt>
<trkpt lat="46.366157596930861" lon="7.027359372004867"><ele></ele><time>2013-9-9T17:45:53Z</time></trkpt>
<trkpt lat="46.366139072924852" lon="7.027349565178156"><ele></ele><time>2013-9-9T17:45:56Z</time></trkpt>
<trkpt lat="46.366120632737875" lon="7.027340512722731"><ele></ele><time>2013-9-9T17:45:59Z</time></trkpt>
<trkpt lat="46.366103449836373" lon="7.027331544086337"><ele></ele><time>2013-9-9T17:46:2Z</time></trkpt>
<trkpt lat="46.366066988557577" lon="7.027310924604535"><ele></ele><time>2013-9-9T17:46:5Z</time></trkpt>
<trkpt lat="46.366047877818346" lon="7.027300531044602"><ele></ele><time>2013-9-9T17:46:8Z</time></trkpt>
<trkpt lat="46.366028264164925" lon="7.027290808036923"><ele></ele><time>2013-9-9T17:46:11Z</time></trkpt>
<trkpt lat="46.366010662168264" lon="7.027280917391181"><ele></ele><time>2013-9-9T17:46:14Z</time></trkpt>
<trkpt lat="46.365992473438382" lon="7.027272200211883"><ele></ele><time>2013-9-9T17:46:17Z</time></trkpt>
<trkpt lat="46.365974033251405" lon="7.027263566851616"><ele></ele><time>2013-9-9T17:46:20Z</time></trkpt>
<trkpt lat="46.365869762375951" lon="7.027258286252618"><ele></ele><time>2013-9-9T17:46:23Z</time></trkpt>
<trkpt lat="46.365852914750576" lon="7.027258118614554"><ele></ele><time>2013-9-9T17:46:26Z</time></trkpt>
<trkpt lat="46.365835228934884" lon="7.027257028967142"><ele></ele><time>2013-9-9T17:46:29Z</time></trkpt>
<trkpt lat="46.365817124024034" lon="7.027257112786174"><ele></ele><time>2013-9-9T17:46:32Z</time></trkpt>
<trkpt lat="46.365798432379961" lon="7.027256106957793"><ele></ele><time>2013-9-9T17:46:35Z</time></trkpt>
<trkpt lat="46.365727018564939" lon="7.027236493304372"><ele></ele><time>2013-9-9T17:46:38Z</time></trkpt>
<trkpt lat="46.365712182596326" lon="7.027227357029915"><ele></ele><time>2013-9-9T17:46:41Z</time></trkpt>
<trkpt lat="46.365699023008347" lon="7.027215203270316"><ele></ele><time>2013-9-9T17:46:44Z</time></trkpt>
<trkpt lat="46.365687623620033" lon="7.027200032025576"><ele></ele><time>2013-9-9T17:46:47Z</time></trkpt>
<trkpt lat="46.365678571164608" lon="7.027184357866645"><ele></ele><time>2013-9-9T17:46:50Z</time></trkpt>
<trkpt lat="46.365655604749918" lon="7.027088720351458"><ele></ele><time>2013-9-9T17:46:53Z</time></trkpt>
<trkpt lat="46.365654766559601" lon="7.026901133358479"><ele></ele><time>2013-9-9T17:46:56Z</time></trkpt>
<trkpt lat="46.365656526759267" lon="7.026875568553805"><ele></ele><time>2013-9-9T17:46:59Z</time></trkpt>
<trkpt lat="46.36565962806344" lon="7.026847237721086"><ele></ele><time>2013-9-9T17:47:2Z</time></trkpt>
<trkpt lat="46.365663735195994" lon="7.026818990707398"><ele></ele><time>2013-9-9T17:47:5Z</time></trkpt>
<trkpt lat="46.365668177604675" lon="7.026788648217917"><ele></ele><time>2013-9-9T17:47:8Z</time></trkpt>
<trkpt lat="46.365640014410019" lon="7.026476338505745"><ele></ele><time>2013-9-9T17:47:11Z</time></trkpt>
<trkpt lat="46.365544628351927" lon="7.026157239452004"><ele></ele><time>2013-9-9T17:47:14Z</time></trkpt>
<trkpt lat="46.36541286483407" lon="7.025926653295755"><ele></ele><time>2013-9-9T17:47:17Z</time></trkpt>
<trkpt lat="46.365371542051435" lon="7.025842666625977"><ele></ele><time>2013-9-9T17:47:20Z</time></trkpt>
<trkpt lat="46.365321585908532" lon="7.025745771825314"><ele></ele><time>2013-9-9T17:47:23Z</time></trkpt>
<trkpt lat="46.365270791575313" lon="7.025647955015302"><ele></ele><time>2013-9-9T17:47:26Z</time></trkpt>
<trkpt lat="46.365217650309205" lon="7.025555334985256"><ele></ele><time>2013-9-9T17:47:29Z</time></trkpt>
<trkpt lat="46.365161659196019" lon="7.025468917563558"><ele></ele><time>2013-9-9T17:47:32Z</time></trkpt>
<trkpt lat="46.365103237330914" lon="7.02539037913084"><ele></ele><time>2013-9-9T17:47:35Z</time></trkpt>
<trkpt lat="46.365042217075825" lon="7.025317708030343"><ele></ele><time>2013-9-9T17:47:38Z</time></trkpt>
<trkpt lat="46.36497750878334" lon="7.025243863463402"><ele></ele><time>2013-9-9T17:47:41Z</time></trkpt>
<trkpt lat="46.364761590957642" lon="7.025003638118506"><ele></ele><time>2013-9-9T17:47:44Z</time></trkpt>
<trkpt lat="46.36469210498035" lon="7.024931721389294"><ele></ele><time>2013-9-9T17:47:47Z</time></trkpt>
<trkpt lat="46.364625804126263" lon="7.024865252897143"><ele></ele><time>2013-9-9T17:47:50Z</time></trkpt>
<trkpt lat="46.364557994529605" lon="7.024804065003991"><ele></ele><time>2013-9-9T17:47:53Z</time></trkpt>
<trkpt lat="46.364487754181027" lon="7.024751426652074"><ele></ele><time>2013-9-9T17:47:56Z</time></trkpt>
<trkpt lat="46.364413825795054" lon="7.024703063070774"><ele></ele><time>2013-9-9T17:47:59Z</time></trkpt>
<trkpt lat="46.364344088360667" lon="7.024663165211678"><ele></ele><time>2013-9-9T17:48:2Z</time></trkpt>
<trkpt lat="46.364209558814764" lon="7.024597702547908"><ele></ele><time>2013-9-9T17:48:5Z</time></trkpt>
<trkpt lat="46.36383019387722" lon="7.024480355903506"><ele></ele><time>2013-9-9T17:48:8Z</time></trkpt>
<trkpt lat="46.363775627687573" lon="7.024485049769282"><ele></ele><time>2013-9-9T17:48:11Z</time></trkpt>
<trkpt lat="46.363721815869212" lon="7.024496113881469"><ele></ele><time>2013-9-9T17:48:14Z</time></trkpt>
<trkpt lat="46.363670099526644" lon="7.024512374773622"><ele></ele><time>2013-9-9T17:48:17Z</time></trkpt>
<trkpt lat="46.363618047907948" lon="7.02452989295125"><ele></ele><time>2013-9-9T17:48:20Z</time></trkpt>
<trkpt lat="46.363521236926317" lon="7.024570964276791"><ele></ele><time>2013-9-9T17:48:23Z</time></trkpt>
<trkpt lat="46.363397436216474" lon="7.024631146341562"><ele></ele><time>2013-9-9T17:48:26Z</time></trkpt>
<trkpt lat="46.363361813127995" lon="7.024647239595652"><ele></ele><time>2013-9-9T17:48:29Z</time></trkpt>
<trkpt lat="46.363327782601118" lon="7.024657046422362"><ele></ele><time>2013-9-9T17:48:32Z</time></trkpt>
<trkpt lat="46.363293416798115" lon="7.024663668125868"><ele></ele><time>2013-9-9T17:48:35Z</time></trkpt>
<trkpt lat="46.363259386271238" lon="7.024666015058756"><ele></ele><time>2013-9-9T17:48:38Z</time></trkpt>
<trkpt lat="46.36312410235405" lon="7.024649670347571"><ele></ele><time>2013-9-9T17:48:41Z</time></trkpt>
<trkpt lat="46.363092167302966" lon="7.02463936060667"><ele></ele><time>2013-9-9T17:48:44Z</time></trkpt>
<trkpt lat="46.363061992451549" lon="7.024623015895486"><ele></ele><time>2013-9-9T17:48:47Z</time></trkpt>
<trkpt lat="46.36303223669529" lon="7.024603988975287"><ele></ele><time>2013-9-9T17:48:50Z</time></trkpt>
<trkpt lat="46.362791173160076" lon="7.024445068091154"><ele></ele><time>2013-9-9T17:48:53Z</time></trkpt>
<trkpt lat="46.362525969743729" lon="7.02428656630218"><ele></ele><time>2013-9-9T17:48:56Z</time></trkpt>
<trkpt lat="46.362447431311011" lon="7.024208782240748"><ele></ele><time>2013-9-9T17:48:59Z</time></trkpt>
<trkpt lat="46.36240242049098" lon="7.024161340668798"><ele></ele><time>2013-9-9T17:49:2Z</time></trkpt>
<trkpt lat="46.362359253689647" lon="7.024110881611705"><ele></ele><time>2013-9-9T17:49:5Z</time></trkpt>
<trkpt lat="46.362313069403172" lon="7.024058913812041"><ele></ele><time>2013-9-9T17:49:8Z</time></trkpt>
<trkpt lat="46.362264202907681" lon="7.023998815566301"><ele></ele><time>2013-9-9T17:49:11Z</time></trkpt>
<trkpt lat="46.36221575550735" lon="7.023932598531246"><ele></ele><time>2013-9-9T17:49:14Z</time></trkpt>
<trkpt lat="46.362166972830892" lon="7.02386436983943"><ele></ele><time>2013-9-9T17:49:17Z</time></trkpt>
<trkpt lat="46.362116513773799" lon="7.023794045671821"><ele></ele><time>2013-9-9T17:49:20Z</time></trkpt>
<trkpt lat="46.362047698348761" lon="7.023719362914562"><ele></ele><time>2013-9-9T17:49:23Z</time></trkpt>
<trkpt lat="46.361955162137747" lon="7.023639399558306"><ele></ele><time>2013-9-9T17:49:26Z</time></trkpt>
<trkpt lat="46.361641008406878" lon="7.02338207513094"><ele></ele><time>2013-9-9T17:49:29Z</time></trkpt>
<trkpt lat="46.361574372276664" lon="7.023316947743297"><ele></ele><time>2013-9-9T17:49:32Z</time></trkpt>
<trkpt lat="46.361506143584847" lon="7.023243019357324"><ele></ele><time>2013-9-9T17:49:35Z</time></trkpt>
<trkpt lat="46.361441435292363" lon="7.023168671876192"><ele></ele><time>2013-9-9T17:49:38Z</time></trkpt>
<trkpt lat="46.361379660665989" lon="7.023091558367014"><ele></ele><time>2013-9-9T17:49:41Z</time></trkpt>
<trkpt lat="46.361322160810232" lon="7.02300782315433"><ele></ele><time>2013-9-9T17:49:44Z</time></trkpt>
<trkpt lat="46.361267091706395" lon="7.022923501208425"><ele></ele><time>2013-9-9T17:49:47Z</time></trkpt>
<trkpt lat="46.361216129735112" lon="7.02283482067287"><ele></ele><time>2013-9-9T17:49:50Z</time></trkpt>
<trkpt lat="46.361172962933779" lon="7.022745134308934"><ele></ele><time>2013-9-9T17:49:53Z</time></trkpt>
<trkpt lat="46.361128287389874" lon="7.022653771564364"><ele></ele><time>2013-9-9T17:49:56Z</time></trkpt>
<trkpt lat="46.361086126416922" lon="7.022575400769711"><ele></ele><time>2013-9-9T17:49:59Z</time></trkpt>
<trkpt lat="46.361029632389545" lon="7.022508848458529"><ele></ele><time>2013-9-9T17:50:2Z</time></trkpt>
<trkpt lat="46.360968863591552" lon="7.022450175136328"><ele></ele><time>2013-9-9T17:50:5Z</time></trkpt>
<trkpt lat="46.360907005146146" lon="7.022402565926313"><ele></ele><time>2013-9-9T17:50:8Z</time></trkpt>
<trkpt lat="46.360842296853662" lon="7.022361662238836"><ele></ele><time>2013-9-9T17:50:11Z</time></trkpt>
<trkpt lat="46.360775241628289" lon="7.022322183474898"><ele></ele><time>2013-9-9T17:50:14Z</time></trkpt>
<trkpt lat="46.360702235251665" lon="7.022278681397438"><ele></ele><time>2013-9-9T17:50:17Z</time></trkpt>
<trkpt lat="46.360632665455341" lon="7.022236855700612"><ele></ele><time>2013-9-9T17:50:20Z</time></trkpt>
<trkpt lat="46.360561084002256" lon="7.022192934527993"><ele></ele><time>2013-9-9T17:50:23Z</time></trkpt>
<trkpt lat="46.360495453700423" lon="7.02215077355504"><ele></ele><time>2013-9-9T17:50:26Z</time></trkpt>
<trkpt lat="46.360298478975892" lon="7.022026721388102"><ele></ele><time>2013-9-9T17:50:29Z</time></trkpt>
<trkpt lat="46.360221700742841" lon="7.021984811872244"><ele></ele><time>2013-9-9T17:50:32Z</time></trkpt>
<trkpt lat="46.360145593062043" lon="7.021967712789774"><ele></ele><time>2013-9-9T17:50:35Z</time></trkpt>
<trkpt lat="46.360066970810294" lon="7.021965868771076"><ele></ele><time>2013-9-9T17:50:38Z</time></trkpt>
<trkpt lat="46.359992204234004" lon="7.021973496302962"><ele></ele><time>2013-9-9T17:50:41Z</time></trkpt>
<trkpt lat="46.359862787649035" lon="7.021968383342028"><ele></ele><time>2013-9-9T17:50:44Z</time></trkpt>
<trkpt lat="46.359803527593613" lon="7.021947260946035"><ele></ele><time>2013-9-9T17:50:47Z</time></trkpt>
<trkpt lat="46.359747452661395" lon="7.021915493533015"><ele></ele><time>2013-9-9T17:50:50Z</time></trkpt>
<trkpt lat="46.359696071594954" lon="7.021879367530346"><ele></ele><time>2013-9-9T17:50:53Z</time></trkpt>
<trkpt lat="46.359646953642368" lon="7.021839469671249"><ele></ele><time>2013-9-9T17:50:56Z</time></trkpt>
<trkpt lat="46.359599931165576" lon="7.021799571812153"><ele></ele><time>2013-9-9T17:50:59Z</time></trkpt>
<trkpt lat="46.359505886211991" lon="7.021724805235863"><ele></ele><time>2013-9-9T17:51:2Z</time></trkpt>
<trkpt lat="46.359305139631033" lon="7.021645847707987"><ele></ele><time>2013-9-9T17:51:5Z</time></trkpt>
<trkpt lat="46.359232049435377" lon="7.021650206297636"><ele></ele><time>2013-9-9T17:51:8Z</time></trkpt>
<trkpt lat="46.358965337276459" lon="7.021761350333691"><ele></ele><time>2013-9-9T17:51:11Z</time></trkpt>
<trkpt lat="46.358965337276459" lon="7.021761350333691"><ele></ele><time>2013-9-9T17:51:14Z</time></trkpt>
<trkpt lat="46.358896270394325" lon="7.021793620660901"><ele></ele><time>2013-9-9T17:51:17Z</time></trkpt>
<trkpt lat="46.358828293159604" lon="7.021824382245541"><ele></ele><time>2013-9-9T17:51:20Z</time></trkpt>
<trkpt lat="46.358761740848422" lon="7.021852545440197"><ele></ele><time>2013-9-9T17:51:23Z</time></trkpt>
<trkpt lat="46.358523443341255" lon="7.021903423592448"><ele></ele><time>2013-9-9T17:51:26Z</time></trkpt>
<trkpt lat="46.358370557427406" lon="7.021949188783765"><ele></ele><time>2013-9-9T17:51:29Z</time></trkpt>
<trkpt lat="46.358293695375323" lon="7.021921360865235"><ele></ele><time>2013-9-9T17:51:32Z</time></trkpt>
<trkpt lat="46.358188418671489" lon="7.021818179637194"><ele></ele><time>2013-9-9T17:51:35Z</time></trkpt>
<trkpt lat="46.358159836381674" lon="7.021805522963405"><ele></ele><time>2013-9-9T17:51:38Z</time></trkpt>
<trkpt lat="46.358126392588019" lon="7.021794961765409"><ele></ele><time>2013-9-9T17:51:41Z</time></trkpt>
<trkpt lat="46.358087668195367" lon="7.021784568205476"><ele></ele><time>2013-9-9T17:51:44Z</time></trkpt>
<trkpt lat="46.358043076470494" lon="7.021778784692287"><ele></ele><time>2013-9-9T17:51:47Z</time></trkpt>
<trkpt lat="46.357992952689528" lon="7.021771324798465"><ele></ele><time>2013-9-9T17:51:50Z</time></trkpt>
<trkpt lat="46.357938051223755" lon="7.021758668124676"><ele></ele><time>2013-9-9T17:51:53Z</time></trkpt>
<trkpt lat="46.357884407043457" lon="7.021744167432189"><ele></ele><time>2013-9-9T17:51:56Z</time></trkpt>
<trkpt lat="46.357816848903894" lon="7.021718015894294"><ele></ele><time>2013-9-9T17:51:59Z</time></trkpt>
<trkpt lat="46.357744261622429" lon="7.021690020337701"><ele></ele><time>2013-9-9T17:52:2Z</time></trkpt>
<trkpt lat="46.357670165598392" lon="7.021668311208487"><ele></ele><time>2013-9-9T17:52:5Z</time></trkpt>
<trkpt lat="46.357594393193722" lon="7.021652720868588"><ele></ele><time>2013-9-9T17:52:8Z</time></trkpt>
<trkpt lat="46.35752004571259" lon="7.02163721434772"><ele></ele><time>2013-9-9T17:52:11Z</time></trkpt>
<trkpt lat="46.357444692403078" lon="7.021615086123347"><ele></ele><time>2013-9-9T17:52:14Z</time></trkpt>
<trkpt lat="46.357361543923616" lon="7.021582899615169"><ele></ele><time>2013-9-9T17:52:17Z</time></trkpt>
<trkpt lat="46.357282418757677" lon="7.021552557125688"><ele></ele><time>2013-9-9T17:52:20Z</time></trkpt>
<trkpt lat="46.357202203944325" lon="7.021522717550397"><ele></ele><time>2013-9-9T17:52:23Z</time></trkpt>
<trkpt lat="46.357121737673879" lon="7.021493632346392"><ele></ele><time>2013-9-9T17:52:26Z</time></trkpt>
<trkpt lat="46.357041941955686" lon="7.02146228402853"><ele></ele><time>2013-9-9T17:52:29Z</time></trkpt>
<trkpt lat="46.3569669239223" lon="7.02143688686192"><ele></ele><time>2013-9-9T17:52:32Z</time></trkpt>
<trkpt lat="46.356893666088581" lon="7.021408136934042"><ele></ele><time>2013-9-9T17:52:35Z</time></trkpt>
<trkpt lat="46.356769613921642" lon="7.021341165527701"><ele></ele><time>2013-9-9T17:52:38Z</time></trkpt>
<trkpt lat="46.356700714677572" lon="7.021170761436224"><ele></ele><time>2013-9-9T17:52:41Z</time></trkpt>
<trkpt lat="46.356685878708959" lon="7.021100940182805"><ele></ele><time>2013-9-9T17:52:44Z</time></trkpt>
<trkpt lat="46.35666249319911" lon="7.020962722599506"><ele></ele><time>2013-9-9T17:52:47Z</time></trkpt>
<trkpt lat="46.356599712744355" lon="7.020629541948438"><ele></ele><time>2013-9-9T17:52:50Z</time></trkpt>
<trkpt lat="46.356500890105963" lon="7.020193599164486"><ele></ele><time>2013-9-9T17:52:53Z</time></trkpt>
<trkpt lat="46.356501895934343" lon="7.020148001611233"><ele></ele><time>2013-9-9T17:52:56Z</time></trkpt>
<trkpt lat="46.356616728007793" lon="7.020160239189863"><ele></ele><time>2013-9-9T17:52:59Z</time></trkpt>
<trkpt lat="46.35673482902348" lon="7.020156886428595"><ele></ele><time>2013-9-9T17:53:2Z</time></trkpt>
<trkpt lat="46.356823593378067" lon="7.0201376080513"><ele></ele><time>2013-9-9T17:53:5Z</time></trkpt>
<trkpt lat="46.356846559792757" lon="7.020083544775844"><ele></ele><time>2013-9-9T17:53:8Z</time></trkpt>
<trkpt lat="46.356868017464876" lon="7.020027972757816"><ele></ele><time>2013-9-9T17:53:11Z</time></trkpt>
<trkpt lat="46.356887044385076" lon="7.019978268072009"><ele></ele><time>2013-9-9T17:53:14Z</time></trkpt>
<trkpt lat="46.356905400753021" lon="7.019945997744799"><ele></ele><time>2013-9-9T17:53:17Z</time></trkpt>
<trkpt lat="46.356925098225474" lon="7.019926300272346"><ele></ele><time>2013-9-9T17:53:20Z</time></trkpt>
<trkpt lat="46.356946974992752" lon="7.019926635548472"><ele></ele><time>2013-9-9T17:53:23Z</time></trkpt>
<trkpt lat="46.356959380209446" lon="7.019923618063331"><ele></ele><time>2013-9-9T17:53:26Z</time></trkpt>
<trkpt lat="46.356968013569713" lon="7.019933592528105"><ele></ele><time>2013-9-9T17:53:29Z</time></trkpt>
<trkpt lat="46.356967510655522" lon="7.019957983866334"><ele></ele><time>2013-9-9T17:53:32Z</time></trkpt>
<trkpt lat="46.356949741020799" lon="7.01997047290206"><ele></ele><time>2013-9-9T17:53:35Z</time></trkpt>
<trkpt lat="46.356919230893254" lon="7.019975250586867"><ele></ele><time>2013-9-9T17:53:38Z</time></trkpt>
<trkpt lat="46.356880003586411" lon="7.01997340656817"><ele></ele><time>2013-9-9T17:53:41Z</time></trkpt>
<trkpt lat="46.356836669147015" lon="7.019957145676017"><ele></ele><time>2013-9-9T17:53:44Z</time></trkpt>
<trkpt lat="46.356793250888586" lon="7.01992311514914"><ele></ele><time>2013-9-9T17:53:47Z</time></trkpt>
<trkpt lat="46.356752598658204" lon="7.019874416291714"><ele></ele><time>2013-9-9T17:53:50Z</time></trkpt>
<trkpt lat="46.356716053560376" lon="7.019817754626274"><ele></ele><time>2013-9-9T17:53:53Z</time></trkpt>
<trkpt lat="46.356682777404785" lon="7.01975648291409"><ele></ele><time>2013-9-9T17:53:56Z</time></trkpt>
<trkpt lat="46.356649920344353" lon="7.019689176231623"><ele></ele><time>2013-9-9T17:53:59Z</time></trkpt>
<trkpt lat="46.35661706328392" lon="7.019617008045316"><ele></ele><time>2013-9-9T17:54:2Z</time></trkpt>
<trkpt lat="46.356583954766393" lon="7.019540648907423"><ele></ele><time>2013-9-9T17:54:5Z</time></trkpt>
<trkpt lat="46.356550846248865" lon="7.019460098817945"><ele></ele><time>2013-9-9T17:54:8Z</time></trkpt>
<trkpt lat="46.356517402455211" lon="7.019376112148166"><ele></ele><time>2013-9-9T17:54:11Z</time></trkpt>
<trkpt lat="46.356480522081256" lon="7.019288605079055"><ele></ele><time>2013-9-9T17:54:14Z</time></trkpt>
<trkpt lat="46.356400894001126" lon="7.019188357517123"><ele></ele><time>2013-9-9T17:54:17Z</time></trkpt>
<trkpt lat="46.356306849047542" lon="7.019095234572887"><ele></ele><time>2013-9-9T17:54:20Z</time></trkpt>
<trkpt lat="46.356217162683606" lon="7.019016277045012"><ele></ele><time>2013-9-9T17:54:23Z</time></trkpt>
<trkpt lat="46.356025552377105" lon="7.018909994512796"><ele></ele><time>2013-9-9T17:54:26Z</time></trkpt>
<trkpt lat="46.355950618162751" lon="7.018893649801612"><ele></ele><time>2013-9-9T17:54:29Z</time></trkpt>
<trkpt lat="46.355885658413172" lon="7.018892643973231"><ele></ele><time>2013-9-9T17:54:32Z</time></trkpt>
<trkpt lat="46.355838719755411" lon="7.018934553489089"><ele></ele><time>2013-9-9T17:54:35Z</time></trkpt>
<trkpt lat="46.355779962614179" lon="7.018991215154529"><ele></ele><time>2013-9-9T17:54:38Z</time></trkpt>
<trkpt lat="46.355749368667603" lon="7.019106466323137"><ele></ele><time>2013-9-9T17:54:41Z</time></trkpt>
<trkpt lat="46.355690527707338" lon="7.01919112354517"><ele></ele><time>2013-9-9T17:54:44Z</time></trkpt>
<trkpt lat="46.355625400319695" lon="7.019247785210609"><ele></ele><time>2013-9-9T17:54:47Z</time></trkpt>
<trkpt lat="46.355564380064607" lon="7.0193000882864"><ele></ele><time>2013-9-9T17:54:50Z</time></trkpt>
<trkpt lat="46.35550394654274" lon="7.019351720809937"><ele></ele><time>2013-9-9T17:54:53Z</time></trkpt>
<trkpt lat="46.355442423373461" lon="7.019408969208598"><ele></ele><time>2013-9-9T17:54:56Z</time></trkpt>
<trkpt lat="46.355384672060609" lon="7.019462864845991"><ele></ele><time>2013-9-9T17:54:59Z</time></trkpt>
<trkpt lat="46.355324909090996" lon="7.01951315626502"><ele></ele><time>2013-9-9T17:55:2Z</time></trkpt>
<trkpt lat="46.355243436992168" lon="7.019583396613598"><ele></ele><time>2013-9-9T17:55:5Z</time></trkpt>
<trkpt lat="46.355157187208533" lon="7.019637292250991"><ele></ele><time>2013-9-9T17:55:8Z</time></trkpt>
<trkpt lat="46.355077978223562" lon="7.019682722166181"><ele></ele><time>2013-9-9T17:55:11Z</time></trkpt>
<trkpt lat="46.354988710954785" lon="7.019712729379535"><ele></ele><time>2013-9-9T17:55:14Z</time></trkpt>
<trkpt lat="46.354890055954456" lon="7.019725134596229"><ele></ele><time>2013-9-9T17:55:17Z</time></trkpt>
<trkpt lat="46.354792658239603" lon="7.019720189273357"><ele></ele><time>2013-9-9T17:55:20Z</time></trkpt>
<trkpt lat="46.354697775095701" lon="7.019700575619936"><ele></ele><time>2013-9-9T17:55:23Z</time></trkpt>
<trkpt lat="46.35460339486599" lon="7.019672160968185"><ele></ele><time>2013-9-9T17:55:26Z</time></trkpt>
<trkpt lat="46.354510188102722" lon="7.019634107127786"><ele></ele><time>2013-9-9T17:55:29Z</time></trkpt>
<trkpt lat="46.354420417919755" lon="7.019591191783547"><ele></ele><time>2013-9-9T17:55:32Z</time></trkpt>
<trkpt lat="46.354333749040961" lon="7.019541570916772"><ele></ele><time>2013-9-9T17:55:35Z</time></trkpt>
<trkpt lat="46.35424867272377" lon="7.019491363316774"><ele></ele><time>2013-9-9T17:55:38Z</time></trkpt>
<trkpt lat="46.354165859520435" lon="7.019438222050667"><ele></ele><time>2013-9-9T17:55:41Z</time></trkpt>
<trkpt lat="46.354081872850657" lon="7.019376195967197"><ele></ele><time>2013-9-9T17:55:44Z</time></trkpt>
<trkpt lat="46.354004256427288" lon="7.019316600635648"><ele></ele><time>2013-9-9T17:55:47Z</time></trkpt>
<trkpt lat="46.3538533821702" lon="7.019190369173884"><ele></ele><time>2013-9-9T17:55:50Z</time></trkpt>
<trkpt lat="46.353779872879386" lon="7.019124068319798"><ele></ele><time>2013-9-9T17:55:53Z</time></trkpt>
<trkpt lat="46.353710805997252" lon="7.019059779122472"><ele></ele><time>2013-9-9T17:55:56Z</time></trkpt>
<trkpt lat="46.353640733286738" lon="7.018994400277734"><ele></ele><time>2013-9-9T17:55:59Z</time></trkpt>
<trkpt lat="46.353568146005273" lon="7.018928686156869"><ele></ele><time>2013-9-9T17:56:2Z</time></trkpt>
<trkpt lat="46.353501593694091" lon="7.018866827711463"><ele></ele><time>2013-9-9T17:56:5Z</time></trkpt>
<trkpt lat="46.353436717763543" lon="7.01880656182766"><ele></ele><time>2013-9-9T17:56:8Z</time></trkpt>
<trkpt lat="46.353372680023313" lon="7.01875040307641"><ele></ele><time>2013-9-9T17:56:11Z</time></trkpt>
<trkpt lat="46.353309815749526" lon="7.01869516633451"><ele></ele><time>2013-9-9T17:56:14Z</time></trkpt>
<trkpt lat="46.353111835196614" lon="7.018536413088441"><ele></ele><time>2013-9-9T17:56:17Z</time></trkpt>
<trkpt lat="46.352937575429678" lon="7.018415378406644"><ele></ele><time>2013-9-9T17:56:20Z</time></trkpt>
<trkpt lat="46.352882841601968" lon="7.018438596278429"><ele></ele><time>2013-9-9T17:56:23Z</time></trkpt>
<trkpt lat="46.352898767217994" lon="7.018496515229344"><ele></ele><time>2013-9-9T17:56:26Z</time></trkpt>
<trkpt lat="46.352929277345538" lon="7.018508417531848"><ele></ele><time>2013-9-9T17:56:29Z</time></trkpt>
<trkpt lat="46.352935815230012" lon="7.018429711461067"><ele></ele><time>2013-9-9T17:56:32Z</time></trkpt>
<trkpt lat="46.352885356172919" lon="7.018389143049717"><ele></ele><time>2013-9-9T17:56:35Z</time></trkpt>
<trkpt lat="46.352859036996961" lon="7.018375983461738"><ele></ele><time>2013-9-9T17:56:38Z</time></trkpt>
<trkpt lat="46.352826431393623" lon="7.018352095037699"><ele></ele><time>2013-9-9T17:56:41Z</time></trkpt>
<trkpt lat="46.352786365896463" lon="7.018326949328184"><ele></ele><time>2013-9-9T17:56:44Z</time></trkpt>
<trkpt lat="46.352694164961576" lon="7.018271377310157"><ele></ele><time>2013-9-9T17:56:47Z</time></trkpt>
<trkpt lat="46.352644879370928" lon="7.018246650695801"><ele></ele><time>2013-9-9T17:56:50Z</time></trkpt>
<trkpt lat="46.35259123519063" lon="7.018222343176603"><ele></ele><time>2013-9-9T17:56:53Z</time></trkpt>
<trkpt lat="46.352535327896476" lon="7.018205244094133"><ele></ele><time>2013-9-9T17:56:56Z</time></trkpt>
<trkpt lat="46.35248176753521" lon="7.018193593248725"><ele></ele><time>2013-9-9T17:56:59Z</time></trkpt>
<trkpt lat="46.352420914918184" lon="7.018184205517173"><ele></ele><time>2013-9-9T17:57:2Z</time></trkpt>
<trkpt lat="46.352358805015683" lon="7.018177583813667"><ele></ele><time>2013-9-9T17:57:5Z</time></trkpt>
<trkpt lat="46.352296443656087" lon="7.018168866634369"><ele></ele><time>2013-9-9T17:57:8Z</time></trkpt>
<trkpt lat="46.352237015962601" lon="7.0181620772928"><ele></ele><time>2013-9-9T17:57:11Z</time></trkpt>
<trkpt lat="46.352176917716861" lon="7.018154701218009"><ele></ele><time>2013-9-9T17:57:14Z</time></trkpt>
<trkpt lat="46.352116484194994" lon="7.018148666247726"><ele></ele><time>2013-9-9T17:57:17Z</time></trkpt>
<trkpt lat="46.352055044844747" lon="7.018146654590964"><ele></ele><time>2013-9-9T17:57:20Z</time></trkpt>
<trkpt lat="46.351990839466453" lon="7.018146989867091"><ele></ele><time>2013-9-9T17:57:23Z</time></trkpt>
<trkpt lat="46.351917749270797" lon="7.018146822229028"><ele></ele><time>2013-9-9T17:57:26Z</time></trkpt>
<trkpt lat="46.351856309920549" lon="7.018148917704821"><ele></ele><time>2013-9-9T17:57:29Z</time></trkpt>
<trkpt lat="46.351806186139584" lon="7.01814690604806"><ele></ele><time>2013-9-9T17:57:32Z</time></trkpt>
<trkpt lat="46.351763270795345" lon="7.018145648762584"><ele></ele><time>2013-9-9T17:57:35Z</time></trkpt>
<trkpt lat="46.351722870022058" lon="7.018147073686123"><ele></ele><time>2013-9-9T17:57:38Z</time></trkpt>
<trkpt lat="46.35168238542974" lon="7.018148917704821"><ele></ele><time>2013-9-9T17:57:41Z</time></trkpt>
<trkpt lat="46.351638799533248" lon="7.018151683732867"><ele></ele><time>2013-9-9T17:57:44Z</time></trkpt>
<trkpt lat="46.351590435951948" lon="7.018157886341214"><ele></ele><time>2013-9-9T17:57:47Z</time></trkpt>
<trkpt lat="46.351541317999363" lon="7.01816258020699"><ele></ele><time>2013-9-9T17:57:50Z</time></trkpt>
<trkpt lat="46.351488092914224" lon="7.018161322921515"><ele></ele><time>2013-9-9T17:57:53Z</time></trkpt>
<trkpt lat="46.351430593058467" lon="7.018166771158576"><ele></ele><time>2013-9-9T17:57:56Z</time></trkpt>
<trkpt lat="46.351190702989697" lon="7.018190575763583"><ele></ele><time>2013-9-9T17:57:59Z</time></trkpt>
<trkpt lat="46.351127168163657" lon="7.018200634047389"><ele></ele><time>2013-9-9T17:58:2Z</time></trkpt>
<trkpt lat="46.351067656651139" lon="7.018205327913165"><ele></ele><time>2013-9-9T17:58:5Z</time></trkpt>
<trkpt lat="46.351000433787704" lon="7.018201136961579"><ele></ele><time>2013-9-9T17:58:8Z</time></trkpt>
<trkpt lat="46.350956596434116" lon="7.018206082284451"><ele></ele><time>2013-9-9T17:58:11Z</time></trkpt>
<trkpt lat="46.350921727716923" lon="7.0182104408741"><ele></ele><time>2013-9-9T17:58:14Z</time></trkpt>
<trkpt lat="46.350892055779696" lon="7.018216643482447"><ele></ele><time>2013-9-9T17:58:17Z</time></trkpt>
<trkpt lat="46.350852744653821" lon="7.018217481672764"><ele></ele><time>2013-9-9T17:58:20Z</time></trkpt>
<trkpt lat="46.350815780460835" lon="7.018215553835034"><ele></ele><time>2013-9-9T17:58:23Z</time></trkpt>
<trkpt lat="46.350772194564342" lon="7.018209686502814"><ele></ele><time>2013-9-9T17:58:26Z</time></trkpt>
<trkpt lat="46.350691560655832" lon="7.018202058970928"><ele></ele><time>2013-9-9T17:58:29Z</time></trkpt>
<trkpt lat="46.350653674453497" lon="7.018200634047389"><ele></ele><time>2013-9-9T17:58:32Z</time></trkpt>
<trkpt lat="46.350616123527288" lon="7.018194515258074"><ele></ele><time>2013-9-9T17:58:35Z</time></trkpt>
<trkpt lat="46.350576728582382" lon="7.018190156668425"><ele></ele><time>2013-9-9T17:58:38Z</time></trkpt>
<trkpt lat="46.350538171827793" lon="7.018184624612331"><ele></ele><time>2013-9-9T17:58:41Z</time></trkpt>
<trkpt lat="46.35049550794065" lon="7.018178254365921"><ele></ele><time>2013-9-9T17:58:44Z</time></trkpt>
<trkpt lat="46.350451419129968" lon="7.018169537186623"><ele></ele><time>2013-9-9T17:58:47Z</time></trkpt>
<trkpt lat="46.350398361682892" lon="7.018156126141548"><ele></ele><time>2013-9-9T17:58:50Z</time></trkpt>
<trkpt lat="46.350346058607101" lon="7.018149504438043"><ele></ele><time>2013-9-9T17:58:53Z</time></trkpt>
<trkpt lat="46.350303646177053" lon="7.018148582428694"><ele></ele><time>2013-9-9T17:58:56Z</time></trkpt>
<trkpt lat="46.350266681984067" lon="7.018149169161916"><ele></ele><time>2013-9-9T17:58:59Z</time></trkpt>
<trkpt lat="46.350232735276222" lon="7.018153611570597"><ele></ele><time>2013-9-9T17:59:2Z</time></trkpt>
<trkpt lat="46.350193088874221" lon="7.018155623227358"><ele></ele><time>2013-9-9T17:59:5Z</time></trkpt>
<trkpt lat="46.350140450522304" lon="7.018149252980948"><ele></ele><time>2013-9-9T17:59:8Z</time></trkpt>
<trkpt lat="46.350080268457532" lon="7.018133578822017"><ele></ele><time>2013-9-9T17:59:11Z</time></trkpt>
<trkpt lat="46.350011872127652" lon="7.018106169998646"><ele></ele><time>2013-9-9T17:59:14Z</time></trkpt>
<trkpt lat="46.349944733083248" lon="7.018077503889799"><ele></ele><time>2013-9-9T17:59:17Z</time></trkpt>
<trkpt lat="46.349877761676908" lon="7.018050262704492"><ele></ele><time>2013-9-9T17:59:20Z</time></trkpt>
<trkpt lat="46.349809365347028" lon="7.018017070367932"><ele></ele><time>2013-9-9T17:59:23Z</time></trkpt>
<trkpt lat="46.349740549921989" lon="7.017977423965931"><ele></ele><time>2013-9-9T17:59:26Z</time></trkpt>
<trkpt lat="46.349670393392444" lon="7.01793635264039"><ele></ele><time>2013-9-9T17:59:29Z</time></trkpt>
<trkpt lat="46.349596716463566" lon="7.017886228859425"><ele></ele><time>2013-9-9T17:59:32Z</time></trkpt>
<trkpt lat="46.349528823047876" lon="7.017833841964603"><ele></ele><time>2013-9-9T17:59:35Z</time></trkpt>
<trkpt lat="46.349469311535358" lon="7.017781119793654"><ele></ele><time>2013-9-9T17:59:38Z</time></trkpt>
<trkpt lat="46.349418768659234" lon="7.017740132287145"><ele></ele><time>2013-9-9T17:59:41Z</time></trkpt>
<trkpt lat="46.349373506382108" lon="7.017702413722873"><ele></ele><time>2013-9-9T17:59:44Z</time></trkpt>
<trkpt lat="46.349327238276601" lon="7.017673412337899"><ele></ele><time>2013-9-9T17:59:47Z</time></trkpt>
<trkpt lat="46.349276695400476" lon="7.017647931352258"><ele></ele><time>2013-9-9T17:59:50Z</time></trkpt>
<trkpt lat="46.349230343475938" lon="7.017627395689488"><ele></ele><time>2013-9-9T17:59:53Z</time></trkpt>
<trkpt lat="46.349129090085626" lon="7.017585150897503"><ele></ele><time>2013-9-9T17:59:56Z</time></trkpt>
<trkpt lat="46.34907703846693" lon="7.017560927197337"><ele></ele><time>2013-9-9T17:59:59Z</time></trkpt>
<trkpt lat="46.349025489762425" lon="7.017537541687489"><ele></ele><time>2013-9-9T18:0:2Z</time></trkpt>
<trkpt lat="46.348971845582128" lon="7.017518095672131"><ele></ele><time>2013-9-9T18:0:5Z</time></trkpt>
<trkpt lat="46.348917698487639" lon="7.017502756789327"><ele></ele><time>2013-9-9T18:0:8Z</time></trkpt>
<trkpt lat="46.348863216117024" lon="7.017488339915872"><ele></ele><time>2013-9-9T18:0:11Z</time></trkpt>
<trkpt lat="46.348804626613855" lon="7.017479371279478"><ele></ele><time>2013-9-9T18:0:14Z</time></trkpt>
<trkpt lat="46.348752658814192" lon="7.017473755404353"><ele></ele><time>2013-9-9T18:0:17Z</time></trkpt>
<trkpt lat="46.348708653822541" lon="7.017465708777309"><ele></ele><time>2013-9-9T18:0:20Z</time></trkpt>
<trkpt lat="46.348668420687318" lon="7.01745598576963"><ele></ele><time>2013-9-9T18:0:23Z</time></trkpt>
<trkpt lat="46.34862944483757" lon="7.017446849495173"><ele></ele><time>2013-9-9T18:0:26Z</time></trkpt>
<trkpt lat="46.348592480644584" lon="7.01743402518332"><ele></ele><time>2013-9-9T18:0:29Z</time></trkpt>
<trkpt lat="46.348556438460946" lon="7.017414327710867"><ele></ele><time>2013-9-9T18:0:32Z</time></trkpt>
<trkpt lat="46.348521234467626" lon="7.017393121495843"><ele></ele><time>2013-9-9T18:0:35Z</time></trkpt>
<trkpt lat="46.348418388515711" lon="7.017322964966297"><ele></ele><time>2013-9-9T18:0:38Z</time></trkpt>
<trkpt lat="46.348385950550437" lon="7.017299076542258"><ele></ele><time>2013-9-9T18:0:41Z</time></trkpt>
<trkpt lat="46.348357368260622" lon="7.017277954146266"><ele></ele><time>2013-9-9T18:0:44Z</time></trkpt>
<trkpt lat="46.348331216722727" lon="7.017254820093513"><ele></ele><time>2013-9-9T18:0:47Z</time></trkpt>
<trkpt lat="46.348304226994514" lon="7.017234200611711"><ele></ele><time>2013-9-9T18:0:50Z</time></trkpt>
<trkpt lat="46.348247230052948" lon="7.017191452905536"><ele></ele><time>2013-9-9T18:0:53Z</time></trkpt>
<trkpt lat="46.348221832886338" lon="7.017170330509543"><ele></ele><time>2013-9-9T18:0:56Z</time></trkpt>
<trkpt lat="46.348198782652617" lon="7.017149962484837"><ele></ele><time>2013-9-9T18:0:59Z</time></trkpt>
<trkpt lat="46.348175900056958" lon="7.017128672450781"><ele></ele><time>2013-9-9T18:1:2Z</time></trkpt>
<trkpt lat="46.348153268918395" lon="7.017107214778662"><ele></ele><time>2013-9-9T18:1:5Z</time></trkpt>
<trkpt lat="46.348130973055959" lon="7.017086092382669"><ele></ele><time>2013-9-9T18:1:8Z</time></trkpt>
<trkpt lat="46.348107671365142" lon="7.017065053805709"><ele></ele><time>2013-9-9T18:1:11Z</time></trkpt>
<trkpt lat="46.34808512404561" lon="7.017043931409717"><ele></ele><time>2013-9-9T18:1:14Z</time></trkpt>
<trkpt lat="46.348062912002206" lon="7.017023898661137"><ele></ele><time>2013-9-9T18:1:17Z</time></trkpt>
<trkpt lat="46.348043465986848" lon="7.017001518979669"><ele></ele><time>2013-9-9T18:1:20Z</time></trkpt>
<trkpt lat="46.34802401997149" lon="7.016976792365313"><ele></ele><time>2013-9-9T18:1:23Z</time></trkpt>
<trkpt lat="46.347940033301711" lon="7.016863049939275"><ele></ele><time>2013-9-9T18:1:26Z</time></trkpt>
<trkpt lat="46.34788865223527" lon="7.016799012199044"><ele></ele><time>2013-9-9T18:1:29Z</time></trkpt>
<trkpt lat="46.347863003611565" lon="7.016765149310231"><ele></ele><time>2013-9-9T18:1:32Z</time></trkpt>
<trkpt lat="46.347835175693035" lon="7.016728855669498"><ele></ele><time>2013-9-9T18:1:35Z</time></trkpt>
<trkpt lat="46.347805922850966" lon="7.016689293086529"><ele></ele><time>2013-9-9T18:1:38Z</time></trkpt>
<trkpt lat="46.347773401066661" lon="7.016648389399052"><ele></ele><time>2013-9-9T18:1:41Z</time></trkpt>
<trkpt lat="46.347739454358816" lon="7.016607485711575"><ele></ele><time>2013-9-9T18:1:44Z</time></trkpt>
<trkpt lat="46.347665693610907" lon="7.01652224175632"><ele></ele><time>2013-9-9T18:1:47Z</time></trkpt>
<trkpt lat="46.347613390535116" lon="7.016466418281198"><ele></ele><time>2013-9-9T18:1:50Z</time></trkpt>
<trkpt lat="46.347568547353148" lon="7.016402967274189"><ele></ele><time>2013-9-9T18:1:53Z</time></trkpt>
<trkpt lat="46.347504928708076" lon="7.016328368335962"><ele></ele><time>2013-9-9T18:1:56Z</time></trkpt>
<trkpt lat="46.347457822412252" lon="7.016260474920273"><ele></ele><time>2013-9-9T18:1:59Z</time></trkpt>
<trkpt lat="46.34739562869072" lon="7.016187468543649"><ele></ele><time>2013-9-9T18:2:2Z</time></trkpt>
<trkpt lat="46.347330333665013" lon="7.016114965081215"><ele></ele><time>2013-9-9T18:2:5Z</time></trkpt>
<trkpt lat="46.347268223762512" lon="7.016049586236477"><ele></ele><time>2013-9-9T18:2:8Z</time></trkpt>
<trkpt lat="46.347147272899747" lon="7.015935424715281"><ele></ele><time>2013-9-9T18:2:11Z</time></trkpt>
<trkpt lat="46.347088180482388" lon="7.015884127467871"><ele></ele><time>2013-9-9T18:2:14Z</time></trkpt>
<trkpt lat="46.34702917188406" lon="7.015829812735319"><ele></ele><time>2013-9-9T18:2:17Z</time></trkpt>
<trkpt lat="46.346967816352844" lon="7.015767535194755"><ele></ele><time>2013-9-9T18:2:20Z</time></trkpt>
<trkpt lat="46.346915597096086" lon="7.015705425292254"><ele></ele><time>2013-9-9T18:2:23Z</time></trkpt>
<trkpt lat="46.346864718943834" lon="7.015646081417799"><ele></ele><time>2013-9-9T18:2:26Z</time></trkpt>
<trkpt lat="46.346813254058361" lon="7.015588497743011"><ele></ele><time>2013-9-9T18:2:29Z</time></trkpt>
<trkpt lat="46.346763717010617" lon="7.015533931553364"><ele></ele><time>2013-9-9T18:2:32Z</time></trkpt>
<trkpt lat="46.346614435315132" lon="7.015420105308294"><ele></ele><time>2013-9-9T18:2:35Z</time></trkpt>
<trkpt lat="46.346449982374907" lon="7.015508618205786"><ele></ele><time>2013-9-9T18:2:38Z</time></trkpt>
<trkpt lat="46.346424585208297" lon="7.015531668439508"><ele></ele><time>2013-9-9T18:2:41Z</time></trkpt>
<trkpt lat="46.346399104222655" lon="7.015556395053864"><ele></ele><time>2013-9-9T18:2:44Z</time></trkpt>
<trkpt lat="46.346376305446029" lon="7.015582462772727"><ele></ele><time>2013-9-9T18:2:47Z</time></trkpt>
<trkpt lat="46.346361469477415" lon="7.015615571290255"><ele></ele><time>2013-9-9T18:2:50Z</time></trkpt>
<trkpt lat="46.346998577937484" lon="7.016464490443468"><ele></ele><time>2013-9-9T18:2:53Z</time></trkpt>
<trkpt lat="46.346998577937484" lon="7.016464490443468"><ele></ele><time>2013-9-9T18:2:56Z</time></trkpt>
<trkpt lat="46.34700964204967" lon="7.016523499041796"><ele></ele><time>2013-9-9T18:2:59Z</time></trkpt>
<trkpt lat="46.347025819122791" lon="7.016578316688538"><ele></ele><time>2013-9-9T18:3:2Z</time></trkpt>
<trkpt lat="46.347040738910437" lon="7.016635481268168"><ele></ele><time>2013-9-9T18:3:5Z</time></trkpt>
<trkpt lat="46.347056915983558" lon="7.016694657504559"><ele></ele><time>2013-9-9T18:3:8Z</time></trkpt>
<trkpt lat="46.34707460179925" lon="7.016753247007728"><ele></ele><time>2013-9-9T18:3:11Z</time></trkpt>
<trkpt lat="46.347095053642988" lon="7.01681493781507"><ele></ele><time>2013-9-9T18:3:14Z</time></trkpt>
<trkpt lat="46.347116343677044" lon="7.016876628622413"><ele></ele><time>2013-9-9T18:3:17Z</time></trkpt>
<trkpt lat="46.347140902653337" lon="7.016942258924246"><ele></ele><time>2013-9-9T18:3:20Z</time></trkpt>
<trkpt lat="46.347166383638978" lon="7.017009230330586"><ele></ele><time>2013-9-9T18:3:23Z</time></trkpt>
<trkpt lat="46.347194211557508" lon="7.017080895602703"><ele></ele><time>2013-9-9T18:3:26Z</time></trkpt>
<trkpt lat="46.347221285104752" lon="7.01715205796063"><ele></ele><time>2013-9-9T18:3:29Z</time></trkpt>
<trkpt lat="46.34724710136652" lon="7.01722246594727"><ele></ele><time>2013-9-9T18:3:32Z</time></trkpt>
<trkpt lat="46.347275013104081" lon="7.017288096249104"><ele></ele><time>2013-9-9T18:3:35Z</time></trkpt>
<trkpt lat="46.347303511574864" lon="7.017347691580653"><ele></ele><time>2013-9-9T18:3:38Z</time></trkpt>
<trkpt lat="46.347336620092392" lon="7.017396809533238"><ele></ele><time>2013-9-9T18:3:41Z</time></trkpt>
<trkpt lat="46.347366627305746" lon="7.017439976334572"><ele></ele><time>2013-9-9T18:3:44Z</time></trkpt>
<trkpt lat="46.347401747480035" lon="7.0174989849329"><ele></ele><time>2013-9-9T18:3:47Z</time></trkpt>
<trkpt lat="46.347393114119768" lon="7.01751365326345"><ele></ele><time>2013-9-9T18:3:50Z</time></trkpt>
<trkpt lat="46.347390096634626" lon="7.01751071959734"><ele></ele><time>2013-9-9T18:3:53Z</time></trkpt>
<trkpt lat="46.347381714731455" lon="7.017507199198008"><ele></ele><time>2013-9-9T18:3:56Z</time></trkpt>
<trkpt lat="46.347371404990554" lon="7.017495632171631"><ele></ele><time>2013-9-9T18:3:59Z</time></trkpt>
<trkpt lat="46.347378194332123" lon="7.017437797039747"><ele></ele><time>2013-9-9T18:4:2Z</time></trkpt>
<trkpt lat="46.347392527386546" lon="7.01742229051888"><ele></ele><time>2013-9-9T18:4:5Z</time></trkpt>
<trkpt lat="46.34745966643095" lon="7.017286419868469"><ele></ele><time>2013-9-9T18:4:8Z</time></trkpt>
<trkpt lat="46.347379954531789" lon="7.017371328547597"><ele></ele><time>2013-9-9T18:4:11Z</time></trkpt>
<trkpt lat="46.34735899977386" lon="7.017394797876477"><ele></ele><time>2013-9-9T18:4:14Z</time></trkpt>
<trkpt lat="46.347347684204578" lon="7.01742229051888"><ele></ele><time>2013-9-9T18:4:17Z</time></trkpt>
<trkpt lat="46.347345924004912" lon="7.017435450106859"><ele></ele><time>2013-9-9T18:4:20Z</time></trkpt>
<trkpt lat="46.347333183512092" lon="7.01747358776629"><ele></ele><time>2013-9-9T18:4:23Z</time></trkpt>
<trkpt lat="46.347324885427952" lon="7.0175024215132"><ele></ele><time>2013-9-9T18:4:26Z</time></trkpt>
<trkpt lat="46.34733603335917" lon="7.017558161169291"><ele></ele><time>2013-9-9T18:4:29Z</time></trkpt>
<trkpt lat="46.347291693091393" lon="7.017658744007349"><ele></ele><time>2013-9-9T18:4:32Z</time></trkpt>
<trkpt lat="46.347271325066686" lon="7.017677184194326"><ele></ele><time>2013-9-9T18:4:35Z</time></trkpt>
<trkpt lat="46.347245508804917" lon="7.017687326297164"><ele></ele><time>2013-9-9T18:4:38Z</time></trkpt>
<trkpt lat="46.347206616774201" lon="7.017693696543574"><ele></ele><time>2013-9-9T18:4:41Z</time></trkpt>
<trkpt lat="46.347168395295739" lon="7.017693025991321"><ele></ele><time>2013-9-9T18:4:44Z</time></trkpt>
<trkpt lat="46.347134951502085" lon="7.017682213336229"><ele></ele><time>2013-9-9T18:4:47Z</time></trkpt>
<trkpt lat="46.347097735852003" lon="7.017661342397332"><ele></ele><time>2013-9-9T18:4:50Z</time></trkpt>
<trkpt lat="46.347062531858683" lon="7.017630832269788"><ele></ele><time>2013-9-9T18:4:53Z</time></trkpt>
<trkpt lat="46.34702674113214" lon="7.017597472295165"><ele></ele><time>2013-9-9T18:4:56Z</time></trkpt>
<trkpt lat="46.346986340358853" lon="7.017556317150593"><ele></ele><time>2013-9-9T18:4:59Z</time></trkpt>
<trkpt lat="46.346943592652678" lon="7.017509043216705"><ele></ele><time>2013-9-9T18:5:2Z</time></trkpt>
<trkpt lat="46.346899755299091" lon="7.017460092902184"><ele></ele><time>2013-9-9T18:5:5Z</time></trkpt>
<trkpt lat="46.346856085583568" lon="7.01741399243474"><ele></ele><time>2013-9-9T18:5:8Z</time></trkpt>
<trkpt lat="46.346814008429646" lon="7.01736805960536"><ele></ele><time>2013-9-9T18:5:11Z</time></trkpt>
<trkpt lat="46.346770841628313" lon="7.017319109290838"><ele></ele><time>2013-9-9T18:5:14Z</time></trkpt>
<trkpt lat="46.346591049805284" lon="7.01714183203876"><ele></ele><time>2013-9-9T18:5:17Z</time></trkpt>
<trkpt lat="46.346201207488775" lon="7.016727514564991"><ele></ele><time>2013-9-9T18:5:20Z</time></trkpt>
<trkpt lat="46.345902644097805" lon="7.016376396641135"><ele></ele><time>2013-9-9T18:5:23Z</time></trkpt>
<trkpt lat="46.345870038494468" lon="7.016334570944309"><ele></ele><time>2013-9-9T18:5:26Z</time></trkpt>
<trkpt lat="46.345837013795972" lon="7.016294253990054"><ele></ele><time>2013-9-9T18:5:29Z</time></trkpt>
<trkpt lat="46.345802731812" lon="7.016249913722277"><ele></ele><time>2013-9-9T18:5:32Z</time></trkpt>
<trkpt lat="46.345766354352236" lon="7.016205992549658"><ele></ele><time>2013-9-9T18:5:35Z</time></trkpt>
<trkpt lat="46.345689073204994" lon="7.016117395833135"><ele></ele><time>2013-9-9T18:5:38Z</time></trkpt>
<trkpt lat="46.345646157860756" lon="7.016068361699581"><ele></ele><time>2013-9-9T18:5:41Z</time></trkpt>
<trkpt lat="46.345602069050074" lon="7.016017064452171"><ele></ele><time>2013-9-9T18:5:44Z</time></trkpt>
<trkpt lat="46.345557477325201" lon="7.015964426100254"><ele></ele><time>2013-9-9T18:5:47Z</time></trkpt>
<trkpt lat="46.345466198399663" lon="7.015857556834817"><ele></ele><time>2013-9-9T18:5:50Z</time></trkpt>
<trkpt lat="46.34542303159833" lon="7.015804080292583"><ele></ele><time>2013-9-9T18:5:53Z</time></trkpt>
<trkpt lat="46.34538053534925" lon="7.01575119048357"><ele></ele><time>2013-9-9T18:5:56Z</time></trkpt>
<trkpt lat="46.345334686338902" lon="7.015698803588748"><ele></ele><time>2013-9-9T18:5:59Z</time></trkpt>
<trkpt lat="46.345291184261441" lon="7.015647422522306"><ele></ele><time>2013-9-9T18:6:2Z</time></trkpt>
<trkpt lat="46.34520610794425" lon="7.015538793057203"><ele></ele><time>2013-9-9T18:6:5Z</time></trkpt>
<trkpt lat="46.345164114609361" lon="7.015486992895603"><ele></ele><time>2013-9-9T18:6:8Z</time></trkpt>
<trkpt lat="46.345122456550598" lon="7.015435276553035"><ele></ele><time>2013-9-9T18:6:11Z</time></trkpt>
<trkpt lat="46.345080211758614" lon="7.015380961820483"><ele></ele><time>2013-9-9T18:6:14Z</time></trkpt>
<trkpt lat="46.345040146261454" lon="7.015327736735344"><ele></ele><time>2013-9-9T18:6:17Z</time></trkpt>
<trkpt lat="46.344963787123561" lon="7.015217011794448"><ele></ele><time>2013-9-9T18:6:20Z</time></trkpt>
<trkpt lat="46.344927158206701" lon="7.015161272138357"><ele></ele><time>2013-9-9T18:6:23Z</time></trkpt>
<trkpt lat="46.344890277832747" lon="7.015107041224837"><ele></ele><time>2013-9-9T18:6:26Z</time></trkpt>
<trkpt lat="46.344851385802031" lon="7.01505389995873"><ele></ele><time>2013-9-9T18:6:29Z</time></trkpt>
<trkpt lat="46.344810565933585" lon="7.014999082311988"><ele></ele><time>2013-9-9T18:6:32Z</time></trkpt>
<trkpt lat="46.344770919531584" lon="7.014945102855563"><ele></ele><time>2013-9-9T18:6:35Z</time></trkpt>
<trkpt lat="46.344730602577329" lon="7.014887183904648"><ele></ele><time>2013-9-9T18:6:38Z</time></trkpt>
<trkpt lat="46.34469011798501" lon="7.014827001839876"><ele></ele><time>2013-9-9T18:6:41Z</time></trkpt>
<trkpt lat="46.344648879021406" lon="7.014762042090297"><ele></ele><time>2013-9-9T18:6:44Z</time></trkpt>
<trkpt lat="46.344607304781675" lon="7.014695322141051"><ele></ele><time>2013-9-9T18:6:47Z</time></trkpt>
<trkpt lat="46.344567155465484" lon="7.014625500887632"><ele></ele><time>2013-9-9T18:6:50Z</time></trkpt>
<trkpt lat="46.344527844339609" lon="7.01455551199615"><ele></ele><time>2013-9-9T18:6:53Z</time></trkpt>
<trkpt lat="46.344490377232432" lon="7.014485523104668"><ele></ele><time>2013-9-9T18:6:56Z</time></trkpt>
<trkpt lat="46.344453161582351" lon="7.014416204765439"><ele></ele><time>2013-9-9T18:6:59Z</time></trkpt>
<trkpt lat="46.344417873769999" lon="7.014349903911352"><ele></ele><time>2013-9-9T18:7:2Z</time></trkpt>
<trkpt lat="46.344379233196378" lon="7.014282597228885"><ele></ele><time>2013-9-9T18:7:5Z</time></trkpt>
<trkpt lat="46.344348136335611" lon="7.014227611944079"><ele></ele><time>2013-9-9T18:7:8Z</time></trkpt>
<trkpt lat="46.344291809946299" lon="7.01412451453507"><ele></ele><time>2013-9-9T18:7:11Z</time></trkpt>
<trkpt lat="46.344213774427772" lon="7.013999707996845"><ele></ele><time>2013-9-9T18:7:14Z</time></trkpt>
<trkpt lat="46.34418485686183" lon="7.013960564509034"><ele></ele><time>2013-9-9T18:7:17Z</time></trkpt>
<trkpt lat="46.34415166452527" lon="7.013918152078986"><ele></ele><time>2013-9-9T18:7:20Z</time></trkpt>
<trkpt lat="46.344113191589713" lon="7.013868531212211"><ele></ele><time>2013-9-9T18:7:23Z</time></trkpt>
<trkpt lat="46.344075221568346" lon="7.013820838183165"><ele></ele><time>2013-9-9T18:7:26Z</time></trkpt>
<trkpt lat="46.344035742804408" lon="7.013771887868643"><ele></ele><time>2013-9-9T18:7:29Z</time></trkpt>
<trkpt lat="46.343998359516263" lon="7.013723943382502"><ele></ele><time>2013-9-9T18:7:32Z</time></trkpt>
<trkpt lat="46.343963826075196" lon="7.013678764924407"><ele></ele><time>2013-9-9T18:7:35Z</time></trkpt>
<trkpt lat="46.343933986499906" lon="7.013636017218232"><ele></ele><time>2013-9-9T18:7:38Z</time></trkpt>
<trkpt lat="46.343877241015434" lon="7.013544989749789"><ele></ele><time>2013-9-9T18:7:41Z</time></trkpt>
<trkpt lat="46.343849496915936" lon="7.013499140739441"><ele></ele><time>2013-9-9T18:7:44Z</time></trkpt>
<trkpt lat="46.343821501359344" lon="7.013455638661981"><ele></ele><time>2013-9-9T18:7:47Z</time></trkpt>
<trkpt lat="46.343791829422116" lon="7.013411885127425"><ele></ele><time>2013-9-9T18:7:50Z</time></trkpt>
<trkpt lat="46.3437270373106" lon="7.01332806609571"><ele></ele><time>2013-9-9T18:7:53Z</time></trkpt>
<trkpt lat="46.343690995126963" lon="7.013283642008901"><ele></ele><time>2013-9-9T18:7:56Z</time></trkpt>
<trkpt lat="46.343652606010437" lon="7.013235194608569"><ele></ele><time>2013-9-9T18:7:59Z</time></trkpt>
<trkpt lat="46.34360977448523" lon="7.013177862390876"><ele></ele><time>2013-9-9T18:8:2Z</time></trkpt>
<trkpt lat="46.343568786978722" lon="7.013116674497724"><ele></ele><time>2013-9-9T18:8:5Z</time></trkpt>
<trkpt lat="46.343527296558022" lon="7.01305003836751"><ele></ele><time>2013-9-9T18:8:8Z</time></trkpt>
<trkpt lat="46.343485722318292" lon="7.012978624552488"><ele></ele><time>2013-9-9T18:8:11Z</time></trkpt>
<trkpt lat="46.343446159735322" lon="7.012909138575196"><ele></ele><time>2013-9-9T18:8:14Z</time></trkpt>
<trkpt lat="46.343405088409781" lon="7.012842418625951"><ele></ele><time>2013-9-9T18:8:17Z</time></trkpt>
<trkpt lat="46.343365861102939" lon="7.012779302895069"><ele></ele><time>2013-9-9T18:8:20Z</time></trkpt>
<trkpt lat="46.343326969072223" lon="7.012721551582217"><ele></ele><time>2013-9-9T18:8:23Z</time></trkpt>
<trkpt lat="46.343289418146014" lon="7.012668494135141"><ele></ele><time>2013-9-9T18:8:26Z</time></trkpt>
<trkpt lat="46.343253962695599" lon="7.012627255171537"><ele></ele><time>2013-9-9T18:8:29Z</time></trkpt>
<trkpt lat="46.34321884252131" lon="7.012593057006598"><ele></ele><time>2013-9-9T18:8:32Z</time></trkpt>
<trkpt lat="46.343011809512973" lon="7.012424832209945"><ele></ele><time>2013-9-9T18:8:35Z</time></trkpt>
<trkpt lat="46.342994123697281" lon="7.01245928183198"><ele></ele><time>2013-9-9T18:8:38Z</time></trkpt>
<trkpt lat="46.34301608428359" lon="7.012479482218623"><ele></ele><time>2013-9-9T18:8:41Z</time></trkpt>
<trkpt lat="46.343020610511303" lon="7.012483840808272"><ele></ele><time>2013-9-9T18:8:44Z</time></trkpt>
<trkpt lat="46.343003511428833" lon="7.012449894100428"><ele></ele><time>2013-9-9T18:8:47Z</time></trkpt>
<trkpt lat="46.34299605153501" lon="7.012426592409611"><ele></ele><time>2013-9-9T18:8:50Z</time></trkpt>
<trkpt lat="46.342984735965729" lon="7.012397591024637"><ele></ele><time>2013-9-9T18:8:53Z</time></trkpt>
<trkpt lat="46.342968223616481" lon="7.012365823611617"><ele></ele><time>2013-9-9T18:8:56Z</time></trkpt>
<trkpt lat="46.342949531972408" lon="7.012327685952187"><ele></ele><time>2013-9-9T18:8:59Z</time></trkpt>
<trkpt lat="46.34290904738009" lon="7.012244369834662"><ele></ele><time>2013-9-9T18:9:2Z</time></trkpt>
<trkpt lat="46.342817265540361" lon="7.012101961299777"><ele></ele><time>2013-9-9T18:9:5Z</time></trkpt>
<trkpt lat="46.342804525047541" lon="7.012105314061046"><ele></ele><time>2013-9-9T18:9:8Z</time></trkpt>
<trkpt lat="46.342775775119662" lon="7.012099530547857"><ele></ele><time>2013-9-9T18:9:11Z</time></trkpt>
<trkpt lat="46.342757251113653" lon="7.012090478092432"><ele></ele><time>2013-9-9T18:9:14Z</time></trkpt>
<trkpt lat="46.3427341170609" lon="7.012069439515472"><ele></ele><time>2013-9-9T18:9:17Z</time></trkpt>
<trkpt lat="46.342715257778764" lon="7.012050161138177"><ele></ele><time>2013-9-9T18:9:20Z</time></trkpt>
<trkpt lat="46.342693632468581" lon="7.012025434523821"><ele></ele><time>2013-9-9T18:9:23Z</time></trkpt>
<trkpt lat="46.342651220038533" lon="7.011973382905126"><ele></ele><time>2013-9-9T18:9:26Z</time></trkpt>
<trkpt lat="46.342601934447885" lon="7.011918146163225"><ele></ele><time>2013-9-9T18:9:29Z</time></trkpt>
<trkpt lat="46.342572094872594" lon="7.011889144778252"><ele></ele><time>2013-9-9T18:9:32Z</time></trkpt>
<trkpt lat="46.342540914192796" lon="7.011857461184263"><ele></ele><time>2013-9-9T18:9:35Z</time></trkpt>
<trkpt lat="46.342508308589458" lon="7.011823849752545"><ele></ele><time>2013-9-9T18:9:38Z</time></trkpt>
<trkpt lat="46.342472098767757" lon="7.011787723749876"><ele></ele><time>2013-9-9T18:9:41Z</time></trkpt>
<trkpt lat="46.342432787641883" lon="7.011743383482099"><ele></ele><time>2013-9-9T18:9:44Z</time></trkpt>
<trkpt lat="46.342395069077611" lon="7.011696612462401"><ele></ele><time>2013-9-9T18:9:47Z</time></trkpt>
<trkpt lat="46.342355757951736" lon="7.011645650491118"><ele></ele><time>2013-9-9T18:9:50Z</time></trkpt>
<trkpt lat="46.342317033559084" lon="7.011594688519836"><ele></ele><time>2013-9-9T18:9:53Z</time></trkpt>
<trkpt lat="46.34227629750967" lon="7.011541547253728"><ele></ele><time>2013-9-9T18:9:56Z</time></trkpt>
<trkpt lat="46.342232711613178" lon="7.011489495635033"><ele></ele><time>2013-9-9T18:9:59Z</time></trkpt>
<trkpt lat="46.342188958078623" lon="7.011439204216003"><ele></ele><time>2013-9-9T18:10:2Z</time></trkpt>
<trkpt lat="46.342142689973116" lon="7.011390086263418"><ele></ele><time>2013-9-9T18:10:5Z</time></trkpt>
<trkpt lat="46.342093823477626" lon="7.011343901976943"><ele></ele><time>2013-9-9T18:10:8Z</time></trkpt>
<trkpt lat="46.342042190954089" lon="7.011302076280117"><ele></ele><time>2013-9-9T18:10:11Z</time></trkpt>
<trkpt lat="46.341984691098332" lon="7.011255891993642"><ele></ele><time>2013-9-9T18:10:14Z</time></trkpt>
<trkpt lat="46.341927945613861" lon="7.011204930022359"><ele></ele><time>2013-9-9T18:10:17Z</time></trkpt>
<trkpt lat="46.341864746063948" lon="7.011137707158923"><ele></ele><time>2013-9-9T18:10:20Z</time></trkpt>
<trkpt lat="46.341811018064618" lon="7.011075429618359"><ele></ele><time>2013-9-9T18:10:23Z</time></trkpt>
<trkpt lat="46.341749997809529" lon="7.011002758517861"><ele></ele><time>2013-9-9T18:10:26Z</time></trkpt>
<trkpt lat="46.341689648106694" lon="7.010930506512523"><ele></ele><time>2013-9-9T18:10:29Z</time></trkpt>
<trkpt lat="46.34162787348032" lon="7.010860433802009"><ele></ele><time>2013-9-9T18:10:32Z</time></trkpt>
<trkpt lat="46.341568026691675" lon="7.010793713852763"><ele></ele><time>2013-9-9T18:10:35Z</time></trkpt>
<trkpt lat="46.341507425531745" lon="7.010730765759945"><ele></ele><time>2013-9-9T18:10:38Z</time></trkpt>
<trkpt lat="46.341446153819561" lon="7.010678965598345"><ele></ele><time>2013-9-9T18:10:41Z</time></trkpt>
<trkpt lat="46.341388151049614" lon="7.010638816282153"><ele></ele><time>2013-9-9T18:10:44Z</time></trkpt>
<trkpt lat="46.341330483555794" lon="7.010603696107864"><ele></ele><time>2013-9-9T18:10:47Z</time></trkpt>
<trkpt lat="46.341280611231923" lon="7.010576035827398"><ele></ele><time>2013-9-9T18:10:50Z</time></trkpt>
<trkpt lat="46.341174328699708" lon="7.010520547628403"><ele></ele><time>2013-9-9T18:10:53Z</time></trkpt>
<trkpt lat="46.341156642884016" lon="7.010511243715882"><ele></ele><time>2013-9-9T18:10:56Z</time></trkpt>
<trkpt lat="46.34114658460021" lon="7.010503700003028"><ele></ele><time>2013-9-9T18:10:59Z</time></trkpt>
<trkpt lat="46.341136358678341" lon="7.01049355790019"><ele></ele><time>2013-9-9T18:11:2Z</time></trkpt>
<trkpt lat="46.341126719489694" lon="7.010481152683497"><ele></ele><time>2013-9-9T18:11:5Z</time></trkpt>
<trkpt lat="46.341066705062985" lon="7.010314604267478"><ele></ele><time>2013-9-9T18:11:8Z</time></trkpt>
<trkpt lat="46.340936198830605" lon="7.009908333420754"><ele></ele><time>2013-9-9T18:11:11Z</time></trkpt>
<trkpt lat="46.34072681888938" lon="7.009581187739968"><ele></ele><time>2013-9-9T18:11:14Z</time></trkpt>
<trkpt lat="46.340625900775194" lon="7.009366024285555"><ele></ele><time>2013-9-9T18:11:17Z</time></trkpt>
<trkpt lat="46.340614417567849" lon="7.009330904111266"><ele></ele><time>2013-9-9T18:11:20Z</time></trkpt>
<trkpt lat="46.340602515265346" lon="7.009294191375375"><ele></ele><time>2013-9-9T18:11:23Z</time></trkpt>
<trkpt lat="46.340590110048652" lon="7.009258987382054"><ele></ele><time>2013-9-9T18:11:26Z</time></trkpt>
<trkpt lat="46.34057636372745" lon="7.009225627407432"><ele></ele><time>2013-9-9T18:11:29Z</time></trkpt>
<trkpt lat="46.340491203591228" lon="7.009042063727975"><ele></ele><time>2013-9-9T18:11:32Z</time></trkpt>
<trkpt lat="46.34047569707036" lon="7.009016498923302"><ele></ele><time>2013-9-9T18:11:35Z</time></trkpt>
<trkpt lat="46.340459687635303" lon="7.008991772308946"><ele></ele><time>2013-9-9T18:11:38Z</time></trkpt>
<trkpt lat="46.340444600209594" lon="7.008967716246843"><ele></ele><time>2013-9-9T18:11:41Z</time></trkpt>
<trkpt lat="46.34042926132679" lon="7.00894265435636"><ele></ele><time>2013-9-9T18:11:44Z</time></trkpt>
<trkpt lat="46.340413419529796" lon="7.00891868211329"><ele></ele><time>2013-9-9T18:11:47Z</time></trkpt>
<trkpt lat="46.340332366526127" lon="7.008773423731327"><ele></ele><time>2013-9-9T18:11:50Z</time></trkpt>
<trkpt lat="46.34020789526403" lon="7.008462622761726"><ele></ele><time>2013-9-9T18:11:53Z</time></trkpt>
<trkpt lat="46.340196160599589" lon="7.008425239473581"><ele></ele><time>2013-9-9T18:11:56Z</time></trkpt>
<trkpt lat="46.340178558602929" lon="7.008384000509977"><ele></ele><time>2013-9-9T18:11:59Z</time></trkpt>
<trkpt lat="46.340162381529808" lon="7.008337983861566"><ele></ele><time>2013-9-9T18:12:2Z</time></trkpt>
<trkpt lat="46.34015123359859" lon="7.00829666107893"><ele></ele><time>2013-9-9T18:12:5Z</time></trkpt>
<trkpt lat="46.33999683894217" lon="7.007980747148395"><ele></ele><time>2013-9-9T18:12:8Z</time></trkpt>
<trkpt lat="46.33975887671113" lon="7.007539020851255"><ele></ele><time>2013-9-9T18:12:11Z</time></trkpt>
<trkpt lat="46.339475065469742" lon="7.007017163559794"><ele></ele><time>2013-9-9T18:12:14Z</time></trkpt>
<trkpt lat="46.33940851315856" lon="7.006902499124408"><ele></ele><time>2013-9-9T18:12:17Z</time></trkpt>
<trkpt lat="46.339374063536525" lon="7.006847430020571"><ele></ele><time>2013-9-9T18:12:20Z</time></trkpt>
<trkpt lat="46.339339362457395" lon="7.006793953478336"><ele></ele><time>2013-9-9T18:12:23Z</time></trkpt>
<trkpt lat="46.339305667206645" lon="7.006735112518072"><ele></ele><time>2013-9-9T18:12:26Z</time></trkpt>
<trkpt lat="46.339167281985283" lon="7.006488433107734"><ele></ele><time>2013-9-9T18:12:29Z</time></trkpt>
<trkpt lat="46.339093521237373" lon="7.006360944360495"><ele></ele><time>2013-9-9T18:12:32Z</time></trkpt>
<trkpt lat="46.33905622176826" lon="7.006299756467342"><ele></ele><time>2013-9-9T18:12:35Z</time></trkpt>
<trkpt lat="46.339017916470766" lon="7.006236976012588"><ele></ele><time>2013-9-9T18:12:38Z</time></trkpt>
<trkpt lat="46.338980868458748" lon="7.006174195557833"><ele></ele><time>2013-9-9T18:12:41Z</time></trkpt>
<trkpt lat="46.338943652808666" lon="7.006112085655332"><ele></ele><time>2013-9-9T18:12:44Z</time></trkpt>
<trkpt lat="46.338809039443731" lon="7.005853671580553"><ele></ele><time>2013-9-9T18:12:47Z</time></trkpt>
<trkpt lat="46.338699068874121" lon="7.005587043240666"><ele></ele><time>2013-9-9T18:12:50Z</time></trkpt>
<trkpt lat="46.33862572722137" lon="7.005487633869052"><ele></ele><time>2013-9-9T18:12:53Z</time></trkpt>
<trkpt lat="46.338410647585988" lon="7.005153447389603"><ele></ele><time>2013-9-9T18:12:56Z</time></trkpt>
<trkpt lat="46.338387848809361" lon="7.005098126828671"><ele></ele><time>2013-9-9T18:12:59Z</time></trkpt>
<trkpt lat="46.338308975100517" lon="7.004806101322174"><ele></ele><time>2013-9-9T18:13:2Z</time></trkpt>
<trkpt lat="46.338308975100517" lon="7.004451965913177"><ele></ele><time>2013-9-9T18:13:5Z</time></trkpt>
<trkpt lat="46.338347112759948" lon="7.003817288205028"><ele></ele><time>2013-9-9T18:13:8Z</time></trkpt>
<trkpt lat="46.338346861302853" lon="7.003747969865799"><ele></ele><time>2013-9-9T18:13:11Z</time></trkpt>
<trkpt lat="46.338344682008028" lon="7.003669515252113"><ele></ele><time>2013-9-9T18:13:14Z</time></trkpt>
<trkpt lat="46.33834233507514" lon="7.003588546067476"><ele></ele><time>2013-9-9T18:13:17Z</time></trkpt>
<trkpt lat="46.338337725028396" lon="7.003501877188683"><ele></ele><time>2013-9-9T18:13:20Z</time></trkpt>
<trkpt lat="46.338332360610366" lon="7.00340892188251"><ele></ele><time>2013-9-9T18:13:23Z</time></trkpt>
<trkpt lat="46.338324984535575" lon="7.003309428691864"><ele></ele><time>2013-9-9T18:13:26Z</time></trkpt>
<trkpt lat="46.338318446651101" lon="7.003206079825759"><ele></ele><time>2013-9-9T18:13:29Z</time></trkpt>
<trkpt lat="46.338311824947596" lon="7.003103066235781"><ele></ele><time>2013-9-9T18:13:32Z</time></trkpt>
<trkpt lat="46.338305957615376" lon="7.002999214455485"><ele></ele><time>2013-9-9T18:13:35Z</time></trkpt>
<trkpt lat="46.338303778320551" lon="7.002894859761"><ele></ele><time>2013-9-9T18:13:38Z</time></trkpt>
<trkpt lat="46.338305622339249" lon="7.002788996323943"><ele></ele><time>2013-9-9T18:13:41Z</time></trkpt>
<trkpt lat="46.338311238214374" lon="7.002681707963347"><ele></ele><time>2013-9-9T18:13:44Z</time></trkpt>
<trkpt lat="46.338319787755609" lon="7.002567881718278"><ele></ele><time>2013-9-9T18:13:47Z</time></trkpt>
<trkpt lat="46.338328085839748" lon="7.002460258081555"><ele></ele><time>2013-9-9T18:13:50Z</time></trkpt>
<trkpt lat="46.338334875181317" lon="7.002353556454182"><ele></ele><time>2013-9-9T18:13:53Z</time></trkpt>
<trkpt lat="46.338338563218713" lon="7.002250459045172"><ele></ele><time>2013-9-9T18:13:56Z</time></trkpt>
<trkpt lat="46.338339988142252" lon="7.002144260331988"><ele></ele><time>2013-9-9T18:13:59Z</time></trkpt>
<trkpt lat="46.338344933465123" lon="7.001600526273251"><ele></ele><time>2013-9-9T18:14:2Z</time></trkpt>
<trkpt lat="46.338288187980652" lon="7.000895021483302"><ele></ele><time>2013-9-9T18:14:5Z</time></trkpt>
<trkpt lat="46.338270418345928" lon="7.00080550275743"><ele></ele><time>2013-9-9T18:14:8Z</time></trkpt>
<trkpt lat="46.338251223787665" lon="7.000720342621207"><ele></ele><time>2013-9-9T18:14:11Z</time></trkpt>
<trkpt lat="46.338228760287166" lon="7.000643564388156"><ele></ele><time>2013-9-9T18:14:14Z</time></trkpt>
<trkpt lat="46.338203195482492" lon="7.000575251877308"><ele></ele><time>2013-9-9T18:14:17Z</time></trkpt>
<trkpt lat="46.338170422241092" lon="7.000510124489665"><ele></ele><time>2013-9-9T18:14:20Z</time></trkpt>
<trkpt lat="46.33789281360805" lon="7.000159677118063"><ele></ele><time>2013-9-9T18:14:23Z</time></trkpt>
<trkpt lat="46.337725091725588" lon="6.999927498400211"><ele></ele><time>2013-9-9T18:14:26Z</time></trkpt>
<trkpt lat="46.337682595476508" lon="6.999865723773837"><ele></ele><time>2013-9-9T18:14:29Z</time></trkpt>
<trkpt lat="46.337638339027762" lon="6.999800344929099"><ele></ele><time>2013-9-9T18:14:32Z</time></trkpt>
<trkpt lat="46.337589137256145" lon="6.999731529504061"><ele></ele><time>2013-9-9T18:14:35Z</time></trkpt>
<trkpt lat="46.337534990161657" lon="6.999662714079022"><ele></ele><time>2013-9-9T18:14:38Z</time></trkpt>
<trkpt lat="46.337435748428106" lon="6.999519551172853"><ele></ele><time>2013-9-9T18:14:41Z</time></trkpt>
<trkpt lat="46.337391743436456" lon="6.999440342187882"><ele></ele><time>2013-9-9T18:14:44Z</time></trkpt>
<trkpt lat="46.337353773415089" lon="6.999356774613261"><ele></ele><time>2013-9-9T18:14:47Z</time></trkpt>
<trkpt lat="46.33731815032661" lon="6.999268513172865"><ele></ele><time>2013-9-9T18:14:50Z</time></trkpt>
<trkpt lat="46.337285796180367" lon="6.999177066609263"><ele></ele><time>2013-9-9T18:14:53Z</time></trkpt>
<trkpt lat="46.337257632985711" lon="6.999075980857015"><ele></ele><time>2013-9-9T18:14:56Z</time></trkpt>
<trkpt lat="46.337228212505579" lon="6.99896240606904"><ele></ele><time>2013-9-9T18:14:59Z</time></trkpt>
<trkpt lat="46.337195439264178" lon="6.998838605359197"><ele></ele><time>2013-9-9T18:15:2Z</time></trkpt>
<trkpt lat="46.337173227220774" lon="6.998707680031657"><ele></ele><time>2013-9-9T18:15:5Z</time></trkpt>
<trkpt lat="46.337151518091559" lon="6.998574323952198"><ele></ele><time>2013-9-9T18:15:8Z</time></trkpt>
<trkpt lat="46.337124779820442" lon="6.998452115803957"><ele></ele><time>2013-9-9T18:15:11Z</time></trkpt>
<trkpt lat="46.337096281349659" lon="6.998329153284431"><ele></ele><time>2013-9-9T18:15:14Z</time></trkpt>
<trkpt lat="46.337064681574702" lon="6.998211722820997"><ele></ele><time>2013-9-9T18:15:17Z</time></trkpt>
<trkpt lat="46.337027214467525" lon="6.998098734766245"><ele></ele><time>2013-9-9T18:15:20Z</time></trkpt>
<trkpt lat="46.336987400427461" lon="6.99799781665206"><ele></ele><time>2013-9-9T18:15:23Z</time></trkpt>
<trkpt lat="46.336942557245493" lon="6.997906537726522"><ele></ele><time>2013-9-9T18:15:26Z</time></trkpt>
<trkpt lat="46.336897881701589" lon="6.997831854969263"><ele></ele><time>2013-9-9T18:15:29Z</time></trkpt>
<trkpt lat="46.336716916412115" lon="6.997663378715515"><ele></ele><time>2013-9-9T18:15:32Z</time></trkpt>
<trkpt lat="46.336668888106942" lon="6.997643848881126"><ele></ele><time>2013-9-9T18:15:35Z</time></trkpt>
<trkpt lat="46.336611304432154" lon="6.997621385380626"><ele></ele><time>2013-9-9T18:15:38Z</time></trkpt>
<trkpt lat="46.33653243072331" lon="6.997584756463766"><ele></ele><time>2013-9-9T18:15:41Z</time></trkpt>
<trkpt lat="46.336448695510626" lon="6.997538320720196"><ele></ele><time>2013-9-9T18:15:44Z</time></trkpt>
<trkpt lat="46.336374012753367" lon="6.997493142262101"><ele></ele><time>2013-9-9T18:15:47Z</time></trkpt>
<trkpt lat="46.336192209273577" lon="6.997419549152255"><ele></ele><time>2013-9-9T18:15:50Z</time></trkpt>
<trkpt lat="46.336138229817152" lon="6.997397672384977"><ele></ele><time>2013-9-9T18:15:53Z</time></trkpt>
<trkpt lat="46.3360839150846" lon="6.997379148378968"><ele></ele><time>2013-9-9T18:15:56Z</time></trkpt>
<trkpt lat="46.33602574467659" lon="6.997362971305847"><ele></ele><time>2013-9-9T18:15:59Z</time></trkpt>
<trkpt lat="46.335964892059565" lon="6.997351907193661"><ele></ele><time>2013-9-9T18:16:2Z</time></trkpt>
<trkpt lat="46.335792727768421" lon="6.997349979355931"><ele></ele><time>2013-9-9T18:16:5Z</time></trkpt>
<trkpt lat="46.335437837988138" lon="6.997380740940571"><ele></ele><time>2013-9-9T18:16:8Z</time></trkpt>
<trkpt lat="46.33538612164557" lon="6.997381160035729"><ele></ele><time>2013-9-9T18:16:11Z</time></trkpt>
<trkpt lat="46.335338177159429" lon="6.997367748990655"><ele></ele><time>2013-9-9T18:16:14Z</time></trkpt>
<trkpt lat="46.335285035893321" lon="6.997355846688151"><ele></ele><time>2013-9-9T18:16:17Z</time></trkpt>
<trkpt lat="46.335241533815861" lon="6.99733380228281"><ele></ele><time>2013-9-9T18:16:20Z</time></trkpt>
<trkpt lat="46.335117481648922" lon="6.997246127575636"><ele></ele><time>2013-9-9T18:16:23Z</time></trkpt>
<trkpt lat="46.335076410323381" lon="6.997207319363952"><ele></ele><time>2013-9-9T18:16:26Z</time></trkpt>
<trkpt lat="46.335036428645253" lon="6.997164068743587"><ele></ele><time>2013-9-9T18:16:29Z</time></trkpt>
<trkpt lat="46.334996782243252" lon="6.997121907770634"><ele></ele><time>2013-9-9T18:16:32Z</time></trkpt>
<trkpt lat="46.334954872727394" lon="6.99707773514092"><ele></ele><time>2013-9-9T18:16:35Z</time></trkpt>
<trkpt lat="46.334835346788168" lon="6.996958460658789"><ele></ele><time>2013-9-9T18:16:38Z</time></trkpt>
<trkpt lat="46.334793101996183" lon="6.996922921389341"><ele></ele><time>2013-9-9T18:16:41Z</time></trkpt>
<trkpt lat="46.334750019013882" lon="6.99688813649118"><ele></ele><time>2013-9-9T18:16:44Z</time></trkpt>
<trkpt lat="46.334705259650946" lon="6.996851172298193"><ele></ele><time>2013-9-9T18:16:47Z</time></trkpt>
<trkpt lat="46.334662344306707" lon="6.996807083487511"><ele></ele><time>2013-9-9T18:16:50Z</time></trkpt>
<trkpt lat="46.334569053724408" lon="6.996630560606718"><ele></ele><time>2013-9-9T18:16:53Z</time></trkpt>
<trkpt lat="46.334550278261304" lon="6.996565852314234"><ele></ele><time>2013-9-9T18:16:56Z</time></trkpt>
<trkpt lat="46.334530916064978" lon="6.996499383822084"><ele></ele><time>2013-9-9T18:16:59Z</time></trkpt>
<trkpt lat="46.334518427029252" lon="6.996422773227096"><ele></ele><time>2013-9-9T18:17:2Z</time></trkpt>
<trkpt lat="46.334509123116732" lon="6.996341301128268"><ele></ele><time>2013-9-9T18:17:5Z</time></trkpt>
<trkpt lat="46.33449537679553" lon="6.996261421591044"><ele></ele><time>2013-9-9T18:17:8Z</time></trkpt>
<trkpt lat="46.334479283541441" lon="6.996180787682533"><ele></ele><time>2013-9-9T18:17:11Z</time></trkpt>
<trkpt lat="46.334447013214231" lon="6.996098142117262"><ele></ele><time>2013-9-9T18:17:14Z</time></trkpt>
<trkpt lat="46.334297396242619" lon="6.995862107723951"><ele></ele><time>2013-9-9T18:17:17Z</time></trkpt>
<trkpt lat="46.334115760400891" lon="6.995643172413111"><ele></ele><time>2013-9-9T18:17:20Z</time></trkpt>
<trkpt lat="46.334054237231612" lon="6.995570920407772"><ele></ele><time>2013-9-9T18:17:23Z</time></trkpt>
<trkpt lat="46.333998329937458" lon="6.995498165488243"><ele></ele><time>2013-9-9T18:17:26Z</time></trkpt>
<trkpt lat="46.333944518119097" lon="6.995421638712287"><ele></ele><time>2013-9-9T18:17:29Z</time></trkpt>
<trkpt lat="46.333892969414592" lon="6.995343184098601"><ele></ele><time>2013-9-9T18:17:32Z</time></trkpt>
<trkpt lat="46.333667244762182" lon="6.994892740622163"><ele></ele><time>2013-9-9T18:17:35Z</time></trkpt>
<trkpt lat="46.333560878410935" lon="6.994624435901642"><ele></ele><time>2013-9-9T18:17:38Z</time></trkpt>
<trkpt lat="46.333528021350503" lon="6.994536761194468"><ele></ele><time>2013-9-9T18:17:41Z</time></trkpt>
<trkpt lat="46.333496337756515" lon="6.994448248296976"><ele></ele><time>2013-9-9T18:17:44Z</time></trkpt>
<trkpt lat="46.333464570343494" lon="6.994354370981455"><ele></ele><time>2013-9-9T18:17:47Z</time></trkpt>
<trkpt lat="46.333434311673045" lon="6.994267534464598"><ele></ele><time>2013-9-9T18:17:50Z</time></trkpt>
<trkpt lat="46.333374381065369" lon="6.99409419670701"><ele></ele><time>2013-9-9T18:17:53Z</time></trkpt>
<trkpt lat="46.333130551502109" lon="6.993336724117398"><ele></ele><time>2013-9-9T18:17:56Z</time></trkpt>
<trkpt lat="46.333079170435667" lon="6.993171097710729"><ele></ele><time>2013-9-9T18:17:59Z</time></trkpt>
<trkpt lat="46.33297766558826" lon="6.992856692522764"><ele></ele><time>2013-9-9T18:18:2Z</time></trkpt>
<trkpt lat="46.332955537363887" lon="6.992784859612584"><ele></ele><time>2013-9-9T18:18:5Z</time></trkpt>
<trkpt lat="46.332934582605958" lon="6.992713948711753"><ele></ele><time>2013-9-9T18:18:8Z</time></trkpt>
<trkpt lat="46.332914717495441" lon="6.992643289268017"><ele></ele><time>2013-9-9T18:18:11Z</time></trkpt>
<trkpt lat="46.332895271480083" lon="6.992572294548154"><ele></ele><time>2013-9-9T18:18:14Z</time></trkpt>
<trkpt lat="46.332874735817313" lon="6.992497276514769"><ele></ele><time>2013-9-9T18:18:17Z</time></trkpt>
<trkpt lat="46.332694105803967" lon="6.991763524711132"><ele></ele><time>2013-9-9T18:18:20Z</time></trkpt>
<trkpt lat="46.332679018378258" lon="6.991693871095777"><ele></ele><time>2013-9-9T18:18:23Z</time></trkpt>
<trkpt lat="46.332663679495454" lon="6.991623798385263"><ele></ele><time>2013-9-9T18:18:26Z</time></trkpt>
<trkpt lat="46.332648675888777" lon="6.991553222760558"><ele></ele><time>2013-9-9T18:18:29Z</time></trkpt>
<trkpt lat="46.332632079720497" lon="6.991477701812983"><ele></ele><time>2013-9-9T18:18:32Z</time></trkpt>
<trkpt lat="46.332499897107482" lon="6.990973278880119"><ele></ele><time>2013-9-9T18:18:35Z</time></trkpt>
<trkpt lat="46.332410629838705" lon="6.990651162341237"><ele></ele><time>2013-9-9T18:18:38Z</time></trkpt>
<trkpt lat="46.332387160509825" lon="6.99056776240468"><ele></ele><time>2013-9-9T18:18:41Z</time></trkpt>
<trkpt lat="46.332363355904818" lon="6.990481512621045"><ele></ele><time>2013-9-9T18:18:44Z</time></trkpt>
<trkpt lat="46.332340808585286" lon="6.990392999723554"><ele></ele><time>2013-9-9T18:18:47Z</time></trkpt>
<trkpt lat="46.332316752523184" lon="6.990307336673141"><ele></ele><time>2013-9-9T18:18:50Z</time></trkpt>
<trkpt lat="46.332290349528193" lon="6.990212285891175"><ele></ele><time>2013-9-9T18:18:53Z</time></trkpt>
<trkpt lat="46.332239555194974" lon="6.99003073386848"><ele></ele><time>2013-9-9T18:18:56Z</time></trkpt>
<trkpt lat="46.332222288474441" lon="6.98993694037199"><ele></ele><time>2013-9-9T18:18:59Z</time></trkpt>
<trkpt lat="46.332201668992639" lon="6.989835938438773"><ele></ele><time>2013-9-9T18:19:2Z</time></trkpt>
<trkpt lat="46.332190269604325" lon="6.989742899313569"><ele></ele><time>2013-9-9T18:19:5Z</time></trkpt>
<trkpt lat="46.33217585273087" lon="6.98964374139905"><ele></ele><time>2013-9-9T18:19:8Z</time></trkpt>
<trkpt lat="46.332099242135882" lon="6.98884192854166"><ele></ele><time>2013-9-9T18:19:11Z</time></trkpt>
<trkpt lat="46.332096392288804" lon="6.988646043464541"><ele></ele><time>2013-9-9T18:19:14Z</time></trkpt>
<trkpt lat="46.332094548270106" lon="6.988549819216132"><ele></ele><time>2013-9-9T18:19:17Z</time></trkpt>
<trkpt lat="46.332093039527535" lon="6.988456528633833"><ele></ele><time>2013-9-9T18:19:20Z</time></trkpt>
<trkpt lat="46.332092033699155" lon="6.988365333527327"><ele></ele><time>2013-9-9T18:19:23Z</time></trkpt>
<trkpt lat="46.332091111689806" lon="6.988276652991772"><ele></ele><time>2013-9-9T18:19:26Z</time></trkpt>
<trkpt lat="46.332082310691476" lon="6.987875495105982"><ele></ele><time>2013-9-9T18:19:29Z</time></trkpt>
<trkpt lat="46.332124304026365" lon="6.987419100478292"><ele></ele><time>2013-9-9T18:19:32Z</time></trkpt>
<trkpt lat="46.332173673436046" lon="6.986750224605203"><ele></ele><time>2013-9-9T18:19:35Z</time></trkpt>
<trkpt lat="46.332235615700483" lon="6.985906166955829"><ele></ele><time>2013-9-9T18:19:38Z</time></trkpt>
<trkpt lat="46.332257492467761" lon="6.985759064555168"><ele></ele><time>2013-9-9T18:19:41Z</time></trkpt>
<trkpt lat="46.33226771838963" lon="6.98568438179791"><ele></ele><time>2013-9-9T18:19:44Z</time></trkpt>
<trkpt lat="46.332279117777944" lon="6.985610956326127"><ele></ele><time>2013-9-9T18:19:47Z</time></trkpt>
<trkpt lat="46.33229361847043" lon="6.985537111759186"><ele></ele><time>2013-9-9T18:19:50Z</time></trkpt>
<trkpt lat="46.332309124991298" lon="6.985462177544832"><ele></ele><time>2013-9-9T18:19:53Z</time></trkpt>
<trkpt lat="46.332359500229359" lon="6.985220359638333"><ele></ele><time>2013-9-9T18:19:56Z</time></trkpt>
<trkpt lat="46.332421358674765" lon="6.984646618366242"><ele></ele><time>2013-9-9T18:19:59Z</time></trkpt>
<trkpt lat="46.332437954843044" lon="6.984375547617674"><ele></ele><time>2013-9-9T18:20:2Z</time></trkpt>
<trkpt lat="46.332445666193962" lon="6.98427907191217"><ele></ele><time>2013-9-9T18:20:5Z</time></trkpt>
<trkpt lat="46.332452371716499" lon="6.984183518216014"><ele></ele><time>2013-9-9T18:20:8Z</time></trkpt>
<trkpt lat="46.332458155229688" lon="6.98408561758697"><ele></ele><time>2013-9-9T18:20:11Z</time></trkpt>
<trkpt lat="46.332461172714829" lon="6.983992159366608"><ele></ele><time>2013-9-9T18:20:14Z</time></trkpt>
<trkpt lat="46.332435691729188" lon="6.983347674831748"><ele></ele><time>2013-9-9T18:20:17Z</time></trkpt>
<trkpt lat="46.332434602081776" lon="6.983253043144941"><ele></ele><time>2013-9-9T18:20:20Z</time></trkpt>
<trkpt lat="46.33243384771049" lon="6.983166290447116"><ele></ele><time>2013-9-9T18:20:23Z</time></trkpt>
<trkpt lat="46.332430243492126" lon="6.98308096267283"><ele></ele><time>2013-9-9T18:20:26Z</time></trkpt>
<trkpt lat="46.332424208521843" lon="6.982998568564653"><ele></ele><time>2013-9-9T18:20:29Z</time></trkpt>
<trkpt lat="46.332389758899808" lon="6.982743591070175"><ele></ele><time>2013-9-9T18:20:32Z</time></trkpt>
<trkpt lat="46.332375174388289" lon="6.982438070699573"><ele></ele><time>2013-9-9T18:20:35Z</time></trkpt>
<trkpt lat="46.332363439723849" lon="6.982354335486889"><ele></ele><time>2013-9-9T18:20:38Z</time></trkpt>
<trkpt lat="46.332351285964251" lon="6.982271019369364"><ele></ele><time>2013-9-9T18:20:41Z</time></trkpt>
<trkpt lat="46.33233955129981" lon="6.9821897149086"><ele></ele><time>2013-9-9T18:20:44Z</time></trkpt>
<trkpt lat="46.332328319549561" lon="6.982110673561692"><ele></ele><time>2013-9-9T18:20:47Z</time></trkpt>
<trkpt lat="46.332303760573268" lon="6.981951668858528"><ele></ele><time>2013-9-9T18:20:50Z</time></trkpt>
<trkpt lat="46.332293283194304" lon="6.981878243386746"><ele></ele><time>2013-9-9T18:20:53Z</time></trkpt>
<trkpt lat="46.332284063100815" lon="6.981807416304946"><ele></ele><time>2013-9-9T18:20:56Z</time></trkpt>
<trkpt lat="46.332276938483119" lon="6.981738014146686"><ele></ele><time>2013-9-9T18:20:59Z</time></trkpt>
<trkpt lat="46.332271238788962" lon="6.981669450178742"><ele></ele><time>2013-9-9T18:21:2Z</time></trkpt>
<trkpt lat="46.332265622913837" lon="6.98160138912499"><ele></ele><time>2013-9-9T18:21:5Z</time></trkpt>
<trkpt lat="46.332248272374272" lon="6.981401480734348"><ele></ele><time>2013-9-9T18:21:8Z</time></trkpt>
<trkpt lat="46.332242153584957" lon="6.981341298669577"><ele></ele><time>2013-9-9T18:21:11Z</time></trkpt>
<trkpt lat="46.332237543538213" lon="6.981281619518995"><ele></ele><time>2013-9-9T18:21:14Z</time></trkpt>
<trkpt lat="46.332232933491468" lon="6.981224119663239"><ele></ele><time>2013-9-9T18:21:17Z</time></trkpt>
<trkpt lat="46.332228323444724" lon="6.981169134378433"><ele></ele><time>2013-9-9T18:21:20Z</time></trkpt>
<trkpt lat="46.332219522446394" lon="6.981068048626185"><ele></ele><time>2013-9-9T18:21:23Z</time></trkpt>
<trkpt lat="46.332218181341887" lon="6.981021612882614"><ele></ele><time>2013-9-9T18:21:26Z</time></trkpt>
<trkpt lat="46.332219354808331" lon="6.980979954823852"><ele></ele><time>2013-9-9T18:21:29Z</time></trkpt>
<trkpt lat="46.332220109179616" lon="6.980940224602819"><ele></ele><time>2013-9-9T18:21:32Z</time></trkpt>
<trkpt lat="46.332224803045392" lon="6.980901835486293"><ele></ele><time>2013-9-9T18:21:35Z</time></trkpt>
<trkpt lat="46.332232430577278" lon="6.980862775817514"><ele></ele><time>2013-9-9T18:21:38Z</time></trkpt>
<trkpt lat="46.332249445840716" lon="6.980773592367768"><ele></ele><time>2013-9-9T18:21:41Z</time></trkpt>
<trkpt lat="46.332277441397309" lon="6.980576785281301"><ele></ele><time>2013-9-9T18:21:44Z</time></trkpt>
<trkpt lat="46.332345334812999" lon="6.980445357039571"><ele></ele><time>2013-9-9T18:21:47Z</time></trkpt>
<trkpt lat="46.332378443330526" lon="6.980338068678975"><ele></ele><time>2013-9-9T18:21:50Z</time></trkpt>
<trkpt lat="46.332386406138539" lon="6.980310995131731"><ele></ele><time>2013-9-9T18:21:53Z</time></trkpt>
<trkpt lat="46.332393866032362" lon="6.980284340679646"><ele></ele><time>2013-9-9T18:21:56Z</time></trkpt>
<trkpt lat="46.332401242107153" lon="6.980259362608194"><ele></ele><time>2013-9-9T18:21:59Z</time></trkpt>
<trkpt lat="46.332407360896468" lon="6.980236563831568"><ele></ele><time>2013-9-9T18:22:2Z</time></trkpt>
<trkpt lat="46.332414317876101" lon="6.980214267969132"><ele></ele><time>2013-9-9T18:22:5Z</time></trkpt>
<trkpt lat="46.332469470798969" lon="6.980131873860955"><ele></ele><time>2013-9-9T18:22:8Z</time></trkpt>
<trkpt lat="46.332480954006314" lon="6.980118211358786"><ele></ele><time>2013-9-9T18:22:11Z</time></trkpt>
<trkpt lat="46.332493610680103" lon="6.980104297399521"><ele></ele><time>2013-9-9T18:22:14Z</time></trkpt>
<trkpt lat="46.332507021725178" lon="6.98009055107832"><ele></ele><time>2013-9-9T18:22:17Z</time></trkpt>
<trkpt lat="46.332521522417665" lon="6.980075463652611"><ele></ele><time>2013-9-9T18:22:20Z</time></trkpt>
<trkpt lat="46.332612801343203" lon="6.979953087866306"><ele></ele><time>2013-9-9T18:22:23Z</time></trkpt>
<trkpt lat="46.332623781636357" lon="6.979949232190847"><ele></ele><time>2013-9-9T18:22:26Z</time></trkpt>
<trkpt lat="46.332636186853051" lon="6.979945795610547"><ele></ele><time>2013-9-9T18:22:29Z</time></trkpt>
<trkpt lat="46.332684382796288" lon="6.97992006316781"><ele></ele><time>2013-9-9T18:22:32Z</time></trkpt>
<trkpt lat="46.332725957036018" lon="6.979903634637594"><ele></ele><time>2013-9-9T18:22:35Z</time></trkpt>
<trkpt lat="46.332766190171242" lon="6.979881841689348"><ele></ele><time>2013-9-9T18:22:38Z</time></trkpt>
<trkpt lat="46.332877250388265" lon="6.979829035699368"><ele></ele><time>2013-9-9T18:22:41Z</time></trkpt>
<trkpt lat="46.332916896790266" lon="6.979752676561475"><ele></ele><time>2013-9-9T18:22:44Z</time></trkpt>
<trkpt lat="46.332923015579581" lon="6.979734990745783"><ele></ele><time>2013-9-9T18:22:47Z</time></trkpt>
<trkpt lat="46.332925362512469" lon="6.979721998795867"><ele></ele><time>2013-9-9T18:22:50Z</time></trkpt>
<trkpt lat="46.332931229844689" lon="6.979714706540108"><ele></ele><time>2013-9-9T18:22:53Z</time></trkpt>
<trkpt lat="46.332937851548195" lon="6.979701714590192"><ele></ele><time>2013-9-9T18:22:56Z</time></trkpt>
<trkpt lat="46.332969032227993" lon="6.979666594415903"><ele></ele><time>2013-9-9T18:22:59Z</time></trkpt>
<trkpt lat="46.332986885681748" lon="6.979657206684351"><ele></ele><time>2013-9-9T18:23:2Z</time></trkpt>
<trkpt lat="46.333889616653323" lon="6.979227047413588"><ele></ele><time>2013-9-9T18:23:5Z</time></trkpt>
<trkpt lat="46.333973687142134" lon="6.979207852855325"><ele></ele><time>2013-9-9T18:23:8Z</time></trkpt>
<trkpt lat="46.334186587482691" lon="6.979093188419938"><ele></ele><time>2013-9-9T18:23:11Z</time></trkpt>
<trkpt lat="46.334267389029264" lon="6.979058403521776"><ele></ele><time>2013-9-9T18:23:14Z</time></trkpt>
<trkpt lat="46.334294211119413" lon="6.979044657200575"><ele></ele><time>2013-9-9T18:23:17Z</time></trkpt>
<trkpt lat="46.334320949390531" lon="6.979028480127454"><ele></ele><time>2013-9-9T18:23:20Z</time></trkpt>
<trkpt lat="46.334348944947124" lon="6.97901850566268"><ele></ele><time>2013-9-9T18:23:23Z</time></trkpt>
<trkpt lat="46.334378281608224" lon="6.979010291397572"><ele></ele><time>2013-9-9T18:23:26Z</time></trkpt>
<trkpt lat="46.33444407954812" lon="6.979004591703415"><ele></ele><time>2013-9-9T18:23:29Z</time></trkpt>
<trkpt lat="46.334505854174495" lon="6.978998556733131"><ele></ele><time>2013-9-9T18:23:32Z</time></trkpt>
<trkpt lat="46.334525719285011" lon="6.978988163173199"><ele></ele><time>2013-9-9T18:23:35Z</time></trkpt>
<trkpt lat="46.334547344595194" lon="6.978976847603917"><ele></ele><time>2013-9-9T18:23:38Z</time></trkpt>
<trkpt lat="46.334571400657296" lon="6.978960670530796"><ele></ele><time>2013-9-9T18:23:41Z</time></trkpt>
<trkpt lat="46.334595121443272" lon="6.978944493457675"><ele></ele><time>2013-9-9T18:23:44Z</time></trkpt>
<trkpt lat="46.334615405648947" lon="6.978937536478043"><ele></ele><time>2013-9-9T18:23:47Z</time></trkpt>
<trkpt lat="46.334635689854622" lon="6.978930244222283"><ele></ele><time>2013-9-9T18:23:50Z</time></trkpt>
<trkpt lat="46.334658907726407" lon="6.978923371061683"><ele></ele><time>2013-9-9T18:23:53Z</time></trkpt>
<trkpt lat="46.334679946303368" lon="6.978914150968194"><ele></ele><time>2013-9-9T18:23:56Z</time></trkpt>
<trkpt lat="46.33470643311739" lon="6.978903422132134"><ele></ele><time>2013-9-9T18:23:59Z</time></trkpt>
<trkpt lat="46.334726382046938" lon="6.978890849277377"><ele></ele><time>2013-9-9T18:24:2Z</time></trkpt>
<trkpt lat="46.334748761728406" lon="6.978871403262019"><ele></ele><time>2013-9-9T18:24:5Z</time></trkpt>
<trkpt lat="46.334769129753113" lon="6.97884944267571"><ele></ele><time>2013-9-9T18:24:8Z</time></trkpt>
<trkpt lat="46.334789078682661" lon="6.978834019973874"><ele></ele><time>2013-9-9T18:24:11Z</time></trkpt>
<trkpt lat="46.334804249927402" lon="6.978828404098749"><ele></ele><time>2013-9-9T18:24:14Z</time></trkpt>
<trkpt lat="46.334822438657284" lon="6.978783058002591"><ele></ele><time>2013-9-9T18:24:17Z</time></trkpt>
<trkpt lat="46.334839956834912" lon="6.978737628087401"><ele></ele><time>2013-9-9T18:24:20Z</time></trkpt>
<trkpt lat="46.334855547174811" lon="6.978705693036318"><ele></ele><time>2013-9-9T18:24:23Z</time></trkpt>
<trkpt lat="46.33487013168633" lon="6.978671662509441"><ele></ele><time>2013-9-9T18:24:26Z</time></trkpt>
<trkpt lat="46.334881950169802" lon="6.978640230372548"><ele></ele><time>2013-9-9T18:24:29Z</time></trkpt>
<trkpt lat="46.334895361214876" lon="6.978616090491414"><ele></ele><time>2013-9-9T18:24:32Z</time></trkpt>
<trkpt lat="46.334905922412872" lon="6.978598656132817"><ele></ele><time>2013-9-9T18:24:35Z</time></trkpt>
<trkpt lat="46.334918327629566" lon="6.978576947003603"><ele></ele><time>2013-9-9T18:24:38Z</time></trkpt>
<trkpt lat="46.334937606006861" lon="6.978525733575225"><ele></ele><time>2013-9-9T18:24:41Z</time></trkpt>
<trkpt lat="46.334947748109698" lon="6.978495642542839"><ele></ele><time>2013-9-9T18:24:44Z</time></trkpt>
<trkpt lat="46.334953783079982" lon="6.978478208184242"><ele></ele><time>2013-9-9T18:24:47Z</time></trkpt>
<trkpt lat="46.334960237145424" lon="6.978461612015963"><ele></ele><time>2013-9-9T18:24:50Z</time></trkpt>
<trkpt lat="46.334966607391834" lon="6.978445267304778"><ele></ele><time>2013-9-9T18:24:53Z</time></trkpt>
<trkpt lat="46.334973145276308" lon="6.978428000584245"><ele></ele><time>2013-9-9T18:24:56Z</time></trkpt>
<trkpt lat="46.334980186074972" lon="6.978410482406616"><ele></ele><time>2013-9-9T18:24:59Z</time></trkpt>
<trkpt lat="46.334988567978144" lon="6.978395311161876"><ele></ele><time>2013-9-9T18:25:2Z</time></trkpt>
<trkpt lat="46.335004409775138" lon="6.978364549577236"><ele></ele><time>2013-9-9T18:25:5Z</time></trkpt>
<trkpt lat="46.335021927952766" lon="6.978343343362212"><ele></ele><time>2013-9-9T18:25:8Z</time></trkpt>
<trkpt lat="46.335029639303684" lon="6.978332363069058"><ele></ele><time>2013-9-9T18:25:11Z</time></trkpt>
<trkpt lat="46.335036177188158" lon="6.978322137147188"><ele></ele><time>2013-9-9T18:25:14Z</time></trkpt>
<trkpt lat="46.335042798891664" lon="6.978312330320478"><ele></ele><time>2013-9-9T18:25:17Z</time></trkpt>
<trkpt lat="46.335049336776137" lon="6.978302272036672"><ele></ele><time>2013-9-9T18:25:20Z</time></trkpt>
<trkpt lat="46.335056377574801" lon="6.978290872648358"><ele></ele><time>2013-9-9T18:25:23Z</time></trkpt>
<trkpt lat="46.335100550204515" lon="6.978243933990598"><ele></ele><time>2013-9-9T18:25:26Z</time></trkpt>
<trkpt lat="46.335134161636233" lon="6.978212334215641"><ele></ele><time>2013-9-9T18:25:29Z</time></trkpt>
<trkpt lat="46.335135167464614" lon="6.978204287588596"><ele></ele><time>2013-9-9T18:25:32Z</time></trkpt>
<trkpt lat="46.335172215476632" lon="6.978165311738849"><ele></ele><time>2013-9-9T18:25:35Z</time></trkpt>
<trkpt lat="46.335170120000839" lon="6.978157768025994"><ele></ele><time>2013-9-9T18:25:38Z</time></trkpt>
<trkpt lat="46.335167437791824" lon="6.97815072722733"><ele></ele><time>2013-9-9T18:25:41Z</time></trkpt>
<trkpt lat="46.335164168849587" lon="6.97814485989511"><ele></ele><time>2013-9-9T18:25:44Z</time></trkpt>
<trkpt lat="46.335161821916699" lon="6.978141590952873"><ele></ele><time>2013-9-9T18:25:47Z</time></trkpt>
<trkpt lat="46.335159139707685" lon="6.978138070553541"><ele></ele><time>2013-9-9T18:25:50Z</time></trkpt>
<trkpt lat="46.335153272375464" lon="6.978135136887431"><ele></ele><time>2013-9-9T18:25:53Z</time></trkpt>
<trkpt lat="46.335154278203845" lon="6.978134885430336"><ele></ele><time>2013-9-9T18:25:56Z</time></trkpt>
<trkpt lat="46.335150338709354" lon="6.97813949547708"><ele></ele><time>2013-9-9T18:25:59Z</time></trkpt>
<trkpt lat="46.335147572681308" lon="6.978143937885761"><ele></ele><time>2013-9-9T18:26:2Z</time></trkpt>
<trkpt lat="46.335141705349088" lon="6.978168832138181"><ele></ele><time>2013-9-9T18:26:5Z</time></trkpt>
<trkpt lat="46.335137933492661" lon="6.978174615651369"><ele></ele><time>2013-9-9T18:26:8Z</time></trkpt>
<trkpt lat="46.33513449691236" lon="6.978178638964891"><ele></ele><time>2013-9-9T18:26:11Z</time></trkpt>
<trkpt lat="46.33513449691236" lon="6.978178638964891"><ele></ele><time>2013-9-9T18:26:14Z</time></trkpt>
<trkpt lat="46.335160145536065" lon="6.978138238191605"><ele></ele><time>2013-9-9T18:26:17Z</time></trkpt>
<trkpt lat="46.335269277915359" lon="6.978029608726502"><ele></ele><time>2013-9-9T18:26:20Z</time></trkpt>
<trkpt lat="46.335279168561101" lon="6.978024076670408"><ele></ele><time>2013-9-9T18:26:23Z</time></trkpt>
<trkpt lat="46.335287550464272" lon="6.978020891547203"><ele></ele><time>2013-9-9T18:26:26Z</time></trkpt>
<trkpt lat="46.335295848548412" lon="6.978021562099457"><ele></ele><time>2013-9-9T18:26:29Z</time></trkpt>
<trkpt lat="46.335305236279964" lon="6.978022065013647"><ele></ele><time>2013-9-9T18:26:32Z</time></trkpt>
<trkpt lat="46.335319066420197" lon="6.978024076670408"><ele></ele><time>2013-9-9T18:26:35Z</time></trkpt>
<trkpt lat="46.335328873246908" lon="6.978022484108806"><ele></ele><time>2013-9-9T18:26:38Z</time></trkpt>
<trkpt lat="46.335338680073619" lon="6.978022148832679"><ele></ele><time>2013-9-9T18:26:41Z</time></trkpt>
<trkpt lat="46.335401041433215" lon="6.978022651746869"><ele></ele><time>2013-9-9T18:26:44Z</time></trkpt>
<trkpt lat="46.335714105516672" lon="6.978132873773575"><ele></ele><time>2013-9-9T18:26:47Z</time></trkpt>
<trkpt lat="46.335595836862922" lon="6.978016197681427"><ele></ele><time>2013-9-9T18:26:50Z</time></trkpt>
<trkpt lat="46.335579659789801" lon="6.978003541007638"><ele></ele><time>2013-9-9T18:26:53Z</time></trkpt>
<trkpt lat="46.335551915690303" lon="6.97794889099896"><ele></ele><time>2013-9-9T18:26:56Z</time></trkpt>
<trkpt lat="46.335576642304659" lon="6.977938078343868"><ele></ele><time>2013-9-9T18:26:59Z</time></trkpt>
<trkpt lat="46.335585275664926" lon="6.977932965382934"><ele></ele><time>2013-9-9T18:27:2Z</time></trkpt>
<trkpt lat="46.335594244301319" lon="6.977929444983602"><ele></ele><time>2013-9-9T18:27:5Z</time></trkpt>
<trkpt lat="46.335604386404157" lon="6.977925589308143"><ele></ele><time>2013-9-9T18:27:8Z</time></trkpt>
<trkpt lat="46.335615701973438" lon="6.977924080565572"><ele></ele><time>2013-9-9T18:27:11Z</time></trkpt>
<trkpt lat="46.335685439407825" lon="6.977899940684438"><ele></ele><time>2013-9-9T18:27:14Z</time></trkpt>
<trkpt lat="46.335685439407825" lon="6.977899940684438"><ele></ele><time>2013-9-9T18:27:17Z</time></trkpt>
<trkpt lat="46.33707826025784" lon="6.978513328358531"><ele></ele><time>2013-9-9T18:27:20Z</time></trkpt>
<trkpt lat="46.337107261642814" lon="6.978512238711119"><ele></ele><time>2013-9-9T18:27:23Z</time></trkpt>
<trkpt lat="46.337135005742311" lon="6.978510059416294"><ele></ele><time>2013-9-9T18:27:26Z</time></trkpt>
<trkpt lat="46.337213795632124" lon="6.978561272844672"><ele></ele><time>2013-9-9T18:27:29Z</time></trkpt>
<trkpt lat="46.337260482832789" lon="6.978461192920804"><ele></ele><time>2013-9-9T18:27:32Z</time></trkpt>
<trkpt lat="46.337248412892222" lon="6.978416601195931"><ele></ele><time>2013-9-9T18:27:35Z</time></trkpt>
<trkpt lat="46.337210442870855" lon="6.978391874581575"><ele></ele><time>2013-9-9T18:27:38Z</time></trkpt>
<trkpt lat="46.337233576923609" lon="6.978517519310117"><ele></ele><time>2013-9-9T18:27:41Z</time></trkpt>
<trkpt lat="46.337245730683208" lon="6.978535959497094"><ele></ele><time>2013-9-9T18:27:44Z</time></trkpt>
<trkpt lat="46.337245898321271" lon="6.978543922305107"><ele></ele><time>2013-9-9T18:27:47Z</time></trkpt>
<trkpt lat="46.337247742339969" lon="6.978549873456359"><ele></ele><time>2013-9-9T18:27:50Z</time></trkpt>
<trkpt lat="46.337257549166679" lon="6.978558087721467"><ele></ele><time>2013-9-9T18:27:53Z</time></trkpt>
<trkpt lat="46.337260315194726" lon="6.978565212339163"><ele></ele><time>2013-9-9T18:27:56Z</time></trkpt>
<trkpt lat="46.337271379306912" lon="6.978568816557527"><ele></ele><time>2013-9-9T18:27:59Z</time></trkpt>
<trkpt lat="46.337772030383348" lon="6.978971650823951"><ele></ele><time>2013-9-9T18:28:2Z</time></trkpt>
<trkpt lat="46.33778820745647" lon="6.978981792926788"><ele></ele><time>2013-9-9T18:28:5Z</time></trkpt>
<trkpt lat="46.337833218276501" lon="6.979020936414599"><ele></ele><time>2013-9-9T18:28:8Z</time></trkpt>
<trkpt lat="46.337889209389687" lon="6.979078100994229"><ele></ele><time>2013-9-9T18:28:11Z</time></trkpt>
<trkpt lat="46.337913433089852" lon="6.979106348007917"><ele></ele><time>2013-9-9T18:28:14Z</time></trkpt>
<trkpt lat="46.33792013861239" lon="6.979108192026615"><ele></ele><time>2013-9-9T18:28:17Z</time></trkpt>
<trkpt lat="46.337923910468817" lon="6.979110287502408"><ele></ele><time>2013-9-9T18:28:20Z</time></trkpt>
<trkpt lat="46.337883761152625" lon="6.979112466797233"><ele></ele><time>2013-9-9T18:28:23Z</time></trkpt>
<trkpt lat="46.337901027873158" lon="6.979110790416598"><ele></ele><time>2013-9-9T18:28:26Z</time></trkpt>
<trkpt lat="46.337973447516561" lon="6.979138366878033"><ele></ele><time>2013-9-9T18:28:29Z</time></trkpt>
<trkpt lat="46.338214594870806" lon="6.979163847863674"><ele></ele><time>2013-9-9T18:28:32Z</time></trkpt>
<trkpt lat="46.338076209649444" lon="6.979194860905409"><ele></ele><time>2013-9-9T18:28:35Z</time></trkpt>
<trkpt lat="46.338028181344271" lon="6.979190753772855"><ele></ele><time>2013-9-9T18:28:38Z</time></trkpt>
<trkpt lat="46.338008483871818" lon="6.979197459295392"><ele></ele><time>2013-9-9T18:28:41Z</time></trkpt>
<trkpt lat="46.337989876046777" lon="6.979202153161168"><ele></ele><time>2013-9-9T18:28:44Z</time></trkpt>
<trkpt lat="46.337973866611719" lon="6.979205254465342"><ele></ele><time>2013-9-9T18:28:47Z</time></trkpt>
<trkpt lat="46.33795827627182" lon="6.979207349941135"><ele></ele><time>2013-9-9T18:28:50Z</time></trkpt>
<trkpt lat="46.337931621819735" lon="6.979208858683705"><ele></ele><time>2013-9-9T18:28:53Z</time></trkpt>
<trkpt lat="46.337820058688521" lon="6.979152783751488"><ele></ele><time>2013-9-9T18:28:56Z</time></trkpt>
<trkpt lat="46.337626436725259" lon="6.97903661057353"><ele></ele><time>2013-9-9T18:28:59Z</time></trkpt>
<trkpt lat="46.337551167234778" lon="6.979086566716433"><ele></ele><time>2013-9-9T18:29:2Z</time></trkpt>
<trkpt lat="46.337711596861482" lon="6.979051195085049"><ele></ele><time>2013-9-9T18:29:5Z</time></trkpt>
<trkpt lat="46.337800361216068" lon="6.978920269757509"><ele></ele><time>2013-9-9T18:29:8Z</time></trkpt>
<trkpt lat="46.337821232154965" lon="6.978872660547495"><ele></ele><time>2013-9-9T18:29:11Z</time></trkpt>
<trkpt lat="46.337794493883848" lon="6.978934854269028"><ele></ele><time>2013-9-9T18:29:14Z</time></trkpt>
<trkpt lat="46.337817292660475" lon="6.978950360789895"><ele></ele><time>2013-9-9T18:29:17Z</time></trkpt>
<trkpt lat="46.337856603786349" lon="6.978967543691397"><ele></ele><time>2013-9-9T18:29:20Z</time></trkpt>
<trkpt lat="46.337849730625749" lon="6.978966202586889"><ele></ele><time>2013-9-9T18:29:23Z</time></trkpt>
<trkpt lat="46.337891053408384" lon="6.978974668309093"><ele></ele><time>2013-9-9T18:29:26Z</time></trkpt>
<trkpt lat="46.338102528825402" lon="6.979073910042644"><ele></ele><time>2013-9-9T18:29:29Z</time></trkpt>
<trkpt lat="46.338101355358958" lon="6.979074580594897"><ele></ele><time>2013-9-9T18:29:32Z</time></trkpt>
<trkpt lat="46.339056892320514" lon="6.979631977155805"><ele></ele><time>2013-9-9T18:29:35Z</time></trkpt>
<trkpt lat="46.339080696925521" lon="6.979665588587523"><ele></ele><time>2013-9-9T18:29:38Z</time></trkpt>
<trkpt lat="46.339222183451056" lon="6.979755526408553"><ele></ele><time>2013-9-9T18:29:41Z</time></trkpt>
<trkpt lat="46.339357299730182" lon="6.9798325560987"><ele></ele><time>2013-9-9T18:29:44Z</time></trkpt>
<trkpt lat="46.33946274407208" lon="6.979926852509379"><ele></ele><time>2013-9-9T18:29:47Z</time></trkpt>
<trkpt lat="46.33956735022366" lon="6.979985106736422"><ele></ele><time>2013-9-9T18:29:50Z</time></trkpt>
<trkpt lat="46.339566679671407" lon="6.979985358193517"><ele></ele><time>2013-9-9T18:29:53Z</time></trkpt>
<trkpt lat="46.339570200070739" lon="6.979987034574151"><ele></ele><time>2013-9-9T18:29:56Z</time></trkpt>
<trkpt lat="46.339571205899119" lon="6.979984855279326"><ele></ele><time>2013-9-9T18:29:59Z</time></trkpt>
<trkpt lat="46.340462202206254" lon="6.98012039065361"><ele></ele><time>2013-9-9T18:30:2Z</time></trkpt>
<trkpt lat="46.340488521382213" lon="6.980112176388502"><ele></ele><time>2013-9-9T18:30:5Z</time></trkpt>
<trkpt lat="46.340515678748488" lon="6.980107147246599"><ele></ele><time>2013-9-9T18:30:8Z</time></trkpt>
<trkpt lat="46.340593881905079" lon="6.98011452332139"><ele></ele><time>2013-9-9T18:30:11Z</time></trkpt>
<trkpt lat="46.34063059464097" lon="6.98012575507164"><ele></ele><time>2013-9-9T18:30:14Z</time></trkpt>
<trkpt lat="46.340795299038291" lon="6.980107817798853"><ele></ele><time>2013-9-9T18:30:17Z</time></trkpt>
<trkpt lat="46.340820528566837" lon="6.980098262429237"><ele></ele><time>2013-9-9T18:30:20Z</time></trkpt>
<trkpt lat="46.340833688154817" lon="6.980095244944096"><ele></ele><time>2013-9-9T18:30:23Z</time></trkpt>
<trkpt lat="46.340846847742796" lon="6.980088874697685"><ele></ele><time>2013-9-9T18:30:26Z</time></trkpt>
<trkpt lat="46.340854559093714" lon="6.980080911889672"><ele></ele><time>2013-9-9T18:30:29Z</time></trkpt>
<trkpt lat="46.340886410325766" lon="6.980035398155451"><ele></ele><time>2013-9-9T18:30:32Z</time></trkpt>
<trkpt lat="46.341050025075674" lon="6.980049898847938"><ele></ele><time>2013-9-9T18:30:35Z</time></trkpt>
<trkpt lat="46.34115781635046" lon="6.980055514723063"><ele></ele><time>2013-9-9T18:30:38Z</time></trkpt>
<trkpt lat="46.341375494375825" lon="6.980105135589838"><ele></ele><time>2013-9-9T18:30:41Z</time></trkpt>
<trkpt lat="46.341423187404871" lon="6.980110248550773"><ele></ele><time>2013-9-9T18:30:44Z</time></trkpt>
<trkpt lat="46.341474819928408" lon="6.980091221630573"><ele></ele><time>2013-9-9T18:30:47Z</time></trkpt>
<trkpt lat="46.341476161032915" lon="6.98008032515645"><ele></ele><time>2013-9-9T18:30:50Z</time></trkpt>
<trkpt lat="46.341488985344768" lon="6.980074290186167"><ele></ele><time>2013-9-9T18:30:53Z</time></trkpt>
<trkpt lat="46.341500636190176" lon="6.980070350691676"><ele></ele><time>2013-9-9T18:30:56Z</time></trkpt>
<trkpt lat="46.341527123004198" lon="6.980057694017887"><ele></ele><time>2013-9-9T18:30:59Z</time></trkpt>
<trkpt lat="46.341665592044592" lon="6.980051659047604"><ele></ele><time>2013-9-9T18:31:2Z</time></trkpt>
<trkpt lat="46.341693503782153" lon="6.980056688189507"><ele></ele><time>2013-9-9T18:31:5Z</time></trkpt>
<trkpt lat="46.341719906777143" lon="6.980060460045934"><ele></ele><time>2013-9-9T18:31:8Z</time></trkpt>
<trkpt lat="46.341737760230899" lon="6.980057777836919"><ele></ele><time>2013-9-9T18:31:11Z</time></trkpt>
<trkpt lat="46.341764247044921" lon="6.980058029294014"><ele></ele><time>2013-9-9T18:31:14Z</time></trkpt>
<trkpt lat="46.341922245919704" lon="6.979988962411881"><ele></ele><time>2013-9-9T18:31:17Z</time></trkpt>
<trkpt lat="46.341956024989486" lon="6.979966834187508"><ele></ele><time>2013-9-9T18:31:20Z</time></trkpt>
<trkpt lat="46.341991145163774" lon="6.97993665933609"><ele></ele><time>2013-9-9T18:31:23Z</time></trkpt>
<trkpt lat="46.342016542330384" lon="6.979923415929079"><ele></ele><time>2013-9-9T18:31:26Z</time></trkpt>
<trkpt lat="46.342052165418863" lon="6.979880500584841"><ele></ele><time>2013-9-9T18:31:29Z</time></trkpt>
<trkpt lat="46.342151658609509" lon="6.979748234152794"><ele></ele><time>2013-9-9T18:31:32Z</time></trkpt>
<trkpt lat="46.342221647500992" lon="6.979655530303717"><ele></ele><time>2013-9-9T18:31:35Z</time></trkpt>
<trkpt lat="46.342266574501991" lon="6.979620913043618"><ele></ele><time>2013-9-9T18:31:38Z</time></trkpt>
<trkpt lat="46.342289205640554" lon="6.979606160894036"><ele></ele><time>2013-9-9T18:31:41Z</time></trkpt>
<trkpt lat="46.342308400198817" lon="6.979584619402885"><ele></ele><time>2013-9-9T18:31:44Z</time></trkpt>
<trkpt lat="46.342339748516679" lon="6.979549247771502"><ele></ele><time>2013-9-9T18:31:47Z</time></trkpt>
<trkpt lat="46.342357015237212" lon="6.979525862261653"><ele></ele><time>2013-9-9T18:31:50Z</time></trkpt>
<trkpt lat="46.342373108491302" lon="6.979504404589534"><ele></ele><time>2013-9-9T18:31:53Z</time></trkpt>
<trkpt lat="46.342389788478613" lon="6.97948269546032"><ele></ele><time>2013-9-9T18:31:56Z</time></trkpt>
<trkpt lat="46.342400768771768" lon="6.979471379891038"><ele></ele><time>2013-9-9T18:31:59Z</time></trkpt>
<trkpt lat="46.342437397688627" lon="6.979422345757484"><ele></ele><time>2013-9-9T18:32:2Z</time></trkpt>
<trkpt lat="46.342469248920679" lon="6.979387896135449"><ele></ele><time>2013-9-9T18:32:5Z</time></trkpt>
<trkpt lat="46.342498669400811" lon="6.979347495362163"><ele></ele><time>2013-9-9T18:32:8Z</time></trkpt>
<trkpt lat="46.342539070174098" lon="6.979306759312749"><ele></ele><time>2013-9-9T18:32:11Z</time></trkpt>
<trkpt lat="46.342580392956734" lon="6.979264514520764"><ele></ele><time>2013-9-9T18:32:14Z</time></trkpt>
<trkpt lat="46.342696649953723" lon="6.979168290272355"><ele></ele><time>2013-9-9T18:32:17Z</time></trkpt>
<trkpt lat="46.342777200043201" lon="6.979104587808251"><ele></ele><time>2013-9-9T18:32:20Z</time></trkpt>
<trkpt lat="46.342839980497956" lon="6.979046585038304"><ele></ele><time>2013-9-9T18:32:23Z</time></trkpt>
<trkpt lat="46.342870071530342" lon="6.979013476520777"><ele></ele><time>2013-9-9T18:32:26Z</time></trkpt>
<trkpt lat="46.342964200302958" lon="6.9789501093328"><ele></ele><time>2013-9-9T18:32:29Z</time></trkpt>
<trkpt lat="46.343069644644856" lon="6.978824632242322"><ele></ele><time>2013-9-9T18:32:32Z</time></trkpt>
<trkpt lat="46.343104764819145" lon="6.978739807382226"><ele></ele><time>2013-9-9T18:32:35Z</time></trkpt>
<trkpt lat="46.343131251633167" lon="6.978689767420292"><ele></ele><time>2013-9-9T18:32:38Z</time></trkpt>
<trkpt lat="46.34316167794168" lon="6.978601086884737"><ele></ele><time>2013-9-9T18:32:41Z</time></trkpt>
<trkpt lat="46.343186404556036" lon="6.978512238711119"><ele></ele><time>2013-9-9T18:32:44Z</time></trkpt>
<trkpt lat="46.343210879713297" lon="6.978434873744845"><ele></ele><time>2013-9-9T18:32:47Z</time></trkpt>
<trkpt lat="46.343220351263881" lon="6.978317527100444"><ele></ele><time>2013-9-9T18:32:50Z</time></trkpt>
<trkpt lat="46.343219010159373" lon="6.978233205154538"><ele></ele><time>2013-9-9T18:32:53Z</time></trkpt>
<trkpt lat="46.343214651569724" lon="6.97814385406673"><ele></ele><time>2013-9-9T18:32:56Z</time></trkpt>
<trkpt lat="46.34321054443717" lon="6.978050228208304"><ele></ele><time>2013-9-9T18:32:59Z</time></trkpt>
<trkpt lat="46.343202833086252" lon="6.977958278730512"><ele></ele><time>2013-9-9T18:33:2Z</time></trkpt>
<trkpt lat="46.343195289373398" lon="6.977876722812653"><ele></ele><time>2013-9-9T18:33:5Z</time></trkpt>
<trkpt lat="46.343184811994433" lon="6.9777827616781"><ele></ele><time>2013-9-9T18:33:8Z</time></trkpt>
<trkpt lat="46.343174753710628" lon="6.977666923776269"><ele></ele><time>2013-9-9T18:33:11Z</time></trkpt>
<trkpt lat="46.343164695426822" lon="6.977565586566925"><ele></ele><time>2013-9-9T18:33:14Z</time></trkpt>
<trkpt lat="46.343153966590762" lon="6.977461902424693"><ele></ele><time>2013-9-9T18:33:17Z</time></trkpt>
<trkpt lat="46.343144746497273" lon="6.977352937683463"><ele></ele><time>2013-9-9T18:33:20Z</time></trkpt>
<trkpt lat="46.34313385002315" lon="6.977244643494487"><ele></ele><time>2013-9-9T18:33:23Z</time></trkpt>
<trkpt lat="46.343124294653535" lon="6.977161411195993"><ele></ele><time>2013-9-9T18:33:26Z</time></trkpt>
<trkpt lat="46.343115074560046" lon="6.977052865549922"><ele></ele><time>2013-9-9T18:33:29Z</time></trkpt>
<trkpt lat="46.34311088360846" lon="6.976960329338908"><ele></ele><time>2013-9-9T18:33:32Z</time></trkpt>
<trkpt lat="46.34310987778008" lon="6.976868966594338"><ele></ele><time>2013-9-9T18:33:35Z</time></trkpt>
<trkpt lat="46.343112392351031" lon="6.976780537515879"><ele></ele><time>2013-9-9T18:33:38Z</time></trkpt>
<trkpt lat="46.343120606616139" lon="6.976698227226734"><ele></ele><time>2013-9-9T18:33:41Z</time></trkpt>
<trkpt lat="46.343132760375738" lon="6.976622538641095"><ele></ele><time>2013-9-9T18:33:44Z</time></trkpt>
<trkpt lat="46.343144997954369" lon="6.976547101512551"><ele></ele><time>2013-9-9T18:33:47Z</time></trkpt>
<trkpt lat="46.343160588294268" lon="6.976475771516562"><ele></ele><time>2013-9-9T18:33:50Z</time></trkpt>
<trkpt lat="46.343180537223816" lon="6.976392371580005"><ele></ele><time>2013-9-9T18:33:53Z</time></trkpt>
<trkpt lat="46.343204090371728" lon="6.97630419395864"><ele></ele><time>2013-9-9T18:33:56Z</time></trkpt>
<trkpt lat="46.343230409547687" lon="6.976215094327927"><ele></ele><time>2013-9-9T18:33:59Z</time></trkpt>
<trkpt lat="46.343255136162043" lon="6.976136388257146"><ele></ele><time>2013-9-9T18:34:2Z</time></trkpt>
<trkpt lat="46.343281287699938" lon="6.976061537861824"><ele></ele><time>2013-9-9T18:34:5Z</time></trkpt>
<trkpt lat="46.343309199437499" lon="6.975993728265166"><ele></ele><time>2013-9-9T18:34:8Z</time></trkpt>
<trkpt lat="46.343341050669551" lon="6.97592499665916"><ele></ele><time>2013-9-9T18:34:11Z</time></trkpt>
<trkpt lat="46.343379523605108" lon="6.975857438519597"><ele></ele><time>2013-9-9T18:34:14Z</time></trkpt>
<trkpt lat="46.343408776447177" lon="6.975796585902572"><ele></ele><time>2013-9-9T18:34:17Z</time></trkpt>
<trkpt lat="46.343460408970714" lon="6.975722154602408"><ele></ele><time>2013-9-9T18:34:20Z</time></trkpt>
<trkpt lat="46.3434973731637" lon="6.975655686110258"><ele></ele><time>2013-9-9T18:34:23Z</time></trkpt>
<trkpt lat="46.343530984595418" lon="6.97558980435133"><ele></ele><time>2013-9-9T18:34:26Z</time></trkpt>
<trkpt lat="46.343560991808772" lon="6.975524928420782"><ele></ele><time>2013-9-9T18:34:29Z</time></trkpt>
<trkpt lat="46.343588568270206" lon="6.975467680022121"><ele></ele><time>2013-9-9T18:34:32Z</time></trkpt>
<trkpt lat="46.34361413307488" lon="6.975422920659185"><ele></ele><time>2013-9-9T18:34:35Z</time></trkpt>
<trkpt lat="46.343646151944995" lon="6.97539827786386"><ele></ele><time>2013-9-9T18:34:38Z</time></trkpt>
<trkpt lat="46.343666519969702" lon="6.975371288135648"><ele></ele><time>2013-9-9T18:34:41Z</time></trkpt>
<trkpt lat="46.343699125573039" lon="6.975366426631808"><ele></ele><time>2013-9-9T18:34:44Z</time></trkpt>
<trkpt lat="46.343722259625793" lon="6.975348237901926"><ele></ele><time>2013-9-9T18:34:47Z</time></trkpt>
<trkpt lat="46.343749165534973" lon="6.975342035293579"><ele></ele><time>2013-9-9T18:34:50Z</time></trkpt>
<trkpt lat="46.343779256567359" lon="6.975339688360691"><ele></ele><time>2013-9-9T18:34:53Z</time></trkpt>
<trkpt lat="46.343809347599745" lon="6.975340358912945"><ele></ele><time>2013-9-9T18:34:56Z</time></trkpt>
<trkpt lat="46.344026941806078" lon="6.97537237778306"><ele></ele><time>2013-9-9T18:34:59Z</time></trkpt>
<trkpt lat="46.344040269032121" lon="6.97536894120276"><ele></ele><time>2013-9-9T18:35:2Z</time></trkpt>
<trkpt lat="46.344072623178363" lon="6.975380592048168"><ele></ele><time>2013-9-9T18:35:5Z</time></trkpt>
<trkpt lat="46.344047645106912" lon="6.975391823798418"><ele></ele><time>2013-9-9T18:35:8Z</time></trkpt>
<trkpt lat="46.34403289295733" lon="6.97539484128356"><ele></ele><time>2013-9-9T18:35:11Z</time></trkpt>
<trkpt lat="46.344018056988716" lon="6.975397104397416"><ele></ele><time>2013-9-9T18:35:14Z</time></trkpt>
<trkpt lat="46.343998778611422" lon="6.975396936759353"><ele></ele><time>2013-9-9T18:35:17Z</time></trkpt>
<trkpt lat="46.34397966787219" lon="6.975398026406765"><ele></ele><time>2013-9-9T18:35:20Z</time></trkpt>
<trkpt lat="46.343912445008755" lon="6.9753841124475"><ele></ele><time>2013-9-9T18:35:23Z</time></trkpt>
<trkpt lat="46.34388679638505" lon="6.975375562906265"><ele></ele><time>2013-9-9T18:35:26Z</time></trkpt>
<trkpt lat="46.343858549371362" lon="6.975366091355681"><ele></ele><time>2013-9-9T18:35:29Z</time></trkpt>
<trkpt lat="46.343826865777373" lon="6.975358715280891"><ele></ele><time>2013-9-9T18:35:32Z</time></trkpt>
<trkpt lat="46.343794008716941" lon="6.975349662825465"><ele></ele><time>2013-9-9T18:35:35Z</time></trkpt>
<trkpt lat="46.34375779889524" lon="6.97534010745585"><ele></ele><time>2013-9-9T18:35:38Z</time></trkpt>
<trkpt lat="46.343722008168697" lon="6.975329797714949"><ele></ele><time>2013-9-9T18:35:41Z</time></trkpt>
<trkpt lat="46.343686385080218" lon="6.97531714104116"><ele></ele><time>2013-9-9T18:35:44Z</time></trkpt>
<trkpt lat="46.343646571040154" lon="6.975303394719958"><ele></ele><time>2013-9-9T18:35:47Z</time></trkpt>
<trkpt lat="46.343607427552342" lon="6.97529467754066"><ele></ele><time>2013-9-9T18:35:50Z</time></trkpt>
<trkpt lat="46.343566020950675" lon="6.975289983674884"><ele></ele><time>2013-9-9T18:35:53Z</time></trkpt>
<trkpt lat="46.343520758673549" lon="6.975286295637488"><ele></ele><time>2013-9-9T18:35:56Z</time></trkpt>
<trkpt lat="46.343473736196756" lon="6.975285541266203"><ele></ele><time>2013-9-9T18:35:59Z</time></trkpt>
<trkpt lat="46.343429060652852" lon="6.975292414426804"><ele></ele><time>2013-9-9T18:36:2Z</time></trkpt>
<trkpt lat="46.34337960742414" lon="6.975301802158356"><ele></ele><time>2013-9-9T18:36:5Z</time></trkpt>
<trkpt lat="46.343329902738333" lon="6.975313955917954"><ele></ele><time>2013-9-9T18:36:8Z</time></trkpt>
<trkpt lat="46.343278856948018" lon="6.975325774401426"><ele></ele><time>2013-9-9T18:36:11Z</time></trkpt>
<trkpt lat="46.343228733167052" lon="6.975339604541659"><ele></ele><time>2013-9-9T18:36:14Z</time></trkpt>
<trkpt lat="46.34318120777607" lon="6.975358966737986"><ele></ele><time>2013-9-9T18:36:17Z</time></trkpt>
<trkpt lat="46.343135191127658" lon="6.975379921495915"><ele></ele><time>2013-9-9T18:36:20Z</time></trkpt>
<trkpt lat="46.343084145337343" lon="6.975404983386397"><ele></ele><time>2013-9-9T18:36:23Z</time></trkpt>
<trkpt lat="46.343030836433172" lon="6.975438175722957"><ele></ele><time>2013-9-9T18:36:26Z</time></trkpt>
<trkpt lat="46.34297844953835" lon="6.975475139915943"><ele></ele><time>2013-9-9T18:36:29Z</time></trkpt>
<trkpt lat="46.342926397919655" lon="6.975514283403754"><ele></ele><time>2013-9-9T18:36:32Z</time></trkpt>
<trkpt lat="46.34287191554904" lon="6.975556276738644"><ele></ele><time>2013-9-9T18:36:35Z</time></trkpt>
<trkpt lat="46.342818019911647" lon="6.97559910826385"><ele></ele><time>2013-9-9T18:36:38Z</time></trkpt>
<trkpt lat="46.342764711007476" lon="6.975640682503581"><ele></ele><time>2013-9-9T18:36:41Z</time></trkpt>
<trkpt lat="46.342711485922337" lon="6.975684352219105"><ele></ele><time>2013-9-9T18:36:44Z</time></trkpt>
<trkpt lat="46.34265935048461" lon="6.975730368867517"><ele></ele><time>2013-9-9T18:36:47Z</time></trkpt>
<trkpt lat="46.342608137056231" lon="6.975778313353658"><ele></ele><time>2013-9-9T18:36:50Z</time></trkpt>
<trkpt lat="46.342558013275266" lon="6.975828604772687"><ele></ele><time>2013-9-9T18:36:53Z</time></trkpt>
<trkpt lat="46.342508057132363" lon="6.975879650563002"><ele></ele><time>2013-9-9T18:36:56Z</time></trkpt>
<trkpt lat="46.342461034655571" lon="6.975938072428107"><ele></ele><time>2013-9-9T18:36:59Z</time></trkpt>
<trkpt lat="46.342412838712335" lon="6.976000601425767"><ele></ele><time>2013-9-9T18:37:2Z</time></trkpt>
<trkpt lat="46.342366319149733" lon="6.976062627509236"><ele></ele><time>2013-9-9T18:37:5Z</time></trkpt>
<trkpt lat="46.342319129034877" lon="6.976124066859484"><ele></ele><time>2013-9-9T18:37:8Z</time></trkpt>
<trkpt lat="46.34227336384356" lon="6.976184500381351"><ele></ele><time>2013-9-9T18:37:11Z</time></trkpt>
<trkpt lat="46.3422298617661" lon="6.976246777921915"><ele></ele><time>2013-9-9T18:37:14Z</time></trkpt>
<trkpt lat="46.342189460992813" lon="6.976311318576336"><ele></ele><time>2013-9-9T18:37:17Z</time></trkpt>
<trkpt lat="46.342158950865269" lon="6.976379798725247"><ele></ele><time>2013-9-9T18:37:20Z</time></trkpt>
<trkpt lat="46.342133218422532" lon="6.976468479260802"><ele></ele><time>2013-9-9T18:37:23Z</time></trkpt>
<trkpt lat="46.342129027470946" lon="6.97659588418901"><ele></ele><time>2013-9-9T18:37:26Z</time></trkpt>
<trkpt lat="46.342119304463267" lon="6.976917162537575"><ele></ele><time>2013-9-9T18:37:29Z</time></trkpt>
<trkpt lat="46.34211553260684" lon="6.977009363472462"><ele></ele><time>2013-9-9T18:37:32Z</time></trkpt>
<trkpt lat="46.342110922560096" lon="6.977098044008017"><ele></ele><time>2013-9-9T18:37:35Z</time></trkpt>
<trkpt lat="46.342111174017191" lon="6.977187981829047"><ele></ele><time>2013-9-9T18:37:38Z</time></trkpt>
<trkpt lat="46.342105306684971" lon="6.977263167500496"><ele></ele><time>2013-9-9T18:37:41Z</time></trkpt>
<trkpt lat="46.342090973630548" lon="6.97732443921268"><ele></ele><time>2013-9-9T18:37:44Z</time></trkpt>
<trkpt lat="46.3420813344419" lon="6.977385627105832"><ele></ele><time>2013-9-9T18:37:47Z</time></trkpt>
<trkpt lat="46.342063313350081" lon="6.977437678724527"><ele></ele><time>2013-9-9T18:37:50Z</time></trkpt>
<trkpt lat="46.342043867334723" lon="6.977487131953239"><ele></ele><time>2013-9-9T18:37:53Z</time></trkpt>
<trkpt lat="46.342022828757763" lon="6.977536417543888"><ele></ele><time>2013-9-9T18:37:56Z</time></trkpt>
<trkpt lat="46.341997934505343" lon="6.977578662335873"><ele></ele><time>2013-9-9T18:37:59Z</time></trkpt>
<trkpt lat="46.341972118243575" lon="6.977619649842382"><ele></ele><time>2013-9-9T18:38:2Z</time></trkpt>
<trkpt lat="46.341944374144077" lon="6.977659044787288"><ele></ele><time>2013-9-9T18:38:5Z</time></trkpt>
<trkpt lat="46.341912606731057" lon="6.977691231295466"><ele></ele><time>2013-9-9T18:38:8Z</time></trkpt>
<trkpt lat="46.341883940622211" lon="6.977720148861408"><ele></ele><time>2013-9-9T18:38:11Z</time></trkpt>
<trkpt lat="46.341850999742746" lon="6.977746216580272"><ele></ele><time>2013-9-9T18:38:14Z</time></trkpt>
<trkpt lat="46.34181696921587" lon="6.977762477472425"><ele></ele><time>2013-9-9T18:38:17Z</time></trkpt>
<trkpt lat="46.341781765222549" lon="6.977770859375596"><ele></ele><time>2013-9-9T18:38:20Z</time></trkpt>
<trkpt lat="46.341744801029563" lon="6.977774547412992"><ele></ele><time>2013-9-9T18:38:23Z</time></trkpt>
<trkpt lat="46.341708255931735" lon="6.977772871032357"><ele></ele><time>2013-9-9T18:38:26Z</time></trkpt>
<trkpt lat="46.341669782996178" lon="6.977767925709486"><ele></ele><time>2013-9-9T18:38:29Z</time></trkpt>
<trkpt lat="46.341628544032574" lon="6.977760633453727"><ele></ele><time>2013-9-9T18:38:32Z</time></trkpt>
<trkpt lat="46.34158537723124" lon="6.977745713666081"><ele></ele><time>2013-9-9T18:38:35Z</time></trkpt>
<trkpt lat="46.341541539877653" lon="6.977722411975265"><ele></ele><time>2013-9-9T18:38:38Z</time></trkpt>
<trkpt lat="46.341497199609876" lon="6.977696176618338"><ele></ele><time>2013-9-9T18:38:41Z</time></trkpt>
<trkpt lat="46.34145000949502" lon="6.977679328992963"><ele></ele><time>2013-9-9T18:38:44Z</time></trkpt>
<trkpt lat="46.341397790238261" lon="6.977653680369258"><ele></ele><time>2013-9-9T18:38:47Z</time></trkpt>
<trkpt lat="46.341338446363807" lon="6.97762836702168"><ele></ele><time>2013-9-9T18:38:50Z</time></trkpt>
<trkpt lat="46.341277174651623" lon="6.977600874379277"><ele></ele><time>2013-9-9T18:38:53Z</time></trkpt>
<trkpt lat="46.341218249872327" lon="6.977571370080113"><ele></ele><time>2013-9-9T18:38:56Z</time></trkpt>
<trkpt lat="46.341154715046287" lon="6.977538764476776"><ele></ele><time>2013-9-9T18:38:59Z</time></trkpt>
<trkpt lat="46.341092521324754" lon="6.977506410330534"><ele></ele><time>2013-9-9T18:39:2Z</time></trkpt>
<trkpt lat="46.341032087802887" lon="6.977484868839383"><ele></ele><time>2013-9-9T18:39:5Z</time></trkpt>
<trkpt lat="46.340967966243625" lon="6.97746517136693"><ele></ele><time>2013-9-9T18:39:8Z</time></trkpt>
<trkpt lat="46.340901413932443" lon="6.977453520521522"><ele></ele><time>2013-9-9T18:39:11Z</time></trkpt>
<trkpt lat="46.34083142504096" lon="6.977447150275111"><ele></ele><time>2013-9-9T18:39:14Z</time></trkpt>
<trkpt lat="46.340760514140129" lon="6.977442540228367"><ele></ele><time>2013-9-9T18:39:17Z</time></trkpt>
<trkpt lat="46.340688765048981" lon="6.977442791685462"><ele></ele><time>2013-9-9T18:39:20Z</time></trkpt>
<trkpt lat="46.340621626004577" lon="6.977444970980287"><ele></ele><time>2013-9-9T18:39:23Z</time></trkpt>
<trkpt lat="46.340555157512426" lon="6.977445473894477"><ele></ele><time>2013-9-9T18:39:26Z</time></trkpt>
<trkpt lat="46.340468572452664" lon="6.977438433095813"><ele></ele><time>2013-9-9T18:39:29Z</time></trkpt>
<trkpt lat="46.340317530557513" lon="6.977411862462759"><ele></ele><time>2013-9-9T18:39:32Z</time></trkpt>
<trkpt lat="46.340200183913112" lon="6.977391829714179"><ele></ele><time>2013-9-9T18:39:35Z</time></trkpt>
<trkpt lat="46.340115778148174" lon="6.977380933240056"><ele></ele><time>2013-9-9T18:39:38Z</time></trkpt>
<trkpt lat="46.340033803135157" lon="6.977368611842394"><ele></ele><time>2013-9-9T18:39:41Z</time></trkpt>
<trkpt lat="46.339958785101771" lon="6.977357044816017"><ele></ele><time>2013-9-9T18:39:44Z</time></trkpt>
<trkpt lat="46.339882425963879" lon="6.977343382313848"><ele></ele><time>2013-9-9T18:39:47Z</time></trkpt>
<trkpt lat="46.339809251949191" lon="6.977325277402997"><ele></ele><time>2013-9-9T18:39:50Z</time></trkpt>
<trkpt lat="46.339736245572567" lon="6.977310525253415"><ele></ele><time>2013-9-9T18:39:53Z</time></trkpt>
<trkpt lat="46.339664412662387" lon="6.977290827780962"><ele></ele><time>2013-9-9T18:39:56Z</time></trkpt>
<trkpt lat="46.339593166485429" lon="6.977268867194653"><ele></ele><time>2013-9-9T18:39:59Z</time></trkpt>
<trkpt lat="46.339520495384932" lon="6.977241206914187"><ele></ele><time>2013-9-9T18:40:2Z</time></trkpt>
<trkpt lat="46.339442795142531" lon="6.977208936586976"><ele></ele><time>2013-9-9T18:40:5Z</time></trkpt>
<trkpt lat="46.33936258032918" lon="6.977174486964941"><ele></ele><time>2013-9-9T18:40:8Z</time></trkpt>
<trkpt lat="46.33927951566875" lon="6.977135175839067"><ele></ele><time>2013-9-9T18:40:11Z</time></trkpt>
<trkpt lat="46.339199133217335" lon="6.977086728438735"><ele></ele><time>2013-9-9T18:40:14Z</time></trkpt>
<trkpt lat="46.339125875383615" lon="6.977027887478471"><ele></ele><time>2013-9-9T18:40:17Z</time></trkpt>
<trkpt lat="46.339059574529529" lon="6.976967956870794"><ele></ele><time>2013-9-9T18:40:20Z</time></trkpt>
<trkpt lat="46.338997296988964" lon="6.976911211386323"><ele></ele><time>2013-9-9T18:40:23Z</time></trkpt>
<trkpt lat="46.338940467685461" lon="6.97686268016696"><ele></ele><time>2013-9-9T18:40:26Z</time></trkpt>
<trkpt lat="46.338884476572275" lon="6.976819597184658"><ele></ele><time>2013-9-9T18:40:29Z</time></trkpt>
<trkpt lat="46.338828820735216" lon="6.976781291887164"><ele></ele><time>2013-9-9T18:40:32Z</time></trkpt>
<trkpt lat="46.338772494345903" lon="6.976746506989002"><ele></ele><time>2013-9-9T18:40:35Z</time></trkpt>
<trkpt lat="46.338719855993986" lon="6.976716751232743"><ele></ele><time>2013-9-9T18:40:38Z</time></trkpt>
<trkpt lat="46.338669899851084" lon="6.976689510047436"><ele></ele><time>2013-9-9T18:40:41Z</time></trkpt>
<trkpt lat="46.338623045012355" lon="6.976656736806035"><ele></ele><time>2013-9-9T18:40:44Z</time></trkpt>
<trkpt lat="46.338576776906848" lon="6.976600661873817"><ele></ele><time>2013-9-9T18:40:47Z</time></trkpt>
<trkpt lat="46.338522545993328" lon="6.976552046835423"><ele></ele><time>2013-9-9T18:40:50Z</time></trkpt>
<trkpt lat="46.338472841307521" lon="6.976500749588013"><ele></ele><time>2013-9-9T18:40:53Z</time></trkpt>
<trkpt lat="46.338428165763617" lon="6.976449536159635"><ele></ele><time>2013-9-9T18:40:56Z</time></trkpt>
<trkpt lat="46.338389944285154" lon="6.976399999111891"><ele></ele><time>2013-9-9T18:40:59Z</time></trkpt>
<trkpt lat="46.338355662301183" lon="6.976358341053128"><ele></ele><time>2013-9-9T18:41:2Z</time></trkpt>
<trkpt lat="46.338318362832069" lon="6.976321544498205"><ele></ele><time>2013-9-9T18:41:5Z</time></trkpt>
<trkpt lat="46.338282153010368" lon="6.976286675781012"><ele></ele><time>2013-9-9T18:41:8Z</time></trkpt>
<trkpt lat="46.338245356455445" lon="6.976253651082516"><ele></ele><time>2013-9-9T18:41:11Z</time></trkpt>
<trkpt lat="46.338208056986332" lon="6.976223224774003"><ele></ele><time>2013-9-9T18:41:14Z</time></trkpt>
<trkpt lat="46.338172350078821" lon="6.976197911426425"><ele></ele><time>2013-9-9T18:41:17Z</time></trkpt>
<trkpt lat="46.338136894628406" lon="6.97617419064045"><ele></ele><time>2013-9-9T18:41:20Z</time></trkpt>
<trkpt lat="46.33810143917799" lon="6.976151810958982"><ele></ele><time>2013-9-9T18:41:23Z</time></trkpt>
<trkpt lat="46.338066654279828" lon="6.976131023839116"><ele></ele><time>2013-9-9T18:41:26Z</time></trkpt>
<trkpt lat="46.338033881038427" lon="6.976109901443124"><ele></ele><time>2013-9-9T18:41:29Z</time></trkpt>
<trkpt lat="46.338003119453788" lon="6.976086851209402"><ele></ele><time>2013-9-9T18:41:32Z</time></trkpt>
<trkpt lat="46.33797537535429" lon="6.9760627951473"><ele></ele><time>2013-9-9T18:41:35Z</time></trkpt>
<trkpt lat="46.337950145825744" lon="6.976036475971341"><ele></ele><time>2013-9-9T18:41:38Z</time></trkpt>
<trkpt lat="46.337932040914893" lon="6.975987190380693"><ele></ele><time>2013-9-9T18:41:41Z</time></trkpt>
<trkpt lat="46.337896082550287" lon="6.975743612274528"><ele></ele><time>2013-9-9T18:41:44Z</time></trkpt>
<trkpt lat="46.337894573807716" lon="6.975709749385715"><ele></ele><time>2013-9-9T18:41:47Z</time></trkpt>
<trkpt lat="46.337894406169653" lon="6.975677227601409"><ele></ele><time>2013-9-9T18:41:50Z</time></trkpt>
<trkpt lat="46.337895076721907" lon="6.975646633654833"><ele></ele><time>2013-9-9T18:41:53Z</time></trkpt>
<trkpt lat="46.337898597121239" lon="6.975617296993733"><ele></ele><time>2013-9-9T18:41:56Z</time></trkpt>
<trkpt lat="46.337913181632757" lon="6.975514786317945"><ele></ele><time>2013-9-9T18:41:59Z</time></trkpt>
<trkpt lat="46.337982583791018" lon="6.975394003093243"><ele></ele><time>2013-9-9T18:42:2Z</time></trkpt>
<trkpt lat="46.338084172457457" lon="6.975389393046498"><ele></ele><time>2013-9-9T18:42:5Z</time></trkpt>
<trkpt lat="46.338173691183329" lon="6.975455190986395"><ele></ele><time>2013-9-9T18:42:8Z</time></trkpt>
<trkpt lat="46.338223144412041" lon="6.975537417456508"><ele></ele><time>2013-9-9T18:42:11Z</time></trkpt>
<trkpt lat="46.338223144412041" lon="6.975537417456508"><ele></ele><time>2013-9-9T18:42:14Z</time></trkpt>
<trkpt lat="46.338459262624383" lon="6.975910495966673"><ele></ele><time>2013-9-9T18:42:17Z</time></trkpt>
<trkpt lat="46.338684735819697" lon="6.97613756172359"><ele></ele><time>2013-9-9T18:42:20Z</time></trkpt>
<trkpt lat="46.338710132986307" lon="6.976147620007396"><ele></ele><time>2013-9-9T18:42:23Z</time></trkpt>
<trkpt lat="46.338748186826706" lon="6.976160947233439"><ele></ele><time>2013-9-9T18:42:26Z</time></trkpt>
<trkpt lat="46.338790180161595" lon="6.97617569938302"><ele></ele><time>2013-9-9T18:42:29Z</time></trkpt>
<trkpt lat="46.338820438832045" lon="6.976176621392369"><ele></ele><time>2013-9-9T18:42:32Z</time></trkpt>
<trkpt lat="46.338941054418683" lon="6.97617712430656"><ele></ele><time>2013-9-9T18:42:35Z</time></trkpt>
<trkpt lat="46.339061167091131" lon="6.976136555895209"><ele></ele><time>2013-9-9T18:42:38Z</time></trkpt>
<trkpt lat="46.339097712188959" lon="6.976106883957982"><ele></ele><time>2013-9-9T18:42:41Z</time></trkpt>
<trkpt lat="46.339151859283447" lon="6.976074110716581"><ele></ele><time>2013-9-9T18:42:44Z</time></trkpt>
<trkpt lat="46.339190499857068" lon="6.9760403316468"><ele></ele><time>2013-9-9T18:42:47Z</time></trkpt>
<trkpt lat="46.339224949479103" lon="6.976004876196384"><ele></ele><time>2013-9-9T18:42:50Z</time></trkpt>
<trkpt lat="46.33925705216825" lon="6.975965145975351"><ele></ele><time>2013-9-9T18:42:53Z</time></trkpt>
<trkpt lat="46.339288568124175" lon="6.975923320278525"><ele></ele><time>2013-9-9T18:42:56Z</time></trkpt>
<trkpt lat="46.339318575337529" lon="6.97586732916534"><ele></ele><time>2013-9-9T18:42:59Z</time></trkpt>
<trkpt lat="46.339392587542534" lon="6.975803459063172"><ele></ele><time>2013-9-9T18:43:2Z</time></trkpt>
<trkpt lat="46.339431311935186" lon="6.97574713267386"><ele></ele><time>2013-9-9T18:43:5Z</time></trkpt>
<trkpt lat="46.339470539242029" lon="6.975697344169021"><ele></ele><time>2013-9-9T18:43:8Z</time></trkpt>
<trkpt lat="46.339555028825998" lon="6.9756293669343"><ele></ele><time>2013-9-9T18:43:11Z</time></trkpt>
<trkpt lat="46.339628286659718" lon="6.975561389699578"><ele></ele><time>2013-9-9T18:43:14Z</time></trkpt>
<trkpt lat="46.339691067114472" lon="6.975500704720616"><ele></ele><time>2013-9-9T18:43:17Z</time></trkpt>
<trkpt lat="46.339732138440013" lon="6.975451335310936"><ele></ele><time>2013-9-9T18:43:20Z</time></trkpt>
<trkpt lat="46.339774969965219" lon="6.975402552634478"><ele></ele><time>2013-9-9T18:43:23Z</time></trkpt>
<trkpt lat="46.339817717671394" lon="6.975356703624129"><ele></ele><time>2013-9-9T18:43:26Z</time></trkpt>
<trkpt lat="46.339858369901776" lon="6.975316051393747"><ele></ele><time>2013-9-9T18:43:29Z</time></trkpt>
<trkpt lat="46.339898686856031" lon="6.975278668105602"><ele></ele><time>2013-9-9T18:43:32Z</time></trkpt>
<trkpt lat="46.33993967436254" lon="6.975243631750345"><ele></ele><time>2013-9-9T18:43:35Z</time></trkpt>
<trkpt lat="46.339983260259032" lon="6.975210187956691"><ele></ele><time>2013-9-9T18:43:38Z</time></trkpt>
<trkpt lat="46.340029025450349" lon="6.97517934255302"><ele></ele><time>2013-9-9T18:43:41Z</time></trkpt>
<trkpt lat="46.340073700994253" lon="6.97514858096838"><ele></ele><time>2013-9-9T18:43:44Z</time></trkpt>
<trkpt lat="46.34011753834784" lon="6.97511387988925"><ele></ele><time>2013-9-9T18:43:47Z</time></trkpt>
<trkpt lat="46.34017076343298" lon="6.975089572370052"><ele></ele><time>2013-9-9T18:43:50Z</time></trkpt>
<trkpt lat="46.34022306650877" lon="6.975062750279903"><ele></ele><time>2013-9-9T18:43:53Z</time></trkpt>
<trkpt lat="46.340279057621956" lon="6.975030060857534"><ele></ele><time>2013-9-9T18:43:56Z</time></trkpt>
<trkpt lat="46.340337982401252" lon="6.974995359778404"><ele></ele><time>2013-9-9T18:43:59Z</time></trkpt>
<trkpt lat="46.340399924665689" lon="6.974956886842847"><ele></ele><time>2013-9-9T18:44:2Z</time></trkpt>
<trkpt lat="46.340460777282715" lon="6.974919587373734"><ele></ele><time>2013-9-9T18:44:5Z</time></trkpt>
<trkpt lat="46.34051869623363" lon="6.974883880466223"><ele></ele><time>2013-9-9T18:44:8Z</time></trkpt>
<trkpt lat="46.340578040108085" lon="6.974844820797443"><ele></ele><time>2013-9-9T18:44:11Z</time></trkpt>
<trkpt lat="46.340637383982539" lon="6.974805509671569"><ele></ele><time>2013-9-9T18:44:14Z</time></trkpt>
<trkpt lat="46.340695973485708" lon="6.974765108898282"><ele></ele><time>2013-9-9T18:44:17Z</time></trkpt>
<trkpt lat="46.340754143893719" lon="6.974723786115646"><ele></ele><time>2013-9-9T18:44:20Z</time></trkpt>
<trkpt lat="46.3408172596246" lon="6.974680703133345"><ele></ele><time>2013-9-9T18:44:23Z</time></trkpt>
<trkpt lat="46.340881800279021" lon="6.974635692313314"><ele></ele><time>2013-9-9T18:44:26Z</time></trkpt>
<trkpt lat="46.340945418924093" lon="6.974590346217156"><ele></ele><time>2013-9-9T18:44:29Z</time></trkpt>
<trkpt lat="46.341007612645626" lon="6.974543575197458"><ele></ele><time>2013-9-9T18:44:32Z</time></trkpt>
<trkpt lat="46.341069051995873" lon="6.974494624882937"><ele></ele><time>2013-9-9T18:44:35Z</time></trkpt>
<trkpt lat="46.341127809137106" lon="6.974447518587112"><ele></ele><time>2013-9-9T18:44:38Z</time></trkpt>
<trkpt lat="46.341188242658973" lon="6.97439513169229"><ele></ele><time>2013-9-9T18:44:41Z</time></trkpt>
<trkpt lat="46.341302990913391" lon="6.974302679300308"><ele></ele><time>2013-9-9T18:44:44Z</time></trkpt>
<trkpt lat="46.341356383636594" lon="6.974257919937372"><ele></ele><time>2013-9-9T18:44:47Z</time></trkpt>
<trkpt lat="46.341407094150782" lon="6.974213914945722"><ele></ele><time>2013-9-9T18:44:50Z</time></trkpt>
<trkpt lat="46.341456966474652" lon="6.974168568849564"><ele></ele><time>2013-9-9T18:44:53Z</time></trkpt>
<trkpt lat="46.341506335884333" lon="6.974121630191803"><ele></ele><time>2013-9-9T18:44:56Z</time></trkpt>
<trkpt lat="46.341550759971142" lon="6.974062286317349"><ele></ele><time>2013-9-9T18:44:59Z</time></trkpt>
<trkpt lat="46.341590993106365" lon="6.974001098424196"><ele></ele><time>2013-9-9T18:45:2Z</time></trkpt>
<trkpt lat="46.341629046946764" lon="6.9739387370646"><ele></ele><time>2013-9-9T18:45:5Z</time></trkpt>
<trkpt lat="46.341664837673306" lon="6.973881321027875"><ele></ele><time>2013-9-9T18:45:8Z</time></trkpt>
<trkpt lat="46.341699790209532" lon="6.973826587200165"><ele></ele><time>2013-9-9T18:45:11Z</time></trkpt>
<trkpt lat="46.341737592592835" lon="6.973772356286645"><ele></ele><time>2013-9-9T18:45:14Z</time></trkpt>
<trkpt lat="46.34177497588098" lon="6.973718795925379"><ele></ele><time>2013-9-9T18:45:17Z</time></trkpt>
<trkpt lat="46.341805318370461" lon="6.97365827858448"><ele></ele><time>2013-9-9T18:45:20Z</time></trkpt>
<trkpt lat="46.341834152117372" lon="6.973590888082981"><ele></ele><time>2013-9-9T18:45:23Z</time></trkpt>
<trkpt lat="46.341861812397838" lon="6.973518636077642"><ele></ele><time>2013-9-9T18:45:26Z</time></trkpt>
<trkpt lat="46.341890729963779" lon="6.973438505083323"><ele></ele><time>2013-9-9T18:45:29Z</time></trkpt>
<trkpt lat="46.3419224973768" lon="6.973354602232575"><ele></ele><time>2013-9-9T18:45:32Z</time></trkpt>
<trkpt lat="46.34194890037179" lon="6.97326734662056"><ele></ele><time>2013-9-9T18:45:35Z</time></trkpt>
<trkpt lat="46.341975135728717" lon="6.973193166777492"><ele></ele><time>2013-9-9T18:45:38Z</time></trkpt>
<trkpt lat="46.342001622542739" lon="6.973102642223239"><ele></ele><time>2013-9-9T18:45:41Z</time></trkpt>
<trkpt lat="46.342033976688981" lon="6.973014129325748"><ele></ele><time>2013-9-9T18:45:44Z</time></trkpt>
<trkpt lat="46.342069767415524" lon="6.97292385622859"><ele></ele><time>2013-9-9T18:45:47Z</time></trkpt>
<trkpt lat="46.342107150703669" lon="6.972836516797543"><ele></ele><time>2013-9-9T18:45:50Z</time></trkpt>
<trkpt lat="46.342129278928041" lon="6.972730653360486"><ele></ele><time>2013-9-9T18:45:53Z</time></trkpt>
<trkpt lat="46.342147132381797" lon="6.972617665305734"><ele></ele><time>2013-9-9T18:45:56Z</time></trkpt>
<trkpt lat="46.342161213979125" lon="6.972506102174521"><ele></ele><time>2013-9-9T18:45:59Z</time></trkpt>
<trkpt lat="46.34217613376677" lon="6.972380625084043"><ele></ele><time>2013-9-9T18:46:2Z</time></trkpt>
<trkpt lat="46.34220102801919" lon="6.972252130508423"><ele></ele><time>2013-9-9T18:46:5Z</time></trkpt>
<trkpt lat="46.342222904786468" lon="6.972120953723788"><ele></ele><time>2013-9-9T18:46:8Z</time></trkpt>
<trkpt lat="46.342261712998152" lon="6.971894139423966"><ele></ele><time>2013-9-9T18:46:11Z</time></trkpt>
<trkpt lat="46.342268921434879" lon="6.97177997790277"><ele></ele><time>2013-9-9T18:46:14Z</time></trkpt>
<trkpt lat="46.342274034395814" lon="6.97166464291513"><ele></ele><time>2013-9-9T18:46:17Z</time></trkpt>
<trkpt lat="46.342281913384795" lon="6.971566742286086"><ele></ele><time>2013-9-9T18:46:20Z</time></trkpt>
<trkpt lat="46.342293648049235" lon="6.971487365663052"><ele></ele><time>2013-9-9T18:46:23Z</time></trkpt>
<trkpt lat="46.342309322208166" lon="6.971417712047696"><ele></ele><time>2013-9-9T18:46:26Z</time></trkpt>
<trkpt lat="46.342332204803824" lon="6.971347136422992"><ele></ele><time>2013-9-9T18:46:29Z</time></trkpt>
<trkpt lat="46.342357937246561" lon="6.971277063712478"><ele></ele><time>2013-9-9T18:46:32Z</time></trkpt>
<trkpt lat="46.342385932803154" lon="6.97120925411582"><ele></ele><time>2013-9-9T18:46:35Z</time></trkpt>
<trkpt lat="46.342416778206825" lon="6.971141444519162"><ele></ele><time>2013-9-9T18:46:38Z</time></trkpt>
<trkpt lat="46.342447875067592" lon="6.971080088987947"><ele></ele><time>2013-9-9T18:46:41Z</time></trkpt>
<trkpt lat="46.342480396851897" lon="6.971015129238367"><ele></ele><time>2013-9-9T18:46:44Z</time></trkpt>
<trkpt lat="46.34251375682652" lon="6.97094488888979"><ele></ele><time>2013-9-9T18:46:47Z</time></trkpt>
<trkpt lat="46.34254745207727" lon="6.97087305597961"><ele></ele><time>2013-9-9T18:46:50Z</time></trkpt>
<trkpt lat="46.342578213661909" lon="6.970801893621683"><ele></ele><time>2013-9-9T18:46:53Z</time></trkpt>
<trkpt lat="46.342605873942375" lon="6.97072695940733"><ele></ele><time>2013-9-9T18:46:56Z</time></trkpt>
<trkpt lat="46.342632444575429" lon="6.970648923888803"><ele></ele><time>2013-9-9T18:46:59Z</time></trkpt>
<trkpt lat="46.342655662447214" lon="6.970571894198656"><ele></ele><time>2013-9-9T18:47:2Z</time></trkpt>
<trkpt lat="46.34267452172935" lon="6.970483548939228"><ele></ele><time>2013-9-9T18:47:5Z</time></trkpt>
<trkpt lat="46.342689106240869" lon="6.97038883343339"><ele></ele><time>2013-9-9T18:47:8Z</time></trkpt>
<trkpt lat="46.342702433466911" lon="6.970298392698169"><ele></ele><time>2013-9-9T18:47:11Z</time></trkpt>
<trkpt lat="46.34271115064621" lon="6.970200072973967"><ele></ele><time>2013-9-9T18:47:14Z</time></trkpt>
<trkpt lat="46.342717772349715" lon="6.970090856775641"><ele></ele><time>2013-9-9T18:47:17Z</time></trkpt>
<trkpt lat="46.342726573348045" lon="6.9699686486274"><ele></ele><time>2013-9-9T18:47:20Z</time></trkpt>
<trkpt lat="46.342739230021834" lon="6.969857756048441"><ele></ele><time>2013-9-9T18:47:23Z</time></trkpt>
<trkpt lat="46.342756748199463" lon="6.969766225665808"><ele></ele><time>2013-9-9T18:47:26Z</time></trkpt>
<trkpt lat="46.34277812205255" lon="6.969665223732591"><ele></ele><time>2013-9-9T18:47:29Z</time></trkpt>
<trkpt lat="46.342798238620162" lon="6.969540417194367"><ele></ele><time>2013-9-9T18:47:32Z</time></trkpt>
<trkpt lat="46.342818355187774" lon="6.969423657283187"><ele></ele><time>2013-9-9T18:47:35Z</time></trkpt>
<trkpt lat="46.342840483412147" lon="6.969352494925261"><ele></ele><time>2013-9-9T18:47:38Z</time></trkpt>
<trkpt lat="46.342861773446202" lon="6.969284517690539"><ele></ele><time>2013-9-9T18:47:41Z</time></trkpt>
<trkpt lat="46.342905359342694" lon="6.969153257086873"><ele></ele><time>2013-9-9T18:47:44Z</time></trkpt>
<trkpt lat="46.342966044321656" lon="6.968965586274862"><ele></ele><time>2013-9-9T18:47:47Z</time></trkpt>
<trkpt lat="46.343007115647197" lon="6.968881851062179"><ele></ele><time>2013-9-9T18:47:50Z</time></trkpt>
<trkpt lat="46.343023711815476" lon="6.968854693695903"><ele></ele><time>2013-9-9T18:47:53Z</time></trkpt>
<trkpt lat="46.343042906373739" lon="6.968828877434135"><ele></ele><time>2013-9-9T18:47:56Z</time></trkpt>
<trkpt lat="46.343063274398446" lon="6.968806497752667"><ele></ele><time>2013-9-9T18:47:59Z</time></trkpt>
<trkpt lat="46.343082888051867" lon="6.968786800280213"><ele></ele><time>2013-9-9T18:48:2Z</time></trkpt>
<trkpt lat="46.343100070953369" lon="6.968767186626792"><ele></ele><time>2013-9-9T18:48:5Z</time></trkpt>
<trkpt lat="46.343117253854871" lon="6.968748159706593"><ele></ele><time>2013-9-9T18:48:8Z</time></trkpt>
<trkpt lat="46.343134017661214" lon="6.968732317909598"><ele></ele><time>2013-9-9T18:48:11Z</time></trkpt>
<trkpt lat="46.343151954934001" lon="6.968717146664858"><ele></ele><time>2013-9-9T18:48:14Z</time></trkpt>
<trkpt lat="46.343170562759042" lon="6.968703316524625"><ele></ele><time>2013-9-9T18:48:17Z</time></trkpt>
<trkpt lat="46.343188667669892" lon="6.96868697181344"><ele></ele><time>2013-9-9T18:48:20Z</time></trkpt>
<trkpt lat="46.343208784237504" lon="6.968668950721622"><ele></ele><time>2013-9-9T18:48:23Z</time></trkpt>
<trkpt lat="46.343238288536668" lon="6.968633914366365"><ele></ele><time>2013-9-9T18:48:26Z</time></trkpt>
<trkpt lat="46.343273492529988" lon="6.96858387440443"><ele></ele><time>2013-9-9T18:48:29Z</time></trkpt>
<trkpt lat="46.343312300741673" lon="6.968530900776386"><ele></ele><time>2013-9-9T18:48:32Z</time></trkpt>
<trkpt lat="46.343350606039166" lon="6.968484129756689"><ele></ele><time>2013-9-9T18:48:35Z</time></trkpt>
<trkpt lat="46.34339083917439" lon="6.968439118936658"><ele></ele><time>2013-9-9T18:48:38Z</time></trkpt>
<trkpt lat="46.34343434125185" lon="6.968393940478563"><ele></ele><time>2013-9-9T18:48:41Z</time></trkpt>
<trkpt lat="46.343479519709945" lon="6.968345660716295"><ele></ele><time>2013-9-9T18:48:44Z</time></trkpt>
<trkpt lat="46.343523189425468" lon="6.968299560248852"><ele></ele><time>2013-9-9T18:48:47Z</time></trkpt>
<trkpt lat="46.3435716368258" lon="6.968259997665882"><ele></ele><time>2013-9-9T18:48:50Z</time></trkpt>
<trkpt lat="46.343622431159019" lon="6.968220099806786"><ele></ele><time>2013-9-9T18:48:53Z</time></trkpt>
<trkpt lat="46.343675488606095" lon="6.968183554708958"><ele></ele><time>2013-9-9T18:48:56Z</time></trkpt>
<trkpt lat="46.343732234090567" lon="6.968147261068225"><ele></ele><time>2013-9-9T18:48:59Z</time></trkpt>
<trkpt lat="46.343785626813769" lon="6.968111470341682"><ele></ele><time>2013-9-9T18:49:2Z</time></trkpt>
<trkpt lat="46.343838516622782" lon="6.968067968264222"><ele></ele><time>2013-9-9T18:49:5Z</time></trkpt>
<trkpt lat="46.343894256278872" lon="6.968044582754374"><ele></ele><time>2013-9-9T18:49:8Z</time></trkpt>
<trkpt lat="46.343948487192392" lon="6.968031674623489"><ele></ele><time>2013-9-9T18:49:11Z</time></trkpt>
<trkpt lat="46.344002299010754" lon="6.96802337653935"><ele></ele><time>2013-9-9T18:49:14Z</time></trkpt>
<trkpt lat="46.344121070578694" lon="6.968031004071236"><ele></ele><time>2013-9-9T18:49:17Z</time></trkpt>
<trkpt lat="46.344367247074842" lon="6.9680605083704"><ele></ele><time>2013-9-9T18:49:20Z</time></trkpt>
<trkpt lat="46.344543602317572" lon="6.968052377924323"><ele></ele><time>2013-9-9T18:49:23Z</time></trkpt>
<trkpt lat="46.344576207920909" lon="6.968060256913304"><ele></ele><time>2013-9-9T18:49:26Z</time></trkpt>
<trkpt lat="46.344563635066152" lon="6.968057071790099"><ele></ele><time>2013-9-9T18:49:29Z</time></trkpt>
<trkpt lat="46.344549050554633" lon="6.968052964657545"><ele></ele><time>2013-9-9T18:49:32Z</time></trkpt>
<trkpt lat="46.344531867653131" lon="6.968047432601452"><ele></ele><time>2013-9-9T18:49:35Z</time></trkpt>
<trkpt lat="46.344514014199376" lon="6.968038212507963"><ele></ele><time>2013-9-9T18:49:38Z</time></trkpt>
<trkpt lat="46.344494484364986" lon="6.968025555834174"><ele></ele><time>2013-9-9T18:49:41Z</time></trkpt>
<trkpt lat="46.344471098855138" lon="6.968009797856212"><ele></ele><time>2013-9-9T18:49:44Z</time></trkpt>
<trkpt lat="46.344449557363987" lon="6.967994626611471"><ele></ele><time>2013-9-9T18:49:47Z</time></trkpt>
<trkpt lat="46.344425920397043" lon="6.96797844953835"><ele></ele><time>2013-9-9T18:49:50Z</time></trkpt>
<trkpt lat="46.344399433583021" lon="6.967962859198451"><ele></ele><time>2013-9-9T18:49:53Z</time></trkpt>
<trkpt lat="46.344374120235443" lon="6.967947604134679"><ele></ele><time>2013-9-9T18:49:56Z</time></trkpt>
<trkpt lat="46.344348303973675" lon="6.96793301962316"><ele></ele><time>2013-9-9T18:49:59Z</time></trkpt>
<trkpt lat="46.344324331730604" lon="6.967919692397118"><ele></ele><time>2013-9-9T18:50:2Z</time></trkpt>
<trkpt lat="46.344294575974345" lon="6.967905946075916"><ele></ele><time>2013-9-9T18:50:5Z</time></trkpt>
<trkpt lat="46.344260545447469" lon="6.967892199754715"><ele></ele><time>2013-9-9T18:50:8Z</time></trkpt>
<trkpt lat="46.344221821054816" lon="6.967880632728338"><ele></ele><time>2013-9-9T18:50:11Z</time></trkpt>
<trkpt lat="46.344182090833783" lon="6.967871244996786"><ele></ele><time>2013-9-9T18:50:14Z</time></trkpt>
<trkpt lat="46.344142779707909" lon="6.967864288017154"><ele></ele><time>2013-9-9T18:50:17Z</time></trkpt>
<trkpt lat="46.344104139134288" lon="6.967857414856553"><ele></ele><time>2013-9-9T18:50:20Z</time></trkpt>
<trkpt lat="46.344062983989716" lon="6.967851044610143"><ele></ele><time>2013-9-9T18:50:23Z</time></trkpt>
<trkpt lat="46.344022247940302" lon="6.96784601546824"><ele></ele><time>2013-9-9T18:50:26Z</time></trkpt>
<trkpt lat="46.343980925157666" lon="6.967842327430844"><ele></ele><time>2013-9-9T18:50:29Z</time></trkpt>
<trkpt lat="46.343940608203411" lon="6.967843668535352"><ele></ele><time>2013-9-9T18:50:32Z</time></trkpt>
<trkpt lat="46.343900123611093" lon="6.96784651838243"><ele></ele><time>2013-9-9T18:50:35Z</time></trkpt>
<trkpt lat="46.343863410875201" lon="6.967850122600794"><ele></ele><time>2013-9-9T18:50:38Z</time></trkpt>
<trkpt lat="46.343826446682215" lon="6.967853978276253"><ele></ele><time>2013-9-9T18:50:41Z</time></trkpt>
<trkpt lat="46.343793170526624" lon="6.967860599979758"><ele></ele><time>2013-9-9T18:50:44Z</time></trkpt>
<trkpt lat="46.343758134171367" lon="6.967866718769074"><ele></ele><time>2013-9-9T18:50:47Z</time></trkpt>
<trkpt lat="46.343723013997078" lon="6.967872167006135"><ele></ele><time>2013-9-9T18:50:50Z</time></trkpt>
<trkpt lat="46.343681188300252" lon="6.967878621071577"><ele></ele><time>2013-9-9T18:50:53Z</time></trkpt>
<trkpt lat="46.343642044812441" lon="6.967883985489607"><ele></ele><time>2013-9-9T18:50:56Z</time></trkpt>
<trkpt lat="46.343602398410439" lon="6.967891026288271"><ele></ele><time>2013-9-9T18:50:59Z</time></trkpt>
<trkpt lat="46.343560824170709" lon="6.967898737639189"><ele></ele><time>2013-9-9T18:51:2Z</time></trkpt>
<trkpt lat="46.343521345406771" lon="6.967905107885599"><ele></ele><time>2013-9-9T18:51:5Z</time></trkpt>
<trkpt lat="46.343477005138993" lon="6.967902006581426"><ele></ele><time>2013-9-9T18:51:8Z</time></trkpt>
<trkpt lat="46.343345995992422" lon="6.967903599143028"><ele></ele><time>2013-9-9T18:51:11Z</time></trkpt>
<trkpt lat="46.34325354360044" lon="6.967907287180424"><ele></ele><time>2013-9-9T18:51:14Z</time></trkpt>
<trkpt lat="46.343188667669892" lon="6.967917764559388"><ele></ele><time>2013-9-9T18:51:17Z</time></trkpt>
<trkpt lat="46.343140387907624" lon="6.967927236109972"><ele></ele><time>2013-9-9T18:51:20Z</time></trkpt>
<trkpt lat="46.343098310753703" lon="6.967931007966399"><ele></ele><time>2013-9-9T18:51:23Z</time></trkpt>
<trkpt lat="46.343056652694941" lon="6.967929666861892"><ele></ele><time>2013-9-9T18:51:26Z</time></trkpt>
<trkpt lat="46.343015916645527" lon="6.967927236109972"><ele></ele><time>2013-9-9T18:51:29Z</time></trkpt>
<trkpt lat="46.342977778986096" lon="6.967924805358052"><ele></ele><time>2013-9-9T18:51:32Z</time></trkpt>
<trkpt lat="46.34294425137341" lon="6.967910807579756"><ele></ele><time>2013-9-9T18:51:35Z</time></trkpt>
<trkpt lat="46.342910556122661" lon="6.967897228896618"><ele></ele><time>2013-9-9T18:51:38Z</time></trkpt>
<trkpt lat="46.342882476747036" lon="6.967885494232178"><ele></ele><time>2013-9-9T18:51:41Z</time></trkpt>
<trkpt lat="46.342855570837855" lon="6.967873591929674"><ele></ele><time>2013-9-9T18:51:44Z</time></trkpt>
<trkpt lat="46.342821540310979" lon="6.967858588322997"><ele></ele><time>2013-9-9T18:51:47Z</time></trkpt>
<trkpt lat="46.342782648280263" lon="6.96784551255405"><ele></ele><time>2013-9-9T18:51:50Z</time></trkpt>
<trkpt lat="46.342744175344706" lon="6.967836460098624"><ele></ele><time>2013-9-9T18:51:53Z</time></trkpt>
<trkpt lat="46.342703523114324" lon="6.96782698854804"><ele></ele><time>2013-9-9T18:51:56Z</time></trkpt>
<trkpt lat="46.342663122341037" lon="6.96781475096941"><ele></ele><time>2013-9-9T18:51:59Z</time></trkpt>
<trkpt lat="46.342623559758067" lon="6.967810979112983"><ele></ele><time>2013-9-9T18:52:2Z</time></trkpt>
<trkpt lat="46.342587266117334" lon="6.967801339924336"><ele></ele><time>2013-9-9T18:52:5Z</time></trkpt>
<trkpt lat="46.342552229762077" lon="6.967797316610813"><ele></ele><time>2013-9-9T18:52:8Z</time></trkpt>
<trkpt lat="46.342517109587789" lon="6.967795975506306"><ele></ele><time>2013-9-9T18:52:11Z</time></trkpt>
<trkpt lat="46.342480564489961" lon="6.967796981334686"><ele></ele><time>2013-9-9T18:52:14Z</time></trkpt>
<trkpt lat="46.342442678287625" lon="6.967795304954052"><ele></ele><time>2013-9-9T18:52:17Z</time></trkpt>
<trkpt lat="46.342403618618846" lon="6.967793628573418"><ele></ele><time>2013-9-9T18:52:20Z</time></trkpt>
<trkpt lat="46.342362966388464" lon="6.967799495905638"><ele></ele><time>2013-9-9T18:52:23Z</time></trkpt>
<trkpt lat="46.342322733253241" lon="6.967803100124002"><ele></ele><time>2013-9-9T18:52:26Z</time></trkpt>
<trkpt lat="46.342284679412842" lon="6.967810895293951"><ele></ele><time>2013-9-9T18:52:29Z</time></trkpt>
<trkpt lat="46.342251822352409" lon="6.967816930264235"><ele></ele><time>2013-9-9T18:52:32Z</time></trkpt>
<trkpt lat="46.342223575338721" lon="6.967822965234518"><ele></ele><time>2013-9-9T18:52:35Z</time></trkpt>
<trkpt lat="46.342193316668272" lon="6.967831682413817"><ele></ele><time>2013-9-9T18:52:38Z</time></trkpt>
<trkpt lat="46.34216632694006" lon="6.967838052660227"><ele></ele><time>2013-9-9T18:52:41Z</time></trkpt>
<trkpt lat="46.342135481536388" lon="6.967840315774083"><ele></ele><time>2013-9-9T18:52:44Z</time></trkpt>
<trkpt lat="46.342110252007842" lon="6.96784601546824"><ele></ele><time>2013-9-9T18:52:47Z</time></trkpt>
<trkpt lat="46.342085525393486" lon="6.967854397371411"><ele></ele><time>2013-9-9T18:52:50Z</time></trkpt>
<trkpt lat="46.342061385512352" lon="6.967861438170075"><ele></ele><time>2013-9-9T18:52:53Z</time></trkpt>
<trkpt lat="46.342038419097662" lon="6.967870574444532"><ele></ele><time>2013-9-9T18:52:56Z</time></trkpt>
<trkpt lat="46.342020900920033" lon="6.967880632728338"><ele></ele><time>2013-9-9T18:52:59Z</time></trkpt>
<trkpt lat="46.3420036341995" lon="6.967889349907637"><ele></ele><time>2013-9-9T18:53:2Z</time></trkpt>
<trkpt lat="46.341987960040569" lon="6.967897145077586"><ele></ele><time>2013-9-9T18:53:5Z</time></trkpt>
<trkpt lat="46.341967256739736" lon="6.967900916934013"><ele></ele><time>2013-9-9T18:53:8Z</time></trkpt>
<trkpt lat="46.341947056353092" lon="6.967905778437853"><ele></ele><time>2013-9-9T18:53:11Z</time></trkpt>
<trkpt lat="46.341927861794829" lon="6.967910472303629"><ele></ele><time>2013-9-9T18:53:14Z</time></trkpt>
<trkpt lat="46.341914031654596" lon="6.967910556122661"><ele></ele><time>2013-9-9T18:53:17Z</time></trkpt>
<trkpt lat="46.341894585639238" lon="6.967915585264564"><ele></ele><time>2013-9-9T18:53:20Z</time></trkpt>
<trkpt lat="46.341874888166785" lon="6.967920111492276"><ele></ele><time>2013-9-9T18:53:23Z</time></trkpt>
<trkpt lat="46.34185359813273" lon="6.967922709882259"><ele></ele><time>2013-9-9T18:53:26Z</time></trkpt>
<trkpt lat="46.341829122975469" lon="6.967924386262894"><ele></ele><time>2013-9-9T18:53:29Z</time></trkpt>
<trkpt lat="46.341803222894669" lon="6.967925308272243"><ele></ele><time>2013-9-9T18:53:32Z</time></trkpt>
<trkpt lat="46.341776149347425" lon="6.967920446768403"><ele></ele><time>2013-9-9T18:53:35Z</time></trkpt>
<trkpt lat="46.341751338914037" lon="6.967912232503295"><ele></ele><time>2013-9-9T18:53:38Z</time></trkpt>
<trkpt lat="46.341728204861283" lon="6.967902760952711"><ele></ele><time>2013-9-9T18:53:41Z</time></trkpt>
<trkpt lat="46.341706495732069" lon="6.967894462868571"><ele></ele><time>2013-9-9T18:53:44Z</time></trkpt>
<trkpt lat="46.341686379164457" lon="6.967889433726668"><ele></ele><time>2013-9-9T18:53:47Z</time></trkpt>
<trkpt lat="46.341663245111704" lon="6.967887254431844"><ele></ele><time>2013-9-9T18:53:50Z</time></trkpt>
<trkpt lat="46.341640530154109" lon="6.967881806194782"><ele></ele><time>2013-9-9T18:53:53Z</time></trkpt>
<trkpt lat="46.341611864045262" lon="6.967874933034182"><ele></ele><time>2013-9-9T18:53:56Z</time></trkpt>
<trkpt lat="46.341587388888001" lon="6.967865880578756"><ele></ele><time>2013-9-9T18:53:59Z</time></trkpt>
<trkpt lat="46.341560315340757" lon="6.967856409028173"><ele></ele><time>2013-9-9T18:54:2Z</time></trkpt>
<trkpt lat="46.341532655060291" lon="6.967847524210811"><ele></ele><time>2013-9-9T18:54:5Z</time></trkpt>
<trkpt lat="46.341507928445935" lon="6.967840986326337"><ele></ele><time>2013-9-9T18:54:8Z</time></trkpt>
<trkpt lat="46.341489152982831" lon="6.967828078195453"><ele></ele><time>2013-9-9T18:54:11Z</time></trkpt>
<trkpt lat="46.341472305357456" lon="6.96780645288527"><ele></ele><time>2013-9-9T18:54:14Z</time></trkpt>
<trkpt lat="46.341458894312382" lon="6.967783067375422"><ele></ele><time>2013-9-9T18:54:17Z</time></trkpt>
<trkpt lat="46.341446070000529" lon="6.96775758638978"><ele></ele><time>2013-9-9T18:54:20Z</time></trkpt>
<trkpt lat="46.341430814936757" lon="6.967726154252887"><ele></ele><time>2013-9-9T18:54:23Z</time></trkpt>
<trkpt lat="46.341419918462634" lon="6.96769455447793"><ele></ele><time>2013-9-9T18:54:26Z</time></trkpt>
<trkpt lat="46.341409524902701" lon="6.967666810378432"><ele></ele><time>2013-9-9T18:54:29Z</time></trkpt>
<trkpt lat="46.341388737782836" lon="6.967638144269586"><ele></ele><time>2013-9-9T18:54:32Z</time></trkpt>
<trkpt lat="46.341365687549114" lon="6.967610064893961"><ele></ele><time>2013-9-9T18:54:35Z</time></trkpt>
<trkpt lat="46.341343894600868" lon="6.967591540887952"><ele></ele><time>2013-9-9T18:54:38Z</time></trkpt>
<trkpt lat="46.341320592910051" lon="6.967574106529355"><ele></ele><time>2013-9-9T18:54:41Z</time></trkpt>
<trkpt lat="46.341299219056964" lon="6.967553654685617"><ele></ele><time>2013-9-9T18:54:44Z</time></trkpt>
<trkpt lat="46.34118908084929" lon="6.96748835965991"><ele></ele><time>2013-9-9T18:54:47Z</time></trkpt>
<trkpt lat="46.341141639277339" lon="6.967466901987791"><ele></ele><time>2013-9-9T18:54:50Z</time></trkpt>
<trkpt lat="46.341180950403214" lon="6.967530772089958"><ele></ele><time>2013-9-9T18:54:53Z</time></trkpt>
<trkpt lat="46.3411695510149" lon="6.967552313581109"><ele></ele><time>2013-9-9T18:54:56Z</time></trkpt>
<trkpt lat="46.341160163283348" lon="6.967589864507318"><ele></ele><time>2013-9-9T18:54:59Z</time></trkpt>
<trkpt lat="46.341148847714067" lon="6.967631774023175"><ele></ele><time>2013-9-9T18:55:2Z</time></trkpt>
<trkpt lat="46.341133089736104" lon="6.96766915731132"><ele></ele><time>2013-9-9T18:55:5Z</time></trkpt>
<trkpt lat="46.341113056987524" lon="6.967694889754057"><ele></ele><time>2013-9-9T18:55:8Z</time></trkpt>
<trkpt lat="46.341094952076674" lon="6.967713413760066"><ele></ele><time>2013-9-9T18:55:11Z</time></trkpt>
<trkpt lat="46.341073326766491" lon="6.967718526721001"><ele></ele><time>2013-9-9T18:55:14Z</time></trkpt>
<trkpt lat="46.341057065874338" lon="6.967705702409148"><ele></ele><time>2013-9-9T18:55:17Z</time></trkpt>
<trkpt lat="46.341044409200549" lon="6.967681394889951"><ele></ele><time>2013-9-9T18:55:20Z</time></trkpt>
<trkpt lat="46.341036781668663" lon="6.967634540051222"><ele></ele><time>2013-9-9T18:55:23Z</time></trkpt>
<trkpt lat="46.341036278754473" lon="6.967577040195465"><ele></ele><time>2013-9-9T18:55:26Z</time></trkpt>
<trkpt lat="46.341032506898046" lon="6.967513002455235"><ele></ele><time>2013-9-9T18:55:29Z</time></trkpt>
<trkpt lat="46.341032171621919" lon="6.967430608347058"><ele></ele><time>2013-9-9T18:55:32Z</time></trkpt>
<trkpt lat="46.341029992327094" lon="6.967355003580451"><ele></ele><time>2013-9-9T18:55:35Z</time></trkpt>
<trkpt lat="46.341029740869999" lon="6.967284344136715"><ele></ele><time>2013-9-9T18:55:38Z</time></trkpt>
<trkpt lat="46.341035608202219" lon="6.967219384387136"><ele></ele><time>2013-9-9T18:55:41Z</time></trkpt>
<trkpt lat="46.341043068096042" lon="6.967155346646905"><ele></ele><time>2013-9-9T18:55:44Z</time></trkpt>
<trkpt lat="46.341050025075674" lon="6.967089464887977"><ele></ele><time>2013-9-9T18:55:47Z</time></trkpt>
<trkpt lat="46.341052958741784" lon="6.967018805444241"><ele></ele><time>2013-9-9T18:55:50Z</time></trkpt>
<trkpt lat="46.341056898236275" lon="6.966951079666615"><ele></ele><time>2013-9-9T18:55:53Z</time></trkpt>
<trkpt lat="46.34106008335948" lon="6.966884443536401"><ele></ele><time>2013-9-9T18:55:56Z</time></trkpt>
<trkpt lat="46.341059664264321" lon="6.966814454644918"><ele></ele><time>2013-9-9T18:55:59Z</time></trkpt>
<trkpt lat="46.341059831902385" lon="6.966741364449263"><ele></ele><time>2013-9-9T18:56:2Z</time></trkpt>
<trkpt lat="46.341061256825924" lon="6.966666346415877"><ele></ele><time>2013-9-9T18:56:5Z</time></trkpt>
<trkpt lat="46.34106301702559" lon="6.966594262048602"><ele></ele><time>2013-9-9T18:56:8Z</time></trkpt>
<trkpt lat="46.341066034510732" lon="6.966522596776485"><ele></ele><time>2013-9-9T18:56:11Z</time></trkpt>
<trkpt lat="46.341070560738444" lon="6.96645000949502"><ele></ele><time>2013-9-9T18:56:14Z</time></trkpt>
<trkpt lat="46.341075506061316" lon="6.966378428041935"><ele></ele><time>2013-9-9T18:56:17Z</time></trkpt>
<trkpt lat="46.341088330373168" lon="6.966310199350119"><ele></ele><time>2013-9-9T18:56:20Z</time></trkpt>
<trkpt lat="46.341106686741114" lon="6.966246413066983"><ele></ele><time>2013-9-9T18:56:23Z</time></trkpt>
<trkpt lat="46.341127641499043" lon="6.966177513822913"><ele></ele><time>2013-9-9T18:56:26Z</time></trkpt>
<trkpt lat="46.341152368113399" lon="6.966113643720746"><ele></ele><time>2013-9-9T18:56:29Z</time></trkpt>
<trkpt lat="46.341178100556135" lon="6.966054383665323"><ele></ele><time>2013-9-9T18:56:32Z</time></trkpt>
<trkpt lat="46.341202324256301" lon="6.965988082811236"><ele></ele><time>2013-9-9T18:56:35Z</time></trkpt>
<trkpt lat="46.341225039213896" lon="6.965917591005564"><ele></ele><time>2013-9-9T18:56:38Z</time></trkpt>
<trkpt lat="46.341242892667651" lon="6.965846428647637"><ele></ele><time>2013-9-9T18:56:41Z</time></trkpt>
<trkpt lat="46.34126041084528" lon="6.965777445584536"><ele></ele><time>2013-9-9T18:56:44Z</time></trkpt>
<trkpt lat="46.341277426108718" lon="6.965708378702402"><ele></ele><time>2013-9-9T18:56:47Z</time></trkpt>
<trkpt lat="46.341295195743442" lon="6.965647358447313"><ele></ele><time>2013-9-9T18:56:50Z</time></trkpt>
<trkpt lat="46.341315815225244" lon="6.96559933014214"><ele></ele><time>2013-9-9T18:56:53Z</time></trkpt>
<trkpt lat="46.341367196291685" lon="6.96561835706234"><ele></ele><time>2013-9-9T18:56:56Z</time></trkpt>
<trkpt lat="46.341386558488011" lon="6.965609807521105"><ele></ele><time>2013-9-9T18:56:59Z</time></trkpt>
<trkpt lat="46.341410530731082" lon="6.965613914653659"><ele></ele><time>2013-9-9T18:57:2Z</time></trkpt>
<trkpt lat="46.341438693925738" lon="6.965613914653659"><ele></ele><time>2013-9-9T18:57:5Z</time></trkpt>
<trkpt lat="46.341485297307372" lon="6.965641491115093"><ele></ele><time>2013-9-9T18:57:8Z</time></trkpt>
<trkpt lat="46.341532990336418" lon="6.965648867189884"><ele></ele><time>2013-9-9T18:57:11Z</time></trkpt>
<trkpt lat="46.341579761356115" lon="6.965640401467681"><ele></ele><time>2013-9-9T18:57:14Z</time></trkpt>
<trkpt lat="46.341628544032574" lon="6.965618189424276"><ele></ele><time>2013-9-9T18:57:17Z</time></trkpt>
<trkpt lat="46.341671710833907" lon="6.965582985430956"><ele></ele><time>2013-9-9T18:57:20Z</time></trkpt>
<trkpt lat="46.34170901030302" lon="6.965551469475031"><ele></ele><time>2013-9-9T18:57:23Z</time></trkpt>
<trkpt lat="46.341744298115373" lon="6.965508051216602"><ele></ele><time>2013-9-9T18:57:26Z</time></trkpt>
<trkpt lat="46.341800037771463" lon="6.965464968234301"><ele></ele><time>2013-9-9T18:57:29Z</time></trkpt>
<trkpt lat="46.341869942843914" lon="6.965418197214603"><ele></ele><time>2013-9-9T18:57:32Z</time></trkpt>
<trkpt lat="46.341917971149087" lon="6.965364888310432"><ele></ele><time>2013-9-9T18:57:35Z</time></trkpt>
<trkpt lat="46.341958288103342" lon="6.965307807549834"><ele></ele><time>2013-9-9T18:57:38Z</time></trkpt>
<trkpt lat="46.342005142942071" lon="6.965256594121456"><ele></ele><time>2013-9-9T18:57:41Z</time></trkpt>
<trkpt lat="46.342048393562436" lon="6.965210912749171"><ele></ele><time>2013-9-9T18:57:44Z</time></trkpt>
<trkpt lat="46.342094577848911" lon="6.965178810060024"><ele></ele><time>2013-9-9T18:57:47Z</time></trkpt>
<trkpt lat="46.342145036906004" lon="6.965158190578222"><ele></ele><time>2013-9-9T18:57:50Z</time></trkpt>
<trkpt lat="46.342184850946069" lon="6.96514536626637"><ele></ele><time>2013-9-9T18:57:53Z</time></trkpt>
<trkpt lat="46.342213852331042" lon="6.965131033211947"><ele></ele><time>2013-9-9T18:57:56Z</time></trkpt>
<trkpt lat="46.342237992212176" lon="6.965113682672381"><ele></ele><time>2013-9-9T18:57:59Z</time></trkpt>
<trkpt lat="46.342265903949738" lon="6.965100271627307"><ele></ele><time>2013-9-9T18:58:2Z</time></trkpt>
<trkpt lat="46.342351147904992" lon="6.965014692395926"><ele></ele><time>2013-9-9T18:58:5Z</time></trkpt>
<trkpt lat="46.342363217845559" lon="6.964977979660034"><ele></ele><time>2013-9-9T18:58:8Z</time></trkpt>
<trkpt lat="46.342367744073272" lon="6.964946882799268"><ele></ele><time>2013-9-9T18:58:11Z</time></trkpt>
<trkpt lat="46.342365983873606" lon="6.964926347136498"><ele></ele><time>2013-9-9T18:58:14Z</time></trkpt>
<trkpt lat="46.342336647212505" lon="6.964911930263042"><ele></ele><time>2013-9-9T18:58:17Z</time></trkpt>
<trkpt lat="46.342237070202827" lon="6.964915115386248"><ele></ele><time>2013-9-9T18:58:20Z</time></trkpt>
<trkpt lat="46.342194322496653" lon="6.964919725432992"><ele></ele><time>2013-9-9T18:58:23Z</time></trkpt>
<trkpt lat="46.342148892581463" lon="6.964928861707449"><ele></ele><time>2013-9-9T18:58:26Z</time></trkpt>
<trkpt lat="46.34209793061018" lon="6.964936908334494"><ele></ele><time>2013-9-9T18:58:29Z</time></trkpt>
<trkpt lat="46.342046884819865" lon="6.964944871142507"><ele></ele><time>2013-9-9T18:58:32Z</time></trkpt>
<trkpt lat="46.341907745227218" lon="6.964973453432322"><ele></ele><time>2013-9-9T18:58:35Z</time></trkpt>
<trkpt lat="46.341864829882979" lon="6.964982338249683"><ele></ele><time>2013-9-9T18:58:38Z</time></trkpt>
<trkpt lat="46.341820824891329" lon="6.964983092620969"><ele></ele><time>2013-9-9T18:58:41Z</time></trkpt>
<trkpt lat="46.341771790757775" lon="6.96496699936688"><ele></ele><time>2013-9-9T18:58:44Z</time></trkpt>
<trkpt lat="46.341724433004856" lon="6.964941434562206"><ele></ele><time>2013-9-9T18:58:47Z</time></trkpt>
<trkpt lat="46.341675734147429" lon="6.964915283024311"><ele></ele><time>2013-9-9T18:58:50Z</time></trkpt>
<trkpt lat="46.34162493981421" lon="6.964887958019972"><ele></ele><time>2013-9-9T18:58:53Z</time></trkpt>
<trkpt lat="46.341549586504698" lon="6.964855100959539"><ele></ele><time>2013-9-9T18:58:56Z</time></trkpt>
<trkpt lat="46.341483956202865" lon="6.964839342981577"><ele></ele><time>2013-9-9T18:58:59Z</time></trkpt>
<trkpt lat="46.341411117464304" lon="6.964832553640008"><ele></ele><time>2013-9-9T18:59:2Z</time></trkpt>
<trkpt lat="46.341331237927079" lon="6.964832134544849"><ele></ele><time>2013-9-9T18:59:5Z</time></trkpt>
<trkpt lat="46.34124674834311" lon="6.964833391830325"><ele></ele><time>2013-9-9T18:59:8Z</time></trkpt>
<trkpt lat="46.341161839663982" lon="6.964838253334165"><ele></ele><time>2013-9-9T18:59:11Z</time></trkpt>
<trkpt lat="46.341070979833603" lon="6.964853424578905"><ele></ele><time>2013-9-9T18:59:14Z</time></trkpt>
<trkpt lat="46.340983808040619" lon="6.964882174506784"><ele></ele><time>2013-9-9T18:59:17Z</time></trkpt>
<trkpt lat="46.340904850512743" lon="6.964912097901106"><ele></ele><time>2013-9-9T18:59:20Z</time></trkpt>
<trkpt lat="46.34084458462894" lon="6.964945709332824"><ele></ele><time>2013-9-9T18:59:23Z</time></trkpt>
<trkpt lat="46.340793203562498" lon="6.964965322986245"><ele></ele><time>2013-9-9T18:59:26Z</time></trkpt>
<trkpt lat="46.340718101710081" lon="6.964963143691421"><ele></ele><time>2013-9-9T18:59:29Z</time></trkpt>
<trkpt lat="46.340710390359163" lon="6.964883012697101"><ele></ele><time>2013-9-9T18:59:32Z</time></trkpt>
<trkpt lat="46.340725477784872" lon="6.964836828410626"><ele></ele><time>2013-9-9T18:59:35Z</time></trkpt>
<trkpt lat="46.340750372037292" lon="6.964789722114801"><ele></ele><time>2013-9-9T18:59:38Z</time></trkpt>
<trkpt lat="46.340784821659327" lon="6.964742951095104"><ele></ele><time>2013-9-9T18:59:41Z</time></trkpt>
<trkpt lat="46.340820696204901" lon="6.964690228924155"><ele></ele><time>2013-9-9T18:59:44Z</time></trkpt>
<trkpt lat="46.340865958482027" lon="6.964632980525494"><ele></ele><time>2013-9-9T18:59:47Z</time></trkpt>
<trkpt lat="46.340909628197551" lon="6.964576235041022"><ele></ele><time>2013-9-9T18:59:50Z</time></trkpt>
<trkpt lat="46.340958494693041" lon="6.964521836489439"><ele></ele><time>2013-9-9T18:59:53Z</time></trkpt>
<trkpt lat="46.341002667322755" lon="6.964467186480761"><ele></ele><time>2013-9-9T18:59:56Z</time></trkpt>
<trkpt lat="46.341066202148795" lon="6.964366603642702"><ele></ele><time>2013-9-9T18:59:59Z</time></trkpt>
<trkpt lat="46.341073075309396" lon="6.964331986382604"><ele></ele><time>2013-9-9T19:0:2Z</time></trkpt>
<trkpt lat="46.341059496626258" lon="6.964313546195626"><ele></ele><time>2013-9-9T19:0:5Z</time></trkpt>
<trkpt lat="46.341036362573504" lon="6.964310612529516"><ele></ele><time>2013-9-9T19:0:8Z</time></trkpt>
<trkpt lat="46.341002667322755" lon="6.96431371383369"><ele></ele><time>2013-9-9T19:0:11Z</time></trkpt>
<trkpt lat="46.34096528403461" lon="6.964316144585609"><ele></ele><time>2013-9-9T19:0:14Z</time></trkpt>
<trkpt lat="46.340919435024261" lon="6.964332321658731"><ele></ele><time>2013-9-9T19:0:17Z</time></trkpt>
<trkpt lat="46.340870568528771" lon="6.964356796815991"><ele></ele><time>2013-9-9T19:0:20Z</time></trkpt>
<trkpt lat="46.340821115300059" lon="6.964380769059062"><ele></ele><time>2013-9-9T19:0:23Z</time></trkpt>
<trkpt lat="46.340772332623601" lon="6.964412201195955"><ele></ele><time>2013-9-9T19:0:26Z</time></trkpt>
<trkpt lat="46.340727489441633" lon="6.964444471523166"><ele></ele><time>2013-9-9T19:0:29Z</time></trkpt>
<trkpt lat="46.340684155002236" lon="6.964480681344867"><ele></ele><time>2013-9-9T19:0:32Z</time></trkpt>
<trkpt lat="46.340630929917097" lon="6.964540779590607"><ele></ele><time>2013-9-9T19:0:35Z</time></trkpt>
<trkpt lat="46.340570580214262" lon="6.964628538116813"><ele></ele><time>2013-9-9T19:0:38Z</time></trkpt>
<trkpt lat="46.340340664610267" lon="6.965642077848315"><ele></ele><time>2013-9-9T19:0:41Z</time></trkpt>
<trkpt lat="46.340290289372206" lon="6.965735703706741"><ele></ele><time>2013-9-9T19:0:44Z</time></trkpt>
<trkpt lat="46.340235220268369" lon="6.965827737003565"><ele></ele><time>2013-9-9T19:0:47Z</time></trkpt>
<trkpt lat="46.340179983526468" lon="6.9659174233675"><ele></ele><time>2013-9-9T19:0:50Z</time></trkpt>
<trkpt lat="46.340121813118458" lon="6.9660107139498"><ele></ele><time>2013-9-9T19:0:53Z</time></trkpt>
<trkpt lat="46.340057104825974" lon="6.966104423627257"><ele></ele><time>2013-9-9T19:0:56Z</time></trkpt>
<trkpt lat="46.339998012408614" lon="6.966188075020909"><ele></ele><time>2013-9-9T19:0:59Z</time></trkpt>
<trkpt lat="46.339934561401606" lon="6.966273821890354"><ele></ele><time>2013-9-9T19:1:2Z</time></trkpt>
<trkpt lat="46.339873792603612" lon="6.966362837702036"><ele></ele><time>2013-9-9T19:1:5Z</time></trkpt>
<trkpt lat="46.339786788448691" lon="6.966427797451615"><ele></ele><time>2013-9-9T19:1:8Z</time></trkpt>
<trkpt lat="46.339594172313809" lon="6.966655114665628"><ele></ele><time>2013-9-9T19:1:11Z</time></trkpt>
<trkpt lat="46.339528961107135" lon="6.966811018064618"><ele></ele><time>2013-9-9T19:1:14Z</time></trkpt>
<trkpt lat="46.339502390474081" lon="6.966890059411526"><ele></ele><time>2013-9-9T19:1:17Z</time></trkpt>
<trkpt lat="46.339475149288774" lon="6.966971699148417"><ele></ele><time>2013-9-9T19:1:20Z</time></trkpt>
<trkpt lat="46.339456122368574" lon="6.967087620869279"><ele></ele><time>2013-9-9T19:1:23Z</time></trkpt>
<trkpt lat="46.339426701888442" lon="6.967166997492313"><ele></ele><time>2013-9-9T19:1:26Z</time></trkpt>
<trkpt lat="46.339383702725172" lon="6.96719516068697"><ele></ele><time>2013-9-9T19:1:29Z</time></trkpt>
<trkpt lat="46.339323101565242" lon="6.967139253392816"><ele></ele><time>2013-9-9T19:1:32Z</time></trkpt>
<trkpt lat="46.339305331930518" lon="6.96707203052938"><ele></ele><time>2013-9-9T19:1:35Z</time></trkpt>
<trkpt lat="46.339289657771587" lon="6.966975554823875"><ele></ele><time>2013-9-9T19:1:38Z</time></trkpt>
<trkpt lat="46.339257638901472" lon="6.966903302818537"><ele></ele><time>2013-9-9T19:1:41Z</time></trkpt>
<trkpt lat="46.339204832911491" lon="6.966842114925385"><ele></ele><time>2013-9-9T19:1:44Z</time></trkpt>
<trkpt lat="46.339146159589291" lon="6.966795679181814"><ele></ele><time>2013-9-9T19:1:47Z</time></trkpt>
<trkpt lat="46.339092180132866" lon="6.966746309772134"><ele></ele><time>2013-9-9T19:1:50Z</time></trkpt>
<trkpt lat="46.339053204283118" lon="6.96669040247798"><ele></ele><time>2013-9-9T19:1:53Z</time></trkpt>
<trkpt lat="46.339031243696809" lon="6.966626951470971"><ele></ele><time>2013-9-9T19:1:56Z</time></trkpt>
<trkpt lat="46.339037194848061" lon="6.966505078598857"><ele></ele><time>2013-9-9T19:1:59Z</time></trkpt>
<trkpt lat="46.339024789631367" lon="6.9664666056633"><ele></ele><time>2013-9-9T19:2:2Z</time></trkpt>
<trkpt lat="46.339045828208327" lon="6.966465935111046"><ele></ele><time>2013-9-9T19:2:5Z</time></trkpt>
<trkpt lat="46.339066447690129" lon="6.966460989788175"><ele></ele><time>2013-9-9T19:2:8Z</time></trkpt>
<trkpt lat="46.339096203446388" lon="6.96645587682724"><ele></ele><time>2013-9-9T19:2:11Z</time></trkpt>
<trkpt lat="46.339125540107489" lon="6.966438861563802"><ele></ele><time>2013-9-9T19:2:14Z</time></trkpt>
<trkpt lat="46.339160408824682" lon="6.966418158262968"><ele></ele><time>2013-9-9T19:2:17Z</time></trkpt>
<trkpt lat="46.339207347482443" lon="6.96638161316514"><ele></ele><time>2013-9-9T19:2:20Z</time></trkpt>
<trkpt lat="46.339254286140203" lon="6.966314306482673"><ele></ele><time>2013-9-9T19:2:23Z</time></trkpt>
<trkpt lat="46.339251855388284" lon="6.966277342289686"><ele></ele><time>2013-9-9T19:2:26Z</time></trkpt>
<trkpt lat="46.339236851781607" lon="6.966246832162142"><ele></ele><time>2013-9-9T19:2:29Z</time></trkpt>
<trkpt lat="46.339212376624346" lon="6.966211460530758"><ele></ele><time>2013-9-9T19:2:32Z</time></trkpt>
<trkpt lat="46.339158145710826" lon="6.966159660369158"><ele></ele><time>2013-9-9T19:2:35Z</time></trkpt>
<trkpt lat="46.339090839028358" lon="6.966104339808226"><ele></ele><time>2013-9-9T19:2:38Z</time></trkpt>
<trkpt lat="46.339008612558246" lon="6.966050276532769"><ele></ele><time>2013-9-9T19:2:41Z</time></trkpt>
<trkpt lat="46.33892429061234" lon="6.965998560190201"><ele></ele><time>2013-9-9T19:2:44Z</time></trkpt>
<trkpt lat="46.33883535861969" lon="6.965947346761823"><ele></ele><time>2013-9-9T19:2:47Z</time></trkpt>
<trkpt lat="46.338747180998325" lon="6.965901916846633"><ele></ele><time>2013-9-9T19:2:50Z</time></trkpt>
<trkpt lat="46.33866093121469" lon="6.965865790843964"><ele></ele><time>2013-9-9T19:2:53Z</time></trkpt>
<trkpt lat="46.33857686072588" lon="6.965840561315417"><ele></ele><time>2013-9-9T19:2:56Z</time></trkpt>
<trkpt lat="46.338489269837737" lon="6.965824384242296"><ele></ele><time>2013-9-9T19:2:59Z</time></trkpt>
<trkpt lat="46.338404780253768" lon="6.965818433091044"><ele></ele><time>2013-9-9T19:3:2Z</time></trkpt>
<trkpt lat="46.338320625945926" lon="6.965792030096054"><ele></ele><time>2013-9-9T19:3:5Z</time></trkpt>
<trkpt lat="46.3382529001683" lon="6.965751042589545"><ele></ele><time>2013-9-9T19:3:8Z</time></trkpt>
<trkpt lat="46.338216857984662" lon="6.965700332075357"><ele></ele><time>2013-9-9T19:3:11Z</time></trkpt>
<trkpt lat="46.338195819407701" lon="6.965616680681706"><ele></ele><time>2013-9-9T19:3:14Z</time></trkpt>
<trkpt lat="46.338192131370306" lon="6.965514421463013"><ele></ele><time>2013-9-9T19:3:17Z</time></trkpt>
<trkpt lat="46.338201770558953" lon="6.965402271598578"><ele></ele><time>2013-9-9T19:3:20Z</time></trkpt>
<trkpt lat="46.338225910440087" lon="6.965289870277047"><ele></ele><time>2013-9-9T19:3:23Z</time></trkpt>
<trkpt lat="46.338268658146262" lon="6.965178642421961"><ele></ele><time>2013-9-9T19:3:26Z</time></trkpt>
<trkpt lat="46.338317608460784" lon="6.965083172544837"><ele></ele><time>2013-9-9T19:3:29Z</time></trkpt>
<trkpt lat="46.338360020890832" lon="6.964993569999933"><ele></ele><time>2013-9-9T19:3:32Z</time></trkpt>
<trkpt lat="46.338391620665789" lon="6.96491377428174"><ele></ele><time>2013-9-9T19:3:35Z</time></trkpt>
<trkpt lat="46.338412240147591" lon="6.964849904179573"><ele></ele><time>2013-9-9T19:3:38Z</time></trkpt>
<trkpt lat="46.338386423885822" lon="6.964751500636339"><ele></ele><time>2013-9-9T19:3:41Z</time></trkpt>
<trkpt lat="46.338339569047093" lon="6.964728785678744"><ele></ele><time>2013-9-9T19:3:44Z</time></trkpt>
<trkpt lat="46.338284751400352" lon="6.964731803163886"><ele></ele><time>2013-9-9T19:3:47Z</time></trkpt>
<trkpt lat="46.338231526315212" lon="6.964747477322817"><ele></ele><time>2013-9-9T19:3:50Z</time></trkpt>
<trkpt lat="46.338176960125566" lon="6.964768683537841"><ele></ele><time>2013-9-9T19:3:53Z</time></trkpt>
<trkpt lat="46.338115353137255" lon="6.964791230857372"><ele></ele><time>2013-9-9T19:3:56Z</time></trkpt>
<trkpt lat="46.338060451671481" lon="6.964797852560878"><ele></ele><time>2013-9-9T19:3:59Z</time></trkpt>
<trkpt lat="46.338025666773319" lon="6.964770527556539"><ele></ele><time>2013-9-9T19:4:2Z</time></trkpt>
<trkpt lat="46.338008902966976" lon="6.96473004296422"><ele></ele><time>2013-9-9T19:4:5Z</time></trkpt>
<trkpt lat="46.338003873825073" lon="6.964682852849364"><ele></ele><time>2013-9-9T19:4:8Z</time></trkpt>
<trkpt lat="46.338013596832752" lon="6.964625855907798"><ele></ele><time>2013-9-9T19:4:11Z</time></trkpt>
<trkpt lat="46.338035557419062" lon="6.964560309424996"><ele></ele><time>2013-9-9T19:4:14Z</time></trkpt>
<trkpt lat="46.338070258498192" lon="6.964490236714482"><ele></ele><time>2013-9-9T19:4:17Z</time></trkpt>
<trkpt lat="46.338110156357288" lon="6.964416056871414"><ele></ele><time>2013-9-9T19:4:20Z</time></trkpt>
<trkpt lat="46.338148042559624" lon="6.964343721047044"><ele></ele><time>2013-9-9T19:4:23Z</time></trkpt>
<trkpt lat="46.338172517716885" lon="6.964283538982272"><ele></ele><time>2013-9-9T19:4:26Z</time></trkpt>
<trkpt lat="46.338177714496851" lon="6.964240791276097"><ele></ele><time>2013-9-9T19:4:29Z</time></trkpt>
<trkpt lat="46.338169919326901" lon="6.964207347482443"><ele></ele><time>2013-9-9T19:4:32Z</time></trkpt>
<trkpt lat="46.338151395320892" lon="6.964182034134865"><ele></ele><time>2013-9-9T19:4:35Z</time></trkpt>
<trkpt lat="46.338130105286837" lon="6.964161163195968"><ele></ele><time>2013-9-9T19:4:38Z</time></trkpt>
<trkpt lat="46.338106384500861" lon="6.96413978934288"><ele></ele><time>2013-9-9T19:4:41Z</time></trkpt>
<trkpt lat="46.338068330660462" lon="6.964136017486453"><ele></ele><time>2013-9-9T19:4:44Z</time></trkpt>
<trkpt lat="46.338031282648444" lon="6.964145572856069"><ele></ele><time>2013-9-9T19:4:47Z</time></trkpt>
<trkpt lat="46.337993228808045" lon="6.964170802384615"><ele></ele><time>2013-9-9T19:4:50Z</time></trkpt>
<trkpt lat="46.337954504415393" lon="6.964212376624346"><ele></ele><time>2013-9-9T19:4:53Z</time></trkpt>
<trkpt lat="46.337910331785679" lon="6.964264512062073"><ele></ele><time>2013-9-9T19:4:56Z</time></trkpt>
<trkpt lat="46.337864566594362" lon="6.964324442669749"><ele></ele><time>2013-9-9T19:4:59Z</time></trkpt>
<trkpt lat="46.337800864130259" lon="6.964409602805972"><ele></ele><time>2013-9-9T19:5:2Z</time></trkpt>
<trkpt lat="46.337692737579346" lon="6.965578543022275"><ele></ele><time>2013-9-9T19:5:5Z</time></trkpt>
<trkpt lat="46.337667508050799" lon="6.965743834152818"><ele></ele><time>2013-9-9T19:5:8Z</time></trkpt>
<trkpt lat="46.337644541636109" lon="6.965900408104062"><ele></ele><time>2013-9-9T19:5:11Z</time></trkpt>
<trkpt lat="46.337623922154307" lon="6.966064274311066"><ele></ele><time>2013-9-9T19:5:14Z</time></trkpt>
<trkpt lat="46.33758544921875" lon="6.966355545446277"><ele></ele><time>2013-9-9T19:5:17Z</time></trkpt>
<trkpt lat="46.33756591938436" lon="6.966561488807201"><ele></ele><time>2013-9-9T19:5:20Z</time></trkpt>
<trkpt lat="46.337576480582356" lon="6.966545144096017"><ele></ele><time>2013-9-9T19:5:23Z</time></trkpt>
<trkpt lat="46.33757907897234" lon="6.96649543941021"><ele></ele><time>2013-9-9T19:5:26Z</time></trkpt>
<trkpt lat="46.337567092850804" lon="6.966403070837259"><ele></ele><time>2013-9-9T19:5:29Z</time></trkpt>
<trkpt lat="46.337533732876182" lon="6.966341799125075"><ele></ele><time>2013-9-9T19:5:32Z</time></trkpt>
<trkpt lat="46.337494170293212" lon="6.966264685615897"><ele></ele><time>2013-9-9T19:5:35Z</time></trkpt>
<trkpt lat="46.337445471435785" lon="6.966191260144115"><ele></ele><time>2013-9-9T19:5:38Z</time></trkpt>
<trkpt lat="46.337383948266506" lon="6.966106435284019"><ele></ele><time>2013-9-9T19:5:41Z</time></trkpt>
<trkpt lat="46.337319826707244" lon="6.966036949306727"><ele></ele><time>2013-9-9T19:5:44Z</time></trkpt>
<trkpt lat="46.336480295285583" lon="6.965256594121456"><ele></ele><time>2013-9-9T19:5:47Z</time></trkpt>
<trkpt lat="46.336373928934336" lon="6.965207643806934"><ele></ele><time>2013-9-9T19:5:50Z</time></trkpt>
<trkpt lat="46.336272927001119" lon="6.96516883559525"><ele></ele><time>2013-9-9T19:5:53Z</time></trkpt>
<trkpt lat="46.336166728287935" lon="6.965103624388576"><ele></ele><time>2013-9-9T19:5:56Z</time></trkpt>
<trkpt lat="46.336086429655552" lon="6.965028773993254"><ele></ele><time>2013-9-9T19:5:59Z</time></trkpt>
<trkpt lat="46.336000179871917" lon="6.964944116771221"><ele></ele><time>2013-9-9T19:6:2Z</time></trkpt>
<trkpt lat="46.335919545963407" lon="6.964854514226317"><ele></ele><time>2013-9-9T19:6:5Z</time></trkpt>
<trkpt lat="46.335861710831523" lon="6.964767007157207"><ele></ele><time>2013-9-9T19:6:8Z</time></trkpt>
<trkpt lat="46.335794655606151" lon="6.964695760980249"><ele></ele><time>2013-9-9T19:6:11Z</time></trkpt>
<trkpt lat="46.335725672543049" lon="6.96464060805738"><ele></ele><time>2013-9-9T19:6:14Z</time></trkpt>
<trkpt lat="46.335644954815507" lon="6.964596016332507"><ele></ele><time>2013-9-9T19:6:17Z</time></trkpt>
<trkpt lat="46.335661970078945" lon="6.964634573087096"><ele></ele><time>2013-9-9T19:6:20Z</time></trkpt>
<trkpt lat="46.33566515520215" lon="6.964616887271404"><ele></ele><time>2013-9-9T19:6:23Z</time></trkpt>
<trkpt lat="46.335671860724688" lon="6.964567936956883"><ele></ele><time>2013-9-9T19:6:26Z</time></trkpt>
<trkpt lat="46.335697425529361" lon="6.964522758498788"><ele></ele><time>2013-9-9T19:6:29Z</time></trkpt>
<trkpt lat="46.335740005597472" lon="6.964506665244699"><ele></ele><time>2013-9-9T19:6:32Z</time></trkpt>
<trkpt lat="46.335757439956069" lon="6.964482860639691"><ele></ele><time>2013-9-9T19:6:35Z</time></trkpt>
<trkpt lat="46.335778813809156" lon="6.964481687173247"><ele></ele><time>2013-9-9T19:6:38Z</time></trkpt>
<trkpt lat="46.335801864042878" lon="6.964495601132512"><ele></ele><time>2013-9-9T19:6:41Z</time></trkpt>
<trkpt lat="46.335827177390456" lon="6.964513706043363"><ele></ele><time>2013-9-9T19:6:44Z</time></trkpt>
<trkpt lat="46.335857100784779" lon="6.964526614174247"><ele></ele><time>2013-9-9T19:6:47Z</time></trkpt>
<trkpt lat="46.335901860147715" lon="6.964540276676416"><ele></ele><time>2013-9-9T19:6:50Z</time></trkpt>
<trkpt lat="46.335956091061234" lon="6.964534157887101"><ele></ele><time>2013-9-9T19:6:53Z</time></trkpt>
<trkpt lat="46.336015183478594" lon="6.964504066854715"><ele></ele><time>2013-9-9T19:6:56Z</time></trkpt>
<trkpt lat="46.33607754483819" lon="6.964454026892781"><ele></ele><time>2013-9-9T19:6:59Z</time></trkpt>
<trkpt lat="46.336123142391443" lon="6.964375991374254"><ele></ele><time>2013-9-9T19:7:2Z</time></trkpt>
<trkpt lat="46.336159016937017" lon="6.964293178170919"><ele></ele><time>2013-9-9T19:7:5Z</time></trkpt>
<trkpt lat="46.336185755208135" lon="6.964212544262409"><ele></ele><time>2013-9-9T19:7:8Z</time></trkpt>
<trkpt lat="46.336192544549704" lon="6.964133838191629"><ele></ele><time>2013-9-9T19:7:11Z</time></trkpt>
<trkpt lat="46.336172511801124" lon="6.964067621156573"><ele></ele><time>2013-9-9T19:7:14Z</time></trkpt>
<trkpt lat="46.336121298372746" lon="6.964006517082453"><ele></ele><time>2013-9-9T19:7:17Z</time></trkpt>
<trkpt lat="46.336045358330011" lon="6.963947843760252"><ele></ele><time>2013-9-9T19:7:20Z</time></trkpt>
<trkpt lat="46.335946703329682" lon="6.963893109932542"><ele></ele><time>2013-9-9T19:7:23Z</time></trkpt>
<trkpt lat="46.335826506838202" lon="6.963839633390307"><ele></ele><time>2013-9-9T19:7:26Z</time></trkpt>
<trkpt lat="46.335704047232866" lon="6.96379579603672"><ele></ele><time>2013-9-9T19:7:29Z</time></trkpt>
<trkpt lat="46.335578318685293" lon="6.963754473254085"><ele></ele><time>2013-9-9T19:7:32Z</time></trkpt>
<trkpt lat="46.335465330630541" lon="6.96371759288013"><ele></ele><time>2013-9-9T19:7:35Z</time></trkpt>
<trkpt lat="46.335355192422867" lon="6.963694542646408"><ele></ele><time>2013-9-9T19:7:38Z</time></trkpt>
<trkpt lat="46.335257459431887" lon="6.963699571788311"><ele></ele><time>2013-9-9T19:7:41Z</time></trkpt>
<trkpt lat="46.335162157192826" lon="6.963721280917525"><ele></ele><time>2013-9-9T19:7:44Z</time></trkpt>
<trkpt lat="46.335069453343749" lon="6.9637571554631"><ele></ele><time>2013-9-9T19:7:47Z</time></trkpt>
<trkpt lat="46.334969960153103" lon="6.963803172111511"><ele></ele><time>2013-9-9T19:7:50Z</time></trkpt>
<trkpt lat="46.334868120029569" lon="6.963856648653746"><ele></ele><time>2013-9-9T19:7:53Z</time></trkpt>
<trkpt lat="46.334768123924732" lon="6.963918171823025"><ele></ele><time>2013-9-9T19:7:56Z</time></trkpt>
<trkpt lat="46.334664942696691" lon="6.963983550667763"><ele></ele><time>2013-9-9T19:7:59Z</time></trkpt>
<trkpt lat="46.3345608394593" lon="6.964049432426691"><ele></ele><time>2013-9-9T19:8:2Z</time></trkpt>
<trkpt lat="46.334460508078337" lon="6.964114056900144"><ele></ele><time>2013-9-9T19:8:5Z</time></trkpt>
<trkpt lat="46.334364535287023" lon="6.964169209823012"><ele></ele><time>2013-9-9T19:8:8Z</time></trkpt>
<trkpt lat="46.334276609122753" lon="6.964219836518168"><ele></ele><time>2013-9-9T19:8:11Z</time></trkpt>
<trkpt lat="46.334187174215913" lon="6.964272726327181"><ele></ele><time>2013-9-9T19:8:14Z</time></trkpt>
<trkpt lat="46.334102265536785" lon="6.964322933927178"><ele></ele><time>2013-9-9T19:8:17Z</time></trkpt>
<trkpt lat="46.334020961076021" lon="6.964372135698795"><ele></ele><time>2013-9-9T19:8:20Z</time></trkpt>
<trkpt lat="46.333941081538796" lon="6.964424522593617"><ele></ele><time>2013-9-9T19:8:23Z</time></trkpt>
<trkpt lat="46.333860950544477" lon="6.964470623061061"><ele></ele><time>2013-9-9T19:8:26Z</time></trkpt>
<trkpt lat="46.333779646083713" lon="6.964506832882762"><ele></ele><time>2013-9-9T19:8:29Z</time></trkpt>
<trkpt lat="46.333700437098742" lon="6.96453507989645"><ele></ele><time>2013-9-9T19:8:32Z</time></trkpt>
<trkpt lat="46.333630196750164" lon="6.964547066017985"><ele></ele><time>2013-9-9T19:8:35Z</time></trkpt>
<trkpt lat="46.33356255479157" lon="6.964528290554881"><ele></ele><time>2013-9-9T19:8:38Z</time></trkpt>
<trkpt lat="46.333507737144828" lon="6.964503731578589"><ele></ele><time>2013-9-9T19:8:41Z</time></trkpt>
<trkpt lat="46.333341859281063" lon="6.964365849271417"><ele></ele><time>2013-9-9T19:8:44Z</time></trkpt>
<trkpt lat="46.333285113796592" lon="6.964301895350218"><ele></ele><time>2013-9-9T19:8:47Z</time></trkpt>
<trkpt lat="46.33321369998157" lon="6.964261243119836"><ele></ele><time>2013-9-9T19:8:50Z</time></trkpt>
<trkpt lat="46.333140106871724" lon="6.964232074096799"><ele></ele><time>2013-9-9T19:8:53Z</time></trkpt>
<trkpt lat="46.333060059696436" lon="6.964220590889454"><ele></ele><time>2013-9-9T19:8:56Z</time></trkpt>
<trkpt lat="46.332988394424319" lon="6.964224446564913"><ele></ele><time>2013-9-9T19:8:59Z</time></trkpt>
<trkpt lat="46.332921171560884" lon="6.964240372180939"><ele></ele><time>2013-9-9T19:9:2Z</time></trkpt>
<trkpt lat="46.332859564572573" lon="6.96427121758461"><ele></ele><time>2013-9-9T19:9:5Z</time></trkpt>
<trkpt lat="46.332803992554545" lon="6.964316815137863"><ele></ele><time>2013-9-9T19:9:8Z</time></trkpt>
<trkpt lat="46.33275437168777" lon="6.964372806251049"><ele></ele><time>2013-9-9T19:9:11Z</time></trkpt>
<trkpt lat="46.332708187401295" lon="6.964438604190946"><ele></ele><time>2013-9-9T19:9:14Z</time></trkpt>
<trkpt lat="46.332672061398625" lon="6.964503899216652"><ele></ele><time>2013-9-9T19:9:17Z</time></trkpt>
<trkpt lat="46.332645742222667" lon="6.964568523690105"><ele></ele><time>2013-9-9T19:9:20Z</time></trkpt>
<trkpt lat="46.332624368369579" lon="6.964632058516145"><ele></ele><time>2013-9-9T19:9:23Z</time></trkpt>
<trkpt lat="46.332548847422004" lon="6.9647535122931"><ele></ele><time>2013-9-9T19:9:26Z</time></trkpt>
<trkpt lat="46.332525629550219" lon="6.964746890589595"><ele></ele><time>2013-9-9T19:9:29Z</time></trkpt>
<trkpt lat="46.332496125251055" lon="6.964661311358213"><ele></ele><time>2013-9-9T19:9:32Z</time></trkpt>
<trkpt lat="46.332491096109152" lon="6.964604817330837"><ele></ele><time>2013-9-9T19:9:35Z</time></trkpt>
<trkpt lat="46.332497298717499" lon="6.96455704048276"><ele></ele><time>2013-9-9T19:9:38Z</time></trkpt>
<trkpt lat="46.332509284839034" lon="6.964516304433346"><ele></ele><time>2013-9-9T19:9:41Z</time></trkpt>
<trkpt lat="46.332525126636028" lon="6.96447791531682"><ele></ele><time>2013-9-9T19:9:44Z</time></trkpt>
<trkpt lat="46.332541219890118" lon="6.964440699666739"><ele></ele><time>2013-9-9T19:9:47Z</time></trkpt>
<trkpt lat="46.332593858242035" lon="6.964339194819331"><ele></ele><time>2013-9-9T19:9:50Z</time></trkpt>
<trkpt lat="46.332612298429012" lon="6.964307595044375"><ele></ele><time>2013-9-9T19:9:53Z</time></trkpt>
<trkpt lat="46.332631073892117" lon="6.964272474870086"><ele></ele><time>2013-9-9T19:9:56Z</time></trkpt>
<trkpt lat="46.332654375582933" lon="6.96423064917326"><ele></ele><time>2013-9-9T19:9:59Z</time></trkpt>
<trkpt lat="46.332678515464067" lon="6.964186979457736"><ele></ele><time>2013-9-9T19:10:2Z</time></trkpt>
<trkpt lat="46.332738026976585" lon="6.964088408276439"><ele></ele><time>2013-9-9T19:10:5Z</time></trkpt>
<trkpt lat="46.332770381122828" lon="6.964040044695139"><ele></ele><time>2013-9-9T19:10:8Z</time></trkpt>
<trkpt lat="46.332802819088101" lon="6.963995452970266"><ele></ele><time>2013-9-9T19:10:11Z</time></trkpt>
<trkpt lat="46.332836849614978" lon="6.963952705264092"><ele></ele><time>2013-9-9T19:10:14Z</time></trkpt>
<trkpt lat="46.332872891798615" lon="6.963909706100822"><ele></ele><time>2013-9-9T19:10:17Z</time></trkpt>
<trkpt lat="46.332971882075071" lon="6.963786156848073"><ele></ele><time>2013-9-9T19:10:20Z</time></trkpt>
<trkpt lat="46.333002895116806" lon="6.963741900399327"><ele></ele><time>2013-9-9T19:10:23Z</time></trkpt>
<trkpt lat="46.333031980320811" lon="6.963692447170615"><ele></ele><time>2013-9-9T19:10:26Z</time></trkpt>
<trkpt lat="46.333063161000609" lon="6.963645173236728"><ele></ele><time>2013-9-9T19:10:29Z</time></trkpt>
<trkpt lat="46.333092665299773" lon="6.963595384731889"><ele></ele><time>2013-9-9T19:10:32Z</time></trkpt>
<trkpt lat="46.333118733018637" lon="6.963548613712192"><ele></ele><time>2013-9-9T19:10:35Z</time></trkpt>
<trkpt lat="46.333140693604946" lon="6.963507374748588"><ele></ele><time>2013-9-9T19:10:38Z</time></trkpt>
<trkpt lat="46.333158630877733" lon="6.963470662012696"><ele></ele><time>2013-9-9T19:10:41Z</time></trkpt>
<trkpt lat="46.333177154883742" lon="6.963435793295503"><ele></ele><time>2013-9-9T19:10:44Z</time></trkpt>
<trkpt lat="46.333199702203274" lon="6.96339656598866"><ele></ele><time>2013-9-9T19:10:47Z</time></trkpt>
<trkpt lat="46.333222836256027" lon="6.963359601795673"><ele></ele><time>2013-9-9T19:10:50Z</time></trkpt>
<trkpt lat="46.33324789814651" lon="6.963324649259448"><ele></ele><time>2013-9-9T19:10:53Z</time></trkpt>
<trkpt lat="46.333272038027644" lon="6.96329103782773"><ele></ele><time>2013-9-9T19:10:56Z</time></trkpt>
<trkpt lat="46.333297435194254" lon="6.963258013129234"><ele></ele><time>2013-9-9T19:10:59Z</time></trkpt>
<trkpt lat="46.333323586732149" lon="6.963222725316882"><ele></ele><time>2013-9-9T19:11:2Z</time></trkpt>
<trkpt lat="46.333352588117123" lon="6.96317964233458"><ele></ele><time>2013-9-9T19:11:5Z</time></trkpt>
<trkpt lat="46.333383936434984" lon="6.963127925992012"><ele></ele><time>2013-9-9T19:11:8Z</time></trkpt>
<trkpt lat="46.33341888897121" lon="6.963068079203367"><ele></ele><time>2013-9-9T19:11:11Z</time></trkpt>
<trkpt lat="46.333453087136149" lon="6.963001191616058"><ele></ele><time>2013-9-9T19:11:14Z</time></trkpt>
<trkpt lat="46.333485944196582" lon="6.962928520515561"><ele></ele><time>2013-9-9T19:11:17Z</time></trkpt>
<trkpt lat="46.333515364676714" lon="6.962850904092193"><ele></ele><time>2013-9-9T19:11:20Z</time></trkpt>
<trkpt lat="46.333541013300419" lon="6.962768593803048"><ele></ele><time>2013-9-9T19:11:23Z</time></trkpt>
<trkpt lat="46.333559285849333" lon="6.962687289342284"><ele></ele><time>2013-9-9T19:11:26Z</time></trkpt>
<trkpt lat="46.333570769056678" lon="6.962610930204392"><ele></ele><time>2013-9-9T19:11:29Z</time></trkpt>
<trkpt lat="46.333576468750834" lon="6.962541276589036"><ele></ele><time>2013-9-9T19:11:32Z</time></trkpt>
<trkpt lat="46.333573618903756" lon="6.962475730106235"><ele></ele><time>2013-9-9T19:11:35Z</time></trkpt>
<trkpt lat="46.333566578105092" lon="6.962419990450144"><ele></ele><time>2013-9-9T19:11:38Z</time></trkpt>
<trkpt lat="46.333557022735476" lon="6.962367268279195"><ele></ele><time>2013-9-9T19:11:41Z</time></trkpt>
<trkpt lat="46.333545204252005" lon="6.962312953546643"><ele></ele><time>2013-9-9T19:11:44Z</time></trkpt>
<trkpt lat="46.333532966673374" lon="6.962258219718933"><ele></ele><time>2013-9-9T19:11:47Z</time></trkpt>
<trkpt lat="46.333530619740486" lon="6.96220968849957"><ele></ele><time>2013-9-9T19:11:50Z</time></trkpt>
<trkpt lat="46.333537325263023" lon="6.962165432050824"><ele></ele><time>2013-9-9T19:11:53Z</time></trkpt>
<trkpt lat="46.333564147353172" lon="6.962046828120947"><ele></ele><time>2013-9-9T19:11:56Z</time></trkpt>
<trkpt lat="46.333579402416945" lon="6.962012881413102"><ele></ele><time>2013-9-9T19:11:59Z</time></trkpt>
<trkpt lat="46.333596417680383" lon="6.961977006867528"><ele></ele><time>2013-9-9T19:12:2Z</time></trkpt>
<trkpt lat="46.333617707714438" lon="6.961940545588732"><ele></ele><time>2013-9-9T19:12:5Z</time></trkpt>
<trkpt lat="46.333638997748494" lon="6.961900312453508"><ele></ele><time>2013-9-9T19:12:8Z</time></trkpt>
<trkpt lat="46.333688450977206" lon="6.961804591119289"><ele></ele><time>2013-9-9T19:12:11Z</time></trkpt>
<trkpt lat="46.333716614171863" lon="6.96175329387188"><ele></ele><time>2013-9-9T19:12:14Z</time></trkpt>
<trkpt lat="46.333747711032629" lon="6.961703505367041"><ele></ele><time>2013-9-9T19:12:17Z</time></trkpt>
<trkpt lat="46.333779897540808" lon="6.961656650528312"><ele></ele><time>2013-9-9T19:12:20Z</time></trkpt>
<trkpt lat="46.333813760429621" lon="6.961606778204441"><ele></ele><time>2013-9-9T19:12:23Z</time></trkpt>
<trkpt lat="46.334000173956156" lon="6.961326655000448"><ele></ele><time>2013-9-9T19:12:26Z</time></trkpt>
<trkpt lat="46.334039065986872" lon="6.961266724392772"><ele></ele><time>2013-9-9T19:12:29Z</time></trkpt>
<trkpt lat="46.33407611399889" lon="6.961210984736681"><ele></ele><time>2013-9-9T19:12:32Z</time></trkpt>
<trkpt lat="46.334111820906401" lon="6.961154574528337"><ele></ele><time>2013-9-9T19:12:35Z</time></trkpt>
<trkpt lat="46.334147276356816" lon="6.961096990853548"><ele></ele><time>2013-9-9T19:12:38Z</time></trkpt>
<trkpt lat="46.334185833111405" lon="6.961039658635855"><ele></ele><time>2013-9-9T19:12:41Z</time></trkpt>
<trkpt lat="46.334225060418248" lon="6.960983918979764"><ele></ele><time>2013-9-9T19:12:44Z</time></trkpt>
<trkpt lat="46.334263868629932" lon="6.960927257314324"><ele></ele><time>2013-9-9T19:12:47Z</time></trkpt>
<trkpt lat="46.334301671013236" lon="6.96087084710598"><ele></ele><time>2013-9-9T19:12:50Z</time></trkpt>
<trkpt lat="46.334338635206223" lon="6.960810665041208"><ele></ele><time>2013-9-9T19:12:53Z</time></trkpt>
<trkpt lat="46.334376772865653" lon="6.960749560967088"><ele></ele><time>2013-9-9T19:12:56Z</time></trkpt>
<trkpt lat="46.3344572391361" lon="6.960624335333705"><ele></ele><time>2013-9-9T19:12:59Z</time></trkpt>
<trkpt lat="46.334656812250614" lon="6.960319485515356"><ele></ele><time>2013-9-9T19:13:2Z</time></trkpt>
<trkpt lat="46.334698386490345" lon="6.960258465260267"><ele></ele><time>2013-9-9T19:13:5Z</time></trkpt>
<trkpt lat="46.334740966558456" lon="6.960193337872624"><ele></ele><time>2013-9-9T19:13:8Z</time></trkpt>
<trkpt lat="46.334786312654614" lon="6.960127372294664"><ele></ele><time>2013-9-9T19:13:11Z</time></trkpt>
<trkpt lat="46.334832413122058" lon="6.960064340382814"><ele></ele><time>2013-9-9T19:13:14Z</time></trkpt>
<trkpt lat="46.334880609065294" lon="6.960005667060614"><ele></ele><time>2013-9-9T19:13:17Z</time></trkpt>
<trkpt lat="46.334935342893004" lon="6.959946155548096"><ele></ele><time>2013-9-9T19:13:20Z</time></trkpt>
<trkpt lat="46.334991417825222" lon="6.959888907149434"><ele></ele><time>2013-9-9T19:13:23Z</time></trkpt>
<trkpt lat="46.335049504414201" lon="6.959834089502692"><ele></ele><time>2013-9-9T19:13:26Z</time></trkpt>
<trkpt lat="46.335107171908021" lon="6.959782373160124"><ele></ele><time>2013-9-9T19:13:29Z</time></trkpt>
<trkpt lat="46.335165509954095" lon="6.959729734808207"><ele></ele><time>2013-9-9T19:13:32Z</time></trkpt>
<trkpt lat="46.33527522906661" lon="6.959614232182503"><ele></ele><time>2013-9-9T19:13:35Z</time></trkpt>
<trkpt lat="46.335330298170447" lon="6.959548685699701"><ele></ele><time>2013-9-9T19:13:38Z</time></trkpt>
<trkpt lat="46.33537002839148" lon="6.959477858617902"><ele></ele><time>2013-9-9T19:13:41Z</time></trkpt>
<trkpt lat="46.33538905531168" lon="6.959410384297371"><ele></ele><time>2013-9-9T19:13:44Z</time></trkpt>
<trkpt lat="46.335395593196154" lon="6.959358416497707"><ele></ele><time>2013-9-9T19:13:47Z</time></trkpt>
<trkpt lat="46.335387462750077" lon="6.95931357331574"><ele></ele><time>2013-9-9T19:13:50Z</time></trkpt>
<trkpt lat="46.335361814126372" lon="6.959266969934106"><ele></ele><time>2013-9-9T19:13:53Z</time></trkpt>
<trkpt lat="46.335331806913018" lon="6.959230592474341"><ele></ele><time>2013-9-9T19:13:56Z</time></trkpt>
<trkpt lat="46.335296016186476" lon="6.959197400137782"><ele></ele><time>2013-9-9T19:13:59Z</time></trkpt>
<trkpt lat="46.335254861041903" lon="6.959163537248969"><ele></ele><time>2013-9-9T19:14:2Z</time></trkpt>
<trkpt lat="46.335209347307682" lon="6.9591274112463"><ele></ele><time>2013-9-9T19:14:5Z</time></trkpt>
<trkpt lat="46.33515645749867" lon="6.959088686853647"><ele></ele><time>2013-9-9T19:14:8Z</time></trkpt>
<trkpt lat="46.335097113624215" lon="6.959048118442297"><ele></ele><time>2013-9-9T19:14:11Z</time></trkpt>
<trkpt lat="46.335030645132065" lon="6.959005119279027"><ele></ele><time>2013-9-9T19:14:14Z</time></trkpt>
<trkpt lat="46.334962751716375" lon="6.958962371572852"><ele></ele><time>2013-9-9T19:14:17Z</time></trkpt>
<trkpt lat="46.334883123636246" lon="6.958900261670351"><ele></ele><time>2013-9-9T19:14:20Z</time></trkpt>
<trkpt lat="46.334787905216217" lon="6.95881761610508"><ele></ele><time>2013-9-9T19:14:23Z</time></trkpt>
<trkpt lat="46.334683215245605" lon="6.958724241703749"><ele></ele><time>2013-9-9T19:14:26Z</time></trkpt>
<trkpt lat="46.334578860551119" lon="6.958627263084054"><ele></ele><time>2013-9-9T19:14:29Z</time></trkpt>
<trkpt lat="46.334476685151458" lon="6.958532966673374"><ele></ele><time>2013-9-9T19:14:32Z</time></trkpt>
<trkpt lat="46.334374090656638" lon="6.958440681919456"><ele></ele><time>2013-9-9T19:14:35Z</time></trkpt>
<trkpt lat="46.334274094551802" lon="6.958352169021964"><ele></ele><time>2013-9-9T19:14:38Z</time></trkpt>
<trkpt lat="46.334167225286365" lon="6.958263739943504"><ele></ele><time>2013-9-9T19:14:41Z</time></trkpt>
<trkpt lat="46.33406488224864" lon="6.95817849598825"><ele></ele><time>2013-9-9T19:14:44Z</time></trkpt>
<trkpt lat="46.333964467048645" lon="6.958094593137503"><ele></ele><time>2013-9-9T19:14:47Z</time></trkpt>
<trkpt lat="46.333864303305745" lon="6.958011528477073"><ele></ele><time>2013-9-9T19:14:50Z</time></trkpt>
<trkpt lat="46.333763552829623" lon="6.957927625626326"><ele></ele><time>2013-9-9T19:14:53Z</time></trkpt>
<trkpt lat="46.333660706877708" lon="6.957839364185929"><ele></ele><time>2013-9-9T19:14:56Z</time></trkpt>
<trkpt lat="46.333561129868031" lon="6.957741631194949"><ele></ele><time>2013-9-9T19:14:59Z</time></trkpt>
<trkpt lat="46.333475718274713" lon="6.957640126347542"><ele></ele><time>2013-9-9T19:15:2Z</time></trkpt>
<trkpt lat="46.333395419642329" lon="6.957528982311487"><ele></ele><time>2013-9-9T19:15:5Z</time></trkpt>
<trkpt lat="46.333321575075388" lon="6.957424711436033"><ele></ele><time>2013-9-9T19:15:8Z</time></trkpt>
<trkpt lat="46.333240522071719" lon="6.957319099456072"><ele></ele><time>2013-9-9T19:15:11Z</time></trkpt>
<trkpt lat="46.33315896615386" lon="6.957223042845726"><ele></ele><time>2013-9-9T19:15:14Z</time></trkpt>
<trkpt lat="46.333078583702445" lon="6.957147354260087"><ele></ele><time>2013-9-9T19:15:17Z</time></trkpt>
<trkpt lat="46.332992082461715" lon="6.957087423652411"><ele></ele><time>2013-9-9T19:15:20Z</time></trkpt>
<trkpt lat="46.332901557907462" lon="6.957048447802663"><ele></ele><time>2013-9-9T19:15:23Z</time></trkpt>
<trkpt lat="46.332810614258051" lon="6.957025732845068"><ele></ele><time>2013-9-9T19:15:26Z</time></trkpt>
<trkpt lat="46.332726711407304" lon="6.957021877169609"><ele></ele><time>2013-9-9T19:15:29Z</time></trkpt>
<trkpt lat="46.33265663869679" lon="6.957046436145902"><ele></ele><time>2013-9-9T19:15:32Z</time></trkpt>
<trkpt lat="46.332599725574255" lon="6.957095051184297"><ele></ele><time>2013-9-9T19:15:35Z</time></trkpt>
<trkpt lat="46.332549517974257" lon="6.957158586010337"><ele></ele><time>2013-9-9T19:15:38Z</time></trkpt>
<trkpt lat="46.332512218505144" lon="6.957230418920517"><ele></ele><time>2013-9-9T19:15:41Z</time></trkpt>
<trkpt lat="46.332478523254395" lon="6.957305939868093"><ele></ele><time>2013-9-9T19:15:44Z</time></trkpt>
<trkpt lat="46.332444828003645" lon="6.957390932366252"><ele></ele><time>2013-9-9T19:15:47Z</time></trkpt>
<trkpt lat="46.332430159673095" lon="6.957492521032691"><ele></ele><time>2013-9-9T19:15:50Z</time></trkpt>
<trkpt lat="46.332412473857403" lon="6.957597462460399"><ele></ele><time>2013-9-9T19:15:53Z</time></trkpt>
<trkpt lat="46.332385232672095" lon="6.957692597061396"><ele></ele><time>2013-9-9T19:15:56Z</time></trkpt>
<trkpt lat="46.332355979830027" lon="6.957778176292777"><ele></ele><time>2013-9-9T19:15:59Z</time></trkpt>
<trkpt lat="46.332320356741548" lon="6.957836681976914"><ele></ele><time>2013-9-9T19:16:2Z</time></trkpt>
<trkpt lat="46.332276770845056" lon="6.957865096628666"><ele></ele><time>2013-9-9T19:16:5Z</time></trkpt>
<trkpt lat="46.332229748368263" lon="6.957870377227664"><ele></ele><time>2013-9-9T19:16:8Z</time></trkpt>
<trkpt lat="46.332167470827699" lon="6.95786970667541"><ele></ele><time>2013-9-9T19:16:11Z</time></trkpt>
<trkpt lat="46.33210452273488" lon="6.957887141034007"><ele></ele><time>2013-9-9T19:16:14Z</time></trkpt>
<trkpt lat="46.332054147496819" lon="6.957931146025658"><ele></ele><time>2013-9-9T19:16:17Z</time></trkpt>
<trkpt lat="46.332014501094818" lon="6.957998620346189"><ele></ele><time>2013-9-9T19:16:20Z</time></trkpt>
<trkpt lat="46.331984493881464" lon="6.958084367215633"><ele></ele><time>2013-9-9T19:16:23Z</time></trkpt>
<trkpt lat="46.331956833600998" lon="6.958178328350186"><ele></ele><time>2013-9-9T19:16:26Z</time></trkpt>
<trkpt lat="46.331926407292485" lon="6.958281928673387"><ele></ele><time>2013-9-9T19:16:29Z</time></trkpt>
<trkpt lat="46.331893047317863" lon="6.958385612815619"><ele></ele><time>2013-9-9T19:16:32Z</time></trkpt>
<trkpt lat="46.33185675367713" lon="6.958490470424295"><ele></ele><time>2013-9-9T19:16:35Z</time></trkpt>
<trkpt lat="46.331812161952257" lon="6.958589628338814"><ele></ele><time>2013-9-9T19:16:38Z</time></trkpt>
<trkpt lat="46.331761283800006" lon="6.958677805960178"><ele></ele><time>2013-9-9T19:16:41Z</time></trkpt>
<trkpt lat="46.331710908561945" lon="6.958766486495733"><ele></ele><time>2013-9-9T19:16:44Z</time></trkpt>
<trkpt lat="46.331658186390996" lon="6.958851227536798"><ele></ele><time>2013-9-9T19:16:47Z</time></trkpt>
<trkpt lat="46.331600183621049" lon="6.958928424865007"><ele></ele><time>2013-9-9T19:16:50Z</time></trkpt>
<trkpt lat="46.331477556377649" lon="6.959072006866336"><ele></ele><time>2013-9-9T19:16:53Z</time></trkpt>
<trkpt lat="46.331416787579656" lon="6.959140906110406"><ele></ele><time>2013-9-9T19:16:56Z</time></trkpt>
<trkpt lat="46.331355096772313" lon="6.959207709878683"><ele></ele><time>2013-9-9T19:16:59Z</time></trkpt>
<trkpt lat="46.331298435106874" lon="6.959266047924757"><ele></ele><time>2013-9-9T19:17:2Z</time></trkpt>
<trkpt lat="46.331215370446444" lon="6.959291780367494"><ele></ele><time>2013-9-9T19:17:5Z</time></trkpt>
<trkpt lat="46.331069190055132" lon="6.959344167262316"><ele></ele><time>2013-9-9T19:17:8Z</time></trkpt>
<trkpt lat="46.331008924171329" lon="6.959372665733099"><ele></ele><time>2013-9-9T19:17:11Z</time></trkpt>
<trkpt lat="46.330951927229762" lon="6.959398984909058"><ele></ele><time>2013-9-9T19:17:14Z</time></trkpt>
<trkpt lat="46.330891074612737" lon="6.95942253805697"><ele></ele><time>2013-9-9T19:17:17Z</time></trkpt>
<trkpt lat="46.330835837870836" lon="6.959441564977169"><ele></ele><time>2013-9-9T19:17:20Z</time></trkpt>
<trkpt lat="46.330700889229774" lon="6.959509877488017"><ele></ele><time>2013-9-9T19:17:23Z</time></trkpt>
<trkpt lat="46.330660991370678" lon="6.959533598273993"><ele></ele><time>2013-9-9T19:17:26Z</time></trkpt>
<trkpt lat="46.330622602254152" lon="6.959557821974158"><ele></ele><time>2013-9-9T19:17:29Z</time></trkpt>
<trkpt lat="46.330584129318595" lon="6.959582213312388"><ele></ele><time>2013-9-9T19:17:32Z</time></trkpt>
<trkpt lat="46.33054917678237" lon="6.959603168070316"><ele></ele><time>2013-9-9T19:17:35Z</time></trkpt>
<trkpt lat="46.330519001930952" lon="6.959622111171484"><ele></ele><time>2013-9-9T19:17:38Z</time></trkpt>
<trkpt lat="46.330461921170354" lon="6.959658656269312"><ele></ele><time>2013-9-9T19:17:41Z</time></trkpt>
<trkpt lat="46.330355973914266" lon="6.959733255207539"><ele></ele><time>2013-9-9T19:17:44Z</time></trkpt>
<trkpt lat="46.330330660566688" lon="6.959753539413214"><ele></ele><time>2013-9-9T19:17:47Z</time></trkpt>
<trkpt lat="46.330304341390729" lon="6.959780529141426"><ele></ele><time>2013-9-9T19:17:50Z</time></trkpt>
<trkpt lat="46.330281542614102" lon="6.95981590077281"><ele></ele><time>2013-9-9T19:17:53Z</time></trkpt>
<trkpt lat="46.330251703038812" lon="6.959834173321724"><ele></ele><time>2013-9-9T19:17:56Z</time></trkpt>
<trkpt lat="46.330221863463521" lon="6.959857810288668"><ele></ele><time>2013-9-9T19:17:59Z</time></trkpt>
<trkpt lat="46.330189928412437" lon="6.959884213283658"><ele></ele><time>2013-9-9T19:18:2Z</time></trkpt>
<trkpt lat="46.330156233161688" lon="6.959918159991503"><ele></ele><time>2013-9-9T19:18:5Z</time></trkpt>
<trkpt lat="46.330122286453843" lon="6.95995369926095"><ele></ele><time>2013-9-9T19:18:8Z</time></trkpt>
<trkpt lat="46.330051207914948" lon="6.960034668445587"><ele></ele><time>2013-9-9T19:18:11Z</time></trkpt>
<trkpt lat="46.330014495179057" lon="6.960081271827221"><ele></ele><time>2013-9-9T19:18:14Z</time></trkpt>
<trkpt lat="46.329975770786405" lon="6.960130305960774"><ele></ele><time>2013-9-9T19:18:17Z</time></trkpt>
<trkpt lat="46.329935202375054" lon="6.960186632350087"><ele></ele><time>2013-9-9T19:18:20Z</time></trkpt>
<trkpt lat="46.329889940097928" lon="6.960243294015527"><ele></ele><time>2013-9-9T19:18:23Z</time></trkpt>
<trkpt lat="46.329843169078231" lon="6.960300458595157"><ele></ele><time>2013-9-9T19:18:26Z</time></trkpt>
<trkpt lat="46.329793967306614" lon="6.960362568497658"><ele></ele><time>2013-9-9T19:18:29Z</time></trkpt>
<trkpt lat="46.329747028648853" lon="6.960424594581127"><ele></ele><time>2013-9-9T19:18:32Z</time></trkpt>
<trkpt lat="46.329700509086251" lon="6.960488464683294"><ele></ele><time>2013-9-9T19:18:35Z</time></trkpt>
<trkpt lat="46.329385936260223" lon="6.960983583703637"><ele></ele><time>2013-9-9T19:18:38Z</time></trkpt>
<trkpt lat="46.329178735613823" lon="6.961542740464211"><ele></ele><time>2013-9-9T19:18:41Z</time></trkpt>
<trkpt lat="46.328964326530695" lon="6.96202696301043"><ele></ele><time>2013-9-9T19:18:44Z</time></trkpt>
<trkpt lat="46.328932642936707" lon="6.962085133418441"><ele></ele><time>2013-9-9T19:18:47Z</time></trkpt>
<trkpt lat="46.328898528590798" lon="6.962143555283546"><ele></ele><time>2013-9-9T19:18:50Z</time></trkpt>
<trkpt lat="46.328861648216844" lon="6.962202396243811"><ele></ele><time>2013-9-9T19:18:53Z</time></trkpt>
<trkpt lat="46.328819906339049" lon="6.962261321023107"><ele></ele><time>2013-9-9T19:18:56Z</time></trkpt>
<trkpt lat="46.328643299639225" lon="6.962494505569339"><ele></ele><time>2013-9-9T19:18:59Z</time></trkpt>
<trkpt lat="46.328597450628877" lon="6.962548904120922"><ele></ele><time>2013-9-9T19:19:2Z</time></trkpt>
<trkpt lat="46.32855168543756" lon="6.962603470310569"><ele></ele><time>2013-9-9T19:19:5Z</time></trkpt>
<trkpt lat="46.32850625552237" lon="6.962661053985357"><ele></ele><time>2013-9-9T19:19:8Z</time></trkpt>
<trkpt lat="46.328458981588483" lon="6.962720649316907"><ele></ele><time>2013-9-9T19:19:11Z</time></trkpt>
<trkpt lat="46.328217918053269" lon="6.963005717843771"><ele></ele><time>2013-9-9T19:19:14Z</time></trkpt>
<trkpt lat="46.328166788443923" lon="6.963063469156623"><ele></ele><time>2013-9-9T19:19:17Z</time></trkpt>
<trkpt lat="46.328112641349435" lon="6.963125495240092"><ele></ele><time>2013-9-9T19:19:20Z</time></trkpt>
<trkpt lat="46.328059500083327" lon="6.96318693459034"><ele></ele><time>2013-9-9T19:19:23Z</time></trkpt>
<trkpt lat="46.328005017712712" lon="6.963248206302524"><ele></ele><time>2013-9-9T19:19:26Z</time></trkpt>
<trkpt lat="46.327947434037924" lon="6.963307382538915"><ele></ele><time>2013-9-9T19:19:29Z</time></trkpt>
<trkpt lat="46.327888257801533" lon="6.963363876566291"><ele></ele><time>2013-9-9T19:19:32Z</time></trkpt>
<trkpt lat="46.32782849483192" lon="6.963416514918208"><ele></ele><time>2013-9-9T19:19:35Z</time></trkpt>
<trkpt lat="46.327769318595529" lon="6.963460939005017"><ele></ele><time>2013-9-9T19:19:38Z</time></trkpt>
<trkpt lat="46.327710142359138" lon="6.963507123291493"><ele></ele><time>2013-9-9T19:19:41Z</time></trkpt>
<trkpt lat="46.327396659180522" lon="6.963748522102833"><ele></ele><time>2013-9-9T19:19:44Z</time></trkpt>
<trkpt lat="46.327339326962829" lon="6.963796550408006"><ele></ele><time>2013-9-9T19:19:47Z</time></trkpt>
<trkpt lat="46.327283168211579" lon="6.963843405246735"><ele></ele><time>2013-9-9T19:19:50Z</time></trkpt>
<trkpt lat="46.327226422727108" lon="6.963891433551908"><ele></ele><time>2013-9-9T19:19:53Z</time></trkpt>
<trkpt lat="46.327164648100734" lon="6.963941138237715"><ele></ele><time>2013-9-9T19:19:56Z</time></trkpt>
<trkpt lat="46.326839430257678" lon="6.964157475158572"><ele></ele><time>2013-9-9T19:19:59Z</time></trkpt>
<trkpt lat="46.326772877946496" lon="6.964199971407652"><ele></ele><time>2013-9-9T19:20:2Z</time></trkpt>
<trkpt lat="46.326703894883394" lon="6.964243389666081"><ele></ele><time>2013-9-9T19:20:5Z</time></trkpt>
<trkpt lat="46.326631307601929" lon="6.964287059381604"><ele></ele><time>2013-9-9T19:20:8Z</time></trkpt>
<trkpt lat="46.326561737805605" lon="6.964327963069081"><ele></ele><time>2013-9-9T19:20:11Z</time></trkpt>
<trkpt lat="46.326491916552186" lon="6.964368028566241"><ele></ele><time>2013-9-9T19:20:14Z</time></trkpt>
<trkpt lat="46.326421340927482" lon="6.96440851315856"><ele></ele><time>2013-9-9T19:20:17Z</time></trkpt>
<trkpt lat="46.326349759474397" lon="6.964448746293783"><ele></ele><time>2013-9-9T19:20:20Z</time></trkpt>
<trkpt lat="46.326278010383248" lon="6.964489482343197"><ele></ele><time>2013-9-9T19:20:23Z</time></trkpt>
<trkpt lat="46.32620676420629" lon="6.964530302211642"><ele></ele><time>2013-9-9T19:20:26Z</time></trkpt>
<trkpt lat="46.326063517481089" lon="6.964609008282423"><ele></ele><time>2013-9-9T19:20:29Z</time></trkpt>
<trkpt lat="46.325994869694114" lon="6.964645804837346"><ele></ele><time>2013-9-9T19:20:32Z</time></trkpt>
<trkpt lat="46.325925718992949" lon="6.964682601392269"><ele></ele><time>2013-9-9T19:20:35Z</time></trkpt>
<trkpt lat="46.325855813920498" lon="6.964716883376241"><ele></ele><time>2013-9-9T19:20:38Z</time></trkpt>
<trkpt lat="46.32578557357192" lon="6.9647466391325"><ele></ele><time>2013-9-9T19:20:41Z</time></trkpt>
<trkpt lat="46.32550704292953" lon="6.964829033240676"><ele></ele><time>2013-9-9T19:20:44Z</time></trkpt>
<trkpt lat="46.325439317151904" lon="6.964842025190592"><ele></ele><time>2013-9-9T19:20:47Z</time></trkpt>
<trkpt lat="46.32536924444139" lon="6.964853256940842"><ele></ele><time>2013-9-9T19:20:50Z</time></trkpt>
<trkpt lat="46.325297746807337" lon="6.964861303567886"><ele></ele><time>2013-9-9T19:20:53Z</time></trkpt>
<trkpt lat="46.325227087363601" lon="6.96486490778625"><ele></ele><time>2013-9-9T19:20:56Z</time></trkpt>
<trkpt lat="46.32515718229115" lon="6.964865662157536"><ele></ele><time>2013-9-9T19:20:59Z</time></trkpt>
<trkpt lat="46.325082499533892" lon="6.964864321053028"><ele></ele><time>2013-9-9T19:21:2Z</time></trkpt>
<trkpt lat="46.324868593364954" lon="6.964858118444681"><ele></ele><time>2013-9-9T19:21:5Z</time></trkpt>
<trkpt lat="46.324798269197345" lon="6.964851999655366"><ele></ele><time>2013-9-9T19:21:8Z</time></trkpt>
<trkpt lat="46.324727525934577" lon="6.964848395437002"><ele></ele><time>2013-9-9T19:21:11Z</time></trkpt>
<trkpt lat="46.324655693024397" lon="6.964847641065717"><ele></ele><time>2013-9-9T19:21:14Z</time></trkpt>
<trkpt lat="46.324506914243102" lon="6.964861135929823"><ele></ele><time>2013-9-9T19:21:17Z</time></trkpt>
<trkpt lat="46.3244344945997" lon="6.964874044060707"><ele></ele><time>2013-9-9T19:21:20Z</time></trkpt>
<trkpt lat="46.324364924803376" lon="6.964890556409955"><ele></ele><time>2013-9-9T19:21:23Z</time></trkpt>
<trkpt lat="46.324291583150625" lon="6.964913690462709"><ele></ele><time>2013-9-9T19:21:26Z</time></trkpt>
<trkpt lat="46.324217403307557" lon="6.964938333258033"><ele></ele><time>2013-9-9T19:21:29Z</time></trkpt>
<trkpt lat="46.324073737487197" lon="6.96499926969409"><ele></ele><time>2013-9-9T19:21:32Z</time></trkpt>
<trkpt lat="46.324003078043461" lon="6.965033719316125"><ele></ele><time>2013-9-9T19:21:35Z</time></trkpt>
<trkpt lat="46.323927389457822" lon="6.965073449537158"><ele></ele><time>2013-9-9T19:21:38Z</time></trkpt>
<trkpt lat="46.323854215443134" lon="6.965111838653684"><ele></ele><time>2013-9-9T19:21:41Z</time></trkpt>
<trkpt lat="46.323782885447145" lon="6.965148383751512"><ele></ele><time>2013-9-9T19:21:44Z</time></trkpt>
<trkpt lat="46.323366053402424" lon="6.96538676507771"><ele></ele><time>2013-9-9T19:21:47Z</time></trkpt>
<trkpt lat="46.323301764205098" lon="6.965434877201915"><ele></ele><time>2013-9-9T19:21:50Z</time></trkpt>
<trkpt lat="46.323234960436821" lon="6.965491371229291"><ele></ele><time>2013-9-9T19:21:53Z</time></trkpt>
<trkpt lat="46.323169078677893" lon="6.965550631284714"><ele></ele><time>2013-9-9T19:21:56Z</time></trkpt>
<trkpt lat="46.323105962947011" lon="6.965612573549151"><ele></ele><time>2013-9-9T19:21:59Z</time></trkpt>
<trkpt lat="46.322804465889931" lon="6.965942149981856"><ele></ele><time>2013-9-9T19:22:2Z</time></trkpt>
<trkpt lat="46.322742775082588" lon="6.966011300683022"><ele></ele><time>2013-9-9T19:22:5Z</time></trkpt>
<trkpt lat="46.322680246084929" lon="6.966083468869329"><ele></ele><time>2013-9-9T19:22:8Z</time></trkpt>
<trkpt lat="46.322618890553713" lon="6.966159492731094"><ele></ele><time>2013-9-9T19:22:11Z</time></trkpt>
<trkpt lat="46.322556529194117" lon="6.966236270964146"><ele></ele><time>2013-9-9T19:22:14Z</time></trkpt>
<trkpt lat="46.322489222511649" lon="6.966320341452956"><ele></ele><time>2013-9-9T19:22:17Z</time></trkpt>
<trkpt lat="46.322426274418831" lon="6.966401981189847"><ele></ele><time>2013-9-9T19:22:20Z</time></trkpt>
<trkpt lat="46.322365086525679" lon="6.966487811878324"><ele></ele><time>2013-9-9T19:22:23Z</time></trkpt>
<trkpt lat="46.322303814813495" lon="6.966578923165798"><ele></ele><time>2013-9-9T19:22:26Z</time></trkpt>
<trkpt lat="46.322245057672262" lon="6.966670788824558"><ele></ele><time>2013-9-9T19:22:29Z</time></trkpt>
<trkpt lat="46.322188647463918" lon="6.966767180711031"><ele></ele><time>2013-9-9T19:22:32Z</time></trkpt>
<trkpt lat="46.322133745998144" lon="6.966867763549089"><ele></ele><time>2013-9-9T19:22:35Z</time></trkpt>
<trkpt lat="46.322081191465259" lon="6.966970022767782"><ele></ele><time>2013-9-9T19:22:38Z</time></trkpt>
<trkpt lat="46.322025451809168" lon="6.967075634747744"><ele></ele><time>2013-9-9T19:22:41Z</time></trkpt>
<trkpt lat="46.321972981095314" lon="6.967174038290978"><ele></ele><time>2013-9-9T19:22:44Z</time></trkpt>
<trkpt lat="46.321750273928046" lon="6.967609645798802"><ele></ele><time>2013-9-9T19:22:47Z</time></trkpt>
<trkpt lat="46.321667796000838" lon="6.96784408763051"><ele></ele><time>2013-9-9T19:22:50Z</time></trkpt>
<trkpt lat="46.321645500138402" lon="6.967913741245866"><ele></ele><time>2013-9-9T19:22:53Z</time></trkpt>
<trkpt lat="46.321624713018537" lon="6.96797744370997"><ele></ele><time>2013-9-9T19:22:56Z</time></trkpt>
<trkpt lat="46.321602668613195" lon="6.968035446479917"><ele></ele><time>2013-9-9T19:22:59Z</time></trkpt>
<trkpt lat="46.321578780189157" lon="6.9680898450315"><ele></ele><time>2013-9-9T19:23:2Z</time></trkpt>
<trkpt lat="46.32155011408031" lon="6.968133095651865"><ele></ele><time>2013-9-9T19:23:5Z</time></trkpt>
<trkpt lat="46.321510802954435" lon="6.968155559152365"><ele></ele><time>2013-9-9T19:23:8Z</time></trkpt>
<trkpt lat="46.321430001407862" lon="6.968092862516642"><ele></ele><time>2013-9-9T19:23:11Z</time></trkpt>
<trkpt lat="46.321299998089671" lon="6.96797258220613"><ele></ele><time>2013-9-9T19:23:14Z</time></trkpt>
<trkpt lat="46.321269990876317" lon="6.967968810349703"><ele></ele><time>2013-9-9T19:23:17Z</time></trkpt>
<trkpt lat="46.321182399988174" lon="6.967969732359052"><ele></ele><time>2013-9-9T19:23:20Z</time></trkpt>
<trkpt lat="46.32115482352674" lon="6.967976102605462"><ele></ele><time>2013-9-9T19:23:23Z</time></trkpt>
<trkpt lat="46.321127414703369" lon="6.967987669631839"><ele></ele><time>2013-9-9T19:23:26Z</time></trkpt>
<trkpt lat="46.321099251508713" lon="6.968002505600452"><ele></ele><time>2013-9-9T19:23:29Z</time></trkpt>
<trkpt lat="46.321067400276661" lon="6.968017928302288"><ele></ele><time>2013-9-9T19:23:32Z</time></trkpt>
<trkpt lat="46.32079565897584" lon="6.968142818659544"><ele></ele><time>2013-9-9T19:23:35Z</time></trkpt>
<trkpt lat="46.320560211315751" lon="6.968203671276569"><ele></ele><time>2013-9-9T19:23:38Z</time></trkpt>
<trkpt lat="46.320542357861996" lon="6.968187661841512"><ele></ele><time>2013-9-9T19:23:41Z</time></trkpt>
<trkpt lat="46.320505058392882" lon="6.968132592737675"><ele></ele><time>2013-9-9T19:23:44Z</time></trkpt>
<trkpt lat="46.320455772802234" lon="6.968098562210798"><ele></ele><time>2013-9-9T19:23:47Z</time></trkpt>
<trkpt lat="46.32041797041893" lon="6.968106860294938"><ele></ele><time>2013-9-9T19:23:50Z</time></trkpt>
<trkpt lat="46.320277992635965" lon="6.968187494203448"><ele></ele><time>2013-9-9T19:23:53Z</time></trkpt>
<trkpt lat="46.320252511650324" lon="6.968197887763381"><ele></ele><time>2013-9-9T19:23:56Z</time></trkpt>
<trkpt lat="46.320223761722445" lon="6.968208281323314"><ele></ele><time>2013-9-9T19:23:59Z</time></trkpt>
<trkpt lat="46.320194257423282" lon="6.968218423426151"><ele></ele><time>2013-9-9T19:24:2Z</time></trkpt>
<trkpt lat="46.320155700668693" lon="6.968227308243513"><ele></ele><time>2013-9-9T19:24:5Z</time></trkpt>
<trkpt lat="46.320124436169863" lon="6.968238120898604"><ele></ele><time>2013-9-9T19:24:8Z</time></trkpt>
<trkpt lat="46.320060985162854" lon="6.968260584399104"><ele></ele><time>2013-9-9T19:24:11Z</time></trkpt>
<trkpt lat="46.31974121555686" lon="6.968280281871557"><ele></ele><time>2013-9-9T19:24:14Z</time></trkpt>
<trkpt lat="46.319333184510469" lon="6.968268882483244"><ele></ele><time>2013-9-9T19:24:17Z</time></trkpt>
<trkpt lat="46.319010816514492" lon="6.968242814764381"><ele></ele><time>2013-9-9T19:24:20Z</time></trkpt>
<trkpt lat="46.318778218701482" lon="6.968273911625147"><ele></ele><time>2013-9-9T19:24:23Z</time></trkpt>
<trkpt lat="46.318540927022696" lon="6.968379691243172"><ele></ele><time>2013-9-9T19:24:26Z</time></trkpt>
<trkpt lat="46.318360967561603" lon="6.968598878011107"><ele></ele><time>2013-9-9T19:24:29Z</time></trkpt>
<trkpt lat="46.318222666159272" lon="6.968684792518616"><ele></ele><time>2013-9-9T19:24:32Z</time></trkpt>
<trkpt lat="46.318191988393664" lon="6.968770958483219"><ele></ele><time>2013-9-9T19:24:35Z</time></trkpt>
<trkpt lat="46.318183187395334" lon="6.968784034252167"><ele></ele><time>2013-9-9T19:24:38Z</time></trkpt>
<trkpt lat="46.318180756643414" lon="6.968600889667869"><ele></ele><time>2013-9-9T19:24:41Z</time></trkpt>
<trkpt lat="46.318192826583982" lon="6.968480776995421"><ele></ele><time>2013-9-9T19:24:44Z</time></trkpt>
<trkpt lat="46.318199448287487" lon="6.968392934650183"><ele></ele><time>2013-9-9T19:24:47Z</time></trkpt>
<trkpt lat="46.31820447742939" lon="6.968326633796096"><ele></ele><time>2013-9-9T19:24:50Z</time></trkpt>
<trkpt lat="46.318218726664782" lon="6.968282964080572"><ele></ele><time>2013-9-9T19:24:53Z</time></trkpt>
<trkpt lat="46.318178912624717" lon="6.967958332970738"><ele></ele><time>2013-9-9T19:24:56Z</time></trkpt>
<trkpt lat="46.318087130784988" lon="6.96757729165256"><ele></ele><time>2013-9-9T19:24:59Z</time></trkpt>
<trkpt lat="46.318070199340582" lon="6.967503111809492"><ele></ele><time>2013-9-9T19:25:2Z</time></trkpt>
<trkpt lat="46.318050166592002" lon="6.967431865632534"><ele></ele><time>2013-9-9T19:25:5Z</time></trkpt>
<trkpt lat="46.318028289824724" lon="6.967363301664591"><ele></ele><time>2013-9-9T19:25:8Z</time></trkpt>
<trkpt lat="46.31800607778132" lon="6.967295659705997"><ele></ele><time>2013-9-9T19:25:11Z</time></trkpt>
<trkpt lat="46.317938016727567" lon="6.967070857062936"><ele></ele><time>2013-9-9T19:25:14Z</time></trkpt>
<trkpt lat="46.317919995635748" lon="6.966990977525711"><ele></ele><time>2013-9-9T19:25:17Z</time></trkpt>
<trkpt lat="46.317900465801358" lon="6.966911014169455"><ele></ele><time>2013-9-9T19:25:20Z</time></trkpt>
<trkpt lat="46.317878756672144" lon="6.966829709708691"><ele></ele><time>2013-9-9T19:25:23Z</time></trkpt>
<trkpt lat="46.317857885733247" lon="6.966750835999847"><ele></ele><time>2013-9-9T19:25:26Z</time></trkpt>
<trkpt lat="46.317656049504876" lon="6.966082295402885"><ele></ele><time>2013-9-9T19:25:29Z</time></trkpt>
<trkpt lat="46.317622857168317" lon="6.965979281812906"><ele></ele><time>2013-9-9T19:25:32Z</time></trkpt>
<trkpt lat="46.317586479708552" lon="6.965875262394548"><ele></ele><time>2013-9-9T19:25:35Z</time></trkpt>
<trkpt lat="46.317549012601376" lon="6.965769147500396"><ele></ele><time>2013-9-9T19:25:38Z</time></trkpt>
<trkpt lat="46.317515149712563" lon="6.965664960443974"><ele></ele><time>2013-9-9T19:25:41Z</time></trkpt>
<trkpt lat="46.317348517477512" lon="6.965151820331812"><ele></ele><time>2013-9-9T19:25:44Z</time></trkpt>
<trkpt lat="46.317316247150302" lon="6.965048806741834"><ele></ele><time>2013-9-9T19:25:47Z</time></trkpt>
<trkpt lat="46.317285569384694" lon="6.964950319379568"><ele></ele><time>2013-9-9T19:25:50Z</time></trkpt>
<trkpt lat="46.317252041772008" lon="6.964853340759873"><ele></ele><time>2013-9-9T19:25:53Z</time></trkpt>
<trkpt lat="46.317219603806734" lon="6.964757787063718"><ele></ele><time>2013-9-9T19:25:56Z</time></trkpt>
<trkpt lat="46.317189261317253" lon="6.964679416269064"><ele></ele><time>2013-9-9T19:25:59Z</time></trkpt>
<trkpt lat="46.317137209698558" lon="6.964554106816649"><ele></ele><time>2013-9-9T19:26:2Z</time></trkpt>
<trkpt lat="46.317018521949649" lon="6.964133251458406"><ele></ele><time>2013-9-9T19:26:5Z</time></trkpt>
<trkpt lat="46.316922465339303" lon="6.964017916470766"><ele></ele><time>2013-9-9T19:26:8Z</time></trkpt>
<trkpt lat="46.316894134506583" lon="6.964011965319514"><ele></ele><time>2013-9-9T19:26:11Z</time></trkpt>
<trkpt lat="46.316818529739976" lon="6.964025041088462"><ele></ele><time>2013-9-9T19:26:14Z</time></trkpt>
<trkpt lat="46.316779050976038" lon="6.964018670842052"><ele></ele><time>2013-9-9T19:26:17Z</time></trkpt>
<trkpt lat="46.316753486171365" lon="6.963994028046727"><ele></ele><time>2013-9-9T19:26:20Z</time></trkpt>
<trkpt lat="46.316726999357343" lon="6.963947927579284"><ele></ele><time>2013-9-9T19:26:23Z</time></trkpt>
<trkpt lat="46.316716438159347" lon="6.963933343067765"><ele></ele><time>2013-9-9T19:26:26Z</time></trkpt>
<trkpt lat="46.3166584353894" lon="6.963822869583964"><ele></ele><time>2013-9-9T19:26:29Z</time></trkpt>
<trkpt lat="46.316646533086896" lon="6.963803004473448"><ele></ele><time>2013-9-9T19:26:32Z</time></trkpt>
<trkpt lat="46.316652316600084" lon="6.963881375268102"><ele></ele><time>2013-9-9T19:26:35Z</time></trkpt>
<trkpt lat="46.316664973273873" lon="6.963878022506833"><ele></ele><time>2013-9-9T19:26:38Z</time></trkpt>
<trkpt lat="46.316679390147328" lon="6.96386905387044"><ele></ele><time>2013-9-9T19:26:41Z</time></trkpt>
<trkpt lat="46.316690873354673" lon="6.963861174881458"><ele></ele><time>2013-9-9T19:26:44Z</time></trkpt>
<trkpt lat="46.316701686009765" lon="6.963854972273111"><ele></ele><time>2013-9-9T19:26:47Z</time></trkpt>
<trkpt lat="46.316711744293571" lon="6.963852709159255"><ele></ele><time>2013-9-9T19:26:50Z</time></trkpt>
<trkpt lat="46.316721551120281" lon="6.963857235386968"><ele></ele><time>2013-9-9T19:26:53Z</time></trkpt>
<trkpt lat="46.31672884337604" lon="6.963871316984296"><ele></ele><time>2013-9-9T19:26:56Z</time></trkpt>
<trkpt lat="46.316720377653837" lon="6.963916411623359"><ele></ele><time>2013-9-9T19:26:59Z</time></trkpt>
<trkpt lat="46.316782319918275" lon="6.963472589850426"><ele></ele><time>2013-9-9T19:27:2Z</time></trkpt>
<trkpt lat="46.31679623387754" lon="6.963481055572629"><ele></ele><time>2013-9-9T19:27:5Z</time></trkpt>
<trkpt lat="46.3168656360358" lon="6.963498489931226"><ele></ele><time>2013-9-9T19:27:8Z</time></trkpt>
</trkseg></trk></gpx>